<?xml version="1.0" encoding="UTF-8" standalone="no" ?>
<gpx xmlns="http://www.topografix.com/GPX/1/1" xmlns:xsi="http://www.w3.org/2001/XMLSchema-instance" xsi:schemaLocation="http://www.topografix.com/GPX/1/1 http://www.topografix.com/GPX/1/1/gpx.xsd" version="1.1" creator="VisuGPX - https://www.visugpx.com">
  <metadata>
    <name>83-D-St Mandrier : tout le parcours, y compris le bateau...</name>
    <desc><![CDATA[83-D-St Mandrier :contour de la presqu'île 
2025-05-25-JCP
]]></desc>
  </metadata>
  <trk>
    <name><![CDATA[2025-05-25-D-St Mandrier-JCP]]></name>
    <extensions>
      <line xmlns="http://www.topografix.com/GPX/gpx_style/0/2">
        <width>4</width>
      </line>
    </extensions>
    <trkseg>
      <trkpt lat="43.12789" lon="5.9363">
        <ele>40.1</ele>
        <time>2025-05-25T05:58:45.000Z</time>
      </trkpt>
      <trkpt lat="43.12789" lon="5.9363">
        <ele>40.1</ele>
        <time>2025-05-25T05:58:46.000Z</time>
      </trkpt>
      <trkpt lat="43.12789" lon="5.9363">
        <ele>40.1</ele>
        <time>2025-05-25T05:58:47.000Z</time>
      </trkpt>
      <trkpt lat="43.1279" lon="5.9363">
        <ele>40.1</ele>
        <time>2025-05-25T05:58:48.000Z</time>
      </trkpt>
      <trkpt lat="43.1279" lon="5.9363">
        <ele>40.1</ele>
        <time>2025-05-25T05:58:49.000Z</time>
      </trkpt>
      <trkpt lat="43.1279" lon="5.9363">
        <ele>40.1</ele>
        <time>2025-05-25T05:58:50.000Z</time>
      </trkpt>
      <trkpt lat="43.1279" lon="5.93631">
        <ele>40.1</ele>
        <time>2025-05-25T05:58:55.000Z</time>
      </trkpt>
      <trkpt lat="43.1279" lon="5.93631">
        <ele>40.1</ele>
        <time>2025-05-25T05:58:56.000Z</time>
      </trkpt>
      <trkpt lat="43.1279" lon="5.93631">
        <ele>40.1</ele>
        <time>2025-05-25T05:58:57.000Z</time>
      </trkpt>
      <trkpt lat="43.1279" lon="5.93631">
        <ele>40</ele>
        <time>2025-05-25T05:59:26.000Z</time>
      </trkpt>
      <trkpt lat="43.1279" lon="5.93631">
        <ele>40</ele>
        <time>2025-05-25T05:59:27.000Z</time>
      </trkpt>
      <trkpt lat="43.1279" lon="5.93631">
        <ele>39.9</ele>
        <time>2025-05-25T05:59:38.000Z</time>
      </trkpt>
      <trkpt lat="43.1279" lon="5.93631">
        <ele>39.9</ele>
        <time>2025-05-25T05:59:39.000Z</time>
      </trkpt>
      <trkpt lat="43.1279" lon="5.93631">
        <ele>39.9</ele>
        <time>2025-05-25T05:59:40.000Z</time>
      </trkpt>
      <trkpt lat="43.1279" lon="5.93631">
        <ele>39.9</ele>
        <time>2025-05-25T05:59:50.000Z</time>
      </trkpt>
      <trkpt lat="43.1279" lon="5.93631">
        <ele>39.9</ele>
        <time>2025-05-25T05:59:50.000Z</time>
      </trkpt>
      <trkpt lat="43.1279" lon="5.93631">
        <ele>39.9</ele>
        <time>2025-05-25T05:59:51.000Z</time>
      </trkpt>
      <trkpt lat="43.1279" lon="5.93631">
        <ele>39.9</ele>
        <time>2025-05-25T05:59:52.000Z</time>
      </trkpt>
      <trkpt lat="43.1279" lon="5.93631">
        <ele>39.9</ele>
        <time>2025-05-25T05:59:53.000Z</time>
      </trkpt>
      <trkpt lat="43.1279" lon="5.93631">
        <ele>39.9</ele>
        <time>2025-05-25T05:59:54.000Z</time>
      </trkpt>
      <trkpt lat="43.12791" lon="5.9363">
        <ele>39.9</ele>
        <time>2025-05-25T06:00:08.000Z</time>
      </trkpt>
      <trkpt lat="43.1279" lon="5.9363">
        <ele>39.9</ele>
        <time>2025-05-25T06:00:09.000Z</time>
      </trkpt>
      <trkpt lat="43.1279" lon="5.9363">
        <ele>39.8</ele>
        <time>2025-05-25T06:00:13.000Z</time>
      </trkpt>
      <trkpt lat="43.1279" lon="5.9363">
        <ele>39.8</ele>
        <time>2025-05-25T06:00:14.000Z</time>
      </trkpt>
      <trkpt lat="43.1279" lon="5.9363">
        <ele>39.7</ele>
        <time>2025-05-25T06:00:15.000Z</time>
      </trkpt>
      <trkpt lat="43.1279" lon="5.9363">
        <ele>39.8</ele>
        <time>2025-05-25T06:00:22.000Z</time>
      </trkpt>
      <trkpt lat="43.1279" lon="5.93629">
        <ele>39.8</ele>
        <time>2025-05-25T06:00:23.000Z</time>
      </trkpt>
      <trkpt lat="43.12789" lon="5.9363">
        <ele>39.8</ele>
        <time>2025-05-25T06:00:24.000Z</time>
      </trkpt>
      <trkpt lat="43.12789" lon="5.9363">
        <ele>39.8</ele>
        <time>2025-05-25T06:00:25.000Z</time>
      </trkpt>
      <trkpt lat="43.12789" lon="5.9363">
        <ele>39.8</ele>
        <time>2025-05-25T06:00:26.000Z</time>
      </trkpt>
      <trkpt lat="43.12789" lon="5.9363">
        <ele>39.8</ele>
        <time>2025-05-25T06:00:27.000Z</time>
      </trkpt>
      <trkpt lat="43.12789" lon="5.93631">
        <ele>39.6</ele>
        <time>2025-05-25T06:00:45.000Z</time>
      </trkpt>
      <trkpt lat="43.12789" lon="5.93631">
        <ele>39.6</ele>
        <time>2025-05-25T06:00:46.000Z</time>
      </trkpt>
      <trkpt lat="43.12789" lon="5.93631">
        <ele>39.6</ele>
        <time>2025-05-25T06:00:47.000Z</time>
      </trkpt>
      <trkpt lat="43.12787" lon="5.93633">
        <ele>39.8</ele>
        <time>2025-05-25T06:01:07.000Z</time>
      </trkpt>
      <trkpt lat="43.12787" lon="5.93633">
        <ele>39.7</ele>
        <time>2025-05-25T06:01:08.000Z</time>
      </trkpt>
      <trkpt lat="43.12787" lon="5.93633">
        <ele>39.6</ele>
        <time>2025-05-25T06:01:09.000Z</time>
      </trkpt>
      <trkpt lat="43.12787" lon="5.93633">
        <ele>39.7</ele>
        <time>2025-05-25T06:01:10.000Z</time>
      </trkpt>
      <trkpt lat="43.12787" lon="5.93633">
        <ele>39.9</ele>
        <time>2025-05-25T06:01:11.000Z</time>
      </trkpt>
      <trkpt lat="43.12787" lon="5.93636">
        <ele>39.8</ele>
        <time>2025-05-25T06:01:20.000Z</time>
      </trkpt>
      <trkpt lat="43.12788" lon="5.93635">
        <ele>39.8</ele>
        <time>2025-05-25T06:01:21.000Z</time>
      </trkpt>
      <trkpt lat="43.12788" lon="5.93634">
        <ele>39.7</ele>
        <time>2025-05-25T06:01:22.000Z</time>
      </trkpt>
      <trkpt lat="43.12789" lon="5.93634">
        <ele>39.7</ele>
        <time>2025-05-25T06:01:23.000Z</time>
      </trkpt>
      <trkpt lat="43.12789" lon="5.93633">
        <ele>39.7</ele>
        <time>2025-05-25T06:01:24.000Z</time>
      </trkpt>
      <trkpt lat="43.12782" lon="5.93637">
        <ele>39.6</ele>
        <time>2025-05-25T06:01:40.000Z</time>
      </trkpt>
      <trkpt lat="43.12781" lon="5.93637">
        <ele>39.6</ele>
        <time>2025-05-25T06:01:41.000Z</time>
      </trkpt>
      <trkpt lat="43.12779" lon="5.93637">
        <ele>39.6</ele>
        <time>2025-05-25T06:01:42.000Z</time>
      </trkpt>
      <trkpt lat="43.12778" lon="5.93637">
        <ele>39.6</ele>
        <time>2025-05-25T06:01:43.000Z</time>
      </trkpt>
      <trkpt lat="43.12777" lon="5.93637">
        <ele>39.6</ele>
        <time>2025-05-25T06:01:44.000Z</time>
      </trkpt>
      <trkpt lat="43.12767" lon="5.93636">
        <ele>39.5</ele>
        <time>2025-05-25T06:01:51.000Z</time>
      </trkpt>
      <trkpt lat="43.12757" lon="5.93636">
        <ele>39.3</ele>
        <time>2025-05-25T06:01:58.000Z</time>
      </trkpt>
      <trkpt lat="43.12748" lon="5.93636">
        <ele>39</ele>
        <time>2025-05-25T06:02:06.000Z</time>
      </trkpt>
      <trkpt lat="43.12739" lon="5.93639">
        <ele>38.4</ele>
        <time>2025-05-25T06:02:15.000Z</time>
      </trkpt>
      <trkpt lat="43.12729" lon="5.93638">
        <ele>37.7</ele>
        <time>2025-05-25T06:02:23.000Z</time>
      </trkpt>
      <trkpt lat="43.1272" lon="5.93641">
        <ele>37</ele>
        <time>2025-05-25T06:02:32.000Z</time>
      </trkpt>
      <trkpt lat="43.12711" lon="5.9364">
        <ele>36.5</ele>
        <time>2025-05-25T06:02:39.000Z</time>
      </trkpt>
      <trkpt lat="43.12702" lon="5.93639">
        <ele>36</ele>
        <time>2025-05-25T06:02:46.000Z</time>
      </trkpt>
      <trkpt lat="43.12692" lon="5.93636">
        <ele>35.5</ele>
        <time>2025-05-25T06:02:53.000Z</time>
      </trkpt>
      <trkpt lat="43.12683" lon="5.93637">
        <ele>35</ele>
        <time>2025-05-25T06:03:01.000Z</time>
      </trkpt>
      <trkpt lat="43.12673" lon="5.93639">
        <ele>34.5</ele>
        <time>2025-05-25T06:03:10.000Z</time>
      </trkpt>
      <trkpt lat="43.12664" lon="5.93635">
        <ele>34.3</ele>
        <time>2025-05-25T06:03:16.000Z</time>
      </trkpt>
      <trkpt lat="43.12655" lon="5.93634">
        <ele>34</ele>
        <time>2025-05-25T06:03:27.000Z</time>
      </trkpt>
      <trkpt lat="43.12651" lon="5.93639">
        <ele>33.8</ele>
        <time>2025-05-25T06:03:37.000Z</time>
      </trkpt>
      <trkpt lat="43.12651" lon="5.93639">
        <ele>33.8</ele>
        <time>2025-05-25T06:03:38.000Z</time>
      </trkpt>
      <trkpt lat="43.12651" lon="5.93639">
        <ele>33.8</ele>
        <time>2025-05-25T06:03:39.000Z</time>
      </trkpt>
      <trkpt lat="43.12651" lon="5.93639">
        <ele>33.7</ele>
        <time>2025-05-25T06:03:52.000Z</time>
      </trkpt>
      <trkpt lat="43.12651" lon="5.93639">
        <ele>33.7</ele>
        <time>2025-05-25T06:03:53.000Z</time>
      </trkpt>
      <trkpt lat="43.12651" lon="5.93639">
        <ele>33.7</ele>
        <time>2025-05-25T06:03:54.000Z</time>
      </trkpt>
      <trkpt lat="43.12651" lon="5.93639">
        <ele>33.7</ele>
        <time>2025-05-25T06:03:55.000Z</time>
      </trkpt>
      <trkpt lat="43.12651" lon="5.93639">
        <ele>33.7</ele>
        <time>2025-05-25T06:03:56.000Z</time>
      </trkpt>
      <trkpt lat="43.12651" lon="5.93639">
        <ele>33.7</ele>
        <time>2025-05-25T06:03:57.000Z</time>
      </trkpt>
      <trkpt lat="43.12652" lon="5.93637">
        <ele>33.6</ele>
        <time>2025-05-25T06:04:25.000Z</time>
      </trkpt>
      <trkpt lat="43.12652" lon="5.93636">
        <ele>33.6</ele>
        <time>2025-05-25T06:04:26.000Z</time>
      </trkpt>
      <trkpt lat="43.12652" lon="5.93634">
        <ele>33.6</ele>
        <time>2025-05-25T06:04:27.000Z</time>
      </trkpt>
      <trkpt lat="43.12652" lon="5.93621">
        <ele>33.5</ele>
        <time>2025-05-25T06:04:36.000Z</time>
      </trkpt>
      <trkpt lat="43.12652" lon="5.93607">
        <ele>33.4</ele>
        <time>2025-05-25T06:04:46.000Z</time>
      </trkpt>
      <trkpt lat="43.12658" lon="5.93596">
        <ele>33.4</ele>
        <time>2025-05-25T06:04:55.000Z</time>
      </trkpt>
      <trkpt lat="43.12663" lon="5.93585">
        <ele>33.3</ele>
        <time>2025-05-25T06:05:03.000Z</time>
      </trkpt>
      <trkpt lat="43.12668" lon="5.93575">
        <ele>33.1</ele>
        <time>2025-05-25T06:05:11.000Z</time>
      </trkpt>
      <trkpt lat="43.12674" lon="5.93563">
        <ele>33</ele>
        <time>2025-05-25T06:05:19.000Z</time>
      </trkpt>
      <trkpt lat="43.12678" lon="5.93552">
        <ele>32.8</ele>
        <time>2025-05-25T06:05:27.000Z</time>
      </trkpt>
      <trkpt lat="43.12683" lon="5.9354">
        <ele>32.6</ele>
        <time>2025-05-25T06:05:35.000Z</time>
      </trkpt>
      <trkpt lat="43.12692" lon="5.93534">
        <ele>32.5</ele>
        <time>2025-05-25T06:05:42.000Z</time>
      </trkpt>
      <trkpt lat="43.127" lon="5.93528">
        <ele>32.3</ele>
        <time>2025-05-25T06:05:50.000Z</time>
      </trkpt>
      <trkpt lat="43.12709" lon="5.93523">
        <ele>32.2</ele>
        <time>2025-05-25T06:05:58.000Z</time>
      </trkpt>
      <trkpt lat="43.12718" lon="5.93518">
        <ele>32.2</ele>
        <time>2025-05-25T06:06:05.000Z</time>
      </trkpt>
      <trkpt lat="43.12727" lon="5.93515">
        <ele>32.3</ele>
        <time>2025-05-25T06:06:13.000Z</time>
      </trkpt>
      <trkpt lat="43.12732" lon="5.93512">
        <ele>32.4</ele>
        <time>2025-05-25T06:06:23.000Z</time>
      </trkpt>
      <trkpt lat="43.12732" lon="5.93512">
        <ele>32.5</ele>
        <time>2025-05-25T06:06:24.000Z</time>
      </trkpt>
      <trkpt lat="43.12733" lon="5.93512">
        <ele>32.6</ele>
        <time>2025-05-25T06:06:32.000Z</time>
      </trkpt>
      <trkpt lat="43.12733" lon="5.93512">
        <ele>32.6</ele>
        <time>2025-05-25T06:06:33.000Z</time>
      </trkpt>
      <trkpt lat="43.12734" lon="5.93512">
        <ele>32.6</ele>
        <time>2025-05-25T06:06:34.000Z</time>
      </trkpt>
      <trkpt lat="43.12735" lon="5.93512">
        <ele>32.6</ele>
        <time>2025-05-25T06:06:35.000Z</time>
      </trkpt>
      <trkpt lat="43.12735" lon="5.93511">
        <ele>32.6</ele>
        <time>2025-05-25T06:06:36.000Z</time>
      </trkpt>
      <trkpt lat="43.12736" lon="5.93511">
        <ele>32.7</ele>
        <time>2025-05-25T06:06:40.000Z</time>
      </trkpt>
      <trkpt lat="43.12735" lon="5.9351">
        <ele>32.7</ele>
        <time>2025-05-25T06:06:41.000Z</time>
      </trkpt>
      <trkpt lat="43.12734" lon="5.93509">
        <ele>32.7</ele>
        <time>2025-05-25T06:06:42.000Z</time>
      </trkpt>
      <trkpt lat="43.12725" lon="5.93504">
        <ele>32.7</ele>
        <time>2025-05-25T06:06:50.000Z</time>
      </trkpt>
      <trkpt lat="43.12716" lon="5.93504">
        <ele>32.6</ele>
        <time>2025-05-25T06:06:57.000Z</time>
      </trkpt>
      <trkpt lat="43.12708" lon="5.93511">
        <ele>32.5</ele>
        <time>2025-05-25T06:07:08.000Z</time>
      </trkpt>
      <trkpt lat="43.12702" lon="5.935">
        <ele>32.1</ele>
        <time>2025-05-25T06:07:36.000Z</time>
      </trkpt>
      <trkpt lat="43.12693" lon="5.93495">
        <ele>32</ele>
        <time>2025-05-25T06:07:45.000Z</time>
      </trkpt>
      <trkpt lat="43.1269" lon="5.93494">
        <ele>31.8</ele>
        <time>2025-05-25T06:08:00.000Z</time>
      </trkpt>
      <trkpt lat="43.1269" lon="5.93494">
        <ele>31.8</ele>
        <time>2025-05-25T06:08:01.000Z</time>
      </trkpt>
      <trkpt lat="43.12692" lon="5.93492">
        <ele>31.7</ele>
        <time>2025-05-25T06:08:05.000Z</time>
      </trkpt>
      <trkpt lat="43.12693" lon="5.93491">
        <ele>31.7</ele>
        <time>2025-05-25T06:08:06.000Z</time>
      </trkpt>
      <trkpt lat="43.12694" lon="5.9349">
        <ele>31.7</ele>
        <time>2025-05-25T06:08:07.000Z</time>
      </trkpt>
      <trkpt lat="43.12699" lon="5.93479">
        <ele>31.6</ele>
        <time>2025-05-25T06:08:17.000Z</time>
      </trkpt>
      <trkpt lat="43.12702" lon="5.93467">
        <ele>31.5</ele>
        <time>2025-05-25T06:08:24.000Z</time>
      </trkpt>
      <trkpt lat="43.12707" lon="5.93456">
        <ele>31.4</ele>
        <time>2025-05-25T06:08:32.000Z</time>
      </trkpt>
      <trkpt lat="43.1271" lon="5.93443">
        <ele>31.2</ele>
        <time>2025-05-25T06:08:43.000Z</time>
      </trkpt>
      <trkpt lat="43.12715" lon="5.93433">
        <ele>31</ele>
        <time>2025-05-25T06:08:51.000Z</time>
      </trkpt>
      <trkpt lat="43.12715" lon="5.93429">
        <ele>30.9</ele>
        <time>2025-05-25T06:08:57.000Z</time>
      </trkpt>
      <trkpt lat="43.12715" lon="5.93429">
        <ele>30.9</ele>
        <time>2025-05-25T06:08:58.000Z</time>
      </trkpt>
      <trkpt lat="43.12715" lon="5.93429">
        <ele>30.9</ele>
        <time>2025-05-25T06:08:59.000Z</time>
      </trkpt>
      <trkpt lat="43.12715" lon="5.93428">
        <ele>30.8</ele>
        <time>2025-05-25T06:09:02.000Z</time>
      </trkpt>
      <trkpt lat="43.12715" lon="5.93428">
        <ele>30.8</ele>
        <time>2025-05-25T06:09:03.000Z</time>
      </trkpt>
      <trkpt lat="43.12715" lon="5.93427">
        <ele>30.8</ele>
        <time>2025-05-25T06:09:04.000Z</time>
      </trkpt>
      <trkpt lat="43.12722" lon="5.93416">
        <ele>30.7</ele>
        <time>2025-05-25T06:09:13.000Z</time>
      </trkpt>
      <trkpt lat="43.12727" lon="5.93406">
        <ele>30.6</ele>
        <time>2025-05-25T06:09:21.000Z</time>
      </trkpt>
      <trkpt lat="43.12731" lon="5.93394">
        <ele>30.5</ele>
        <time>2025-05-25T06:09:29.000Z</time>
      </trkpt>
      <trkpt lat="43.12735" lon="5.93382">
        <ele>30.4</ele>
        <time>2025-05-25T06:09:37.000Z</time>
      </trkpt>
      <trkpt lat="43.12742" lon="5.93372">
        <ele>30.3</ele>
        <time>2025-05-25T06:09:44.000Z</time>
      </trkpt>
      <trkpt lat="43.12747" lon="5.93361">
        <ele>30.1</ele>
        <time>2025-05-25T06:09:51.000Z</time>
      </trkpt>
      <trkpt lat="43.12746" lon="5.9336">
        <ele>30</ele>
        <time>2025-05-25T06:09:55.000Z</time>
      </trkpt>
      <trkpt lat="43.12746" lon="5.9336">
        <ele>30</ele>
        <time>2025-05-25T06:09:56.000Z</time>
      </trkpt>
      <trkpt lat="43.12745" lon="5.9336">
        <ele>30</ele>
        <time>2025-05-25T06:09:57.000Z</time>
      </trkpt>
      <trkpt lat="43.12746" lon="5.9336">
        <ele>29.9</ele>
        <time>2025-05-25T06:09:58.000Z</time>
      </trkpt>
      <trkpt lat="43.12746" lon="5.93358">
        <ele>29.9</ele>
        <time>2025-05-25T06:09:59.000Z</time>
      </trkpt>
      <trkpt lat="43.12752" lon="5.93346">
        <ele>29.8</ele>
        <time>2025-05-25T06:10:07.000Z</time>
      </trkpt>
      <trkpt lat="43.12755" lon="5.93334">
        <ele>29.7</ele>
        <time>2025-05-25T06:10:14.000Z</time>
      </trkpt>
      <trkpt lat="43.1276" lon="5.93322">
        <ele>29.5</ele>
        <time>2025-05-25T06:10:22.000Z</time>
      </trkpt>
      <trkpt lat="43.12763" lon="5.93309">
        <ele>29.4</ele>
        <time>2025-05-25T06:10:31.000Z</time>
      </trkpt>
      <trkpt lat="43.12768" lon="5.93296">
        <ele>29.2</ele>
        <time>2025-05-25T06:10:39.000Z</time>
      </trkpt>
      <trkpt lat="43.12773" lon="5.93286">
        <ele>29.1</ele>
        <time>2025-05-25T06:10:45.000Z</time>
      </trkpt>
      <trkpt lat="43.12779" lon="5.93276">
        <ele>28.9</ele>
        <time>2025-05-25T06:10:52.000Z</time>
      </trkpt>
      <trkpt lat="43.12783" lon="5.93263">
        <ele>28.7</ele>
        <time>2025-05-25T06:11:00.000Z</time>
      </trkpt>
      <trkpt lat="43.12787" lon="5.93251">
        <ele>28.5</ele>
        <time>2025-05-25T06:11:09.000Z</time>
      </trkpt>
      <trkpt lat="43.1279" lon="5.93243">
        <ele>28.1</ele>
        <time>2025-05-25T06:11:31.000Z</time>
      </trkpt>
      <trkpt lat="43.1279" lon="5.93243">
        <ele>28</ele>
        <time>2025-05-25T06:11:32.000Z</time>
      </trkpt>
      <trkpt lat="43.12789" lon="5.93243">
        <ele>28</ele>
        <time>2025-05-25T06:11:37.000Z</time>
      </trkpt>
      <trkpt lat="43.12789" lon="5.93243">
        <ele>28</ele>
        <time>2025-05-25T06:11:38.000Z</time>
      </trkpt>
      <trkpt lat="43.12788" lon="5.93243">
        <ele>28</ele>
        <time>2025-05-25T06:11:39.000Z</time>
      </trkpt>
      <trkpt lat="43.12788" lon="5.93243">
        <ele>28</ele>
        <time>2025-05-25T06:11:43.000Z</time>
      </trkpt>
      <trkpt lat="43.12788" lon="5.93243">
        <ele>28</ele>
        <time>2025-05-25T06:11:44.000Z</time>
      </trkpt>
      <trkpt lat="43.12788" lon="5.93243">
        <ele>28</ele>
        <time>2025-05-25T06:11:45.000Z</time>
      </trkpt>
      <trkpt lat="43.12788" lon="5.93242">
        <ele>27.9</ele>
        <time>2025-05-25T06:12:00.000Z</time>
      </trkpt>
      <trkpt lat="43.12788" lon="5.93243">
        <ele>27.9</ele>
        <time>2025-05-25T06:12:01.000Z</time>
      </trkpt>
      <trkpt lat="43.12788" lon="5.93242">
        <ele>27.9</ele>
        <time>2025-05-25T06:12:05.000Z</time>
      </trkpt>
      <trkpt lat="43.12788" lon="5.93242">
        <ele>27.9</ele>
        <time>2025-05-25T06:12:06.000Z</time>
      </trkpt>
      <trkpt lat="43.12788" lon="5.93243">
        <ele>27.9</ele>
        <time>2025-05-25T06:12:10.000Z</time>
      </trkpt>
      <trkpt lat="43.12788" lon="5.93243">
        <ele>27.9</ele>
        <time>2025-05-25T06:12:11.000Z</time>
      </trkpt>
      <trkpt lat="43.12788" lon="5.93243">
        <ele>27.9</ele>
        <time>2025-05-25T06:12:12.000Z</time>
      </trkpt>
      <trkpt lat="43.12789" lon="5.93245">
        <ele>27.9</ele>
        <time>2025-05-25T06:12:13.000Z</time>
      </trkpt>
      <trkpt lat="43.12789" lon="5.93245">
        <ele>27.9</ele>
        <time>2025-05-25T06:12:14.000Z</time>
      </trkpt>
      <trkpt lat="43.1279" lon="5.93247">
        <ele>27.9</ele>
        <time>2025-05-25T06:12:18.000Z</time>
      </trkpt>
      <trkpt lat="43.1279" lon="5.93247">
        <ele>27.9</ele>
        <time>2025-05-25T06:12:19.000Z</time>
      </trkpt>
      <trkpt lat="43.1279" lon="5.93247">
        <ele>27.9</ele>
        <time>2025-05-25T06:12:20.000Z</time>
      </trkpt>
      <trkpt lat="43.1279" lon="5.93247">
        <ele>27.9</ele>
        <time>2025-05-25T06:12:21.000Z</time>
      </trkpt>
      <trkpt lat="43.1279" lon="5.93247">
        <ele>27.9</ele>
        <time>2025-05-25T06:12:22.000Z</time>
      </trkpt>
      <trkpt lat="43.12789" lon="5.93248">
        <ele>27.9</ele>
        <time>2025-05-25T06:12:35.000Z</time>
      </trkpt>
      <trkpt lat="43.12789" lon="5.93248">
        <ele>27.9</ele>
        <time>2025-05-25T06:12:36.000Z</time>
      </trkpt>
      <trkpt lat="43.12789" lon="5.93247">
        <ele>27.9</ele>
        <time>2025-05-25T06:12:37.000Z</time>
      </trkpt>
      <trkpt lat="43.12789" lon="5.93247">
        <ele>27.9</ele>
        <time>2025-05-25T06:12:38.000Z</time>
      </trkpt>
      <trkpt lat="43.12789" lon="5.93247">
        <ele>27.9</ele>
        <time>2025-05-25T06:12:39.000Z</time>
      </trkpt>
      <trkpt lat="43.12789" lon="5.93247">
        <ele>27.9</ele>
        <time>2025-05-25T06:12:42.000Z</time>
      </trkpt>
      <trkpt lat="43.12789" lon="5.93247">
        <ele>27.9</ele>
        <time>2025-05-25T06:12:43.000Z</time>
      </trkpt>
      <trkpt lat="43.12789" lon="5.93247">
        <ele>27.9</ele>
        <time>2025-05-25T06:12:44.000Z</time>
      </trkpt>
      <trkpt lat="43.12789" lon="5.93247">
        <ele>27.9</ele>
        <time>2025-05-25T06:12:45.000Z</time>
      </trkpt>
      <trkpt lat="43.12789" lon="5.93247">
        <ele>27.9</ele>
        <time>2025-05-25T06:12:46.000Z</time>
      </trkpt>
      <trkpt lat="43.12792" lon="5.93248">
        <ele>27.9</ele>
        <time>2025-05-25T06:13:11.000Z</time>
      </trkpt>
      <trkpt lat="43.12792" lon="5.93247">
        <ele>27.9</ele>
        <time>2025-05-25T06:13:12.000Z</time>
      </trkpt>
      <trkpt lat="43.12791" lon="5.93234">
        <ele>27.9</ele>
        <time>2025-05-25T06:13:26.000Z</time>
      </trkpt>
      <trkpt lat="43.12791" lon="5.93234">
        <ele>27.9</ele>
        <time>2025-05-25T06:13:27.000Z</time>
      </trkpt>
      <trkpt lat="43.12791" lon="5.93234">
        <ele>27.9</ele>
        <time>2025-05-25T06:13:28.000Z</time>
      </trkpt>
      <trkpt lat="43.12791" lon="5.93234">
        <ele>27.9</ele>
        <time>2025-05-25T06:13:29.000Z</time>
      </trkpt>
      <trkpt lat="43.1279" lon="5.93233">
        <ele>27.9</ele>
        <time>2025-05-25T06:13:33.000Z</time>
      </trkpt>
      <trkpt lat="43.1279" lon="5.93233">
        <ele>27.9</ele>
        <time>2025-05-25T06:13:34.000Z</time>
      </trkpt>
      <trkpt lat="43.1279" lon="5.93232">
        <ele>27.9</ele>
        <time>2025-05-25T06:13:37.000Z</time>
      </trkpt>
      <trkpt lat="43.1279" lon="5.93232">
        <ele>27.9</ele>
        <time>2025-05-25T06:13:38.000Z</time>
      </trkpt>
      <trkpt lat="43.1279" lon="5.93232">
        <ele>27.9</ele>
        <time>2025-05-25T06:13:39.000Z</time>
      </trkpt>
      <trkpt lat="43.12793" lon="5.93231">
        <ele>27.9</ele>
        <time>2025-05-25T06:13:43.000Z</time>
      </trkpt>
      <trkpt lat="43.12793" lon="5.93231">
        <ele>27.9</ele>
        <time>2025-05-25T06:13:44.000Z</time>
      </trkpt>
      <trkpt lat="43.12793" lon="5.93232">
        <ele>27.9</ele>
        <time>2025-05-25T06:13:50.000Z</time>
      </trkpt>
      <trkpt lat="43.12792" lon="5.93232">
        <ele>27.9</ele>
        <time>2025-05-25T06:13:51.000Z</time>
      </trkpt>
      <trkpt lat="43.12792" lon="5.93232">
        <ele>27.9</ele>
        <time>2025-05-25T06:13:52.000Z</time>
      </trkpt>
      <trkpt lat="43.12791" lon="5.93232">
        <ele>27.9</ele>
        <time>2025-05-25T06:13:58.000Z</time>
      </trkpt>
      <trkpt lat="43.12791" lon="5.93232">
        <ele>27.9</ele>
        <time>2025-05-25T06:13:59.000Z</time>
      </trkpt>
      <trkpt lat="43.12791" lon="5.93232">
        <ele>27.9</ele>
        <time>2025-05-25T06:14:00.000Z</time>
      </trkpt>
      <trkpt lat="43.12791" lon="5.93232">
        <ele>27.9</ele>
        <time>2025-05-25T06:14:01.000Z</time>
      </trkpt>
      <trkpt lat="43.12794" lon="5.93232">
        <ele>27.9</ele>
        <time>2025-05-25T06:14:22.000Z</time>
      </trkpt>
      <trkpt lat="43.12794" lon="5.93232">
        <ele>27.9</ele>
        <time>2025-05-25T06:14:23.000Z</time>
      </trkpt>
      <trkpt lat="43.12794" lon="5.93232">
        <ele>27.9</ele>
        <time>2025-05-25T06:14:24.000Z</time>
      </trkpt>
      <trkpt lat="43.12794" lon="5.93232">
        <ele>27.9</ele>
        <time>2025-05-25T06:14:25.000Z</time>
      </trkpt>
      <trkpt lat="43.12794" lon="5.93232">
        <ele>27.9</ele>
        <time>2025-05-25T06:14:26.000Z</time>
      </trkpt>
      <trkpt lat="43.12795" lon="5.93232">
        <ele>27.9</ele>
        <time>2025-05-25T06:14:35.000Z</time>
      </trkpt>
      <trkpt lat="43.12795" lon="5.93232">
        <ele>27.9</ele>
        <time>2025-05-25T06:14:36.000Z</time>
      </trkpt>
      <trkpt lat="43.12795" lon="5.93232">
        <ele>27.9</ele>
        <time>2025-05-25T06:14:37.000Z</time>
      </trkpt>
      <trkpt lat="43.12796" lon="5.93232">
        <ele>27.9</ele>
        <time>2025-05-25T06:14:42.000Z</time>
      </trkpt>
      <trkpt lat="43.12796" lon="5.93232">
        <ele>27.9</ele>
        <time>2025-05-25T06:14:43.000Z</time>
      </trkpt>
      <trkpt lat="43.12796" lon="5.93232">
        <ele>27.9</ele>
        <time>2025-05-25T06:14:44.000Z</time>
      </trkpt>
      <trkpt lat="43.12797" lon="5.9323">
        <ele>27.9</ele>
        <time>2025-05-25T06:14:48.000Z</time>
      </trkpt>
      <trkpt lat="43.12798" lon="5.93229">
        <ele>27.9</ele>
        <time>2025-05-25T06:14:49.000Z</time>
      </trkpt>
      <trkpt lat="43.12797" lon="5.93216">
        <ele>27.9</ele>
        <time>2025-05-25T06:15:01.000Z</time>
      </trkpt>
      <trkpt lat="43.12794" lon="5.9321">
        <ele>27.8</ele>
        <time>2025-05-25T06:15:10.000Z</time>
      </trkpt>
      <trkpt lat="43.12794" lon="5.9321">
        <ele>27.8</ele>
        <time>2025-05-25T06:15:11.000Z</time>
      </trkpt>
      <trkpt lat="43.12792" lon="5.9321">
        <ele>27.8</ele>
        <time>2025-05-25T06:15:15.000Z</time>
      </trkpt>
      <trkpt lat="43.12792" lon="5.93211">
        <ele>27.8</ele>
        <time>2025-05-25T06:15:16.000Z</time>
      </trkpt>
      <trkpt lat="43.12793" lon="5.93212">
        <ele>27.8</ele>
        <time>2025-05-25T06:15:17.000Z</time>
      </trkpt>
      <trkpt lat="43.12792" lon="5.93212">
        <ele>27.8</ele>
        <time>2025-05-25T06:15:25.000Z</time>
      </trkpt>
      <trkpt lat="43.12792" lon="5.93212">
        <ele>27.8</ele>
        <time>2025-05-25T06:15:26.000Z</time>
      </trkpt>
      <trkpt lat="43.12792" lon="5.93212">
        <ele>27.8</ele>
        <time>2025-05-25T06:15:27.000Z</time>
      </trkpt>
      <trkpt lat="43.12791" lon="5.93214">
        <ele>27.7</ele>
        <time>2025-05-25T06:16:12.000Z</time>
      </trkpt>
      <trkpt lat="43.12791" lon="5.93214">
        <ele>27.7</ele>
        <time>2025-05-25T06:16:13.000Z</time>
      </trkpt>
      <trkpt lat="43.12791" lon="5.93214">
        <ele>27.7</ele>
        <time>2025-05-25T06:16:14.000Z</time>
      </trkpt>
      <trkpt lat="43.12791" lon="5.93214">
        <ele>27.7</ele>
        <time>2025-05-25T06:16:17.000Z</time>
      </trkpt>
      <trkpt lat="43.12791" lon="5.93214">
        <ele>27.7</ele>
        <time>2025-05-25T06:16:18.000Z</time>
      </trkpt>
      <trkpt lat="43.12791" lon="5.93214">
        <ele>27.7</ele>
        <time>2025-05-25T06:16:19.000Z</time>
      </trkpt>
      <trkpt lat="43.12791" lon="5.93214">
        <ele>27.7</ele>
        <time>2025-05-25T06:16:20.000Z</time>
      </trkpt>
      <trkpt lat="43.12791" lon="5.93214">
        <ele>27.7</ele>
        <time>2025-05-25T06:16:21.000Z</time>
      </trkpt>
      <trkpt lat="43.12791" lon="5.93214">
        <ele>27.7</ele>
        <time>2025-05-25T06:16:22.000Z</time>
      </trkpt>
      <trkpt lat="43.12791" lon="5.93214">
        <ele>27.7</ele>
        <time>2025-05-25T06:16:23.000Z</time>
      </trkpt>
      <trkpt lat="43.12791" lon="5.93214">
        <ele>27.7</ele>
        <time>2025-05-25T06:16:24.000Z</time>
      </trkpt>
      <trkpt lat="43.12792" lon="5.93214">
        <ele>27.7</ele>
        <time>2025-05-25T06:16:52.000Z</time>
      </trkpt>
      <trkpt lat="43.12791" lon="5.93214">
        <ele>27.7</ele>
        <time>2025-05-25T06:16:53.000Z</time>
      </trkpt>
      <trkpt lat="43.12791" lon="5.93214">
        <ele>27.7</ele>
        <time>2025-05-25T06:16:54.000Z</time>
      </trkpt>
      <trkpt lat="43.12791" lon="5.93214">
        <ele>27.7</ele>
        <time>2025-05-25T06:16:55.000Z</time>
      </trkpt>
      <trkpt lat="43.12791" lon="5.93214">
        <ele>27.7</ele>
        <time>2025-05-25T06:16:56.000Z</time>
      </trkpt>
      <trkpt lat="43.12792" lon="5.93216">
        <ele>27.6</ele>
        <time>2025-05-25T06:17:00.000Z</time>
      </trkpt>
      <trkpt lat="43.12792" lon="5.93217">
        <ele>27.6</ele>
        <time>2025-05-25T06:17:01.000Z</time>
      </trkpt>
      <trkpt lat="43.12793" lon="5.93229">
        <ele>27.7</ele>
        <time>2025-05-25T06:17:10.000Z</time>
      </trkpt>
      <trkpt lat="43.12793" lon="5.93236">
        <ele>27.7</ele>
        <time>2025-05-25T06:17:27.000Z</time>
      </trkpt>
      <trkpt lat="43.12793" lon="5.93236">
        <ele>27.7</ele>
        <time>2025-05-25T06:17:28.000Z</time>
      </trkpt>
      <trkpt lat="43.12793" lon="5.93236">
        <ele>27.7</ele>
        <time>2025-05-25T06:17:29.000Z</time>
      </trkpt>
      <trkpt lat="43.12793" lon="5.93237">
        <ele>27.7</ele>
        <time>2025-05-25T06:17:30.000Z</time>
      </trkpt>
      <trkpt lat="43.12793" lon="5.93237">
        <ele>27.7</ele>
        <time>2025-05-25T06:17:31.000Z</time>
      </trkpt>
      <trkpt lat="43.12793" lon="5.93237">
        <ele>27.7</ele>
        <time>2025-05-25T06:17:32.000Z</time>
      </trkpt>
      <trkpt lat="43.12793" lon="5.93237">
        <ele>27.7</ele>
        <time>2025-05-25T06:17:33.000Z</time>
      </trkpt>
      <trkpt lat="43.12793" lon="5.93237">
        <ele>27.7</ele>
        <time>2025-05-25T06:17:34.000Z</time>
      </trkpt>
      <trkpt lat="43.12793" lon="5.93238">
        <ele>27.7</ele>
        <time>2025-05-25T06:17:41.000Z</time>
      </trkpt>
      <trkpt lat="43.12793" lon="5.93238">
        <ele>27.7</ele>
        <time>2025-05-25T06:17:42.000Z</time>
      </trkpt>
      <trkpt lat="43.12793" lon="5.93238">
        <ele>27.7</ele>
        <time>2025-05-25T06:17:43.000Z</time>
      </trkpt>
      <trkpt lat="43.12793" lon="5.93238">
        <ele>27.7</ele>
        <time>2025-05-25T06:17:44.000Z</time>
      </trkpt>
      <trkpt lat="43.12793" lon="5.93238">
        <ele>27.6</ele>
        <time>2025-05-25T06:17:45.000Z</time>
      </trkpt>
      <trkpt lat="43.12793" lon="5.93238">
        <ele>27.6</ele>
        <time>2025-05-25T06:17:46.000Z</time>
      </trkpt>
      <trkpt lat="43.12794" lon="5.93237">
        <ele>27.6</ele>
        <time>2025-05-25T06:17:47.000Z</time>
      </trkpt>
      <trkpt lat="43.12794" lon="5.9324">
        <ele>27.7</ele>
        <time>2025-05-25T06:17:53.000Z</time>
      </trkpt>
      <trkpt lat="43.12795" lon="5.9324">
        <ele>27.7</ele>
        <time>2025-05-25T06:17:54.000Z</time>
      </trkpt>
      <trkpt lat="43.12795" lon="5.93241">
        <ele>27.7</ele>
        <time>2025-05-25T06:17:57.000Z</time>
      </trkpt>
      <trkpt lat="43.12795" lon="5.93241">
        <ele>27.7</ele>
        <time>2025-05-25T06:17:58.000Z</time>
      </trkpt>
      <trkpt lat="43.12795" lon="5.93241">
        <ele>27.7</ele>
        <time>2025-05-25T06:17:59.000Z</time>
      </trkpt>
      <trkpt lat="43.12795" lon="5.93241">
        <ele>27.7</ele>
        <time>2025-05-25T06:18:07.000Z</time>
      </trkpt>
      <trkpt lat="43.12795" lon="5.93241">
        <ele>27.7</ele>
        <time>2025-05-25T06:18:08.000Z</time>
      </trkpt>
      <trkpt lat="43.12794" lon="5.93241">
        <ele>27.7</ele>
        <time>2025-05-25T06:18:09.000Z</time>
      </trkpt>
      <trkpt lat="43.12792" lon="5.93237">
        <ele>27.6</ele>
        <time>2025-05-25T06:18:32.000Z</time>
      </trkpt>
      <trkpt lat="43.12792" lon="5.93237">
        <ele>27.6</ele>
        <time>2025-05-25T06:18:33.000Z</time>
      </trkpt>
      <trkpt lat="43.12792" lon="5.93237">
        <ele>27.6</ele>
        <time>2025-05-25T06:18:34.000Z</time>
      </trkpt>
      <trkpt lat="43.12792" lon="5.93237">
        <ele>27.6</ele>
        <time>2025-05-25T06:18:35.000Z</time>
      </trkpt>
      <trkpt lat="43.12792" lon="5.93237">
        <ele>27.6</ele>
        <time>2025-05-25T06:18:36.000Z</time>
      </trkpt>
      <trkpt lat="43.12793" lon="5.93237">
        <ele>27.6</ele>
        <time>2025-05-25T06:18:37.000Z</time>
      </trkpt>
      <trkpt lat="43.12793" lon="5.93237">
        <ele>27.6</ele>
        <time>2025-05-25T06:18:38.000Z</time>
      </trkpt>
      <trkpt lat="43.12793" lon="5.93236">
        <ele>27.6</ele>
        <time>2025-05-25T06:18:39.000Z</time>
      </trkpt>
      <trkpt lat="43.12794" lon="5.93222">
        <ele>27.6</ele>
        <time>2025-05-25T06:18:47.000Z</time>
      </trkpt>
      <trkpt lat="43.12798" lon="5.93211">
        <ele>27.6</ele>
        <time>2025-05-25T06:18:54.000Z</time>
      </trkpt>
      <trkpt lat="43.12788" lon="5.93214">
        <ele>27.4</ele>
        <time>2025-05-25T06:19:06.000Z</time>
      </trkpt>
      <trkpt lat="43.12781" lon="5.93222">
        <ele>25.8</ele>
        <time>2025-05-25T06:19:17.000Z</time>
      </trkpt>
      <trkpt lat="43.1274" lon="5.93184">
        <ele>25</ele>
        <time>2025-05-25T06:19:52.000Z</time>
      </trkpt>
      <trkpt lat="43.12738" lon="5.93185">
        <ele>24.9</ele>
        <time>2025-05-25T06:19:53.000Z</time>
      </trkpt>
      <trkpt lat="43.12737" lon="5.93188">
        <ele>24.8</ele>
        <time>2025-05-25T06:19:54.000Z</time>
      </trkpt>
      <trkpt lat="43.12736" lon="5.93188">
        <ele>24.7</ele>
        <time>2025-05-25T06:19:55.000Z</time>
      </trkpt>
      <trkpt lat="43.12727" lon="5.9318">
        <ele>24.4</ele>
        <time>2025-05-25T06:20:02.000Z</time>
      </trkpt>
      <trkpt lat="43.12718" lon="5.93174">
        <ele>24.3</ele>
        <time>2025-05-25T06:20:08.000Z</time>
      </trkpt>
      <trkpt lat="43.12709" lon="5.93169">
        <ele>24.2</ele>
        <time>2025-05-25T06:20:16.000Z</time>
      </trkpt>
      <trkpt lat="43.127" lon="5.93171">
        <ele>24.1</ele>
        <time>2025-05-25T06:20:24.000Z</time>
      </trkpt>
      <trkpt lat="43.1269" lon="5.93176">
        <ele>23.6</ele>
        <time>2025-05-25T06:20:37.000Z</time>
      </trkpt>
      <trkpt lat="43.12682" lon="5.9317">
        <ele>23.1</ele>
        <time>2025-05-25T06:20:47.000Z</time>
      </trkpt>
      <trkpt lat="43.12675" lon="5.93162">
        <ele>22.9</ele>
        <time>2025-05-25T06:20:53.000Z</time>
      </trkpt>
      <trkpt lat="43.12666" lon="5.93156">
        <ele>22.6</ele>
        <time>2025-05-25T06:20:59.000Z</time>
      </trkpt>
      <trkpt lat="43.12659" lon="5.93147">
        <ele>22.2</ele>
        <time>2025-05-25T06:21:05.000Z</time>
      </trkpt>
      <trkpt lat="43.12651" lon="5.93138">
        <ele>21.7</ele>
        <time>2025-05-25T06:21:13.000Z</time>
      </trkpt>
      <trkpt lat="43.12642" lon="5.93135">
        <ele>21.4</ele>
        <time>2025-05-25T06:21:20.000Z</time>
      </trkpt>
      <trkpt lat="43.12632" lon="5.93134">
        <ele>20.9</ele>
        <time>2025-05-25T06:21:30.000Z</time>
      </trkpt>
      <trkpt lat="43.12625" lon="5.93124">
        <ele>20.6</ele>
        <time>2025-05-25T06:21:45.000Z</time>
      </trkpt>
      <trkpt lat="43.12617" lon="5.93116">
        <ele>20.5</ele>
        <time>2025-05-25T06:21:49.000Z</time>
      </trkpt>
      <trkpt lat="43.12609" lon="5.93107">
        <ele>20.3</ele>
        <time>2025-05-25T06:21:55.000Z</time>
      </trkpt>
      <trkpt lat="43.12598" lon="5.93103">
        <ele>20.3</ele>
        <time>2025-05-25T06:21:57.000Z</time>
      </trkpt>
      <trkpt lat="43.12588" lon="5.93097">
        <ele>20.2</ele>
        <time>2025-05-25T06:22:00.000Z</time>
      </trkpt>
      <trkpt lat="43.1258" lon="5.93091">
        <ele>20.1</ele>
        <time>2025-05-25T06:22:04.000Z</time>
      </trkpt>
      <trkpt lat="43.12571" lon="5.93099">
        <ele>19.8</ele>
        <time>2025-05-25T06:22:14.000Z</time>
      </trkpt>
      <trkpt lat="43.12561" lon="5.93095">
        <ele>19.6</ele>
        <time>2025-05-25T06:22:18.000Z</time>
      </trkpt>
      <trkpt lat="43.12552" lon="5.93089">
        <ele>19.5</ele>
        <time>2025-05-25T06:22:21.000Z</time>
      </trkpt>
      <trkpt lat="43.12542" lon="5.93084">
        <ele>19.3</ele>
        <time>2025-05-25T06:22:25.000Z</time>
      </trkpt>
      <trkpt lat="43.12533" lon="5.93081">
        <ele>19</ele>
        <time>2025-05-25T06:22:31.000Z</time>
      </trkpt>
      <trkpt lat="43.12523" lon="5.93076">
        <ele>18.8</ele>
        <time>2025-05-25T06:22:36.000Z</time>
      </trkpt>
      <trkpt lat="43.12516" lon="5.93085">
        <ele>18.6</ele>
        <time>2025-05-25T06:22:42.000Z</time>
      </trkpt>
      <trkpt lat="43.12515" lon="5.93098">
        <ele>18.6</ele>
        <time>2025-05-25T06:22:46.000Z</time>
      </trkpt>
      <trkpt lat="43.12507" lon="5.93094">
        <ele>18.3</ele>
        <time>2025-05-25T06:22:59.000Z</time>
      </trkpt>
      <trkpt lat="43.125" lon="5.93086">
        <ele>18.2</ele>
        <time>2025-05-25T06:23:07.000Z</time>
      </trkpt>
      <trkpt lat="43.12491" lon="5.93081">
        <ele>17.9</ele>
        <time>2025-05-25T06:23:14.000Z</time>
      </trkpt>
      <trkpt lat="43.12481" lon="5.93076">
        <ele>17.1</ele>
        <time>2025-05-25T06:23:25.000Z</time>
      </trkpt>
      <trkpt lat="43.12472" lon="5.93069">
        <ele>16.6</ele>
        <time>2025-05-25T06:23:31.000Z</time>
      </trkpt>
      <trkpt lat="43.12463" lon="5.93066">
        <ele>16</ele>
        <time>2025-05-25T06:23:38.000Z</time>
      </trkpt>
      <trkpt lat="43.12454" lon="5.93062">
        <ele>15.5</ele>
        <time>2025-05-25T06:23:46.000Z</time>
      </trkpt>
      <trkpt lat="43.12445" lon="5.93057">
        <ele>14.8</ele>
        <time>2025-05-25T06:23:57.000Z</time>
      </trkpt>
      <trkpt lat="43.12437" lon="5.93051">
        <ele>14.1</ele>
        <time>2025-05-25T06:24:07.000Z</time>
      </trkpt>
      <trkpt lat="43.12429" lon="5.93046">
        <ele>13.9</ele>
        <time>2025-05-25T06:24:11.000Z</time>
      </trkpt>
      <trkpt lat="43.12419" lon="5.93046">
        <ele>13.5</ele>
        <time>2025-05-25T06:24:16.000Z</time>
      </trkpt>
      <trkpt lat="43.12416" lon="5.93058">
        <ele>13.4</ele>
        <time>2025-05-25T06:24:22.000Z</time>
      </trkpt>
      <trkpt lat="43.12419" lon="5.93073">
        <ele>13.3</ele>
        <time>2025-05-25T06:24:27.000Z</time>
      </trkpt>
      <trkpt lat="43.12416" lon="5.93087">
        <ele>13.2</ele>
        <time>2025-05-25T06:24:33.000Z</time>
      </trkpt>
      <trkpt lat="43.12414" lon="5.931">
        <ele>13.2</ele>
        <time>2025-05-25T06:24:39.000Z</time>
      </trkpt>
      <trkpt lat="43.12413" lon="5.93113">
        <ele>13.2</ele>
        <time>2025-05-25T06:24:44.000Z</time>
      </trkpt>
      <trkpt lat="43.12407" lon="5.93123">
        <ele>13.1</ele>
        <time>2025-05-25T06:24:51.000Z</time>
      </trkpt>
      <trkpt lat="43.12404" lon="5.93136">
        <ele>13.1</ele>
        <time>2025-05-25T06:24:58.000Z</time>
      </trkpt>
      <trkpt lat="43.12401" lon="5.93147">
        <ele>13.1</ele>
        <time>2025-05-25T06:25:06.000Z</time>
      </trkpt>
      <trkpt lat="43.124" lon="5.93161">
        <ele>13.2</ele>
        <time>2025-05-25T06:25:13.000Z</time>
      </trkpt>
      <trkpt lat="43.12399" lon="5.93176">
        <ele>13.2</ele>
        <time>2025-05-25T06:25:22.000Z</time>
      </trkpt>
      <trkpt lat="43.12399" lon="5.93189">
        <ele>13.2</ele>
        <time>2025-05-25T06:25:28.000Z</time>
      </trkpt>
      <trkpt lat="43.124" lon="5.93203">
        <ele>13.3</ele>
        <time>2025-05-25T06:25:37.000Z</time>
      </trkpt>
      <trkpt lat="43.12398" lon="5.93215">
        <ele>13.3</ele>
        <time>2025-05-25T06:25:42.000Z</time>
      </trkpt>
      <trkpt lat="43.12389" lon="5.9322">
        <ele>13.3</ele>
        <time>2025-05-25T06:25:55.000Z</time>
      </trkpt>
      <trkpt lat="43.12381" lon="5.93216">
        <ele>13.3</ele>
        <time>2025-05-25T06:26:02.000Z</time>
      </trkpt>
      <trkpt lat="43.12372" lon="5.93211">
        <ele>13.2</ele>
        <time>2025-05-25T06:26:09.000Z</time>
      </trkpt>
      <trkpt lat="43.12364" lon="5.93204">
        <ele>13.1</ele>
        <time>2025-05-25T06:26:15.000Z</time>
      </trkpt>
      <trkpt lat="43.12354" lon="5.93201">
        <ele>13</ele>
        <time>2025-05-25T06:26:22.000Z</time>
      </trkpt>
      <trkpt lat="43.12346" lon="5.93194">
        <ele>12.7</ele>
        <time>2025-05-25T06:26:30.000Z</time>
      </trkpt>
      <trkpt lat="43.12339" lon="5.93186">
        <ele>12.4</ele>
        <time>2025-05-25T06:26:37.000Z</time>
      </trkpt>
      <trkpt lat="43.1233" lon="5.93187">
        <ele>12.2</ele>
        <time>2025-05-25T06:26:43.000Z</time>
      </trkpt>
      <trkpt lat="43.12321" lon="5.93181">
        <ele>11.9</ele>
        <time>2025-05-25T06:26:48.000Z</time>
      </trkpt>
      <trkpt lat="43.12316" lon="5.93171">
        <ele>11.6</ele>
        <time>2025-05-25T06:26:58.000Z</time>
      </trkpt>
      <trkpt lat="43.12305" lon="5.93167">
        <ele>11.4</ele>
        <time>2025-05-25T06:27:04.000Z</time>
      </trkpt>
      <trkpt lat="43.12296" lon="5.93166">
        <ele>11.2</ele>
        <time>2025-05-25T06:27:12.000Z</time>
      </trkpt>
      <trkpt lat="43.12287" lon="5.93164">
        <ele>11</ele>
        <time>2025-05-25T06:27:21.000Z</time>
      </trkpt>
      <trkpt lat="43.12278" lon="5.93158">
        <ele>10.7</ele>
        <time>2025-05-25T06:27:28.000Z</time>
      </trkpt>
      <trkpt lat="43.12274" lon="5.93151">
        <ele>10.6</ele>
        <time>2025-05-25T06:27:33.000Z</time>
      </trkpt>
      <trkpt lat="43.12274" lon="5.93151">
        <ele>10.6</ele>
        <time>2025-05-25T06:27:34.000Z</time>
      </trkpt>
      <trkpt lat="43.12273" lon="5.93151">
        <ele>10.5</ele>
        <time>2025-05-25T06:27:37.000Z</time>
      </trkpt>
      <trkpt lat="43.12272" lon="5.93151">
        <ele>10.5</ele>
        <time>2025-05-25T06:27:38.000Z</time>
      </trkpt>
      <trkpt lat="43.1227" lon="5.9315">
        <ele>10.5</ele>
        <time>2025-05-25T06:27:39.000Z</time>
      </trkpt>
      <trkpt lat="43.12261" lon="5.93148">
        <ele>10.3</ele>
        <time>2025-05-25T06:27:46.000Z</time>
      </trkpt>
      <trkpt lat="43.12258" lon="5.93136">
        <ele>10.2</ele>
        <time>2025-05-25T06:27:51.000Z</time>
      </trkpt>
      <trkpt lat="43.12247" lon="5.9313">
        <ele>10</ele>
        <time>2025-05-25T06:27:57.000Z</time>
      </trkpt>
      <trkpt lat="43.12238" lon="5.9313">
        <ele>9.9</ele>
        <time>2025-05-25T06:28:02.000Z</time>
      </trkpt>
      <trkpt lat="43.12228" lon="5.9313">
        <ele>9.8</ele>
        <time>2025-05-25T06:28:09.000Z</time>
      </trkpt>
      <trkpt lat="43.12219" lon="5.93127">
        <ele>9.5</ele>
        <time>2025-05-25T06:28:26.000Z</time>
      </trkpt>
      <trkpt lat="43.12209" lon="5.93126">
        <ele>9.4</ele>
        <time>2025-05-25T06:28:35.000Z</time>
      </trkpt>
      <trkpt lat="43.122" lon="5.93124">
        <ele>9.3</ele>
        <time>2025-05-25T06:28:43.000Z</time>
      </trkpt>
      <trkpt lat="43.12194" lon="5.93115">
        <ele>9.3</ele>
        <time>2025-05-25T06:28:49.000Z</time>
      </trkpt>
      <trkpt lat="43.12185" lon="5.93115">
        <ele>9.2</ele>
        <time>2025-05-25T06:28:54.000Z</time>
      </trkpt>
      <trkpt lat="43.12174" lon="5.93117">
        <ele>9.1</ele>
        <time>2025-05-25T06:29:01.000Z</time>
      </trkpt>
      <trkpt lat="43.12165" lon="5.93115">
        <ele>9</ele>
        <time>2025-05-25T06:29:07.000Z</time>
      </trkpt>
      <trkpt lat="43.12156" lon="5.9311">
        <ele>8.9</ele>
        <time>2025-05-25T06:29:15.000Z</time>
      </trkpt>
      <trkpt lat="43.1215" lon="5.93099">
        <ele>8.9</ele>
        <time>2025-05-25T06:29:21.000Z</time>
      </trkpt>
      <trkpt lat="43.12142" lon="5.93095">
        <ele>8.8</ele>
        <time>2025-05-25T06:29:31.000Z</time>
      </trkpt>
      <trkpt lat="43.12133" lon="5.93102">
        <ele>8.8</ele>
        <time>2025-05-25T06:29:36.000Z</time>
      </trkpt>
      <trkpt lat="43.12125" lon="5.93113">
        <ele>8.8</ele>
        <time>2025-05-25T06:29:43.000Z</time>
      </trkpt>
      <trkpt lat="43.12132" lon="5.9312">
        <ele>8.8</ele>
        <time>2025-05-25T06:29:46.000Z</time>
      </trkpt>
      <trkpt lat="43.12124" lon="5.93127">
        <ele>8.7</ele>
        <time>2025-05-25T06:29:57.000Z</time>
      </trkpt>
      <trkpt lat="43.12126" lon="5.93139">
        <ele>8.7</ele>
        <time>2025-05-25T06:30:05.000Z</time>
      </trkpt>
      <trkpt lat="43.12128" lon="5.93144">
        <ele>8.7</ele>
        <time>2025-05-25T06:30:13.000Z</time>
      </trkpt>
      <trkpt lat="43.12128" lon="5.93143">
        <ele>8.7</ele>
        <time>2025-05-25T06:30:14.000Z</time>
      </trkpt>
      <trkpt lat="43.12128" lon="5.93143">
        <ele>8.7</ele>
        <time>2025-05-25T06:30:15.000Z</time>
      </trkpt>
      <trkpt lat="43.12127" lon="5.93142">
        <ele>8.7</ele>
        <time>2025-05-25T06:30:16.000Z</time>
      </trkpt>
      <trkpt lat="43.12123" lon="5.93132">
        <ele>8.6</ele>
        <time>2025-05-25T06:30:25.000Z</time>
      </trkpt>
      <trkpt lat="43.12118" lon="5.93124">
        <ele>8.6</ele>
        <time>2025-05-25T06:30:33.000Z</time>
      </trkpt>
      <trkpt lat="43.12118" lon="5.93123">
        <ele>8.6</ele>
        <time>2025-05-25T06:30:34.000Z</time>
      </trkpt>
      <trkpt lat="43.12118" lon="5.93123">
        <ele>8.6</ele>
        <time>2025-05-25T06:30:35.000Z</time>
      </trkpt>
      <trkpt lat="43.12117" lon="5.93122">
        <ele>8.6</ele>
        <time>2025-05-25T06:30:36.000Z</time>
      </trkpt>
      <trkpt lat="43.12116" lon="5.93122">
        <ele>8.6</ele>
        <time>2025-05-25T06:30:37.000Z</time>
      </trkpt>
      <trkpt lat="43.12108" lon="5.93117">
        <ele>8.6</ele>
        <time>2025-05-25T06:30:48.000Z</time>
      </trkpt>
      <trkpt lat="43.12098" lon="5.93114">
        <ele>8.6</ele>
        <time>2025-05-25T06:30:57.000Z</time>
      </trkpt>
      <trkpt lat="43.12091" lon="5.93106">
        <ele>8.6</ele>
        <time>2025-05-25T06:31:03.000Z</time>
      </trkpt>
      <trkpt lat="43.12084" lon="5.93113">
        <ele>8.5</ele>
        <time>2025-05-25T06:31:13.000Z</time>
      </trkpt>
      <trkpt lat="43.12084" lon="5.93112">
        <ele>8.5</ele>
        <time>2025-05-25T06:31:17.000Z</time>
      </trkpt>
      <trkpt lat="43.12084" lon="5.93112">
        <ele>8.5</ele>
        <time>2025-05-25T06:31:18.000Z</time>
      </trkpt>
      <trkpt lat="43.12084" lon="5.93112">
        <ele>8.5</ele>
        <time>2025-05-25T06:31:19.000Z</time>
      </trkpt>
      <trkpt lat="43.12084" lon="5.93111">
        <ele>8.5</ele>
        <time>2025-05-25T06:31:23.000Z</time>
      </trkpt>
      <trkpt lat="43.12084" lon="5.9311">
        <ele>8.5</ele>
        <time>2025-05-25T06:31:24.000Z</time>
      </trkpt>
      <trkpt lat="43.12084" lon="5.93109">
        <ele>8.5</ele>
        <time>2025-05-25T06:31:25.000Z</time>
      </trkpt>
      <trkpt lat="43.12083" lon="5.93109">
        <ele>8.5</ele>
        <time>2025-05-25T06:31:26.000Z</time>
      </trkpt>
      <trkpt lat="43.12083" lon="5.93109">
        <ele>8.5</ele>
        <time>2025-05-25T06:31:27.000Z</time>
      </trkpt>
      <trkpt lat="43.12082" lon="5.93108">
        <ele>8.4</ele>
        <time>2025-05-25T06:31:28.000Z</time>
      </trkpt>
      <trkpt lat="43.12081" lon="5.93109">
        <ele>8.4</ele>
        <time>2025-05-25T06:31:29.000Z</time>
      </trkpt>
      <trkpt lat="43.12079" lon="5.93109">
        <ele>8.4</ele>
        <time>2025-05-25T06:31:30.000Z</time>
      </trkpt>
      <trkpt lat="43.1207" lon="5.93106">
        <ele>8.4</ele>
        <time>2025-05-25T06:31:40.000Z</time>
      </trkpt>
      <trkpt lat="43.12061" lon="5.93103">
        <ele>8.4</ele>
        <time>2025-05-25T06:31:48.000Z</time>
      </trkpt>
      <trkpt lat="43.12052" lon="5.93096">
        <ele>8.3</ele>
        <time>2025-05-25T06:31:58.000Z</time>
      </trkpt>
      <trkpt lat="43.12044" lon="5.93103">
        <ele>8.2</ele>
        <time>2025-05-25T06:32:08.000Z</time>
      </trkpt>
      <trkpt lat="43.12044" lon="5.93104">
        <ele>8.2</ele>
        <time>2025-05-25T06:32:13.000Z</time>
      </trkpt>
      <trkpt lat="43.12044" lon="5.93104">
        <ele>8.2</ele>
        <time>2025-05-25T06:32:14.000Z</time>
      </trkpt>
      <trkpt lat="43.12048" lon="5.93104">
        <ele>8.1</ele>
        <time>2025-05-25T06:32:27.000Z</time>
      </trkpt>
      <trkpt lat="43.12048" lon="5.93104">
        <ele>8.1</ele>
        <time>2025-05-25T06:32:28.000Z</time>
      </trkpt>
      <trkpt lat="43.12048" lon="5.93104">
        <ele>8.1</ele>
        <time>2025-05-25T06:32:29.000Z</time>
      </trkpt>
      <trkpt lat="43.12048" lon="5.93104">
        <ele>8</ele>
        <time>2025-05-25T06:32:33.000Z</time>
      </trkpt>
      <trkpt lat="43.12048" lon="5.93104">
        <ele>8</ele>
        <time>2025-05-25T06:32:34.000Z</time>
      </trkpt>
      <trkpt lat="43.12048" lon="5.93104">
        <ele>8</ele>
        <time>2025-05-25T06:32:40.000Z</time>
      </trkpt>
      <trkpt lat="43.12048" lon="5.93104">
        <ele>8</ele>
        <time>2025-05-25T06:32:41.000Z</time>
      </trkpt>
      <trkpt lat="43.12048" lon="5.93104">
        <ele>8</ele>
        <time>2025-05-25T06:32:42.000Z</time>
      </trkpt>
      <trkpt lat="43.12048" lon="5.93104">
        <ele>8</ele>
        <time>2025-05-25T06:32:43.000Z</time>
      </trkpt>
      <trkpt lat="43.12048" lon="5.93104">
        <ele>8</ele>
        <time>2025-05-25T06:32:44.000Z</time>
      </trkpt>
      <trkpt lat="43.12052" lon="5.93107">
        <ele>7.8</ele>
        <time>2025-05-25T06:35:15.000Z</time>
      </trkpt>
      <trkpt lat="43.12052" lon="5.93107">
        <ele>7.8</ele>
        <time>2025-05-25T06:35:16.000Z</time>
      </trkpt>
      <trkpt lat="43.12052" lon="5.93107">
        <ele>7.8</ele>
        <time>2025-05-25T06:35:17.000Z</time>
      </trkpt>
      <trkpt lat="43.12052" lon="5.93107">
        <ele>7.8</ele>
        <time>2025-05-25T06:35:18.000Z</time>
      </trkpt>
      <trkpt lat="43.12052" lon="5.93107">
        <ele>7.8</ele>
        <time>2025-05-25T06:35:19.000Z</time>
      </trkpt>
      <trkpt lat="43.12052" lon="5.93108">
        <ele>7.8</ele>
        <time>2025-05-25T06:36:02.000Z</time>
      </trkpt>
      <trkpt lat="43.12052" lon="5.93108">
        <ele>7.8</ele>
        <time>2025-05-25T06:36:03.000Z</time>
      </trkpt>
      <trkpt lat="43.12052" lon="5.93108">
        <ele>7.8</ele>
        <time>2025-05-25T06:36:04.000Z</time>
      </trkpt>
      <trkpt lat="43.12052" lon="5.93108">
        <ele>7.8</ele>
        <time>2025-05-25T06:36:08.000Z</time>
      </trkpt>
      <trkpt lat="43.12052" lon="5.93108">
        <ele>7.8</ele>
        <time>2025-05-25T06:36:09.000Z</time>
      </trkpt>
      <trkpt lat="43.12052" lon="5.93108">
        <ele>7.8</ele>
        <time>2025-05-25T06:36:10.000Z</time>
      </trkpt>
      <trkpt lat="43.12051" lon="5.93107">
        <ele>7.7</ele>
        <time>2025-05-25T06:37:10.000Z</time>
      </trkpt>
      <trkpt lat="43.12051" lon="5.93107">
        <ele>7.7</ele>
        <time>2025-05-25T06:37:11.000Z</time>
      </trkpt>
      <trkpt lat="43.12051" lon="5.93107">
        <ele>7.7</ele>
        <time>2025-05-25T06:37:15.000Z</time>
      </trkpt>
      <trkpt lat="43.12051" lon="5.93107">
        <ele>7.7</ele>
        <time>2025-05-25T06:37:16.000Z</time>
      </trkpt>
      <trkpt lat="43.12051" lon="5.93107">
        <ele>7.7</ele>
        <time>2025-05-25T06:37:17.000Z</time>
      </trkpt>
      <trkpt lat="43.12051" lon="5.93107">
        <ele>7.5</ele>
        <time>2025-05-25T06:38:37.000Z</time>
      </trkpt>
      <trkpt lat="43.12051" lon="5.93107">
        <ele>7.5</ele>
        <time>2025-05-25T06:38:38.000Z</time>
      </trkpt>
      <trkpt lat="43.12051" lon="5.93107">
        <ele>7.5</ele>
        <time>2025-05-25T06:38:39.000Z</time>
      </trkpt>
      <trkpt lat="43.12051" lon="5.93107">
        <ele>7.5</ele>
        <time>2025-05-25T06:38:40.000Z</time>
      </trkpt>
      <trkpt lat="43.12051" lon="5.93107">
        <ele>7.5</ele>
        <time>2025-05-25T06:38:41.000Z</time>
      </trkpt>
      <trkpt lat="43.12049" lon="5.93108">
        <ele>6.9</ele>
        <time>2025-05-25T06:46:40.000Z</time>
      </trkpt>
      <trkpt lat="43.12049" lon="5.93108">
        <ele>6.9</ele>
        <time>2025-05-25T06:46:41.000Z</time>
      </trkpt>
      <trkpt lat="43.12049" lon="5.93108">
        <ele>6.9</ele>
        <time>2025-05-25T06:46:42.000Z</time>
      </trkpt>
      <trkpt lat="43.12049" lon="5.93108">
        <ele>6.9</ele>
        <time>2025-05-25T06:46:43.000Z</time>
      </trkpt>
      <trkpt lat="43.12049" lon="5.93108">
        <ele>6.9</ele>
        <time>2025-05-25T06:46:44.000Z</time>
      </trkpt>
      <trkpt lat="43.12048" lon="5.93109">
        <ele>6.6</ele>
        <time>2025-05-25T06:48:45.000Z</time>
      </trkpt>
      <trkpt lat="43.12048" lon="5.93109">
        <ele>6.6</ele>
        <time>2025-05-25T06:48:46.000Z</time>
      </trkpt>
      <trkpt lat="43.12048" lon="5.93109">
        <ele>6.6</ele>
        <time>2025-05-25T06:48:47.000Z</time>
      </trkpt>
      <trkpt lat="43.12048" lon="5.93109">
        <ele>6.6</ele>
        <time>2025-05-25T06:48:48.000Z</time>
      </trkpt>
      <trkpt lat="43.12048" lon="5.93109">
        <ele>6.6</ele>
        <time>2025-05-25T06:48:49.000Z</time>
      </trkpt>
      <trkpt lat="43.12047" lon="5.93107">
        <ele>6.6</ele>
        <time>2025-05-25T06:49:45.000Z</time>
      </trkpt>
      <trkpt lat="43.12046" lon="5.93107">
        <ele>6.6</ele>
        <time>2025-05-25T06:49:46.000Z</time>
      </trkpt>
      <trkpt lat="43.12045" lon="5.93107">
        <ele>6.6</ele>
        <time>2025-05-25T06:49:47.000Z</time>
      </trkpt>
      <trkpt lat="43.12037" lon="5.93103">
        <ele>6.6</ele>
        <time>2025-05-25T06:50:03.000Z</time>
      </trkpt>
      <trkpt lat="43.12037" lon="5.931">
        <ele>6.7</ele>
        <time>2025-05-25T06:50:23.000Z</time>
      </trkpt>
      <trkpt lat="43.12037" lon="5.931">
        <ele>6.7</ele>
        <time>2025-05-25T06:50:24.000Z</time>
      </trkpt>
      <trkpt lat="43.12037" lon="5.931">
        <ele>6.7</ele>
        <time>2025-05-25T06:50:33.000Z</time>
      </trkpt>
      <trkpt lat="43.12037" lon="5.931">
        <ele>6.7</ele>
        <time>2025-05-25T06:50:34.000Z</time>
      </trkpt>
      <trkpt lat="43.12037" lon="5.931">
        <ele>6.7</ele>
        <time>2025-05-25T06:50:35.000Z</time>
      </trkpt>
      <trkpt lat="43.12037" lon="5.931">
        <ele>6.7</ele>
        <time>2025-05-25T06:50:36.000Z</time>
      </trkpt>
      <trkpt lat="43.12037" lon="5.931">
        <ele>6.8</ele>
        <time>2025-05-25T06:50:37.000Z</time>
      </trkpt>
      <trkpt lat="43.12037" lon="5.931">
        <ele>6.8</ele>
        <time>2025-05-25T06:50:45.000Z</time>
      </trkpt>
      <trkpt lat="43.12037" lon="5.931">
        <ele>6.8</ele>
        <time>2025-05-25T06:50:46.000Z</time>
      </trkpt>
      <trkpt lat="43.12037" lon="5.931">
        <ele>6.8</ele>
        <time>2025-05-25T06:50:47.000Z</time>
      </trkpt>
      <trkpt lat="43.12037" lon="5.931">
        <ele>6.8</ele>
        <time>2025-05-25T06:50:48.000Z</time>
      </trkpt>
      <trkpt lat="43.12037" lon="5.931">
        <ele>6.8</ele>
        <time>2025-05-25T06:50:49.000Z</time>
      </trkpt>
      <trkpt lat="43.12038" lon="5.93099">
        <ele>6.9</ele>
        <time>2025-05-25T06:51:08.000Z</time>
      </trkpt>
      <trkpt lat="43.12038" lon="5.93099">
        <ele>6.9</ele>
        <time>2025-05-25T06:51:09.000Z</time>
      </trkpt>
      <trkpt lat="43.1203" lon="5.93089">
        <ele>6.9</ele>
        <time>2025-05-25T06:51:21.000Z</time>
      </trkpt>
      <trkpt lat="43.12023" lon="5.93081">
        <ele>6.9</ele>
        <time>2025-05-25T06:51:34.000Z</time>
      </trkpt>
      <trkpt lat="43.12015" lon="5.93074">
        <ele>6.9</ele>
        <time>2025-05-25T06:51:44.000Z</time>
      </trkpt>
      <trkpt lat="43.12012" lon="5.93072">
        <ele>7</ele>
        <time>2025-05-25T06:51:52.000Z</time>
      </trkpt>
      <trkpt lat="43.12012" lon="5.93072">
        <ele>7</ele>
        <time>2025-05-25T06:51:53.000Z</time>
      </trkpt>
      <trkpt lat="43.12012" lon="5.93072">
        <ele>7</ele>
        <time>2025-05-25T06:51:54.000Z</time>
      </trkpt>
      <trkpt lat="43.12012" lon="5.93071">
        <ele>7</ele>
        <time>2025-05-25T06:51:57.000Z</time>
      </trkpt>
      <trkpt lat="43.12012" lon="5.93071">
        <ele>7</ele>
        <time>2025-05-25T06:51:58.000Z</time>
      </trkpt>
      <trkpt lat="43.12013" lon="5.93071">
        <ele>6.9</ele>
        <time>2025-05-25T06:51:59.000Z</time>
      </trkpt>
      <trkpt lat="43.12012" lon="5.9307">
        <ele>7</ele>
        <time>2025-05-25T06:52:11.000Z</time>
      </trkpt>
      <trkpt lat="43.12012" lon="5.9307">
        <ele>7</ele>
        <time>2025-05-25T06:52:12.000Z</time>
      </trkpt>
      <trkpt lat="43.12014" lon="5.93072">
        <ele>7</ele>
        <time>2025-05-25T06:52:17.000Z</time>
      </trkpt>
      <trkpt lat="43.12015" lon="5.93073">
        <ele>7</ele>
        <time>2025-05-25T06:52:18.000Z</time>
      </trkpt>
      <trkpt lat="43.12015" lon="5.93074">
        <ele>7</ele>
        <time>2025-05-25T06:52:19.000Z</time>
      </trkpt>
      <trkpt lat="43.12016" lon="5.93075">
        <ele>7</ele>
        <time>2025-05-25T06:52:20.000Z</time>
      </trkpt>
      <trkpt lat="43.12016" lon="5.93075">
        <ele>7</ele>
        <time>2025-05-25T06:52:21.000Z</time>
      </trkpt>
      <trkpt lat="43.1202" lon="5.93073">
        <ele>7</ele>
        <time>2025-05-25T06:52:36.000Z</time>
      </trkpt>
      <trkpt lat="43.1202" lon="5.93073">
        <ele>7</ele>
        <time>2025-05-25T06:52:37.000Z</time>
      </trkpt>
      <trkpt lat="43.1202" lon="5.93074">
        <ele>7</ele>
        <time>2025-05-25T06:52:40.000Z</time>
      </trkpt>
      <trkpt lat="43.1202" lon="5.93074">
        <ele>7</ele>
        <time>2025-05-25T06:52:41.000Z</time>
      </trkpt>
      <trkpt lat="43.12021" lon="5.9307">
        <ele>7.1</ele>
        <time>2025-05-25T06:53:00.000Z</time>
      </trkpt>
      <trkpt lat="43.12021" lon="5.93071">
        <ele>7.1</ele>
        <time>2025-05-25T06:53:01.000Z</time>
      </trkpt>
      <trkpt lat="43.12015" lon="5.93066">
        <ele>7.1</ele>
        <time>2025-05-25T06:53:08.000Z</time>
      </trkpt>
      <trkpt lat="43.12015" lon="5.93066">
        <ele>7.1</ele>
        <time>2025-05-25T06:53:09.000Z</time>
      </trkpt>
      <trkpt lat="43.12015" lon="5.93066">
        <ele>7.1</ele>
        <time>2025-05-25T06:53:10.000Z</time>
      </trkpt>
      <trkpt lat="43.12015" lon="5.93066">
        <ele>7.1</ele>
        <time>2025-05-25T06:53:11.000Z</time>
      </trkpt>
      <trkpt lat="43.12015" lon="5.93066">
        <ele>7.1</ele>
        <time>2025-05-25T06:53:12.000Z</time>
      </trkpt>
      <trkpt lat="43.12015" lon="5.93066">
        <ele>7.1</ele>
        <time>2025-05-25T06:53:13.000Z</time>
      </trkpt>
      <trkpt lat="43.12015" lon="5.93067">
        <ele>7.1</ele>
        <time>2025-05-25T06:53:14.000Z</time>
      </trkpt>
      <trkpt lat="43.12014" lon="5.93067">
        <ele>7.1</ele>
        <time>2025-05-25T06:53:28.000Z</time>
      </trkpt>
      <trkpt lat="43.12014" lon="5.93067">
        <ele>7.1</ele>
        <time>2025-05-25T06:53:29.000Z</time>
      </trkpt>
      <trkpt lat="43.12014" lon="5.93067">
        <ele>7.1</ele>
        <time>2025-05-25T06:53:30.000Z</time>
      </trkpt>
      <trkpt lat="43.12014" lon="5.93067">
        <ele>7.1</ele>
        <time>2025-05-25T06:53:31.000Z</time>
      </trkpt>
      <trkpt lat="43.12014" lon="5.93066">
        <ele>7.1</ele>
        <time>2025-05-25T06:53:32.000Z</time>
      </trkpt>
      <trkpt lat="43.12012" lon="5.93065">
        <ele>7.1</ele>
        <time>2025-05-25T06:53:36.000Z</time>
      </trkpt>
      <trkpt lat="43.12011" lon="5.93064">
        <ele>7.1</ele>
        <time>2025-05-25T06:53:37.000Z</time>
      </trkpt>
      <trkpt lat="43.12011" lon="5.93064">
        <ele>7.1</ele>
        <time>2025-05-25T06:53:40.000Z</time>
      </trkpt>
      <trkpt lat="43.12011" lon="5.93064">
        <ele>7.1</ele>
        <time>2025-05-25T06:53:41.000Z</time>
      </trkpt>
      <trkpt lat="43.1201" lon="5.93065">
        <ele>7.1</ele>
        <time>2025-05-25T06:54:25.000Z</time>
      </trkpt>
      <trkpt lat="43.1201" lon="5.93066">
        <ele>7.1</ele>
        <time>2025-05-25T06:54:26.000Z</time>
      </trkpt>
      <trkpt lat="43.12008" lon="5.93067">
        <ele>7.1</ele>
        <time>2025-05-25T06:54:32.000Z</time>
      </trkpt>
      <trkpt lat="43.12008" lon="5.93067">
        <ele>7.1</ele>
        <time>2025-05-25T06:54:33.000Z</time>
      </trkpt>
      <trkpt lat="43.12008" lon="5.93067">
        <ele>7.1</ele>
        <time>2025-05-25T06:54:34.000Z</time>
      </trkpt>
      <trkpt lat="43.12007" lon="5.93067">
        <ele>7.1</ele>
        <time>2025-05-25T06:54:35.000Z</time>
      </trkpt>
      <trkpt lat="43.12007" lon="5.93067">
        <ele>7.1</ele>
        <time>2025-05-25T06:54:36.000Z</time>
      </trkpt>
      <trkpt lat="43.12008" lon="5.93067">
        <ele>7.1</ele>
        <time>2025-05-25T06:54:37.000Z</time>
      </trkpt>
      <trkpt lat="43.1201" lon="5.93066">
        <ele>7.1</ele>
        <time>2025-05-25T06:54:45.000Z</time>
      </trkpt>
      <trkpt lat="43.1201" lon="5.93066">
        <ele>7.1</ele>
        <time>2025-05-25T06:54:46.000Z</time>
      </trkpt>
      <trkpt lat="43.1201" lon="5.93066">
        <ele>7.1</ele>
        <time>2025-05-25T06:54:57.000Z</time>
      </trkpt>
      <trkpt lat="43.1201" lon="5.93066">
        <ele>7.1</ele>
        <time>2025-05-25T06:54:58.000Z</time>
      </trkpt>
      <trkpt lat="43.1201" lon="5.93065">
        <ele>7.1</ele>
        <time>2025-05-25T06:54:59.000Z</time>
      </trkpt>
      <trkpt lat="43.12013" lon="5.93066">
        <ele>6.9</ele>
        <time>2025-05-25T06:55:13.000Z</time>
      </trkpt>
      <trkpt lat="43.12014" lon="5.93066">
        <ele>6.9</ele>
        <time>2025-05-25T06:55:14.000Z</time>
      </trkpt>
      <trkpt lat="43.12016" lon="5.93072">
        <ele>7</ele>
        <time>2025-05-25T06:55:20.000Z</time>
      </trkpt>
      <trkpt lat="43.12016" lon="5.93073">
        <ele>7</ele>
        <time>2025-05-25T06:55:21.000Z</time>
      </trkpt>
      <trkpt lat="43.12017" lon="5.93073">
        <ele>7</ele>
        <time>2025-05-25T06:55:22.000Z</time>
      </trkpt>
      <trkpt lat="43.12016" lon="5.93073">
        <ele>7</ele>
        <time>2025-05-25T06:55:23.000Z</time>
      </trkpt>
      <trkpt lat="43.12017" lon="5.93074">
        <ele>7</ele>
        <time>2025-05-25T06:55:24.000Z</time>
      </trkpt>
      <trkpt lat="43.12018" lon="5.93075">
        <ele>7</ele>
        <time>2025-05-25T06:55:25.000Z</time>
      </trkpt>
      <trkpt lat="43.12011" lon="5.93075">
        <ele>7</ele>
        <time>2025-05-25T06:55:45.000Z</time>
      </trkpt>
      <trkpt lat="43.12011" lon="5.93075">
        <ele>7</ele>
        <time>2025-05-25T06:55:46.000Z</time>
      </trkpt>
      <trkpt lat="43.12011" lon="5.93075">
        <ele>7</ele>
        <time>2025-05-25T06:55:47.000Z</time>
      </trkpt>
      <trkpt lat="43.12011" lon="5.93075">
        <ele>7</ele>
        <time>2025-05-25T06:55:48.000Z</time>
      </trkpt>
      <trkpt lat="43.1201" lon="5.93074">
        <ele>7</ele>
        <time>2025-05-25T06:55:49.000Z</time>
      </trkpt>
      <trkpt lat="43.12008" lon="5.93067">
        <ele>7</ele>
        <time>2025-05-25T06:56:08.000Z</time>
      </trkpt>
      <trkpt lat="43.12007" lon="5.93066">
        <ele>7</ele>
        <time>2025-05-25T06:56:09.000Z</time>
      </trkpt>
      <trkpt lat="43.12006" lon="5.93065">
        <ele>7</ele>
        <time>2025-05-25T06:56:10.000Z</time>
      </trkpt>
      <trkpt lat="43.12006" lon="5.93065">
        <ele>7.1</ele>
        <time>2025-05-25T06:56:15.000Z</time>
      </trkpt>
      <trkpt lat="43.12006" lon="5.93065">
        <ele>7.1</ele>
        <time>2025-05-25T06:56:16.000Z</time>
      </trkpt>
      <trkpt lat="43.12007" lon="5.93066">
        <ele>7.1</ele>
        <time>2025-05-25T06:57:00.000Z</time>
      </trkpt>
      <trkpt lat="43.12008" lon="5.93066">
        <ele>7.1</ele>
        <time>2025-05-25T06:57:01.000Z</time>
      </trkpt>
      <trkpt lat="43.12008" lon="5.93066">
        <ele>7</ele>
        <time>2025-05-25T06:57:02.000Z</time>
      </trkpt>
      <trkpt lat="43.1201" lon="5.93066">
        <ele>7</ele>
        <time>2025-05-25T06:57:03.000Z</time>
      </trkpt>
      <trkpt lat="43.1201" lon="5.93066">
        <ele>7</ele>
        <time>2025-05-25T06:57:04.000Z</time>
      </trkpt>
      <trkpt lat="43.12016" lon="5.93077">
        <ele>7.2</ele>
        <time>2025-05-25T06:58:11.000Z</time>
      </trkpt>
      <trkpt lat="43.12011" lon="5.93073">
        <ele>7.2</ele>
        <time>2025-05-25T07:00:28.000Z</time>
      </trkpt>
      <trkpt lat="43.12012" lon="5.93073">
        <ele>7.2</ele>
        <time>2025-05-25T07:00:29.000Z</time>
      </trkpt>
      <trkpt lat="43.12013" lon="5.93073">
        <ele>7.2</ele>
        <time>2025-05-25T07:00:30.000Z</time>
      </trkpt>
      <trkpt lat="43.12013" lon="5.93074">
        <ele>7.2</ele>
        <time>2025-05-25T07:00:31.000Z</time>
      </trkpt>
      <trkpt lat="43.12013" lon="5.93074">
        <ele>7.2</ele>
        <time>2025-05-25T07:00:32.000Z</time>
      </trkpt>
      <trkpt lat="43.12015" lon="5.9307">
        <ele>7</ele>
        <time>2025-05-25T07:01:10.000Z</time>
      </trkpt>
      <trkpt lat="43.12015" lon="5.9307">
        <ele>7</ele>
        <time>2025-05-25T07:01:11.000Z</time>
      </trkpt>
      <trkpt lat="43.12015" lon="5.9307">
        <ele>7</ele>
        <time>2025-05-25T07:01:12.000Z</time>
      </trkpt>
      <trkpt lat="43.12015" lon="5.9307">
        <ele>7</ele>
        <time>2025-05-25T07:01:13.000Z</time>
      </trkpt>
      <trkpt lat="43.12015" lon="5.93069">
        <ele>7</ele>
        <time>2025-05-25T07:01:14.000Z</time>
      </trkpt>
      <trkpt lat="43.12015" lon="5.93069">
        <ele>7</ele>
        <time>2025-05-25T07:01:15.000Z</time>
      </trkpt>
      <trkpt lat="43.12015" lon="5.93069">
        <ele>7</ele>
        <time>2025-05-25T07:01:16.000Z</time>
      </trkpt>
      <trkpt lat="43.12015" lon="5.93069">
        <ele>7</ele>
        <time>2025-05-25T07:01:17.000Z</time>
      </trkpt>
      <trkpt lat="43.12015" lon="5.93069">
        <ele>7</ele>
        <time>2025-05-25T07:01:18.000Z</time>
      </trkpt>
      <trkpt lat="43.12016" lon="5.93069">
        <ele>7</ele>
        <time>2025-05-25T07:01:19.000Z</time>
      </trkpt>
      <trkpt lat="43.12016" lon="5.93071">
        <ele>7</ele>
        <time>2025-05-25T07:01:30.000Z</time>
      </trkpt>
      <trkpt lat="43.12016" lon="5.93071">
        <ele>7</ele>
        <time>2025-05-25T07:01:31.000Z</time>
      </trkpt>
      <trkpt lat="43.12016" lon="5.93072">
        <ele>7</ele>
        <time>2025-05-25T07:01:32.000Z</time>
      </trkpt>
      <trkpt lat="43.12016" lon="5.93072">
        <ele>7</ele>
        <time>2025-05-25T07:01:33.000Z</time>
      </trkpt>
      <trkpt lat="43.12015" lon="5.93072">
        <ele>7</ele>
        <time>2025-05-25T07:01:34.000Z</time>
      </trkpt>
      <trkpt lat="43.12007" lon="5.93067">
        <ele>7</ele>
        <time>2025-05-25T07:02:13.000Z</time>
      </trkpt>
      <trkpt lat="43.12009" lon="5.93067">
        <ele>7</ele>
        <time>2025-05-25T07:02:58.000Z</time>
      </trkpt>
      <trkpt lat="43.12009" lon="5.93067">
        <ele>7</ele>
        <time>2025-05-25T07:02:59.000Z</time>
      </trkpt>
      <trkpt lat="43.12009" lon="5.93067">
        <ele>7</ele>
        <time>2025-05-25T07:03:00.000Z</time>
      </trkpt>
      <trkpt lat="43.12009" lon="5.93067">
        <ele>7</ele>
        <time>2025-05-25T07:03:01.000Z</time>
      </trkpt>
      <trkpt lat="43.12013" lon="5.93069">
        <ele>7.1</ele>
        <time>2025-05-25T07:03:20.000Z</time>
      </trkpt>
      <trkpt lat="43.12013" lon="5.93069">
        <ele>7.1</ele>
        <time>2025-05-25T07:03:21.000Z</time>
      </trkpt>
      <trkpt lat="43.12013" lon="5.93068">
        <ele>7.1</ele>
        <time>2025-05-25T07:03:22.000Z</time>
      </trkpt>
      <trkpt lat="43.12014" lon="5.93066">
        <ele>7.1</ele>
        <time>2025-05-25T07:03:23.000Z</time>
      </trkpt>
      <trkpt lat="43.12014" lon="5.93066">
        <ele>7.1</ele>
        <time>2025-05-25T07:03:24.000Z</time>
      </trkpt>
      <trkpt lat="43.12016" lon="5.93065">
        <ele>7</ele>
        <time>2025-05-25T07:03:35.000Z</time>
      </trkpt>
      <trkpt lat="43.12016" lon="5.93063">
        <ele>7</ele>
        <time>2025-05-25T07:03:36.000Z</time>
      </trkpt>
      <trkpt lat="43.12016" lon="5.93063">
        <ele>7</ele>
        <time>2025-05-25T07:03:37.000Z</time>
      </trkpt>
      <trkpt lat="43.12015" lon="5.93059">
        <ele>7</ele>
        <time>2025-05-25T07:03:41.000Z</time>
      </trkpt>
      <trkpt lat="43.12014" lon="5.93059">
        <ele>7</ele>
        <time>2025-05-25T07:03:42.000Z</time>
      </trkpt>
      <trkpt lat="43.12013" lon="5.93058">
        <ele>7</ele>
        <time>2025-05-25T07:03:43.000Z</time>
      </trkpt>
      <trkpt lat="43.12013" lon="5.93056">
        <ele>7</ele>
        <time>2025-05-25T07:03:44.000Z</time>
      </trkpt>
      <trkpt lat="43.12011" lon="5.93052">
        <ele>7</ele>
        <time>2025-05-25T07:03:47.000Z</time>
      </trkpt>
      <trkpt lat="43.1201" lon="5.9305">
        <ele>7</ele>
        <time>2025-05-25T07:03:48.000Z</time>
      </trkpt>
      <trkpt lat="43.1201" lon="5.93049">
        <ele>7</ele>
        <time>2025-05-25T07:03:49.000Z</time>
      </trkpt>
      <trkpt lat="43.12009" lon="5.93048">
        <ele>7</ele>
        <time>2025-05-25T07:03:50.000Z</time>
      </trkpt>
      <trkpt lat="43.12009" lon="5.93047">
        <ele>7</ele>
        <time>2025-05-25T07:03:51.000Z</time>
      </trkpt>
      <trkpt lat="43.12009" lon="5.93045">
        <ele>7</ele>
        <time>2025-05-25T07:03:52.000Z</time>
      </trkpt>
      <trkpt lat="43.12007" lon="5.93042">
        <ele>7</ele>
        <time>2025-05-25T07:03:53.000Z</time>
      </trkpt>
      <trkpt lat="43.12006" lon="5.93039">
        <ele>7.1</ele>
        <time>2025-05-25T07:03:54.000Z</time>
      </trkpt>
      <trkpt lat="43.12005" lon="5.93036">
        <ele>7.1</ele>
        <time>2025-05-25T07:03:57.000Z</time>
      </trkpt>
      <trkpt lat="43.12006" lon="5.93034">
        <ele>7.2</ele>
        <time>2025-05-25T07:03:58.000Z</time>
      </trkpt>
      <trkpt lat="43.12005" lon="5.93032">
        <ele>7.2</ele>
        <time>2025-05-25T07:03:59.000Z</time>
      </trkpt>
      <trkpt lat="43.12005" lon="5.93031">
        <ele>7.2</ele>
        <time>2025-05-25T07:04:00.000Z</time>
      </trkpt>
      <trkpt lat="43.12005" lon="5.9303">
        <ele>7.2</ele>
        <time>2025-05-25T07:04:01.000Z</time>
      </trkpt>
      <trkpt lat="43.12005" lon="5.93027">
        <ele>7.2</ele>
        <time>2025-05-25T07:04:05.000Z</time>
      </trkpt>
      <trkpt lat="43.12006" lon="5.93027">
        <ele>7.2</ele>
        <time>2025-05-25T07:04:06.000Z</time>
      </trkpt>
      <trkpt lat="43.1201" lon="5.93027">
        <ele>7.2</ele>
        <time>2025-05-25T07:04:12.000Z</time>
      </trkpt>
      <trkpt lat="43.12011" lon="5.93028">
        <ele>7.2</ele>
        <time>2025-05-25T07:04:13.000Z</time>
      </trkpt>
      <trkpt lat="43.12011" lon="5.93029">
        <ele>7.2</ele>
        <time>2025-05-25T07:04:14.000Z</time>
      </trkpt>
      <trkpt lat="43.12012" lon="5.93034">
        <ele>7.2</ele>
        <time>2025-05-25T07:04:18.000Z</time>
      </trkpt>
      <trkpt lat="43.12011" lon="5.93036">
        <ele>7.2</ele>
        <time>2025-05-25T07:04:19.000Z</time>
      </trkpt>
      <trkpt lat="43.1201" lon="5.93037">
        <ele>7.2</ele>
        <time>2025-05-25T07:04:20.000Z</time>
      </trkpt>
      <trkpt lat="43.12009" lon="5.93039">
        <ele>7.2</ele>
        <time>2025-05-25T07:04:21.000Z</time>
      </trkpt>
      <trkpt lat="43.11998" lon="5.93041">
        <ele>7.2</ele>
        <time>2025-05-25T07:04:27.000Z</time>
      </trkpt>
      <trkpt lat="43.11989" lon="5.93038">
        <ele>7.2</ele>
        <time>2025-05-25T07:04:31.000Z</time>
      </trkpt>
      <trkpt lat="43.11979" lon="5.93033">
        <ele>7.2</ele>
        <time>2025-05-25T07:04:35.000Z</time>
      </trkpt>
      <trkpt lat="43.11976" lon="5.93032">
        <ele>7.2</ele>
        <time>2025-05-25T07:04:36.000Z</time>
      </trkpt>
      <trkpt lat="43.11966" lon="5.93027">
        <ele>7.2</ele>
        <time>2025-05-25T07:04:40.000Z</time>
      </trkpt>
      <trkpt lat="43.11956" lon="5.93023">
        <ele>7.2</ele>
        <time>2025-05-25T07:04:44.000Z</time>
      </trkpt>
      <trkpt lat="43.11953" lon="5.93022">
        <ele>7.2</ele>
        <time>2025-05-25T07:04:45.000Z</time>
      </trkpt>
      <trkpt lat="43.1195" lon="5.93021">
        <ele>7.2</ele>
        <time>2025-05-25T07:04:46.000Z</time>
      </trkpt>
      <trkpt lat="43.11939" lon="5.93017">
        <ele>7.2</ele>
        <time>2025-05-25T07:04:50.000Z</time>
      </trkpt>
      <trkpt lat="43.11928" lon="5.93014">
        <ele>7.2</ele>
        <time>2025-05-25T07:04:54.000Z</time>
      </trkpt>
      <trkpt lat="43.11926" lon="5.93013">
        <ele>7.2</ele>
        <time>2025-05-25T07:04:55.000Z</time>
      </trkpt>
      <trkpt lat="43.11923" lon="5.93012">
        <ele>7.2</ele>
        <time>2025-05-25T07:04:56.000Z</time>
      </trkpt>
      <trkpt lat="43.1192" lon="5.93011">
        <ele>7.2</ele>
        <time>2025-05-25T07:04:57.000Z</time>
      </trkpt>
      <trkpt lat="43.11917" lon="5.93009">
        <ele>7.2</ele>
        <time>2025-05-25T07:04:58.000Z</time>
      </trkpt>
      <trkpt lat="43.11915" lon="5.93008">
        <ele>7.2</ele>
        <time>2025-05-25T07:04:59.000Z</time>
      </trkpt>
      <trkpt lat="43.11912" lon="5.93006">
        <ele>7.2</ele>
        <time>2025-05-25T07:05:00.000Z</time>
      </trkpt>
      <trkpt lat="43.11909" lon="5.93004">
        <ele>7.2</ele>
        <time>2025-05-25T07:05:01.000Z</time>
      </trkpt>
      <trkpt lat="43.11899" lon="5.92998">
        <ele>7.2</ele>
        <time>2025-05-25T07:05:05.000Z</time>
      </trkpt>
      <trkpt lat="43.11896" lon="5.92996">
        <ele>7.2</ele>
        <time>2025-05-25T07:05:06.000Z</time>
      </trkpt>
      <trkpt lat="43.11887" lon="5.9299">
        <ele>7.2</ele>
        <time>2025-05-25T07:05:10.000Z</time>
      </trkpt>
      <trkpt lat="43.11876" lon="5.92983">
        <ele>7.2</ele>
        <time>2025-05-25T07:05:14.000Z</time>
      </trkpt>
      <trkpt lat="43.11873" lon="5.92981">
        <ele>7.1</ele>
        <time>2025-05-25T07:05:15.000Z</time>
      </trkpt>
      <trkpt lat="43.1187" lon="5.92979">
        <ele>7</ele>
        <time>2025-05-25T07:05:16.000Z</time>
      </trkpt>
      <trkpt lat="43.11861" lon="5.92971">
        <ele>7.2</ele>
        <time>2025-05-25T07:05:20.000Z</time>
      </trkpt>
      <trkpt lat="43.11859" lon="5.92969">
        <ele>7.2</ele>
        <time>2025-05-25T07:05:21.000Z</time>
      </trkpt>
      <trkpt lat="43.11851" lon="5.92962">
        <ele>7.2</ele>
        <time>2025-05-25T07:05:24.000Z</time>
      </trkpt>
      <trkpt lat="43.11848" lon="5.9296">
        <ele>7.2</ele>
        <time>2025-05-25T07:05:25.000Z</time>
      </trkpt>
      <trkpt lat="43.11846" lon="5.92958">
        <ele>7.2</ele>
        <time>2025-05-25T07:05:26.000Z</time>
      </trkpt>
      <trkpt lat="43.11843" lon="5.92957">
        <ele>7.2</ele>
        <time>2025-05-25T07:05:27.000Z</time>
      </trkpt>
      <trkpt lat="43.11841" lon="5.92955">
        <ele>7.2</ele>
        <time>2025-05-25T07:05:28.000Z</time>
      </trkpt>
      <trkpt lat="43.11838" lon="5.92954">
        <ele>7.2</ele>
        <time>2025-05-25T07:05:29.000Z</time>
      </trkpt>
      <trkpt lat="43.11828" lon="5.92948">
        <ele>7.2</ele>
        <time>2025-05-25T07:05:33.000Z</time>
      </trkpt>
      <trkpt lat="43.11823" lon="5.92945">
        <ele>7.2</ele>
        <time>2025-05-25T07:05:35.000Z</time>
      </trkpt>
      <trkpt lat="43.1182" lon="5.92943">
        <ele>7.2</ele>
        <time>2025-05-25T07:05:36.000Z</time>
      </trkpt>
      <trkpt lat="43.11818" lon="5.92942">
        <ele>7.2</ele>
        <time>2025-05-25T07:05:37.000Z</time>
      </trkpt>
      <trkpt lat="43.11815" lon="5.9294">
        <ele>7.2</ele>
        <time>2025-05-25T07:05:38.000Z</time>
      </trkpt>
      <trkpt lat="43.11813" lon="5.92938">
        <ele>7.2</ele>
        <time>2025-05-25T07:05:39.000Z</time>
      </trkpt>
      <trkpt lat="43.11802" lon="5.92931">
        <ele>7.2</ele>
        <time>2025-05-25T07:05:43.000Z</time>
      </trkpt>
      <trkpt lat="43.11797" lon="5.92927">
        <ele>7.2</ele>
        <time>2025-05-25T07:05:45.000Z</time>
      </trkpt>
      <trkpt lat="43.11795" lon="5.92926">
        <ele>7.2</ele>
        <time>2025-05-25T07:05:46.000Z</time>
      </trkpt>
      <trkpt lat="43.11792" lon="5.92924">
        <ele>7.2</ele>
        <time>2025-05-25T07:05:47.000Z</time>
      </trkpt>
      <trkpt lat="43.1179" lon="5.92922">
        <ele>7.3</ele>
        <time>2025-05-25T07:05:48.000Z</time>
      </trkpt>
      <trkpt lat="43.11787" lon="5.92921">
        <ele>7.3</ele>
        <time>2025-05-25T07:05:49.000Z</time>
      </trkpt>
      <trkpt lat="43.11777" lon="5.92913">
        <ele>7.3</ele>
        <time>2025-05-25T07:05:53.000Z</time>
      </trkpt>
      <trkpt lat="43.11769" lon="5.92907">
        <ele>7.3</ele>
        <time>2025-05-25T07:05:56.000Z</time>
      </trkpt>
      <trkpt lat="43.11759" lon="5.929">
        <ele>7.3</ele>
        <time>2025-05-25T07:06:00.000Z</time>
      </trkpt>
      <trkpt lat="43.11756" lon="5.92899">
        <ele>7.3</ele>
        <time>2025-05-25T07:06:01.000Z</time>
      </trkpt>
      <trkpt lat="43.11754" lon="5.92897">
        <ele>7.3</ele>
        <time>2025-05-25T07:06:02.000Z</time>
      </trkpt>
      <trkpt lat="43.11751" lon="5.92895">
        <ele>7.3</ele>
        <time>2025-05-25T07:06:03.000Z</time>
      </trkpt>
      <trkpt lat="43.11748" lon="5.92894">
        <ele>7.3</ele>
        <time>2025-05-25T07:06:04.000Z</time>
      </trkpt>
      <trkpt lat="43.1174" lon="5.92886">
        <ele>7.3</ele>
        <time>2025-05-25T07:06:08.000Z</time>
      </trkpt>
      <trkpt lat="43.11737" lon="5.92884">
        <ele>7.3</ele>
        <time>2025-05-25T07:06:09.000Z</time>
      </trkpt>
      <trkpt lat="43.11735" lon="5.92882">
        <ele>7.3</ele>
        <time>2025-05-25T07:06:10.000Z</time>
      </trkpt>
      <trkpt lat="43.11727" lon="5.92874">
        <ele>7.3</ele>
        <time>2025-05-25T07:06:14.000Z</time>
      </trkpt>
      <trkpt lat="43.11717" lon="5.92865">
        <ele>7.3</ele>
        <time>2025-05-25T07:06:18.000Z</time>
      </trkpt>
      <trkpt lat="43.11715" lon="5.92863">
        <ele>7.3</ele>
        <time>2025-05-25T07:06:19.000Z</time>
      </trkpt>
      <trkpt lat="43.11705" lon="5.92855">
        <ele>7.3</ele>
        <time>2025-05-25T07:06:23.000Z</time>
      </trkpt>
      <trkpt lat="43.11695" lon="5.92848">
        <ele>7.3</ele>
        <time>2025-05-25T07:06:27.000Z</time>
      </trkpt>
      <trkpt lat="43.11685" lon="5.92841">
        <ele>7.2</ele>
        <time>2025-05-25T07:06:31.000Z</time>
      </trkpt>
      <trkpt lat="43.11675" lon="5.92833">
        <ele>7.2</ele>
        <time>2025-05-25T07:06:35.000Z</time>
      </trkpt>
      <trkpt lat="43.11665" lon="5.92826">
        <ele>7.2</ele>
        <time>2025-05-25T07:06:39.000Z</time>
      </trkpt>
      <trkpt lat="43.11655" lon="5.9282">
        <ele>7.2</ele>
        <time>2025-05-25T07:06:43.000Z</time>
      </trkpt>
      <trkpt lat="43.1165" lon="5.92816">
        <ele>7.2</ele>
        <time>2025-05-25T07:06:45.000Z</time>
      </trkpt>
      <trkpt lat="43.11647" lon="5.92814">
        <ele>7.2</ele>
        <time>2025-05-25T07:06:46.000Z</time>
      </trkpt>
      <trkpt lat="43.11645" lon="5.92812">
        <ele>7.2</ele>
        <time>2025-05-25T07:06:47.000Z</time>
      </trkpt>
      <trkpt lat="43.11642" lon="5.92811">
        <ele>7.2</ele>
        <time>2025-05-25T07:06:48.000Z</time>
      </trkpt>
      <trkpt lat="43.1164" lon="5.92809">
        <ele>7.2</ele>
        <time>2025-05-25T07:06:49.000Z</time>
      </trkpt>
      <trkpt lat="43.1163" lon="5.92799">
        <ele>7.2</ele>
        <time>2025-05-25T07:06:53.000Z</time>
      </trkpt>
      <trkpt lat="43.11623" lon="5.92793">
        <ele>7.2</ele>
        <time>2025-05-25T07:06:56.000Z</time>
      </trkpt>
      <trkpt lat="43.1162" lon="5.92791">
        <ele>7.2</ele>
        <time>2025-05-25T07:06:57.000Z</time>
      </trkpt>
      <trkpt lat="43.11618" lon="5.92789">
        <ele>7.2</ele>
        <time>2025-05-25T07:06:58.000Z</time>
      </trkpt>
      <trkpt lat="43.11615" lon="5.92787">
        <ele>7.2</ele>
        <time>2025-05-25T07:06:59.000Z</time>
      </trkpt>
      <trkpt lat="43.11605" lon="5.92779">
        <ele>7.2</ele>
        <time>2025-05-25T07:07:03.000Z</time>
      </trkpt>
      <trkpt lat="43.11596" lon="5.9277">
        <ele>7.2</ele>
        <time>2025-05-25T07:07:07.000Z</time>
      </trkpt>
      <trkpt lat="43.11588" lon="5.92765">
        <ele>7.2</ele>
        <time>2025-05-25T07:07:10.000Z</time>
      </trkpt>
      <trkpt lat="43.11586" lon="5.92763">
        <ele>7.2</ele>
        <time>2025-05-25T07:07:11.000Z</time>
      </trkpt>
      <trkpt lat="43.11583" lon="5.92761">
        <ele>7.2</ele>
        <time>2025-05-25T07:07:12.000Z</time>
      </trkpt>
      <trkpt lat="43.11581" lon="5.92758">
        <ele>7.2</ele>
        <time>2025-05-25T07:07:13.000Z</time>
      </trkpt>
      <trkpt lat="43.11578" lon="5.92757">
        <ele>7.2</ele>
        <time>2025-05-25T07:07:14.000Z</time>
      </trkpt>
      <trkpt lat="43.11576" lon="5.92755">
        <ele>7.2</ele>
        <time>2025-05-25T07:07:15.000Z</time>
      </trkpt>
      <trkpt lat="43.11566" lon="5.92746">
        <ele>7.2</ele>
        <time>2025-05-25T07:07:19.000Z</time>
      </trkpt>
      <trkpt lat="43.11556" lon="5.92738">
        <ele>7.2</ele>
        <time>2025-05-25T07:07:23.000Z</time>
      </trkpt>
      <trkpt lat="43.11546" lon="5.9273">
        <ele>7.2</ele>
        <time>2025-05-25T07:07:27.000Z</time>
      </trkpt>
      <trkpt lat="43.11543" lon="5.92727">
        <ele>7.2</ele>
        <time>2025-05-25T07:07:28.000Z</time>
      </trkpt>
      <trkpt lat="43.11541" lon="5.92725">
        <ele>7.2</ele>
        <time>2025-05-25T07:07:29.000Z</time>
      </trkpt>
      <trkpt lat="43.11531" lon="5.92718">
        <ele>7.2</ele>
        <time>2025-05-25T07:07:33.000Z</time>
      </trkpt>
      <trkpt lat="43.11526" lon="5.92714">
        <ele>7.2</ele>
        <time>2025-05-25T07:07:35.000Z</time>
      </trkpt>
      <trkpt lat="43.11524" lon="5.92712">
        <ele>7.2</ele>
        <time>2025-05-25T07:07:36.000Z</time>
      </trkpt>
      <trkpt lat="43.11521" lon="5.9271">
        <ele>7.2</ele>
        <time>2025-05-25T07:07:37.000Z</time>
      </trkpt>
      <trkpt lat="43.11518" lon="5.92708">
        <ele>7.2</ele>
        <time>2025-05-25T07:07:38.000Z</time>
      </trkpt>
      <trkpt lat="43.11515" lon="5.92706">
        <ele>7.2</ele>
        <time>2025-05-25T07:07:39.000Z</time>
      </trkpt>
      <trkpt lat="43.11506" lon="5.92699">
        <ele>7.2</ele>
        <time>2025-05-25T07:07:42.000Z</time>
      </trkpt>
      <trkpt lat="43.11497" lon="5.92691">
        <ele>7.2</ele>
        <time>2025-05-25T07:07:45.000Z</time>
      </trkpt>
      <trkpt lat="43.11487" lon="5.92682">
        <ele>7.2</ele>
        <time>2025-05-25T07:07:48.000Z</time>
      </trkpt>
      <trkpt lat="43.11483" lon="5.92679">
        <ele>7.2</ele>
        <time>2025-05-25T07:07:49.000Z</time>
      </trkpt>
      <trkpt lat="43.11479" lon="5.92677">
        <ele>7.2</ele>
        <time>2025-05-25T07:07:50.000Z</time>
      </trkpt>
      <trkpt lat="43.11475" lon="5.92674">
        <ele>7.2</ele>
        <time>2025-05-25T07:07:51.000Z</time>
      </trkpt>
      <trkpt lat="43.11466" lon="5.92664">
        <ele>7.2</ele>
        <time>2025-05-25T07:07:54.000Z</time>
      </trkpt>
      <trkpt lat="43.11457" lon="5.92655">
        <ele>7.2</ele>
        <time>2025-05-25T07:07:57.000Z</time>
      </trkpt>
      <trkpt lat="43.11447" lon="5.92646">
        <ele>7.2</ele>
        <time>2025-05-25T07:08:00.000Z</time>
      </trkpt>
      <trkpt lat="43.11437" lon="5.92636">
        <ele>7.2</ele>
        <time>2025-05-25T07:08:03.000Z</time>
      </trkpt>
      <trkpt lat="43.1143" lon="5.9263">
        <ele>7.2</ele>
        <time>2025-05-25T07:08:05.000Z</time>
      </trkpt>
      <trkpt lat="43.11426" lon="5.92627">
        <ele>7.2</ele>
        <time>2025-05-25T07:08:06.000Z</time>
      </trkpt>
      <trkpt lat="43.11423" lon="5.92623">
        <ele>7.2</ele>
        <time>2025-05-25T07:08:07.000Z</time>
      </trkpt>
      <trkpt lat="43.1142" lon="5.9262">
        <ele>7.3</ele>
        <time>2025-05-25T07:08:08.000Z</time>
      </trkpt>
      <trkpt lat="43.11416" lon="5.92616">
        <ele>7.3</ele>
        <time>2025-05-25T07:08:09.000Z</time>
      </trkpt>
      <trkpt lat="43.11413" lon="5.92613">
        <ele>7.3</ele>
        <time>2025-05-25T07:08:10.000Z</time>
      </trkpt>
      <trkpt lat="43.11405" lon="5.92606">
        <ele>7.2</ele>
        <time>2025-05-25T07:08:12.000Z</time>
      </trkpt>
      <trkpt lat="43.11401" lon="5.92603">
        <ele>7.2</ele>
        <time>2025-05-25T07:08:13.000Z</time>
      </trkpt>
      <trkpt lat="43.11398" lon="5.926">
        <ele>7.2</ele>
        <time>2025-05-25T07:08:14.000Z</time>
      </trkpt>
      <trkpt lat="43.11394" lon="5.92596">
        <ele>7.2</ele>
        <time>2025-05-25T07:08:15.000Z</time>
      </trkpt>
      <trkpt lat="43.1139" lon="5.92593">
        <ele>7.2</ele>
        <time>2025-05-25T07:08:16.000Z</time>
      </trkpt>
      <trkpt lat="43.11386" lon="5.92589">
        <ele>7.2</ele>
        <time>2025-05-25T07:08:17.000Z</time>
      </trkpt>
      <trkpt lat="43.11382" lon="5.92586">
        <ele>7.2</ele>
        <time>2025-05-25T07:08:18.000Z</time>
      </trkpt>
      <trkpt lat="43.11378" lon="5.92582">
        <ele>7.2</ele>
        <time>2025-05-25T07:08:19.000Z</time>
      </trkpt>
      <trkpt lat="43.11374" lon="5.92579">
        <ele>7.2</ele>
        <time>2025-05-25T07:08:20.000Z</time>
      </trkpt>
      <trkpt lat="43.1137" lon="5.92575">
        <ele>7.2</ele>
        <time>2025-05-25T07:08:21.000Z</time>
      </trkpt>
      <trkpt lat="43.11366" lon="5.92572">
        <ele>7.2</ele>
        <time>2025-05-25T07:08:22.000Z</time>
      </trkpt>
      <trkpt lat="43.11358" lon="5.92565">
        <ele>7.2</ele>
        <time>2025-05-25T07:08:24.000Z</time>
      </trkpt>
      <trkpt lat="43.1135" lon="5.92559">
        <ele>7.2</ele>
        <time>2025-05-25T07:08:26.000Z</time>
      </trkpt>
      <trkpt lat="43.11342" lon="5.92553">
        <ele>7.2</ele>
        <time>2025-05-25T07:08:28.000Z</time>
      </trkpt>
      <trkpt lat="43.11334" lon="5.92547">
        <ele>7.2</ele>
        <time>2025-05-25T07:08:30.000Z</time>
      </trkpt>
      <trkpt lat="43.11326" lon="5.92541">
        <ele>7.2</ele>
        <time>2025-05-25T07:08:32.000Z</time>
      </trkpt>
      <trkpt lat="43.11317" lon="5.92536">
        <ele>7.2</ele>
        <time>2025-05-25T07:08:34.000Z</time>
      </trkpt>
      <trkpt lat="43.11309" lon="5.9253">
        <ele>7.2</ele>
        <time>2025-05-25T07:08:36.000Z</time>
      </trkpt>
      <trkpt lat="43.11301" lon="5.92524">
        <ele>7.2</ele>
        <time>2025-05-25T07:08:38.000Z</time>
      </trkpt>
      <trkpt lat="43.11292" lon="5.92519">
        <ele>7.2</ele>
        <time>2025-05-25T07:08:40.000Z</time>
      </trkpt>
      <trkpt lat="43.11284" lon="5.92513">
        <ele>7.2</ele>
        <time>2025-05-25T07:08:42.000Z</time>
      </trkpt>
      <trkpt lat="43.11275" lon="5.92507">
        <ele>7.2</ele>
        <time>2025-05-25T07:08:44.000Z</time>
      </trkpt>
      <trkpt lat="43.11266" lon="5.92501">
        <ele>7.2</ele>
        <time>2025-05-25T07:08:46.000Z</time>
      </trkpt>
      <trkpt lat="43.11257" lon="5.92495">
        <ele>7.1</ele>
        <time>2025-05-25T07:08:48.000Z</time>
      </trkpt>
      <trkpt lat="43.11247" lon="5.92488">
        <ele>7.1</ele>
        <time>2025-05-25T07:08:50.000Z</time>
      </trkpt>
      <trkpt lat="43.11238" lon="5.92481">
        <ele>7.1</ele>
        <time>2025-05-25T07:08:52.000Z</time>
      </trkpt>
      <trkpt lat="43.1123" lon="5.92474">
        <ele>7.1</ele>
        <time>2025-05-25T07:08:54.000Z</time>
      </trkpt>
      <trkpt lat="43.11222" lon="5.92468">
        <ele>7.1</ele>
        <time>2025-05-25T07:08:56.000Z</time>
      </trkpt>
      <trkpt lat="43.11213" lon="5.92461">
        <ele>7.1</ele>
        <time>2025-05-25T07:08:58.000Z</time>
      </trkpt>
      <trkpt lat="43.11204" lon="5.92454">
        <ele>7.1</ele>
        <time>2025-05-25T07:09:00.000Z</time>
      </trkpt>
      <trkpt lat="43.11195" lon="5.92447">
        <ele>7.1</ele>
        <time>2025-05-25T07:09:02.000Z</time>
      </trkpt>
      <trkpt lat="43.11186" lon="5.92439">
        <ele>7.1</ele>
        <time>2025-05-25T07:09:04.000Z</time>
      </trkpt>
      <trkpt lat="43.11177" lon="5.92431">
        <ele>7.1</ele>
        <time>2025-05-25T07:09:06.000Z</time>
      </trkpt>
      <trkpt lat="43.11169" lon="5.92425">
        <ele>7.1</ele>
        <time>2025-05-25T07:09:08.000Z</time>
      </trkpt>
      <trkpt lat="43.1116" lon="5.9242">
        <ele>7.1</ele>
        <time>2025-05-25T07:09:10.000Z</time>
      </trkpt>
      <trkpt lat="43.11152" lon="5.92414">
        <ele>7.1</ele>
        <time>2025-05-25T07:09:12.000Z</time>
      </trkpt>
      <trkpt lat="43.11144" lon="5.92408">
        <ele>7.1</ele>
        <time>2025-05-25T07:09:14.000Z</time>
      </trkpt>
      <trkpt lat="43.11135" lon="5.92401">
        <ele>7.1</ele>
        <time>2025-05-25T07:09:16.000Z</time>
      </trkpt>
      <trkpt lat="43.11126" lon="5.92394">
        <ele>7.1</ele>
        <time>2025-05-25T07:09:18.000Z</time>
      </trkpt>
      <trkpt lat="43.11117" lon="5.92386">
        <ele>7.1</ele>
        <time>2025-05-25T07:09:20.000Z</time>
      </trkpt>
      <trkpt lat="43.11108" lon="5.92378">
        <ele>7.1</ele>
        <time>2025-05-25T07:09:22.000Z</time>
      </trkpt>
      <trkpt lat="43.11099" lon="5.92371">
        <ele>7</ele>
        <time>2025-05-25T07:09:24.000Z</time>
      </trkpt>
      <trkpt lat="43.1109" lon="5.92364">
        <ele>7</ele>
        <time>2025-05-25T07:09:26.000Z</time>
      </trkpt>
      <trkpt lat="43.11079" lon="5.92357">
        <ele>7</ele>
        <time>2025-05-25T07:09:28.000Z</time>
      </trkpt>
      <trkpt lat="43.11069" lon="5.9235">
        <ele>7</ele>
        <time>2025-05-25T07:09:30.000Z</time>
      </trkpt>
      <trkpt lat="43.11059" lon="5.92343">
        <ele>7</ele>
        <time>2025-05-25T07:09:32.000Z</time>
      </trkpt>
      <trkpt lat="43.1105" lon="5.92335">
        <ele>7</ele>
        <time>2025-05-25T07:09:34.000Z</time>
      </trkpt>
      <trkpt lat="43.11042" lon="5.92327">
        <ele>7</ele>
        <time>2025-05-25T07:09:36.000Z</time>
      </trkpt>
      <trkpt lat="43.11033" lon="5.92318">
        <ele>7</ele>
        <time>2025-05-25T07:09:38.000Z</time>
      </trkpt>
      <trkpt lat="43.11024" lon="5.92309">
        <ele>7</ele>
        <time>2025-05-25T07:09:40.000Z</time>
      </trkpt>
      <trkpt lat="43.11015" lon="5.92301">
        <ele>7</ele>
        <time>2025-05-25T07:09:42.000Z</time>
      </trkpt>
      <trkpt lat="43.11006" lon="5.92292">
        <ele>7</ele>
        <time>2025-05-25T07:09:44.000Z</time>
      </trkpt>
      <trkpt lat="43.10998" lon="5.92283">
        <ele>6.9</ele>
        <time>2025-05-25T07:09:46.000Z</time>
      </trkpt>
      <trkpt lat="43.10989" lon="5.92274">
        <ele>6.9</ele>
        <time>2025-05-25T07:09:48.000Z</time>
      </trkpt>
      <trkpt lat="43.1098" lon="5.92266">
        <ele>6.9</ele>
        <time>2025-05-25T07:09:50.000Z</time>
      </trkpt>
      <trkpt lat="43.10972" lon="5.92257">
        <ele>6.9</ele>
        <time>2025-05-25T07:09:52.000Z</time>
      </trkpt>
      <trkpt lat="43.10963" lon="5.92249">
        <ele>6.9</ele>
        <time>2025-05-25T07:09:54.000Z</time>
      </trkpt>
      <trkpt lat="43.10955" lon="5.9224">
        <ele>6.9</ele>
        <time>2025-05-25T07:09:56.000Z</time>
      </trkpt>
      <trkpt lat="43.10945" lon="5.92231">
        <ele>6.9</ele>
        <time>2025-05-25T07:09:58.000Z</time>
      </trkpt>
      <trkpt lat="43.10936" lon="5.92222">
        <ele>6.9</ele>
        <time>2025-05-25T07:10:00.000Z</time>
      </trkpt>
      <trkpt lat="43.10927" lon="5.92214">
        <ele>6.9</ele>
        <time>2025-05-25T07:10:02.000Z</time>
      </trkpt>
      <trkpt lat="43.10918" lon="5.92206">
        <ele>6.9</ele>
        <time>2025-05-25T07:10:04.000Z</time>
      </trkpt>
      <trkpt lat="43.10909" lon="5.92198">
        <ele>6.9</ele>
        <time>2025-05-25T07:10:06.000Z</time>
      </trkpt>
      <trkpt lat="43.109" lon="5.92189">
        <ele>6.9</ele>
        <time>2025-05-25T07:10:08.000Z</time>
      </trkpt>
      <trkpt lat="43.10891" lon="5.9218">
        <ele>6.9</ele>
        <time>2025-05-25T07:10:10.000Z</time>
      </trkpt>
      <trkpt lat="43.10882" lon="5.92171">
        <ele>6.9</ele>
        <time>2025-05-25T07:10:12.000Z</time>
      </trkpt>
      <trkpt lat="43.10873" lon="5.92163">
        <ele>6.9</ele>
        <time>2025-05-25T07:10:14.000Z</time>
      </trkpt>
      <trkpt lat="43.10864" lon="5.92154">
        <ele>6.9</ele>
        <time>2025-05-25T07:10:16.000Z</time>
      </trkpt>
      <trkpt lat="43.10856" lon="5.92146">
        <ele>6.8</ele>
        <time>2025-05-25T07:10:18.000Z</time>
      </trkpt>
      <trkpt lat="43.10847" lon="5.92138">
        <ele>6.8</ele>
        <time>2025-05-25T07:10:20.000Z</time>
      </trkpt>
      <trkpt lat="43.10838" lon="5.9213">
        <ele>6.8</ele>
        <time>2025-05-25T07:10:22.000Z</time>
      </trkpt>
      <trkpt lat="43.10828" lon="5.92123">
        <ele>6.8</ele>
        <time>2025-05-25T07:10:24.000Z</time>
      </trkpt>
      <trkpt lat="43.10819" lon="5.92116">
        <ele>6.8</ele>
        <time>2025-05-25T07:10:26.000Z</time>
      </trkpt>
      <trkpt lat="43.1081" lon="5.92109">
        <ele>6.8</ele>
        <time>2025-05-25T07:10:28.000Z</time>
      </trkpt>
      <trkpt lat="43.108" lon="5.92102">
        <ele>6.8</ele>
        <time>2025-05-25T07:10:30.000Z</time>
      </trkpt>
      <trkpt lat="43.1079" lon="5.92096">
        <ele>6.8</ele>
        <time>2025-05-25T07:10:32.000Z</time>
      </trkpt>
      <trkpt lat="43.1078" lon="5.92089">
        <ele>6.7</ele>
        <time>2025-05-25T07:10:34.000Z</time>
      </trkpt>
      <trkpt lat="43.1077" lon="5.92083">
        <ele>6.7</ele>
        <time>2025-05-25T07:10:36.000Z</time>
      </trkpt>
      <trkpt lat="43.1076" lon="5.92077">
        <ele>6.7</ele>
        <time>2025-05-25T07:10:38.000Z</time>
      </trkpt>
      <trkpt lat="43.1075" lon="5.92071">
        <ele>6.7</ele>
        <time>2025-05-25T07:10:40.000Z</time>
      </trkpt>
      <trkpt lat="43.1074" lon="5.92065">
        <ele>6.7</ele>
        <time>2025-05-25T07:10:42.000Z</time>
      </trkpt>
      <trkpt lat="43.1073" lon="5.92059">
        <ele>6.7</ele>
        <time>2025-05-25T07:10:44.000Z</time>
      </trkpt>
      <trkpt lat="43.1072" lon="5.92053">
        <ele>6.7</ele>
        <time>2025-05-25T07:10:46.000Z</time>
      </trkpt>
      <trkpt lat="43.1071" lon="5.92047">
        <ele>6.7</ele>
        <time>2025-05-25T07:10:48.000Z</time>
      </trkpt>
      <trkpt lat="43.107" lon="5.92042">
        <ele>6.7</ele>
        <time>2025-05-25T07:10:50.000Z</time>
      </trkpt>
      <trkpt lat="43.1069" lon="5.92036">
        <ele>6.7</ele>
        <time>2025-05-25T07:10:52.000Z</time>
      </trkpt>
      <trkpt lat="43.1068" lon="5.9203">
        <ele>6.7</ele>
        <time>2025-05-25T07:10:54.000Z</time>
      </trkpt>
      <trkpt lat="43.1067" lon="5.92024">
        <ele>6.7</ele>
        <time>2025-05-25T07:10:56.000Z</time>
      </trkpt>
      <trkpt lat="43.1066" lon="5.92018">
        <ele>6.6</ele>
        <time>2025-05-25T07:10:58.000Z</time>
      </trkpt>
      <trkpt lat="43.1065" lon="5.92011">
        <ele>6.6</ele>
        <time>2025-05-25T07:11:00.000Z</time>
      </trkpt>
      <trkpt lat="43.10639" lon="5.92006">
        <ele>6.6</ele>
        <time>2025-05-25T07:11:02.000Z</time>
      </trkpt>
      <trkpt lat="43.10629" lon="5.92001">
        <ele>6.6</ele>
        <time>2025-05-25T07:11:04.000Z</time>
      </trkpt>
      <trkpt lat="43.10619" lon="5.91996">
        <ele>6.6</ele>
        <time>2025-05-25T07:11:06.000Z</time>
      </trkpt>
      <trkpt lat="43.10609" lon="5.9199">
        <ele>6.6</ele>
        <time>2025-05-25T07:11:08.000Z</time>
      </trkpt>
      <trkpt lat="43.10599" lon="5.91985">
        <ele>6.6</ele>
        <time>2025-05-25T07:11:10.000Z</time>
      </trkpt>
      <trkpt lat="43.10589" lon="5.91979">
        <ele>6.6</ele>
        <time>2025-05-25T07:11:12.000Z</time>
      </trkpt>
      <trkpt lat="43.10579" lon="5.91974">
        <ele>6.6</ele>
        <time>2025-05-25T07:11:14.000Z</time>
      </trkpt>
      <trkpt lat="43.1057" lon="5.91968">
        <ele>6.6</ele>
        <time>2025-05-25T07:11:16.000Z</time>
      </trkpt>
      <trkpt lat="43.1056" lon="5.91961">
        <ele>6.6</ele>
        <time>2025-05-25T07:11:18.000Z</time>
      </trkpt>
      <trkpt lat="43.10551" lon="5.91955">
        <ele>6.6</ele>
        <time>2025-05-25T07:11:20.000Z</time>
      </trkpt>
      <trkpt lat="43.10541" lon="5.91948">
        <ele>6.6</ele>
        <time>2025-05-25T07:11:22.000Z</time>
      </trkpt>
      <trkpt lat="43.10531" lon="5.91942">
        <ele>6.6</ele>
        <time>2025-05-25T07:11:24.000Z</time>
      </trkpt>
      <trkpt lat="43.10521" lon="5.91935">
        <ele>6.6</ele>
        <time>2025-05-25T07:11:26.000Z</time>
      </trkpt>
      <trkpt lat="43.10512" lon="5.91929">
        <ele>6.6</ele>
        <time>2025-05-25T07:11:28.000Z</time>
      </trkpt>
      <trkpt lat="43.10502" lon="5.91924">
        <ele>6.6</ele>
        <time>2025-05-25T07:11:30.000Z</time>
      </trkpt>
      <trkpt lat="43.10493" lon="5.91918">
        <ele>6.6</ele>
        <time>2025-05-25T07:11:32.000Z</time>
      </trkpt>
      <trkpt lat="43.10483" lon="5.91914">
        <ele>6.6</ele>
        <time>2025-05-25T07:11:34.000Z</time>
      </trkpt>
      <trkpt lat="43.10473" lon="5.91909">
        <ele>6.6</ele>
        <time>2025-05-25T07:11:36.000Z</time>
      </trkpt>
      <trkpt lat="43.10463" lon="5.91904">
        <ele>6.6</ele>
        <time>2025-05-25T07:11:38.000Z</time>
      </trkpt>
      <trkpt lat="43.10454" lon="5.91899">
        <ele>6.6</ele>
        <time>2025-05-25T07:11:40.000Z</time>
      </trkpt>
      <trkpt lat="43.10444" lon="5.91894">
        <ele>6.6</ele>
        <time>2025-05-25T07:11:42.000Z</time>
      </trkpt>
      <trkpt lat="43.10434" lon="5.91889">
        <ele>6.6</ele>
        <time>2025-05-25T07:11:44.000Z</time>
      </trkpt>
      <trkpt lat="43.10424" lon="5.91885">
        <ele>6.6</ele>
        <time>2025-05-25T07:11:46.000Z</time>
      </trkpt>
      <trkpt lat="43.10414" lon="5.9188">
        <ele>6.6</ele>
        <time>2025-05-25T07:11:48.000Z</time>
      </trkpt>
      <trkpt lat="43.10404" lon="5.91875">
        <ele>6.6</ele>
        <time>2025-05-25T07:11:50.000Z</time>
      </trkpt>
      <trkpt lat="43.10394" lon="5.9187">
        <ele>6.6</ele>
        <time>2025-05-25T07:11:52.000Z</time>
      </trkpt>
      <trkpt lat="43.10384" lon="5.91866">
        <ele>6.6</ele>
        <time>2025-05-25T07:11:54.000Z</time>
      </trkpt>
      <trkpt lat="43.10374" lon="5.91861">
        <ele>6.6</ele>
        <time>2025-05-25T07:11:56.000Z</time>
      </trkpt>
      <trkpt lat="43.10363" lon="5.91856">
        <ele>6.6</ele>
        <time>2025-05-25T07:11:58.000Z</time>
      </trkpt>
      <trkpt lat="43.10353" lon="5.91851">
        <ele>6.6</ele>
        <time>2025-05-25T07:12:00.000Z</time>
      </trkpt>
      <trkpt lat="43.10343" lon="5.91846">
        <ele>6.6</ele>
        <time>2025-05-25T07:12:02.000Z</time>
      </trkpt>
      <trkpt lat="43.10333" lon="5.91842">
        <ele>6.6</ele>
        <time>2025-05-25T07:12:04.000Z</time>
      </trkpt>
      <trkpt lat="43.10322" lon="5.91838">
        <ele>6.6</ele>
        <time>2025-05-25T07:12:06.000Z</time>
      </trkpt>
      <trkpt lat="43.10312" lon="5.91834">
        <ele>6.6</ele>
        <time>2025-05-25T07:12:08.000Z</time>
      </trkpt>
      <trkpt lat="43.10302" lon="5.91829">
        <ele>6.6</ele>
        <time>2025-05-25T07:12:10.000Z</time>
      </trkpt>
      <trkpt lat="43.10291" lon="5.91824">
        <ele>6.6</ele>
        <time>2025-05-25T07:12:12.000Z</time>
      </trkpt>
      <trkpt lat="43.10281" lon="5.91819">
        <ele>6.6</ele>
        <time>2025-05-25T07:12:14.000Z</time>
      </trkpt>
      <trkpt lat="43.10271" lon="5.91814">
        <ele>6.6</ele>
        <time>2025-05-25T07:12:16.000Z</time>
      </trkpt>
      <trkpt lat="43.10261" lon="5.91809">
        <ele>6.6</ele>
        <time>2025-05-25T07:12:18.000Z</time>
      </trkpt>
      <trkpt lat="43.10251" lon="5.91804">
        <ele>6.6</ele>
        <time>2025-05-25T07:12:20.000Z</time>
      </trkpt>
      <trkpt lat="43.10241" lon="5.91799">
        <ele>6.6</ele>
        <time>2025-05-25T07:12:22.000Z</time>
      </trkpt>
      <trkpt lat="43.1023" lon="5.91793">
        <ele>6.6</ele>
        <time>2025-05-25T07:12:24.000Z</time>
      </trkpt>
      <trkpt lat="43.1022" lon="5.91789">
        <ele>6.6</ele>
        <time>2025-05-25T07:12:26.000Z</time>
      </trkpt>
      <trkpt lat="43.1021" lon="5.91784">
        <ele>6.6</ele>
        <time>2025-05-25T07:12:28.000Z</time>
      </trkpt>
      <trkpt lat="43.102" lon="5.91779">
        <ele>6.6</ele>
        <time>2025-05-25T07:12:30.000Z</time>
      </trkpt>
      <trkpt lat="43.1019" lon="5.91775">
        <ele>6.6</ele>
        <time>2025-05-25T07:12:32.000Z</time>
      </trkpt>
      <trkpt lat="43.10179" lon="5.91771">
        <ele>6.6</ele>
        <time>2025-05-25T07:12:34.000Z</time>
      </trkpt>
      <trkpt lat="43.10169" lon="5.91766">
        <ele>6.5</ele>
        <time>2025-05-25T07:12:36.000Z</time>
      </trkpt>
      <trkpt lat="43.10159" lon="5.91761">
        <ele>6.5</ele>
        <time>2025-05-25T07:12:38.000Z</time>
      </trkpt>
      <trkpt lat="43.10148" lon="5.91757">
        <ele>6.5</ele>
        <time>2025-05-25T07:12:40.000Z</time>
      </trkpt>
      <trkpt lat="43.10138" lon="5.91752">
        <ele>6.5</ele>
        <time>2025-05-25T07:12:42.000Z</time>
      </trkpt>
      <trkpt lat="43.10128" lon="5.91747">
        <ele>6.5</ele>
        <time>2025-05-25T07:12:44.000Z</time>
      </trkpt>
      <trkpt lat="43.10118" lon="5.91741">
        <ele>6.5</ele>
        <time>2025-05-25T07:12:46.000Z</time>
      </trkpt>
      <trkpt lat="43.10107" lon="5.91735">
        <ele>6.5</ele>
        <time>2025-05-25T07:12:48.000Z</time>
      </trkpt>
      <trkpt lat="43.10097" lon="5.9173">
        <ele>6.5</ele>
        <time>2025-05-25T07:12:50.000Z</time>
      </trkpt>
      <trkpt lat="43.10086" lon="5.91726">
        <ele>6.5</ele>
        <time>2025-05-25T07:12:52.000Z</time>
      </trkpt>
      <trkpt lat="43.10076" lon="5.91722">
        <ele>6.5</ele>
        <time>2025-05-25T07:12:54.000Z</time>
      </trkpt>
      <trkpt lat="43.10065" lon="5.91717">
        <ele>6.5</ele>
        <time>2025-05-25T07:12:56.000Z</time>
      </trkpt>
      <trkpt lat="43.10055" lon="5.91711">
        <ele>6.5</ele>
        <time>2025-05-25T07:12:58.000Z</time>
      </trkpt>
      <trkpt lat="43.10044" lon="5.91706">
        <ele>6.5</ele>
        <time>2025-05-25T07:13:00.000Z</time>
      </trkpt>
      <trkpt lat="43.10034" lon="5.91702">
        <ele>6.5</ele>
        <time>2025-05-25T07:13:02.000Z</time>
      </trkpt>
      <trkpt lat="43.10024" lon="5.91697">
        <ele>6.5</ele>
        <time>2025-05-25T07:13:04.000Z</time>
      </trkpt>
      <trkpt lat="43.10013" lon="5.91692">
        <ele>6.5</ele>
        <time>2025-05-25T07:13:06.000Z</time>
      </trkpt>
      <trkpt lat="43.10003" lon="5.91687">
        <ele>6.5</ele>
        <time>2025-05-25T07:13:08.000Z</time>
      </trkpt>
      <trkpt lat="43.09993" lon="5.91682">
        <ele>6.5</ele>
        <time>2025-05-25T07:13:10.000Z</time>
      </trkpt>
      <trkpt lat="43.09983" lon="5.91677">
        <ele>6.5</ele>
        <time>2025-05-25T07:13:12.000Z</time>
      </trkpt>
      <trkpt lat="43.09973" lon="5.91673">
        <ele>6.5</ele>
        <time>2025-05-25T07:13:14.000Z</time>
      </trkpt>
      <trkpt lat="43.09963" lon="5.91667">
        <ele>6.5</ele>
        <time>2025-05-25T07:13:16.000Z</time>
      </trkpt>
      <trkpt lat="43.09953" lon="5.91661">
        <ele>6.5</ele>
        <time>2025-05-25T07:13:18.000Z</time>
      </trkpt>
      <trkpt lat="43.09943" lon="5.91654">
        <ele>6.5</ele>
        <time>2025-05-25T07:13:20.000Z</time>
      </trkpt>
      <trkpt lat="43.09932" lon="5.91648">
        <ele>6.5</ele>
        <time>2025-05-25T07:13:22.000Z</time>
      </trkpt>
      <trkpt lat="43.09923" lon="5.91642">
        <ele>6.5</ele>
        <time>2025-05-25T07:13:24.000Z</time>
      </trkpt>
      <trkpt lat="43.09913" lon="5.91635">
        <ele>6.5</ele>
        <time>2025-05-25T07:13:26.000Z</time>
      </trkpt>
      <trkpt lat="43.09903" lon="5.91627">
        <ele>6.4</ele>
        <time>2025-05-25T07:13:28.000Z</time>
      </trkpt>
      <trkpt lat="43.09893" lon="5.91621">
        <ele>6.4</ele>
        <time>2025-05-25T07:13:30.000Z</time>
      </trkpt>
      <trkpt lat="43.09883" lon="5.91615">
        <ele>6.4</ele>
        <time>2025-05-25T07:13:32.000Z</time>
      </trkpt>
      <trkpt lat="43.09873" lon="5.91609">
        <ele>6.4</ele>
        <time>2025-05-25T07:13:34.000Z</time>
      </trkpt>
      <trkpt lat="43.09863" lon="5.91602">
        <ele>6.4</ele>
        <time>2025-05-25T07:13:36.000Z</time>
      </trkpt>
      <trkpt lat="43.09852" lon="5.91596">
        <ele>6.4</ele>
        <time>2025-05-25T07:13:38.000Z</time>
      </trkpt>
      <trkpt lat="43.09842" lon="5.9159">
        <ele>6.4</ele>
        <time>2025-05-25T07:13:40.000Z</time>
      </trkpt>
      <trkpt lat="43.09832" lon="5.91584">
        <ele>6.4</ele>
        <time>2025-05-25T07:13:42.000Z</time>
      </trkpt>
      <trkpt lat="43.09821" lon="5.91578">
        <ele>6.4</ele>
        <time>2025-05-25T07:13:44.000Z</time>
      </trkpt>
      <trkpt lat="43.09812" lon="5.91572">
        <ele>6.4</ele>
        <time>2025-05-25T07:13:46.000Z</time>
      </trkpt>
      <trkpt lat="43.09802" lon="5.91565">
        <ele>6.4</ele>
        <time>2025-05-25T07:13:48.000Z</time>
      </trkpt>
      <trkpt lat="43.09792" lon="5.91558">
        <ele>6.4</ele>
        <time>2025-05-25T07:13:50.000Z</time>
      </trkpt>
      <trkpt lat="43.09782" lon="5.91552">
        <ele>6.4</ele>
        <time>2025-05-25T07:13:52.000Z</time>
      </trkpt>
      <trkpt lat="43.09772" lon="5.91546">
        <ele>6.4</ele>
        <time>2025-05-25T07:13:54.000Z</time>
      </trkpt>
      <trkpt lat="43.09762" lon="5.91539">
        <ele>6.4</ele>
        <time>2025-05-25T07:13:56.000Z</time>
      </trkpt>
      <trkpt lat="43.09752" lon="5.91532">
        <ele>6.4</ele>
        <time>2025-05-25T07:13:58.000Z</time>
      </trkpt>
      <trkpt lat="43.09742" lon="5.91526">
        <ele>6.4</ele>
        <time>2025-05-25T07:14:00.000Z</time>
      </trkpt>
      <trkpt lat="43.09733" lon="5.91518">
        <ele>6.4</ele>
        <time>2025-05-25T07:14:02.000Z</time>
      </trkpt>
      <trkpt lat="43.09723" lon="5.9151">
        <ele>6.4</ele>
        <time>2025-05-25T07:14:04.000Z</time>
      </trkpt>
      <trkpt lat="43.09714" lon="5.91504">
        <ele>6.4</ele>
        <time>2025-05-25T07:14:06.000Z</time>
      </trkpt>
      <trkpt lat="43.09705" lon="5.91497">
        <ele>6.3</ele>
        <time>2025-05-25T07:14:08.000Z</time>
      </trkpt>
      <trkpt lat="43.09695" lon="5.91491">
        <ele>6.3</ele>
        <time>2025-05-25T07:14:10.000Z</time>
      </trkpt>
      <trkpt lat="43.09686" lon="5.91485">
        <ele>6.3</ele>
        <time>2025-05-25T07:14:12.000Z</time>
      </trkpt>
      <trkpt lat="43.09675" lon="5.91479">
        <ele>6.3</ele>
        <time>2025-05-25T07:14:14.000Z</time>
      </trkpt>
      <trkpt lat="43.09665" lon="5.91474">
        <ele>6.3</ele>
        <time>2025-05-25T07:14:16.000Z</time>
      </trkpt>
      <trkpt lat="43.09654" lon="5.91468">
        <ele>6.3</ele>
        <time>2025-05-25T07:14:18.000Z</time>
      </trkpt>
      <trkpt lat="43.09643" lon="5.91463">
        <ele>6.3</ele>
        <time>2025-05-25T07:14:20.000Z</time>
      </trkpt>
      <trkpt lat="43.09633" lon="5.91457">
        <ele>6.3</ele>
        <time>2025-05-25T07:14:22.000Z</time>
      </trkpt>
      <trkpt lat="43.09623" lon="5.91452">
        <ele>6.3</ele>
        <time>2025-05-25T07:14:24.000Z</time>
      </trkpt>
      <trkpt lat="43.09612" lon="5.91446">
        <ele>6.3</ele>
        <time>2025-05-25T07:14:26.000Z</time>
      </trkpt>
      <trkpt lat="43.09601" lon="5.9144">
        <ele>6.3</ele>
        <time>2025-05-25T07:14:28.000Z</time>
      </trkpt>
      <trkpt lat="43.09591" lon="5.91433">
        <ele>6.3</ele>
        <time>2025-05-25T07:14:30.000Z</time>
      </trkpt>
      <trkpt lat="43.09581" lon="5.91427">
        <ele>6.3</ele>
        <time>2025-05-25T07:14:32.000Z</time>
      </trkpt>
      <trkpt lat="43.09571" lon="5.91421">
        <ele>6.3</ele>
        <time>2025-05-25T07:14:34.000Z</time>
      </trkpt>
      <trkpt lat="43.0956" lon="5.91415">
        <ele>6.3</ele>
        <time>2025-05-25T07:14:36.000Z</time>
      </trkpt>
      <trkpt lat="43.0955" lon="5.91409">
        <ele>6.3</ele>
        <time>2025-05-25T07:14:38.000Z</time>
      </trkpt>
      <trkpt lat="43.0954" lon="5.91403">
        <ele>6.2</ele>
        <time>2025-05-25T07:14:40.000Z</time>
      </trkpt>
      <trkpt lat="43.0953" lon="5.91396">
        <ele>6.2</ele>
        <time>2025-05-25T07:14:42.000Z</time>
      </trkpt>
      <trkpt lat="43.09521" lon="5.9139">
        <ele>6.2</ele>
        <time>2025-05-25T07:14:44.000Z</time>
      </trkpt>
      <trkpt lat="43.09511" lon="5.91384">
        <ele>6.2</ele>
        <time>2025-05-25T07:14:46.000Z</time>
      </trkpt>
      <trkpt lat="43.09501" lon="5.91376">
        <ele>6.2</ele>
        <time>2025-05-25T07:14:48.000Z</time>
      </trkpt>
      <trkpt lat="43.09492" lon="5.91369">
        <ele>6.2</ele>
        <time>2025-05-25T07:14:50.000Z</time>
      </trkpt>
      <trkpt lat="43.09482" lon="5.9136">
        <ele>6.2</ele>
        <time>2025-05-25T07:14:52.000Z</time>
      </trkpt>
      <trkpt lat="43.09473" lon="5.91353">
        <ele>6.2</ele>
        <time>2025-05-25T07:14:54.000Z</time>
      </trkpt>
      <trkpt lat="43.09463" lon="5.91345">
        <ele>6.2</ele>
        <time>2025-05-25T07:14:56.000Z</time>
      </trkpt>
      <trkpt lat="43.09454" lon="5.91337">
        <ele>6.2</ele>
        <time>2025-05-25T07:14:58.000Z</time>
      </trkpt>
      <trkpt lat="43.09445" lon="5.9133">
        <ele>6.2</ele>
        <time>2025-05-25T07:15:00.000Z</time>
      </trkpt>
      <trkpt lat="43.09436" lon="5.91323">
        <ele>6.2</ele>
        <time>2025-05-25T07:15:02.000Z</time>
      </trkpt>
      <trkpt lat="43.09427" lon="5.91315">
        <ele>6.1</ele>
        <time>2025-05-25T07:15:04.000Z</time>
      </trkpt>
      <trkpt lat="43.09417" lon="5.91308">
        <ele>6.1</ele>
        <time>2025-05-25T07:15:06.000Z</time>
      </trkpt>
      <trkpt lat="43.09408" lon="5.913">
        <ele>6.1</ele>
        <time>2025-05-25T07:15:08.000Z</time>
      </trkpt>
      <trkpt lat="43.09399" lon="5.91293">
        <ele>6.1</ele>
        <time>2025-05-25T07:15:10.000Z</time>
      </trkpt>
      <trkpt lat="43.0939" lon="5.91286">
        <ele>6.1</ele>
        <time>2025-05-25T07:15:12.000Z</time>
      </trkpt>
      <trkpt lat="43.0938" lon="5.91279">
        <ele>6.1</ele>
        <time>2025-05-25T07:15:14.000Z</time>
      </trkpt>
      <trkpt lat="43.0937" lon="5.91271">
        <ele>6.1</ele>
        <time>2025-05-25T07:15:16.000Z</time>
      </trkpt>
      <trkpt lat="43.09361" lon="5.91265">
        <ele>6</ele>
        <time>2025-05-25T07:15:18.000Z</time>
      </trkpt>
      <trkpt lat="43.09351" lon="5.91258">
        <ele>6</ele>
        <time>2025-05-25T07:15:20.000Z</time>
      </trkpt>
      <trkpt lat="43.09341" lon="5.91251">
        <ele>6</ele>
        <time>2025-05-25T07:15:22.000Z</time>
      </trkpt>
      <trkpt lat="43.09331" lon="5.91244">
        <ele>6</ele>
        <time>2025-05-25T07:15:24.000Z</time>
      </trkpt>
      <trkpt lat="43.09322" lon="5.91237">
        <ele>6</ele>
        <time>2025-05-25T07:15:26.000Z</time>
      </trkpt>
      <trkpt lat="43.09312" lon="5.9123">
        <ele>6</ele>
        <time>2025-05-25T07:15:28.000Z</time>
      </trkpt>
      <trkpt lat="43.09303" lon="5.91223">
        <ele>6</ele>
        <time>2025-05-25T07:15:30.000Z</time>
      </trkpt>
      <trkpt lat="43.09293" lon="5.91216">
        <ele>6</ele>
        <time>2025-05-25T07:15:32.000Z</time>
      </trkpt>
      <trkpt lat="43.09284" lon="5.91209">
        <ele>6</ele>
        <time>2025-05-25T07:15:34.000Z</time>
      </trkpt>
      <trkpt lat="43.09275" lon="5.91202">
        <ele>6</ele>
        <time>2025-05-25T07:15:36.000Z</time>
      </trkpt>
      <trkpt lat="43.09265" lon="5.91196">
        <ele>6</ele>
        <time>2025-05-25T07:15:38.000Z</time>
      </trkpt>
      <trkpt lat="43.09256" lon="5.9119">
        <ele>6</ele>
        <time>2025-05-25T07:15:40.000Z</time>
      </trkpt>
      <trkpt lat="43.09247" lon="5.91183">
        <ele>6</ele>
        <time>2025-05-25T07:15:42.000Z</time>
      </trkpt>
      <trkpt lat="43.09238" lon="5.91176">
        <ele>6</ele>
        <time>2025-05-25T07:15:44.000Z</time>
      </trkpt>
      <trkpt lat="43.09228" lon="5.9117">
        <ele>5.9</ele>
        <time>2025-05-25T07:15:46.000Z</time>
      </trkpt>
      <trkpt lat="43.09219" lon="5.91164">
        <ele>5.9</ele>
        <time>2025-05-25T07:15:48.000Z</time>
      </trkpt>
      <trkpt lat="43.0921" lon="5.91155">
        <ele>5.9</ele>
        <time>2025-05-25T07:15:50.000Z</time>
      </trkpt>
      <trkpt lat="43.09201" lon="5.91147">
        <ele>5.9</ele>
        <time>2025-05-25T07:15:52.000Z</time>
      </trkpt>
      <trkpt lat="43.09192" lon="5.91139">
        <ele>5.9</ele>
        <time>2025-05-25T07:15:54.000Z</time>
      </trkpt>
      <trkpt lat="43.09182" lon="5.91132">
        <ele>5.9</ele>
        <time>2025-05-25T07:15:56.000Z</time>
      </trkpt>
      <trkpt lat="43.09172" lon="5.91125">
        <ele>5.9</ele>
        <time>2025-05-25T07:15:58.000Z</time>
      </trkpt>
      <trkpt lat="43.09163" lon="5.91116">
        <ele>5.9</ele>
        <time>2025-05-25T07:16:00.000Z</time>
      </trkpt>
      <trkpt lat="43.09154" lon="5.91108">
        <ele>5.9</ele>
        <time>2025-05-25T07:16:02.000Z</time>
      </trkpt>
      <trkpt lat="43.09144" lon="5.91101">
        <ele>5.9</ele>
        <time>2025-05-25T07:16:04.000Z</time>
      </trkpt>
      <trkpt lat="43.09135" lon="5.91094">
        <ele>5.9</ele>
        <time>2025-05-25T07:16:06.000Z</time>
      </trkpt>
      <trkpt lat="43.09126" lon="5.91087">
        <ele>5.9</ele>
        <time>2025-05-25T07:16:08.000Z</time>
      </trkpt>
      <trkpt lat="43.09116" lon="5.9108">
        <ele>5.9</ele>
        <time>2025-05-25T07:16:10.000Z</time>
      </trkpt>
      <trkpt lat="43.09107" lon="5.91073">
        <ele>5.9</ele>
        <time>2025-05-25T07:16:12.000Z</time>
      </trkpt>
      <trkpt lat="43.09098" lon="5.91066">
        <ele>5.9</ele>
        <time>2025-05-25T07:16:14.000Z</time>
      </trkpt>
      <trkpt lat="43.09089" lon="5.91059">
        <ele>5.9</ele>
        <time>2025-05-25T07:16:16.000Z</time>
      </trkpt>
      <trkpt lat="43.09081" lon="5.91053">
        <ele>5.9</ele>
        <time>2025-05-25T07:16:18.000Z</time>
      </trkpt>
      <trkpt lat="43.09072" lon="5.91046">
        <ele>5.9</ele>
        <time>2025-05-25T07:16:20.000Z</time>
      </trkpt>
      <trkpt lat="43.09063" lon="5.9104">
        <ele>5.9</ele>
        <time>2025-05-25T07:16:22.000Z</time>
      </trkpt>
      <trkpt lat="43.09055" lon="5.91033">
        <ele>5.9</ele>
        <time>2025-05-25T07:16:24.000Z</time>
      </trkpt>
      <trkpt lat="43.09046" lon="5.91026">
        <ele>5.9</ele>
        <time>2025-05-25T07:16:26.000Z</time>
      </trkpt>
      <trkpt lat="43.09038" lon="5.9102">
        <ele>5.9</ele>
        <time>2025-05-25T07:16:28.000Z</time>
      </trkpt>
      <trkpt lat="43.0903" lon="5.91013">
        <ele>5.9</ele>
        <time>2025-05-25T07:16:30.000Z</time>
      </trkpt>
      <trkpt lat="43.09021" lon="5.91007">
        <ele>5.9</ele>
        <time>2025-05-25T07:16:32.000Z</time>
      </trkpt>
      <trkpt lat="43.09013" lon="5.91">
        <ele>5.9</ele>
        <time>2025-05-25T07:16:34.000Z</time>
      </trkpt>
      <trkpt lat="43.09005" lon="5.90994">
        <ele>5.9</ele>
        <time>2025-05-25T07:16:36.000Z</time>
      </trkpt>
      <trkpt lat="43.08997" lon="5.90987">
        <ele>5.9</ele>
        <time>2025-05-25T07:16:38.000Z</time>
      </trkpt>
      <trkpt lat="43.08989" lon="5.90981">
        <ele>5.9</ele>
        <time>2025-05-25T07:16:40.000Z</time>
      </trkpt>
      <trkpt lat="43.08981" lon="5.90975">
        <ele>5.9</ele>
        <time>2025-05-25T07:16:42.000Z</time>
      </trkpt>
      <trkpt lat="43.08972" lon="5.90968">
        <ele>5.9</ele>
        <time>2025-05-25T07:16:44.000Z</time>
      </trkpt>
      <trkpt lat="43.08964" lon="5.90961">
        <ele>5.9</ele>
        <time>2025-05-25T07:16:46.000Z</time>
      </trkpt>
      <trkpt lat="43.08956" lon="5.90955">
        <ele>5.9</ele>
        <time>2025-05-25T07:16:48.000Z</time>
      </trkpt>
      <trkpt lat="43.08949" lon="5.90948">
        <ele>5.9</ele>
        <time>2025-05-25T07:16:50.000Z</time>
      </trkpt>
      <trkpt lat="43.08941" lon="5.90941">
        <ele>5.9</ele>
        <time>2025-05-25T07:16:52.000Z</time>
      </trkpt>
      <trkpt lat="43.08934" lon="5.90933">
        <ele>5.9</ele>
        <time>2025-05-25T07:16:54.000Z</time>
      </trkpt>
      <trkpt lat="43.08926" lon="5.90926">
        <ele>5.8</ele>
        <time>2025-05-25T07:16:56.000Z</time>
      </trkpt>
      <trkpt lat="43.08916" lon="5.90915">
        <ele>5.5</ele>
        <time>2025-05-25T07:16:59.000Z</time>
      </trkpt>
      <trkpt lat="43.08912" lon="5.90911">
        <ele>5.5</ele>
        <time>2025-05-25T07:17:00.000Z</time>
      </trkpt>
      <trkpt lat="43.08909" lon="5.90907">
        <ele>5.6</ele>
        <time>2025-05-25T07:17:01.000Z</time>
      </trkpt>
      <trkpt lat="43.08906" lon="5.90904">
        <ele>5.7</ele>
        <time>2025-05-25T07:17:02.000Z</time>
      </trkpt>
      <trkpt lat="43.08902" lon="5.909">
        <ele>5.8</ele>
        <time>2025-05-25T07:17:03.000Z</time>
      </trkpt>
      <trkpt lat="43.08899" lon="5.90896">
        <ele>5.8</ele>
        <time>2025-05-25T07:17:04.000Z</time>
      </trkpt>
      <trkpt lat="43.08888" lon="5.90886">
        <ele>5.2</ele>
        <time>2025-05-25T07:17:07.000Z</time>
      </trkpt>
      <trkpt lat="43.08885" lon="5.90882">
        <ele>5.1</ele>
        <time>2025-05-25T07:17:08.000Z</time>
      </trkpt>
      <trkpt lat="43.08882" lon="5.90879">
        <ele>5.1</ele>
        <time>2025-05-25T07:17:09.000Z</time>
      </trkpt>
      <trkpt lat="43.08874" lon="5.90871">
        <ele>5.2</ele>
        <time>2025-05-25T07:17:11.000Z</time>
      </trkpt>
      <trkpt lat="43.08864" lon="5.90861">
        <ele>5.2</ele>
        <time>2025-05-25T07:17:14.000Z</time>
      </trkpt>
      <trkpt lat="43.08854" lon="5.9085">
        <ele>5.3</ele>
        <time>2025-05-25T07:17:17.000Z</time>
      </trkpt>
      <trkpt lat="43.08846" lon="5.90842">
        <ele>5.3</ele>
        <time>2025-05-25T07:17:19.000Z</time>
      </trkpt>
      <trkpt lat="43.08836" lon="5.90832">
        <ele>5.3</ele>
        <time>2025-05-25T07:17:22.000Z</time>
      </trkpt>
      <trkpt lat="43.08825" lon="5.90822">
        <ele>5.3</ele>
        <time>2025-05-25T07:17:25.000Z</time>
      </trkpt>
      <trkpt lat="43.08814" lon="5.90812">
        <ele>5.4</ele>
        <time>2025-05-25T07:17:28.000Z</time>
      </trkpt>
      <trkpt lat="43.08805" lon="5.90801">
        <ele>5.4</ele>
        <time>2025-05-25T07:17:31.000Z</time>
      </trkpt>
      <trkpt lat="43.08796" lon="5.9079">
        <ele>5.4</ele>
        <time>2025-05-25T07:17:34.000Z</time>
      </trkpt>
      <trkpt lat="43.08787" lon="5.90778">
        <ele>5.5</ele>
        <time>2025-05-25T07:17:37.000Z</time>
      </trkpt>
      <trkpt lat="43.08778" lon="5.90766">
        <ele>5.5</ele>
        <time>2025-05-25T07:17:40.000Z</time>
      </trkpt>
      <trkpt lat="43.0877" lon="5.90753">
        <ele>5.5</ele>
        <time>2025-05-25T07:17:43.000Z</time>
      </trkpt>
      <trkpt lat="43.08762" lon="5.90741">
        <ele>5.5</ele>
        <time>2025-05-25T07:17:46.000Z</time>
      </trkpt>
      <trkpt lat="43.08754" lon="5.90729">
        <ele>5.5</ele>
        <time>2025-05-25T07:17:49.000Z</time>
      </trkpt>
      <trkpt lat="43.08746" lon="5.90717">
        <ele>5.4</ele>
        <time>2025-05-25T07:17:52.000Z</time>
      </trkpt>
      <trkpt lat="43.08737" lon="5.90706">
        <ele>5.5</ele>
        <time>2025-05-25T07:17:55.000Z</time>
      </trkpt>
      <trkpt lat="43.08728" lon="5.90694">
        <ele>5.4</ele>
        <time>2025-05-25T07:17:58.000Z</time>
      </trkpt>
      <trkpt lat="43.0872" lon="5.90682">
        <ele>5.4</ele>
        <time>2025-05-25T07:18:01.000Z</time>
      </trkpt>
      <trkpt lat="43.08711" lon="5.90671">
        <ele>5.4</ele>
        <time>2025-05-25T07:18:04.000Z</time>
      </trkpt>
      <trkpt lat="43.08703" lon="5.90659">
        <ele>5.4</ele>
        <time>2025-05-25T07:18:07.000Z</time>
      </trkpt>
      <trkpt lat="43.08694" lon="5.90647">
        <ele>5.4</ele>
        <time>2025-05-25T07:18:10.000Z</time>
      </trkpt>
      <trkpt lat="43.08686" lon="5.90635">
        <ele>5.4</ele>
        <time>2025-05-25T07:18:13.000Z</time>
      </trkpt>
      <trkpt lat="43.08677" lon="5.90624">
        <ele>5.4</ele>
        <time>2025-05-25T07:18:16.000Z</time>
      </trkpt>
      <trkpt lat="43.08669" lon="5.90612">
        <ele>5.4</ele>
        <time>2025-05-25T07:18:19.000Z</time>
      </trkpt>
      <trkpt lat="43.0866" lon="5.906">
        <ele>5.4</ele>
        <time>2025-05-25T07:18:22.000Z</time>
      </trkpt>
      <trkpt lat="43.08652" lon="5.90588">
        <ele>5.4</ele>
        <time>2025-05-25T07:18:25.000Z</time>
      </trkpt>
      <trkpt lat="43.08644" lon="5.90575">
        <ele>5.4</ele>
        <time>2025-05-25T07:18:28.000Z</time>
      </trkpt>
      <trkpt lat="43.08635" lon="5.90563">
        <ele>5.3</ele>
        <time>2025-05-25T07:18:31.000Z</time>
      </trkpt>
      <trkpt lat="43.08627" lon="5.90551">
        <ele>5.3</ele>
        <time>2025-05-25T07:18:34.000Z</time>
      </trkpt>
      <trkpt lat="43.08619" lon="5.90538">
        <ele>5.3</ele>
        <time>2025-05-25T07:18:37.000Z</time>
      </trkpt>
      <trkpt lat="43.08611" lon="5.90526">
        <ele>5.3</ele>
        <time>2025-05-25T07:18:40.000Z</time>
      </trkpt>
      <trkpt lat="43.08603" lon="5.90514">
        <ele>5.3</ele>
        <time>2025-05-25T07:18:43.000Z</time>
      </trkpt>
      <trkpt lat="43.08595" lon="5.90502">
        <ele>5.3</ele>
        <time>2025-05-25T07:18:46.000Z</time>
      </trkpt>
      <trkpt lat="43.08586" lon="5.9049">
        <ele>5.3</ele>
        <time>2025-05-25T07:18:49.000Z</time>
      </trkpt>
      <trkpt lat="43.08578" lon="5.90478">
        <ele>5.3</ele>
        <time>2025-05-25T07:18:52.000Z</time>
      </trkpt>
      <trkpt lat="43.0857" lon="5.90466">
        <ele>5.2</ele>
        <time>2025-05-25T07:18:55.000Z</time>
      </trkpt>
      <trkpt lat="43.08561" lon="5.90454">
        <ele>5.2</ele>
        <time>2025-05-25T07:18:58.000Z</time>
      </trkpt>
      <trkpt lat="43.08553" lon="5.90442">
        <ele>5.2</ele>
        <time>2025-05-25T07:19:01.000Z</time>
      </trkpt>
      <trkpt lat="43.08545" lon="5.90429">
        <ele>5.2</ele>
        <time>2025-05-25T07:19:04.000Z</time>
      </trkpt>
      <trkpt lat="43.08537" lon="5.90417">
        <ele>5.2</ele>
        <time>2025-05-25T07:19:07.000Z</time>
      </trkpt>
      <trkpt lat="43.08529" lon="5.90404">
        <ele>5.2</ele>
        <time>2025-05-25T07:19:10.000Z</time>
      </trkpt>
      <trkpt lat="43.08522" lon="5.90391">
        <ele>5.2</ele>
        <time>2025-05-25T07:19:13.000Z</time>
      </trkpt>
      <trkpt lat="43.08514" lon="5.90378">
        <ele>5.2</ele>
        <time>2025-05-25T07:19:16.000Z</time>
      </trkpt>
      <trkpt lat="43.08506" lon="5.90366">
        <ele>5.7</ele>
        <time>2025-05-25T07:19:19.000Z</time>
      </trkpt>
      <trkpt lat="43.08499" lon="5.90353">
        <ele>5.3</ele>
        <time>2025-05-25T07:19:22.000Z</time>
      </trkpt>
      <trkpt lat="43.08492" lon="5.9034">
        <ele>5.2</ele>
        <time>2025-05-25T07:19:25.000Z</time>
      </trkpt>
      <trkpt lat="43.08485" lon="5.90327">
        <ele>6</ele>
        <time>2025-05-25T07:19:28.000Z</time>
      </trkpt>
      <trkpt lat="43.08482" lon="5.90323">
        <ele>6</ele>
        <time>2025-05-25T07:19:29.000Z</time>
      </trkpt>
      <trkpt lat="43.08474" lon="5.9031">
        <ele>5.8</ele>
        <time>2025-05-25T07:19:32.000Z</time>
      </trkpt>
      <trkpt lat="43.08466" lon="5.90297">
        <ele>5.6</ele>
        <time>2025-05-25T07:19:35.000Z</time>
      </trkpt>
      <trkpt lat="43.08459" lon="5.90285">
        <ele>5.5</ele>
        <time>2025-05-25T07:19:38.000Z</time>
      </trkpt>
      <trkpt lat="43.08456" lon="5.9028">
        <ele>5.4</ele>
        <time>2025-05-25T07:19:39.000Z</time>
      </trkpt>
      <trkpt lat="43.08453" lon="5.90275">
        <ele>5.4</ele>
        <time>2025-05-25T07:19:40.000Z</time>
      </trkpt>
      <trkpt lat="43.08446" lon="5.90262">
        <ele>5.3</ele>
        <time>2025-05-25T07:19:43.000Z</time>
      </trkpt>
      <trkpt lat="43.08438" lon="5.9025">
        <ele>5.2</ele>
        <time>2025-05-25T07:19:46.000Z</time>
      </trkpt>
      <trkpt lat="43.0843" lon="5.90236">
        <ele>5.2</ele>
        <time>2025-05-25T07:19:49.000Z</time>
      </trkpt>
      <trkpt lat="43.08422" lon="5.90224">
        <ele>5.1</ele>
        <time>2025-05-25T07:19:52.000Z</time>
      </trkpt>
      <trkpt lat="43.08414" lon="5.90213">
        <ele>5.1</ele>
        <time>2025-05-25T07:19:55.000Z</time>
      </trkpt>
      <trkpt lat="43.08407" lon="5.90201">
        <ele>5.1</ele>
        <time>2025-05-25T07:19:58.000Z</time>
      </trkpt>
      <trkpt lat="43.08402" lon="5.90194">
        <ele>5.1</ele>
        <time>2025-05-25T07:20:00.000Z</time>
      </trkpt>
      <trkpt lat="43.084" lon="5.9019">
        <ele>5.1</ele>
        <time>2025-05-25T07:20:01.000Z</time>
      </trkpt>
      <trkpt lat="43.08393" lon="5.90178">
        <ele>5.1</ele>
        <time>2025-05-25T07:20:04.000Z</time>
      </trkpt>
      <trkpt lat="43.08391" lon="5.90174">
        <ele>5.1</ele>
        <time>2025-05-25T07:20:05.000Z</time>
      </trkpt>
      <trkpt lat="43.08389" lon="5.90169">
        <ele>5.1</ele>
        <time>2025-05-25T07:20:06.000Z</time>
      </trkpt>
      <trkpt lat="43.08382" lon="5.90156">
        <ele>5.1</ele>
        <time>2025-05-25T07:20:09.000Z</time>
      </trkpt>
      <trkpt lat="43.08375" lon="5.90144">
        <ele>5.1</ele>
        <time>2025-05-25T07:20:12.000Z</time>
      </trkpt>
      <trkpt lat="43.08372" lon="5.90139">
        <ele>5.1</ele>
        <time>2025-05-25T07:20:13.000Z</time>
      </trkpt>
      <trkpt lat="43.0837" lon="5.90135">
        <ele>5.1</ele>
        <time>2025-05-25T07:20:14.000Z</time>
      </trkpt>
      <trkpt lat="43.08368" lon="5.9013">
        <ele>5</ele>
        <time>2025-05-25T07:20:15.000Z</time>
      </trkpt>
      <trkpt lat="43.08365" lon="5.90126">
        <ele>5</ele>
        <time>2025-05-25T07:20:16.000Z</time>
      </trkpt>
      <trkpt lat="43.08363" lon="5.90122">
        <ele>5</ele>
        <time>2025-05-25T07:20:17.000Z</time>
      </trkpt>
      <trkpt lat="43.08355" lon="5.90109">
        <ele>5</ele>
        <time>2025-05-25T07:20:20.000Z</time>
      </trkpt>
      <trkpt lat="43.08347" lon="5.90096">
        <ele>5</ele>
        <time>2025-05-25T07:20:23.000Z</time>
      </trkpt>
      <trkpt lat="43.0834" lon="5.90084">
        <ele>5</ele>
        <time>2025-05-25T07:20:26.000Z</time>
      </trkpt>
      <trkpt lat="43.08332" lon="5.90072">
        <ele>5</ele>
        <time>2025-05-25T07:20:29.000Z</time>
      </trkpt>
      <trkpt lat="43.08325" lon="5.9006">
        <ele>5</ele>
        <time>2025-05-25T07:20:32.000Z</time>
      </trkpt>
      <trkpt lat="43.08317" lon="5.90049">
        <ele>4.9</ele>
        <time>2025-05-25T07:20:35.000Z</time>
      </trkpt>
      <trkpt lat="43.0831" lon="5.90037">
        <ele>4.9</ele>
        <time>2025-05-25T07:20:38.000Z</time>
      </trkpt>
      <trkpt lat="43.08303" lon="5.90026">
        <ele>4.9</ele>
        <time>2025-05-25T07:20:41.000Z</time>
      </trkpt>
      <trkpt lat="43.08296" lon="5.90014">
        <ele>4.9</ele>
        <time>2025-05-25T07:20:44.000Z</time>
      </trkpt>
      <trkpt lat="43.0829" lon="5.90003">
        <ele>4.9</ele>
        <time>2025-05-25T07:20:47.000Z</time>
      </trkpt>
      <trkpt lat="43.08283" lon="5.89992">
        <ele>4.9</ele>
        <time>2025-05-25T07:20:50.000Z</time>
      </trkpt>
      <trkpt lat="43.08275" lon="5.89981">
        <ele>4.9</ele>
        <time>2025-05-25T07:20:53.000Z</time>
      </trkpt>
      <trkpt lat="43.08268" lon="5.89971">
        <ele>4.9</ele>
        <time>2025-05-25T07:20:56.000Z</time>
      </trkpt>
      <trkpt lat="43.0826" lon="5.89961">
        <ele>4.9</ele>
        <time>2025-05-25T07:20:59.000Z</time>
      </trkpt>
      <trkpt lat="43.08258" lon="5.89957">
        <ele>4.9</ele>
        <time>2025-05-25T07:21:00.000Z</time>
      </trkpt>
      <trkpt lat="43.08255" lon="5.89954">
        <ele>4.9</ele>
        <time>2025-05-25T07:21:01.000Z</time>
      </trkpt>
      <trkpt lat="43.08248" lon="5.89945">
        <ele>4.9</ele>
        <time>2025-05-25T07:21:04.000Z</time>
      </trkpt>
      <trkpt lat="43.08245" lon="5.89942">
        <ele>4.9</ele>
        <time>2025-05-25T07:21:05.000Z</time>
      </trkpt>
      <trkpt lat="43.08242" lon="5.89939">
        <ele>4.9</ele>
        <time>2025-05-25T07:21:06.000Z</time>
      </trkpt>
      <trkpt lat="43.08234" lon="5.8993">
        <ele>4.9</ele>
        <time>2025-05-25T07:21:09.000Z</time>
      </trkpt>
      <trkpt lat="43.08226" lon="5.8992">
        <ele>4.9</ele>
        <time>2025-05-25T07:21:12.000Z</time>
      </trkpt>
      <trkpt lat="43.08224" lon="5.89917">
        <ele>4.9</ele>
        <time>2025-05-25T07:21:13.000Z</time>
      </trkpt>
      <trkpt lat="43.08222" lon="5.89913">
        <ele>4.9</ele>
        <time>2025-05-25T07:21:14.000Z</time>
      </trkpt>
      <trkpt lat="43.08215" lon="5.89902">
        <ele>4.9</ele>
        <time>2025-05-25T07:21:17.000Z</time>
      </trkpt>
      <trkpt lat="43.08213" lon="5.89898">
        <ele>4.9</ele>
        <time>2025-05-25T07:21:18.000Z</time>
      </trkpt>
      <trkpt lat="43.0821" lon="5.89894">
        <ele>4.9</ele>
        <time>2025-05-25T07:21:19.000Z</time>
      </trkpt>
      <trkpt lat="43.08203" lon="5.89884">
        <ele>4.9</ele>
        <time>2025-05-25T07:21:22.000Z</time>
      </trkpt>
      <trkpt lat="43.08201" lon="5.8988">
        <ele>4.9</ele>
        <time>2025-05-25T07:21:23.000Z</time>
      </trkpt>
      <trkpt lat="43.08199" lon="5.89877">
        <ele>4.9</ele>
        <time>2025-05-25T07:21:24.000Z</time>
      </trkpt>
      <trkpt lat="43.08193" lon="5.89866">
        <ele>4.9</ele>
        <time>2025-05-25T07:21:27.000Z</time>
      </trkpt>
      <trkpt lat="43.08187" lon="5.89857">
        <ele>4.9</ele>
        <time>2025-05-25T07:21:30.000Z</time>
      </trkpt>
      <trkpt lat="43.08183" lon="5.89851">
        <ele>4.9</ele>
        <time>2025-05-25T07:21:32.000Z</time>
      </trkpt>
      <trkpt lat="43.08181" lon="5.89848">
        <ele>4.9</ele>
        <time>2025-05-25T07:21:33.000Z</time>
      </trkpt>
      <trkpt lat="43.08178" lon="5.89846">
        <ele>4.9</ele>
        <time>2025-05-25T07:21:34.000Z</time>
      </trkpt>
      <trkpt lat="43.0817" lon="5.89835">
        <ele>4.9</ele>
        <time>2025-05-25T07:21:38.000Z</time>
      </trkpt>
      <trkpt lat="43.08162" lon="5.89825">
        <ele>4.9</ele>
        <time>2025-05-25T07:21:42.000Z</time>
      </trkpt>
      <trkpt lat="43.08154" lon="5.89815">
        <ele>4.9</ele>
        <time>2025-05-25T07:21:46.000Z</time>
      </trkpt>
      <trkpt lat="43.08146" lon="5.89805">
        <ele>4.9</ele>
        <time>2025-05-25T07:21:50.000Z</time>
      </trkpt>
      <trkpt lat="43.08144" lon="5.89802">
        <ele>4.9</ele>
        <time>2025-05-25T07:21:51.000Z</time>
      </trkpt>
      <trkpt lat="43.08137" lon="5.89794">
        <ele>4.9</ele>
        <time>2025-05-25T07:21:55.000Z</time>
      </trkpt>
      <trkpt lat="43.08136" lon="5.89792">
        <ele>4.9</ele>
        <time>2025-05-25T07:21:56.000Z</time>
      </trkpt>
      <trkpt lat="43.08134" lon="5.89789">
        <ele>4.9</ele>
        <time>2025-05-25T07:21:57.000Z</time>
      </trkpt>
      <trkpt lat="43.08126" lon="5.89779">
        <ele>4.9</ele>
        <time>2025-05-25T07:22:01.000Z</time>
      </trkpt>
      <trkpt lat="43.08119" lon="5.89769">
        <ele>4.9</ele>
        <time>2025-05-25T07:22:05.000Z</time>
      </trkpt>
      <trkpt lat="43.08115" lon="5.89764">
        <ele>4.9</ele>
        <time>2025-05-25T07:22:07.000Z</time>
      </trkpt>
      <trkpt lat="43.08113" lon="5.89762">
        <ele>4.9</ele>
        <time>2025-05-25T07:22:08.000Z</time>
      </trkpt>
      <trkpt lat="43.08111" lon="5.89759">
        <ele>4.9</ele>
        <time>2025-05-25T07:22:09.000Z</time>
      </trkpt>
      <trkpt lat="43.08109" lon="5.89757">
        <ele>4.9</ele>
        <time>2025-05-25T07:22:10.000Z</time>
      </trkpt>
      <trkpt lat="43.08107" lon="5.89754">
        <ele>4.9</ele>
        <time>2025-05-25T07:22:11.000Z</time>
      </trkpt>
      <trkpt lat="43.081" lon="5.89744">
        <ele>4.9</ele>
        <time>2025-05-25T07:22:15.000Z</time>
      </trkpt>
      <trkpt lat="43.08094" lon="5.89736">
        <ele>4.9</ele>
        <time>2025-05-25T07:22:19.000Z</time>
      </trkpt>
      <trkpt lat="43.08087" lon="5.8973">
        <ele>4.9</ele>
        <time>2025-05-25T07:22:23.000Z</time>
      </trkpt>
      <trkpt lat="43.08086" lon="5.89728">
        <ele>4.9</ele>
        <time>2025-05-25T07:22:24.000Z</time>
      </trkpt>
      <trkpt lat="43.08084" lon="5.89727">
        <ele>4.9</ele>
        <time>2025-05-25T07:22:25.000Z</time>
      </trkpt>
      <trkpt lat="43.08083" lon="5.89725">
        <ele>4.9</ele>
        <time>2025-05-25T07:22:26.000Z</time>
      </trkpt>
      <trkpt lat="43.08082" lon="5.89724">
        <ele>4.9</ele>
        <time>2025-05-25T07:22:27.000Z</time>
      </trkpt>
      <trkpt lat="43.08076" lon="5.89714">
        <ele>4.9</ele>
        <time>2025-05-25T07:22:33.000Z</time>
      </trkpt>
      <trkpt lat="43.08071" lon="5.89703">
        <ele>4.9</ele>
        <time>2025-05-25T07:22:41.000Z</time>
      </trkpt>
      <trkpt lat="43.0807" lon="5.89699">
        <ele>4.9</ele>
        <time>2025-05-25T07:22:50.000Z</time>
      </trkpt>
      <trkpt lat="43.0807" lon="5.89699">
        <ele>4.9</ele>
        <time>2025-05-25T07:22:51.000Z</time>
      </trkpt>
      <trkpt lat="43.08069" lon="5.89699">
        <ele>4.9</ele>
        <time>2025-05-25T07:22:52.000Z</time>
      </trkpt>
      <trkpt lat="43.08069" lon="5.89699">
        <ele>4.9</ele>
        <time>2025-05-25T07:22:53.000Z</time>
      </trkpt>
      <trkpt lat="43.08069" lon="5.89699">
        <ele>4.9</ele>
        <time>2025-05-25T07:22:54.000Z</time>
      </trkpt>
      <trkpt lat="43.08069" lon="5.89699">
        <ele>4.9</ele>
        <time>2025-05-25T07:22:55.000Z</time>
      </trkpt>
      <trkpt lat="43.08069" lon="5.89699">
        <ele>4.9</ele>
        <time>2025-05-25T07:23:00.000Z</time>
      </trkpt>
      <trkpt lat="43.08069" lon="5.89699">
        <ele>4.9</ele>
        <time>2025-05-25T07:23:01.000Z</time>
      </trkpt>
      <trkpt lat="43.08067" lon="5.89687">
        <ele>4.9</ele>
        <time>2025-05-25T07:23:14.000Z</time>
      </trkpt>
      <trkpt lat="43.08063" lon="5.89675">
        <ele>5</ele>
        <time>2025-05-25T07:23:23.000Z</time>
      </trkpt>
      <trkpt lat="43.08057" lon="5.89665">
        <ele>5</ele>
        <time>2025-05-25T07:23:32.000Z</time>
      </trkpt>
      <trkpt lat="43.08048" lon="5.89668">
        <ele>5</ele>
        <time>2025-05-25T07:23:43.000Z</time>
      </trkpt>
      <trkpt lat="43.08051" lon="5.89655">
        <ele>5.3</ele>
        <time>2025-05-25T07:24:06.000Z</time>
      </trkpt>
      <trkpt lat="43.08055" lon="5.89644">
        <ele>5.4</ele>
        <time>2025-05-25T07:24:16.000Z</time>
      </trkpt>
      <trkpt lat="43.0805" lon="5.89632">
        <ele>5.4</ele>
        <time>2025-05-25T07:24:26.000Z</time>
      </trkpt>
      <trkpt lat="43.08046" lon="5.8962">
        <ele>5.4</ele>
        <time>2025-05-25T07:24:35.000Z</time>
      </trkpt>
      <trkpt lat="43.08041" lon="5.8961">
        <ele>5.4</ele>
        <time>2025-05-25T07:24:44.000Z</time>
      </trkpt>
      <trkpt lat="43.08034" lon="5.89606">
        <ele>5.4</ele>
        <time>2025-05-25T07:24:55.000Z</time>
      </trkpt>
      <trkpt lat="43.08034" lon="5.89606">
        <ele>5.4</ele>
        <time>2025-05-25T07:24:56.000Z</time>
      </trkpt>
      <trkpt lat="43.08034" lon="5.89605">
        <ele>5.4</ele>
        <time>2025-05-25T07:25:00.000Z</time>
      </trkpt>
      <trkpt lat="43.08033" lon="5.89606">
        <ele>5.4</ele>
        <time>2025-05-25T07:25:01.000Z</time>
      </trkpt>
      <trkpt lat="43.08031" lon="5.89607">
        <ele>5.4</ele>
        <time>2025-05-25T07:25:05.000Z</time>
      </trkpt>
      <trkpt lat="43.0803" lon="5.89606">
        <ele>5.4</ele>
        <time>2025-05-25T07:25:06.000Z</time>
      </trkpt>
      <trkpt lat="43.0803" lon="5.89605">
        <ele>5.4</ele>
        <time>2025-05-25T07:25:13.000Z</time>
      </trkpt>
      <trkpt lat="43.0803" lon="5.89605">
        <ele>5.4</ele>
        <time>2025-05-25T07:25:14.000Z</time>
      </trkpt>
      <trkpt lat="43.0803" lon="5.89605">
        <ele>5.4</ele>
        <time>2025-05-25T07:25:15.000Z</time>
      </trkpt>
      <trkpt lat="43.0803" lon="5.89605">
        <ele>5.4</ele>
        <time>2025-05-25T07:25:16.000Z</time>
      </trkpt>
      <trkpt lat="43.08031" lon="5.89604">
        <ele>5.4</ele>
        <time>2025-05-25T07:25:40.000Z</time>
      </trkpt>
      <trkpt lat="43.08031" lon="5.89604">
        <ele>5.4</ele>
        <time>2025-05-25T07:25:41.000Z</time>
      </trkpt>
      <trkpt lat="43.08031" lon="5.89604">
        <ele>5.4</ele>
        <time>2025-05-25T07:25:47.000Z</time>
      </trkpt>
      <trkpt lat="43.08031" lon="5.89604">
        <ele>5.4</ele>
        <time>2025-05-25T07:25:48.000Z</time>
      </trkpt>
      <trkpt lat="43.08031" lon="5.89604">
        <ele>5.4</ele>
        <time>2025-05-25T07:25:49.000Z</time>
      </trkpt>
      <trkpt lat="43.08031" lon="5.89604">
        <ele>5.4</ele>
        <time>2025-05-25T07:26:01.000Z</time>
      </trkpt>
      <trkpt lat="43.08031" lon="5.89604">
        <ele>5.4</ele>
        <time>2025-05-25T07:26:02.000Z</time>
      </trkpt>
      <trkpt lat="43.08023" lon="5.89608">
        <ele>5.4</ele>
        <time>2025-05-25T07:26:19.000Z</time>
      </trkpt>
      <trkpt lat="43.08018" lon="5.8962">
        <ele>5.4</ele>
        <time>2025-05-25T07:26:27.000Z</time>
      </trkpt>
      <trkpt lat="43.08012" lon="5.8963">
        <ele>5.4</ele>
        <time>2025-05-25T07:26:38.000Z</time>
      </trkpt>
      <trkpt lat="43.08012" lon="5.89631">
        <ele>5.4</ele>
        <time>2025-05-25T07:26:45.000Z</time>
      </trkpt>
      <trkpt lat="43.08012" lon="5.89631">
        <ele>5.4</ele>
        <time>2025-05-25T07:26:46.000Z</time>
      </trkpt>
      <trkpt lat="43.08013" lon="5.89631">
        <ele>5.5</ele>
        <time>2025-05-25T07:27:15.000Z</time>
      </trkpt>
      <trkpt lat="43.08013" lon="5.89631">
        <ele>5.5</ele>
        <time>2025-05-25T07:27:16.000Z</time>
      </trkpt>
      <trkpt lat="43.08013" lon="5.89631">
        <ele>5.5</ele>
        <time>2025-05-25T07:27:20.000Z</time>
      </trkpt>
      <trkpt lat="43.08013" lon="5.89631">
        <ele>5.5</ele>
        <time>2025-05-25T07:27:21.000Z</time>
      </trkpt>
      <trkpt lat="43.08013" lon="5.89631">
        <ele>5.5</ele>
        <time>2025-05-25T07:27:22.000Z</time>
      </trkpt>
      <trkpt lat="43.08013" lon="5.8963">
        <ele>5.6</ele>
        <time>2025-05-25T07:27:30.000Z</time>
      </trkpt>
      <trkpt lat="43.08013" lon="5.89629">
        <ele>5.6</ele>
        <time>2025-05-25T07:27:31.000Z</time>
      </trkpt>
      <trkpt lat="43.08013" lon="5.89628">
        <ele>5.6</ele>
        <time>2025-05-25T07:27:32.000Z</time>
      </trkpt>
      <trkpt lat="43.08023" lon="5.89626">
        <ele>5.6</ele>
        <time>2025-05-25T07:27:44.000Z</time>
      </trkpt>
      <trkpt lat="43.08027" lon="5.89615">
        <ele>5.5</ele>
        <time>2025-05-25T07:27:53.000Z</time>
      </trkpt>
      <trkpt lat="43.0803" lon="5.89611">
        <ele>5.5</ele>
        <time>2025-05-25T07:28:02.000Z</time>
      </trkpt>
      <trkpt lat="43.0803" lon="5.89611">
        <ele>5.5</ele>
        <time>2025-05-25T07:28:03.000Z</time>
      </trkpt>
      <trkpt lat="43.08029" lon="5.89611">
        <ele>5.5</ele>
        <time>2025-05-25T07:28:04.000Z</time>
      </trkpt>
      <trkpt lat="43.0803" lon="5.89608">
        <ele>5.5</ele>
        <time>2025-05-25T07:28:25.000Z</time>
      </trkpt>
      <trkpt lat="43.0803" lon="5.89608">
        <ele>5.5</ele>
        <time>2025-05-25T07:28:26.000Z</time>
      </trkpt>
      <trkpt lat="43.0803" lon="5.89608">
        <ele>5.5</ele>
        <time>2025-05-25T07:28:32.000Z</time>
      </trkpt>
      <trkpt lat="43.0803" lon="5.89608">
        <ele>5.5</ele>
        <time>2025-05-25T07:28:33.000Z</time>
      </trkpt>
      <trkpt lat="43.0803" lon="5.89608">
        <ele>5.5</ele>
        <time>2025-05-25T07:28:34.000Z</time>
      </trkpt>
      <trkpt lat="43.0803" lon="5.89607">
        <ele>5.5</ele>
        <time>2025-05-25T07:28:48.000Z</time>
      </trkpt>
      <trkpt lat="43.0803" lon="5.89607">
        <ele>5.5</ele>
        <time>2025-05-25T07:28:49.000Z</time>
      </trkpt>
      <trkpt lat="43.0803" lon="5.89607">
        <ele>5.5</ele>
        <time>2025-05-25T07:28:50.000Z</time>
      </trkpt>
      <trkpt lat="43.0803" lon="5.89607">
        <ele>5.5</ele>
        <time>2025-05-25T07:28:51.000Z</time>
      </trkpt>
      <trkpt lat="43.0803" lon="5.89606">
        <ele>5.5</ele>
        <time>2025-05-25T07:28:52.000Z</time>
      </trkpt>
      <trkpt lat="43.0803" lon="5.89605">
        <ele>5.5</ele>
        <time>2025-05-25T07:28:53.000Z</time>
      </trkpt>
      <trkpt lat="43.08029" lon="5.89604">
        <ele>5.5</ele>
        <time>2025-05-25T07:28:54.000Z</time>
      </trkpt>
      <trkpt lat="43.08028" lon="5.89604">
        <ele>5.5</ele>
        <time>2025-05-25T07:28:55.000Z</time>
      </trkpt>
      <trkpt lat="43.08024" lon="5.89606">
        <ele>5.5</ele>
        <time>2025-05-25T07:29:05.000Z</time>
      </trkpt>
      <trkpt lat="43.08024" lon="5.89606">
        <ele>5.5</ele>
        <time>2025-05-25T07:29:06.000Z</time>
      </trkpt>
      <trkpt lat="43.08024" lon="5.89607">
        <ele>5.5</ele>
        <time>2025-05-25T07:29:07.000Z</time>
      </trkpt>
      <trkpt lat="43.08025" lon="5.89607">
        <ele>5.5</ele>
        <time>2025-05-25T07:29:08.000Z</time>
      </trkpt>
      <trkpt lat="43.08025" lon="5.89607">
        <ele>5.5</ele>
        <time>2025-05-25T07:29:09.000Z</time>
      </trkpt>
      <trkpt lat="43.08025" lon="5.89607">
        <ele>5.5</ele>
        <time>2025-05-25T07:29:10.000Z</time>
      </trkpt>
      <trkpt lat="43.08025" lon="5.89607">
        <ele>5.5</ele>
        <time>2025-05-25T07:29:11.000Z</time>
      </trkpt>
      <trkpt lat="43.08025" lon="5.89607">
        <ele>5.5</ele>
        <time>2025-05-25T07:29:12.000Z</time>
      </trkpt>
      <trkpt lat="43.08025" lon="5.89607">
        <ele>5.5</ele>
        <time>2025-05-25T07:29:20.000Z</time>
      </trkpt>
      <trkpt lat="43.08025" lon="5.89607">
        <ele>5.5</ele>
        <time>2025-05-25T07:29:21.000Z</time>
      </trkpt>
      <trkpt lat="43.08025" lon="5.89607">
        <ele>5.5</ele>
        <time>2025-05-25T07:29:22.000Z</time>
      </trkpt>
      <trkpt lat="43.08025" lon="5.89607">
        <ele>5.4</ele>
        <time>2025-05-25T07:29:23.000Z</time>
      </trkpt>
      <trkpt lat="43.08025" lon="5.89607">
        <ele>5.4</ele>
        <time>2025-05-25T07:29:24.000Z</time>
      </trkpt>
      <trkpt lat="43.08024" lon="5.89607">
        <ele>5.4</ele>
        <time>2025-05-25T07:29:25.000Z</time>
      </trkpt>
      <trkpt lat="43.08024" lon="5.89607">
        <ele>5.4</ele>
        <time>2025-05-25T07:29:26.000Z</time>
      </trkpt>
      <trkpt lat="43.08024" lon="5.89607">
        <ele>5.4</ele>
        <time>2025-05-25T07:29:27.000Z</time>
      </trkpt>
      <trkpt lat="43.08024" lon="5.89607">
        <ele>5.4</ele>
        <time>2025-05-25T07:29:28.000Z</time>
      </trkpt>
      <trkpt lat="43.08024" lon="5.89607">
        <ele>5.4</ele>
        <time>2025-05-25T07:29:29.000Z</time>
      </trkpt>
      <trkpt lat="43.08023" lon="5.89609">
        <ele>5.4</ele>
        <time>2025-05-25T07:29:38.000Z</time>
      </trkpt>
      <trkpt lat="43.08022" lon="5.89609">
        <ele>5.4</ele>
        <time>2025-05-25T07:29:39.000Z</time>
      </trkpt>
      <trkpt lat="43.08022" lon="5.89609">
        <ele>5.4</ele>
        <time>2025-05-25T07:29:40.000Z</time>
      </trkpt>
      <trkpt lat="43.08021" lon="5.89609">
        <ele>5.4</ele>
        <time>2025-05-25T07:29:41.000Z</time>
      </trkpt>
      <trkpt lat="43.08021" lon="5.89609">
        <ele>5.4</ele>
        <time>2025-05-25T07:29:42.000Z</time>
      </trkpt>
      <trkpt lat="43.08021" lon="5.89608">
        <ele>5.4</ele>
        <time>2025-05-25T07:29:43.000Z</time>
      </trkpt>
      <trkpt lat="43.0802" lon="5.89608">
        <ele>5.4</ele>
        <time>2025-05-25T07:29:44.000Z</time>
      </trkpt>
      <trkpt lat="43.08011" lon="5.8961">
        <ele>5.4</ele>
        <time>2025-05-25T07:29:57.000Z</time>
      </trkpt>
      <trkpt lat="43.08002" lon="5.89612">
        <ele>5.5</ele>
        <time>2025-05-25T07:30:08.000Z</time>
      </trkpt>
      <trkpt lat="43.07993" lon="5.89612">
        <ele>5.5</ele>
        <time>2025-05-25T07:30:17.000Z</time>
      </trkpt>
      <trkpt lat="43.07984" lon="5.89615">
        <ele>5.5</ele>
        <time>2025-05-25T07:30:25.000Z</time>
      </trkpt>
      <trkpt lat="43.07974" lon="5.89615">
        <ele>5.6</ele>
        <time>2025-05-25T07:30:35.000Z</time>
      </trkpt>
      <trkpt lat="43.07964" lon="5.89616">
        <ele>5.7</ele>
        <time>2025-05-25T07:30:44.000Z</time>
      </trkpt>
      <trkpt lat="43.07956" lon="5.8962">
        <ele>5.7</ele>
        <time>2025-05-25T07:30:54.000Z</time>
      </trkpt>
      <trkpt lat="43.07952" lon="5.89631">
        <ele>5.8</ele>
        <time>2025-05-25T07:31:06.000Z</time>
      </trkpt>
      <trkpt lat="43.07954" lon="5.89643">
        <ele>5.9</ele>
        <time>2025-05-25T07:31:14.000Z</time>
      </trkpt>
      <trkpt lat="43.07954" lon="5.89656">
        <ele>6</ele>
        <time>2025-05-25T07:31:24.000Z</time>
      </trkpt>
      <trkpt lat="43.07947" lon="5.89665">
        <ele>6</ele>
        <time>2025-05-25T07:31:34.000Z</time>
      </trkpt>
      <trkpt lat="43.07941" lon="5.89675">
        <ele>6.1</ele>
        <time>2025-05-25T07:31:44.000Z</time>
      </trkpt>
      <trkpt lat="43.07947" lon="5.89684">
        <ele>6.1</ele>
        <time>2025-05-25T07:31:52.000Z</time>
      </trkpt>
      <trkpt lat="43.07954" lon="5.89693">
        <ele>6.1</ele>
        <time>2025-05-25T07:32:01.000Z</time>
      </trkpt>
      <trkpt lat="43.07954" lon="5.89707">
        <ele>6.1</ele>
        <time>2025-05-25T07:32:10.000Z</time>
      </trkpt>
      <trkpt lat="43.0795" lon="5.89719">
        <ele>6.1</ele>
        <time>2025-05-25T07:32:19.000Z</time>
      </trkpt>
      <trkpt lat="43.07944" lon="5.89727">
        <ele>6.1</ele>
        <time>2025-05-25T07:32:37.000Z</time>
      </trkpt>
      <trkpt lat="43.07944" lon="5.89727">
        <ele>6.1</ele>
        <time>2025-05-25T07:32:38.000Z</time>
      </trkpt>
      <trkpt lat="43.07944" lon="5.89727">
        <ele>6.1</ele>
        <time>2025-05-25T07:32:39.000Z</time>
      </trkpt>
      <trkpt lat="43.07942" lon="5.89728">
        <ele>6.1</ele>
        <time>2025-05-25T07:32:46.000Z</time>
      </trkpt>
      <trkpt lat="43.07941" lon="5.89728">
        <ele>6.1</ele>
        <time>2025-05-25T07:32:47.000Z</time>
      </trkpt>
      <trkpt lat="43.07932" lon="5.89731">
        <ele>6.1</ele>
        <time>2025-05-25T07:33:02.000Z</time>
      </trkpt>
      <trkpt lat="43.07927" lon="5.89721">
        <ele>6.1</ele>
        <time>2025-05-25T07:33:13.000Z</time>
      </trkpt>
      <trkpt lat="43.07918" lon="5.89718">
        <ele>6.1</ele>
        <time>2025-05-25T07:33:22.000Z</time>
      </trkpt>
      <trkpt lat="43.07908" lon="5.89716">
        <ele>6.1</ele>
        <time>2025-05-25T07:33:31.000Z</time>
      </trkpt>
      <trkpt lat="43.07898" lon="5.89715">
        <ele>6.1</ele>
        <time>2025-05-25T07:33:40.000Z</time>
      </trkpt>
      <trkpt lat="43.07889" lon="5.89713">
        <ele>6.1</ele>
        <time>2025-05-25T07:33:49.000Z</time>
      </trkpt>
      <trkpt lat="43.07879" lon="5.89716">
        <ele>6.1</ele>
        <time>2025-05-25T07:33:57.000Z</time>
      </trkpt>
      <trkpt lat="43.0787" lon="5.89722">
        <ele>6.1</ele>
        <time>2025-05-25T07:34:06.000Z</time>
      </trkpt>
      <trkpt lat="43.07866" lon="5.89735">
        <ele>6.1</ele>
        <time>2025-05-25T07:34:14.000Z</time>
      </trkpt>
      <trkpt lat="43.07865" lon="5.89748">
        <ele>6.1</ele>
        <time>2025-05-25T07:34:22.000Z</time>
      </trkpt>
      <trkpt lat="43.07863" lon="5.89761">
        <ele>6.1</ele>
        <time>2025-05-25T07:34:30.000Z</time>
      </trkpt>
      <trkpt lat="43.07862" lon="5.89774">
        <ele>6.1</ele>
        <time>2025-05-25T07:34:38.000Z</time>
      </trkpt>
      <trkpt lat="43.07861" lon="5.89786">
        <ele>6.1</ele>
        <time>2025-05-25T07:34:46.000Z</time>
      </trkpt>
      <trkpt lat="43.07859" lon="5.89799">
        <ele>6.1</ele>
        <time>2025-05-25T07:34:54.000Z</time>
      </trkpt>
      <trkpt lat="43.07857" lon="5.89812">
        <ele>6.1</ele>
        <time>2025-05-25T07:35:03.000Z</time>
      </trkpt>
      <trkpt lat="43.0785" lon="5.89819">
        <ele>6.1</ele>
        <time>2025-05-25T07:35:15.000Z</time>
      </trkpt>
      <trkpt lat="43.07841" lon="5.89824">
        <ele>6.1</ele>
        <time>2025-05-25T07:35:24.000Z</time>
      </trkpt>
      <trkpt lat="43.07832" lon="5.89828">
        <ele>6.1</ele>
        <time>2025-05-25T07:35:32.000Z</time>
      </trkpt>
      <trkpt lat="43.07822" lon="5.89831">
        <ele>6.1</ele>
        <time>2025-05-25T07:35:40.000Z</time>
      </trkpt>
      <trkpt lat="43.07814" lon="5.89838">
        <ele>6.1</ele>
        <time>2025-05-25T07:35:49.000Z</time>
      </trkpt>
      <trkpt lat="43.07805" lon="5.89839">
        <ele>6.1</ele>
        <time>2025-05-25T07:35:58.000Z</time>
      </trkpt>
      <trkpt lat="43.07796" lon="5.89839">
        <ele>6</ele>
        <time>2025-05-25T07:36:08.000Z</time>
      </trkpt>
      <trkpt lat="43.07787" lon="5.89843">
        <ele>6</ele>
        <time>2025-05-25T07:36:18.000Z</time>
      </trkpt>
      <trkpt lat="43.07787" lon="5.89844">
        <ele>6</ele>
        <time>2025-05-25T07:36:22.000Z</time>
      </trkpt>
      <trkpt lat="43.07787" lon="5.89844">
        <ele>6</ele>
        <time>2025-05-25T07:36:23.000Z</time>
      </trkpt>
      <trkpt lat="43.07787" lon="5.89844">
        <ele>6</ele>
        <time>2025-05-25T07:36:24.000Z</time>
      </trkpt>
      <trkpt lat="43.07787" lon="5.89844">
        <ele>6</ele>
        <time>2025-05-25T07:36:25.000Z</time>
      </trkpt>
      <trkpt lat="43.07786" lon="5.89844">
        <ele>6</ele>
        <time>2025-05-25T07:36:26.000Z</time>
      </trkpt>
      <trkpt lat="43.07786" lon="5.89844">
        <ele>6</ele>
        <time>2025-05-25T07:36:33.000Z</time>
      </trkpt>
      <trkpt lat="43.07786" lon="5.89844">
        <ele>6</ele>
        <time>2025-05-25T07:36:34.000Z</time>
      </trkpt>
      <trkpt lat="43.07786" lon="5.89844">
        <ele>6</ele>
        <time>2025-05-25T07:36:35.000Z</time>
      </trkpt>
      <trkpt lat="43.07785" lon="5.89845">
        <ele>6</ele>
        <time>2025-05-25T07:36:38.000Z</time>
      </trkpt>
      <trkpt lat="43.07785" lon="5.89845">
        <ele>6</ele>
        <time>2025-05-25T07:36:39.000Z</time>
      </trkpt>
      <trkpt lat="43.07779" lon="5.89854">
        <ele>6</ele>
        <time>2025-05-25T07:36:55.000Z</time>
      </trkpt>
      <trkpt lat="43.07776" lon="5.89855">
        <ele>6</ele>
        <time>2025-05-25T07:37:05.000Z</time>
      </trkpt>
      <trkpt lat="43.07776" lon="5.89855">
        <ele>6</ele>
        <time>2025-05-25T07:37:06.000Z</time>
      </trkpt>
      <trkpt lat="43.07776" lon="5.89855">
        <ele>6</ele>
        <time>2025-05-25T07:37:10.000Z</time>
      </trkpt>
      <trkpt lat="43.07776" lon="5.89855">
        <ele>6</ele>
        <time>2025-05-25T07:37:11.000Z</time>
      </trkpt>
      <trkpt lat="43.07776" lon="5.89855">
        <ele>6</ele>
        <time>2025-05-25T07:37:12.000Z</time>
      </trkpt>
      <trkpt lat="43.07776" lon="5.89855">
        <ele>6</ele>
        <time>2025-05-25T07:37:13.000Z</time>
      </trkpt>
      <trkpt lat="43.07776" lon="5.89855">
        <ele>6</ele>
        <time>2025-05-25T07:37:14.000Z</time>
      </trkpt>
      <trkpt lat="43.07775" lon="5.89855">
        <ele>6</ele>
        <time>2025-05-25T07:37:15.000Z</time>
      </trkpt>
      <trkpt lat="43.07774" lon="5.89855">
        <ele>6</ele>
        <time>2025-05-25T07:37:16.000Z</time>
      </trkpt>
      <trkpt lat="43.07764" lon="5.89857">
        <ele>6</ele>
        <time>2025-05-25T07:37:27.000Z</time>
      </trkpt>
      <trkpt lat="43.07755" lon="5.89858">
        <ele>6</ele>
        <time>2025-05-25T07:37:38.000Z</time>
      </trkpt>
      <trkpt lat="43.07747" lon="5.89864">
        <ele>6</ele>
        <time>2025-05-25T07:37:46.000Z</time>
      </trkpt>
      <trkpt lat="43.07738" lon="5.8987">
        <ele>5.9</ele>
        <time>2025-05-25T07:37:55.000Z</time>
      </trkpt>
      <trkpt lat="43.0773" lon="5.89877">
        <ele>5.9</ele>
        <time>2025-05-25T07:38:04.000Z</time>
      </trkpt>
      <trkpt lat="43.07723" lon="5.89885">
        <ele>5.9</ele>
        <time>2025-05-25T07:38:13.000Z</time>
      </trkpt>
      <trkpt lat="43.07717" lon="5.89896">
        <ele>6</ele>
        <time>2025-05-25T07:38:24.000Z</time>
      </trkpt>
      <trkpt lat="43.07709" lon="5.89904">
        <ele>6</ele>
        <time>2025-05-25T07:38:35.000Z</time>
      </trkpt>
      <trkpt lat="43.077" lon="5.8991">
        <ele>6</ele>
        <time>2025-05-25T07:38:44.000Z</time>
      </trkpt>
      <trkpt lat="43.07693" lon="5.89917">
        <ele>6</ele>
        <time>2025-05-25T07:38:52.000Z</time>
      </trkpt>
      <trkpt lat="43.07685" lon="5.89923">
        <ele>5.9</ele>
        <time>2025-05-25T07:39:01.000Z</time>
      </trkpt>
      <trkpt lat="43.07676" lon="5.8993">
        <ele>5.9</ele>
        <time>2025-05-25T07:39:10.000Z</time>
      </trkpt>
      <trkpt lat="43.07667" lon="5.89933">
        <ele>5.8</ele>
        <time>2025-05-25T07:39:19.000Z</time>
      </trkpt>
      <trkpt lat="43.07657" lon="5.89936">
        <ele>5.7</ele>
        <time>2025-05-25T07:39:28.000Z</time>
      </trkpt>
      <trkpt lat="43.07648" lon="5.89942">
        <ele>5.6</ele>
        <time>2025-05-25T07:39:38.000Z</time>
      </trkpt>
      <trkpt lat="43.0764" lon="5.89948">
        <ele>5.5</ele>
        <time>2025-05-25T07:39:48.000Z</time>
      </trkpt>
      <trkpt lat="43.07631" lon="5.89953">
        <ele>5.5</ele>
        <time>2025-05-25T07:39:59.000Z</time>
      </trkpt>
      <trkpt lat="43.07622" lon="5.89951">
        <ele>5.4</ele>
        <time>2025-05-25T07:40:10.000Z</time>
      </trkpt>
      <trkpt lat="43.07612" lon="5.89954">
        <ele>5.3</ele>
        <time>2025-05-25T07:40:21.000Z</time>
      </trkpt>
      <trkpt lat="43.07603" lon="5.89955">
        <ele>5.3</ele>
        <time>2025-05-25T07:40:30.000Z</time>
      </trkpt>
      <trkpt lat="43.07593" lon="5.89956">
        <ele>5.2</ele>
        <time>2025-05-25T07:40:41.000Z</time>
      </trkpt>
      <trkpt lat="43.07583" lon="5.89955">
        <ele>5.2</ele>
        <time>2025-05-25T07:40:50.000Z</time>
      </trkpt>
      <trkpt lat="43.07573" lon="5.89953">
        <ele>5.2</ele>
        <time>2025-05-25T07:41:00.000Z</time>
      </trkpt>
      <trkpt lat="43.07564" lon="5.89953">
        <ele>5.1</ele>
        <time>2025-05-25T07:41:09.000Z</time>
      </trkpt>
      <trkpt lat="43.07554" lon="5.89952">
        <ele>5.1</ele>
        <time>2025-05-25T07:41:18.000Z</time>
      </trkpt>
      <trkpt lat="43.07545" lon="5.8995">
        <ele>5.1</ele>
        <time>2025-05-25T07:41:27.000Z</time>
      </trkpt>
      <trkpt lat="43.07536" lon="5.89949">
        <ele>5.2</ele>
        <time>2025-05-25T07:41:35.000Z</time>
      </trkpt>
      <trkpt lat="43.07526" lon="5.89948">
        <ele>5.2</ele>
        <time>2025-05-25T07:41:44.000Z</time>
      </trkpt>
      <trkpt lat="43.07517" lon="5.89947">
        <ele>5.2</ele>
        <time>2025-05-25T07:41:54.000Z</time>
      </trkpt>
      <trkpt lat="43.07508" lon="5.89942">
        <ele>5.2</ele>
        <time>2025-05-25T07:42:04.000Z</time>
      </trkpt>
      <trkpt lat="43.07498" lon="5.89939">
        <ele>5.3</ele>
        <time>2025-05-25T07:42:16.000Z</time>
      </trkpt>
      <trkpt lat="43.07489" lon="5.89934">
        <ele>5.4</ele>
        <time>2025-05-25T07:42:24.000Z</time>
      </trkpt>
      <trkpt lat="43.0748" lon="5.89929">
        <ele>5.6</ele>
        <time>2025-05-25T07:42:35.000Z</time>
      </trkpt>
      <trkpt lat="43.07471" lon="5.89925">
        <ele>5.6</ele>
        <time>2025-05-25T07:42:44.000Z</time>
      </trkpt>
      <trkpt lat="43.07462" lon="5.8992">
        <ele>5.7</ele>
        <time>2025-05-25T07:42:53.000Z</time>
      </trkpt>
      <trkpt lat="43.07453" lon="5.89914">
        <ele>5.6</ele>
        <time>2025-05-25T07:43:02.000Z</time>
      </trkpt>
      <trkpt lat="43.07444" lon="5.89916">
        <ele>5.6</ele>
        <time>2025-05-25T07:43:09.000Z</time>
      </trkpt>
      <trkpt lat="43.07435" lon="5.89919">
        <ele>5.5</ele>
        <time>2025-05-25T07:43:17.000Z</time>
      </trkpt>
      <trkpt lat="43.07426" lon="5.8992">
        <ele>5.4</ele>
        <time>2025-05-25T07:43:25.000Z</time>
      </trkpt>
      <trkpt lat="43.07417" lon="5.89923">
        <ele>5.4</ele>
        <time>2025-05-25T07:43:34.000Z</time>
      </trkpt>
      <trkpt lat="43.07412" lon="5.89924">
        <ele>5.4</ele>
        <time>2025-05-25T07:43:50.000Z</time>
      </trkpt>
      <trkpt lat="43.07412" lon="5.89925">
        <ele>5.4</ele>
        <time>2025-05-25T07:43:51.000Z</time>
      </trkpt>
      <trkpt lat="43.07412" lon="5.89926">
        <ele>5.4</ele>
        <time>2025-05-25T07:43:52.000Z</time>
      </trkpt>
      <trkpt lat="43.07413" lon="5.89927">
        <ele>5.4</ele>
        <time>2025-05-25T07:43:53.000Z</time>
      </trkpt>
      <trkpt lat="43.07413" lon="5.89927">
        <ele>5.4</ele>
        <time>2025-05-25T07:43:54.000Z</time>
      </trkpt>
      <trkpt lat="43.07413" lon="5.89928">
        <ele>5.4</ele>
        <time>2025-05-25T07:43:57.000Z</time>
      </trkpt>
      <trkpt lat="43.07412" lon="5.89927">
        <ele>5.4</ele>
        <time>2025-05-25T07:43:58.000Z</time>
      </trkpt>
      <trkpt lat="43.07412" lon="5.89927">
        <ele>5.4</ele>
        <time>2025-05-25T07:43:59.000Z</time>
      </trkpt>
      <trkpt lat="43.07412" lon="5.89927">
        <ele>5.4</ele>
        <time>2025-05-25T07:44:00.000Z</time>
      </trkpt>
      <trkpt lat="43.07412" lon="5.89927">
        <ele>5.4</ele>
        <time>2025-05-25T07:44:01.000Z</time>
      </trkpt>
      <trkpt lat="43.07412" lon="5.89927">
        <ele>5.4</ele>
        <time>2025-05-25T07:44:02.000Z</time>
      </trkpt>
      <trkpt lat="43.07412" lon="5.89927">
        <ele>5.4</ele>
        <time>2025-05-25T07:44:03.000Z</time>
      </trkpt>
      <trkpt lat="43.07412" lon="5.89927">
        <ele>5.4</ele>
        <time>2025-05-25T07:44:04.000Z</time>
      </trkpt>
      <trkpt lat="43.07413" lon="5.89927">
        <ele>5.3</ele>
        <time>2025-05-25T07:44:15.000Z</time>
      </trkpt>
      <trkpt lat="43.07413" lon="5.89927">
        <ele>5.3</ele>
        <time>2025-05-25T07:44:16.000Z</time>
      </trkpt>
      <trkpt lat="43.07413" lon="5.89927">
        <ele>5.3</ele>
        <time>2025-05-25T07:44:17.000Z</time>
      </trkpt>
      <trkpt lat="43.07413" lon="5.89927">
        <ele>5.3</ele>
        <time>2025-05-25T07:44:18.000Z</time>
      </trkpt>
      <trkpt lat="43.07413" lon="5.89927">
        <ele>5.3</ele>
        <time>2025-05-25T07:44:19.000Z</time>
      </trkpt>
      <trkpt lat="43.07413" lon="5.89927">
        <ele>5.3</ele>
        <time>2025-05-25T07:44:20.000Z</time>
      </trkpt>
      <trkpt lat="43.07412" lon="5.89929">
        <ele>5.3</ele>
        <time>2025-05-25T07:44:48.000Z</time>
      </trkpt>
      <trkpt lat="43.07412" lon="5.89928">
        <ele>5.3</ele>
        <time>2025-05-25T07:44:49.000Z</time>
      </trkpt>
      <trkpt lat="43.07413" lon="5.89928">
        <ele>5.3</ele>
        <time>2025-05-25T07:44:55.000Z</time>
      </trkpt>
      <trkpt lat="43.07413" lon="5.89928">
        <ele>5.3</ele>
        <time>2025-05-25T07:44:56.000Z</time>
      </trkpt>
      <trkpt lat="43.07413" lon="5.89928">
        <ele>5.3</ele>
        <time>2025-05-25T07:45:00.000Z</time>
      </trkpt>
      <trkpt lat="43.07413" lon="5.89928">
        <ele>5.3</ele>
        <time>2025-05-25T07:45:01.000Z</time>
      </trkpt>
      <trkpt lat="43.07413" lon="5.89928">
        <ele>5.3</ele>
        <time>2025-05-25T07:45:05.000Z</time>
      </trkpt>
      <trkpt lat="43.07413" lon="5.89928">
        <ele>5.3</ele>
        <time>2025-05-25T07:45:06.000Z</time>
      </trkpt>
      <trkpt lat="43.07412" lon="5.8993">
        <ele>5.3</ele>
        <time>2025-05-25T07:45:51.000Z</time>
      </trkpt>
      <trkpt lat="43.07411" lon="5.89931">
        <ele>5.3</ele>
        <time>2025-05-25T07:45:52.000Z</time>
      </trkpt>
      <trkpt lat="43.0741" lon="5.89937">
        <ele>5.3</ele>
        <time>2025-05-25T07:46:00.000Z</time>
      </trkpt>
      <trkpt lat="43.0741" lon="5.89937">
        <ele>5.3</ele>
        <time>2025-05-25T07:46:01.000Z</time>
      </trkpt>
      <trkpt lat="43.0741" lon="5.89937">
        <ele>5.3</ele>
        <time>2025-05-25T07:46:08.000Z</time>
      </trkpt>
      <trkpt lat="43.07409" lon="5.89937">
        <ele>5.3</ele>
        <time>2025-05-25T07:46:09.000Z</time>
      </trkpt>
      <trkpt lat="43.07409" lon="5.89938">
        <ele>5.3</ele>
        <time>2025-05-25T07:46:10.000Z</time>
      </trkpt>
      <trkpt lat="43.07403" lon="5.89947">
        <ele>5.4</ele>
        <time>2025-05-25T07:46:24.000Z</time>
      </trkpt>
      <trkpt lat="43.07411" lon="5.89954">
        <ele>8.4</ele>
        <time>2025-05-25T07:46:50.000Z</time>
      </trkpt>
      <trkpt lat="43.07413" lon="5.89967">
        <ele>12.6</ele>
        <time>2025-05-25T07:47:09.000Z</time>
      </trkpt>
      <trkpt lat="43.07408" lon="5.89978">
        <ele>13.9</ele>
        <time>2025-05-25T07:47:20.000Z</time>
      </trkpt>
      <trkpt lat="43.07408" lon="5.89991">
        <ele>15</ele>
        <time>2025-05-25T07:47:34.000Z</time>
      </trkpt>
      <trkpt lat="43.07409" lon="5.90005">
        <ele>16.4</ele>
        <time>2025-05-25T07:47:44.000Z</time>
      </trkpt>
      <trkpt lat="43.07409" lon="5.90018">
        <ele>17.1</ele>
        <time>2025-05-25T07:47:58.000Z</time>
      </trkpt>
      <trkpt lat="43.0741" lon="5.9003">
        <ele>19.6</ele>
        <time>2025-05-25T07:48:26.000Z</time>
      </trkpt>
      <trkpt lat="43.07402" lon="5.90037">
        <ele>22.1</ele>
        <time>2025-05-25T07:48:45.000Z</time>
      </trkpt>
      <trkpt lat="43.07397" lon="5.90047">
        <ele>22.5</ele>
        <time>2025-05-25T07:48:53.000Z</time>
      </trkpt>
      <trkpt lat="43.07393" lon="5.90058">
        <ele>22.6</ele>
        <time>2025-05-25T07:49:01.000Z</time>
      </trkpt>
      <trkpt lat="43.07388" lon="5.9007">
        <ele>22.7</ele>
        <time>2025-05-25T07:49:08.000Z</time>
      </trkpt>
      <trkpt lat="43.07385" lon="5.90082">
        <ele>22.6</ele>
        <time>2025-05-25T07:49:17.000Z</time>
      </trkpt>
      <trkpt lat="43.07383" lon="5.90094">
        <ele>22.6</ele>
        <time>2025-05-25T07:49:25.000Z</time>
      </trkpt>
      <trkpt lat="43.07378" lon="5.90106">
        <ele>22.7</ele>
        <time>2025-05-25T07:49:35.000Z</time>
      </trkpt>
      <trkpt lat="43.07374" lon="5.90118">
        <ele>22.7</ele>
        <time>2025-05-25T07:49:43.000Z</time>
      </trkpt>
      <trkpt lat="43.07371" lon="5.90131">
        <ele>22.7</ele>
        <time>2025-05-25T07:49:51.000Z</time>
      </trkpt>
      <trkpt lat="43.07371" lon="5.90133">
        <ele>22.7</ele>
        <time>2025-05-25T07:49:58.000Z</time>
      </trkpt>
      <trkpt lat="43.07371" lon="5.90133">
        <ele>22.7</ele>
        <time>2025-05-25T07:49:59.000Z</time>
      </trkpt>
      <trkpt lat="43.07371" lon="5.90133">
        <ele>22.7</ele>
        <time>2025-05-25T07:50:00.000Z</time>
      </trkpt>
      <trkpt lat="43.07371" lon="5.90134">
        <ele>22.7</ele>
        <time>2025-05-25T07:50:01.000Z</time>
      </trkpt>
      <trkpt lat="43.07369" lon="5.90146">
        <ele>22.7</ele>
        <time>2025-05-25T07:50:08.000Z</time>
      </trkpt>
      <trkpt lat="43.07368" lon="5.90159">
        <ele>22.7</ele>
        <time>2025-05-25T07:50:18.000Z</time>
      </trkpt>
      <trkpt lat="43.07371" lon="5.90172">
        <ele>22.7</ele>
        <time>2025-05-25T07:50:27.000Z</time>
      </trkpt>
      <trkpt lat="43.07374" lon="5.90184">
        <ele>22.7</ele>
        <time>2025-05-25T07:50:35.000Z</time>
      </trkpt>
      <trkpt lat="43.07377" lon="5.90195">
        <ele>22.7</ele>
        <time>2025-05-25T07:50:42.000Z</time>
      </trkpt>
      <trkpt lat="43.07379" lon="5.90207">
        <ele>22.7</ele>
        <time>2025-05-25T07:50:48.000Z</time>
      </trkpt>
      <trkpt lat="43.07382" lon="5.9022">
        <ele>22.6</ele>
        <time>2025-05-25T07:50:55.000Z</time>
      </trkpt>
      <trkpt lat="43.07385" lon="5.90233">
        <ele>22.6</ele>
        <time>2025-05-25T07:51:03.000Z</time>
      </trkpt>
      <trkpt lat="43.07387" lon="5.90246">
        <ele>22.6</ele>
        <time>2025-05-25T07:51:13.000Z</time>
      </trkpt>
      <trkpt lat="43.07388" lon="5.90259">
        <ele>22.6</ele>
        <time>2025-05-25T07:51:25.000Z</time>
      </trkpt>
      <trkpt lat="43.07389" lon="5.90272">
        <ele>22.5</ele>
        <time>2025-05-25T07:51:36.000Z</time>
      </trkpt>
      <trkpt lat="43.07396" lon="5.90283">
        <ele>22.3</ele>
        <time>2025-05-25T07:51:47.000Z</time>
      </trkpt>
      <trkpt lat="43.07395" lon="5.90296">
        <ele>22</ele>
        <time>2025-05-25T07:51:55.000Z</time>
      </trkpt>
      <trkpt lat="43.07396" lon="5.9031">
        <ele>21.3</ele>
        <time>2025-05-25T07:52:03.000Z</time>
      </trkpt>
      <trkpt lat="43.07396" lon="5.90323">
        <ele>20.9</ele>
        <time>2025-05-25T07:52:10.000Z</time>
      </trkpt>
      <trkpt lat="43.07394" lon="5.90336">
        <ele>20.3</ele>
        <time>2025-05-25T07:52:23.000Z</time>
      </trkpt>
      <trkpt lat="43.07385" lon="5.90335">
        <ele>18.3</ele>
        <time>2025-05-25T07:52:40.000Z</time>
      </trkpt>
      <trkpt lat="43.07377" lon="5.90343">
        <ele>17.4</ele>
        <time>2025-05-25T07:52:49.000Z</time>
      </trkpt>
      <trkpt lat="43.07373" lon="5.90354">
        <ele>16.6</ele>
        <time>2025-05-25T07:53:03.000Z</time>
      </trkpt>
      <trkpt lat="43.07367" lon="5.90363">
        <ele>15.8</ele>
        <time>2025-05-25T07:53:12.000Z</time>
      </trkpt>
      <trkpt lat="43.07361" lon="5.90373">
        <ele>15.7</ele>
        <time>2025-05-25T07:53:20.000Z</time>
      </trkpt>
      <trkpt lat="43.07359" lon="5.90386">
        <ele>15.6</ele>
        <time>2025-05-25T07:53:28.000Z</time>
      </trkpt>
      <trkpt lat="43.07354" lon="5.90396">
        <ele>15</ele>
        <time>2025-05-25T07:53:41.000Z</time>
      </trkpt>
      <trkpt lat="43.07348" lon="5.904">
        <ele>14.4</ele>
        <time>2025-05-25T07:53:52.000Z</time>
      </trkpt>
      <trkpt lat="43.07348" lon="5.904">
        <ele>14.3</ele>
        <time>2025-05-25T07:53:53.000Z</time>
      </trkpt>
      <trkpt lat="43.07348" lon="5.904">
        <ele>14.3</ele>
        <time>2025-05-25T07:53:54.000Z</time>
      </trkpt>
      <trkpt lat="43.07348" lon="5.904">
        <ele>13.9</ele>
        <time>2025-05-25T07:54:05.000Z</time>
      </trkpt>
      <trkpt lat="43.07348" lon="5.904">
        <ele>13.9</ele>
        <time>2025-05-25T07:54:06.000Z</time>
      </trkpt>
      <trkpt lat="43.07348" lon="5.904">
        <ele>13.9</ele>
        <time>2025-05-25T07:54:07.000Z</time>
      </trkpt>
      <trkpt lat="43.07348" lon="5.904">
        <ele>13.9</ele>
        <time>2025-05-25T07:54:08.000Z</time>
      </trkpt>
      <trkpt lat="43.07348" lon="5.904">
        <ele>13.8</ele>
        <time>2025-05-25T07:54:09.000Z</time>
      </trkpt>
      <trkpt lat="43.07349" lon="5.904">
        <ele>13.8</ele>
        <time>2025-05-25T07:54:12.000Z</time>
      </trkpt>
      <trkpt lat="43.07349" lon="5.90401">
        <ele>13.8</ele>
        <time>2025-05-25T07:54:13.000Z</time>
      </trkpt>
      <trkpt lat="43.07349" lon="5.90401">
        <ele>13.8</ele>
        <time>2025-05-25T07:54:14.000Z</time>
      </trkpt>
      <trkpt lat="43.07349" lon="5.90401">
        <ele>13.8</ele>
        <time>2025-05-25T07:54:15.000Z</time>
      </trkpt>
      <trkpt lat="43.07349" lon="5.90401">
        <ele>13.8</ele>
        <time>2025-05-25T07:54:16.000Z</time>
      </trkpt>
      <trkpt lat="43.07349" lon="5.90401">
        <ele>13.8</ele>
        <time>2025-05-25T07:54:17.000Z</time>
      </trkpt>
      <trkpt lat="43.07349" lon="5.90402">
        <ele>13.7</ele>
        <time>2025-05-25T07:54:22.000Z</time>
      </trkpt>
      <trkpt lat="43.0735" lon="5.90403">
        <ele>13.7</ele>
        <time>2025-05-25T07:54:23.000Z</time>
      </trkpt>
      <trkpt lat="43.0735" lon="5.90404">
        <ele>13.7</ele>
        <time>2025-05-25T07:54:24.000Z</time>
      </trkpt>
      <trkpt lat="43.07353" lon="5.90416">
        <ele>13.6</ele>
        <time>2025-05-25T07:54:36.000Z</time>
      </trkpt>
      <trkpt lat="43.07349" lon="5.90428">
        <ele>13.4</ele>
        <time>2025-05-25T07:54:45.000Z</time>
      </trkpt>
      <trkpt lat="43.07351" lon="5.9044">
        <ele>12.3</ele>
        <time>2025-05-25T07:55:00.000Z</time>
      </trkpt>
      <trkpt lat="43.07345" lon="5.9045">
        <ele>12.2</ele>
        <time>2025-05-25T07:55:10.000Z</time>
      </trkpt>
      <trkpt lat="43.07337" lon="5.90458">
        <ele>12.2</ele>
        <time>2025-05-25T07:55:21.000Z</time>
      </trkpt>
      <trkpt lat="43.07336" lon="5.90472">
        <ele>12</ele>
        <time>2025-05-25T07:55:29.000Z</time>
      </trkpt>
      <trkpt lat="43.07335" lon="5.90485">
        <ele>11.9</ele>
        <time>2025-05-25T07:55:40.000Z</time>
      </trkpt>
      <trkpt lat="43.07333" lon="5.90498">
        <ele>11.9</ele>
        <time>2025-05-25T07:55:51.000Z</time>
      </trkpt>
      <trkpt lat="43.07332" lon="5.90511">
        <ele>11.9</ele>
        <time>2025-05-25T07:55:59.000Z</time>
      </trkpt>
      <trkpt lat="43.0733" lon="5.90522">
        <ele>10.8</ele>
        <time>2025-05-25T07:56:17.000Z</time>
      </trkpt>
      <trkpt lat="43.0733" lon="5.90522">
        <ele>10.1</ele>
        <time>2025-05-25T07:56:18.000Z</time>
      </trkpt>
      <trkpt lat="43.0733" lon="5.90522">
        <ele>9</ele>
        <time>2025-05-25T07:56:19.000Z</time>
      </trkpt>
      <trkpt lat="43.07329" lon="5.90521">
        <ele>13.1</ele>
        <time>2025-05-25T07:56:25.000Z</time>
      </trkpt>
      <trkpt lat="43.07329" lon="5.90522">
        <ele>12.5</ele>
        <time>2025-05-25T07:56:26.000Z</time>
      </trkpt>
      <trkpt lat="43.07327" lon="5.90528">
        <ele>10.5</ele>
        <time>2025-05-25T07:56:38.000Z</time>
      </trkpt>
      <trkpt lat="43.07327" lon="5.90528">
        <ele>10.5</ele>
        <time>2025-05-25T07:56:39.000Z</time>
      </trkpt>
      <trkpt lat="43.07327" lon="5.90528">
        <ele>10.3</ele>
        <time>2025-05-25T07:56:45.000Z</time>
      </trkpt>
      <trkpt lat="43.07327" lon="5.90529">
        <ele>10.2</ele>
        <time>2025-05-25T07:56:46.000Z</time>
      </trkpt>
      <trkpt lat="43.07327" lon="5.9053">
        <ele>10.2</ele>
        <time>2025-05-25T07:56:47.000Z</time>
      </trkpt>
      <trkpt lat="43.07327" lon="5.9053">
        <ele>10.2</ele>
        <time>2025-05-25T07:56:51.000Z</time>
      </trkpt>
      <trkpt lat="43.07327" lon="5.9053">
        <ele>10.2</ele>
        <time>2025-05-25T07:56:52.000Z</time>
      </trkpt>
      <trkpt lat="43.07327" lon="5.90531">
        <ele>10.2</ele>
        <time>2025-05-25T07:56:53.000Z</time>
      </trkpt>
      <trkpt lat="43.07328" lon="5.90532">
        <ele>10.2</ele>
        <time>2025-05-25T07:56:54.000Z</time>
      </trkpt>
      <trkpt lat="43.07328" lon="5.90533">
        <ele>10.2</ele>
        <time>2025-05-25T07:56:55.000Z</time>
      </trkpt>
      <trkpt lat="43.07333" lon="5.90545">
        <ele>10</ele>
        <time>2025-05-25T07:57:05.000Z</time>
      </trkpt>
      <trkpt lat="43.07334" lon="5.90557">
        <ele>10.1</ele>
        <time>2025-05-25T07:57:15.000Z</time>
      </trkpt>
      <trkpt lat="43.07337" lon="5.9057">
        <ele>9.8</ele>
        <time>2025-05-25T07:57:23.000Z</time>
      </trkpt>
      <trkpt lat="43.07338" lon="5.90582">
        <ele>9.2</ele>
        <time>2025-05-25T07:57:32.000Z</time>
      </trkpt>
      <trkpt lat="43.07331" lon="5.90593">
        <ele>8.2</ele>
        <time>2025-05-25T07:57:41.000Z</time>
      </trkpt>
      <trkpt lat="43.07327" lon="5.90591">
        <ele>7.4</ele>
        <time>2025-05-25T07:57:50.000Z</time>
      </trkpt>
      <trkpt lat="43.07327" lon="5.90591">
        <ele>7.3</ele>
        <time>2025-05-25T07:57:51.000Z</time>
      </trkpt>
      <trkpt lat="43.07328" lon="5.90593">
        <ele>7.3</ele>
        <time>2025-05-25T07:57:52.000Z</time>
      </trkpt>
      <trkpt lat="43.07329" lon="5.90595">
        <ele>7.2</ele>
        <time>2025-05-25T07:57:53.000Z</time>
      </trkpt>
      <trkpt lat="43.07329" lon="5.90596">
        <ele>7.2</ele>
        <time>2025-05-25T07:57:54.000Z</time>
      </trkpt>
      <trkpt lat="43.0733" lon="5.90609">
        <ele>6.8</ele>
        <time>2025-05-25T07:58:05.000Z</time>
      </trkpt>
      <trkpt lat="43.0733" lon="5.90621">
        <ele>6.9</ele>
        <time>2025-05-25T07:58:12.000Z</time>
      </trkpt>
      <trkpt lat="43.0733" lon="5.90635">
        <ele>7.1</ele>
        <time>2025-05-25T07:58:19.000Z</time>
      </trkpt>
      <trkpt lat="43.07331" lon="5.90648">
        <ele>7.1</ele>
        <time>2025-05-25T07:58:27.000Z</time>
      </trkpt>
      <trkpt lat="43.0733" lon="5.9066">
        <ele>7.1</ele>
        <time>2025-05-25T07:58:36.000Z</time>
      </trkpt>
      <trkpt lat="43.0733" lon="5.90674">
        <ele>7</ele>
        <time>2025-05-25T07:58:44.000Z</time>
      </trkpt>
      <trkpt lat="43.0733" lon="5.90687">
        <ele>6.9</ele>
        <time>2025-05-25T07:58:52.000Z</time>
      </trkpt>
      <trkpt lat="43.07329" lon="5.907">
        <ele>6.7</ele>
        <time>2025-05-25T07:58:59.000Z</time>
      </trkpt>
      <trkpt lat="43.07331" lon="5.90712">
        <ele>6.7</ele>
        <time>2025-05-25T07:59:08.000Z</time>
      </trkpt>
      <trkpt lat="43.07328" lon="5.90725">
        <ele>6.6</ele>
        <time>2025-05-25T07:59:15.000Z</time>
      </trkpt>
      <trkpt lat="43.07323" lon="5.90737">
        <ele>6.7</ele>
        <time>2025-05-25T07:59:25.000Z</time>
      </trkpt>
      <trkpt lat="43.07319" lon="5.9075">
        <ele>6.7</ele>
        <time>2025-05-25T07:59:40.000Z</time>
      </trkpt>
      <trkpt lat="43.07315" lon="5.90761">
        <ele>6.8</ele>
        <time>2025-05-25T07:59:47.000Z</time>
      </trkpt>
      <trkpt lat="43.07307" lon="5.90767">
        <ele>6.8</ele>
        <time>2025-05-25T07:59:56.000Z</time>
      </trkpt>
      <trkpt lat="43.07301" lon="5.90776">
        <ele>6.8</ele>
        <time>2025-05-25T08:00:09.000Z</time>
      </trkpt>
      <trkpt lat="43.07291" lon="5.90774">
        <ele>6.9</ele>
        <time>2025-05-25T08:00:18.000Z</time>
      </trkpt>
      <trkpt lat="43.07283" lon="5.90768">
        <ele>6.9</ele>
        <time>2025-05-25T08:00:26.000Z</time>
      </trkpt>
      <trkpt lat="43.07273" lon="5.90769">
        <ele>6.8</ele>
        <time>2025-05-25T08:00:36.000Z</time>
      </trkpt>
      <trkpt lat="43.07265" lon="5.90776">
        <ele>6.7</ele>
        <time>2025-05-25T08:00:44.000Z</time>
      </trkpt>
      <trkpt lat="43.07264" lon="5.90788">
        <ele>6.6</ele>
        <time>2025-05-25T08:00:55.000Z</time>
      </trkpt>
      <trkpt lat="43.07262" lon="5.90802">
        <ele>6.6</ele>
        <time>2025-05-25T08:01:03.000Z</time>
      </trkpt>
      <trkpt lat="43.07263" lon="5.90814">
        <ele>6.5</ele>
        <time>2025-05-25T08:01:11.000Z</time>
      </trkpt>
      <trkpt lat="43.07262" lon="5.90828">
        <ele>6.6</ele>
        <time>2025-05-25T08:01:21.000Z</time>
      </trkpt>
      <trkpt lat="43.0726" lon="5.9084">
        <ele>6.6</ele>
        <time>2025-05-25T08:01:28.000Z</time>
      </trkpt>
      <trkpt lat="43.07259" lon="5.90853">
        <ele>6.6</ele>
        <time>2025-05-25T08:01:36.000Z</time>
      </trkpt>
      <trkpt lat="43.07258" lon="5.90867">
        <ele>6.7</ele>
        <time>2025-05-25T08:01:44.000Z</time>
      </trkpt>
      <trkpt lat="43.07258" lon="5.90879">
        <ele>6.9</ele>
        <time>2025-05-25T08:01:54.000Z</time>
      </trkpt>
      <trkpt lat="43.07258" lon="5.90892">
        <ele>7.1</ele>
        <time>2025-05-25T08:02:03.000Z</time>
      </trkpt>
      <trkpt lat="43.07256" lon="5.90904">
        <ele>7.4</ele>
        <time>2025-05-25T08:02:13.000Z</time>
      </trkpt>
      <trkpt lat="43.07253" lon="5.90917">
        <ele>7.7</ele>
        <time>2025-05-25T08:02:20.000Z</time>
      </trkpt>
      <trkpt lat="43.0725" lon="5.90929">
        <ele>7.9</ele>
        <time>2025-05-25T08:02:30.000Z</time>
      </trkpt>
      <trkpt lat="43.07252" lon="5.90941">
        <ele>8.2</ele>
        <time>2025-05-25T08:02:38.000Z</time>
      </trkpt>
      <trkpt lat="43.07251" lon="5.90955">
        <ele>8.3</ele>
        <time>2025-05-25T08:02:44.000Z</time>
      </trkpt>
      <trkpt lat="43.07251" lon="5.90968">
        <ele>8.5</ele>
        <time>2025-05-25T08:02:52.000Z</time>
      </trkpt>
      <trkpt lat="43.07252" lon="5.90981">
        <ele>8.7</ele>
        <time>2025-05-25T08:03:02.000Z</time>
      </trkpt>
      <trkpt lat="43.07252" lon="5.90995">
        <ele>9</ele>
        <time>2025-05-25T08:03:10.000Z</time>
      </trkpt>
      <trkpt lat="43.07252" lon="5.91007">
        <ele>9.2</ele>
        <time>2025-05-25T08:03:19.000Z</time>
      </trkpt>
      <trkpt lat="43.07252" lon="5.9102">
        <ele>9.4</ele>
        <time>2025-05-25T08:03:24.000Z</time>
      </trkpt>
      <trkpt lat="43.07249" lon="5.91033">
        <ele>9.6</ele>
        <time>2025-05-25T08:03:30.000Z</time>
      </trkpt>
      <trkpt lat="43.07248" lon="5.91046">
        <ele>9.9</ele>
        <time>2025-05-25T08:03:44.000Z</time>
      </trkpt>
      <trkpt lat="43.07249" lon="5.91059">
        <ele>10</ele>
        <time>2025-05-25T08:03:51.000Z</time>
      </trkpt>
      <trkpt lat="43.0725" lon="5.91073">
        <ele>10.3</ele>
        <time>2025-05-25T08:04:02.000Z</time>
      </trkpt>
      <trkpt lat="43.07242" lon="5.91079">
        <ele>10.7</ele>
        <time>2025-05-25T08:04:13.000Z</time>
      </trkpt>
      <trkpt lat="43.07233" lon="5.91081">
        <ele>11.1</ele>
        <time>2025-05-25T08:04:23.000Z</time>
      </trkpt>
      <trkpt lat="43.07225" lon="5.9109">
        <ele>11.4</ele>
        <time>2025-05-25T08:04:31.000Z</time>
      </trkpt>
      <trkpt lat="43.07225" lon="5.91103">
        <ele>11.6</ele>
        <time>2025-05-25T08:04:37.000Z</time>
      </trkpt>
      <trkpt lat="43.07225" lon="5.91115">
        <ele>11.9</ele>
        <time>2025-05-25T08:04:45.000Z</time>
      </trkpt>
      <trkpt lat="43.07225" lon="5.91129">
        <ele>12.2</ele>
        <time>2025-05-25T08:04:54.000Z</time>
      </trkpt>
      <trkpt lat="43.07223" lon="5.91141">
        <ele>12.4</ele>
        <time>2025-05-25T08:05:01.000Z</time>
      </trkpt>
      <trkpt lat="43.0722" lon="5.91154">
        <ele>12.6</ele>
        <time>2025-05-25T08:05:09.000Z</time>
      </trkpt>
      <trkpt lat="43.07218" lon="5.91167">
        <ele>13</ele>
        <time>2025-05-25T08:05:18.000Z</time>
      </trkpt>
      <trkpt lat="43.07214" lon="5.91178">
        <ele>13.5</ele>
        <time>2025-05-25T08:05:29.000Z</time>
      </trkpt>
      <trkpt lat="43.07211" lon="5.91191">
        <ele>13.8</ele>
        <time>2025-05-25T08:05:37.000Z</time>
      </trkpt>
      <trkpt lat="43.07204" lon="5.912">
        <ele>14.2</ele>
        <time>2025-05-25T08:05:49.000Z</time>
      </trkpt>
      <trkpt lat="43.07201" lon="5.91211">
        <ele>14.5</ele>
        <time>2025-05-25T08:05:56.000Z</time>
      </trkpt>
      <trkpt lat="43.07197" lon="5.91223">
        <ele>14.7</ele>
        <time>2025-05-25T08:06:03.000Z</time>
      </trkpt>
      <trkpt lat="43.0719" lon="5.91232">
        <ele>15</ele>
        <time>2025-05-25T08:06:12.000Z</time>
      </trkpt>
      <trkpt lat="43.07184" lon="5.91242">
        <ele>15.4</ele>
        <time>2025-05-25T08:06:20.000Z</time>
      </trkpt>
      <trkpt lat="43.07178" lon="5.91252">
        <ele>15.8</ele>
        <time>2025-05-25T08:06:28.000Z</time>
      </trkpt>
      <trkpt lat="43.07175" lon="5.91265">
        <ele>16.1</ele>
        <time>2025-05-25T08:06:37.000Z</time>
      </trkpt>
      <trkpt lat="43.07171" lon="5.91279">
        <ele>16.4</ele>
        <time>2025-05-25T08:06:46.000Z</time>
      </trkpt>
      <trkpt lat="43.0717" lon="5.91292">
        <ele>16.7</ele>
        <time>2025-05-25T08:06:56.000Z</time>
      </trkpt>
      <trkpt lat="43.07169" lon="5.91305">
        <ele>16.9</ele>
        <time>2025-05-25T08:07:03.000Z</time>
      </trkpt>
      <trkpt lat="43.0717" lon="5.91318">
        <ele>17.1</ele>
        <time>2025-05-25T08:07:12.000Z</time>
      </trkpt>
      <trkpt lat="43.07169" lon="5.91331">
        <ele>17.2</ele>
        <time>2025-05-25T08:07:19.000Z</time>
      </trkpt>
      <trkpt lat="43.07169" lon="5.91343">
        <ele>17.4</ele>
        <time>2025-05-25T08:07:27.000Z</time>
      </trkpt>
      <trkpt lat="43.07168" lon="5.91356">
        <ele>17.8</ele>
        <time>2025-05-25T08:07:38.000Z</time>
      </trkpt>
      <trkpt lat="43.07161" lon="5.91366">
        <ele>18.3</ele>
        <time>2025-05-25T08:07:48.000Z</time>
      </trkpt>
      <trkpt lat="43.07155" lon="5.91375">
        <ele>18.6</ele>
        <time>2025-05-25T08:07:57.000Z</time>
      </trkpt>
      <trkpt lat="43.07149" lon="5.91386">
        <ele>18.9</ele>
        <time>2025-05-25T08:08:05.000Z</time>
      </trkpt>
      <trkpt lat="43.07147" lon="5.91398">
        <ele>19.6</ele>
        <time>2025-05-25T08:08:17.000Z</time>
      </trkpt>
      <trkpt lat="43.07148" lon="5.91411">
        <ele>20</ele>
        <time>2025-05-25T08:08:24.000Z</time>
      </trkpt>
      <trkpt lat="43.07151" lon="5.91422">
        <ele>20.5</ele>
        <time>2025-05-25T08:08:32.000Z</time>
      </trkpt>
      <trkpt lat="43.0715" lon="5.91435">
        <ele>20.8</ele>
        <time>2025-05-25T08:08:39.000Z</time>
      </trkpt>
      <trkpt lat="43.07155" lon="5.91447">
        <ele>21.1</ele>
        <time>2025-05-25T08:08:47.000Z</time>
      </trkpt>
      <trkpt lat="43.07156" lon="5.9146">
        <ele>21.3</ele>
        <time>2025-05-25T08:08:55.000Z</time>
      </trkpt>
      <trkpt lat="43.07151" lon="5.91471">
        <ele>21.5</ele>
        <time>2025-05-25T08:09:04.000Z</time>
      </trkpt>
      <trkpt lat="43.07146" lon="5.91482">
        <ele>21.6</ele>
        <time>2025-05-25T08:09:13.000Z</time>
      </trkpt>
      <trkpt lat="43.0715" lon="5.91494">
        <ele>21.6</ele>
        <time>2025-05-25T08:09:22.000Z</time>
      </trkpt>
      <trkpt lat="43.07155" lon="5.91504">
        <ele>21.6</ele>
        <time>2025-05-25T08:09:31.000Z</time>
      </trkpt>
      <trkpt lat="43.07154" lon="5.91517">
        <ele>21.7</ele>
        <time>2025-05-25T08:09:50.000Z</time>
      </trkpt>
      <trkpt lat="43.0715" lon="5.91528">
        <ele>22</ele>
        <time>2025-05-25T08:09:58.000Z</time>
      </trkpt>
      <trkpt lat="43.07149" lon="5.91543">
        <ele>22.1</ele>
        <time>2025-05-25T08:10:07.000Z</time>
      </trkpt>
      <trkpt lat="43.07148" lon="5.91556">
        <ele>22.2</ele>
        <time>2025-05-25T08:10:12.000Z</time>
      </trkpt>
      <trkpt lat="43.07146" lon="5.91569">
        <ele>22.3</ele>
        <time>2025-05-25T08:10:22.000Z</time>
      </trkpt>
      <trkpt lat="43.07139" lon="5.91578">
        <ele>22.5</ele>
        <time>2025-05-25T08:10:32.000Z</time>
      </trkpt>
      <trkpt lat="43.07134" lon="5.91589">
        <ele>22.7</ele>
        <time>2025-05-25T08:10:42.000Z</time>
      </trkpt>
      <trkpt lat="43.07135" lon="5.91599">
        <ele>23</ele>
        <time>2025-05-25T08:10:48.000Z</time>
      </trkpt>
      <trkpt lat="43.07135" lon="5.91599">
        <ele>23</ele>
        <time>2025-05-25T08:10:49.000Z</time>
      </trkpt>
      <trkpt lat="43.07134" lon="5.916">
        <ele>23</ele>
        <time>2025-05-25T08:10:50.000Z</time>
      </trkpt>
      <trkpt lat="43.07134" lon="5.91602">
        <ele>23.1</ele>
        <time>2025-05-25T08:10:55.000Z</time>
      </trkpt>
      <trkpt lat="43.07134" lon="5.91603">
        <ele>23.1</ele>
        <time>2025-05-25T08:10:56.000Z</time>
      </trkpt>
      <trkpt lat="43.07133" lon="5.91603">
        <ele>23.1</ele>
        <time>2025-05-25T08:10:57.000Z</time>
      </trkpt>
      <trkpt lat="43.07134" lon="5.91603">
        <ele>23.1</ele>
        <time>2025-05-25T08:10:58.000Z</time>
      </trkpt>
      <trkpt lat="43.07134" lon="5.91603">
        <ele>23.1</ele>
        <time>2025-05-25T08:10:59.000Z</time>
      </trkpt>
      <trkpt lat="43.07133" lon="5.91603">
        <ele>23.1</ele>
        <time>2025-05-25T08:11:00.000Z</time>
      </trkpt>
      <trkpt lat="43.07133" lon="5.91604">
        <ele>23.2</ele>
        <time>2025-05-25T08:11:01.000Z</time>
      </trkpt>
      <trkpt lat="43.07135" lon="5.916">
        <ele>23.2</ele>
        <time>2025-05-25T08:11:12.000Z</time>
      </trkpt>
      <trkpt lat="43.07135" lon="5.916">
        <ele>23.2</ele>
        <time>2025-05-25T08:11:13.000Z</time>
      </trkpt>
      <trkpt lat="43.07135" lon="5.916">
        <ele>23.2</ele>
        <time>2025-05-25T08:11:14.000Z</time>
      </trkpt>
      <trkpt lat="43.07134" lon="5.916">
        <ele>23.2</ele>
        <time>2025-05-25T08:11:23.000Z</time>
      </trkpt>
      <trkpt lat="43.07134" lon="5.916">
        <ele>23.2</ele>
        <time>2025-05-25T08:11:24.000Z</time>
      </trkpt>
      <trkpt lat="43.07134" lon="5.916">
        <ele>23.2</ele>
        <time>2025-05-25T08:11:27.000Z</time>
      </trkpt>
      <trkpt lat="43.07134" lon="5.916">
        <ele>23.2</ele>
        <time>2025-05-25T08:11:28.000Z</time>
      </trkpt>
      <trkpt lat="43.07134" lon="5.916">
        <ele>23.2</ele>
        <time>2025-05-25T08:11:29.000Z</time>
      </trkpt>
      <trkpt lat="43.07137" lon="5.91602">
        <ele>23.2</ele>
        <time>2025-05-25T08:11:48.000Z</time>
      </trkpt>
      <trkpt lat="43.07137" lon="5.91602">
        <ele>23.2</ele>
        <time>2025-05-25T08:11:49.000Z</time>
      </trkpt>
      <trkpt lat="43.07137" lon="5.91602">
        <ele>23.2</ele>
        <time>2025-05-25T08:11:50.000Z</time>
      </trkpt>
      <trkpt lat="43.07137" lon="5.91602">
        <ele>23.2</ele>
        <time>2025-05-25T08:11:51.000Z</time>
      </trkpt>
      <trkpt lat="43.07137" lon="5.91602">
        <ele>23.2</ele>
        <time>2025-05-25T08:11:52.000Z</time>
      </trkpt>
      <trkpt lat="43.07136" lon="5.91602">
        <ele>23.2</ele>
        <time>2025-05-25T08:11:55.000Z</time>
      </trkpt>
      <trkpt lat="43.07136" lon="5.91602">
        <ele>23.2</ele>
        <time>2025-05-25T08:11:56.000Z</time>
      </trkpt>
      <trkpt lat="43.07136" lon="5.91602">
        <ele>23.2</ele>
        <time>2025-05-25T08:11:57.000Z</time>
      </trkpt>
      <trkpt lat="43.07136" lon="5.91603">
        <ele>23.2</ele>
        <time>2025-05-25T08:11:58.000Z</time>
      </trkpt>
      <trkpt lat="43.07136" lon="5.91603">
        <ele>23.2</ele>
        <time>2025-05-25T08:11:59.000Z</time>
      </trkpt>
      <trkpt lat="43.07136" lon="5.91603">
        <ele>23.2</ele>
        <time>2025-05-25T08:12:00.000Z</time>
      </trkpt>
      <trkpt lat="43.07136" lon="5.91603">
        <ele>23.2</ele>
        <time>2025-05-25T08:12:10.000Z</time>
      </trkpt>
      <trkpt lat="43.07136" lon="5.91603">
        <ele>23.2</ele>
        <time>2025-05-25T08:12:11.000Z</time>
      </trkpt>
      <trkpt lat="43.07136" lon="5.91602">
        <ele>23.2</ele>
        <time>2025-05-25T08:12:12.000Z</time>
      </trkpt>
      <trkpt lat="43.07136" lon="5.91602">
        <ele>23.2</ele>
        <time>2025-05-25T08:12:13.000Z</time>
      </trkpt>
      <trkpt lat="43.07136" lon="5.91602">
        <ele>23.2</ele>
        <time>2025-05-25T08:12:14.000Z</time>
      </trkpt>
      <trkpt lat="43.07136" lon="5.91602">
        <ele>23.2</ele>
        <time>2025-05-25T08:12:17.000Z</time>
      </trkpt>
      <trkpt lat="43.07136" lon="5.91602">
        <ele>23.2</ele>
        <time>2025-05-25T08:12:18.000Z</time>
      </trkpt>
      <trkpt lat="43.07136" lon="5.91602">
        <ele>23.2</ele>
        <time>2025-05-25T08:12:19.000Z</time>
      </trkpt>
      <trkpt lat="43.07136" lon="5.91602">
        <ele>23.2</ele>
        <time>2025-05-25T08:12:20.000Z</time>
      </trkpt>
      <trkpt lat="43.07136" lon="5.91602">
        <ele>23.2</ele>
        <time>2025-05-25T08:12:21.000Z</time>
      </trkpt>
      <trkpt lat="43.07136" lon="5.91602">
        <ele>23.2</ele>
        <time>2025-05-25T08:12:22.000Z</time>
      </trkpt>
      <trkpt lat="43.07136" lon="5.91602">
        <ele>23.2</ele>
        <time>2025-05-25T08:12:23.000Z</time>
      </trkpt>
      <trkpt lat="43.07136" lon="5.91602">
        <ele>23.2</ele>
        <time>2025-05-25T08:12:24.000Z</time>
      </trkpt>
      <trkpt lat="43.07136" lon="5.91601">
        <ele>23.2</ele>
        <time>2025-05-25T08:12:27.000Z</time>
      </trkpt>
      <trkpt lat="43.07136" lon="5.91601">
        <ele>23.2</ele>
        <time>2025-05-25T08:12:28.000Z</time>
      </trkpt>
      <trkpt lat="43.07136" lon="5.91601">
        <ele>23.2</ele>
        <time>2025-05-25T08:12:29.000Z</time>
      </trkpt>
      <trkpt lat="43.07139" lon="5.91598">
        <ele>23.2</ele>
        <time>2025-05-25T08:13:05.000Z</time>
      </trkpt>
      <trkpt lat="43.07139" lon="5.91598">
        <ele>23.2</ele>
        <time>2025-05-25T08:13:06.000Z</time>
      </trkpt>
      <trkpt lat="43.07138" lon="5.91598">
        <ele>23.2</ele>
        <time>2025-05-25T08:13:07.000Z</time>
      </trkpt>
      <trkpt lat="43.07138" lon="5.91598">
        <ele>23.2</ele>
        <time>2025-05-25T08:13:08.000Z</time>
      </trkpt>
      <trkpt lat="43.07138" lon="5.91598">
        <ele>23.2</ele>
        <time>2025-05-25T08:13:09.000Z</time>
      </trkpt>
      <trkpt lat="43.07137" lon="5.91598">
        <ele>23.2</ele>
        <time>2025-05-25T08:13:17.000Z</time>
      </trkpt>
      <trkpt lat="43.07137" lon="5.91598">
        <ele>23.2</ele>
        <time>2025-05-25T08:13:18.000Z</time>
      </trkpt>
      <trkpt lat="43.07137" lon="5.91598">
        <ele>23.2</ele>
        <time>2025-05-25T08:13:19.000Z</time>
      </trkpt>
      <trkpt lat="43.07137" lon="5.91597">
        <ele>23.2</ele>
        <time>2025-05-25T08:13:20.000Z</time>
      </trkpt>
      <trkpt lat="43.07136" lon="5.91596">
        <ele>23.2</ele>
        <time>2025-05-25T08:13:21.000Z</time>
      </trkpt>
      <trkpt lat="43.07136" lon="5.91595">
        <ele>23.2</ele>
        <time>2025-05-25T08:13:22.000Z</time>
      </trkpt>
      <trkpt lat="43.07136" lon="5.91594">
        <ele>23.2</ele>
        <time>2025-05-25T08:13:28.000Z</time>
      </trkpt>
      <trkpt lat="43.07136" lon="5.91595">
        <ele>23.2</ele>
        <time>2025-05-25T08:13:29.000Z</time>
      </trkpt>
      <trkpt lat="43.07144" lon="5.91586">
        <ele>23</ele>
        <time>2025-05-25T08:13:58.000Z</time>
      </trkpt>
      <trkpt lat="43.07149" lon="5.91575">
        <ele>23</ele>
        <time>2025-05-25T08:14:05.000Z</time>
      </trkpt>
      <trkpt lat="43.07156" lon="5.91565">
        <ele>22.9</ele>
        <time>2025-05-25T08:14:11.000Z</time>
      </trkpt>
      <trkpt lat="43.07161" lon="5.91554">
        <ele>22.7</ele>
        <time>2025-05-25T08:14:19.000Z</time>
      </trkpt>
      <trkpt lat="43.07163" lon="5.91542">
        <ele>22.7</ele>
        <time>2025-05-25T08:14:31.000Z</time>
      </trkpt>
      <trkpt lat="43.07166" lon="5.91528">
        <ele>23.2</ele>
        <time>2025-05-25T08:14:41.000Z</time>
      </trkpt>
      <trkpt lat="43.07173" lon="5.91519">
        <ele>23.4</ele>
        <time>2025-05-25T08:14:51.000Z</time>
      </trkpt>
      <trkpt lat="43.07183" lon="5.91514">
        <ele>23.6</ele>
        <time>2025-05-25T08:15:02.000Z</time>
      </trkpt>
      <trkpt lat="43.07191" lon="5.91507">
        <ele>24.5</ele>
        <time>2025-05-25T08:15:16.000Z</time>
      </trkpt>
      <trkpt lat="43.07197" lon="5.91497">
        <ele>25</ele>
        <time>2025-05-25T08:15:24.000Z</time>
      </trkpt>
      <trkpt lat="43.07205" lon="5.91493">
        <ele>25.2</ele>
        <time>2025-05-25T08:15:34.000Z</time>
      </trkpt>
      <trkpt lat="43.07214" lon="5.91488">
        <ele>25.3</ele>
        <time>2025-05-25T08:15:41.000Z</time>
      </trkpt>
      <trkpt lat="43.07223" lon="5.91484">
        <ele>25.3</ele>
        <time>2025-05-25T08:15:50.000Z</time>
      </trkpt>
      <trkpt lat="43.07229" lon="5.91475">
        <ele>25.2</ele>
        <time>2025-05-25T08:15:57.000Z</time>
      </trkpt>
      <trkpt lat="43.07231" lon="5.91463">
        <ele>25</ele>
        <time>2025-05-25T08:16:05.000Z</time>
      </trkpt>
      <trkpt lat="43.07237" lon="5.91452">
        <ele>24.5</ele>
        <time>2025-05-25T08:16:13.000Z</time>
      </trkpt>
      <trkpt lat="43.07247" lon="5.91449">
        <ele>23.6</ele>
        <time>2025-05-25T08:16:25.000Z</time>
      </trkpt>
      <trkpt lat="43.07256" lon="5.91454">
        <ele>23</ele>
        <time>2025-05-25T08:16:38.000Z</time>
      </trkpt>
      <trkpt lat="43.07264" lon="5.9146">
        <ele>23.2</ele>
        <time>2025-05-25T08:16:48.000Z</time>
      </trkpt>
      <trkpt lat="43.07273" lon="5.91467">
        <ele>23.6</ele>
        <time>2025-05-25T08:16:57.000Z</time>
      </trkpt>
      <trkpt lat="43.0728" lon="5.91473">
        <ele>23.9</ele>
        <time>2025-05-25T08:17:04.000Z</time>
      </trkpt>
      <trkpt lat="43.07289" lon="5.9148">
        <ele>24.1</ele>
        <time>2025-05-25T08:17:14.000Z</time>
      </trkpt>
      <trkpt lat="43.07296" lon="5.9149">
        <ele>24.2</ele>
        <time>2025-05-25T08:17:22.000Z</time>
      </trkpt>
      <trkpt lat="43.07304" lon="5.91498">
        <ele>24.3</ele>
        <time>2025-05-25T08:17:31.000Z</time>
      </trkpt>
      <trkpt lat="43.07309" lon="5.91509">
        <ele>24.5</ele>
        <time>2025-05-25T08:17:41.000Z</time>
      </trkpt>
      <trkpt lat="43.07316" lon="5.91518">
        <ele>24.5</ele>
        <time>2025-05-25T08:17:49.000Z</time>
      </trkpt>
      <trkpt lat="43.07325" lon="5.91522">
        <ele>24.5</ele>
        <time>2025-05-25T08:17:57.000Z</time>
      </trkpt>
      <trkpt lat="43.07333" lon="5.91527">
        <ele>24.4</ele>
        <time>2025-05-25T08:18:04.000Z</time>
      </trkpt>
      <trkpt lat="43.07341" lon="5.91535">
        <ele>24</ele>
        <time>2025-05-25T08:18:14.000Z</time>
      </trkpt>
      <trkpt lat="43.07345" lon="5.91532">
        <ele>23.3</ele>
        <time>2025-05-25T08:18:25.000Z</time>
      </trkpt>
      <trkpt lat="43.07345" lon="5.91532">
        <ele>23.3</ele>
        <time>2025-05-25T08:18:26.000Z</time>
      </trkpt>
      <trkpt lat="43.07346" lon="5.91532">
        <ele>23.2</ele>
        <time>2025-05-25T08:18:30.000Z</time>
      </trkpt>
      <trkpt lat="43.07346" lon="5.91532">
        <ele>23.2</ele>
        <time>2025-05-25T08:18:31.000Z</time>
      </trkpt>
      <trkpt lat="43.07351" lon="5.91531">
        <ele>23</ele>
        <time>2025-05-25T08:18:35.000Z</time>
      </trkpt>
      <trkpt lat="43.07351" lon="5.91531">
        <ele>23</ele>
        <time>2025-05-25T08:18:36.000Z</time>
      </trkpt>
      <trkpt lat="43.07352" lon="5.9153">
        <ele>23</ele>
        <time>2025-05-25T08:18:37.000Z</time>
      </trkpt>
      <trkpt lat="43.07354" lon="5.91529">
        <ele>23</ele>
        <time>2025-05-25T08:18:38.000Z</time>
      </trkpt>
      <trkpt lat="43.07355" lon="5.91529">
        <ele>22.9</ele>
        <time>2025-05-25T08:18:39.000Z</time>
      </trkpt>
      <trkpt lat="43.07361" lon="5.91527">
        <ele>22.8</ele>
        <time>2025-05-25T08:18:57.000Z</time>
      </trkpt>
      <trkpt lat="43.07361" lon="5.91527">
        <ele>22.8</ele>
        <time>2025-05-25T08:18:58.000Z</time>
      </trkpt>
      <trkpt lat="43.07361" lon="5.91527">
        <ele>22.8</ele>
        <time>2025-05-25T08:18:59.000Z</time>
      </trkpt>
      <trkpt lat="43.07361" lon="5.91526">
        <ele>22.8</ele>
        <time>2025-05-25T08:19:02.000Z</time>
      </trkpt>
      <trkpt lat="43.0736" lon="5.91525">
        <ele>22.8</ele>
        <time>2025-05-25T08:19:03.000Z</time>
      </trkpt>
      <trkpt lat="43.0736" lon="5.91525">
        <ele>22.8</ele>
        <time>2025-05-25T08:19:04.000Z</time>
      </trkpt>
      <trkpt lat="43.07359" lon="5.91524">
        <ele>22.8</ele>
        <time>2025-05-25T08:19:05.000Z</time>
      </trkpt>
      <trkpt lat="43.07359" lon="5.91524">
        <ele>22.8</ele>
        <time>2025-05-25T08:19:06.000Z</time>
      </trkpt>
      <trkpt lat="43.07359" lon="5.91523">
        <ele>22.8</ele>
        <time>2025-05-25T08:19:07.000Z</time>
      </trkpt>
      <trkpt lat="43.0736" lon="5.91527">
        <ele>22.8</ele>
        <time>2025-05-25T08:19:11.000Z</time>
      </trkpt>
      <trkpt lat="43.0736" lon="5.91529">
        <ele>22.8</ele>
        <time>2025-05-25T08:19:12.000Z</time>
      </trkpt>
      <trkpt lat="43.07366" lon="5.91539">
        <ele>22.9</ele>
        <time>2025-05-25T08:19:23.000Z</time>
      </trkpt>
      <trkpt lat="43.07373" lon="5.91547">
        <ele>23.4</ele>
        <time>2025-05-25T08:19:37.000Z</time>
      </trkpt>
      <trkpt lat="43.07381" lon="5.91553">
        <ele>24.3</ele>
        <time>2025-05-25T08:19:49.000Z</time>
      </trkpt>
      <trkpt lat="43.0739" lon="5.91561">
        <ele>25.2</ele>
        <time>2025-05-25T08:19:58.000Z</time>
      </trkpt>
      <trkpt lat="43.07399" lon="5.91564">
        <ele>26.1</ele>
        <time>2025-05-25T08:20:06.000Z</time>
      </trkpt>
      <trkpt lat="43.07408" lon="5.91569">
        <ele>26.7</ele>
        <time>2025-05-25T08:20:15.000Z</time>
      </trkpt>
      <trkpt lat="43.07418" lon="5.9157">
        <ele>27.4</ele>
        <time>2025-05-25T08:20:22.000Z</time>
      </trkpt>
      <trkpt lat="43.07427" lon="5.9157">
        <ele>28.2</ele>
        <time>2025-05-25T08:20:31.000Z</time>
      </trkpt>
      <trkpt lat="43.07437" lon="5.91572">
        <ele>30.2</ele>
        <time>2025-05-25T08:20:45.000Z</time>
      </trkpt>
      <trkpt lat="43.07446" lon="5.91576">
        <ele>30.8</ele>
        <time>2025-05-25T08:20:53.000Z</time>
      </trkpt>
      <trkpt lat="43.07448" lon="5.91589">
        <ele>32.7</ele>
        <time>2025-05-25T08:21:10.000Z</time>
      </trkpt>
      <trkpt lat="43.07441" lon="5.91598">
        <ele>32.9</ele>
        <time>2025-05-25T08:21:17.000Z</time>
      </trkpt>
      <trkpt lat="43.07443" lon="5.91611">
        <ele>32.7</ele>
        <time>2025-05-25T08:21:27.000Z</time>
      </trkpt>
      <trkpt lat="43.07445" lon="5.91625">
        <ele>32.4</ele>
        <time>2025-05-25T08:21:36.000Z</time>
      </trkpt>
      <trkpt lat="43.07444" lon="5.91637">
        <ele>32.1</ele>
        <time>2025-05-25T08:21:47.000Z</time>
      </trkpt>
      <trkpt lat="43.07444" lon="5.9165">
        <ele>32.2</ele>
        <time>2025-05-25T08:21:54.000Z</time>
      </trkpt>
      <trkpt lat="43.07445" lon="5.91663">
        <ele>32.3</ele>
        <time>2025-05-25T08:22:01.000Z</time>
      </trkpt>
      <trkpt lat="43.07451" lon="5.91674">
        <ele>32.8</ele>
        <time>2025-05-25T08:22:11.000Z</time>
      </trkpt>
      <trkpt lat="43.07458" lon="5.91683">
        <ele>33.1</ele>
        <time>2025-05-25T08:22:19.000Z</time>
      </trkpt>
      <trkpt lat="43.07467" lon="5.91682">
        <ele>33.8</ele>
        <time>2025-05-25T08:22:30.000Z</time>
      </trkpt>
      <trkpt lat="43.07477" lon="5.91681">
        <ele>35</ele>
        <time>2025-05-25T08:22:40.000Z</time>
      </trkpt>
      <trkpt lat="43.07485" lon="5.91675">
        <ele>35.7</ele>
        <time>2025-05-25T08:22:49.000Z</time>
      </trkpt>
      <trkpt lat="43.07494" lon="5.9167">
        <ele>35.6</ele>
        <time>2025-05-25T08:23:01.000Z</time>
      </trkpt>
      <trkpt lat="43.07503" lon="5.91668">
        <ele>35.8</ele>
        <time>2025-05-25T08:23:11.000Z</time>
      </trkpt>
      <trkpt lat="43.07512" lon="5.91672">
        <ele>36.5</ele>
        <time>2025-05-25T08:23:23.000Z</time>
      </trkpt>
      <trkpt lat="43.07519" lon="5.91665">
        <ele>37.9</ele>
        <time>2025-05-25T08:23:36.000Z</time>
      </trkpt>
      <trkpt lat="43.07528" lon="5.91662">
        <ele>40.4</ele>
        <time>2025-05-25T08:23:59.000Z</time>
      </trkpt>
      <trkpt lat="43.07535" lon="5.91654">
        <ele>41.1</ele>
        <time>2025-05-25T08:24:07.000Z</time>
      </trkpt>
      <trkpt lat="43.07544" lon="5.9165">
        <ele>41.5</ele>
        <time>2025-05-25T08:24:17.000Z</time>
      </trkpt>
      <trkpt lat="43.07554" lon="5.91647">
        <ele>41.7</ele>
        <time>2025-05-25T08:24:26.000Z</time>
      </trkpt>
      <trkpt lat="43.07563" lon="5.91644">
        <ele>41.9</ele>
        <time>2025-05-25T08:24:37.000Z</time>
      </trkpt>
      <trkpt lat="43.07572" lon="5.91646">
        <ele>43.4</ele>
        <time>2025-05-25T08:24:51.000Z</time>
      </trkpt>
      <trkpt lat="43.07581" lon="5.91639">
        <ele>44.1</ele>
        <time>2025-05-25T08:25:00.000Z</time>
      </trkpt>
      <trkpt lat="43.07589" lon="5.91633">
        <ele>44.5</ele>
        <time>2025-05-25T08:25:10.000Z</time>
      </trkpt>
      <trkpt lat="43.07597" lon="5.91629">
        <ele>44.9</ele>
        <time>2025-05-25T08:25:19.000Z</time>
      </trkpt>
      <trkpt lat="43.07607" lon="5.91628">
        <ele>45.3</ele>
        <time>2025-05-25T08:25:28.000Z</time>
      </trkpt>
      <trkpt lat="43.07615" lon="5.91623">
        <ele>45.7</ele>
        <time>2025-05-25T08:25:41.000Z</time>
      </trkpt>
      <trkpt lat="43.07625" lon="5.9162">
        <ele>45.8</ele>
        <time>2025-05-25T08:25:52.000Z</time>
      </trkpt>
      <trkpt lat="43.07629" lon="5.91609">
        <ele>45.8</ele>
        <time>2025-05-25T08:26:00.000Z</time>
      </trkpt>
      <trkpt lat="43.07633" lon="5.91598">
        <ele>46.2</ele>
        <time>2025-05-25T08:26:11.000Z</time>
      </trkpt>
      <trkpt lat="43.07637" lon="5.91587">
        <ele>48.6</ele>
        <time>2025-05-25T08:26:32.000Z</time>
      </trkpt>
      <trkpt lat="43.07637" lon="5.91587">
        <ele>48.7</ele>
        <time>2025-05-25T08:26:33.000Z</time>
      </trkpt>
      <trkpt lat="43.07637" lon="5.91587">
        <ele>48.8</ele>
        <time>2025-05-25T08:26:34.000Z</time>
      </trkpt>
      <trkpt lat="43.07637" lon="5.91587">
        <ele>48.8</ele>
        <time>2025-05-25T08:26:35.000Z</time>
      </trkpt>
      <trkpt lat="43.07637" lon="5.91586">
        <ele>48.9</ele>
        <time>2025-05-25T08:26:36.000Z</time>
      </trkpt>
      <trkpt lat="43.07637" lon="5.91587">
        <ele>49</ele>
        <time>2025-05-25T08:26:37.000Z</time>
      </trkpt>
      <trkpt lat="43.07637" lon="5.91576">
        <ele>51.7</ele>
        <time>2025-05-25T08:27:00.000Z</time>
      </trkpt>
      <trkpt lat="43.07637" lon="5.91576">
        <ele>51.8</ele>
        <time>2025-05-25T08:27:01.000Z</time>
      </trkpt>
      <trkpt lat="43.07637" lon="5.91576">
        <ele>51.8</ele>
        <time>2025-05-25T08:27:02.000Z</time>
      </trkpt>
      <trkpt lat="43.07637" lon="5.91576">
        <ele>51.9</ele>
        <time>2025-05-25T08:27:03.000Z</time>
      </trkpt>
      <trkpt lat="43.07637" lon="5.91576">
        <ele>51.9</ele>
        <time>2025-05-25T08:27:04.000Z</time>
      </trkpt>
      <trkpt lat="43.07637" lon="5.91576">
        <ele>52</ele>
        <time>2025-05-25T08:27:07.000Z</time>
      </trkpt>
      <trkpt lat="43.07637" lon="5.91577">
        <ele>52.1</ele>
        <time>2025-05-25T08:27:08.000Z</time>
      </trkpt>
      <trkpt lat="43.07637" lon="5.91577">
        <ele>52</ele>
        <time>2025-05-25T08:27:09.000Z</time>
      </trkpt>
      <trkpt lat="43.07638" lon="5.91577">
        <ele>52</ele>
        <time>2025-05-25T08:27:10.000Z</time>
      </trkpt>
      <trkpt lat="43.07639" lon="5.91576">
        <ele>52.1</ele>
        <time>2025-05-25T08:27:11.000Z</time>
      </trkpt>
      <trkpt lat="43.07639" lon="5.91575">
        <ele>52.2</ele>
        <time>2025-05-25T08:27:12.000Z</time>
      </trkpt>
      <trkpt lat="43.07637" lon="5.91563">
        <ele>53.3</ele>
        <time>2025-05-25T08:27:23.000Z</time>
      </trkpt>
      <trkpt lat="43.07646" lon="5.91564">
        <ele>56.1</ele>
        <time>2025-05-25T08:27:43.000Z</time>
      </trkpt>
      <trkpt lat="43.07655" lon="5.91566">
        <ele>57</ele>
        <time>2025-05-25T08:27:53.000Z</time>
      </trkpt>
      <trkpt lat="43.07664" lon="5.91566">
        <ele>58.5</ele>
        <time>2025-05-25T08:28:08.000Z</time>
      </trkpt>
      <trkpt lat="43.07674" lon="5.91568">
        <ele>60</ele>
        <time>2025-05-25T08:28:24.000Z</time>
      </trkpt>
      <trkpt lat="43.07682" lon="5.91573">
        <ele>61.2</ele>
        <time>2025-05-25T08:28:36.000Z</time>
      </trkpt>
      <trkpt lat="43.07691" lon="5.91577">
        <ele>62.4</ele>
        <time>2025-05-25T08:28:52.000Z</time>
      </trkpt>
      <trkpt lat="43.07701" lon="5.9158">
        <ele>64</ele>
        <time>2025-05-25T08:29:10.000Z</time>
      </trkpt>
      <trkpt lat="43.0771" lon="5.91584">
        <ele>65.1</ele>
        <time>2025-05-25T08:29:21.000Z</time>
      </trkpt>
      <trkpt lat="43.07719" lon="5.91585">
        <ele>66</ele>
        <time>2025-05-25T08:29:31.000Z</time>
      </trkpt>
      <trkpt lat="43.07728" lon="5.91588">
        <ele>67.2</ele>
        <time>2025-05-25T08:29:42.000Z</time>
      </trkpt>
      <trkpt lat="43.07736" lon="5.91594">
        <ele>68.8</ele>
        <time>2025-05-25T08:29:53.000Z</time>
      </trkpt>
      <trkpt lat="43.07745" lon="5.916">
        <ele>70.3</ele>
        <time>2025-05-25T08:30:07.000Z</time>
      </trkpt>
      <trkpt lat="43.07754" lon="5.91603">
        <ele>72.5</ele>
        <time>2025-05-25T08:30:29.000Z</time>
      </trkpt>
      <trkpt lat="43.07761" lon="5.91611">
        <ele>74.4</ele>
        <time>2025-05-25T08:30:46.000Z</time>
      </trkpt>
      <trkpt lat="43.07769" lon="5.91618">
        <ele>75.7</ele>
        <time>2025-05-25T08:30:59.000Z</time>
      </trkpt>
      <trkpt lat="43.07771" lon="5.91617">
        <ele>76.5</ele>
        <time>2025-05-25T08:31:05.000Z</time>
      </trkpt>
      <trkpt lat="43.07771" lon="5.91617">
        <ele>76.6</ele>
        <time>2025-05-25T08:31:06.000Z</time>
      </trkpt>
      <trkpt lat="43.07772" lon="5.91617">
        <ele>76.6</ele>
        <time>2025-05-25T08:31:07.000Z</time>
      </trkpt>
      <trkpt lat="43.07772" lon="5.91617">
        <ele>76.7</ele>
        <time>2025-05-25T08:31:08.000Z</time>
      </trkpt>
      <trkpt lat="43.07772" lon="5.91617">
        <ele>76.8</ele>
        <time>2025-05-25T08:31:09.000Z</time>
      </trkpt>
      <trkpt lat="43.0778" lon="5.91624">
        <ele>78.1</ele>
        <time>2025-05-25T08:31:25.000Z</time>
      </trkpt>
      <trkpt lat="43.07789" lon="5.91621">
        <ele>80.5</ele>
        <time>2025-05-25T08:31:45.000Z</time>
      </trkpt>
      <trkpt lat="43.07797" lon="5.91617">
        <ele>83.2</ele>
        <time>2025-05-25T08:32:04.000Z</time>
      </trkpt>
      <trkpt lat="43.07805" lon="5.91608">
        <ele>84.7</ele>
        <time>2025-05-25T08:32:18.000Z</time>
      </trkpt>
      <trkpt lat="43.07807" lon="5.91605">
        <ele>85.7</ele>
        <time>2025-05-25T08:32:28.000Z</time>
      </trkpt>
      <trkpt lat="43.07807" lon="5.91605">
        <ele>86.2</ele>
        <time>2025-05-25T08:32:29.000Z</time>
      </trkpt>
      <trkpt lat="43.07807" lon="5.91605">
        <ele>86</ele>
        <time>2025-05-25T08:32:30.000Z</time>
      </trkpt>
      <trkpt lat="43.07807" lon="5.91605">
        <ele>86.6</ele>
        <time>2025-05-25T08:32:35.000Z</time>
      </trkpt>
      <trkpt lat="43.07807" lon="5.91605">
        <ele>86.5</ele>
        <time>2025-05-25T08:32:36.000Z</time>
      </trkpt>
      <trkpt lat="43.07807" lon="5.91605">
        <ele>86.4</ele>
        <time>2025-05-25T08:32:37.000Z</time>
      </trkpt>
      <trkpt lat="43.07807" lon="5.91605">
        <ele>86.4</ele>
        <time>2025-05-25T08:32:38.000Z</time>
      </trkpt>
      <trkpt lat="43.07807" lon="5.91605">
        <ele>86.3</ele>
        <time>2025-05-25T08:32:39.000Z</time>
      </trkpt>
      <trkpt lat="43.07807" lon="5.91605">
        <ele>86.3</ele>
        <time>2025-05-25T08:32:42.000Z</time>
      </trkpt>
      <trkpt lat="43.07807" lon="5.91605">
        <ele>86.3</ele>
        <time>2025-05-25T08:32:43.000Z</time>
      </trkpt>
      <trkpt lat="43.07807" lon="5.91606">
        <ele>86.3</ele>
        <time>2025-05-25T08:32:44.000Z</time>
      </trkpt>
      <trkpt lat="43.07807" lon="5.91606">
        <ele>86.1</ele>
        <time>2025-05-25T08:32:58.000Z</time>
      </trkpt>
      <trkpt lat="43.07807" lon="5.91606">
        <ele>86.1</ele>
        <time>2025-05-25T08:32:59.000Z</time>
      </trkpt>
      <trkpt lat="43.07806" lon="5.91606">
        <ele>86</ele>
        <time>2025-05-25T08:33:15.000Z</time>
      </trkpt>
      <trkpt lat="43.07806" lon="5.91606">
        <ele>86</ele>
        <time>2025-05-25T08:33:16.000Z</time>
      </trkpt>
      <trkpt lat="43.07806" lon="5.91606">
        <ele>86</ele>
        <time>2025-05-25T08:33:17.000Z</time>
      </trkpt>
      <trkpt lat="43.07806" lon="5.91606">
        <ele>86</ele>
        <time>2025-05-25T08:33:18.000Z</time>
      </trkpt>
      <trkpt lat="43.07806" lon="5.91606">
        <ele>86</ele>
        <time>2025-05-25T08:33:19.000Z</time>
      </trkpt>
      <trkpt lat="43.07806" lon="5.91606">
        <ele>86</ele>
        <time>2025-05-25T08:33:23.000Z</time>
      </trkpt>
      <trkpt lat="43.07806" lon="5.91606">
        <ele>86</ele>
        <time>2025-05-25T08:33:24.000Z</time>
      </trkpt>
      <trkpt lat="43.07806" lon="5.91606">
        <ele>86</ele>
        <time>2025-05-25T08:33:25.000Z</time>
      </trkpt>
      <trkpt lat="43.07806" lon="5.91606">
        <ele>86</ele>
        <time>2025-05-25T08:33:26.000Z</time>
      </trkpt>
      <trkpt lat="43.07806" lon="5.91606">
        <ele>86</ele>
        <time>2025-05-25T08:33:27.000Z</time>
      </trkpt>
      <trkpt lat="43.07806" lon="5.91606">
        <ele>86</ele>
        <time>2025-05-25T08:33:28.000Z</time>
      </trkpt>
      <trkpt lat="43.07806" lon="5.91605">
        <ele>86</ele>
        <time>2025-05-25T08:33:29.000Z</time>
      </trkpt>
      <trkpt lat="43.07806" lon="5.91605">
        <ele>86</ele>
        <time>2025-05-25T08:33:32.000Z</time>
      </trkpt>
      <trkpt lat="43.07806" lon="5.91605">
        <ele>86</ele>
        <time>2025-05-25T08:33:33.000Z</time>
      </trkpt>
      <trkpt lat="43.07806" lon="5.91605">
        <ele>86</ele>
        <time>2025-05-25T08:33:34.000Z</time>
      </trkpt>
      <trkpt lat="43.07806" lon="5.91605">
        <ele>86.1</ele>
        <time>2025-05-25T08:33:41.000Z</time>
      </trkpt>
      <trkpt lat="43.07806" lon="5.91605">
        <ele>86</ele>
        <time>2025-05-25T08:33:42.000Z</time>
      </trkpt>
      <trkpt lat="43.07806" lon="5.91606">
        <ele>86</ele>
        <time>2025-05-25T08:33:48.000Z</time>
      </trkpt>
      <trkpt lat="43.07806" lon="5.91606">
        <ele>86.1</ele>
        <time>2025-05-25T08:33:49.000Z</time>
      </trkpt>
      <trkpt lat="43.07806" lon="5.91606">
        <ele>86.1</ele>
        <time>2025-05-25T08:33:58.000Z</time>
      </trkpt>
      <trkpt lat="43.07806" lon="5.91606">
        <ele>86.1</ele>
        <time>2025-05-25T08:33:59.000Z</time>
      </trkpt>
      <trkpt lat="43.07806" lon="5.91606">
        <ele>86.1</ele>
        <time>2025-05-25T08:34:00.000Z</time>
      </trkpt>
      <trkpt lat="43.07806" lon="5.91606">
        <ele>85.4</ele>
        <time>2025-05-25T08:34:07.000Z</time>
      </trkpt>
      <trkpt lat="43.07806" lon="5.91606">
        <ele>85.3</ele>
        <time>2025-05-25T08:34:08.000Z</time>
      </trkpt>
      <trkpt lat="43.07806" lon="5.91606">
        <ele>85.3</ele>
        <time>2025-05-25T08:34:09.000Z</time>
      </trkpt>
      <trkpt lat="43.07806" lon="5.91606">
        <ele>86.7</ele>
        <time>2025-05-25T08:34:13.000Z</time>
      </trkpt>
      <trkpt lat="43.07806" lon="5.91606">
        <ele>86.7</ele>
        <time>2025-05-25T08:34:14.000Z</time>
      </trkpt>
      <trkpt lat="43.07806" lon="5.91606">
        <ele>86.7</ele>
        <time>2025-05-25T08:34:15.000Z</time>
      </trkpt>
      <trkpt lat="43.07806" lon="5.91606">
        <ele>86.6</ele>
        <time>2025-05-25T08:34:16.000Z</time>
      </trkpt>
      <trkpt lat="43.07806" lon="5.91606">
        <ele>86.6</ele>
        <time>2025-05-25T08:34:17.000Z</time>
      </trkpt>
      <trkpt lat="43.07806" lon="5.91606">
        <ele>86.5</ele>
        <time>2025-05-25T08:34:20.000Z</time>
      </trkpt>
      <trkpt lat="43.07806" lon="5.91606">
        <ele>86.4</ele>
        <time>2025-05-25T08:34:21.000Z</time>
      </trkpt>
      <trkpt lat="43.07807" lon="5.91606">
        <ele>86.3</ele>
        <time>2025-05-25T08:34:30.000Z</time>
      </trkpt>
      <trkpt lat="43.07807" lon="5.91606">
        <ele>86.2</ele>
        <time>2025-05-25T08:34:31.000Z</time>
      </trkpt>
      <trkpt lat="43.07807" lon="5.91606">
        <ele>86.2</ele>
        <time>2025-05-25T08:34:35.000Z</time>
      </trkpt>
      <trkpt lat="43.07807" lon="5.91606">
        <ele>86.2</ele>
        <time>2025-05-25T08:34:36.000Z</time>
      </trkpt>
      <trkpt lat="43.07807" lon="5.91606">
        <ele>86.2</ele>
        <time>2025-05-25T08:34:37.000Z</time>
      </trkpt>
      <trkpt lat="43.07807" lon="5.91605">
        <ele>86.2</ele>
        <time>2025-05-25T08:34:38.000Z</time>
      </trkpt>
      <trkpt lat="43.07807" lon="5.91605">
        <ele>86.2</ele>
        <time>2025-05-25T08:34:39.000Z</time>
      </trkpt>
      <trkpt lat="43.07807" lon="5.91605">
        <ele>86.2</ele>
        <time>2025-05-25T08:34:40.000Z</time>
      </trkpt>
      <trkpt lat="43.07807" lon="5.91605">
        <ele>86.2</ele>
        <time>2025-05-25T08:34:41.000Z</time>
      </trkpt>
      <trkpt lat="43.07807" lon="5.91605">
        <ele>86.2</ele>
        <time>2025-05-25T08:34:42.000Z</time>
      </trkpt>
      <trkpt lat="43.07807" lon="5.91605">
        <ele>86.2</ele>
        <time>2025-05-25T08:34:43.000Z</time>
      </trkpt>
      <trkpt lat="43.07807" lon="5.91605">
        <ele>86.2</ele>
        <time>2025-05-25T08:34:44.000Z</time>
      </trkpt>
      <trkpt lat="43.07807" lon="5.91605">
        <ele>86.1</ele>
        <time>2025-05-25T08:34:50.000Z</time>
      </trkpt>
      <trkpt lat="43.07807" lon="5.91605">
        <ele>86</ele>
        <time>2025-05-25T08:34:51.000Z</time>
      </trkpt>
      <trkpt lat="43.07807" lon="5.91605">
        <ele>85.9</ele>
        <time>2025-05-25T08:34:52.000Z</time>
      </trkpt>
      <trkpt lat="43.07807" lon="5.91605">
        <ele>85.9</ele>
        <time>2025-05-25T08:34:53.000Z</time>
      </trkpt>
      <trkpt lat="43.07807" lon="5.91605">
        <ele>85.9</ele>
        <time>2025-05-25T08:34:54.000Z</time>
      </trkpt>
      <trkpt lat="43.07807" lon="5.91605">
        <ele>86.2</ele>
        <time>2025-05-25T08:34:57.000Z</time>
      </trkpt>
      <trkpt lat="43.07807" lon="5.91606">
        <ele>86.3</ele>
        <time>2025-05-25T08:34:58.000Z</time>
      </trkpt>
      <trkpt lat="43.07807" lon="5.91606">
        <ele>86.3</ele>
        <time>2025-05-25T08:34:59.000Z</time>
      </trkpt>
      <trkpt lat="43.07807" lon="5.91606">
        <ele>86.3</ele>
        <time>2025-05-25T08:35:00.000Z</time>
      </trkpt>
      <trkpt lat="43.07807" lon="5.91606">
        <ele>86.3</ele>
        <time>2025-05-25T08:35:01.000Z</time>
      </trkpt>
      <trkpt lat="43.07807" lon="5.91606">
        <ele>86.2</ele>
        <time>2025-05-25T08:35:12.000Z</time>
      </trkpt>
      <trkpt lat="43.07807" lon="5.91606">
        <ele>86.2</ele>
        <time>2025-05-25T08:35:13.000Z</time>
      </trkpt>
      <trkpt lat="43.07807" lon="5.91606">
        <ele>86.2</ele>
        <time>2025-05-25T08:35:14.000Z</time>
      </trkpt>
      <trkpt lat="43.07807" lon="5.91606">
        <ele>86.1</ele>
        <time>2025-05-25T08:35:21.000Z</time>
      </trkpt>
      <trkpt lat="43.07807" lon="5.91606">
        <ele>86.1</ele>
        <time>2025-05-25T08:35:22.000Z</time>
      </trkpt>
      <trkpt lat="43.07807" lon="5.91605">
        <ele>86.1</ele>
        <time>2025-05-25T08:35:36.000Z</time>
      </trkpt>
      <trkpt lat="43.07808" lon="5.91605">
        <ele>86.1</ele>
        <time>2025-05-25T08:35:37.000Z</time>
      </trkpt>
      <trkpt lat="43.07809" lon="5.91604">
        <ele>85.7</ele>
        <time>2025-05-25T08:35:42.000Z</time>
      </trkpt>
      <trkpt lat="43.07809" lon="5.91604">
        <ele>85.8</ele>
        <time>2025-05-25T08:35:43.000Z</time>
      </trkpt>
      <trkpt lat="43.07809" lon="5.91604">
        <ele>85.8</ele>
        <time>2025-05-25T08:35:44.000Z</time>
      </trkpt>
      <trkpt lat="43.07808" lon="5.91604">
        <ele>86.8</ele>
        <time>2025-05-25T08:35:50.000Z</time>
      </trkpt>
      <trkpt lat="43.07808" lon="5.91605">
        <ele>86.8</ele>
        <time>2025-05-25T08:35:51.000Z</time>
      </trkpt>
      <trkpt lat="43.07807" lon="5.91605">
        <ele>86.7</ele>
        <time>2025-05-25T08:35:52.000Z</time>
      </trkpt>
      <trkpt lat="43.07807" lon="5.91605">
        <ele>86.5</ele>
        <time>2025-05-25T08:35:57.000Z</time>
      </trkpt>
      <trkpt lat="43.07807" lon="5.91605">
        <ele>86.5</ele>
        <time>2025-05-25T08:35:58.000Z</time>
      </trkpt>
      <trkpt lat="43.07807" lon="5.91605">
        <ele>86.5</ele>
        <time>2025-05-25T08:35:59.000Z</time>
      </trkpt>
      <trkpt lat="43.07807" lon="5.91605">
        <ele>86.4</ele>
        <time>2025-05-25T08:36:00.000Z</time>
      </trkpt>
      <trkpt lat="43.07807" lon="5.91605">
        <ele>86.4</ele>
        <time>2025-05-25T08:36:01.000Z</time>
      </trkpt>
      <trkpt lat="43.07807" lon="5.91605">
        <ele>86.4</ele>
        <time>2025-05-25T08:36:02.000Z</time>
      </trkpt>
      <trkpt lat="43.07807" lon="5.91605">
        <ele>86.3</ele>
        <time>2025-05-25T08:36:03.000Z</time>
      </trkpt>
      <trkpt lat="43.07807" lon="5.91605">
        <ele>86.3</ele>
        <time>2025-05-25T08:36:04.000Z</time>
      </trkpt>
      <trkpt lat="43.07806" lon="5.91607">
        <ele>86.2</ele>
        <time>2025-05-25T08:36:18.000Z</time>
      </trkpt>
      <trkpt lat="43.07806" lon="5.91607">
        <ele>85.9</ele>
        <time>2025-05-25T08:36:19.000Z</time>
      </trkpt>
      <trkpt lat="43.07807" lon="5.91607">
        <ele>87.2</ele>
        <time>2025-05-25T08:36:23.000Z</time>
      </trkpt>
      <trkpt lat="43.07807" lon="5.91607">
        <ele>87.2</ele>
        <time>2025-05-25T08:36:24.000Z</time>
      </trkpt>
      <trkpt lat="43.07807" lon="5.91607">
        <ele>86.7</ele>
        <time>2025-05-25T08:36:30.000Z</time>
      </trkpt>
      <trkpt lat="43.07807" lon="5.91607">
        <ele>86.6</ele>
        <time>2025-05-25T08:36:31.000Z</time>
      </trkpt>
      <trkpt lat="43.07807" lon="5.91607">
        <ele>86.6</ele>
        <time>2025-05-25T08:36:32.000Z</time>
      </trkpt>
      <trkpt lat="43.07807" lon="5.91607">
        <ele>86.5</ele>
        <time>2025-05-25T08:36:33.000Z</time>
      </trkpt>
      <trkpt lat="43.07807" lon="5.91607">
        <ele>86.5</ele>
        <time>2025-05-25T08:36:34.000Z</time>
      </trkpt>
      <trkpt lat="43.07807" lon="5.91607">
        <ele>86.4</ele>
        <time>2025-05-25T08:36:42.000Z</time>
      </trkpt>
      <trkpt lat="43.07807" lon="5.91607">
        <ele>86.4</ele>
        <time>2025-05-25T08:36:43.000Z</time>
      </trkpt>
      <trkpt lat="43.07807" lon="5.91607">
        <ele>86.3</ele>
        <time>2025-05-25T08:36:44.000Z</time>
      </trkpt>
      <trkpt lat="43.07807" lon="5.91607">
        <ele>86.3</ele>
        <time>2025-05-25T08:36:45.000Z</time>
      </trkpt>
      <trkpt lat="43.07807" lon="5.91607">
        <ele>86.1</ele>
        <time>2025-05-25T08:36:46.000Z</time>
      </trkpt>
      <trkpt lat="43.07807" lon="5.91607">
        <ele>85.7</ele>
        <time>2025-05-25T08:36:47.000Z</time>
      </trkpt>
      <trkpt lat="43.07807" lon="5.91606">
        <ele>86.7</ele>
        <time>2025-05-25T08:36:55.000Z</time>
      </trkpt>
      <trkpt lat="43.07807" lon="5.91606">
        <ele>86.6</ele>
        <time>2025-05-25T08:36:56.000Z</time>
      </trkpt>
      <trkpt lat="43.07807" lon="5.91606">
        <ele>86.6</ele>
        <time>2025-05-25T08:36:57.000Z</time>
      </trkpt>
      <trkpt lat="43.07806" lon="5.91607">
        <ele>86.3</ele>
        <time>2025-05-25T08:37:21.000Z</time>
      </trkpt>
      <trkpt lat="43.07806" lon="5.91607">
        <ele>86.3</ele>
        <time>2025-05-25T08:37:22.000Z</time>
      </trkpt>
      <trkpt lat="43.07806" lon="5.91607">
        <ele>86.2</ele>
        <time>2025-05-25T08:37:25.000Z</time>
      </trkpt>
      <trkpt lat="43.07806" lon="5.91607">
        <ele>86.2</ele>
        <time>2025-05-25T08:37:26.000Z</time>
      </trkpt>
      <trkpt lat="43.07806" lon="5.91607">
        <ele>86.6</ele>
        <time>2025-05-25T08:37:38.000Z</time>
      </trkpt>
      <trkpt lat="43.07806" lon="5.91607">
        <ele>86.6</ele>
        <time>2025-05-25T08:37:39.000Z</time>
      </trkpt>
      <trkpt lat="43.07807" lon="5.91607">
        <ele>86.5</ele>
        <time>2025-05-25T08:37:46.000Z</time>
      </trkpt>
      <trkpt lat="43.07807" lon="5.91608">
        <ele>86.5</ele>
        <time>2025-05-25T08:37:47.000Z</time>
      </trkpt>
      <trkpt lat="43.07806" lon="5.91607">
        <ele>86.5</ele>
        <time>2025-05-25T08:37:52.000Z</time>
      </trkpt>
      <trkpt lat="43.07806" lon="5.91607">
        <ele>86.5</ele>
        <time>2025-05-25T08:37:53.000Z</time>
      </trkpt>
      <trkpt lat="43.07806" lon="5.91607">
        <ele>86.5</ele>
        <time>2025-05-25T08:37:54.000Z</time>
      </trkpt>
      <trkpt lat="43.07807" lon="5.91608">
        <ele>86.5</ele>
        <time>2025-05-25T08:38:10.000Z</time>
      </trkpt>
      <trkpt lat="43.07807" lon="5.91608">
        <ele>86.5</ele>
        <time>2025-05-25T08:38:11.000Z</time>
      </trkpt>
      <trkpt lat="43.07806" lon="5.91607">
        <ele>86.5</ele>
        <time>2025-05-25T08:38:15.000Z</time>
      </trkpt>
      <trkpt lat="43.07806" lon="5.91607">
        <ele>86.5</ele>
        <time>2025-05-25T08:38:16.000Z</time>
      </trkpt>
      <trkpt lat="43.07806" lon="5.91607">
        <ele>86.6</ele>
        <time>2025-05-25T08:38:45.000Z</time>
      </trkpt>
      <trkpt lat="43.07806" lon="5.91607">
        <ele>86.6</ele>
        <time>2025-05-25T08:38:46.000Z</time>
      </trkpt>
      <trkpt lat="43.07806" lon="5.91607">
        <ele>86.6</ele>
        <time>2025-05-25T08:38:47.000Z</time>
      </trkpt>
      <trkpt lat="43.07806" lon="5.91607">
        <ele>86.6</ele>
        <time>2025-05-25T08:38:48.000Z</time>
      </trkpt>
      <trkpt lat="43.07806" lon="5.91607">
        <ele>86.6</ele>
        <time>2025-05-25T08:38:49.000Z</time>
      </trkpt>
      <trkpt lat="43.07807" lon="5.91608">
        <ele>86.6</ele>
        <time>2025-05-25T08:39:15.000Z</time>
      </trkpt>
      <trkpt lat="43.07807" lon="5.91608">
        <ele>86.6</ele>
        <time>2025-05-25T08:39:16.000Z</time>
      </trkpt>
      <trkpt lat="43.07808" lon="5.91609">
        <ele>86.6</ele>
        <time>2025-05-25T08:39:17.000Z</time>
      </trkpt>
      <trkpt lat="43.07808" lon="5.91609">
        <ele>86.6</ele>
        <time>2025-05-25T08:39:20.000Z</time>
      </trkpt>
      <trkpt lat="43.07808" lon="5.91609">
        <ele>86.6</ele>
        <time>2025-05-25T08:39:21.000Z</time>
      </trkpt>
      <trkpt lat="43.07808" lon="5.91609">
        <ele>86.6</ele>
        <time>2025-05-25T08:39:25.000Z</time>
      </trkpt>
      <trkpt lat="43.07809" lon="5.9161">
        <ele>86.6</ele>
        <time>2025-05-25T08:39:26.000Z</time>
      </trkpt>
      <trkpt lat="43.07816" lon="5.91617">
        <ele>86.8</ele>
        <time>2025-05-25T08:39:40.000Z</time>
      </trkpt>
      <trkpt lat="43.07824" lon="5.91624">
        <ele>88.9</ele>
        <time>2025-05-25T08:40:00.000Z</time>
      </trkpt>
      <trkpt lat="43.07825" lon="5.91628">
        <ele>90</ele>
        <time>2025-05-25T08:40:12.000Z</time>
      </trkpt>
      <trkpt lat="43.07825" lon="5.91628">
        <ele>90</ele>
        <time>2025-05-25T08:40:13.000Z</time>
      </trkpt>
      <trkpt lat="43.07826" lon="5.91628">
        <ele>90</ele>
        <time>2025-05-25T08:40:14.000Z</time>
      </trkpt>
      <trkpt lat="43.07826" lon="5.91628">
        <ele>90.1</ele>
        <time>2025-05-25T08:40:15.000Z</time>
      </trkpt>
      <trkpt lat="43.07826" lon="5.91628">
        <ele>90.1</ele>
        <time>2025-05-25T08:40:16.000Z</time>
      </trkpt>
      <trkpt lat="43.07832" lon="5.91639">
        <ele>90.7</ele>
        <time>2025-05-25T08:40:28.000Z</time>
      </trkpt>
      <trkpt lat="43.07836" lon="5.9165">
        <ele>91.4</ele>
        <time>2025-05-25T08:40:41.000Z</time>
      </trkpt>
      <trkpt lat="43.07841" lon="5.91661">
        <ele>91.9</ele>
        <time>2025-05-25T08:40:53.000Z</time>
      </trkpt>
      <trkpt lat="43.0785" lon="5.91656">
        <ele>93.2</ele>
        <time>2025-05-25T08:41:19.000Z</time>
      </trkpt>
      <trkpt lat="43.07859" lon="5.91652">
        <ele>93.7</ele>
        <time>2025-05-25T08:41:32.000Z</time>
      </trkpt>
      <trkpt lat="43.07868" lon="5.91652">
        <ele>94.5</ele>
        <time>2025-05-25T08:41:45.000Z</time>
      </trkpt>
      <trkpt lat="43.07877" lon="5.91648">
        <ele>95.1</ele>
        <time>2025-05-25T08:41:56.000Z</time>
      </trkpt>
      <trkpt lat="43.07884" lon="5.91638">
        <ele>94.9</ele>
        <time>2025-05-25T08:42:08.000Z</time>
      </trkpt>
      <trkpt lat="43.07893" lon="5.91637">
        <ele>94.3</ele>
        <time>2025-05-25T08:42:22.000Z</time>
      </trkpt>
      <trkpt lat="43.07897" lon="5.91636">
        <ele>93.9</ele>
        <time>2025-05-25T08:42:32.000Z</time>
      </trkpt>
      <trkpt lat="43.07897" lon="5.91636">
        <ele>93.8</ele>
        <time>2025-05-25T08:42:33.000Z</time>
      </trkpt>
      <trkpt lat="43.07897" lon="5.91636">
        <ele>93.8</ele>
        <time>2025-05-25T08:42:34.000Z</time>
      </trkpt>
      <trkpt lat="43.07897" lon="5.91636">
        <ele>93.8</ele>
        <time>2025-05-25T08:42:35.000Z</time>
      </trkpt>
      <trkpt lat="43.07898" lon="5.91635">
        <ele>93.7</ele>
        <time>2025-05-25T08:42:36.000Z</time>
      </trkpt>
      <trkpt lat="43.07899" lon="5.91635">
        <ele>93.7</ele>
        <time>2025-05-25T08:42:37.000Z</time>
      </trkpt>
      <trkpt lat="43.07899" lon="5.91635">
        <ele>93.6</ele>
        <time>2025-05-25T08:42:41.000Z</time>
      </trkpt>
      <trkpt lat="43.07899" lon="5.91634">
        <ele>93.6</ele>
        <time>2025-05-25T08:42:42.000Z</time>
      </trkpt>
      <trkpt lat="43.07899" lon="5.91634">
        <ele>93.6</ele>
        <time>2025-05-25T08:42:43.000Z</time>
      </trkpt>
      <trkpt lat="43.079" lon="5.91634">
        <ele>93.6</ele>
        <time>2025-05-25T08:42:44.000Z</time>
      </trkpt>
      <trkpt lat="43.07903" lon="5.91631">
        <ele>92.9</ele>
        <time>2025-05-25T08:43:05.000Z</time>
      </trkpt>
      <trkpt lat="43.07903" lon="5.91631">
        <ele>92.8</ele>
        <time>2025-05-25T08:43:06.000Z</time>
      </trkpt>
      <trkpt lat="43.07903" lon="5.91631">
        <ele>92.6</ele>
        <time>2025-05-25T08:43:10.000Z</time>
      </trkpt>
      <trkpt lat="43.07903" lon="5.91631">
        <ele>92.6</ele>
        <time>2025-05-25T08:43:11.000Z</time>
      </trkpt>
      <trkpt lat="43.07903" lon="5.91631">
        <ele>92.6</ele>
        <time>2025-05-25T08:43:12.000Z</time>
      </trkpt>
      <trkpt lat="43.07903" lon="5.91631">
        <ele>92.6</ele>
        <time>2025-05-25T08:43:13.000Z</time>
      </trkpt>
      <trkpt lat="43.07903" lon="5.91631">
        <ele>92.5</ele>
        <time>2025-05-25T08:43:14.000Z</time>
      </trkpt>
      <trkpt lat="43.07903" lon="5.91631">
        <ele>92.5</ele>
        <time>2025-05-25T08:43:15.000Z</time>
      </trkpt>
      <trkpt lat="43.07903" lon="5.91631">
        <ele>92.5</ele>
        <time>2025-05-25T08:43:16.000Z</time>
      </trkpt>
      <trkpt lat="43.07903" lon="5.91631">
        <ele>92.6</ele>
        <time>2025-05-25T08:43:17.000Z</time>
      </trkpt>
      <trkpt lat="43.07901" lon="5.91628">
        <ele>93</ele>
        <time>2025-05-25T08:43:28.000Z</time>
      </trkpt>
      <trkpt lat="43.07901" lon="5.91628">
        <ele>93</ele>
        <time>2025-05-25T08:43:29.000Z</time>
      </trkpt>
      <trkpt lat="43.07902" lon="5.91627">
        <ele>92.9</ele>
        <time>2025-05-25T08:43:35.000Z</time>
      </trkpt>
      <trkpt lat="43.07903" lon="5.91627">
        <ele>92.9</ele>
        <time>2025-05-25T08:43:36.000Z</time>
      </trkpt>
      <trkpt lat="43.07908" lon="5.91623">
        <ele>92.6</ele>
        <time>2025-05-25T08:43:48.000Z</time>
      </trkpt>
      <trkpt lat="43.07909" lon="5.91623">
        <ele>92.6</ele>
        <time>2025-05-25T08:43:49.000Z</time>
      </trkpt>
      <trkpt lat="43.07909" lon="5.91623">
        <ele>92.5</ele>
        <time>2025-05-25T08:43:50.000Z</time>
      </trkpt>
      <trkpt lat="43.07909" lon="5.91623">
        <ele>92.5</ele>
        <time>2025-05-25T08:43:51.000Z</time>
      </trkpt>
      <trkpt lat="43.07909" lon="5.91623">
        <ele>92.5</ele>
        <time>2025-05-25T08:43:52.000Z</time>
      </trkpt>
      <trkpt lat="43.07911" lon="5.91618">
        <ele>92.1</ele>
        <time>2025-05-25T08:44:02.000Z</time>
      </trkpt>
      <trkpt lat="43.07911" lon="5.91618">
        <ele>92.1</ele>
        <time>2025-05-25T08:44:03.000Z</time>
      </trkpt>
      <trkpt lat="43.07911" lon="5.91618">
        <ele>92.1</ele>
        <time>2025-05-25T08:44:04.000Z</time>
      </trkpt>
      <trkpt lat="43.07911" lon="5.91618">
        <ele>92</ele>
        <time>2025-05-25T08:44:05.000Z</time>
      </trkpt>
      <trkpt lat="43.07912" lon="5.91617">
        <ele>92</ele>
        <time>2025-05-25T08:44:06.000Z</time>
      </trkpt>
      <trkpt lat="43.07912" lon="5.91616">
        <ele>92</ele>
        <time>2025-05-25T08:44:07.000Z</time>
      </trkpt>
      <trkpt lat="43.07919" lon="5.91608">
        <ele>91.1</ele>
        <time>2025-05-25T08:44:28.000Z</time>
      </trkpt>
      <trkpt lat="43.07923" lon="5.91605">
        <ele>90.9</ele>
        <time>2025-05-25T08:44:37.000Z</time>
      </trkpt>
      <trkpt lat="43.07923" lon="5.91605">
        <ele>90.9</ele>
        <time>2025-05-25T08:44:38.000Z</time>
      </trkpt>
      <trkpt lat="43.07923" lon="5.91605">
        <ele>90.9</ele>
        <time>2025-05-25T08:44:39.000Z</time>
      </trkpt>
      <trkpt lat="43.07924" lon="5.91605">
        <ele>90.8</ele>
        <time>2025-05-25T08:44:42.000Z</time>
      </trkpt>
      <trkpt lat="43.07924" lon="5.91603">
        <ele>90.8</ele>
        <time>2025-05-25T08:44:43.000Z</time>
      </trkpt>
      <trkpt lat="43.07924" lon="5.91602">
        <ele>90.8</ele>
        <time>2025-05-25T08:44:44.000Z</time>
      </trkpt>
      <trkpt lat="43.07921" lon="5.91593">
        <ele>90.5</ele>
        <time>2025-05-25T08:44:52.000Z</time>
      </trkpt>
      <trkpt lat="43.07921" lon="5.91593">
        <ele>90.5</ele>
        <time>2025-05-25T08:44:53.000Z</time>
      </trkpt>
      <trkpt lat="43.07921" lon="5.91593">
        <ele>90.4</ele>
        <time>2025-05-25T08:44:54.000Z</time>
      </trkpt>
      <trkpt lat="43.0792" lon="5.91592">
        <ele>90.1</ele>
        <time>2025-05-25T08:45:06.000Z</time>
      </trkpt>
      <trkpt lat="43.0792" lon="5.91592">
        <ele>90.1</ele>
        <time>2025-05-25T08:45:07.000Z</time>
      </trkpt>
      <trkpt lat="43.07922" lon="5.91592">
        <ele>89.9</ele>
        <time>2025-05-25T08:45:15.000Z</time>
      </trkpt>
      <trkpt lat="43.07922" lon="5.91592">
        <ele>89.9</ele>
        <time>2025-05-25T08:45:16.000Z</time>
      </trkpt>
      <trkpt lat="43.07922" lon="5.91592">
        <ele>89.7</ele>
        <time>2025-05-25T08:45:25.000Z</time>
      </trkpt>
      <trkpt lat="43.07922" lon="5.91592">
        <ele>89.7</ele>
        <time>2025-05-25T08:45:26.000Z</time>
      </trkpt>
      <trkpt lat="43.07922" lon="5.91592">
        <ele>89.7</ele>
        <time>2025-05-25T08:45:27.000Z</time>
      </trkpt>
      <trkpt lat="43.07922" lon="5.91592">
        <ele>89.7</ele>
        <time>2025-05-25T08:45:28.000Z</time>
      </trkpt>
      <trkpt lat="43.07922" lon="5.91592">
        <ele>89.7</ele>
        <time>2025-05-25T08:45:29.000Z</time>
      </trkpt>
      <trkpt lat="43.07922" lon="5.91591">
        <ele>89.6</ele>
        <time>2025-05-25T08:45:51.000Z</time>
      </trkpt>
      <trkpt lat="43.07923" lon="5.9159">
        <ele>89.6</ele>
        <time>2025-05-25T08:45:52.000Z</time>
      </trkpt>
      <trkpt lat="43.07931" lon="5.91583">
        <ele>89.4</ele>
        <time>2025-05-25T08:46:12.000Z</time>
      </trkpt>
      <trkpt lat="43.07936" lon="5.91572">
        <ele>88.4</ele>
        <time>2025-05-25T08:46:27.000Z</time>
      </trkpt>
      <trkpt lat="43.07942" lon="5.91562">
        <ele>87.2</ele>
        <time>2025-05-25T08:46:44.000Z</time>
      </trkpt>
      <trkpt lat="43.07946" lon="5.9155">
        <ele>86.8</ele>
        <time>2025-05-25T08:46:51.000Z</time>
      </trkpt>
      <trkpt lat="43.07949" lon="5.91538">
        <ele>86.4</ele>
        <time>2025-05-25T08:47:00.000Z</time>
      </trkpt>
      <trkpt lat="43.07948" lon="5.91525">
        <ele>86.1</ele>
        <time>2025-05-25T08:47:09.000Z</time>
      </trkpt>
      <trkpt lat="43.07948" lon="5.91512">
        <ele>85.9</ele>
        <time>2025-05-25T08:47:19.000Z</time>
      </trkpt>
      <trkpt lat="43.07954" lon="5.91502">
        <ele>85.5</ele>
        <time>2025-05-25T08:47:32.000Z</time>
      </trkpt>
      <trkpt lat="43.07959" lon="5.91491">
        <ele>84.9</ele>
        <time>2025-05-25T08:47:42.000Z</time>
      </trkpt>
      <trkpt lat="43.07968" lon="5.91484">
        <ele>84</ele>
        <time>2025-05-25T08:47:56.000Z</time>
      </trkpt>
      <trkpt lat="43.0797" lon="5.91482">
        <ele>83.8</ele>
        <time>2025-05-25T08:48:02.000Z</time>
      </trkpt>
      <trkpt lat="43.0797" lon="5.91482">
        <ele>83.7</ele>
        <time>2025-05-25T08:48:03.000Z</time>
      </trkpt>
      <trkpt lat="43.0797" lon="5.91482">
        <ele>83.7</ele>
        <time>2025-05-25T08:48:04.000Z</time>
      </trkpt>
      <trkpt lat="43.0797" lon="5.91481">
        <ele>83.6</ele>
        <time>2025-05-25T08:48:05.000Z</time>
      </trkpt>
      <trkpt lat="43.0797" lon="5.91481">
        <ele>83.6</ele>
        <time>2025-05-25T08:48:06.000Z</time>
      </trkpt>
      <trkpt lat="43.0797" lon="5.91481">
        <ele>83.5</ele>
        <time>2025-05-25T08:48:07.000Z</time>
      </trkpt>
      <trkpt lat="43.07975" lon="5.9147">
        <ele>82.8</ele>
        <time>2025-05-25T08:48:20.000Z</time>
      </trkpt>
      <trkpt lat="43.07973" lon="5.91458">
        <ele>82.3</ele>
        <time>2025-05-25T08:48:48.000Z</time>
      </trkpt>
      <trkpt lat="43.07973" lon="5.91458">
        <ele>82.3</ele>
        <time>2025-05-25T08:48:52.000Z</time>
      </trkpt>
      <trkpt lat="43.07973" lon="5.91458">
        <ele>82.4</ele>
        <time>2025-05-25T08:48:53.000Z</time>
      </trkpt>
      <trkpt lat="43.07973" lon="5.91458">
        <ele>82.4</ele>
        <time>2025-05-25T08:48:54.000Z</time>
      </trkpt>
      <trkpt lat="43.07973" lon="5.91458">
        <ele>82.3</ele>
        <time>2025-05-25T08:48:58.000Z</time>
      </trkpt>
      <trkpt lat="43.07973" lon="5.91458">
        <ele>82.3</ele>
        <time>2025-05-25T08:48:59.000Z</time>
      </trkpt>
      <trkpt lat="43.07973" lon="5.91458">
        <ele>82.3</ele>
        <time>2025-05-25T08:49:00.000Z</time>
      </trkpt>
      <trkpt lat="43.07973" lon="5.91458">
        <ele>82.3</ele>
        <time>2025-05-25T08:49:01.000Z</time>
      </trkpt>
      <trkpt lat="43.07973" lon="5.91458">
        <ele>82.3</ele>
        <time>2025-05-25T08:49:20.000Z</time>
      </trkpt>
      <trkpt lat="43.07973" lon="5.91458">
        <ele>82.3</ele>
        <time>2025-05-25T08:49:21.000Z</time>
      </trkpt>
      <trkpt lat="43.07973" lon="5.91459">
        <ele>82.3</ele>
        <time>2025-05-25T08:49:22.000Z</time>
      </trkpt>
      <trkpt lat="43.07974" lon="5.91456">
        <ele>82.2</ele>
        <time>2025-05-25T08:49:33.000Z</time>
      </trkpt>
      <trkpt lat="43.07974" lon="5.91456">
        <ele>82.2</ele>
        <time>2025-05-25T08:49:34.000Z</time>
      </trkpt>
      <trkpt lat="43.07974" lon="5.91455">
        <ele>82.2</ele>
        <time>2025-05-25T08:49:35.000Z</time>
      </trkpt>
      <trkpt lat="43.07974" lon="5.91455">
        <ele>82.1</ele>
        <time>2025-05-25T08:49:36.000Z</time>
      </trkpt>
      <trkpt lat="43.07975" lon="5.91455">
        <ele>82.1</ele>
        <time>2025-05-25T08:49:37.000Z</time>
      </trkpt>
      <trkpt lat="43.07975" lon="5.91442">
        <ele>81.3</ele>
        <time>2025-05-25T08:49:48.000Z</time>
      </trkpt>
      <trkpt lat="43.07978" lon="5.9143">
        <ele>79.3</ele>
        <time>2025-05-25T08:50:02.000Z</time>
      </trkpt>
      <trkpt lat="43.0798" lon="5.91417">
        <ele>77.9</ele>
        <time>2025-05-25T08:50:19.000Z</time>
      </trkpt>
      <trkpt lat="43.07982" lon="5.91404">
        <ele>76.1</ele>
        <time>2025-05-25T08:50:36.000Z</time>
      </trkpt>
      <trkpt lat="43.07983" lon="5.91392">
        <ele>73.7</ele>
        <time>2025-05-25T08:50:54.000Z</time>
      </trkpt>
      <trkpt lat="43.07981" lon="5.9138">
        <ele>70.6</ele>
        <time>2025-05-25T08:51:15.000Z</time>
      </trkpt>
      <trkpt lat="43.07982" lon="5.91367">
        <ele>68</ele>
        <time>2025-05-25T08:51:38.000Z</time>
      </trkpt>
      <trkpt lat="43.07981" lon="5.91366">
        <ele>67.3</ele>
        <time>2025-05-25T08:51:53.000Z</time>
      </trkpt>
      <trkpt lat="43.07981" lon="5.91366">
        <ele>67.2</ele>
        <time>2025-05-25T08:51:54.000Z</time>
      </trkpt>
      <trkpt lat="43.07981" lon="5.91366">
        <ele>67.1</ele>
        <time>2025-05-25T08:52:15.000Z</time>
      </trkpt>
      <trkpt lat="43.07981" lon="5.91366">
        <ele>67.1</ele>
        <time>2025-05-25T08:52:16.000Z</time>
      </trkpt>
      <trkpt lat="43.07981" lon="5.91366">
        <ele>67</ele>
        <time>2025-05-25T08:52:17.000Z</time>
      </trkpt>
      <trkpt lat="43.07982" lon="5.91365">
        <ele>67</ele>
        <time>2025-05-25T08:52:22.000Z</time>
      </trkpt>
      <trkpt lat="43.07982" lon="5.91365">
        <ele>67</ele>
        <time>2025-05-25T08:52:23.000Z</time>
      </trkpt>
      <trkpt lat="43.07981" lon="5.91365">
        <ele>66.9</ele>
        <time>2025-05-25T08:52:24.000Z</time>
      </trkpt>
      <trkpt lat="43.07981" lon="5.91365">
        <ele>66.9</ele>
        <time>2025-05-25T08:52:35.000Z</time>
      </trkpt>
      <trkpt lat="43.07981" lon="5.91365">
        <ele>66.9</ele>
        <time>2025-05-25T08:52:36.000Z</time>
      </trkpt>
      <trkpt lat="43.07981" lon="5.91365">
        <ele>66.9</ele>
        <time>2025-05-25T08:52:37.000Z</time>
      </trkpt>
      <trkpt lat="43.07981" lon="5.91365">
        <ele>66.8</ele>
        <time>2025-05-25T08:52:38.000Z</time>
      </trkpt>
      <trkpt lat="43.07981" lon="5.91365">
        <ele>66.8</ele>
        <time>2025-05-25T08:52:39.000Z</time>
      </trkpt>
      <trkpt lat="43.07981" lon="5.91365">
        <ele>66.7</ele>
        <time>2025-05-25T08:53:10.000Z</time>
      </trkpt>
      <trkpt lat="43.07981" lon="5.91365">
        <ele>66.7</ele>
        <time>2025-05-25T08:53:11.000Z</time>
      </trkpt>
      <trkpt lat="43.07981" lon="5.91365">
        <ele>66.7</ele>
        <time>2025-05-25T08:53:12.000Z</time>
      </trkpt>
      <trkpt lat="43.07981" lon="5.91365">
        <ele>66.7</ele>
        <time>2025-05-25T08:53:13.000Z</time>
      </trkpt>
      <trkpt lat="43.07981" lon="5.91365">
        <ele>66.7</ele>
        <time>2025-05-25T08:53:14.000Z</time>
      </trkpt>
      <trkpt lat="43.07981" lon="5.91365">
        <ele>66.7</ele>
        <time>2025-05-25T08:53:20.000Z</time>
      </trkpt>
      <trkpt lat="43.07981" lon="5.91365">
        <ele>66.7</ele>
        <time>2025-05-25T08:53:21.000Z</time>
      </trkpt>
      <trkpt lat="43.07981" lon="5.91365">
        <ele>66.7</ele>
        <time>2025-05-25T08:53:22.000Z</time>
      </trkpt>
      <trkpt lat="43.07981" lon="5.91365">
        <ele>66.7</ele>
        <time>2025-05-25T08:53:23.000Z</time>
      </trkpt>
      <trkpt lat="43.07981" lon="5.91365">
        <ele>66.7</ele>
        <time>2025-05-25T08:53:24.000Z</time>
      </trkpt>
      <trkpt lat="43.07982" lon="5.91364">
        <ele>66.7</ele>
        <time>2025-05-25T08:53:46.000Z</time>
      </trkpt>
      <trkpt lat="43.07982" lon="5.91364">
        <ele>66.7</ele>
        <time>2025-05-25T08:53:47.000Z</time>
      </trkpt>
      <trkpt lat="43.07982" lon="5.91352">
        <ele>66.2</ele>
        <time>2025-05-25T08:54:05.000Z</time>
      </trkpt>
      <trkpt lat="43.07982" lon="5.91352">
        <ele>66.2</ele>
        <time>2025-05-25T08:54:06.000Z</time>
      </trkpt>
      <trkpt lat="43.07982" lon="5.91352">
        <ele>66.1</ele>
        <time>2025-05-25T08:54:07.000Z</time>
      </trkpt>
      <trkpt lat="43.07982" lon="5.91352">
        <ele>66.1</ele>
        <time>2025-05-25T08:54:08.000Z</time>
      </trkpt>
      <trkpt lat="43.07982" lon="5.91351">
        <ele>66</ele>
        <time>2025-05-25T08:54:09.000Z</time>
      </trkpt>
      <trkpt lat="43.07985" lon="5.91339">
        <ele>64.4</ele>
        <time>2025-05-25T08:54:25.000Z</time>
      </trkpt>
      <trkpt lat="43.07989" lon="5.91328">
        <ele>61.7</ele>
        <time>2025-05-25T08:54:53.000Z</time>
      </trkpt>
      <trkpt lat="43.07997" lon="5.91322">
        <ele>59.6</ele>
        <time>2025-05-25T08:55:18.000Z</time>
      </trkpt>
      <trkpt lat="43.08005" lon="5.91316">
        <ele>57.8</ele>
        <time>2025-05-25T08:55:35.000Z</time>
      </trkpt>
      <trkpt lat="43.08006" lon="5.91314">
        <ele>56.9</ele>
        <time>2025-05-25T08:55:46.000Z</time>
      </trkpt>
      <trkpt lat="43.08006" lon="5.91314">
        <ele>56.9</ele>
        <time>2025-05-25T08:55:47.000Z</time>
      </trkpt>
      <trkpt lat="43.08006" lon="5.91314">
        <ele>56.8</ele>
        <time>2025-05-25T08:55:48.000Z</time>
      </trkpt>
      <trkpt lat="43.08007" lon="5.91314">
        <ele>56.7</ele>
        <time>2025-05-25T08:55:49.000Z</time>
      </trkpt>
      <trkpt lat="43.08016" lon="5.91314">
        <ele>54.7</ele>
        <time>2025-05-25T08:56:12.000Z</time>
      </trkpt>
      <trkpt lat="43.08017" lon="5.91313">
        <ele>54</ele>
        <time>2025-05-25T08:56:18.000Z</time>
      </trkpt>
      <trkpt lat="43.08017" lon="5.91313">
        <ele>53.9</ele>
        <time>2025-05-25T08:56:19.000Z</time>
      </trkpt>
      <trkpt lat="43.08017" lon="5.91313">
        <ele>53.8</ele>
        <time>2025-05-25T08:56:20.000Z</time>
      </trkpt>
      <trkpt lat="43.08017" lon="5.91313">
        <ele>53.8</ele>
        <time>2025-05-25T08:56:21.000Z</time>
      </trkpt>
      <trkpt lat="43.08025" lon="5.91309">
        <ele>52.5</ele>
        <time>2025-05-25T08:56:35.000Z</time>
      </trkpt>
      <trkpt lat="43.08026" lon="5.91311">
        <ele>51.8</ele>
        <time>2025-05-25T08:56:40.000Z</time>
      </trkpt>
      <trkpt lat="43.08026" lon="5.91311">
        <ele>51.7</ele>
        <time>2025-05-25T08:56:41.000Z</time>
      </trkpt>
      <trkpt lat="43.08026" lon="5.91309">
        <ele>51.2</ele>
        <time>2025-05-25T08:56:48.000Z</time>
      </trkpt>
      <trkpt lat="43.08026" lon="5.91309">
        <ele>51.1</ele>
        <time>2025-05-25T08:56:49.000Z</time>
      </trkpt>
      <trkpt lat="43.08025" lon="5.91306">
        <ele>50.5</ele>
        <time>2025-05-25T08:56:58.000Z</time>
      </trkpt>
      <trkpt lat="43.08025" lon="5.91305">
        <ele>50.5</ele>
        <time>2025-05-25T08:56:59.000Z</time>
      </trkpt>
      <trkpt lat="43.08024" lon="5.91305">
        <ele>50.4</ele>
        <time>2025-05-25T08:57:00.000Z</time>
      </trkpt>
      <trkpt lat="43.08024" lon="5.91305">
        <ele>50.4</ele>
        <time>2025-05-25T08:57:01.000Z</time>
      </trkpt>
      <trkpt lat="43.08024" lon="5.91305">
        <ele>50.4</ele>
        <time>2025-05-25T08:57:02.000Z</time>
      </trkpt>
      <trkpt lat="43.08024" lon="5.91305">
        <ele>50.4</ele>
        <time>2025-05-25T08:57:03.000Z</time>
      </trkpt>
      <trkpt lat="43.08024" lon="5.91305">
        <ele>50.4</ele>
        <time>2025-05-25T08:57:04.000Z</time>
      </trkpt>
      <trkpt lat="43.08024" lon="5.91306">
        <ele>49.8</ele>
        <time>2025-05-25T08:57:52.000Z</time>
      </trkpt>
      <trkpt lat="43.08025" lon="5.91307">
        <ele>49.9</ele>
        <time>2025-05-25T08:57:53.000Z</time>
      </trkpt>
      <trkpt lat="43.08026" lon="5.91308">
        <ele>49.9</ele>
        <time>2025-05-25T08:57:54.000Z</time>
      </trkpt>
      <trkpt lat="43.08029" lon="5.9132">
        <ele>49.9</ele>
        <time>2025-05-25T08:58:08.000Z</time>
      </trkpt>
      <trkpt lat="43.08037" lon="5.91327">
        <ele>50.2</ele>
        <time>2025-05-25T08:58:23.000Z</time>
      </trkpt>
      <trkpt lat="43.08044" lon="5.91335">
        <ele>50.3</ele>
        <time>2025-05-25T08:58:34.000Z</time>
      </trkpt>
      <trkpt lat="43.08052" lon="5.91342">
        <ele>50.3</ele>
        <time>2025-05-25T08:58:46.000Z</time>
      </trkpt>
      <trkpt lat="43.08058" lon="5.91352">
        <ele>50.7</ele>
        <time>2025-05-25T08:58:57.000Z</time>
      </trkpt>
      <trkpt lat="43.08064" lon="5.91362">
        <ele>51.1</ele>
        <time>2025-05-25T08:59:08.000Z</time>
      </trkpt>
      <trkpt lat="43.08068" lon="5.91374">
        <ele>51.5</ele>
        <time>2025-05-25T08:59:25.000Z</time>
      </trkpt>
      <trkpt lat="43.08069" lon="5.91386">
        <ele>51.6</ele>
        <time>2025-05-25T08:59:35.000Z</time>
      </trkpt>
      <trkpt lat="43.08068" lon="5.91399">
        <ele>51.9</ele>
        <time>2025-05-25T08:59:49.000Z</time>
      </trkpt>
      <trkpt lat="43.08069" lon="5.91411">
        <ele>53.2</ele>
        <time>2025-05-25T09:00:03.000Z</time>
      </trkpt>
      <trkpt lat="43.08066" lon="5.91424">
        <ele>54</ele>
        <time>2025-05-25T09:00:16.000Z</time>
      </trkpt>
      <trkpt lat="43.08065" lon="5.91436">
        <ele>54.1</ele>
        <time>2025-05-25T09:00:29.000Z</time>
      </trkpt>
      <trkpt lat="43.08062" lon="5.91448">
        <ele>54.6</ele>
        <time>2025-05-25T09:00:38.000Z</time>
      </trkpt>
      <trkpt lat="43.08065" lon="5.91461">
        <ele>55</ele>
        <time>2025-05-25T09:00:45.000Z</time>
      </trkpt>
      <trkpt lat="43.08066" lon="5.91473">
        <ele>55.1</ele>
        <time>2025-05-25T09:00:57.000Z</time>
      </trkpt>
      <trkpt lat="43.08067" lon="5.91486">
        <ele>55.1</ele>
        <time>2025-05-25T09:01:07.000Z</time>
      </trkpt>
      <trkpt lat="43.08063" lon="5.91497">
        <ele>55</ele>
        <time>2025-05-25T09:01:20.000Z</time>
      </trkpt>
      <trkpt lat="43.08054" lon="5.91503">
        <ele>54.8</ele>
        <time>2025-05-25T09:01:29.000Z</time>
      </trkpt>
      <trkpt lat="43.0805" lon="5.91515">
        <ele>54.7</ele>
        <time>2025-05-25T09:01:45.000Z</time>
      </trkpt>
      <trkpt lat="43.08044" lon="5.91524">
        <ele>53.9</ele>
        <time>2025-05-25T09:01:58.000Z</time>
      </trkpt>
      <trkpt lat="43.08042" lon="5.91537">
        <ele>53</ele>
        <time>2025-05-25T09:02:11.000Z</time>
      </trkpt>
      <trkpt lat="43.08045" lon="5.9155">
        <ele>53.3</ele>
        <time>2025-05-25T09:02:27.000Z</time>
      </trkpt>
      <trkpt lat="43.08046" lon="5.91563">
        <ele>53.2</ele>
        <time>2025-05-25T09:02:34.000Z</time>
      </trkpt>
      <trkpt lat="43.08052" lon="5.91574">
        <ele>53.2</ele>
        <time>2025-05-25T09:02:44.000Z</time>
      </trkpt>
      <trkpt lat="43.08057" lon="5.91585">
        <ele>53.1</ele>
        <time>2025-05-25T09:02:54.000Z</time>
      </trkpt>
      <trkpt lat="43.08058" lon="5.91598">
        <ele>52.2</ele>
        <time>2025-05-25T09:03:08.000Z</time>
      </trkpt>
      <trkpt lat="43.08066" lon="5.91605">
        <ele>52</ele>
        <time>2025-05-25T09:03:28.000Z</time>
      </trkpt>
      <trkpt lat="43.08076" lon="5.91606">
        <ele>52.9</ele>
        <time>2025-05-25T09:03:37.000Z</time>
      </trkpt>
      <trkpt lat="43.08084" lon="5.91611">
        <ele>53.7</ele>
        <time>2025-05-25T09:03:48.000Z</time>
      </trkpt>
      <trkpt lat="43.08092" lon="5.91617">
        <ele>54.6</ele>
        <time>2025-05-25T09:04:01.000Z</time>
      </trkpt>
      <trkpt lat="43.081" lon="5.91624">
        <ele>55.3</ele>
        <time>2025-05-25T09:04:18.000Z</time>
      </trkpt>
      <trkpt lat="43.08107" lon="5.91632">
        <ele>55.2</ele>
        <time>2025-05-25T09:04:28.000Z</time>
      </trkpt>
      <trkpt lat="43.08117" lon="5.91634">
        <ele>53.5</ele>
        <time>2025-05-25T09:04:50.000Z</time>
      </trkpt>
      <trkpt lat="43.08126" lon="5.91633">
        <ele>52</ele>
        <time>2025-05-25T09:05:08.000Z</time>
      </trkpt>
      <trkpt lat="43.08135" lon="5.91636">
        <ele>54.5</ele>
        <time>2025-05-25T09:05:26.000Z</time>
      </trkpt>
      <trkpt lat="43.08144" lon="5.91632">
        <ele>56.3</ele>
        <time>2025-05-25T09:05:37.000Z</time>
      </trkpt>
      <trkpt lat="43.08153" lon="5.91633">
        <ele>57.4</ele>
        <time>2025-05-25T09:05:48.000Z</time>
      </trkpt>
      <trkpt lat="43.08161" lon="5.91637">
        <ele>58.6</ele>
        <time>2025-05-25T09:06:01.000Z</time>
      </trkpt>
      <trkpt lat="43.0817" lon="5.91634">
        <ele>59.2</ele>
        <time>2025-05-25T09:06:17.000Z</time>
      </trkpt>
      <trkpt lat="43.08169" lon="5.91634">
        <ele>59.2</ele>
        <time>2025-05-25T09:06:18.000Z</time>
      </trkpt>
      <trkpt lat="43.0817" lon="5.91634">
        <ele>59.2</ele>
        <time>2025-05-25T09:06:19.000Z</time>
      </trkpt>
      <trkpt lat="43.08171" lon="5.91634">
        <ele>59.6</ele>
        <time>2025-05-25T09:06:38.000Z</time>
      </trkpt>
      <trkpt lat="43.08171" lon="5.91635">
        <ele>59.7</ele>
        <time>2025-05-25T09:06:39.000Z</time>
      </trkpt>
      <trkpt lat="43.08179" lon="5.91642">
        <ele>60.4</ele>
        <time>2025-05-25T09:06:56.000Z</time>
      </trkpt>
      <trkpt lat="43.08184" lon="5.91646">
        <ele>62.8</ele>
        <time>2025-05-25T09:07:10.000Z</time>
      </trkpt>
      <trkpt lat="43.08184" lon="5.91646">
        <ele>63</ele>
        <time>2025-05-25T09:07:11.000Z</time>
      </trkpt>
      <trkpt lat="43.08184" lon="5.91646">
        <ele>63</ele>
        <time>2025-05-25T09:07:12.000Z</time>
      </trkpt>
      <trkpt lat="43.08185" lon="5.91646">
        <ele>63.1</ele>
        <time>2025-05-25T09:07:13.000Z</time>
      </trkpt>
      <trkpt lat="43.08186" lon="5.91645">
        <ele>63.1</ele>
        <time>2025-05-25T09:07:14.000Z</time>
      </trkpt>
      <trkpt lat="43.08187" lon="5.91645">
        <ele>63.3</ele>
        <time>2025-05-25T09:07:20.000Z</time>
      </trkpt>
      <trkpt lat="43.08187" lon="5.91645">
        <ele>63.4</ele>
        <time>2025-05-25T09:07:21.000Z</time>
      </trkpt>
      <trkpt lat="43.08187" lon="5.91645">
        <ele>63.4</ele>
        <time>2025-05-25T09:07:22.000Z</time>
      </trkpt>
      <trkpt lat="43.08187" lon="5.91645">
        <ele>63.4</ele>
        <time>2025-05-25T09:07:23.000Z</time>
      </trkpt>
      <trkpt lat="43.08187" lon="5.91645">
        <ele>63.5</ele>
        <time>2025-05-25T09:07:24.000Z</time>
      </trkpt>
      <trkpt lat="43.08187" lon="5.91644">
        <ele>63.8</ele>
        <time>2025-05-25T09:07:32.000Z</time>
      </trkpt>
      <trkpt lat="43.08187" lon="5.91644">
        <ele>63.7</ele>
        <time>2025-05-25T09:07:33.000Z</time>
      </trkpt>
      <trkpt lat="43.08187" lon="5.91644">
        <ele>63.7</ele>
        <time>2025-05-25T09:07:34.000Z</time>
      </trkpt>
      <trkpt lat="43.08187" lon="5.91644">
        <ele>63.9</ele>
        <time>2025-05-25T09:07:40.000Z</time>
      </trkpt>
      <trkpt lat="43.08187" lon="5.91644">
        <ele>63.9</ele>
        <time>2025-05-25T09:07:41.000Z</time>
      </trkpt>
      <trkpt lat="43.08187" lon="5.91644">
        <ele>63.9</ele>
        <time>2025-05-25T09:07:45.000Z</time>
      </trkpt>
      <trkpt lat="43.08187" lon="5.91644">
        <ele>63.9</ele>
        <time>2025-05-25T09:07:46.000Z</time>
      </trkpt>
      <trkpt lat="43.08187" lon="5.91644">
        <ele>63.9</ele>
        <time>2025-05-25T09:07:52.000Z</time>
      </trkpt>
      <trkpt lat="43.08187" lon="5.91644">
        <ele>63.9</ele>
        <time>2025-05-25T09:07:53.000Z</time>
      </trkpt>
      <trkpt lat="43.08187" lon="5.91644">
        <ele>63.9</ele>
        <time>2025-05-25T09:07:54.000Z</time>
      </trkpt>
      <trkpt lat="43.08187" lon="5.91644">
        <ele>63.9</ele>
        <time>2025-05-25T09:07:55.000Z</time>
      </trkpt>
      <trkpt lat="43.08187" lon="5.91644">
        <ele>63.9</ele>
        <time>2025-05-25T09:07:56.000Z</time>
      </trkpt>
      <trkpt lat="43.08187" lon="5.91644">
        <ele>63.9</ele>
        <time>2025-05-25T09:07:57.000Z</time>
      </trkpt>
      <trkpt lat="43.08187" lon="5.91644">
        <ele>63.9</ele>
        <time>2025-05-25T09:07:58.000Z</time>
      </trkpt>
      <trkpt lat="43.08187" lon="5.91644">
        <ele>63.9</ele>
        <time>2025-05-25T09:07:59.000Z</time>
      </trkpt>
      <trkpt lat="43.08187" lon="5.91644">
        <ele>63.9</ele>
        <time>2025-05-25T09:08:00.000Z</time>
      </trkpt>
      <trkpt lat="43.08187" lon="5.91644">
        <ele>63.9</ele>
        <time>2025-05-25T09:08:01.000Z</time>
      </trkpt>
      <trkpt lat="43.08187" lon="5.91644">
        <ele>63.9</ele>
        <time>2025-05-25T09:08:02.000Z</time>
      </trkpt>
      <trkpt lat="43.08188" lon="5.91643">
        <ele>63.9</ele>
        <time>2025-05-25T09:08:22.000Z</time>
      </trkpt>
      <trkpt lat="43.08188" lon="5.91642">
        <ele>64</ele>
        <time>2025-05-25T09:08:23.000Z</time>
      </trkpt>
      <trkpt lat="43.08189" lon="5.91642">
        <ele>63.9</ele>
        <time>2025-05-25T09:08:24.000Z</time>
      </trkpt>
      <trkpt lat="43.08189" lon="5.91641">
        <ele>63.9</ele>
        <time>2025-05-25T09:08:30.000Z</time>
      </trkpt>
      <trkpt lat="43.08189" lon="5.91641">
        <ele>63.9</ele>
        <time>2025-05-25T09:08:31.000Z</time>
      </trkpt>
      <trkpt lat="43.08189" lon="5.9164">
        <ele>63.9</ele>
        <time>2025-05-25T09:08:32.000Z</time>
      </trkpt>
      <trkpt lat="43.08189" lon="5.9164">
        <ele>63.9</ele>
        <time>2025-05-25T09:08:33.000Z</time>
      </trkpt>
      <trkpt lat="43.08189" lon="5.9164">
        <ele>63.9</ele>
        <time>2025-05-25T09:08:34.000Z</time>
      </trkpt>
      <trkpt lat="43.08188" lon="5.9164">
        <ele>63.9</ele>
        <time>2025-05-25T09:08:35.000Z</time>
      </trkpt>
      <trkpt lat="43.08188" lon="5.9164">
        <ele>63.8</ele>
        <time>2025-05-25T09:08:36.000Z</time>
      </trkpt>
      <trkpt lat="43.08188" lon="5.9164">
        <ele>63.8</ele>
        <time>2025-05-25T09:08:45.000Z</time>
      </trkpt>
      <trkpt lat="43.08188" lon="5.9164">
        <ele>63.8</ele>
        <time>2025-05-25T09:08:46.000Z</time>
      </trkpt>
      <trkpt lat="43.08188" lon="5.9164">
        <ele>63.8</ele>
        <time>2025-05-25T09:08:47.000Z</time>
      </trkpt>
      <trkpt lat="43.08189" lon="5.9164">
        <ele>63.8</ele>
        <time>2025-05-25T09:08:53.000Z</time>
      </trkpt>
      <trkpt lat="43.08189" lon="5.9164">
        <ele>63.8</ele>
        <time>2025-05-25T09:08:54.000Z</time>
      </trkpt>
      <trkpt lat="43.08189" lon="5.9164">
        <ele>63.8</ele>
        <time>2025-05-25T09:08:57.000Z</time>
      </trkpt>
      <trkpt lat="43.08188" lon="5.91641">
        <ele>63.8</ele>
        <time>2025-05-25T09:08:58.000Z</time>
      </trkpt>
      <trkpt lat="43.08188" lon="5.91642">
        <ele>63.8</ele>
        <time>2025-05-25T09:08:59.000Z</time>
      </trkpt>
      <trkpt lat="43.08189" lon="5.91642">
        <ele>63.8</ele>
        <time>2025-05-25T09:09:00.000Z</time>
      </trkpt>
      <trkpt lat="43.0819" lon="5.91642">
        <ele>63.8</ele>
        <time>2025-05-25T09:09:01.000Z</time>
      </trkpt>
      <trkpt lat="43.08199" lon="5.91645">
        <ele>63.9</ele>
        <time>2025-05-25T09:09:13.000Z</time>
      </trkpt>
      <trkpt lat="43.08208" lon="5.9165">
        <ele>64.1</ele>
        <time>2025-05-25T09:09:27.000Z</time>
      </trkpt>
      <trkpt lat="43.08213" lon="5.91661">
        <ele>64.7</ele>
        <time>2025-05-25T09:09:40.000Z</time>
      </trkpt>
      <trkpt lat="43.08217" lon="5.91673">
        <ele>65.6</ele>
        <time>2025-05-25T09:09:58.000Z</time>
      </trkpt>
      <trkpt lat="43.08215" lon="5.91686">
        <ele>66.7</ele>
        <time>2025-05-25T09:10:15.000Z</time>
      </trkpt>
      <trkpt lat="43.08207" lon="5.91692">
        <ele>69.3</ele>
        <time>2025-05-25T09:10:45.000Z</time>
      </trkpt>
      <trkpt lat="43.082" lon="5.917">
        <ele>71.3</ele>
        <time>2025-05-25T09:11:24.000Z</time>
      </trkpt>
      <trkpt lat="43.08196" lon="5.91712">
        <ele>74.9</ele>
        <time>2025-05-25T09:12:16.000Z</time>
      </trkpt>
      <trkpt lat="43.08195" lon="5.91715">
        <ele>75.7</ele>
        <time>2025-05-25T09:12:23.000Z</time>
      </trkpt>
      <trkpt lat="43.08195" lon="5.91715">
        <ele>75.8</ele>
        <time>2025-05-25T09:12:24.000Z</time>
      </trkpt>
      <trkpt lat="43.08195" lon="5.91715">
        <ele>75.9</ele>
        <time>2025-05-25T09:12:25.000Z</time>
      </trkpt>
      <trkpt lat="43.08195" lon="5.91716">
        <ele>75.9</ele>
        <time>2025-05-25T09:12:26.000Z</time>
      </trkpt>
      <trkpt lat="43.08195" lon="5.91717">
        <ele>76.1</ele>
        <time>2025-05-25T09:12:30.000Z</time>
      </trkpt>
      <trkpt lat="43.08195" lon="5.91717">
        <ele>76.2</ele>
        <time>2025-05-25T09:12:31.000Z</time>
      </trkpt>
      <trkpt lat="43.08195" lon="5.91717">
        <ele>76.4</ele>
        <time>2025-05-25T09:12:38.000Z</time>
      </trkpt>
      <trkpt lat="43.08195" lon="5.91717">
        <ele>76.4</ele>
        <time>2025-05-25T09:12:39.000Z</time>
      </trkpt>
      <trkpt lat="43.08195" lon="5.91717">
        <ele>76.4</ele>
        <time>2025-05-25T09:12:40.000Z</time>
      </trkpt>
      <trkpt lat="43.08195" lon="5.91717">
        <ele>76.4</ele>
        <time>2025-05-25T09:12:41.000Z</time>
      </trkpt>
      <trkpt lat="43.08195" lon="5.91717">
        <ele>76.4</ele>
        <time>2025-05-25T09:12:42.000Z</time>
      </trkpt>
      <trkpt lat="43.08195" lon="5.91716">
        <ele>76.5</ele>
        <time>2025-05-25T09:12:52.000Z</time>
      </trkpt>
      <trkpt lat="43.08195" lon="5.91716">
        <ele>76.5</ele>
        <time>2025-05-25T09:12:53.000Z</time>
      </trkpt>
      <trkpt lat="43.08196" lon="5.91717">
        <ele>76.5</ele>
        <time>2025-05-25T09:12:54.000Z</time>
      </trkpt>
      <trkpt lat="43.08197" lon="5.91718">
        <ele>76.5</ele>
        <time>2025-05-25T09:13:02.000Z</time>
      </trkpt>
      <trkpt lat="43.08197" lon="5.91718">
        <ele>76.5</ele>
        <time>2025-05-25T09:13:03.000Z</time>
      </trkpt>
      <trkpt lat="43.08197" lon="5.91718">
        <ele>76.5</ele>
        <time>2025-05-25T09:13:04.000Z</time>
      </trkpt>
      <trkpt lat="43.08197" lon="5.91718">
        <ele>76.4</ele>
        <time>2025-05-25T09:13:16.000Z</time>
      </trkpt>
      <trkpt lat="43.08197" lon="5.91718">
        <ele>76.4</ele>
        <time>2025-05-25T09:13:17.000Z</time>
      </trkpt>
      <trkpt lat="43.08197" lon="5.91718">
        <ele>76.4</ele>
        <time>2025-05-25T09:13:18.000Z</time>
      </trkpt>
      <trkpt lat="43.08197" lon="5.91718">
        <ele>76.4</ele>
        <time>2025-05-25T09:13:19.000Z</time>
      </trkpt>
      <trkpt lat="43.08198" lon="5.91718">
        <ele>76.5</ele>
        <time>2025-05-25T09:13:36.000Z</time>
      </trkpt>
      <trkpt lat="43.08198" lon="5.91718">
        <ele>76.5</ele>
        <time>2025-05-25T09:13:37.000Z</time>
      </trkpt>
      <trkpt lat="43.08198" lon="5.91718">
        <ele>76.5</ele>
        <time>2025-05-25T09:13:38.000Z</time>
      </trkpt>
      <trkpt lat="43.08198" lon="5.91718">
        <ele>76.5</ele>
        <time>2025-05-25T09:13:39.000Z</time>
      </trkpt>
      <trkpt lat="43.08198" lon="5.91718">
        <ele>76.5</ele>
        <time>2025-05-25T09:13:43.000Z</time>
      </trkpt>
      <trkpt lat="43.08198" lon="5.91718">
        <ele>76.5</ele>
        <time>2025-05-25T09:13:44.000Z</time>
      </trkpt>
      <trkpt lat="43.08198" lon="5.91718">
        <ele>76.5</ele>
        <time>2025-05-25T09:13:45.000Z</time>
      </trkpt>
      <trkpt lat="43.08198" lon="5.91718">
        <ele>76.5</ele>
        <time>2025-05-25T09:13:46.000Z</time>
      </trkpt>
      <trkpt lat="43.08198" lon="5.91718">
        <ele>76.5</ele>
        <time>2025-05-25T09:13:47.000Z</time>
      </trkpt>
      <trkpt lat="43.08198" lon="5.91718">
        <ele>76.5</ele>
        <time>2025-05-25T09:14:02.000Z</time>
      </trkpt>
      <trkpt lat="43.08198" lon="5.91718">
        <ele>76.5</ele>
        <time>2025-05-25T09:14:03.000Z</time>
      </trkpt>
      <trkpt lat="43.08198" lon="5.91718">
        <ele>76.5</ele>
        <time>2025-05-25T09:14:04.000Z</time>
      </trkpt>
      <trkpt lat="43.08198" lon="5.91718">
        <ele>76.6</ele>
        <time>2025-05-25T09:14:05.000Z</time>
      </trkpt>
      <trkpt lat="43.08198" lon="5.91718">
        <ele>76.6</ele>
        <time>2025-05-25T09:14:06.000Z</time>
      </trkpt>
      <trkpt lat="43.08198" lon="5.91719">
        <ele>76.6</ele>
        <time>2025-05-25T09:14:40.000Z</time>
      </trkpt>
      <trkpt lat="43.08198" lon="5.91719">
        <ele>76.6</ele>
        <time>2025-05-25T09:14:41.000Z</time>
      </trkpt>
      <trkpt lat="43.08198" lon="5.91719">
        <ele>76.5</ele>
        <time>2025-05-25T09:14:42.000Z</time>
      </trkpt>
      <trkpt lat="43.08198" lon="5.91719">
        <ele>76.5</ele>
        <time>2025-05-25T09:14:43.000Z</time>
      </trkpt>
      <trkpt lat="43.08198" lon="5.91719">
        <ele>76.5</ele>
        <time>2025-05-25T09:14:44.000Z</time>
      </trkpt>
      <trkpt lat="43.08198" lon="5.91719">
        <ele>76.5</ele>
        <time>2025-05-25T09:14:45.000Z</time>
      </trkpt>
      <trkpt lat="43.08198" lon="5.91719">
        <ele>76.5</ele>
        <time>2025-05-25T09:14:46.000Z</time>
      </trkpt>
      <trkpt lat="43.08198" lon="5.91719">
        <ele>76.5</ele>
        <time>2025-05-25T09:14:47.000Z</time>
      </trkpt>
      <trkpt lat="43.08198" lon="5.91719">
        <ele>76.6</ele>
        <time>2025-05-25T09:14:48.000Z</time>
      </trkpt>
      <trkpt lat="43.08198" lon="5.91719">
        <ele>76.6</ele>
        <time>2025-05-25T09:14:49.000Z</time>
      </trkpt>
      <trkpt lat="43.08198" lon="5.9172">
        <ele>76.5</ele>
        <time>2025-05-25T09:15:02.000Z</time>
      </trkpt>
      <trkpt lat="43.08198" lon="5.9172">
        <ele>76.5</ele>
        <time>2025-05-25T09:15:03.000Z</time>
      </trkpt>
      <trkpt lat="43.08198" lon="5.9172">
        <ele>76.5</ele>
        <time>2025-05-25T09:15:04.000Z</time>
      </trkpt>
      <trkpt lat="43.08198" lon="5.9172">
        <ele>76.5</ele>
        <time>2025-05-25T09:15:05.000Z</time>
      </trkpt>
      <trkpt lat="43.08198" lon="5.9172">
        <ele>76.5</ele>
        <time>2025-05-25T09:15:06.000Z</time>
      </trkpt>
      <trkpt lat="43.08199" lon="5.91718">
        <ele>76.6</ele>
        <time>2025-05-25T09:15:58.000Z</time>
      </trkpt>
      <trkpt lat="43.08199" lon="5.91718">
        <ele>76.6</ele>
        <time>2025-05-25T09:15:59.000Z</time>
      </trkpt>
      <trkpt lat="43.08199" lon="5.91718">
        <ele>76.6</ele>
        <time>2025-05-25T09:16:00.000Z</time>
      </trkpt>
      <trkpt lat="43.08199" lon="5.91718">
        <ele>76.6</ele>
        <time>2025-05-25T09:16:01.000Z</time>
      </trkpt>
      <trkpt lat="43.08199" lon="5.91718">
        <ele>76.6</ele>
        <time>2025-05-25T09:16:02.000Z</time>
      </trkpt>
      <trkpt lat="43.08197" lon="5.91716">
        <ele>76.6</ele>
        <time>2025-05-25T09:16:06.000Z</time>
      </trkpt>
      <trkpt lat="43.08197" lon="5.91716">
        <ele>76.6</ele>
        <time>2025-05-25T09:16:07.000Z</time>
      </trkpt>
      <trkpt lat="43.08196" lon="5.91729">
        <ele>76.6</ele>
        <time>2025-05-25T09:16:19.000Z</time>
      </trkpt>
      <trkpt lat="43.08193" lon="5.91731">
        <ele>76.6</ele>
        <time>2025-05-25T09:16:27.000Z</time>
      </trkpt>
      <trkpt lat="43.08193" lon="5.91731">
        <ele>76.6</ele>
        <time>2025-05-25T09:16:28.000Z</time>
      </trkpt>
      <trkpt lat="43.08193" lon="5.91731">
        <ele>76.6</ele>
        <time>2025-05-25T09:16:29.000Z</time>
      </trkpt>
      <trkpt lat="43.08193" lon="5.91731">
        <ele>76.6</ele>
        <time>2025-05-25T09:16:30.000Z</time>
      </trkpt>
      <trkpt lat="43.08193" lon="5.9173">
        <ele>76.6</ele>
        <time>2025-05-25T09:16:31.000Z</time>
      </trkpt>
      <trkpt lat="43.08193" lon="5.9173">
        <ele>76.6</ele>
        <time>2025-05-25T09:16:35.000Z</time>
      </trkpt>
      <trkpt lat="43.08193" lon="5.9173">
        <ele>76.6</ele>
        <time>2025-05-25T09:16:36.000Z</time>
      </trkpt>
      <trkpt lat="43.08193" lon="5.9173">
        <ele>76.5</ele>
        <time>2025-05-25T09:16:40.000Z</time>
      </trkpt>
      <trkpt lat="43.08193" lon="5.9173">
        <ele>76.5</ele>
        <time>2025-05-25T09:16:41.000Z</time>
      </trkpt>
      <trkpt lat="43.08183" lon="5.9173">
        <ele>75.7</ele>
        <time>2025-05-25T09:17:06.000Z</time>
      </trkpt>
      <trkpt lat="43.08174" lon="5.91733">
        <ele>74.5</ele>
        <time>2025-05-25T09:17:15.000Z</time>
      </trkpt>
      <trkpt lat="43.08172" lon="5.91733">
        <ele>74.1</ele>
        <time>2025-05-25T09:17:20.000Z</time>
      </trkpt>
      <trkpt lat="43.08172" lon="5.91733">
        <ele>74.1</ele>
        <time>2025-05-25T09:17:21.000Z</time>
      </trkpt>
      <trkpt lat="43.08171" lon="5.91734">
        <ele>74</ele>
        <time>2025-05-25T09:17:22.000Z</time>
      </trkpt>
      <trkpt lat="43.0817" lon="5.91734">
        <ele>74</ele>
        <time>2025-05-25T09:17:23.000Z</time>
      </trkpt>
      <trkpt lat="43.0817" lon="5.91734">
        <ele>74</ele>
        <time>2025-05-25T09:17:24.000Z</time>
      </trkpt>
      <trkpt lat="43.08161" lon="5.91738">
        <ele>73.9</ele>
        <time>2025-05-25T09:17:37.000Z</time>
      </trkpt>
      <trkpt lat="43.08154" lon="5.91739">
        <ele>74</ele>
        <time>2025-05-25T09:17:48.000Z</time>
      </trkpt>
      <trkpt lat="43.08154" lon="5.91739">
        <ele>74</ele>
        <time>2025-05-25T09:17:49.000Z</time>
      </trkpt>
      <trkpt lat="43.08154" lon="5.91739">
        <ele>74</ele>
        <time>2025-05-25T09:17:50.000Z</time>
      </trkpt>
      <trkpt lat="43.08153" lon="5.91739">
        <ele>74</ele>
        <time>2025-05-25T09:17:53.000Z</time>
      </trkpt>
      <trkpt lat="43.08153" lon="5.9174">
        <ele>74</ele>
        <time>2025-05-25T09:17:54.000Z</time>
      </trkpt>
      <trkpt lat="43.08153" lon="5.9174">
        <ele>74</ele>
        <time>2025-05-25T09:17:55.000Z</time>
      </trkpt>
      <trkpt lat="43.08145" lon="5.9174">
        <ele>74.2</ele>
        <time>2025-05-25T09:18:10.000Z</time>
      </trkpt>
      <trkpt lat="43.08145" lon="5.91739">
        <ele>74.3</ele>
        <time>2025-05-25T09:18:11.000Z</time>
      </trkpt>
      <trkpt lat="43.08145" lon="5.9174">
        <ele>74.3</ele>
        <time>2025-05-25T09:18:12.000Z</time>
      </trkpt>
      <trkpt lat="43.08144" lon="5.9174">
        <ele>74.3</ele>
        <time>2025-05-25T09:18:13.000Z</time>
      </trkpt>
      <trkpt lat="43.08143" lon="5.91741">
        <ele>74.3</ele>
        <time>2025-05-25T09:18:14.000Z</time>
      </trkpt>
      <trkpt lat="43.08136" lon="5.91749">
        <ele>74.5</ele>
        <time>2025-05-25T09:18:24.000Z</time>
      </trkpt>
      <trkpt lat="43.08127" lon="5.9175">
        <ele>74.6</ele>
        <time>2025-05-25T09:18:33.000Z</time>
      </trkpt>
      <trkpt lat="43.08117" lon="5.91752">
        <ele>75</ele>
        <time>2025-05-25T09:18:47.000Z</time>
      </trkpt>
      <trkpt lat="43.08108" lon="5.91753">
        <ele>75.6</ele>
        <time>2025-05-25T09:19:02.000Z</time>
      </trkpt>
      <trkpt lat="43.081" lon="5.91746">
        <ele>76.1</ele>
        <time>2025-05-25T09:19:13.000Z</time>
      </trkpt>
      <trkpt lat="43.08091" lon="5.91744">
        <ele>76.8</ele>
        <time>2025-05-25T09:19:23.000Z</time>
      </trkpt>
      <trkpt lat="43.08082" lon="5.91742">
        <ele>78.1</ele>
        <time>2025-05-25T09:19:34.000Z</time>
      </trkpt>
      <trkpt lat="43.08072" lon="5.91738">
        <ele>79.8</ele>
        <time>2025-05-25T09:19:49.000Z</time>
      </trkpt>
      <trkpt lat="43.08064" lon="5.91731">
        <ele>80.7</ele>
        <time>2025-05-25T09:20:00.000Z</time>
      </trkpt>
      <trkpt lat="43.08055" lon="5.91734">
        <ele>81.6</ele>
        <time>2025-05-25T09:20:11.000Z</time>
      </trkpt>
      <trkpt lat="43.08046" lon="5.9173">
        <ele>82.9</ele>
        <time>2025-05-25T09:20:20.000Z</time>
      </trkpt>
      <trkpt lat="43.08037" lon="5.91726">
        <ele>83.9</ele>
        <time>2025-05-25T09:20:30.000Z</time>
      </trkpt>
      <trkpt lat="43.08028" lon="5.91731">
        <ele>85.5</ele>
        <time>2025-05-25T09:20:41.000Z</time>
      </trkpt>
      <trkpt lat="43.08019" lon="5.91734">
        <ele>87.4</ele>
        <time>2025-05-25T09:20:52.000Z</time>
      </trkpt>
      <trkpt lat="43.0801" lon="5.91733">
        <ele>88.8</ele>
        <time>2025-05-25T09:21:05.000Z</time>
      </trkpt>
      <trkpt lat="43.08001" lon="5.91728">
        <ele>91.4</ele>
        <time>2025-05-25T09:21:27.000Z</time>
      </trkpt>
      <trkpt lat="43.07992" lon="5.91731">
        <ele>92.6</ele>
        <time>2025-05-25T09:21:42.000Z</time>
      </trkpt>
      <trkpt lat="43.07984" lon="5.91736">
        <ele>94.7</ele>
        <time>2025-05-25T09:22:00.000Z</time>
      </trkpt>
      <trkpt lat="43.07975" lon="5.9174">
        <ele>97.1</ele>
        <time>2025-05-25T09:22:17.000Z</time>
      </trkpt>
      <trkpt lat="43.07966" lon="5.91744">
        <ele>99.2</ele>
        <time>2025-05-25T09:22:34.000Z</time>
      </trkpt>
      <trkpt lat="43.07957" lon="5.91744">
        <ele>101.2</ele>
        <time>2025-05-25T09:22:52.000Z</time>
      </trkpt>
      <trkpt lat="43.07948" lon="5.91743">
        <ele>103.3</ele>
        <time>2025-05-25T09:23:09.000Z</time>
      </trkpt>
      <trkpt lat="43.07938" lon="5.91747">
        <ele>104.2</ele>
        <time>2025-05-25T09:23:18.000Z</time>
      </trkpt>
      <trkpt lat="43.07934" lon="5.91749">
        <ele>104.6</ele>
        <time>2025-05-25T09:23:31.000Z</time>
      </trkpt>
      <trkpt lat="43.07934" lon="5.91749">
        <ele>104.6</ele>
        <time>2025-05-25T09:23:32.000Z</time>
      </trkpt>
      <trkpt lat="43.07934" lon="5.91747">
        <ele>104.8</ele>
        <time>2025-05-25T09:24:11.000Z</time>
      </trkpt>
      <trkpt lat="43.07933" lon="5.91747">
        <ele>104.8</ele>
        <time>2025-05-25T09:24:12.000Z</time>
      </trkpt>
      <trkpt lat="43.07924" lon="5.91743">
        <ele>105.3</ele>
        <time>2025-05-25T09:24:33.000Z</time>
      </trkpt>
      <trkpt lat="43.07921" lon="5.91731">
        <ele>105.6</ele>
        <time>2025-05-25T09:24:46.000Z</time>
      </trkpt>
      <trkpt lat="43.07924" lon="5.91717">
        <ele>105.8</ele>
        <time>2025-05-25T09:24:57.000Z</time>
      </trkpt>
      <trkpt lat="43.07921" lon="5.91705">
        <ele>105.7</ele>
        <time>2025-05-25T09:25:06.000Z</time>
      </trkpt>
      <trkpt lat="43.07917" lon="5.91695">
        <ele>106</ele>
        <time>2025-05-25T09:25:23.000Z</time>
      </trkpt>
      <trkpt lat="43.07918" lon="5.91694">
        <ele>106</ele>
        <time>2025-05-25T09:25:24.000Z</time>
      </trkpt>
      <trkpt lat="43.07918" lon="5.91694">
        <ele>106</ele>
        <time>2025-05-25T09:25:25.000Z</time>
      </trkpt>
      <trkpt lat="43.07917" lon="5.91694">
        <ele>106</ele>
        <time>2025-05-25T09:25:28.000Z</time>
      </trkpt>
      <trkpt lat="43.07918" lon="5.91693">
        <ele>106</ele>
        <time>2025-05-25T09:25:29.000Z</time>
      </trkpt>
      <trkpt lat="43.07918" lon="5.91693">
        <ele>106</ele>
        <time>2025-05-25T09:25:30.000Z</time>
      </trkpt>
      <trkpt lat="43.07918" lon="5.91693">
        <ele>106</ele>
        <time>2025-05-25T09:25:35.000Z</time>
      </trkpt>
      <trkpt lat="43.07918" lon="5.91693">
        <ele>106.1</ele>
        <time>2025-05-25T09:25:36.000Z</time>
      </trkpt>
      <trkpt lat="43.07918" lon="5.91693">
        <ele>106.1</ele>
        <time>2025-05-25T09:25:37.000Z</time>
      </trkpt>
      <trkpt lat="43.07917" lon="5.91693">
        <ele>106.1</ele>
        <time>2025-05-25T09:26:00.000Z</time>
      </trkpt>
      <trkpt lat="43.07916" lon="5.91693">
        <ele>106.1</ele>
        <time>2025-05-25T09:26:01.000Z</time>
      </trkpt>
      <trkpt lat="43.07911" lon="5.91691">
        <ele>106.1</ele>
        <time>2025-05-25T09:26:10.000Z</time>
      </trkpt>
      <trkpt lat="43.07911" lon="5.91691">
        <ele>106.1</ele>
        <time>2025-05-25T09:26:11.000Z</time>
      </trkpt>
      <trkpt lat="43.07909" lon="5.91689">
        <ele>106.1</ele>
        <time>2025-05-25T09:27:42.000Z</time>
      </trkpt>
      <trkpt lat="43.07909" lon="5.9169">
        <ele>106.1</ele>
        <time>2025-05-25T09:27:43.000Z</time>
      </trkpt>
      <trkpt lat="43.07909" lon="5.91689">
        <ele>106.1</ele>
        <time>2025-05-25T09:27:44.000Z</time>
      </trkpt>
      <trkpt lat="43.07909" lon="5.91689">
        <ele>106.1</ele>
        <time>2025-05-25T09:27:45.000Z</time>
      </trkpt>
      <trkpt lat="43.07908" lon="5.91689">
        <ele>106.1</ele>
        <time>2025-05-25T09:27:46.000Z</time>
      </trkpt>
      <trkpt lat="43.07908" lon="5.9169">
        <ele>106.2</ele>
        <time>2025-05-25T09:27:47.000Z</time>
      </trkpt>
      <trkpt lat="43.07907" lon="5.91691">
        <ele>106.2</ele>
        <time>2025-05-25T09:27:48.000Z</time>
      </trkpt>
      <trkpt lat="43.07907" lon="5.91692">
        <ele>106.2</ele>
        <time>2025-05-25T09:27:49.000Z</time>
      </trkpt>
      <trkpt lat="43.07907" lon="5.91692">
        <ele>106.2</ele>
        <time>2025-05-25T09:27:55.000Z</time>
      </trkpt>
      <trkpt lat="43.07907" lon="5.91692">
        <ele>106.2</ele>
        <time>2025-05-25T09:27:56.000Z</time>
      </trkpt>
      <trkpt lat="43.07906" lon="5.91692">
        <ele>106.2</ele>
        <time>2025-05-25T09:27:57.000Z</time>
      </trkpt>
      <trkpt lat="43.07905" lon="5.91691">
        <ele>106.2</ele>
        <time>2025-05-25T09:28:17.000Z</time>
      </trkpt>
      <trkpt lat="43.07905" lon="5.91691">
        <ele>106.2</ele>
        <time>2025-05-25T09:28:18.000Z</time>
      </trkpt>
      <trkpt lat="43.07905" lon="5.91691">
        <ele>106.2</ele>
        <time>2025-05-25T09:28:19.000Z</time>
      </trkpt>
      <trkpt lat="43.07905" lon="5.91691">
        <ele>106.2</ele>
        <time>2025-05-25T09:28:20.000Z</time>
      </trkpt>
      <trkpt lat="43.07905" lon="5.91691">
        <ele>106.2</ele>
        <time>2025-05-25T09:28:21.000Z</time>
      </trkpt>
      <trkpt lat="43.07905" lon="5.91692">
        <ele>106.2</ele>
        <time>2025-05-25T09:28:22.000Z</time>
      </trkpt>
      <trkpt lat="43.07905" lon="5.91693">
        <ele>106.2</ele>
        <time>2025-05-25T09:28:23.000Z</time>
      </trkpt>
      <trkpt lat="43.07905" lon="5.91695">
        <ele>106.2</ele>
        <time>2025-05-25T09:28:24.000Z</time>
      </trkpt>
      <trkpt lat="43.07903" lon="5.91702">
        <ele>106.2</ele>
        <time>2025-05-25T09:28:36.000Z</time>
      </trkpt>
      <trkpt lat="43.07903" lon="5.91702">
        <ele>106.3</ele>
        <time>2025-05-25T09:28:37.000Z</time>
      </trkpt>
      <trkpt lat="43.07902" lon="5.91703">
        <ele>106.3</ele>
        <time>2025-05-25T09:28:43.000Z</time>
      </trkpt>
      <trkpt lat="43.07902" lon="5.91704">
        <ele>106.3</ele>
        <time>2025-05-25T09:28:44.000Z</time>
      </trkpt>
      <trkpt lat="43.07902" lon="5.91704">
        <ele>106.3</ele>
        <time>2025-05-25T09:28:47.000Z</time>
      </trkpt>
      <trkpt lat="43.07902" lon="5.91704">
        <ele>106.3</ele>
        <time>2025-05-25T09:28:48.000Z</time>
      </trkpt>
      <trkpt lat="43.07902" lon="5.91704">
        <ele>106.3</ele>
        <time>2025-05-25T09:28:49.000Z</time>
      </trkpt>
      <trkpt lat="43.07902" lon="5.91704">
        <ele>106.3</ele>
        <time>2025-05-25T09:29:05.000Z</time>
      </trkpt>
      <trkpt lat="43.07902" lon="5.91704">
        <ele>106.3</ele>
        <time>2025-05-25T09:29:06.000Z</time>
      </trkpt>
      <trkpt lat="43.07901" lon="5.91705">
        <ele>106.3</ele>
        <time>2025-05-25T09:29:07.000Z</time>
      </trkpt>
      <trkpt lat="43.07897" lon="5.91715">
        <ele>106.4</ele>
        <time>2025-05-25T09:29:23.000Z</time>
      </trkpt>
      <trkpt lat="43.07897" lon="5.91715">
        <ele>106.4</ele>
        <time>2025-05-25T09:29:24.000Z</time>
      </trkpt>
      <trkpt lat="43.07898" lon="5.91716">
        <ele>106.4</ele>
        <time>2025-05-25T09:29:30.000Z</time>
      </trkpt>
      <trkpt lat="43.07898" lon="5.91716">
        <ele>106.4</ele>
        <time>2025-05-25T09:29:31.000Z</time>
      </trkpt>
      <trkpt lat="43.07898" lon="5.91716">
        <ele>106.4</ele>
        <time>2025-05-25T09:29:35.000Z</time>
      </trkpt>
      <trkpt lat="43.07898" lon="5.91716">
        <ele>106.4</ele>
        <time>2025-05-25T09:29:36.000Z</time>
      </trkpt>
      <trkpt lat="43.07898" lon="5.91716">
        <ele>106.4</ele>
        <time>2025-05-25T09:29:37.000Z</time>
      </trkpt>
      <trkpt lat="43.07898" lon="5.91716">
        <ele>106.8</ele>
        <time>2025-05-25T09:30:23.000Z</time>
      </trkpt>
      <trkpt lat="43.07897" lon="5.91716">
        <ele>106.8</ele>
        <time>2025-05-25T09:30:24.000Z</time>
      </trkpt>
      <trkpt lat="43.07897" lon="5.91716">
        <ele>106.8</ele>
        <time>2025-05-25T09:30:25.000Z</time>
      </trkpt>
      <trkpt lat="43.07892" lon="5.91727">
        <ele>106.8</ele>
        <time>2025-05-25T09:30:37.000Z</time>
      </trkpt>
      <trkpt lat="43.07886" lon="5.91738">
        <ele>106.9</ele>
        <time>2025-05-25T09:30:47.000Z</time>
      </trkpt>
      <trkpt lat="43.07888" lon="5.9175">
        <ele>106.9</ele>
        <time>2025-05-25T09:30:56.000Z</time>
      </trkpt>
      <trkpt lat="43.07892" lon="5.91763">
        <ele>106.8</ele>
        <time>2025-05-25T09:31:06.000Z</time>
      </trkpt>
      <trkpt lat="43.079" lon="5.91769">
        <ele>106.8</ele>
        <time>2025-05-25T09:31:15.000Z</time>
      </trkpt>
      <trkpt lat="43.07901" lon="5.91781">
        <ele>106.7</ele>
        <time>2025-05-25T09:31:24.000Z</time>
      </trkpt>
      <trkpt lat="43.07898" lon="5.91793">
        <ele>106.3</ele>
        <time>2025-05-25T09:31:35.000Z</time>
      </trkpt>
      <trkpt lat="43.07896" lon="5.91799">
        <ele>105.6</ele>
        <time>2025-05-25T09:31:43.000Z</time>
      </trkpt>
      <trkpt lat="43.07896" lon="5.91799">
        <ele>105.5</ele>
        <time>2025-05-25T09:31:44.000Z</time>
      </trkpt>
      <trkpt lat="43.07896" lon="5.91798">
        <ele>105.4</ele>
        <time>2025-05-25T09:31:45.000Z</time>
      </trkpt>
      <trkpt lat="43.07895" lon="5.91798">
        <ele>104.5</ele>
        <time>2025-05-25T09:32:48.000Z</time>
      </trkpt>
      <trkpt lat="43.07895" lon="5.91798">
        <ele>104.6</ele>
        <time>2025-05-25T09:32:49.000Z</time>
      </trkpt>
      <trkpt lat="43.07895" lon="5.91799">
        <ele>104.5</ele>
        <time>2025-05-25T09:32:50.000Z</time>
      </trkpt>
      <trkpt lat="43.07895" lon="5.91799">
        <ele>104.5</ele>
        <time>2025-05-25T09:32:51.000Z</time>
      </trkpt>
      <trkpt lat="43.07895" lon="5.91799">
        <ele>104.5</ele>
        <time>2025-05-25T09:32:52.000Z</time>
      </trkpt>
      <trkpt lat="43.07895" lon="5.91799">
        <ele>104.5</ele>
        <time>2025-05-25T09:32:53.000Z</time>
      </trkpt>
      <trkpt lat="43.07895" lon="5.91799">
        <ele>104.5</ele>
        <time>2025-05-25T09:32:54.000Z</time>
      </trkpt>
      <trkpt lat="43.07895" lon="5.91799">
        <ele>104.5</ele>
        <time>2025-05-25T09:32:55.000Z</time>
      </trkpt>
      <trkpt lat="43.07895" lon="5.91799">
        <ele>104.5</ele>
        <time>2025-05-25T09:32:56.000Z</time>
      </trkpt>
      <trkpt lat="43.07895" lon="5.918">
        <ele>104.5</ele>
        <time>2025-05-25T09:32:57.000Z</time>
      </trkpt>
      <trkpt lat="43.07894" lon="5.91801">
        <ele>104.5</ele>
        <time>2025-05-25T09:33:05.000Z</time>
      </trkpt>
      <trkpt lat="43.07893" lon="5.91801">
        <ele>104.5</ele>
        <time>2025-05-25T09:33:06.000Z</time>
      </trkpt>
      <trkpt lat="43.07893" lon="5.91801">
        <ele>104.5</ele>
        <time>2025-05-25T09:33:07.000Z</time>
      </trkpt>
      <trkpt lat="43.07884" lon="5.91807">
        <ele>104.2</ele>
        <time>2025-05-25T09:33:17.000Z</time>
      </trkpt>
      <trkpt lat="43.07875" lon="5.91813">
        <ele>103.3</ele>
        <time>2025-05-25T09:33:28.000Z</time>
      </trkpt>
      <trkpt lat="43.07866" lon="5.91812">
        <ele>102.6</ele>
        <time>2025-05-25T09:33:36.000Z</time>
      </trkpt>
      <trkpt lat="43.07857" lon="5.91817">
        <ele>101.6</ele>
        <time>2025-05-25T09:33:52.000Z</time>
      </trkpt>
      <trkpt lat="43.07851" lon="5.91807">
        <ele>100.5</ele>
        <time>2025-05-25T09:34:09.000Z</time>
      </trkpt>
      <trkpt lat="43.07849" lon="5.91794">
        <ele>100.5</ele>
        <time>2025-05-25T09:34:20.000Z</time>
      </trkpt>
      <trkpt lat="43.07844" lon="5.91782">
        <ele>100.4</ele>
        <time>2025-05-25T09:34:29.000Z</time>
      </trkpt>
      <trkpt lat="43.07837" lon="5.91772">
        <ele>100.3</ele>
        <time>2025-05-25T09:34:37.000Z</time>
      </trkpt>
      <trkpt lat="43.07828" lon="5.9177">
        <ele>100.2</ele>
        <time>2025-05-25T09:34:46.000Z</time>
      </trkpt>
      <trkpt lat="43.07818" lon="5.91773">
        <ele>100.1</ele>
        <time>2025-05-25T09:34:56.000Z</time>
      </trkpt>
      <trkpt lat="43.07809" lon="5.91776">
        <ele>100</ele>
        <time>2025-05-25T09:35:07.000Z</time>
      </trkpt>
      <trkpt lat="43.07799" lon="5.91781">
        <ele>100</ele>
        <time>2025-05-25T09:35:17.000Z</time>
      </trkpt>
      <trkpt lat="43.07793" lon="5.91791">
        <ele>100</ele>
        <time>2025-05-25T09:35:27.000Z</time>
      </trkpt>
      <trkpt lat="43.07798" lon="5.91802">
        <ele>100.2</ele>
        <time>2025-05-25T09:35:38.000Z</time>
      </trkpt>
      <trkpt lat="43.07799" lon="5.91814">
        <ele>100.6</ele>
        <time>2025-05-25T09:35:48.000Z</time>
      </trkpt>
      <trkpt lat="43.07797" lon="5.91819">
        <ele>100.9</ele>
        <time>2025-05-25T09:35:57.000Z</time>
      </trkpt>
      <trkpt lat="43.07797" lon="5.91819">
        <ele>100.9</ele>
        <time>2025-05-25T09:35:58.000Z</time>
      </trkpt>
      <trkpt lat="43.07797" lon="5.91819">
        <ele>101</ele>
        <time>2025-05-25T09:35:59.000Z</time>
      </trkpt>
      <trkpt lat="43.07797" lon="5.91819">
        <ele>101.1</ele>
        <time>2025-05-25T09:36:05.000Z</time>
      </trkpt>
      <trkpt lat="43.07797" lon="5.91819">
        <ele>101.1</ele>
        <time>2025-05-25T09:36:06.000Z</time>
      </trkpt>
      <trkpt lat="43.07796" lon="5.91819">
        <ele>101.3</ele>
        <time>2025-05-25T09:36:13.000Z</time>
      </trkpt>
      <trkpt lat="43.07796" lon="5.91819">
        <ele>101.3</ele>
        <time>2025-05-25T09:36:14.000Z</time>
      </trkpt>
      <trkpt lat="43.07795" lon="5.9182">
        <ele>101.4</ele>
        <time>2025-05-25T09:36:18.000Z</time>
      </trkpt>
      <trkpt lat="43.07794" lon="5.9182">
        <ele>101.4</ele>
        <time>2025-05-25T09:36:19.000Z</time>
      </trkpt>
      <trkpt lat="43.07786" lon="5.91827">
        <ele>101.6</ele>
        <time>2025-05-25T09:36:31.000Z</time>
      </trkpt>
      <trkpt lat="43.07777" lon="5.9183">
        <ele>102.4</ele>
        <time>2025-05-25T09:36:52.000Z</time>
      </trkpt>
      <trkpt lat="43.07772" lon="5.91835">
        <ele>104</ele>
        <time>2025-05-25T09:37:07.000Z</time>
      </trkpt>
      <trkpt lat="43.07772" lon="5.91835">
        <ele>104</ele>
        <time>2025-05-25T09:37:08.000Z</time>
      </trkpt>
      <trkpt lat="43.07772" lon="5.91835">
        <ele>104.1</ele>
        <time>2025-05-25T09:37:09.000Z</time>
      </trkpt>
      <trkpt lat="43.07771" lon="5.91835">
        <ele>104.3</ele>
        <time>2025-05-25T09:37:15.000Z</time>
      </trkpt>
      <trkpt lat="43.0777" lon="5.91835">
        <ele>104.3</ele>
        <time>2025-05-25T09:37:16.000Z</time>
      </trkpt>
      <trkpt lat="43.0777" lon="5.91836">
        <ele>104.4</ele>
        <time>2025-05-25T09:37:17.000Z</time>
      </trkpt>
      <trkpt lat="43.07762" lon="5.91841">
        <ele>104.7</ele>
        <time>2025-05-25T09:37:29.000Z</time>
      </trkpt>
      <trkpt lat="43.07762" lon="5.91854">
        <ele>105.3</ele>
        <time>2025-05-25T09:37:45.000Z</time>
      </trkpt>
      <trkpt lat="43.07756" lon="5.91864">
        <ele>106.6</ele>
        <time>2025-05-25T09:37:59.000Z</time>
      </trkpt>
      <trkpt lat="43.07751" lon="5.91874">
        <ele>107</ele>
        <time>2025-05-25T09:38:13.000Z</time>
      </trkpt>
      <trkpt lat="43.07751" lon="5.91874">
        <ele>107</ele>
        <time>2025-05-25T09:38:14.000Z</time>
      </trkpt>
      <trkpt lat="43.07751" lon="5.91874">
        <ele>107</ele>
        <time>2025-05-25T09:38:15.000Z</time>
      </trkpt>
      <trkpt lat="43.07751" lon="5.91874">
        <ele>107</ele>
        <time>2025-05-25T09:38:27.000Z</time>
      </trkpt>
      <trkpt lat="43.07751" lon="5.91874">
        <ele>107.1</ele>
        <time>2025-05-25T09:38:28.000Z</time>
      </trkpt>
      <trkpt lat="43.07751" lon="5.91874">
        <ele>107.1</ele>
        <time>2025-05-25T09:38:29.000Z</time>
      </trkpt>
      <trkpt lat="43.07746" lon="5.91886">
        <ele>107.3</ele>
        <time>2025-05-25T09:38:47.000Z</time>
      </trkpt>
      <trkpt lat="43.07741" lon="5.91897">
        <ele>107.4</ele>
        <time>2025-05-25T09:38:58.000Z</time>
      </trkpt>
      <trkpt lat="43.07741" lon="5.91898">
        <ele>107.4</ele>
        <time>2025-05-25T09:39:02.000Z</time>
      </trkpt>
      <trkpt lat="43.07741" lon="5.91898">
        <ele>107.4</ele>
        <time>2025-05-25T09:39:03.000Z</time>
      </trkpt>
      <trkpt lat="43.07741" lon="5.91898">
        <ele>107.4</ele>
        <time>2025-05-25T09:39:04.000Z</time>
      </trkpt>
      <trkpt lat="43.07741" lon="5.91899">
        <ele>107.4</ele>
        <time>2025-05-25T09:39:07.000Z</time>
      </trkpt>
      <trkpt lat="43.0774" lon="5.919">
        <ele>107.4</ele>
        <time>2025-05-25T09:39:08.000Z</time>
      </trkpt>
      <trkpt lat="43.0774" lon="5.91901">
        <ele>107.4</ele>
        <time>2025-05-25T09:39:09.000Z</time>
      </trkpt>
      <trkpt lat="43.07737" lon="5.91911">
        <ele>107.6</ele>
        <time>2025-05-25T09:39:25.000Z</time>
      </trkpt>
      <trkpt lat="43.07737" lon="5.91911">
        <ele>107.6</ele>
        <time>2025-05-25T09:39:26.000Z</time>
      </trkpt>
      <trkpt lat="43.07737" lon="5.91911">
        <ele>107.6</ele>
        <time>2025-05-25T09:39:27.000Z</time>
      </trkpt>
      <trkpt lat="43.07737" lon="5.91911">
        <ele>107.6</ele>
        <time>2025-05-25T09:39:28.000Z</time>
      </trkpt>
      <trkpt lat="43.07737" lon="5.91912">
        <ele>107.5</ele>
        <time>2025-05-25T09:39:29.000Z</time>
      </trkpt>
      <trkpt lat="43.07737" lon="5.91912">
        <ele>107.5</ele>
        <time>2025-05-25T09:39:32.000Z</time>
      </trkpt>
      <trkpt lat="43.07737" lon="5.91912">
        <ele>107.6</ele>
        <time>2025-05-25T09:39:33.000Z</time>
      </trkpt>
      <trkpt lat="43.07737" lon="5.91912">
        <ele>107.6</ele>
        <time>2025-05-25T09:39:34.000Z</time>
      </trkpt>
      <trkpt lat="43.07736" lon="5.91914">
        <ele>107.6</ele>
        <time>2025-05-25T09:39:43.000Z</time>
      </trkpt>
      <trkpt lat="43.07736" lon="5.91915">
        <ele>107.6</ele>
        <time>2025-05-25T09:39:44.000Z</time>
      </trkpt>
      <trkpt lat="43.07736" lon="5.91916">
        <ele>107.6</ele>
        <time>2025-05-25T09:39:47.000Z</time>
      </trkpt>
      <trkpt lat="43.07736" lon="5.91916">
        <ele>107.6</ele>
        <time>2025-05-25T09:39:48.000Z</time>
      </trkpt>
      <trkpt lat="43.07736" lon="5.91916">
        <ele>107.6</ele>
        <time>2025-05-25T09:39:49.000Z</time>
      </trkpt>
      <trkpt lat="43.07736" lon="5.91916">
        <ele>107.6</ele>
        <time>2025-05-25T09:40:41.000Z</time>
      </trkpt>
      <trkpt lat="43.07736" lon="5.91916">
        <ele>107.6</ele>
        <time>2025-05-25T09:40:42.000Z</time>
      </trkpt>
      <trkpt lat="43.07736" lon="5.91916">
        <ele>107.6</ele>
        <time>2025-05-25T09:40:43.000Z</time>
      </trkpt>
      <trkpt lat="43.07736" lon="5.91916">
        <ele>107.6</ele>
        <time>2025-05-25T09:40:44.000Z</time>
      </trkpt>
      <trkpt lat="43.07735" lon="5.91917">
        <ele>107.6</ele>
        <time>2025-05-25T09:40:50.000Z</time>
      </trkpt>
      <trkpt lat="43.07735" lon="5.91917">
        <ele>107.6</ele>
        <time>2025-05-25T09:40:51.000Z</time>
      </trkpt>
      <trkpt lat="43.07736" lon="5.91917">
        <ele>107.6</ele>
        <time>2025-05-25T09:40:55.000Z</time>
      </trkpt>
      <trkpt lat="43.07736" lon="5.91917">
        <ele>107.6</ele>
        <time>2025-05-25T09:40:56.000Z</time>
      </trkpt>
      <trkpt lat="43.07736" lon="5.91918">
        <ele>107.6</ele>
        <time>2025-05-25T09:41:00.000Z</time>
      </trkpt>
      <trkpt lat="43.07736" lon="5.91918">
        <ele>107.6</ele>
        <time>2025-05-25T09:41:01.000Z</time>
      </trkpt>
      <trkpt lat="43.07736" lon="5.91918">
        <ele>107.6</ele>
        <time>2025-05-25T09:41:02.000Z</time>
      </trkpt>
      <trkpt lat="43.07736" lon="5.91918">
        <ele>107.6</ele>
        <time>2025-05-25T09:41:03.000Z</time>
      </trkpt>
      <trkpt lat="43.07736" lon="5.91918">
        <ele>107.6</ele>
        <time>2025-05-25T09:41:04.000Z</time>
      </trkpt>
      <trkpt lat="43.07736" lon="5.91917">
        <ele>107.5</ele>
        <time>2025-05-25T09:41:10.000Z</time>
      </trkpt>
      <trkpt lat="43.07736" lon="5.91917">
        <ele>107.5</ele>
        <time>2025-05-25T09:41:11.000Z</time>
      </trkpt>
      <trkpt lat="43.07736" lon="5.91917">
        <ele>107.5</ele>
        <time>2025-05-25T09:41:12.000Z</time>
      </trkpt>
      <trkpt lat="43.07736" lon="5.91917">
        <ele>107.5</ele>
        <time>2025-05-25T09:41:13.000Z</time>
      </trkpt>
      <trkpt lat="43.07736" lon="5.91917">
        <ele>107.5</ele>
        <time>2025-05-25T09:41:14.000Z</time>
      </trkpt>
      <trkpt lat="43.07736" lon="5.91917">
        <ele>107.5</ele>
        <time>2025-05-25T09:41:15.000Z</time>
      </trkpt>
      <trkpt lat="43.07735" lon="5.91917">
        <ele>107.5</ele>
        <time>2025-05-25T09:41:16.000Z</time>
      </trkpt>
      <trkpt lat="43.07735" lon="5.91918">
        <ele>107.5</ele>
        <time>2025-05-25T09:41:17.000Z</time>
      </trkpt>
      <trkpt lat="43.07729" lon="5.91924">
        <ele>107.5</ele>
        <time>2025-05-25T09:41:32.000Z</time>
      </trkpt>
      <trkpt lat="43.07729" lon="5.91924">
        <ele>107.5</ele>
        <time>2025-05-25T09:41:33.000Z</time>
      </trkpt>
      <trkpt lat="43.07729" lon="5.91924">
        <ele>107.5</ele>
        <time>2025-05-25T09:41:34.000Z</time>
      </trkpt>
      <trkpt lat="43.07729" lon="5.91926">
        <ele>107.5</ele>
        <time>2025-05-25T09:41:45.000Z</time>
      </trkpt>
      <trkpt lat="43.07729" lon="5.91926">
        <ele>107.5</ele>
        <time>2025-05-25T09:41:46.000Z</time>
      </trkpt>
      <trkpt lat="43.07729" lon="5.91926">
        <ele>107.5</ele>
        <time>2025-05-25T09:41:47.000Z</time>
      </trkpt>
      <trkpt lat="43.07729" lon="5.91926">
        <ele>107.5</ele>
        <time>2025-05-25T09:41:48.000Z</time>
      </trkpt>
      <trkpt lat="43.07729" lon="5.91926">
        <ele>107.5</ele>
        <time>2025-05-25T09:41:49.000Z</time>
      </trkpt>
      <trkpt lat="43.07729" lon="5.91927">
        <ele>107.5</ele>
        <time>2025-05-25T09:41:58.000Z</time>
      </trkpt>
      <trkpt lat="43.07729" lon="5.91927">
        <ele>107.5</ele>
        <time>2025-05-25T09:41:59.000Z</time>
      </trkpt>
      <trkpt lat="43.07729" lon="5.91928">
        <ele>107.5</ele>
        <time>2025-05-25T09:42:00.000Z</time>
      </trkpt>
      <trkpt lat="43.07729" lon="5.91929">
        <ele>107.5</ele>
        <time>2025-05-25T09:42:01.000Z</time>
      </trkpt>
      <trkpt lat="43.07729" lon="5.91929">
        <ele>107.5</ele>
        <time>2025-05-25T09:42:02.000Z</time>
      </trkpt>
      <trkpt lat="43.07728" lon="5.9193">
        <ele>107.5</ele>
        <time>2025-05-25T09:42:07.000Z</time>
      </trkpt>
      <trkpt lat="43.07728" lon="5.91931">
        <ele>107.5</ele>
        <time>2025-05-25T09:42:08.000Z</time>
      </trkpt>
      <trkpt lat="43.07728" lon="5.91931">
        <ele>107.5</ele>
        <time>2025-05-25T09:42:09.000Z</time>
      </trkpt>
      <trkpt lat="43.07728" lon="5.91932">
        <ele>107.6</ele>
        <time>2025-05-25T09:42:13.000Z</time>
      </trkpt>
      <trkpt lat="43.07728" lon="5.91932">
        <ele>107.6</ele>
        <time>2025-05-25T09:42:14.000Z</time>
      </trkpt>
      <trkpt lat="43.07728" lon="5.91932">
        <ele>107.6</ele>
        <time>2025-05-25T09:42:15.000Z</time>
      </trkpt>
      <trkpt lat="43.07729" lon="5.91931">
        <ele>107.6</ele>
        <time>2025-05-25T09:42:30.000Z</time>
      </trkpt>
      <trkpt lat="43.07729" lon="5.91931">
        <ele>107.6</ele>
        <time>2025-05-25T09:42:31.000Z</time>
      </trkpt>
      <trkpt lat="43.07729" lon="5.91931">
        <ele>107.6</ele>
        <time>2025-05-25T09:42:32.000Z</time>
      </trkpt>
      <trkpt lat="43.07729" lon="5.9193">
        <ele>107.6</ele>
        <time>2025-05-25T09:42:33.000Z</time>
      </trkpt>
      <trkpt lat="43.07729" lon="5.9193">
        <ele>107.6</ele>
        <time>2025-05-25T09:42:34.000Z</time>
      </trkpt>
      <trkpt lat="43.07729" lon="5.9193">
        <ele>107.6</ele>
        <time>2025-05-25T09:42:35.000Z</time>
      </trkpt>
      <trkpt lat="43.07729" lon="5.9193">
        <ele>107.6</ele>
        <time>2025-05-25T09:42:57.000Z</time>
      </trkpt>
      <trkpt lat="43.07728" lon="5.9193">
        <ele>107.6</ele>
        <time>2025-05-25T09:42:58.000Z</time>
      </trkpt>
      <trkpt lat="43.07728" lon="5.9193">
        <ele>107.6</ele>
        <time>2025-05-25T09:42:59.000Z</time>
      </trkpt>
      <trkpt lat="43.07728" lon="5.9193">
        <ele>107.6</ele>
        <time>2025-05-25T09:43:00.000Z</time>
      </trkpt>
      <trkpt lat="43.07728" lon="5.9193">
        <ele>107.6</ele>
        <time>2025-05-25T09:43:01.000Z</time>
      </trkpt>
      <trkpt lat="43.07728" lon="5.91929">
        <ele>107.6</ele>
        <time>2025-05-25T09:43:16.000Z</time>
      </trkpt>
      <trkpt lat="43.07728" lon="5.91928">
        <ele>107.6</ele>
        <time>2025-05-25T09:43:17.000Z</time>
      </trkpt>
      <trkpt lat="43.07728" lon="5.91928">
        <ele>107.6</ele>
        <time>2025-05-25T09:43:18.000Z</time>
      </trkpt>
      <trkpt lat="43.07728" lon="5.91928">
        <ele>107.6</ele>
        <time>2025-05-25T09:43:19.000Z</time>
      </trkpt>
      <trkpt lat="43.07728" lon="5.91928">
        <ele>107.6</ele>
        <time>2025-05-25T09:43:20.000Z</time>
      </trkpt>
      <trkpt lat="43.07728" lon="5.91928">
        <ele>107.6</ele>
        <time>2025-05-25T09:43:21.000Z</time>
      </trkpt>
      <trkpt lat="43.07727" lon="5.91928">
        <ele>107.5</ele>
        <time>2025-05-25T09:43:27.000Z</time>
      </trkpt>
      <trkpt lat="43.07727" lon="5.91928">
        <ele>107.5</ele>
        <time>2025-05-25T09:43:28.000Z</time>
      </trkpt>
      <trkpt lat="43.07726" lon="5.91928">
        <ele>107.5</ele>
        <time>2025-05-25T09:43:29.000Z</time>
      </trkpt>
      <trkpt lat="43.07725" lon="5.91929">
        <ele>107.5</ele>
        <time>2025-05-25T09:43:38.000Z</time>
      </trkpt>
      <trkpt lat="43.07725" lon="5.91929">
        <ele>107.5</ele>
        <time>2025-05-25T09:43:39.000Z</time>
      </trkpt>
      <trkpt lat="43.07725" lon="5.91929">
        <ele>107.5</ele>
        <time>2025-05-25T09:43:40.000Z</time>
      </trkpt>
      <trkpt lat="43.07725" lon="5.91928">
        <ele>107.5</ele>
        <time>2025-05-25T09:43:45.000Z</time>
      </trkpt>
      <trkpt lat="43.07725" lon="5.91928">
        <ele>107.5</ele>
        <time>2025-05-25T09:43:46.000Z</time>
      </trkpt>
      <trkpt lat="43.07725" lon="5.91928">
        <ele>107.5</ele>
        <time>2025-05-25T09:43:47.000Z</time>
      </trkpt>
      <trkpt lat="43.07725" lon="5.91928">
        <ele>107.5</ele>
        <time>2025-05-25T09:43:48.000Z</time>
      </trkpt>
      <trkpt lat="43.07725" lon="5.91928">
        <ele>107.5</ele>
        <time>2025-05-25T09:43:49.000Z</time>
      </trkpt>
      <trkpt lat="43.07725" lon="5.91928">
        <ele>107.5</ele>
        <time>2025-05-25T09:43:50.000Z</time>
      </trkpt>
      <trkpt lat="43.07725" lon="5.91929">
        <ele>107.5</ele>
        <time>2025-05-25T09:44:28.000Z</time>
      </trkpt>
      <trkpt lat="43.07725" lon="5.91929">
        <ele>107.5</ele>
        <time>2025-05-25T09:44:29.000Z</time>
      </trkpt>
      <trkpt lat="43.07725" lon="5.91929">
        <ele>107.5</ele>
        <time>2025-05-25T09:44:30.000Z</time>
      </trkpt>
      <trkpt lat="43.07725" lon="5.91929">
        <ele>107.5</ele>
        <time>2025-05-25T09:44:31.000Z</time>
      </trkpt>
      <trkpt lat="43.07724" lon="5.91929">
        <ele>107.5</ele>
        <time>2025-05-25T09:45:03.000Z</time>
      </trkpt>
      <trkpt lat="43.07724" lon="5.9193">
        <ele>107.5</ele>
        <time>2025-05-25T09:45:04.000Z</time>
      </trkpt>
      <trkpt lat="43.07723" lon="5.9193">
        <ele>107.5</ele>
        <time>2025-05-25T09:45:05.000Z</time>
      </trkpt>
      <trkpt lat="43.07717" lon="5.9194">
        <ele>107.5</ele>
        <time>2025-05-25T09:45:20.000Z</time>
      </trkpt>
      <trkpt lat="43.07711" lon="5.91949">
        <ele>107.4</ele>
        <time>2025-05-25T09:45:36.000Z</time>
      </trkpt>
      <trkpt lat="43.07708" lon="5.9195">
        <ele>107.4</ele>
        <time>2025-05-25T09:45:51.000Z</time>
      </trkpt>
      <trkpt lat="43.07708" lon="5.9195">
        <ele>107.4</ele>
        <time>2025-05-25T09:45:52.000Z</time>
      </trkpt>
      <trkpt lat="43.07709" lon="5.91952">
        <ele>107.4</ele>
        <time>2025-05-25T09:46:10.000Z</time>
      </trkpt>
      <trkpt lat="43.07709" lon="5.91952">
        <ele>107.4</ele>
        <time>2025-05-25T09:46:11.000Z</time>
      </trkpt>
      <trkpt lat="43.07709" lon="5.91953">
        <ele>107.4</ele>
        <time>2025-05-25T09:46:15.000Z</time>
      </trkpt>
      <trkpt lat="43.07709" lon="5.91953">
        <ele>107.4</ele>
        <time>2025-05-25T09:46:16.000Z</time>
      </trkpt>
      <trkpt lat="43.07709" lon="5.91953">
        <ele>107.4</ele>
        <time>2025-05-25T09:46:17.000Z</time>
      </trkpt>
      <trkpt lat="43.07709" lon="5.91953">
        <ele>107.4</ele>
        <time>2025-05-25T09:46:30.000Z</time>
      </trkpt>
      <trkpt lat="43.07709" lon="5.91954">
        <ele>107.4</ele>
        <time>2025-05-25T09:46:31.000Z</time>
      </trkpt>
      <trkpt lat="43.07708" lon="5.91954">
        <ele>107.4</ele>
        <time>2025-05-25T09:46:32.000Z</time>
      </trkpt>
      <trkpt lat="43.07708" lon="5.91956">
        <ele>107.4</ele>
        <time>2025-05-25T09:46:37.000Z</time>
      </trkpt>
      <trkpt lat="43.07708" lon="5.91956">
        <ele>107.4</ele>
        <time>2025-05-25T09:46:38.000Z</time>
      </trkpt>
      <trkpt lat="43.07708" lon="5.91956">
        <ele>107.4</ele>
        <time>2025-05-25T09:46:39.000Z</time>
      </trkpt>
      <trkpt lat="43.0771" lon="5.91957">
        <ele>107.2</ele>
        <time>2025-05-25T09:47:21.000Z</time>
      </trkpt>
      <trkpt lat="43.07709" lon="5.91957">
        <ele>107.2</ele>
        <time>2025-05-25T09:47:22.000Z</time>
      </trkpt>
      <trkpt lat="43.07702" lon="5.91949">
        <ele>107.2</ele>
        <time>2025-05-25T09:47:36.000Z</time>
      </trkpt>
      <trkpt lat="43.07703" lon="5.91937">
        <ele>107.2</ele>
        <time>2025-05-25T09:47:47.000Z</time>
      </trkpt>
      <trkpt lat="43.07694" lon="5.91935">
        <ele>105.6</ele>
        <time>2025-05-25T09:48:11.000Z</time>
      </trkpt>
      <trkpt lat="43.07685" lon="5.91933">
        <ele>104.2</ele>
        <time>2025-05-25T09:48:20.000Z</time>
      </trkpt>
      <trkpt lat="43.07683" lon="5.91946">
        <ele>103.3</ele>
        <time>2025-05-25T09:48:27.000Z</time>
      </trkpt>
      <trkpt lat="43.0768" lon="5.91958">
        <ele>103.2</ele>
        <time>2025-05-25T09:48:37.000Z</time>
      </trkpt>
      <trkpt lat="43.07671" lon="5.91962">
        <ele>103.1</ele>
        <time>2025-05-25T09:48:46.000Z</time>
      </trkpt>
      <trkpt lat="43.07664" lon="5.9197">
        <ele>102.8</ele>
        <time>2025-05-25T09:48:56.000Z</time>
      </trkpt>
      <trkpt lat="43.07661" lon="5.91979">
        <ele>101.7</ele>
        <time>2025-05-25T09:49:10.000Z</time>
      </trkpt>
      <trkpt lat="43.07661" lon="5.91979">
        <ele>101.6</ele>
        <time>2025-05-25T09:49:11.000Z</time>
      </trkpt>
      <trkpt lat="43.0766" lon="5.91979">
        <ele>101.5</ele>
        <time>2025-05-25T09:49:12.000Z</time>
      </trkpt>
      <trkpt lat="43.0766" lon="5.9198">
        <ele>101.4</ele>
        <time>2025-05-25T09:49:13.000Z</time>
      </trkpt>
      <trkpt lat="43.07659" lon="5.91982">
        <ele>101.4</ele>
        <time>2025-05-25T09:49:14.000Z</time>
      </trkpt>
      <trkpt lat="43.07651" lon="5.91987">
        <ele>99.3</ele>
        <time>2025-05-25T09:49:33.000Z</time>
      </trkpt>
      <trkpt lat="43.07643" lon="5.91994">
        <ele>97.2</ele>
        <time>2025-05-25T09:49:46.000Z</time>
      </trkpt>
      <trkpt lat="43.07638" lon="5.92005">
        <ele>96.2</ele>
        <time>2025-05-25T09:49:55.000Z</time>
      </trkpt>
      <trkpt lat="43.07629" lon="5.92004">
        <ele>93.6</ele>
        <time>2025-05-25T09:50:11.000Z</time>
      </trkpt>
      <trkpt lat="43.07619" lon="5.92007">
        <ele>91.2</ele>
        <time>2025-05-25T09:50:25.000Z</time>
      </trkpt>
      <trkpt lat="43.07618" lon="5.9202">
        <ele>90.4</ele>
        <time>2025-05-25T09:50:34.000Z</time>
      </trkpt>
      <trkpt lat="43.0762" lon="5.92034">
        <ele>90.2</ele>
        <time>2025-05-25T09:50:46.000Z</time>
      </trkpt>
      <trkpt lat="43.0762" lon="5.92041">
        <ele>90.3</ele>
        <time>2025-05-25T09:50:55.000Z</time>
      </trkpt>
      <trkpt lat="43.0762" lon="5.92041">
        <ele>90.3</ele>
        <time>2025-05-25T09:50:56.000Z</time>
      </trkpt>
      <trkpt lat="43.0762" lon="5.92041">
        <ele>90.3</ele>
        <time>2025-05-25T09:50:57.000Z</time>
      </trkpt>
      <trkpt lat="43.0762" lon="5.92041">
        <ele>90.3</ele>
        <time>2025-05-25T09:50:58.000Z</time>
      </trkpt>
      <trkpt lat="43.0762" lon="5.92042">
        <ele>90.3</ele>
        <time>2025-05-25T09:50:59.000Z</time>
      </trkpt>
      <trkpt lat="43.07624" lon="5.92055">
        <ele>90.2</ele>
        <time>2025-05-25T09:51:08.000Z</time>
      </trkpt>
      <trkpt lat="43.07627" lon="5.92063">
        <ele>90</ele>
        <time>2025-05-25T09:51:22.000Z</time>
      </trkpt>
      <trkpt lat="43.07627" lon="5.92063">
        <ele>90</ele>
        <time>2025-05-25T09:51:23.000Z</time>
      </trkpt>
      <trkpt lat="43.07627" lon="5.92063">
        <ele>89.9</ele>
        <time>2025-05-25T09:51:24.000Z</time>
      </trkpt>
      <trkpt lat="43.07627" lon="5.92063">
        <ele>89.8</ele>
        <time>2025-05-25T09:51:30.000Z</time>
      </trkpt>
      <trkpt lat="43.07627" lon="5.92064">
        <ele>89.8</ele>
        <time>2025-05-25T09:51:31.000Z</time>
      </trkpt>
      <trkpt lat="43.07627" lon="5.92067">
        <ele>89.8</ele>
        <time>2025-05-25T09:51:42.000Z</time>
      </trkpt>
      <trkpt lat="43.07626" lon="5.92067">
        <ele>89.8</ele>
        <time>2025-05-25T09:51:43.000Z</time>
      </trkpt>
      <trkpt lat="43.07626" lon="5.92067">
        <ele>89.8</ele>
        <time>2025-05-25T09:51:44.000Z</time>
      </trkpt>
      <trkpt lat="43.07623" lon="5.92067">
        <ele>89.7</ele>
        <time>2025-05-25T09:51:56.000Z</time>
      </trkpt>
      <trkpt lat="43.07623" lon="5.92067">
        <ele>89.7</ele>
        <time>2025-05-25T09:51:57.000Z</time>
      </trkpt>
      <trkpt lat="43.07623" lon="5.92068">
        <ele>89.7</ele>
        <time>2025-05-25T09:51:58.000Z</time>
      </trkpt>
      <trkpt lat="43.07623" lon="5.92068">
        <ele>89.6</ele>
        <time>2025-05-25T09:51:59.000Z</time>
      </trkpt>
      <trkpt lat="43.07622" lon="5.92069">
        <ele>89.5</ele>
        <time>2025-05-25T09:52:10.000Z</time>
      </trkpt>
      <trkpt lat="43.07622" lon="5.92069">
        <ele>89.5</ele>
        <time>2025-05-25T09:52:11.000Z</time>
      </trkpt>
      <trkpt lat="43.07628" lon="5.92078">
        <ele>88.6</ele>
        <time>2025-05-25T09:52:45.000Z</time>
      </trkpt>
      <trkpt lat="43.07625" lon="5.9209">
        <ele>87.5</ele>
        <time>2025-05-25T09:52:57.000Z</time>
      </trkpt>
      <trkpt lat="43.0763" lon="5.921">
        <ele>85.5</ele>
        <time>2025-05-25T09:53:16.000Z</time>
      </trkpt>
      <trkpt lat="43.07629" lon="5.92103">
        <ele>85.5</ele>
        <time>2025-05-25T09:53:20.000Z</time>
      </trkpt>
      <trkpt lat="43.07629" lon="5.92103">
        <ele>85.5</ele>
        <time>2025-05-25T09:53:21.000Z</time>
      </trkpt>
      <trkpt lat="43.07629" lon="5.92103">
        <ele>85.4</ele>
        <time>2025-05-25T09:53:22.000Z</time>
      </trkpt>
      <trkpt lat="43.07629" lon="5.92104">
        <ele>85.3</ele>
        <time>2025-05-25T09:53:23.000Z</time>
      </trkpt>
      <trkpt lat="43.07627" lon="5.92105">
        <ele>85.2</ele>
        <time>2025-05-25T09:53:24.000Z</time>
      </trkpt>
      <trkpt lat="43.07627" lon="5.92106">
        <ele>85.2</ele>
        <time>2025-05-25T09:53:25.000Z</time>
      </trkpt>
      <trkpt lat="43.07619" lon="5.92112">
        <ele>85</ele>
        <time>2025-05-25T09:53:33.000Z</time>
      </trkpt>
      <trkpt lat="43.07611" lon="5.9212">
        <ele>85.1</ele>
        <time>2025-05-25T09:53:44.000Z</time>
      </trkpt>
      <trkpt lat="43.07604" lon="5.92127">
        <ele>85.6</ele>
        <time>2025-05-25T09:53:58.000Z</time>
      </trkpt>
      <trkpt lat="43.07594" lon="5.92129">
        <ele>86.4</ele>
        <time>2025-05-25T09:54:11.000Z</time>
      </trkpt>
      <trkpt lat="43.07585" lon="5.92126">
        <ele>86.7</ele>
        <time>2025-05-25T09:54:21.000Z</time>
      </trkpt>
      <trkpt lat="43.0758" lon="5.92122">
        <ele>86.8</ele>
        <time>2025-05-25T09:54:28.000Z</time>
      </trkpt>
      <trkpt lat="43.0758" lon="5.92121">
        <ele>86.8</ele>
        <time>2025-05-25T09:54:29.000Z</time>
      </trkpt>
      <trkpt lat="43.07579" lon="5.92121">
        <ele>86.8</ele>
        <time>2025-05-25T09:54:30.000Z</time>
      </trkpt>
      <trkpt lat="43.07579" lon="5.92121">
        <ele>86.8</ele>
        <time>2025-05-25T09:54:31.000Z</time>
      </trkpt>
      <trkpt lat="43.07571" lon="5.92113">
        <ele>87</ele>
        <time>2025-05-25T09:54:44.000Z</time>
      </trkpt>
      <trkpt lat="43.07569" lon="5.9211">
        <ele>86.9</ele>
        <time>2025-05-25T09:54:55.000Z</time>
      </trkpt>
      <trkpt lat="43.07569" lon="5.9211">
        <ele>86.9</ele>
        <time>2025-05-25T09:54:56.000Z</time>
      </trkpt>
      <trkpt lat="43.0757" lon="5.92108">
        <ele>86.9</ele>
        <time>2025-05-25T09:55:02.000Z</time>
      </trkpt>
      <trkpt lat="43.07571" lon="5.92107">
        <ele>86.9</ele>
        <time>2025-05-25T09:55:03.000Z</time>
      </trkpt>
      <trkpt lat="43.0757" lon="5.92106">
        <ele>86.9</ele>
        <time>2025-05-25T09:55:04.000Z</time>
      </trkpt>
      <trkpt lat="43.07563" lon="5.92099">
        <ele>86.7</ele>
        <time>2025-05-25T09:55:14.000Z</time>
      </trkpt>
      <trkpt lat="43.07554" lon="5.92093">
        <ele>86.6</ele>
        <time>2025-05-25T09:55:21.000Z</time>
      </trkpt>
      <trkpt lat="43.07544" lon="5.92091">
        <ele>86.3</ele>
        <time>2025-05-25T09:55:32.000Z</time>
      </trkpt>
      <trkpt lat="43.07535" lon="5.92091">
        <ele>86.1</ele>
        <time>2025-05-25T09:55:41.000Z</time>
      </trkpt>
      <trkpt lat="43.07534" lon="5.92089">
        <ele>86.1</ele>
        <time>2025-05-25T09:55:45.000Z</time>
      </trkpt>
      <trkpt lat="43.07534" lon="5.92089">
        <ele>86.1</ele>
        <time>2025-05-25T09:55:46.000Z</time>
      </trkpt>
      <trkpt lat="43.07532" lon="5.92088">
        <ele>86</ele>
        <time>2025-05-25T09:55:53.000Z</time>
      </trkpt>
      <trkpt lat="43.07532" lon="5.9209">
        <ele>86</ele>
        <time>2025-05-25T09:55:54.000Z</time>
      </trkpt>
      <trkpt lat="43.07532" lon="5.9209">
        <ele>86</ele>
        <time>2025-05-25T09:55:55.000Z</time>
      </trkpt>
      <trkpt lat="43.07523" lon="5.92092">
        <ele>85.8</ele>
        <time>2025-05-25T09:56:07.000Z</time>
      </trkpt>
      <trkpt lat="43.07514" lon="5.92092">
        <ele>85.5</ele>
        <time>2025-05-25T09:56:21.000Z</time>
      </trkpt>
      <trkpt lat="43.07505" lon="5.92089">
        <ele>85.2</ele>
        <time>2025-05-25T09:56:33.000Z</time>
      </trkpt>
      <trkpt lat="43.07495" lon="5.9209">
        <ele>84.6</ele>
        <time>2025-05-25T09:56:41.000Z</time>
      </trkpt>
      <trkpt lat="43.07486" lon="5.92093">
        <ele>84.4</ele>
        <time>2025-05-25T09:56:55.000Z</time>
      </trkpt>
      <trkpt lat="43.07478" lon="5.92098">
        <ele>84.4</ele>
        <time>2025-05-25T09:57:02.000Z</time>
      </trkpt>
      <trkpt lat="43.07469" lon="5.92102">
        <ele>84.2</ele>
        <time>2025-05-25T09:57:14.000Z</time>
      </trkpt>
      <trkpt lat="43.07461" lon="5.92109">
        <ele>83.5</ele>
        <time>2025-05-25T09:57:27.000Z</time>
      </trkpt>
      <trkpt lat="43.07461" lon="5.92109">
        <ele>82.9</ele>
        <time>2025-05-25T09:57:35.000Z</time>
      </trkpt>
      <trkpt lat="43.07461" lon="5.92109">
        <ele>82.9</ele>
        <time>2025-05-25T09:57:36.000Z</time>
      </trkpt>
      <trkpt lat="43.07459" lon="5.92112">
        <ele>82.7</ele>
        <time>2025-05-25T09:57:40.000Z</time>
      </trkpt>
      <trkpt lat="43.07458" lon="5.92113">
        <ele>82.7</ele>
        <time>2025-05-25T09:57:41.000Z</time>
      </trkpt>
      <trkpt lat="43.0745" lon="5.92118">
        <ele>82.3</ele>
        <time>2025-05-25T09:57:52.000Z</time>
      </trkpt>
      <trkpt lat="43.07448" lon="5.9212">
        <ele>81.6</ele>
        <time>2025-05-25T09:58:02.000Z</time>
      </trkpt>
      <trkpt lat="43.07448" lon="5.9212">
        <ele>81.6</ele>
        <time>2025-05-25T09:58:03.000Z</time>
      </trkpt>
      <trkpt lat="43.07448" lon="5.9212">
        <ele>81.6</ele>
        <time>2025-05-25T09:58:04.000Z</time>
      </trkpt>
      <trkpt lat="43.07448" lon="5.92121">
        <ele>81.3</ele>
        <time>2025-05-25T09:58:20.000Z</time>
      </trkpt>
      <trkpt lat="43.07448" lon="5.92121">
        <ele>81.3</ele>
        <time>2025-05-25T09:58:21.000Z</time>
      </trkpt>
      <trkpt lat="43.07448" lon="5.92121">
        <ele>81.2</ele>
        <time>2025-05-25T09:58:22.000Z</time>
      </trkpt>
      <trkpt lat="43.07448" lon="5.92121">
        <ele>81.2</ele>
        <time>2025-05-25T09:58:23.000Z</time>
      </trkpt>
      <trkpt lat="43.07448" lon="5.92121">
        <ele>81.2</ele>
        <time>2025-05-25T09:58:24.000Z</time>
      </trkpt>
      <trkpt lat="43.07448" lon="5.92122">
        <ele>81.1</ele>
        <time>2025-05-25T09:58:36.000Z</time>
      </trkpt>
      <trkpt lat="43.07448" lon="5.92122">
        <ele>81.1</ele>
        <time>2025-05-25T09:58:37.000Z</time>
      </trkpt>
      <trkpt lat="43.07448" lon="5.92122">
        <ele>81.1</ele>
        <time>2025-05-25T09:58:38.000Z</time>
      </trkpt>
      <trkpt lat="43.07448" lon="5.92122">
        <ele>81.1</ele>
        <time>2025-05-25T09:58:39.000Z</time>
      </trkpt>
      <trkpt lat="43.07448" lon="5.92123">
        <ele>81</ele>
        <time>2025-05-25T09:59:01.000Z</time>
      </trkpt>
      <trkpt lat="43.07448" lon="5.92123">
        <ele>81</ele>
        <time>2025-05-25T09:59:02.000Z</time>
      </trkpt>
      <trkpt lat="43.07448" lon="5.92123">
        <ele>81</ele>
        <time>2025-05-25T09:59:03.000Z</time>
      </trkpt>
      <trkpt lat="43.07448" lon="5.92123">
        <ele>81</ele>
        <time>2025-05-25T09:59:04.000Z</time>
      </trkpt>
      <trkpt lat="43.07448" lon="5.92123">
        <ele>81</ele>
        <time>2025-05-25T09:59:05.000Z</time>
      </trkpt>
      <trkpt lat="43.07447" lon="5.92124">
        <ele>81</ele>
        <time>2025-05-25T09:59:11.000Z</time>
      </trkpt>
      <trkpt lat="43.07446" lon="5.92124">
        <ele>81</ele>
        <time>2025-05-25T09:59:12.000Z</time>
      </trkpt>
      <trkpt lat="43.0744" lon="5.92131">
        <ele>80.8</ele>
        <time>2025-05-25T09:59:25.000Z</time>
      </trkpt>
      <trkpt lat="43.0744" lon="5.92131">
        <ele>80.8</ele>
        <time>2025-05-25T09:59:26.000Z</time>
      </trkpt>
      <trkpt lat="43.0744" lon="5.92131">
        <ele>80.7</ele>
        <time>2025-05-25T09:59:27.000Z</time>
      </trkpt>
      <trkpt lat="43.0744" lon="5.92131">
        <ele>80.6</ele>
        <time>2025-05-25T09:59:31.000Z</time>
      </trkpt>
      <trkpt lat="43.0744" lon="5.92131">
        <ele>80.6</ele>
        <time>2025-05-25T09:59:32.000Z</time>
      </trkpt>
      <trkpt lat="43.0744" lon="5.92131">
        <ele>80.6</ele>
        <time>2025-05-25T09:59:33.000Z</time>
      </trkpt>
      <trkpt lat="43.0744" lon="5.92131">
        <ele>80.6</ele>
        <time>2025-05-25T09:59:34.000Z</time>
      </trkpt>
      <trkpt lat="43.0744" lon="5.92131">
        <ele>80.6</ele>
        <time>2025-05-25T09:59:35.000Z</time>
      </trkpt>
      <trkpt lat="43.0744" lon="5.92131">
        <ele>80.5</ele>
        <time>2025-05-25T09:59:38.000Z</time>
      </trkpt>
      <trkpt lat="43.0744" lon="5.92132">
        <ele>80.5</ele>
        <time>2025-05-25T09:59:39.000Z</time>
      </trkpt>
      <trkpt lat="43.0744" lon="5.92133">
        <ele>80.4</ele>
        <time>2025-05-25T09:59:45.000Z</time>
      </trkpt>
      <trkpt lat="43.0744" lon="5.92133">
        <ele>80.4</ele>
        <time>2025-05-25T09:59:46.000Z</time>
      </trkpt>
      <trkpt lat="43.0744" lon="5.92133">
        <ele>80.4</ele>
        <time>2025-05-25T09:59:47.000Z</time>
      </trkpt>
      <trkpt lat="43.0744" lon="5.92134">
        <ele>80.2</ele>
        <time>2025-05-25T10:01:00.000Z</time>
      </trkpt>
      <trkpt lat="43.07439" lon="5.92134">
        <ele>80.2</ele>
        <time>2025-05-25T10:01:01.000Z</time>
      </trkpt>
      <trkpt lat="43.07439" lon="5.92134">
        <ele>80.1</ele>
        <time>2025-05-25T10:01:08.000Z</time>
      </trkpt>
      <trkpt lat="43.07439" lon="5.92134">
        <ele>80.1</ele>
        <time>2025-05-25T10:01:09.000Z</time>
      </trkpt>
      <trkpt lat="43.07439" lon="5.92134">
        <ele>80.1</ele>
        <time>2025-05-25T10:01:12.000Z</time>
      </trkpt>
      <trkpt lat="43.07438" lon="5.92134">
        <ele>80.1</ele>
        <time>2025-05-25T10:01:13.000Z</time>
      </trkpt>
      <trkpt lat="43.07438" lon="5.92134">
        <ele>80.1</ele>
        <time>2025-05-25T10:01:14.000Z</time>
      </trkpt>
      <trkpt lat="43.07434" lon="5.92135">
        <ele>80</ele>
        <time>2025-05-25T10:01:27.000Z</time>
      </trkpt>
      <trkpt lat="43.07434" lon="5.92135">
        <ele>80</ele>
        <time>2025-05-25T10:01:28.000Z</time>
      </trkpt>
      <trkpt lat="43.07434" lon="5.92135">
        <ele>80</ele>
        <time>2025-05-25T10:01:29.000Z</time>
      </trkpt>
      <trkpt lat="43.07435" lon="5.92136">
        <ele>79.9</ele>
        <time>2025-05-25T10:01:41.000Z</time>
      </trkpt>
      <trkpt lat="43.07435" lon="5.92136">
        <ele>79.9</ele>
        <time>2025-05-25T10:01:42.000Z</time>
      </trkpt>
      <trkpt lat="43.07435" lon="5.92136">
        <ele>79.9</ele>
        <time>2025-05-25T10:01:45.000Z</time>
      </trkpt>
      <trkpt lat="43.07435" lon="5.92136">
        <ele>79.8</ele>
        <time>2025-05-25T10:01:46.000Z</time>
      </trkpt>
      <trkpt lat="43.07435" lon="5.92136">
        <ele>79.8</ele>
        <time>2025-05-25T10:01:47.000Z</time>
      </trkpt>
      <trkpt lat="43.07435" lon="5.92136">
        <ele>79.8</ele>
        <time>2025-05-25T10:01:55.000Z</time>
      </trkpt>
      <trkpt lat="43.07435" lon="5.92136">
        <ele>79.7</ele>
        <time>2025-05-25T10:01:56.000Z</time>
      </trkpt>
      <trkpt lat="43.07435" lon="5.92136">
        <ele>79.7</ele>
        <time>2025-05-25T10:01:57.000Z</time>
      </trkpt>
      <trkpt lat="43.07435" lon="5.92136">
        <ele>79.7</ele>
        <time>2025-05-25T10:02:00.000Z</time>
      </trkpt>
      <trkpt lat="43.07435" lon="5.92136">
        <ele>79.7</ele>
        <time>2025-05-25T10:02:01.000Z</time>
      </trkpt>
      <trkpt lat="43.07434" lon="5.92136">
        <ele>79.7</ele>
        <time>2025-05-25T10:02:16.000Z</time>
      </trkpt>
      <trkpt lat="43.07434" lon="5.92137">
        <ele>79.7</ele>
        <time>2025-05-25T10:02:17.000Z</time>
      </trkpt>
      <trkpt lat="43.07425" lon="5.92143">
        <ele>79.6</ele>
        <time>2025-05-25T10:02:28.000Z</time>
      </trkpt>
      <trkpt lat="43.07417" lon="5.92149">
        <ele>79.4</ele>
        <time>2025-05-25T10:02:37.000Z</time>
      </trkpt>
      <trkpt lat="43.07407" lon="5.92151">
        <ele>78.7</ele>
        <time>2025-05-25T10:02:48.000Z</time>
      </trkpt>
      <trkpt lat="43.07398" lon="5.92149">
        <ele>77.7</ele>
        <time>2025-05-25T10:02:58.000Z</time>
      </trkpt>
      <trkpt lat="43.07389" lon="5.92147">
        <ele>76.8</ele>
        <time>2025-05-25T10:03:13.000Z</time>
      </trkpt>
      <trkpt lat="43.07386" lon="5.92145">
        <ele>76.3</ele>
        <time>2025-05-25T10:03:21.000Z</time>
      </trkpt>
      <trkpt lat="43.07385" lon="5.92145">
        <ele>76.3</ele>
        <time>2025-05-25T10:03:22.000Z</time>
      </trkpt>
      <trkpt lat="43.07385" lon="5.92145">
        <ele>76.2</ele>
        <time>2025-05-25T10:03:23.000Z</time>
      </trkpt>
      <trkpt lat="43.07384" lon="5.92145">
        <ele>76.2</ele>
        <time>2025-05-25T10:03:24.000Z</time>
      </trkpt>
      <trkpt lat="43.07375" lon="5.92143">
        <ele>75.7</ele>
        <time>2025-05-25T10:03:35.000Z</time>
      </trkpt>
      <trkpt lat="43.07366" lon="5.92147">
        <ele>75</ele>
        <time>2025-05-25T10:03:45.000Z</time>
      </trkpt>
      <trkpt lat="43.07372" lon="5.92158">
        <ele>73.8</ele>
        <time>2025-05-25T10:03:57.000Z</time>
      </trkpt>
      <trkpt lat="43.0738" lon="5.92162">
        <ele>72</ele>
        <time>2025-05-25T10:04:08.000Z</time>
      </trkpt>
      <trkpt lat="43.07385" lon="5.92173">
        <ele>70.5</ele>
        <time>2025-05-25T10:04:16.000Z</time>
      </trkpt>
      <trkpt lat="43.07393" lon="5.9218">
        <ele>68.8</ele>
        <time>2025-05-25T10:04:27.000Z</time>
      </trkpt>
      <trkpt lat="43.07401" lon="5.92187">
        <ele>67.4</ele>
        <time>2025-05-25T10:04:38.000Z</time>
      </trkpt>
      <trkpt lat="43.07408" lon="5.92197">
        <ele>65.5</ele>
        <time>2025-05-25T10:04:51.000Z</time>
      </trkpt>
      <trkpt lat="43.07402" lon="5.92206">
        <ele>62.6</ele>
        <time>2025-05-25T10:05:09.000Z</time>
      </trkpt>
      <trkpt lat="43.07393" lon="5.92201">
        <ele>61.7</ele>
        <time>2025-05-25T10:05:20.000Z</time>
      </trkpt>
      <trkpt lat="43.07385" lon="5.92195">
        <ele>61.2</ele>
        <time>2025-05-25T10:05:30.000Z</time>
      </trkpt>
      <trkpt lat="43.07376" lon="5.92191">
        <ele>60.1</ele>
        <time>2025-05-25T10:05:41.000Z</time>
      </trkpt>
      <trkpt lat="43.07375" lon="5.92204">
        <ele>58.5</ele>
        <time>2025-05-25T10:05:53.000Z</time>
      </trkpt>
      <trkpt lat="43.07383" lon="5.92212">
        <ele>57.3</ele>
        <time>2025-05-25T10:06:03.000Z</time>
      </trkpt>
      <trkpt lat="43.07389" lon="5.92221">
        <ele>56.5</ele>
        <time>2025-05-25T10:06:12.000Z</time>
      </trkpt>
      <trkpt lat="43.07395" lon="5.92231">
        <ele>55.5</ele>
        <time>2025-05-25T10:06:21.000Z</time>
      </trkpt>
      <trkpt lat="43.07399" lon="5.92242">
        <ele>54.4</ele>
        <time>2025-05-25T10:06:31.000Z</time>
      </trkpt>
      <trkpt lat="43.07408" lon="5.9225">
        <ele>53.4</ele>
        <time>2025-05-25T10:06:40.000Z</time>
      </trkpt>
      <trkpt lat="43.07417" lon="5.92256">
        <ele>52.3</ele>
        <time>2025-05-25T10:06:50.000Z</time>
      </trkpt>
      <trkpt lat="43.07426" lon="5.92255">
        <ele>51.6</ele>
        <time>2025-05-25T10:06:59.000Z</time>
      </trkpt>
      <trkpt lat="43.07435" lon="5.9225">
        <ele>51.2</ele>
        <time>2025-05-25T10:07:08.000Z</time>
      </trkpt>
      <trkpt lat="43.07442" lon="5.92243">
        <ele>50.9</ele>
        <time>2025-05-25T10:07:17.000Z</time>
      </trkpt>
      <trkpt lat="43.07451" lon="5.92237">
        <ele>50.6</ele>
        <time>2025-05-25T10:07:26.000Z</time>
      </trkpt>
      <trkpt lat="43.07461" lon="5.92237">
        <ele>50.2</ele>
        <time>2025-05-25T10:07:37.000Z</time>
      </trkpt>
      <trkpt lat="43.0747" lon="5.92238">
        <ele>49.7</ele>
        <time>2025-05-25T10:07:48.000Z</time>
      </trkpt>
      <trkpt lat="43.07477" lon="5.92246">
        <ele>49.1</ele>
        <time>2025-05-25T10:07:57.000Z</time>
      </trkpt>
      <trkpt lat="43.07485" lon="5.92251">
        <ele>48.4</ele>
        <time>2025-05-25T10:08:06.000Z</time>
      </trkpt>
      <trkpt lat="43.0748" lon="5.92261">
        <ele>45.7</ele>
        <time>2025-05-25T10:08:27.000Z</time>
      </trkpt>
      <trkpt lat="43.0747" lon="5.92262">
        <ele>44.5</ele>
        <time>2025-05-25T10:08:39.000Z</time>
      </trkpt>
      <trkpt lat="43.0746" lon="5.9226">
        <ele>43.8</ele>
        <time>2025-05-25T10:08:47.000Z</time>
      </trkpt>
      <trkpt lat="43.07452" lon="5.92266">
        <ele>43.5</ele>
        <time>2025-05-25T10:08:53.000Z</time>
      </trkpt>
      <trkpt lat="43.07444" lon="5.92273">
        <ele>43.1</ele>
        <time>2025-05-25T10:09:03.000Z</time>
      </trkpt>
      <trkpt lat="43.07436" lon="5.92279">
        <ele>42.5</ele>
        <time>2025-05-25T10:09:16.000Z</time>
      </trkpt>
      <trkpt lat="43.07429" lon="5.92289">
        <ele>42.2</ele>
        <time>2025-05-25T10:09:25.000Z</time>
      </trkpt>
      <trkpt lat="43.07421" lon="5.92297">
        <ele>41.7</ele>
        <time>2025-05-25T10:09:34.000Z</time>
      </trkpt>
      <trkpt lat="43.07411" lon="5.923">
        <ele>41.1</ele>
        <time>2025-05-25T10:09:44.000Z</time>
      </trkpt>
      <trkpt lat="43.07402" lon="5.923">
        <ele>40.4</ele>
        <time>2025-05-25T10:09:54.000Z</time>
      </trkpt>
      <trkpt lat="43.07393" lon="5.92297">
        <ele>39.7</ele>
        <time>2025-05-25T10:10:05.000Z</time>
      </trkpt>
      <trkpt lat="43.07383" lon="5.92293">
        <ele>39.1</ele>
        <time>2025-05-25T10:10:16.000Z</time>
      </trkpt>
      <trkpt lat="43.07374" lon="5.92292">
        <ele>38.4</ele>
        <time>2025-05-25T10:10:31.000Z</time>
      </trkpt>
      <trkpt lat="43.07365" lon="5.92289">
        <ele>37.2</ele>
        <time>2025-05-25T10:10:48.000Z</time>
      </trkpt>
      <trkpt lat="43.07365" lon="5.92289">
        <ele>37.2</ele>
        <time>2025-05-25T10:10:50.000Z</time>
      </trkpt>
      <trkpt lat="43.07365" lon="5.92289">
        <ele>37.2</ele>
        <time>2025-05-25T10:10:51.000Z</time>
      </trkpt>
      <trkpt lat="43.07365" lon="5.92289">
        <ele>37.1</ele>
        <time>2025-05-25T10:10:52.000Z</time>
      </trkpt>
      <trkpt lat="43.07364" lon="5.92289">
        <ele>37</ele>
        <time>2025-05-25T10:10:56.000Z</time>
      </trkpt>
      <trkpt lat="43.07364" lon="5.92289">
        <ele>37</ele>
        <time>2025-05-25T10:10:57.000Z</time>
      </trkpt>
      <trkpt lat="43.07355" lon="5.92289">
        <ele>36.8</ele>
        <time>2025-05-25T10:11:16.000Z</time>
      </trkpt>
      <trkpt lat="43.07346" lon="5.92291">
        <ele>36.8</ele>
        <time>2025-05-25T10:11:24.000Z</time>
      </trkpt>
      <trkpt lat="43.07339" lon="5.923">
        <ele>36.7</ele>
        <time>2025-05-25T10:11:33.000Z</time>
      </trkpt>
      <trkpt lat="43.07333" lon="5.92309">
        <ele>36.3</ele>
        <time>2025-05-25T10:11:43.000Z</time>
      </trkpt>
      <trkpt lat="43.0733" lon="5.92321">
        <ele>34.7</ele>
        <time>2025-05-25T10:11:56.000Z</time>
      </trkpt>
      <trkpt lat="43.0733" lon="5.92334">
        <ele>32.8</ele>
        <time>2025-05-25T10:12:11.000Z</time>
      </trkpt>
      <trkpt lat="43.07332" lon="5.92346">
        <ele>31.7</ele>
        <time>2025-05-25T10:12:26.000Z</time>
      </trkpt>
      <trkpt lat="43.07333" lon="5.92359">
        <ele>30.7</ele>
        <time>2025-05-25T10:12:37.000Z</time>
      </trkpt>
      <trkpt lat="43.07337" lon="5.92371">
        <ele>29.4</ele>
        <time>2025-05-25T10:12:48.000Z</time>
      </trkpt>
      <trkpt lat="43.0734" lon="5.92383">
        <ele>28.1</ele>
        <time>2025-05-25T10:13:00.000Z</time>
      </trkpt>
      <trkpt lat="43.07342" lon="5.92395">
        <ele>26.8</ele>
        <time>2025-05-25T10:13:11.000Z</time>
      </trkpt>
      <trkpt lat="43.07344" lon="5.92407">
        <ele>25.4</ele>
        <time>2025-05-25T10:13:22.000Z</time>
      </trkpt>
      <trkpt lat="43.07345" lon="5.9242">
        <ele>24</ele>
        <time>2025-05-25T10:13:33.000Z</time>
      </trkpt>
      <trkpt lat="43.07347" lon="5.92433">
        <ele>22.9</ele>
        <time>2025-05-25T10:13:44.000Z</time>
      </trkpt>
      <trkpt lat="43.07343" lon="5.92445">
        <ele>22.2</ele>
        <time>2025-05-25T10:13:55.000Z</time>
      </trkpt>
      <trkpt lat="43.07335" lon="5.92451">
        <ele>22.3</ele>
        <time>2025-05-25T10:14:04.000Z</time>
      </trkpt>
      <trkpt lat="43.07332" lon="5.92463">
        <ele>22.7</ele>
        <time>2025-05-25T10:14:14.000Z</time>
      </trkpt>
      <trkpt lat="43.07339" lon="5.92471">
        <ele>21.6</ele>
        <time>2025-05-25T10:14:36.000Z</time>
      </trkpt>
      <trkpt lat="43.07346" lon="5.92479">
        <ele>19.5</ele>
        <time>2025-05-25T10:14:55.000Z</time>
      </trkpt>
      <trkpt lat="43.07346" lon="5.92491">
        <ele>18.6</ele>
        <time>2025-05-25T10:15:06.000Z</time>
      </trkpt>
      <trkpt lat="43.07346" lon="5.92504">
        <ele>17.9</ele>
        <time>2025-05-25T10:15:15.000Z</time>
      </trkpt>
      <trkpt lat="43.07344" lon="5.92517">
        <ele>17.1</ele>
        <time>2025-05-25T10:15:24.000Z</time>
      </trkpt>
      <trkpt lat="43.0734" lon="5.92529">
        <ele>16.1</ele>
        <time>2025-05-25T10:15:34.000Z</time>
      </trkpt>
      <trkpt lat="43.07338" lon="5.92541">
        <ele>15.1</ele>
        <time>2025-05-25T10:15:42.000Z</time>
      </trkpt>
      <trkpt lat="43.07334" lon="5.92553">
        <ele>14.1</ele>
        <time>2025-05-25T10:15:51.000Z</time>
      </trkpt>
      <trkpt lat="43.07329" lon="5.92563">
        <ele>13.4</ele>
        <time>2025-05-25T10:16:00.000Z</time>
      </trkpt>
      <trkpt lat="43.07328" lon="5.92576">
        <ele>12.6</ele>
        <time>2025-05-25T10:16:08.000Z</time>
      </trkpt>
      <trkpt lat="43.07327" lon="5.92587">
        <ele>11.7</ele>
        <time>2025-05-25T10:16:20.000Z</time>
      </trkpt>
      <trkpt lat="43.07327" lon="5.92587">
        <ele>11.7</ele>
        <time>2025-05-25T10:16:21.000Z</time>
      </trkpt>
      <trkpt lat="43.07327" lon="5.92587">
        <ele>11.4</ele>
        <time>2025-05-25T10:16:30.000Z</time>
      </trkpt>
      <trkpt lat="43.07327" lon="5.92588">
        <ele>11.3</ele>
        <time>2025-05-25T10:16:31.000Z</time>
      </trkpt>
      <trkpt lat="43.07327" lon="5.92588">
        <ele>11.3</ele>
        <time>2025-05-25T10:16:32.000Z</time>
      </trkpt>
      <trkpt lat="43.07327" lon="5.92588">
        <ele>10.7</ele>
        <time>2025-05-25T10:16:37.000Z</time>
      </trkpt>
      <trkpt lat="43.07327" lon="5.92588">
        <ele>10.8</ele>
        <time>2025-05-25T10:16:38.000Z</time>
      </trkpt>
      <trkpt lat="43.07327" lon="5.92588">
        <ele>11.1</ele>
        <time>2025-05-25T10:16:39.000Z</time>
      </trkpt>
      <trkpt lat="43.07327" lon="5.92588">
        <ele>11.3</ele>
        <time>2025-05-25T10:16:40.000Z</time>
      </trkpt>
      <trkpt lat="43.07327" lon="5.92588">
        <ele>11</ele>
        <time>2025-05-25T10:16:41.000Z</time>
      </trkpt>
      <trkpt lat="43.07327" lon="5.92589">
        <ele>10.7</ele>
        <time>2025-05-25T10:16:45.000Z</time>
      </trkpt>
      <trkpt lat="43.07327" lon="5.92589">
        <ele>10.8</ele>
        <time>2025-05-25T10:16:46.000Z</time>
      </trkpt>
      <trkpt lat="43.07328" lon="5.9259">
        <ele>11.2</ele>
        <time>2025-05-25T10:18:21.000Z</time>
      </trkpt>
      <trkpt lat="43.07328" lon="5.9259">
        <ele>11.3</ele>
        <time>2025-05-25T10:18:22.000Z</time>
      </trkpt>
      <trkpt lat="43.07328" lon="5.92591">
        <ele>11.3</ele>
        <time>2025-05-25T10:18:31.000Z</time>
      </trkpt>
      <trkpt lat="43.07328" lon="5.92591">
        <ele>11.3</ele>
        <time>2025-05-25T10:18:32.000Z</time>
      </trkpt>
      <trkpt lat="43.07331" lon="5.92594">
        <ele>11.3</ele>
        <time>2025-05-25T10:18:41.000Z</time>
      </trkpt>
      <trkpt lat="43.07331" lon="5.92595">
        <ele>11.3</ele>
        <time>2025-05-25T10:18:42.000Z</time>
      </trkpt>
      <trkpt lat="43.07338" lon="5.92604">
        <ele>11.3</ele>
        <time>2025-05-25T10:18:50.000Z</time>
      </trkpt>
      <trkpt lat="43.07346" lon="5.9261">
        <ele>11</ele>
        <time>2025-05-25T10:18:59.000Z</time>
      </trkpt>
      <trkpt lat="43.07354" lon="5.92617">
        <ele>10.7</ele>
        <time>2025-05-25T10:19:09.000Z</time>
      </trkpt>
      <trkpt lat="43.07362" lon="5.92622">
        <ele>10.2</ele>
        <time>2025-05-25T10:19:19.000Z</time>
      </trkpt>
      <trkpt lat="43.07371" lon="5.92629">
        <ele>9.9</ele>
        <time>2025-05-25T10:19:28.000Z</time>
      </trkpt>
      <trkpt lat="43.07379" lon="5.92636">
        <ele>9.7</ele>
        <time>2025-05-25T10:19:37.000Z</time>
      </trkpt>
      <trkpt lat="43.07387" lon="5.92643">
        <ele>9.4</ele>
        <time>2025-05-25T10:19:46.000Z</time>
      </trkpt>
      <trkpt lat="43.07396" lon="5.92647">
        <ele>9.1</ele>
        <time>2025-05-25T10:19:55.000Z</time>
      </trkpt>
      <trkpt lat="43.07405" lon="5.92651">
        <ele>8.9</ele>
        <time>2025-05-25T10:20:04.000Z</time>
      </trkpt>
      <trkpt lat="43.07412" lon="5.9266">
        <ele>8.7</ele>
        <time>2025-05-25T10:20:13.000Z</time>
      </trkpt>
      <trkpt lat="43.0742" lon="5.92665">
        <ele>8.4</ele>
        <time>2025-05-25T10:20:24.000Z</time>
      </trkpt>
      <trkpt lat="43.07425" lon="5.92678">
        <ele>8.2</ele>
        <time>2025-05-25T10:20:36.000Z</time>
      </trkpt>
      <trkpt lat="43.07429" lon="5.9269">
        <ele>8</ele>
        <time>2025-05-25T10:20:45.000Z</time>
      </trkpt>
      <trkpt lat="43.07433" lon="5.92701">
        <ele>7.7</ele>
        <time>2025-05-25T10:20:55.000Z</time>
      </trkpt>
      <trkpt lat="43.07439" lon="5.92713">
        <ele>7.4</ele>
        <time>2025-05-25T10:21:04.000Z</time>
      </trkpt>
      <trkpt lat="43.07446" lon="5.92721">
        <ele>7.3</ele>
        <time>2025-05-25T10:21:13.000Z</time>
      </trkpt>
      <trkpt lat="43.07448" lon="5.92724">
        <ele>7.1</ele>
        <time>2025-05-25T10:21:20.000Z</time>
      </trkpt>
      <trkpt lat="43.07448" lon="5.92724">
        <ele>7.1</ele>
        <time>2025-05-25T10:21:21.000Z</time>
      </trkpt>
      <trkpt lat="43.07448" lon="5.92725">
        <ele>7.1</ele>
        <time>2025-05-25T10:21:22.000Z</time>
      </trkpt>
      <trkpt lat="43.07449" lon="5.92725">
        <ele>7.1</ele>
        <time>2025-05-25T10:21:23.000Z</time>
      </trkpt>
      <trkpt lat="43.07449" lon="5.92725">
        <ele>7.1</ele>
        <time>2025-05-25T10:21:24.000Z</time>
      </trkpt>
      <trkpt lat="43.07456" lon="5.9273">
        <ele>6.8</ele>
        <time>2025-05-25T10:21:38.000Z</time>
      </trkpt>
      <trkpt lat="43.07456" lon="5.9273">
        <ele>6.8</ele>
        <time>2025-05-25T10:21:39.000Z</time>
      </trkpt>
      <trkpt lat="43.07457" lon="5.92731">
        <ele>6.6</ele>
        <time>2025-05-25T10:21:50.000Z</time>
      </trkpt>
      <trkpt lat="43.07457" lon="5.92731">
        <ele>6.6</ele>
        <time>2025-05-25T10:21:51.000Z</time>
      </trkpt>
      <trkpt lat="43.07457" lon="5.92731">
        <ele>6.6</ele>
        <time>2025-05-25T10:21:52.000Z</time>
      </trkpt>
      <trkpt lat="43.07457" lon="5.92731">
        <ele>6.6</ele>
        <time>2025-05-25T10:21:53.000Z</time>
      </trkpt>
      <trkpt lat="43.07457" lon="5.92731">
        <ele>6.6</ele>
        <time>2025-05-25T10:21:54.000Z</time>
      </trkpt>
      <trkpt lat="43.07458" lon="5.92731">
        <ele>6.5</ele>
        <time>2025-05-25T10:22:18.000Z</time>
      </trkpt>
      <trkpt lat="43.07458" lon="5.9273">
        <ele>6.5</ele>
        <time>2025-05-25T10:22:19.000Z</time>
      </trkpt>
      <trkpt lat="43.07458" lon="5.9273">
        <ele>6.5</ele>
        <time>2025-05-25T10:22:20.000Z</time>
      </trkpt>
      <trkpt lat="43.07458" lon="5.9273">
        <ele>6.5</ele>
        <time>2025-05-25T10:22:21.000Z</time>
      </trkpt>
      <trkpt lat="43.07458" lon="5.9273">
        <ele>6.5</ele>
        <time>2025-05-25T10:22:22.000Z</time>
      </trkpt>
      <trkpt lat="43.07458" lon="5.9273">
        <ele>6.5</ele>
        <time>2025-05-25T10:22:23.000Z</time>
      </trkpt>
      <trkpt lat="43.07458" lon="5.9273">
        <ele>6.5</ele>
        <time>2025-05-25T10:22:24.000Z</time>
      </trkpt>
      <trkpt lat="43.07458" lon="5.9273">
        <ele>6.5</ele>
        <time>2025-05-25T10:22:25.000Z</time>
      </trkpt>
      <trkpt lat="43.07458" lon="5.9273">
        <ele>6.5</ele>
        <time>2025-05-25T10:22:26.000Z</time>
      </trkpt>
      <trkpt lat="43.07458" lon="5.9273">
        <ele>6.5</ele>
        <time>2025-05-25T10:22:27.000Z</time>
      </trkpt>
      <trkpt lat="43.07458" lon="5.9273">
        <ele>6.5</ele>
        <time>2025-05-25T10:22:32.000Z</time>
      </trkpt>
      <trkpt lat="43.07458" lon="5.9273">
        <ele>6.5</ele>
        <time>2025-05-25T10:22:33.000Z</time>
      </trkpt>
      <trkpt lat="43.07458" lon="5.92731">
        <ele>6.5</ele>
        <time>2025-05-25T10:22:34.000Z</time>
      </trkpt>
      <trkpt lat="43.07456" lon="5.92743">
        <ele>6.5</ele>
        <time>2025-05-25T10:22:48.000Z</time>
      </trkpt>
      <trkpt lat="43.07454" lon="5.92756">
        <ele>6.5</ele>
        <time>2025-05-25T10:22:58.000Z</time>
      </trkpt>
      <trkpt lat="43.07451" lon="5.92769">
        <ele>6.5</ele>
        <time>2025-05-25T10:23:08.000Z</time>
      </trkpt>
      <trkpt lat="43.07449" lon="5.92781">
        <ele>6.6</ele>
        <time>2025-05-25T10:23:18.000Z</time>
      </trkpt>
      <trkpt lat="43.07443" lon="5.9279">
        <ele>6.7</ele>
        <time>2025-05-25T10:23:29.000Z</time>
      </trkpt>
      <trkpt lat="43.07433" lon="5.9279">
        <ele>6.8</ele>
        <time>2025-05-25T10:23:37.000Z</time>
      </trkpt>
      <trkpt lat="43.07424" lon="5.92791">
        <ele>7</ele>
        <time>2025-05-25T10:23:46.000Z</time>
      </trkpt>
      <trkpt lat="43.07415" lon="5.92792">
        <ele>7.1</ele>
        <time>2025-05-25T10:23:55.000Z</time>
      </trkpt>
      <trkpt lat="43.07405" lon="5.92792">
        <ele>7.1</ele>
        <time>2025-05-25T10:24:06.000Z</time>
      </trkpt>
      <trkpt lat="43.07395" lon="5.92792">
        <ele>7.1</ele>
        <time>2025-05-25T10:24:15.000Z</time>
      </trkpt>
      <trkpt lat="43.07386" lon="5.92793">
        <ele>7</ele>
        <time>2025-05-25T10:24:23.000Z</time>
      </trkpt>
      <trkpt lat="43.07377" lon="5.92793">
        <ele>7</ele>
        <time>2025-05-25T10:24:31.000Z</time>
      </trkpt>
      <trkpt lat="43.07367" lon="5.92793">
        <ele>7</ele>
        <time>2025-05-25T10:24:43.000Z</time>
      </trkpt>
      <trkpt lat="43.07357" lon="5.92795">
        <ele>7.1</ele>
        <time>2025-05-25T10:24:50.000Z</time>
      </trkpt>
      <trkpt lat="43.07349" lon="5.92801">
        <ele>7.1</ele>
        <time>2025-05-25T10:25:01.000Z</time>
      </trkpt>
      <trkpt lat="43.07345" lon="5.92814">
        <ele>7.2</ele>
        <time>2025-05-25T10:25:09.000Z</time>
      </trkpt>
      <trkpt lat="43.07345" lon="5.92826">
        <ele>8.2</ele>
        <time>2025-05-25T10:25:23.000Z</time>
      </trkpt>
      <trkpt lat="43.07342" lon="5.92838">
        <ele>10.8</ele>
        <time>2025-05-25T10:25:40.000Z</time>
      </trkpt>
      <trkpt lat="43.07336" lon="5.92849">
        <ele>11.6</ele>
        <time>2025-05-25T10:25:54.000Z</time>
      </trkpt>
      <trkpt lat="43.07331" lon="5.9286">
        <ele>12.2</ele>
        <time>2025-05-25T10:26:04.000Z</time>
      </trkpt>
      <trkpt lat="43.07325" lon="5.9287">
        <ele>12.8</ele>
        <time>2025-05-25T10:26:15.000Z</time>
      </trkpt>
      <trkpt lat="43.07317" lon="5.92878">
        <ele>13.6</ele>
        <time>2025-05-25T10:26:27.000Z</time>
      </trkpt>
      <trkpt lat="43.0731" lon="5.92886">
        <ele>14.2</ele>
        <time>2025-05-25T10:26:35.000Z</time>
      </trkpt>
      <trkpt lat="43.07302" lon="5.92893">
        <ele>15.1</ele>
        <time>2025-05-25T10:26:49.000Z</time>
      </trkpt>
      <trkpt lat="43.07293" lon="5.929">
        <ele>16</ele>
        <time>2025-05-25T10:27:03.000Z</time>
      </trkpt>
      <trkpt lat="43.07286" lon="5.92907">
        <ele>16.7</ele>
        <time>2025-05-25T10:27:12.000Z</time>
      </trkpt>
      <trkpt lat="43.07278" lon="5.92913">
        <ele>17.2</ele>
        <time>2025-05-25T10:27:19.000Z</time>
      </trkpt>
      <trkpt lat="43.0727" lon="5.9292">
        <ele>18.2</ele>
        <time>2025-05-25T10:27:30.000Z</time>
      </trkpt>
      <trkpt lat="43.07261" lon="5.92925">
        <ele>19.1</ele>
        <time>2025-05-25T10:27:41.000Z</time>
      </trkpt>
      <trkpt lat="43.07255" lon="5.92934">
        <ele>19.7</ele>
        <time>2025-05-25T10:27:49.000Z</time>
      </trkpt>
      <trkpt lat="43.0725" lon="5.92946">
        <ele>20.3</ele>
        <time>2025-05-25T10:27:58.000Z</time>
      </trkpt>
      <trkpt lat="43.07249" lon="5.92959">
        <ele>20.6</ele>
        <time>2025-05-25T10:28:07.000Z</time>
      </trkpt>
      <trkpt lat="43.0725" lon="5.92972">
        <ele>21.2</ele>
        <time>2025-05-25T10:28:20.000Z</time>
      </trkpt>
      <trkpt lat="43.0725" lon="5.92985">
        <ele>21.5</ele>
        <time>2025-05-25T10:28:29.000Z</time>
      </trkpt>
      <trkpt lat="43.0725" lon="5.92998">
        <ele>21.9</ele>
        <time>2025-05-25T10:28:39.000Z</time>
      </trkpt>
      <trkpt lat="43.07249" lon="5.93002">
        <ele>22.2</ele>
        <time>2025-05-25T10:28:47.000Z</time>
      </trkpt>
      <trkpt lat="43.07249" lon="5.93002">
        <ele>22.2</ele>
        <time>2025-05-25T10:28:48.000Z</time>
      </trkpt>
      <trkpt lat="43.07249" lon="5.93002">
        <ele>22.2</ele>
        <time>2025-05-25T10:28:49.000Z</time>
      </trkpt>
      <trkpt lat="43.07249" lon="5.93005">
        <ele>22.3</ele>
        <time>2025-05-25T10:28:52.000Z</time>
      </trkpt>
      <trkpt lat="43.07249" lon="5.93006">
        <ele>22.3</ele>
        <time>2025-05-25T10:28:53.000Z</time>
      </trkpt>
      <trkpt lat="43.0725" lon="5.93008">
        <ele>22.3</ele>
        <time>2025-05-25T10:28:54.000Z</time>
      </trkpt>
      <trkpt lat="43.07249" lon="5.93021">
        <ele>22.7</ele>
        <time>2025-05-25T10:29:04.000Z</time>
      </trkpt>
      <trkpt lat="43.07248" lon="5.93035">
        <ele>23.1</ele>
        <time>2025-05-25T10:29:13.000Z</time>
      </trkpt>
      <trkpt lat="43.07246" lon="5.93047">
        <ele>23.4</ele>
        <time>2025-05-25T10:29:22.000Z</time>
      </trkpt>
      <trkpt lat="43.07242" lon="5.93058">
        <ele>23.8</ele>
        <time>2025-05-25T10:29:31.000Z</time>
      </trkpt>
      <trkpt lat="43.07238" lon="5.9307">
        <ele>24.4</ele>
        <time>2025-05-25T10:29:40.000Z</time>
      </trkpt>
      <trkpt lat="43.07232" lon="5.9308">
        <ele>25</ele>
        <time>2025-05-25T10:29:48.000Z</time>
      </trkpt>
      <trkpt lat="43.0723" lon="5.93092">
        <ele>25.6</ele>
        <time>2025-05-25T10:29:57.000Z</time>
      </trkpt>
      <trkpt lat="43.07224" lon="5.93102">
        <ele>26.3</ele>
        <time>2025-05-25T10:30:07.000Z</time>
      </trkpt>
      <trkpt lat="43.07221" lon="5.93114">
        <ele>26.9</ele>
        <time>2025-05-25T10:30:16.000Z</time>
      </trkpt>
      <trkpt lat="43.0722" lon="5.93127">
        <ele>28</ele>
        <time>2025-05-25T10:30:28.000Z</time>
      </trkpt>
      <trkpt lat="43.07216" lon="5.93139">
        <ele>28.5</ele>
        <time>2025-05-25T10:30:39.000Z</time>
      </trkpt>
      <trkpt lat="43.07213" lon="5.93152">
        <ele>28.8</ele>
        <time>2025-05-25T10:30:48.000Z</time>
      </trkpt>
      <trkpt lat="43.07212" lon="5.93164">
        <ele>29</ele>
        <time>2025-05-25T10:30:57.000Z</time>
      </trkpt>
      <trkpt lat="43.07212" lon="5.93177">
        <ele>29.2</ele>
        <time>2025-05-25T10:31:06.000Z</time>
      </trkpt>
      <trkpt lat="43.07215" lon="5.93189">
        <ele>29.2</ele>
        <time>2025-05-25T10:31:15.000Z</time>
      </trkpt>
      <trkpt lat="43.07214" lon="5.93202">
        <ele>29.3</ele>
        <time>2025-05-25T10:31:24.000Z</time>
      </trkpt>
      <trkpt lat="43.07217" lon="5.93215">
        <ele>29.3</ele>
        <time>2025-05-25T10:31:33.000Z</time>
      </trkpt>
      <trkpt lat="43.07219" lon="5.93227">
        <ele>29.3</ele>
        <time>2025-05-25T10:31:41.000Z</time>
      </trkpt>
      <trkpt lat="43.07221" lon="5.9324">
        <ele>29.3</ele>
        <time>2025-05-25T10:31:50.000Z</time>
      </trkpt>
      <trkpt lat="43.07222" lon="5.93253">
        <ele>29.4</ele>
        <time>2025-05-25T10:32:00.000Z</time>
      </trkpt>
      <trkpt lat="43.07218" lon="5.93266">
        <ele>29.4</ele>
        <time>2025-05-25T10:32:09.000Z</time>
      </trkpt>
      <trkpt lat="43.07213" lon="5.93278">
        <ele>29.6</ele>
        <time>2025-05-25T10:32:19.000Z</time>
      </trkpt>
      <trkpt lat="43.07207" lon="5.93287">
        <ele>30.1</ele>
        <time>2025-05-25T10:32:30.000Z</time>
      </trkpt>
      <trkpt lat="43.07205" lon="5.933">
        <ele>31.3</ele>
        <time>2025-05-25T10:32:42.000Z</time>
      </trkpt>
      <trkpt lat="43.07204" lon="5.93314">
        <ele>32.1</ele>
        <time>2025-05-25T10:32:50.000Z</time>
      </trkpt>
      <trkpt lat="43.07205" lon="5.93326">
        <ele>32.9</ele>
        <time>2025-05-25T10:32:59.000Z</time>
      </trkpt>
      <trkpt lat="43.07204" lon="5.93339">
        <ele>33.7</ele>
        <time>2025-05-25T10:33:08.000Z</time>
      </trkpt>
      <trkpt lat="43.07207" lon="5.93352">
        <ele>34.3</ele>
        <time>2025-05-25T10:33:18.000Z</time>
      </trkpt>
      <trkpt lat="43.0721" lon="5.93365">
        <ele>35</ele>
        <time>2025-05-25T10:33:28.000Z</time>
      </trkpt>
      <trkpt lat="43.07207" lon="5.93377">
        <ele>35.7</ele>
        <time>2025-05-25T10:33:38.000Z</time>
      </trkpt>
      <trkpt lat="43.07208" lon="5.93391">
        <ele>36.5</ele>
        <time>2025-05-25T10:33:48.000Z</time>
      </trkpt>
      <trkpt lat="43.07211" lon="5.93403">
        <ele>37</ele>
        <time>2025-05-25T10:33:57.000Z</time>
      </trkpt>
      <trkpt lat="43.07213" lon="5.93415">
        <ele>37.1</ele>
        <time>2025-05-25T10:34:06.000Z</time>
      </trkpt>
      <trkpt lat="43.07217" lon="5.93428">
        <ele>37</ele>
        <time>2025-05-25T10:34:16.000Z</time>
      </trkpt>
      <trkpt lat="43.07219" lon="5.9343">
        <ele>36.8</ele>
        <time>2025-05-25T10:34:22.000Z</time>
      </trkpt>
      <trkpt lat="43.07219" lon="5.9343">
        <ele>36.8</ele>
        <time>2025-05-25T10:34:23.000Z</time>
      </trkpt>
      <trkpt lat="43.07219" lon="5.9343">
        <ele>36.8</ele>
        <time>2025-05-25T10:34:24.000Z</time>
      </trkpt>
      <trkpt lat="43.07219" lon="5.93429">
        <ele>36.6</ele>
        <time>2025-05-25T10:34:37.000Z</time>
      </trkpt>
      <trkpt lat="43.07219" lon="5.93429">
        <ele>36.6</ele>
        <time>2025-05-25T10:34:38.000Z</time>
      </trkpt>
      <trkpt lat="43.07219" lon="5.93429">
        <ele>36.6</ele>
        <time>2025-05-25T10:34:39.000Z</time>
      </trkpt>
      <trkpt lat="43.07219" lon="5.93429">
        <ele>36.6</ele>
        <time>2025-05-25T10:34:40.000Z</time>
      </trkpt>
      <trkpt lat="43.07219" lon="5.93429">
        <ele>36.6</ele>
        <time>2025-05-25T10:34:41.000Z</time>
      </trkpt>
      <trkpt lat="43.07219" lon="5.93429">
        <ele>36.5</ele>
        <time>2025-05-25T10:34:42.000Z</time>
      </trkpt>
      <trkpt lat="43.07219" lon="5.93429">
        <ele>36.4</ele>
        <time>2025-05-25T10:35:05.000Z</time>
      </trkpt>
      <trkpt lat="43.07219" lon="5.9343">
        <ele>36.4</ele>
        <time>2025-05-25T10:35:06.000Z</time>
      </trkpt>
      <trkpt lat="43.07223" lon="5.93442">
        <ele>36.2</ele>
        <time>2025-05-25T10:35:21.000Z</time>
      </trkpt>
      <trkpt lat="43.07228" lon="5.93453">
        <ele>35.6</ele>
        <time>2025-05-25T10:35:32.000Z</time>
      </trkpt>
      <trkpt lat="43.07234" lon="5.93464">
        <ele>34.7</ele>
        <time>2025-05-25T10:35:42.000Z</time>
      </trkpt>
      <trkpt lat="43.07239" lon="5.93475">
        <ele>34</ele>
        <time>2025-05-25T10:35:52.000Z</time>
      </trkpt>
      <trkpt lat="43.07246" lon="5.93483">
        <ele>33.1</ele>
        <time>2025-05-25T10:36:04.000Z</time>
      </trkpt>
      <trkpt lat="43.07247" lon="5.93483">
        <ele>32.9</ele>
        <time>2025-05-25T10:36:08.000Z</time>
      </trkpt>
      <trkpt lat="43.07247" lon="5.93483">
        <ele>32.9</ele>
        <time>2025-05-25T10:36:09.000Z</time>
      </trkpt>
      <trkpt lat="43.07247" lon="5.93483">
        <ele>32.8</ele>
        <time>2025-05-25T10:36:10.000Z</time>
      </trkpt>
      <trkpt lat="43.07247" lon="5.93483">
        <ele>32.6</ele>
        <time>2025-05-25T10:36:16.000Z</time>
      </trkpt>
      <trkpt lat="43.07246" lon="5.93483">
        <ele>32.6</ele>
        <time>2025-05-25T10:36:17.000Z</time>
      </trkpt>
      <trkpt lat="43.07247" lon="5.93479">
        <ele>32.6</ele>
        <time>2025-05-25T10:36:25.000Z</time>
      </trkpt>
      <trkpt lat="43.07247" lon="5.93479">
        <ele>32.6</ele>
        <time>2025-05-25T10:36:26.000Z</time>
      </trkpt>
      <trkpt lat="43.07247" lon="5.93478">
        <ele>32.6</ele>
        <time>2025-05-25T10:36:27.000Z</time>
      </trkpt>
      <trkpt lat="43.07247" lon="5.93478">
        <ele>32.6</ele>
        <time>2025-05-25T10:36:28.000Z</time>
      </trkpt>
      <trkpt lat="43.07248" lon="5.93479">
        <ele>32.6</ele>
        <time>2025-05-25T10:36:29.000Z</time>
      </trkpt>
      <trkpt lat="43.07253" lon="5.9349">
        <ele>32.3</ele>
        <time>2025-05-25T10:36:41.000Z</time>
      </trkpt>
      <trkpt lat="43.07259" lon="5.93499">
        <ele>31.7</ele>
        <time>2025-05-25T10:36:55.000Z</time>
      </trkpt>
      <trkpt lat="43.07266" lon="5.93507">
        <ele>31</ele>
        <time>2025-05-25T10:37:07.000Z</time>
      </trkpt>
      <trkpt lat="43.07272" lon="5.93517">
        <ele>30.5</ele>
        <time>2025-05-25T10:37:15.000Z</time>
      </trkpt>
      <trkpt lat="43.07277" lon="5.93528">
        <ele>29.6</ele>
        <time>2025-05-25T10:37:24.000Z</time>
      </trkpt>
      <trkpt lat="43.07283" lon="5.93538">
        <ele>28.5</ele>
        <time>2025-05-25T10:37:33.000Z</time>
      </trkpt>
      <trkpt lat="43.07289" lon="5.93547">
        <ele>27.1</ele>
        <time>2025-05-25T10:37:41.000Z</time>
      </trkpt>
      <trkpt lat="43.07294" lon="5.93559">
        <ele>25.8</ele>
        <time>2025-05-25T10:37:50.000Z</time>
      </trkpt>
      <trkpt lat="43.07302" lon="5.93565">
        <ele>24.5</ele>
        <time>2025-05-25T10:37:59.000Z</time>
      </trkpt>
      <trkpt lat="43.0731" lon="5.9357">
        <ele>23.4</ele>
        <time>2025-05-25T10:38:07.000Z</time>
      </trkpt>
      <trkpt lat="43.07318" lon="5.93577">
        <ele>22.2</ele>
        <time>2025-05-25T10:38:18.000Z</time>
      </trkpt>
      <trkpt lat="43.07321" lon="5.9359">
        <ele>20.9</ele>
        <time>2025-05-25T10:38:28.000Z</time>
      </trkpt>
      <trkpt lat="43.07315" lon="5.936">
        <ele>19.6</ele>
        <time>2025-05-25T10:38:40.000Z</time>
      </trkpt>
      <trkpt lat="43.07315" lon="5.936">
        <ele>19.3</ele>
        <time>2025-05-25T10:38:46.000Z</time>
      </trkpt>
      <trkpt lat="43.07315" lon="5.936">
        <ele>19.2</ele>
        <time>2025-05-25T10:38:47.000Z</time>
      </trkpt>
      <trkpt lat="43.07315" lon="5.93599">
        <ele>19.1</ele>
        <time>2025-05-25T10:38:50.000Z</time>
      </trkpt>
      <trkpt lat="43.07315" lon="5.93599">
        <ele>19.1</ele>
        <time>2025-05-25T10:38:51.000Z</time>
      </trkpt>
      <trkpt lat="43.07305" lon="5.93602">
        <ele>18.5</ele>
        <time>2025-05-25T10:39:04.000Z</time>
      </trkpt>
      <trkpt lat="43.07298" lon="5.93609">
        <ele>17.9</ele>
        <time>2025-05-25T10:39:13.000Z</time>
      </trkpt>
      <trkpt lat="43.07289" lon="5.93616">
        <ele>16.9</ele>
        <time>2025-05-25T10:39:23.000Z</time>
      </trkpt>
      <trkpt lat="43.07279" lon="5.93619">
        <ele>16</ele>
        <time>2025-05-25T10:39:30.000Z</time>
      </trkpt>
      <trkpt lat="43.07269" lon="5.93625">
        <ele>15.3</ele>
        <time>2025-05-25T10:39:35.000Z</time>
      </trkpt>
      <trkpt lat="43.07261" lon="5.93632">
        <ele>14.2</ele>
        <time>2025-05-25T10:39:45.000Z</time>
      </trkpt>
      <trkpt lat="43.07253" lon="5.93635">
        <ele>12.6</ele>
        <time>2025-05-25T10:39:59.000Z</time>
      </trkpt>
      <trkpt lat="43.07243" lon="5.93637">
        <ele>11.3</ele>
        <time>2025-05-25T10:40:10.000Z</time>
      </trkpt>
      <trkpt lat="43.07234" lon="5.9364">
        <ele>10.6</ele>
        <time>2025-05-25T10:40:20.000Z</time>
      </trkpt>
      <trkpt lat="43.07224" lon="5.93644">
        <ele>10.3</ele>
        <time>2025-05-25T10:40:27.000Z</time>
      </trkpt>
      <trkpt lat="43.07215" lon="5.93646">
        <ele>9.4</ele>
        <time>2025-05-25T10:40:40.000Z</time>
      </trkpt>
      <trkpt lat="43.07206" lon="5.93641">
        <ele>8.5</ele>
        <time>2025-05-25T10:40:50.000Z</time>
      </trkpt>
      <trkpt lat="43.07197" lon="5.93636">
        <ele>6.4</ele>
        <time>2025-05-25T10:41:05.000Z</time>
      </trkpt>
      <trkpt lat="43.07198" lon="5.93639">
        <ele>5.5</ele>
        <time>2025-05-25T10:41:12.000Z</time>
      </trkpt>
      <trkpt lat="43.07198" lon="5.93639">
        <ele>5.4</ele>
        <time>2025-05-25T10:41:13.000Z</time>
      </trkpt>
      <trkpt lat="43.07198" lon="5.93638">
        <ele>5.3</ele>
        <time>2025-05-25T10:41:14.000Z</time>
      </trkpt>
      <trkpt lat="43.07197" lon="5.93638">
        <ele>5.1</ele>
        <time>2025-05-25T10:41:18.000Z</time>
      </trkpt>
      <trkpt lat="43.07197" lon="5.93638">
        <ele>5</ele>
        <time>2025-05-25T10:41:19.000Z</time>
      </trkpt>
      <trkpt lat="43.07192" lon="5.93639">
        <ele>4.3</ele>
        <time>2025-05-25T10:41:36.000Z</time>
      </trkpt>
      <trkpt lat="43.07192" lon="5.93639">
        <ele>4.2</ele>
        <time>2025-05-25T10:41:37.000Z</time>
      </trkpt>
      <trkpt lat="43.07192" lon="5.93639">
        <ele>4.2</ele>
        <time>2025-05-25T10:41:38.000Z</time>
      </trkpt>
      <trkpt lat="43.07192" lon="5.93639">
        <ele>4.2</ele>
        <time>2025-05-25T10:41:39.000Z</time>
      </trkpt>
      <trkpt lat="43.07192" lon="5.93639">
        <ele>4.2</ele>
        <time>2025-05-25T10:41:40.000Z</time>
      </trkpt>
      <trkpt lat="43.07192" lon="5.93639">
        <ele>4.1</ele>
        <time>2025-05-25T10:41:43.000Z</time>
      </trkpt>
      <trkpt lat="43.07192" lon="5.93639">
        <ele>4.1</ele>
        <time>2025-05-25T10:41:44.000Z</time>
      </trkpt>
      <trkpt lat="43.07192" lon="5.93639">
        <ele>4.1</ele>
        <time>2025-05-25T10:41:48.000Z</time>
      </trkpt>
      <trkpt lat="43.07192" lon="5.93639">
        <ele>4.1</ele>
        <time>2025-05-25T10:41:49.000Z</time>
      </trkpt>
      <trkpt lat="43.07192" lon="5.93639">
        <ele>4</ele>
        <time>2025-05-25T10:41:50.000Z</time>
      </trkpt>
      <trkpt lat="43.07192" lon="5.93639">
        <ele>4</ele>
        <time>2025-05-25T10:41:51.000Z</time>
      </trkpt>
      <trkpt lat="43.07192" lon="5.93637">
        <ele>3.9</ele>
        <time>2025-05-25T10:42:26.000Z</time>
      </trkpt>
      <trkpt lat="43.07192" lon="5.93637">
        <ele>4</ele>
        <time>2025-05-25T10:42:27.000Z</time>
      </trkpt>
      <trkpt lat="43.07192" lon="5.93637">
        <ele>4</ele>
        <time>2025-05-25T10:42:28.000Z</time>
      </trkpt>
      <trkpt lat="43.07192" lon="5.93637">
        <ele>4</ele>
        <time>2025-05-25T10:42:29.000Z</time>
      </trkpt>
      <trkpt lat="43.07192" lon="5.93637">
        <ele>4</ele>
        <time>2025-05-25T10:42:30.000Z</time>
      </trkpt>
      <trkpt lat="43.07192" lon="5.93637">
        <ele>4</ele>
        <time>2025-05-25T10:42:56.000Z</time>
      </trkpt>
      <trkpt lat="43.07192" lon="5.93637">
        <ele>4</ele>
        <time>2025-05-25T10:42:57.000Z</time>
      </trkpt>
      <trkpt lat="43.07192" lon="5.93637">
        <ele>4</ele>
        <time>2025-05-25T10:42:58.000Z</time>
      </trkpt>
      <trkpt lat="43.07192" lon="5.93637">
        <ele>4</ele>
        <time>2025-05-25T10:42:59.000Z</time>
      </trkpt>
      <trkpt lat="43.07192" lon="5.93637">
        <ele>4</ele>
        <time>2025-05-25T10:43:25.000Z</time>
      </trkpt>
      <trkpt lat="43.07192" lon="5.93638">
        <ele>4</ele>
        <time>2025-05-25T10:43:26.000Z</time>
      </trkpt>
      <trkpt lat="43.07192" lon="5.93638">
        <ele>4</ele>
        <time>2025-05-25T10:43:27.000Z</time>
      </trkpt>
      <trkpt lat="43.07192" lon="5.93638">
        <ele>4</ele>
        <time>2025-05-25T10:43:28.000Z</time>
      </trkpt>
      <trkpt lat="43.07192" lon="5.93638">
        <ele>4</ele>
        <time>2025-05-25T10:43:29.000Z</time>
      </trkpt>
      <trkpt lat="43.07193" lon="5.93639">
        <ele>4</ele>
        <time>2025-05-25T10:43:53.000Z</time>
      </trkpt>
      <trkpt lat="43.07193" lon="5.93639">
        <ele>4</ele>
        <time>2025-05-25T10:43:54.000Z</time>
      </trkpt>
      <trkpt lat="43.07193" lon="5.93639">
        <ele>4</ele>
        <time>2025-05-25T10:43:55.000Z</time>
      </trkpt>
      <trkpt lat="43.07193" lon="5.93639">
        <ele>4</ele>
        <time>2025-05-25T10:43:56.000Z</time>
      </trkpt>
      <trkpt lat="43.07193" lon="5.93639">
        <ele>4</ele>
        <time>2025-05-25T10:43:57.000Z</time>
      </trkpt>
      <trkpt lat="43.07193" lon="5.93638">
        <ele>4</ele>
        <time>2025-05-25T10:43:58.000Z</time>
      </trkpt>
      <trkpt lat="43.07194" lon="5.93638">
        <ele>4</ele>
        <time>2025-05-25T10:43:59.000Z</time>
      </trkpt>
      <trkpt lat="43.07198" lon="5.93626">
        <ele>4</ele>
        <time>2025-05-25T10:44:21.000Z</time>
      </trkpt>
      <trkpt lat="43.07205" lon="5.93618">
        <ele>4.8</ele>
        <time>2025-05-25T10:44:51.000Z</time>
      </trkpt>
      <trkpt lat="43.07205" lon="5.93605">
        <ele>6.6</ele>
        <time>2025-05-25T10:45:07.000Z</time>
      </trkpt>
      <trkpt lat="43.07206" lon="5.93596">
        <ele>6.4</ele>
        <time>2025-05-25T10:45:18.000Z</time>
      </trkpt>
      <trkpt lat="43.07206" lon="5.93597">
        <ele>6.7</ele>
        <time>2025-05-25T10:45:19.000Z</time>
      </trkpt>
      <trkpt lat="43.07206" lon="5.93597">
        <ele>6.9</ele>
        <time>2025-05-25T10:45:20.000Z</time>
      </trkpt>
      <trkpt lat="43.07203" lon="5.93598">
        <ele>7.8</ele>
        <time>2025-05-25T10:45:30.000Z</time>
      </trkpt>
      <trkpt lat="43.07203" lon="5.93599">
        <ele>7.7</ele>
        <time>2025-05-25T10:45:31.000Z</time>
      </trkpt>
      <trkpt lat="43.07203" lon="5.93599">
        <ele>7.7</ele>
        <time>2025-05-25T10:45:32.000Z</time>
      </trkpt>
      <trkpt lat="43.07204" lon="5.93587">
        <ele>7.9</ele>
        <time>2025-05-25T10:45:43.000Z</time>
      </trkpt>
      <trkpt lat="43.072" lon="5.93576">
        <ele>7.9</ele>
        <time>2025-05-25T10:45:52.000Z</time>
      </trkpt>
      <trkpt lat="43.07198" lon="5.93563">
        <ele>8.2</ele>
        <time>2025-05-25T10:46:07.000Z</time>
      </trkpt>
      <trkpt lat="43.07195" lon="5.93563">
        <ele>8.5</ele>
        <time>2025-05-25T10:46:15.000Z</time>
      </trkpt>
      <trkpt lat="43.07195" lon="5.93563">
        <ele>8.5</ele>
        <time>2025-05-25T10:46:16.000Z</time>
      </trkpt>
      <trkpt lat="43.07195" lon="5.93563">
        <ele>8.5</ele>
        <time>2025-05-25T10:46:17.000Z</time>
      </trkpt>
      <trkpt lat="43.07195" lon="5.93562">
        <ele>8.9</ele>
        <time>2025-05-25T10:46:35.000Z</time>
      </trkpt>
      <trkpt lat="43.07196" lon="5.93562">
        <ele>8.9</ele>
        <time>2025-05-25T10:46:36.000Z</time>
      </trkpt>
      <trkpt lat="43.07195" lon="5.9356">
        <ele>8.9</ele>
        <time>2025-05-25T10:46:37.000Z</time>
      </trkpt>
      <trkpt lat="43.07196" lon="5.93547">
        <ele>9</ele>
        <time>2025-05-25T10:46:46.000Z</time>
      </trkpt>
      <trkpt lat="43.07199" lon="5.93535">
        <ele>9.7</ele>
        <time>2025-05-25T10:47:00.000Z</time>
      </trkpt>
      <trkpt lat="43.072" lon="5.93522">
        <ele>10.2</ele>
        <time>2025-05-25T10:47:09.000Z</time>
      </trkpt>
      <trkpt lat="43.07203" lon="5.9351">
        <ele>10.5</ele>
        <time>2025-05-25T10:47:18.000Z</time>
      </trkpt>
      <trkpt lat="43.07202" lon="5.93497">
        <ele>11.2</ele>
        <time>2025-05-25T10:47:29.000Z</time>
      </trkpt>
      <trkpt lat="43.07203" lon="5.93485">
        <ele>11.6</ele>
        <time>2025-05-25T10:47:37.000Z</time>
      </trkpt>
      <trkpt lat="43.07201" lon="5.93473">
        <ele>12.1</ele>
        <time>2025-05-25T10:47:46.000Z</time>
      </trkpt>
      <trkpt lat="43.07201" lon="5.9347">
        <ele>12.4</ele>
        <time>2025-05-25T10:47:53.000Z</time>
      </trkpt>
      <trkpt lat="43.07201" lon="5.9347">
        <ele>12.5</ele>
        <time>2025-05-25T10:47:54.000Z</time>
      </trkpt>
      <trkpt lat="43.07201" lon="5.9347">
        <ele>12.5</ele>
        <time>2025-05-25T10:47:55.000Z</time>
      </trkpt>
      <trkpt lat="43.07201" lon="5.93469">
        <ele>12.6</ele>
        <time>2025-05-25T10:48:10.000Z</time>
      </trkpt>
      <trkpt lat="43.07201" lon="5.93468">
        <ele>12.7</ele>
        <time>2025-05-25T10:48:11.000Z</time>
      </trkpt>
      <trkpt lat="43.072" lon="5.93467">
        <ele>12.7</ele>
        <time>2025-05-25T10:48:12.000Z</time>
      </trkpt>
      <trkpt lat="43.07199" lon="5.93453">
        <ele>13</ele>
        <time>2025-05-25T10:48:22.000Z</time>
      </trkpt>
      <trkpt lat="43.07199" lon="5.93439">
        <ele>13.3</ele>
        <time>2025-05-25T10:48:29.000Z</time>
      </trkpt>
      <trkpt lat="43.072" lon="5.93427">
        <ele>14.7</ele>
        <time>2025-05-25T10:48:42.000Z</time>
      </trkpt>
      <trkpt lat="43.07196" lon="5.93417">
        <ele>15.8</ele>
        <time>2025-05-25T10:48:50.000Z</time>
      </trkpt>
      <trkpt lat="43.0719" lon="5.93407">
        <ele>16</ele>
        <time>2025-05-25T10:48:58.000Z</time>
      </trkpt>
      <trkpt lat="43.07186" lon="5.93403">
        <ele>16.4</ele>
        <time>2025-05-25T10:49:06.000Z</time>
      </trkpt>
      <trkpt lat="43.07186" lon="5.93403">
        <ele>16.5</ele>
        <time>2025-05-25T10:49:07.000Z</time>
      </trkpt>
      <trkpt lat="43.07186" lon="5.93401">
        <ele>16.5</ele>
        <time>2025-05-25T10:49:10.000Z</time>
      </trkpt>
      <trkpt lat="43.07186" lon="5.934">
        <ele>16.5</ele>
        <time>2025-05-25T10:49:11.000Z</time>
      </trkpt>
      <trkpt lat="43.07186" lon="5.93399">
        <ele>16.6</ele>
        <time>2025-05-25T10:49:12.000Z</time>
      </trkpt>
      <trkpt lat="43.07186" lon="5.93399">
        <ele>16.6</ele>
        <time>2025-05-25T10:49:13.000Z</time>
      </trkpt>
      <trkpt lat="43.07185" lon="5.934">
        <ele>16.6</ele>
        <time>2025-05-25T10:49:14.000Z</time>
      </trkpt>
      <trkpt lat="43.07185" lon="5.93399">
        <ele>16.6</ele>
        <time>2025-05-25T10:49:17.000Z</time>
      </trkpt>
      <trkpt lat="43.07186" lon="5.93399">
        <ele>16.6</ele>
        <time>2025-05-25T10:49:18.000Z</time>
      </trkpt>
      <trkpt lat="43.07186" lon="5.93398">
        <ele>16.6</ele>
        <time>2025-05-25T10:49:19.000Z</time>
      </trkpt>
      <trkpt lat="43.07186" lon="5.93397">
        <ele>16.6</ele>
        <time>2025-05-25T10:49:20.000Z</time>
      </trkpt>
      <trkpt lat="43.07186" lon="5.93396">
        <ele>16.6</ele>
        <time>2025-05-25T10:49:21.000Z</time>
      </trkpt>
      <trkpt lat="43.07186" lon="5.93396">
        <ele>16.6</ele>
        <time>2025-05-25T10:49:22.000Z</time>
      </trkpt>
      <trkpt lat="43.07186" lon="5.93395">
        <ele>16.6</ele>
        <time>2025-05-25T10:49:23.000Z</time>
      </trkpt>
      <trkpt lat="43.07186" lon="5.93395">
        <ele>16.6</ele>
        <time>2025-05-25T10:49:24.000Z</time>
      </trkpt>
      <trkpt lat="43.07179" lon="5.93386">
        <ele>16.6</ele>
        <time>2025-05-25T10:49:38.000Z</time>
      </trkpt>
      <trkpt lat="43.07179" lon="5.93386">
        <ele>16.6</ele>
        <time>2025-05-25T10:49:40.000Z</time>
      </trkpt>
      <trkpt lat="43.07179" lon="5.93386">
        <ele>16.6</ele>
        <time>2025-05-25T10:49:41.000Z</time>
      </trkpt>
      <trkpt lat="43.07179" lon="5.93386">
        <ele>16.6</ele>
        <time>2025-05-25T10:49:42.000Z</time>
      </trkpt>
      <trkpt lat="43.07179" lon="5.93385">
        <ele>16.6</ele>
        <time>2025-05-25T10:49:43.000Z</time>
      </trkpt>
      <trkpt lat="43.07178" lon="5.93384">
        <ele>16.6</ele>
        <time>2025-05-25T10:49:44.000Z</time>
      </trkpt>
      <trkpt lat="43.07175" lon="5.93372">
        <ele>16.6</ele>
        <time>2025-05-25T10:50:05.000Z</time>
      </trkpt>
      <trkpt lat="43.07172" lon="5.93359">
        <ele>16.7</ele>
        <time>2025-05-25T10:50:14.000Z</time>
      </trkpt>
      <trkpt lat="43.07169" lon="5.93348">
        <ele>16.8</ele>
        <time>2025-05-25T10:50:25.000Z</time>
      </trkpt>
      <trkpt lat="43.07169" lon="5.93335">
        <ele>17</ele>
        <time>2025-05-25T10:50:38.000Z</time>
      </trkpt>
      <trkpt lat="43.0717" lon="5.93322">
        <ele>17.4</ele>
        <time>2025-05-25T10:50:47.000Z</time>
      </trkpt>
      <trkpt lat="43.07168" lon="5.9331">
        <ele>17.7</ele>
        <time>2025-05-25T10:50:59.000Z</time>
      </trkpt>
      <trkpt lat="43.07169" lon="5.93297">
        <ele>17.8</ele>
        <time>2025-05-25T10:51:09.000Z</time>
      </trkpt>
      <trkpt lat="43.07168" lon="5.93294">
        <ele>17.9</ele>
        <time>2025-05-25T10:51:18.000Z</time>
      </trkpt>
      <trkpt lat="43.07168" lon="5.93294">
        <ele>17.9</ele>
        <time>2025-05-25T10:51:19.000Z</time>
      </trkpt>
      <trkpt lat="43.07168" lon="5.93294">
        <ele>17.9</ele>
        <time>2025-05-25T10:51:20.000Z</time>
      </trkpt>
      <trkpt lat="43.07169" lon="5.93293">
        <ele>17.9</ele>
        <time>2025-05-25T10:51:23.000Z</time>
      </trkpt>
      <trkpt lat="43.07169" lon="5.93293">
        <ele>17.9</ele>
        <time>2025-05-25T10:51:24.000Z</time>
      </trkpt>
      <trkpt lat="43.07169" lon="5.93289">
        <ele>17.4</ele>
        <time>2025-05-25T10:51:32.000Z</time>
      </trkpt>
      <trkpt lat="43.07168" lon="5.93289">
        <ele>17.4</ele>
        <time>2025-05-25T10:51:33.000Z</time>
      </trkpt>
      <trkpt lat="43.07168" lon="5.93288">
        <ele>17.4</ele>
        <time>2025-05-25T10:51:34.000Z</time>
      </trkpt>
      <trkpt lat="43.0717" lon="5.93293">
        <ele>17.7</ele>
        <time>2025-05-25T10:51:57.000Z</time>
      </trkpt>
      <trkpt lat="43.0717" lon="5.93293">
        <ele>17.8</ele>
        <time>2025-05-25T10:51:58.000Z</time>
      </trkpt>
      <trkpt lat="43.0717" lon="5.93292">
        <ele>18</ele>
        <time>2025-05-25T10:51:59.000Z</time>
      </trkpt>
      <trkpt lat="43.07172" lon="5.93279">
        <ele>17.8</ele>
        <time>2025-05-25T10:52:10.000Z</time>
      </trkpt>
      <trkpt lat="43.07176" lon="5.93267">
        <ele>17.4</ele>
        <time>2025-05-25T10:52:20.000Z</time>
      </trkpt>
      <trkpt lat="43.07178" lon="5.93254">
        <ele>17.1</ele>
        <time>2025-05-25T10:52:28.000Z</time>
      </trkpt>
      <trkpt lat="43.07186" lon="5.93248">
        <ele>16.8</ele>
        <time>2025-05-25T10:52:36.000Z</time>
      </trkpt>
      <trkpt lat="43.07188" lon="5.93235">
        <ele>16.6</ele>
        <time>2025-05-25T10:52:45.000Z</time>
      </trkpt>
      <trkpt lat="43.07185" lon="5.93222">
        <ele>16.5</ele>
        <time>2025-05-25T10:52:52.000Z</time>
      </trkpt>
      <trkpt lat="43.0718" lon="5.93211">
        <ele>16.5</ele>
        <time>2025-05-25T10:53:01.000Z</time>
      </trkpt>
      <trkpt lat="43.07178" lon="5.93198">
        <ele>16.3</ele>
        <time>2025-05-25T10:53:10.000Z</time>
      </trkpt>
      <trkpt lat="43.0718" lon="5.93186">
        <ele>16.2</ele>
        <time>2025-05-25T10:53:18.000Z</time>
      </trkpt>
      <trkpt lat="43.07183" lon="5.93174">
        <ele>16.2</ele>
        <time>2025-05-25T10:53:27.000Z</time>
      </trkpt>
      <trkpt lat="43.07186" lon="5.93162">
        <ele>16.2</ele>
        <time>2025-05-25T10:53:38.000Z</time>
      </trkpt>
      <trkpt lat="43.0719" lon="5.93151">
        <ele>16.4</ele>
        <time>2025-05-25T10:53:47.000Z</time>
      </trkpt>
      <trkpt lat="43.07193" lon="5.93138">
        <ele>16.4</ele>
        <time>2025-05-25T10:53:58.000Z</time>
      </trkpt>
      <trkpt lat="43.07195" lon="5.93126">
        <ele>16.4</ele>
        <time>2025-05-25T10:54:07.000Z</time>
      </trkpt>
      <trkpt lat="43.07194" lon="5.93113">
        <ele>16.3</ele>
        <time>2025-05-25T10:54:15.000Z</time>
      </trkpt>
      <trkpt lat="43.07193" lon="5.93101">
        <ele>16.3</ele>
        <time>2025-05-25T10:54:25.000Z</time>
      </trkpt>
      <trkpt lat="43.07196" lon="5.93089">
        <ele>16.1</ele>
        <time>2025-05-25T10:54:38.000Z</time>
      </trkpt>
      <trkpt lat="43.07198" lon="5.93085">
        <ele>15.9</ele>
        <time>2025-05-25T10:54:45.000Z</time>
      </trkpt>
      <trkpt lat="43.07198" lon="5.93085">
        <ele>15.9</ele>
        <time>2025-05-25T10:54:46.000Z</time>
      </trkpt>
      <trkpt lat="43.07199" lon="5.93084">
        <ele>15.8</ele>
        <time>2025-05-25T10:54:47.000Z</time>
      </trkpt>
      <trkpt lat="43.072" lon="5.93084">
        <ele>15.7</ele>
        <time>2025-05-25T10:54:48.000Z</time>
      </trkpt>
      <trkpt lat="43.07201" lon="5.93084">
        <ele>15.7</ele>
        <time>2025-05-25T10:54:49.000Z</time>
      </trkpt>
      <trkpt lat="43.0721" lon="5.93081">
        <ele>15.7</ele>
        <time>2025-05-25T10:54:58.000Z</time>
      </trkpt>
      <trkpt lat="43.07214" lon="5.9307">
        <ele>15.6</ele>
        <time>2025-05-25T10:55:12.000Z</time>
      </trkpt>
      <trkpt lat="43.07218" lon="5.93063">
        <ele>15.6</ele>
        <time>2025-05-25T10:55:23.000Z</time>
      </trkpt>
      <trkpt lat="43.07218" lon="5.93063">
        <ele>15.6</ele>
        <time>2025-05-25T10:55:24.000Z</time>
      </trkpt>
      <trkpt lat="43.07218" lon="5.9306">
        <ele>15.6</ele>
        <time>2025-05-25T10:55:30.000Z</time>
      </trkpt>
      <trkpt lat="43.07219" lon="5.93059">
        <ele>15.5</ele>
        <time>2025-05-25T10:55:31.000Z</time>
      </trkpt>
      <trkpt lat="43.07224" lon="5.93047">
        <ele>15.5</ele>
        <time>2025-05-25T10:55:41.000Z</time>
      </trkpt>
      <trkpt lat="43.07229" lon="5.93045">
        <ele>15.3</ele>
        <time>2025-05-25T10:55:51.000Z</time>
      </trkpt>
      <trkpt lat="43.07228" lon="5.93045">
        <ele>15.3</ele>
        <time>2025-05-25T10:55:52.000Z</time>
      </trkpt>
      <trkpt lat="43.07228" lon="5.93045">
        <ele>15.3</ele>
        <time>2025-05-25T10:55:53.000Z</time>
      </trkpt>
      <trkpt lat="43.07228" lon="5.93045">
        <ele>15.3</ele>
        <time>2025-05-25T10:55:54.000Z</time>
      </trkpt>
      <trkpt lat="43.07227" lon="5.93045">
        <ele>15.2</ele>
        <time>2025-05-25T10:55:55.000Z</time>
      </trkpt>
      <trkpt lat="43.0722" lon="5.93038">
        <ele>13.5</ele>
        <time>2025-05-25T10:56:15.000Z</time>
      </trkpt>
      <trkpt lat="43.07216" lon="5.93037">
        <ele>11.7</ele>
        <time>2025-05-25T10:56:28.000Z</time>
      </trkpt>
      <trkpt lat="43.07215" lon="5.93037">
        <ele>11.8</ele>
        <time>2025-05-25T10:56:29.000Z</time>
      </trkpt>
      <trkpt lat="43.07215" lon="5.93037">
        <ele>11.7</ele>
        <time>2025-05-25T10:56:30.000Z</time>
      </trkpt>
      <trkpt lat="43.07214" lon="5.93036">
        <ele>11.6</ele>
        <time>2025-05-25T10:56:31.000Z</time>
      </trkpt>
      <trkpt lat="43.07206" lon="5.93031">
        <ele>5</ele>
        <time>2025-05-25T10:57:06.000Z</time>
      </trkpt>
      <trkpt lat="43.07208" lon="5.93019">
        <ele>4.4</ele>
        <time>2025-05-25T10:57:15.000Z</time>
      </trkpt>
      <trkpt lat="43.07212" lon="5.93008">
        <ele>4.2</ele>
        <time>2025-05-25T10:57:25.000Z</time>
      </trkpt>
      <trkpt lat="43.07215" lon="5.92996">
        <ele>4.2</ele>
        <time>2025-05-25T10:57:34.000Z</time>
      </trkpt>
      <trkpt lat="43.07215" lon="5.92983">
        <ele>4.3</ele>
        <time>2025-05-25T10:57:43.000Z</time>
      </trkpt>
      <trkpt lat="43.07217" lon="5.92969">
        <ele>4.4</ele>
        <time>2025-05-25T10:57:52.000Z</time>
      </trkpt>
      <trkpt lat="43.07217" lon="5.92957">
        <ele>4.4</ele>
        <time>2025-05-25T10:57:59.000Z</time>
      </trkpt>
      <trkpt lat="43.07218" lon="5.92945">
        <ele>4.5</ele>
        <time>2025-05-25T10:58:07.000Z</time>
      </trkpt>
      <trkpt lat="43.07216" lon="5.92932">
        <ele>4.5</ele>
        <time>2025-05-25T10:58:16.000Z</time>
      </trkpt>
      <trkpt lat="43.07215" lon="5.92919">
        <ele>4.5</ele>
        <time>2025-05-25T10:58:25.000Z</time>
      </trkpt>
      <trkpt lat="43.07216" lon="5.92905">
        <ele>4.6</ele>
        <time>2025-05-25T10:58:35.000Z</time>
      </trkpt>
      <trkpt lat="43.07216" lon="5.92892">
        <ele>4.7</ele>
        <time>2025-05-25T10:58:45.000Z</time>
      </trkpt>
      <trkpt lat="43.07219" lon="5.92881">
        <ele>4.9</ele>
        <time>2025-05-25T10:58:58.000Z</time>
      </trkpt>
      <trkpt lat="43.07222" lon="5.92869">
        <ele>5.1</ele>
        <time>2025-05-25T10:59:09.000Z</time>
      </trkpt>
      <trkpt lat="43.07219" lon="5.92857">
        <ele>5.3</ele>
        <time>2025-05-25T10:59:23.000Z</time>
      </trkpt>
      <trkpt lat="43.07215" lon="5.92844">
        <ele>5.3</ele>
        <time>2025-05-25T10:59:33.000Z</time>
      </trkpt>
      <trkpt lat="43.07215" lon="5.92839">
        <ele>5.2</ele>
        <time>2025-05-25T10:59:46.000Z</time>
      </trkpt>
      <trkpt lat="43.07215" lon="5.92839">
        <ele>5.2</ele>
        <time>2025-05-25T10:59:47.000Z</time>
      </trkpt>
      <trkpt lat="43.07215" lon="5.92839">
        <ele>5.2</ele>
        <time>2025-05-25T10:59:53.000Z</time>
      </trkpt>
      <trkpt lat="43.07215" lon="5.92839">
        <ele>5.2</ele>
        <time>2025-05-25T10:59:54.000Z</time>
      </trkpt>
      <trkpt lat="43.07215" lon="5.92839">
        <ele>5.2</ele>
        <time>2025-05-25T10:59:55.000Z</time>
      </trkpt>
      <trkpt lat="43.07215" lon="5.92839">
        <ele>5.2</ele>
        <time>2025-05-25T10:59:56.000Z</time>
      </trkpt>
      <trkpt lat="43.07215" lon="5.92839">
        <ele>5.1</ele>
        <time>2025-05-25T10:59:57.000Z</time>
      </trkpt>
      <trkpt lat="43.07215" lon="5.92839">
        <ele>5.1</ele>
        <time>2025-05-25T11:00:01.000Z</time>
      </trkpt>
      <trkpt lat="43.07215" lon="5.92839">
        <ele>5.1</ele>
        <time>2025-05-25T11:00:02.000Z</time>
      </trkpt>
      <trkpt lat="43.07215" lon="5.92839">
        <ele>5.1</ele>
        <time>2025-05-25T11:00:03.000Z</time>
      </trkpt>
      <trkpt lat="43.07215" lon="5.92839">
        <ele>5.1</ele>
        <time>2025-05-25T11:00:04.000Z</time>
      </trkpt>
      <trkpt lat="43.07215" lon="5.92838">
        <ele>5.1</ele>
        <time>2025-05-25T11:00:08.000Z</time>
      </trkpt>
      <trkpt lat="43.07215" lon="5.92838">
        <ele>5.1</ele>
        <time>2025-05-25T11:00:09.000Z</time>
      </trkpt>
      <trkpt lat="43.07215" lon="5.92838">
        <ele>5.1</ele>
        <time>2025-05-25T11:00:10.000Z</time>
      </trkpt>
      <trkpt lat="43.07215" lon="5.92838">
        <ele>5.1</ele>
        <time>2025-05-25T11:00:11.000Z</time>
      </trkpt>
      <trkpt lat="43.07215" lon="5.92838">
        <ele>5.1</ele>
        <time>2025-05-25T11:00:12.000Z</time>
      </trkpt>
      <trkpt lat="43.07214" lon="5.92838">
        <ele>5.1</ele>
        <time>2025-05-25T11:00:13.000Z</time>
      </trkpt>
      <trkpt lat="43.07214" lon="5.92837">
        <ele>5.1</ele>
        <time>2025-05-25T11:00:14.000Z</time>
      </trkpt>
      <trkpt lat="43.07213" lon="5.92836">
        <ele>5.1</ele>
        <time>2025-05-25T11:00:15.000Z</time>
      </trkpt>
      <trkpt lat="43.0721" lon="5.92824">
        <ele>5.1</ele>
        <time>2025-05-25T11:00:24.000Z</time>
      </trkpt>
      <trkpt lat="43.07206" lon="5.92812">
        <ele>5.2</ele>
        <time>2025-05-25T11:00:33.000Z</time>
      </trkpt>
      <trkpt lat="43.07202" lon="5.92801">
        <ele>5.2</ele>
        <time>2025-05-25T11:00:42.000Z</time>
      </trkpt>
      <trkpt lat="43.07195" lon="5.92793">
        <ele>5.2</ele>
        <time>2025-05-25T11:00:51.000Z</time>
      </trkpt>
      <trkpt lat="43.0719" lon="5.92782">
        <ele>5.2</ele>
        <time>2025-05-25T11:01:01.000Z</time>
      </trkpt>
      <trkpt lat="43.07188" lon="5.92769">
        <ele>5.3</ele>
        <time>2025-05-25T11:01:12.000Z</time>
      </trkpt>
      <trkpt lat="43.07179" lon="5.92761">
        <ele>5.3</ele>
        <time>2025-05-25T11:01:22.000Z</time>
      </trkpt>
      <trkpt lat="43.07177" lon="5.92749">
        <ele>5.4</ele>
        <time>2025-05-25T11:01:34.000Z</time>
      </trkpt>
      <trkpt lat="43.07177" lon="5.92736">
        <ele>5.7</ele>
        <time>2025-05-25T11:01:49.000Z</time>
      </trkpt>
      <trkpt lat="43.07175" lon="5.92729">
        <ele>6.3</ele>
        <time>2025-05-25T11:01:58.000Z</time>
      </trkpt>
      <trkpt lat="43.07175" lon="5.92729">
        <ele>6.4</ele>
        <time>2025-05-25T11:01:59.000Z</time>
      </trkpt>
      <trkpt lat="43.07175" lon="5.9273">
        <ele>6.4</ele>
        <time>2025-05-25T11:02:00.000Z</time>
      </trkpt>
      <trkpt lat="43.07175" lon="5.9273">
        <ele>6.5</ele>
        <time>2025-05-25T11:02:01.000Z</time>
      </trkpt>
      <trkpt lat="43.07175" lon="5.92731">
        <ele>6.5</ele>
        <time>2025-05-25T11:02:02.000Z</time>
      </trkpt>
      <trkpt lat="43.07175" lon="5.92735">
        <ele>6.4</ele>
        <time>2025-05-25T11:02:12.000Z</time>
      </trkpt>
      <trkpt lat="43.07175" lon="5.92736">
        <ele>6.4</ele>
        <time>2025-05-25T11:02:13.000Z</time>
      </trkpt>
      <trkpt lat="43.07175" lon="5.92736">
        <ele>6.4</ele>
        <time>2025-05-25T11:02:14.000Z</time>
      </trkpt>
      <trkpt lat="43.07175" lon="5.92736">
        <ele>6.4</ele>
        <time>2025-05-25T11:02:15.000Z</time>
      </trkpt>
      <trkpt lat="43.07175" lon="5.92736">
        <ele>6.4</ele>
        <time>2025-05-25T11:02:16.000Z</time>
      </trkpt>
      <trkpt lat="43.07178" lon="5.92738">
        <ele>5.9</ele>
        <time>2025-05-25T11:02:30.000Z</time>
      </trkpt>
      <trkpt lat="43.07178" lon="5.92738">
        <ele>6</ele>
        <time>2025-05-25T11:02:31.000Z</time>
      </trkpt>
      <trkpt lat="43.07178" lon="5.9274">
        <ele>6.2</ele>
        <time>2025-05-25T11:02:35.000Z</time>
      </trkpt>
      <trkpt lat="43.07178" lon="5.9274">
        <ele>6.1</ele>
        <time>2025-05-25T11:02:36.000Z</time>
      </trkpt>
      <trkpt lat="43.07179" lon="5.9274">
        <ele>6.1</ele>
        <time>2025-05-25T11:02:37.000Z</time>
      </trkpt>
      <trkpt lat="43.07179" lon="5.9274">
        <ele>6.5</ele>
        <time>2025-05-25T11:02:41.000Z</time>
      </trkpt>
      <trkpt lat="43.07179" lon="5.9274">
        <ele>6.5</ele>
        <time>2025-05-25T11:02:42.000Z</time>
      </trkpt>
      <trkpt lat="43.07179" lon="5.9274">
        <ele>6.5</ele>
        <time>2025-05-25T11:02:55.000Z</time>
      </trkpt>
      <trkpt lat="43.07179" lon="5.9274">
        <ele>6.5</ele>
        <time>2025-05-25T11:02:56.000Z</time>
      </trkpt>
      <trkpt lat="43.0718" lon="5.9274">
        <ele>6.4</ele>
        <time>2025-05-25T11:02:57.000Z</time>
      </trkpt>
      <trkpt lat="43.0718" lon="5.9274">
        <ele>6.4</ele>
        <time>2025-05-25T11:03:02.000Z</time>
      </trkpt>
      <trkpt lat="43.0718" lon="5.9274">
        <ele>6.4</ele>
        <time>2025-05-25T11:03:03.000Z</time>
      </trkpt>
      <trkpt lat="43.0718" lon="5.9274">
        <ele>6.4</ele>
        <time>2025-05-25T11:03:04.000Z</time>
      </trkpt>
      <trkpt lat="43.0718" lon="5.9274">
        <ele>6.3</ele>
        <time>2025-05-25T11:03:07.000Z</time>
      </trkpt>
      <trkpt lat="43.0718" lon="5.9274">
        <ele>6.3</ele>
        <time>2025-05-25T11:03:08.000Z</time>
      </trkpt>
      <trkpt lat="43.0718" lon="5.9274">
        <ele>6.3</ele>
        <time>2025-05-25T11:03:09.000Z</time>
      </trkpt>
      <trkpt lat="43.0718" lon="5.9274">
        <ele>6.3</ele>
        <time>2025-05-25T11:03:13.000Z</time>
      </trkpt>
      <trkpt lat="43.0718" lon="5.9274">
        <ele>6.3</ele>
        <time>2025-05-25T11:03:14.000Z</time>
      </trkpt>
      <trkpt lat="43.0718" lon="5.9274">
        <ele>6.3</ele>
        <time>2025-05-25T11:03:15.000Z</time>
      </trkpt>
      <trkpt lat="43.0718" lon="5.9274">
        <ele>6.3</ele>
        <time>2025-05-25T11:03:21.000Z</time>
      </trkpt>
      <trkpt lat="43.0718" lon="5.9274">
        <ele>6.3</ele>
        <time>2025-05-25T11:03:22.000Z</time>
      </trkpt>
      <trkpt lat="43.0718" lon="5.9274">
        <ele>6.3</ele>
        <time>2025-05-25T11:03:25.000Z</time>
      </trkpt>
      <trkpt lat="43.0718" lon="5.9274">
        <ele>6.3</ele>
        <time>2025-05-25T11:03:26.000Z</time>
      </trkpt>
      <trkpt lat="43.0718" lon="5.9274">
        <ele>6.3</ele>
        <time>2025-05-25T11:03:27.000Z</time>
      </trkpt>
      <trkpt lat="43.07181" lon="5.92743">
        <ele>6.2</ele>
        <time>2025-05-25T11:03:46.000Z</time>
      </trkpt>
      <trkpt lat="43.07181" lon="5.92743">
        <ele>6.2</ele>
        <time>2025-05-25T11:03:47.000Z</time>
      </trkpt>
      <trkpt lat="43.07181" lon="5.92743">
        <ele>6.2</ele>
        <time>2025-05-25T11:03:50.000Z</time>
      </trkpt>
      <trkpt lat="43.07181" lon="5.92743">
        <ele>6.2</ele>
        <time>2025-05-25T11:03:51.000Z</time>
      </trkpt>
      <trkpt lat="43.07181" lon="5.92742">
        <ele>6.2</ele>
        <time>2025-05-25T11:04:28.000Z</time>
      </trkpt>
      <trkpt lat="43.07181" lon="5.92741">
        <ele>6.2</ele>
        <time>2025-05-25T11:04:29.000Z</time>
      </trkpt>
      <trkpt lat="43.07181" lon="5.92741">
        <ele>6.2</ele>
        <time>2025-05-25T11:04:30.000Z</time>
      </trkpt>
      <trkpt lat="43.07181" lon="5.92741">
        <ele>6.2</ele>
        <time>2025-05-25T11:04:31.000Z</time>
      </trkpt>
      <trkpt lat="43.07181" lon="5.92739">
        <ele>6.2</ele>
        <time>2025-05-25T11:05:27.000Z</time>
      </trkpt>
      <trkpt lat="43.07181" lon="5.92738">
        <ele>6.2</ele>
        <time>2025-05-25T11:05:28.000Z</time>
      </trkpt>
      <trkpt lat="43.07181" lon="5.92738">
        <ele>6.2</ele>
        <time>2025-05-25T11:05:29.000Z</time>
      </trkpt>
      <trkpt lat="43.07181" lon="5.92738">
        <ele>6.2</ele>
        <time>2025-05-25T11:05:33.000Z</time>
      </trkpt>
      <trkpt lat="43.07181" lon="5.92738">
        <ele>6.2</ele>
        <time>2025-05-25T11:05:34.000Z</time>
      </trkpt>
      <trkpt lat="43.07182" lon="5.92738">
        <ele>6.2</ele>
        <time>2025-05-25T11:05:37.000Z</time>
      </trkpt>
      <trkpt lat="43.07183" lon="5.92738">
        <ele>6.2</ele>
        <time>2025-05-25T11:05:38.000Z</time>
      </trkpt>
      <trkpt lat="43.07183" lon="5.92738">
        <ele>6.2</ele>
        <time>2025-05-25T11:05:39.000Z</time>
      </trkpt>
      <trkpt lat="43.07183" lon="5.92738">
        <ele>6.2</ele>
        <time>2025-05-25T11:05:40.000Z</time>
      </trkpt>
      <trkpt lat="43.07183" lon="5.92738">
        <ele>6.2</ele>
        <time>2025-05-25T11:05:41.000Z</time>
      </trkpt>
      <trkpt lat="43.07183" lon="5.92738">
        <ele>6.2</ele>
        <time>2025-05-25T11:05:42.000Z</time>
      </trkpt>
      <trkpt lat="43.07183" lon="5.92738">
        <ele>6.2</ele>
        <time>2025-05-25T11:05:43.000Z</time>
      </trkpt>
      <trkpt lat="43.07183" lon="5.92738">
        <ele>6.2</ele>
        <time>2025-05-25T11:05:44.000Z</time>
      </trkpt>
      <trkpt lat="43.07183" lon="5.92738">
        <ele>6.2</ele>
        <time>2025-05-25T11:05:45.000Z</time>
      </trkpt>
      <trkpt lat="43.07183" lon="5.92738">
        <ele>6.2</ele>
        <time>2025-05-25T11:05:48.000Z</time>
      </trkpt>
      <trkpt lat="43.07183" lon="5.92738">
        <ele>6.2</ele>
        <time>2025-05-25T11:05:49.000Z</time>
      </trkpt>
      <trkpt lat="43.07183" lon="5.92738">
        <ele>6.2</ele>
        <time>2025-05-25T11:05:57.000Z</time>
      </trkpt>
      <trkpt lat="43.07183" lon="5.92738">
        <ele>6.2</ele>
        <time>2025-05-25T11:05:58.000Z</time>
      </trkpt>
      <trkpt lat="43.07183" lon="5.92738">
        <ele>6.2</ele>
        <time>2025-05-25T11:05:59.000Z</time>
      </trkpt>
      <trkpt lat="43.07183" lon="5.92738">
        <ele>6.2</ele>
        <time>2025-05-25T11:06:02.000Z</time>
      </trkpt>
      <trkpt lat="43.07183" lon="5.92738">
        <ele>6.2</ele>
        <time>2025-05-25T11:06:03.000Z</time>
      </trkpt>
      <trkpt lat="43.07183" lon="5.92738">
        <ele>6.2</ele>
        <time>2025-05-25T11:06:04.000Z</time>
      </trkpt>
      <trkpt lat="43.07182" lon="5.92738">
        <ele>6.1</ele>
        <time>2025-05-25T11:06:15.000Z</time>
      </trkpt>
      <trkpt lat="43.07182" lon="5.92738">
        <ele>6.1</ele>
        <time>2025-05-25T11:06:16.000Z</time>
      </trkpt>
      <trkpt lat="43.07182" lon="5.92738">
        <ele>6.1</ele>
        <time>2025-05-25T11:06:17.000Z</time>
      </trkpt>
      <trkpt lat="43.07182" lon="5.92738">
        <ele>6.1</ele>
        <time>2025-05-25T11:06:20.000Z</time>
      </trkpt>
      <trkpt lat="43.07182" lon="5.92739">
        <ele>6.1</ele>
        <time>2025-05-25T11:06:21.000Z</time>
      </trkpt>
      <trkpt lat="43.07181" lon="5.9274">
        <ele>6.1</ele>
        <time>2025-05-25T11:06:22.000Z</time>
      </trkpt>
      <trkpt lat="43.07181" lon="5.9274">
        <ele>6.1</ele>
        <time>2025-05-25T11:06:23.000Z</time>
      </trkpt>
      <trkpt lat="43.07181" lon="5.9274">
        <ele>6.1</ele>
        <time>2025-05-25T11:06:24.000Z</time>
      </trkpt>
      <trkpt lat="43.07181" lon="5.9274">
        <ele>6.1</ele>
        <time>2025-05-25T11:06:25.000Z</time>
      </trkpt>
      <trkpt lat="43.07181" lon="5.9274">
        <ele>6.1</ele>
        <time>2025-05-25T11:06:26.000Z</time>
      </trkpt>
      <trkpt lat="43.07181" lon="5.9274">
        <ele>6.1</ele>
        <time>2025-05-25T11:06:35.000Z</time>
      </trkpt>
      <trkpt lat="43.07181" lon="5.9274">
        <ele>6.1</ele>
        <time>2025-05-25T11:06:36.000Z</time>
      </trkpt>
      <trkpt lat="43.07181" lon="5.9274">
        <ele>6.1</ele>
        <time>2025-05-25T11:06:37.000Z</time>
      </trkpt>
      <trkpt lat="43.07181" lon="5.9274">
        <ele>6.1</ele>
        <time>2025-05-25T11:06:40.000Z</time>
      </trkpt>
      <trkpt lat="43.07181" lon="5.9274">
        <ele>6.1</ele>
        <time>2025-05-25T11:06:41.000Z</time>
      </trkpt>
      <trkpt lat="43.07181" lon="5.9274">
        <ele>6.1</ele>
        <time>2025-05-25T11:06:42.000Z</time>
      </trkpt>
      <trkpt lat="43.07181" lon="5.9274">
        <ele>6.1</ele>
        <time>2025-05-25T11:06:43.000Z</time>
      </trkpt>
      <trkpt lat="43.07181" lon="5.9274">
        <ele>6.1</ele>
        <time>2025-05-25T11:06:44.000Z</time>
      </trkpt>
      <trkpt lat="43.07181" lon="5.9274">
        <ele>6.1</ele>
        <time>2025-05-25T11:06:45.000Z</time>
      </trkpt>
      <trkpt lat="43.07181" lon="5.9274">
        <ele>6</ele>
        <time>2025-05-25T11:06:50.000Z</time>
      </trkpt>
      <trkpt lat="43.07181" lon="5.9274">
        <ele>6</ele>
        <time>2025-05-25T11:06:51.000Z</time>
      </trkpt>
      <trkpt lat="43.07181" lon="5.9274">
        <ele>5.9</ele>
        <time>2025-05-25T11:07:11.000Z</time>
      </trkpt>
      <trkpt lat="43.07181" lon="5.9274">
        <ele>6</ele>
        <time>2025-05-25T11:07:12.000Z</time>
      </trkpt>
      <trkpt lat="43.07178" lon="5.92739">
        <ele>5.9</ele>
        <time>2025-05-25T11:07:18.000Z</time>
      </trkpt>
      <trkpt lat="43.07179" lon="5.92739">
        <ele>5.9</ele>
        <time>2025-05-25T11:07:19.000Z</time>
      </trkpt>
      <trkpt lat="43.07181" lon="5.92737">
        <ele>5.9</ele>
        <time>2025-05-25T11:07:28.000Z</time>
      </trkpt>
      <trkpt lat="43.07181" lon="5.92737">
        <ele>5.9</ele>
        <time>2025-05-25T11:07:29.000Z</time>
      </trkpt>
      <trkpt lat="43.07182" lon="5.92737">
        <ele>5.9</ele>
        <time>2025-05-25T11:07:45.000Z</time>
      </trkpt>
      <trkpt lat="43.07182" lon="5.92737">
        <ele>5.9</ele>
        <time>2025-05-25T11:07:46.000Z</time>
      </trkpt>
      <trkpt lat="43.07182" lon="5.92737">
        <ele>5.9</ele>
        <time>2025-05-25T11:07:47.000Z</time>
      </trkpt>
      <trkpt lat="43.07182" lon="5.92737">
        <ele>5.8</ele>
        <time>2025-05-25T11:07:48.000Z</time>
      </trkpt>
      <trkpt lat="43.07182" lon="5.92738">
        <ele>5.8</ele>
        <time>2025-05-25T11:07:49.000Z</time>
      </trkpt>
      <trkpt lat="43.07182" lon="5.92737">
        <ele>5.8</ele>
        <time>2025-05-25T11:07:50.000Z</time>
      </trkpt>
      <trkpt lat="43.07181" lon="5.92737">
        <ele>5.8</ele>
        <time>2025-05-25T11:07:51.000Z</time>
      </trkpt>
      <trkpt lat="43.07181" lon="5.92736">
        <ele>5.8</ele>
        <time>2025-05-25T11:07:52.000Z</time>
      </trkpt>
      <trkpt lat="43.07182" lon="5.92736">
        <ele>5.8</ele>
        <time>2025-05-25T11:07:53.000Z</time>
      </trkpt>
      <trkpt lat="43.07181" lon="5.92735">
        <ele>5.8</ele>
        <time>2025-05-25T11:07:54.000Z</time>
      </trkpt>
      <trkpt lat="43.07181" lon="5.92735">
        <ele>5.8</ele>
        <time>2025-05-25T11:07:55.000Z</time>
      </trkpt>
      <trkpt lat="43.07181" lon="5.92735">
        <ele>5.8</ele>
        <time>2025-05-25T11:07:56.000Z</time>
      </trkpt>
      <trkpt lat="43.07182" lon="5.92737">
        <ele>5.7</ele>
        <time>2025-05-25T11:08:13.000Z</time>
      </trkpt>
      <trkpt lat="43.07182" lon="5.92737">
        <ele>5.7</ele>
        <time>2025-05-25T11:08:14.000Z</time>
      </trkpt>
      <trkpt lat="43.07182" lon="5.92737">
        <ele>5.7</ele>
        <time>2025-05-25T11:08:15.000Z</time>
      </trkpt>
      <trkpt lat="43.07182" lon="5.92737">
        <ele>5.7</ele>
        <time>2025-05-25T11:08:16.000Z</time>
      </trkpt>
      <trkpt lat="43.07182" lon="5.92737">
        <ele>5.6</ele>
        <time>2025-05-25T11:08:27.000Z</time>
      </trkpt>
      <trkpt lat="43.07182" lon="5.92737">
        <ele>5.6</ele>
        <time>2025-05-25T11:08:28.000Z</time>
      </trkpt>
      <trkpt lat="43.07182" lon="5.92737">
        <ele>5.6</ele>
        <time>2025-05-25T11:08:29.000Z</time>
      </trkpt>
      <trkpt lat="43.07182" lon="5.92737">
        <ele>5.6</ele>
        <time>2025-05-25T11:08:32.000Z</time>
      </trkpt>
      <trkpt lat="43.07182" lon="5.92737">
        <ele>5.6</ele>
        <time>2025-05-25T11:08:33.000Z</time>
      </trkpt>
      <trkpt lat="43.07182" lon="5.92737">
        <ele>5.5</ele>
        <time>2025-05-25T11:08:34.000Z</time>
      </trkpt>
      <trkpt lat="43.07182" lon="5.92737">
        <ele>5.4</ele>
        <time>2025-05-25T11:08:50.000Z</time>
      </trkpt>
      <trkpt lat="43.07182" lon="5.92737">
        <ele>5.4</ele>
        <time>2025-05-25T11:08:51.000Z</time>
      </trkpt>
      <trkpt lat="43.0718" lon="5.92736">
        <ele>5.3</ele>
        <time>2025-05-25T11:08:57.000Z</time>
      </trkpt>
      <trkpt lat="43.0718" lon="5.92736">
        <ele>5.3</ele>
        <time>2025-05-25T11:08:58.000Z</time>
      </trkpt>
      <trkpt lat="43.0718" lon="5.92736">
        <ele>5.3</ele>
        <time>2025-05-25T11:08:59.000Z</time>
      </trkpt>
      <trkpt lat="43.0718" lon="5.92736">
        <ele>5.3</ele>
        <time>2025-05-25T11:09:55.000Z</time>
      </trkpt>
      <trkpt lat="43.0718" lon="5.92736">
        <ele>5.3</ele>
        <time>2025-05-25T11:09:56.000Z</time>
      </trkpt>
      <trkpt lat="43.0718" lon="5.92736">
        <ele>5.3</ele>
        <time>2025-05-25T11:09:57.000Z</time>
      </trkpt>
      <trkpt lat="43.07181" lon="5.92736">
        <ele>5.3</ele>
        <time>2025-05-25T11:09:58.000Z</time>
      </trkpt>
      <trkpt lat="43.07181" lon="5.92736">
        <ele>5.3</ele>
        <time>2025-05-25T11:09:59.000Z</time>
      </trkpt>
      <trkpt lat="43.07178" lon="5.92735">
        <ele>5.4</ele>
        <time>2025-05-25T11:10:07.000Z</time>
      </trkpt>
      <trkpt lat="43.07177" lon="5.92736">
        <ele>5.4</ele>
        <time>2025-05-25T11:10:08.000Z</time>
      </trkpt>
      <trkpt lat="43.07177" lon="5.92737">
        <ele>5.4</ele>
        <time>2025-05-25T11:10:09.000Z</time>
      </trkpt>
      <trkpt lat="43.07179" lon="5.92741">
        <ele>5.4</ele>
        <time>2025-05-25T11:10:18.000Z</time>
      </trkpt>
      <trkpt lat="43.07179" lon="5.92741">
        <ele>5.3</ele>
        <time>2025-05-25T11:10:19.000Z</time>
      </trkpt>
      <trkpt lat="43.0718" lon="5.92741">
        <ele>5.3</ele>
        <time>2025-05-25T11:10:20.000Z</time>
      </trkpt>
      <trkpt lat="43.0718" lon="5.92739">
        <ele>5.3</ele>
        <time>2025-05-25T11:11:03.000Z</time>
      </trkpt>
      <trkpt lat="43.0718" lon="5.92738">
        <ele>5.3</ele>
        <time>2025-05-25T11:11:04.000Z</time>
      </trkpt>
      <trkpt lat="43.07182" lon="5.92737">
        <ele>5.3</ele>
        <time>2025-05-25T11:11:10.000Z</time>
      </trkpt>
      <trkpt lat="43.07182" lon="5.92736">
        <ele>5.3</ele>
        <time>2025-05-25T11:11:11.000Z</time>
      </trkpt>
      <trkpt lat="43.07182" lon="5.92736">
        <ele>5.3</ele>
        <time>2025-05-25T11:11:15.000Z</time>
      </trkpt>
      <trkpt lat="43.07182" lon="5.92736">
        <ele>5.3</ele>
        <time>2025-05-25T11:11:16.000Z</time>
      </trkpt>
      <trkpt lat="43.07182" lon="5.92736">
        <ele>5.3</ele>
        <time>2025-05-25T11:11:17.000Z</time>
      </trkpt>
      <trkpt lat="43.07183" lon="5.92736">
        <ele>5.3</ele>
        <time>2025-05-25T11:11:18.000Z</time>
      </trkpt>
      <trkpt lat="43.07183" lon="5.92736">
        <ele>5.3</ele>
        <time>2025-05-25T11:11:19.000Z</time>
      </trkpt>
      <trkpt lat="43.07183" lon="5.92737">
        <ele>5.3</ele>
        <time>2025-05-25T11:11:25.000Z</time>
      </trkpt>
      <trkpt lat="43.07183" lon="5.92739">
        <ele>5.3</ele>
        <time>2025-05-25T11:11:26.000Z</time>
      </trkpt>
      <trkpt lat="43.07183" lon="5.9274">
        <ele>5.3</ele>
        <time>2025-05-25T11:11:27.000Z</time>
      </trkpt>
      <trkpt lat="43.07182" lon="5.92737">
        <ele>5.3</ele>
        <time>2025-05-25T11:11:48.000Z</time>
      </trkpt>
      <trkpt lat="43.07183" lon="5.92737">
        <ele>5.3</ele>
        <time>2025-05-25T11:11:49.000Z</time>
      </trkpt>
      <trkpt lat="43.07183" lon="5.92737">
        <ele>5.3</ele>
        <time>2025-05-25T11:11:52.000Z</time>
      </trkpt>
      <trkpt lat="43.07183" lon="5.92737">
        <ele>5.3</ele>
        <time>2025-05-25T11:11:53.000Z</time>
      </trkpt>
      <trkpt lat="43.07182" lon="5.92738">
        <ele>5.4</ele>
        <time>2025-05-25T11:11:54.000Z</time>
      </trkpt>
      <trkpt lat="43.07181" lon="5.92738">
        <ele>5.4</ele>
        <time>2025-05-25T11:11:58.000Z</time>
      </trkpt>
      <trkpt lat="43.07181" lon="5.92739">
        <ele>5.3</ele>
        <time>2025-05-25T11:11:59.000Z</time>
      </trkpt>
      <trkpt lat="43.0718" lon="5.92739">
        <ele>5.3</ele>
        <time>2025-05-25T11:12:00.000Z</time>
      </trkpt>
      <trkpt lat="43.0718" lon="5.92739">
        <ele>5.3</ele>
        <time>2025-05-25T11:12:01.000Z</time>
      </trkpt>
      <trkpt lat="43.0718" lon="5.92739">
        <ele>5.2</ele>
        <time>2025-05-25T11:12:05.000Z</time>
      </trkpt>
      <trkpt lat="43.0718" lon="5.92739">
        <ele>5.3</ele>
        <time>2025-05-25T11:12:06.000Z</time>
      </trkpt>
      <trkpt lat="43.07179" lon="5.92738">
        <ele>5.4</ele>
        <time>2025-05-25T11:12:15.000Z</time>
      </trkpt>
      <trkpt lat="43.07179" lon="5.92738">
        <ele>5.4</ele>
        <time>2025-05-25T11:12:16.000Z</time>
      </trkpt>
      <trkpt lat="43.07179" lon="5.92738">
        <ele>5.4</ele>
        <time>2025-05-25T11:12:20.000Z</time>
      </trkpt>
      <trkpt lat="43.07179" lon="5.92738">
        <ele>5.4</ele>
        <time>2025-05-25T11:12:21.000Z</time>
      </trkpt>
      <trkpt lat="43.07178" lon="5.92737">
        <ele>5.8</ele>
        <time>2025-05-25T11:15:57.000Z</time>
      </trkpt>
      <trkpt lat="43.07178" lon="5.92737">
        <ele>5.8</ele>
        <time>2025-05-25T11:15:58.000Z</time>
      </trkpt>
      <trkpt lat="43.07178" lon="5.92737">
        <ele>5.8</ele>
        <time>2025-05-25T11:15:59.000Z</time>
      </trkpt>
      <trkpt lat="43.07178" lon="5.92737">
        <ele>5.8</ele>
        <time>2025-05-25T11:16:00.000Z</time>
      </trkpt>
      <trkpt lat="43.07178" lon="5.92737">
        <ele>5.8</ele>
        <time>2025-05-25T11:16:01.000Z</time>
      </trkpt>
      <trkpt lat="43.07177" lon="5.92735">
        <ele>5.9</ele>
        <time>2025-05-25T11:18:20.000Z</time>
      </trkpt>
      <trkpt lat="43.07177" lon="5.92735">
        <ele>5.9</ele>
        <time>2025-05-25T11:18:21.000Z</time>
      </trkpt>
      <trkpt lat="43.07177" lon="5.92735">
        <ele>5.9</ele>
        <time>2025-05-25T11:18:22.000Z</time>
      </trkpt>
      <trkpt lat="43.07177" lon="5.92735">
        <ele>5.9</ele>
        <time>2025-05-25T11:18:23.000Z</time>
      </trkpt>
      <trkpt lat="43.07177" lon="5.92735">
        <ele>5.9</ele>
        <time>2025-05-25T11:18:24.000Z</time>
      </trkpt>
      <trkpt lat="43.07178" lon="5.92735">
        <ele>5.8</ele>
        <time>2025-05-25T11:18:42.000Z</time>
      </trkpt>
      <trkpt lat="43.07178" lon="5.92734">
        <ele>5.8</ele>
        <time>2025-05-25T11:18:43.000Z</time>
      </trkpt>
      <trkpt lat="43.07179" lon="5.92734">
        <ele>5.8</ele>
        <time>2025-05-25T11:18:44.000Z</time>
      </trkpt>
      <trkpt lat="43.07179" lon="5.92734">
        <ele>5.9</ele>
        <time>2025-05-25T11:18:47.000Z</time>
      </trkpt>
      <trkpt lat="43.07179" lon="5.92735">
        <ele>5.9</ele>
        <time>2025-05-25T11:18:48.000Z</time>
      </trkpt>
      <trkpt lat="43.07179" lon="5.92735">
        <ele>5.9</ele>
        <time>2025-05-25T11:18:49.000Z</time>
      </trkpt>
      <trkpt lat="43.07179" lon="5.92735">
        <ele>5.9</ele>
        <time>2025-05-25T11:18:50.000Z</time>
      </trkpt>
      <trkpt lat="43.07179" lon="5.92735">
        <ele>5.9</ele>
        <time>2025-05-25T11:18:51.000Z</time>
      </trkpt>
      <trkpt lat="43.0718" lon="5.92736">
        <ele>6</ele>
        <time>2025-05-25T11:18:55.000Z</time>
      </trkpt>
      <trkpt lat="43.0718" lon="5.92736">
        <ele>6</ele>
        <time>2025-05-25T11:18:56.000Z</time>
      </trkpt>
      <trkpt lat="43.0718" lon="5.92736">
        <ele>5.9</ele>
        <time>2025-05-25T11:18:57.000Z</time>
      </trkpt>
      <trkpt lat="43.0718" lon="5.92736">
        <ele>6</ele>
        <time>2025-05-25T11:19:01.000Z</time>
      </trkpt>
      <trkpt lat="43.0718" lon="5.92736">
        <ele>6</ele>
        <time>2025-05-25T11:19:02.000Z</time>
      </trkpt>
      <trkpt lat="43.0718" lon="5.92736">
        <ele>6</ele>
        <time>2025-05-25T11:19:03.000Z</time>
      </trkpt>
      <trkpt lat="43.0718" lon="5.92736">
        <ele>6</ele>
        <time>2025-05-25T11:19:04.000Z</time>
      </trkpt>
      <trkpt lat="43.0718" lon="5.92736">
        <ele>6</ele>
        <time>2025-05-25T11:19:05.000Z</time>
      </trkpt>
      <trkpt lat="43.0718" lon="5.92737">
        <ele>5.9</ele>
        <time>2025-05-25T11:19:28.000Z</time>
      </trkpt>
      <trkpt lat="43.0718" lon="5.92737">
        <ele>5.9</ele>
        <time>2025-05-25T11:19:29.000Z</time>
      </trkpt>
      <trkpt lat="43.0718" lon="5.92737">
        <ele>5.9</ele>
        <time>2025-05-25T11:19:30.000Z</time>
      </trkpt>
      <trkpt lat="43.0718" lon="5.92738">
        <ele>5.9</ele>
        <time>2025-05-25T11:19:33.000Z</time>
      </trkpt>
      <trkpt lat="43.0718" lon="5.92738">
        <ele>5.9</ele>
        <time>2025-05-25T11:19:34.000Z</time>
      </trkpt>
      <trkpt lat="43.0718" lon="5.92738">
        <ele>5.9</ele>
        <time>2025-05-25T11:19:35.000Z</time>
      </trkpt>
      <trkpt lat="43.0718" lon="5.92739">
        <ele>5.9</ele>
        <time>2025-05-25T11:20:13.000Z</time>
      </trkpt>
      <trkpt lat="43.0718" lon="5.92739">
        <ele>5.9</ele>
        <time>2025-05-25T11:20:14.000Z</time>
      </trkpt>
      <trkpt lat="43.0718" lon="5.92741">
        <ele>5.9</ele>
        <time>2025-05-25T11:20:15.000Z</time>
      </trkpt>
      <trkpt lat="43.0718" lon="5.92741">
        <ele>5.9</ele>
        <time>2025-05-25T11:20:16.000Z</time>
      </trkpt>
      <trkpt lat="43.0718" lon="5.92741">
        <ele>5.9</ele>
        <time>2025-05-25T11:20:17.000Z</time>
      </trkpt>
      <trkpt lat="43.07179" lon="5.92742">
        <ele>5.9</ele>
        <time>2025-05-25T11:21:05.000Z</time>
      </trkpt>
      <trkpt lat="43.07179" lon="5.92742">
        <ele>5.9</ele>
        <time>2025-05-25T11:21:06.000Z</time>
      </trkpt>
      <trkpt lat="43.0718" lon="5.9274">
        <ele>5.8</ele>
        <time>2025-05-25T11:21:13.000Z</time>
      </trkpt>
      <trkpt lat="43.0718" lon="5.9274">
        <ele>5.8</ele>
        <time>2025-05-25T11:21:14.000Z</time>
      </trkpt>
      <trkpt lat="43.07181" lon="5.9274">
        <ele>5.8</ele>
        <time>2025-05-25T11:21:15.000Z</time>
      </trkpt>
      <trkpt lat="43.07181" lon="5.9274">
        <ele>5.8</ele>
        <time>2025-05-25T11:21:16.000Z</time>
      </trkpt>
      <trkpt lat="43.07182" lon="5.92738">
        <ele>5.8</ele>
        <time>2025-05-25T11:21:20.000Z</time>
      </trkpt>
      <trkpt lat="43.07181" lon="5.92738">
        <ele>5.8</ele>
        <time>2025-05-25T11:21:21.000Z</time>
      </trkpt>
      <trkpt lat="43.07179" lon="5.92738">
        <ele>5.6</ele>
        <time>2025-05-25T11:21:58.000Z</time>
      </trkpt>
      <trkpt lat="43.07179" lon="5.92738">
        <ele>5.7</ele>
        <time>2025-05-25T11:21:59.000Z</time>
      </trkpt>
      <trkpt lat="43.07179" lon="5.92738">
        <ele>5.7</ele>
        <time>2025-05-25T11:22:00.000Z</time>
      </trkpt>
      <trkpt lat="43.07179" lon="5.92738">
        <ele>5.7</ele>
        <time>2025-05-25T11:22:01.000Z</time>
      </trkpt>
      <trkpt lat="43.07179" lon="5.92737">
        <ele>5.7</ele>
        <time>2025-05-25T11:22:02.000Z</time>
      </trkpt>
      <trkpt lat="43.07183" lon="5.92738">
        <ele>5.6</ele>
        <time>2025-05-25T11:22:40.000Z</time>
      </trkpt>
      <trkpt lat="43.07182" lon="5.92738">
        <ele>5.6</ele>
        <time>2025-05-25T11:22:41.000Z</time>
      </trkpt>
      <trkpt lat="43.07182" lon="5.92738">
        <ele>5.6</ele>
        <time>2025-05-25T11:22:42.000Z</time>
      </trkpt>
      <trkpt lat="43.07182" lon="5.92738">
        <ele>5.6</ele>
        <time>2025-05-25T11:22:43.000Z</time>
      </trkpt>
      <trkpt lat="43.07182" lon="5.92738">
        <ele>5.6</ele>
        <time>2025-05-25T11:22:44.000Z</time>
      </trkpt>
      <trkpt lat="43.07178" lon="5.92737">
        <ele>5.5</ele>
        <time>2025-05-25T11:26:22.000Z</time>
      </trkpt>
      <trkpt lat="43.07178" lon="5.92737">
        <ele>5.5</ele>
        <time>2025-05-25T11:26:23.000Z</time>
      </trkpt>
      <trkpt lat="43.07177" lon="5.92736">
        <ele>5.5</ele>
        <time>2025-05-25T11:26:24.000Z</time>
      </trkpt>
      <trkpt lat="43.07177" lon="5.92736">
        <ele>5.5</ele>
        <time>2025-05-25T11:26:25.000Z</time>
      </trkpt>
      <trkpt lat="43.07177" lon="5.92736">
        <ele>5.5</ele>
        <time>2025-05-25T11:26:26.000Z</time>
      </trkpt>
      <trkpt lat="43.07177" lon="5.92736">
        <ele>5.4</ele>
        <time>2025-05-25T11:26:27.000Z</time>
      </trkpt>
      <trkpt lat="43.0718" lon="5.92737">
        <ele>5.4</ele>
        <time>2025-05-25T11:30:20.000Z</time>
      </trkpt>
      <trkpt lat="43.0718" lon="5.92737">
        <ele>5.4</ele>
        <time>2025-05-25T11:30:21.000Z</time>
      </trkpt>
      <trkpt lat="43.0718" lon="5.92737">
        <ele>5.4</ele>
        <time>2025-05-25T11:30:22.000Z</time>
      </trkpt>
      <trkpt lat="43.0718" lon="5.92737">
        <ele>5.4</ele>
        <time>2025-05-25T11:30:23.000Z</time>
      </trkpt>
      <trkpt lat="43.0718" lon="5.92737">
        <ele>5.4</ele>
        <time>2025-05-25T11:30:24.000Z</time>
      </trkpt>
      <trkpt lat="43.07176" lon="5.92735">
        <ele>5.6</ele>
        <time>2025-05-25T11:34:05.000Z</time>
      </trkpt>
      <trkpt lat="43.07176" lon="5.92735">
        <ele>5.6</ele>
        <time>2025-05-25T11:34:06.000Z</time>
      </trkpt>
      <trkpt lat="43.07176" lon="5.92735">
        <ele>5.6</ele>
        <time>2025-05-25T11:34:07.000Z</time>
      </trkpt>
      <trkpt lat="43.07176" lon="5.92735">
        <ele>5.6</ele>
        <time>2025-05-25T11:34:08.000Z</time>
      </trkpt>
      <trkpt lat="43.07176" lon="5.92735">
        <ele>5.6</ele>
        <time>2025-05-25T11:34:09.000Z</time>
      </trkpt>
      <trkpt lat="43.07176" lon="5.92735">
        <ele>5.6</ele>
        <time>2025-05-25T11:34:30.000Z</time>
      </trkpt>
      <trkpt lat="43.07176" lon="5.92735">
        <ele>5.6</ele>
        <time>2025-05-25T11:34:31.000Z</time>
      </trkpt>
      <trkpt lat="43.07176" lon="5.92735">
        <ele>5.6</ele>
        <time>2025-05-25T11:34:32.000Z</time>
      </trkpt>
      <trkpt lat="43.07176" lon="5.92735">
        <ele>5.6</ele>
        <time>2025-05-25T11:34:33.000Z</time>
      </trkpt>
      <trkpt lat="43.07176" lon="5.92736">
        <ele>5.6</ele>
        <time>2025-05-25T11:34:34.000Z</time>
      </trkpt>
      <trkpt lat="43.07176" lon="5.92736">
        <ele>5.6</ele>
        <time>2025-05-25T11:34:35.000Z</time>
      </trkpt>
      <trkpt lat="43.07177" lon="5.92736">
        <ele>5.7</ele>
        <time>2025-05-25T11:34:53.000Z</time>
      </trkpt>
      <trkpt lat="43.07177" lon="5.92736">
        <ele>5.7</ele>
        <time>2025-05-25T11:34:54.000Z</time>
      </trkpt>
      <trkpt lat="43.07177" lon="5.92736">
        <ele>5.7</ele>
        <time>2025-05-25T11:34:55.000Z</time>
      </trkpt>
      <trkpt lat="43.07177" lon="5.92736">
        <ele>5.7</ele>
        <time>2025-05-25T11:34:56.000Z</time>
      </trkpt>
      <trkpt lat="43.07177" lon="5.92736">
        <ele>5.7</ele>
        <time>2025-05-25T11:35:05.000Z</time>
      </trkpt>
      <trkpt lat="43.07177" lon="5.92736">
        <ele>5.7</ele>
        <time>2025-05-25T11:35:06.000Z</time>
      </trkpt>
      <trkpt lat="43.07177" lon="5.92736">
        <ele>5.7</ele>
        <time>2025-05-25T11:35:07.000Z</time>
      </trkpt>
      <trkpt lat="43.07177" lon="5.92736">
        <ele>5.7</ele>
        <time>2025-05-25T11:35:08.000Z</time>
      </trkpt>
      <trkpt lat="43.07177" lon="5.92736">
        <ele>5.7</ele>
        <time>2025-05-25T11:35:09.000Z</time>
      </trkpt>
      <trkpt lat="43.07177" lon="5.92736">
        <ele>5.8</ele>
        <time>2025-05-25T11:36:13.000Z</time>
      </trkpt>
      <trkpt lat="43.07177" lon="5.92736">
        <ele>5.8</ele>
        <time>2025-05-25T11:36:14.000Z</time>
      </trkpt>
      <trkpt lat="43.07177" lon="5.92736">
        <ele>5.8</ele>
        <time>2025-05-25T11:36:15.000Z</time>
      </trkpt>
      <trkpt lat="43.07177" lon="5.92736">
        <ele>5.8</ele>
        <time>2025-05-25T11:36:16.000Z</time>
      </trkpt>
      <trkpt lat="43.07177" lon="5.92736">
        <ele>5.8</ele>
        <time>2025-05-25T11:36:17.000Z</time>
      </trkpt>
      <trkpt lat="43.07179" lon="5.92737">
        <ele>5.9</ele>
        <time>2025-05-25T11:37:58.000Z</time>
      </trkpt>
      <trkpt lat="43.07179" lon="5.92737">
        <ele>5.9</ele>
        <time>2025-05-25T11:37:59.000Z</time>
      </trkpt>
      <trkpt lat="43.07179" lon="5.92737">
        <ele>5.9</ele>
        <time>2025-05-25T11:38:02.000Z</time>
      </trkpt>
      <trkpt lat="43.07179" lon="5.92737">
        <ele>5.9</ele>
        <time>2025-05-25T11:38:03.000Z</time>
      </trkpt>
      <trkpt lat="43.07179" lon="5.92737">
        <ele>5.9</ele>
        <time>2025-05-25T11:38:04.000Z</time>
      </trkpt>
      <trkpt lat="43.07179" lon="5.92737">
        <ele>5.9</ele>
        <time>2025-05-25T11:39:00.000Z</time>
      </trkpt>
      <trkpt lat="43.07179" lon="5.92737">
        <ele>5.9</ele>
        <time>2025-05-25T11:39:01.000Z</time>
      </trkpt>
      <trkpt lat="43.07179" lon="5.92737">
        <ele>5.9</ele>
        <time>2025-05-25T11:39:02.000Z</time>
      </trkpt>
      <trkpt lat="43.07179" lon="5.92737">
        <ele>5.9</ele>
        <time>2025-05-25T11:39:03.000Z</time>
      </trkpt>
      <trkpt lat="43.07179" lon="5.92737">
        <ele>5.9</ele>
        <time>2025-05-25T11:39:04.000Z</time>
      </trkpt>
      <trkpt lat="43.07179" lon="5.92737">
        <ele>5.9</ele>
        <time>2025-05-25T11:40:31.000Z</time>
      </trkpt>
      <trkpt lat="43.07179" lon="5.92737">
        <ele>5.9</ele>
        <time>2025-05-25T11:40:32.000Z</time>
      </trkpt>
      <trkpt lat="43.07179" lon="5.92737">
        <ele>5.9</ele>
        <time>2025-05-25T11:40:33.000Z</time>
      </trkpt>
      <trkpt lat="43.07179" lon="5.92737">
        <ele>5.9</ele>
        <time>2025-05-25T11:40:34.000Z</time>
      </trkpt>
      <trkpt lat="43.07179" lon="5.92737">
        <ele>5.9</ele>
        <time>2025-05-25T11:41:55.000Z</time>
      </trkpt>
      <trkpt lat="43.07179" lon="5.92737">
        <ele>5.9</ele>
        <time>2025-05-25T11:41:56.000Z</time>
      </trkpt>
      <trkpt lat="43.07179" lon="5.92737">
        <ele>5.9</ele>
        <time>2025-05-25T11:41:57.000Z</time>
      </trkpt>
      <trkpt lat="43.07179" lon="5.92736">
        <ele>5.9</ele>
        <time>2025-05-25T11:41:58.000Z</time>
      </trkpt>
      <trkpt lat="43.07179" lon="5.92736">
        <ele>5.9</ele>
        <time>2025-05-25T11:41:59.000Z</time>
      </trkpt>
      <trkpt lat="43.07176" lon="5.92734">
        <ele>5.8</ele>
        <time>2025-05-25T11:43:37.000Z</time>
      </trkpt>
      <trkpt lat="43.07176" lon="5.92734">
        <ele>5.8</ele>
        <time>2025-05-25T11:43:38.000Z</time>
      </trkpt>
      <trkpt lat="43.07176" lon="5.92734">
        <ele>5.8</ele>
        <time>2025-05-25T11:43:39.000Z</time>
      </trkpt>
      <trkpt lat="43.07176" lon="5.92734">
        <ele>5.8</ele>
        <time>2025-05-25T11:43:40.000Z</time>
      </trkpt>
      <trkpt lat="43.07176" lon="5.92734">
        <ele>5.8</ele>
        <time>2025-05-25T11:43:41.000Z</time>
      </trkpt>
      <trkpt lat="43.07177" lon="5.92735">
        <ele>5.8</ele>
        <time>2025-05-25T11:44:35.000Z</time>
      </trkpt>
      <trkpt lat="43.07177" lon="5.92735">
        <ele>5.8</ele>
        <time>2025-05-25T11:44:36.000Z</time>
      </trkpt>
      <trkpt lat="43.07177" lon="5.92735">
        <ele>5.8</ele>
        <time>2025-05-25T11:44:37.000Z</time>
      </trkpt>
      <trkpt lat="43.07177" lon="5.92735">
        <ele>5.8</ele>
        <time>2025-05-25T11:44:38.000Z</time>
      </trkpt>
      <trkpt lat="43.07177" lon="5.92735">
        <ele>5.8</ele>
        <time>2025-05-25T11:44:39.000Z</time>
      </trkpt>
      <trkpt lat="43.07178" lon="5.92735">
        <ele>5.9</ele>
        <time>2025-05-25T11:46:58.000Z</time>
      </trkpt>
      <trkpt lat="43.07178" lon="5.92735">
        <ele>5.9</ele>
        <time>2025-05-25T11:46:59.000Z</time>
      </trkpt>
      <trkpt lat="43.07178" lon="5.92735">
        <ele>5.9</ele>
        <time>2025-05-25T11:47:00.000Z</time>
      </trkpt>
      <trkpt lat="43.07178" lon="5.92735">
        <ele>5.9</ele>
        <time>2025-05-25T11:47:01.000Z</time>
      </trkpt>
      <trkpt lat="43.07178" lon="5.92735">
        <ele>5.9</ele>
        <time>2025-05-25T11:47:02.000Z</time>
      </trkpt>
      <trkpt lat="43.07177" lon="5.92735">
        <ele>5.8</ele>
        <time>2025-05-25T11:47:18.000Z</time>
      </trkpt>
      <trkpt lat="43.07177" lon="5.92735">
        <ele>5.7</ele>
        <time>2025-05-25T11:47:19.000Z</time>
      </trkpt>
      <trkpt lat="43.07177" lon="5.92735">
        <ele>5.7</ele>
        <time>2025-05-25T11:47:20.000Z</time>
      </trkpt>
      <trkpt lat="43.07177" lon="5.92735">
        <ele>5.8</ele>
        <time>2025-05-25T11:47:21.000Z</time>
      </trkpt>
      <trkpt lat="43.07177" lon="5.92735">
        <ele>5.8</ele>
        <time>2025-05-25T11:47:22.000Z</time>
      </trkpt>
      <trkpt lat="43.07177" lon="5.92738">
        <ele>5.9</ele>
        <time>2025-05-25T11:52:25.000Z</time>
      </trkpt>
      <trkpt lat="43.07178" lon="5.92737">
        <ele>5.9</ele>
        <time>2025-05-25T11:52:26.000Z</time>
      </trkpt>
      <trkpt lat="43.07178" lon="5.92736">
        <ele>5.8</ele>
        <time>2025-05-25T11:52:30.000Z</time>
      </trkpt>
      <trkpt lat="43.07178" lon="5.92736">
        <ele>5.8</ele>
        <time>2025-05-25T11:52:31.000Z</time>
      </trkpt>
      <trkpt lat="43.07179" lon="5.92737">
        <ele>5.8</ele>
        <time>2025-05-25T11:52:38.000Z</time>
      </trkpt>
      <trkpt lat="43.07179" lon="5.92737">
        <ele>5.8</ele>
        <time>2025-05-25T11:52:39.000Z</time>
      </trkpt>
      <trkpt lat="43.07179" lon="5.92737">
        <ele>5.8</ele>
        <time>2025-05-25T11:52:40.000Z</time>
      </trkpt>
      <trkpt lat="43.07179" lon="5.92737">
        <ele>5.8</ele>
        <time>2025-05-25T11:52:41.000Z</time>
      </trkpt>
      <trkpt lat="43.07181" lon="5.92736">
        <ele>5.7</ele>
        <time>2025-05-25T11:52:50.000Z</time>
      </trkpt>
      <trkpt lat="43.07181" lon="5.92736">
        <ele>5.7</ele>
        <time>2025-05-25T11:52:51.000Z</time>
      </trkpt>
      <trkpt lat="43.07181" lon="5.92736">
        <ele>5.7</ele>
        <time>2025-05-25T11:52:52.000Z</time>
      </trkpt>
      <trkpt lat="43.07181" lon="5.92736">
        <ele>5.7</ele>
        <time>2025-05-25T11:52:53.000Z</time>
      </trkpt>
      <trkpt lat="43.07181" lon="5.92736">
        <ele>5.7</ele>
        <time>2025-05-25T11:52:54.000Z</time>
      </trkpt>
      <trkpt lat="43.0718" lon="5.92736">
        <ele>5.7</ele>
        <time>2025-05-25T11:53:01.000Z</time>
      </trkpt>
      <trkpt lat="43.0718" lon="5.92736">
        <ele>5.7</ele>
        <time>2025-05-25T11:53:02.000Z</time>
      </trkpt>
      <trkpt lat="43.07181" lon="5.92736">
        <ele>5.7</ele>
        <time>2025-05-25T11:53:03.000Z</time>
      </trkpt>
      <trkpt lat="43.07181" lon="5.92736">
        <ele>5.7</ele>
        <time>2025-05-25T11:53:04.000Z</time>
      </trkpt>
      <trkpt lat="43.07181" lon="5.92736">
        <ele>5.7</ele>
        <time>2025-05-25T11:53:05.000Z</time>
      </trkpt>
      <trkpt lat="43.07181" lon="5.92736">
        <ele>5.7</ele>
        <time>2025-05-25T11:53:25.000Z</time>
      </trkpt>
      <trkpt lat="43.07182" lon="5.92736">
        <ele>5.6</ele>
        <time>2025-05-25T11:53:26.000Z</time>
      </trkpt>
      <trkpt lat="43.07182" lon="5.92736">
        <ele>5.6</ele>
        <time>2025-05-25T11:53:27.000Z</time>
      </trkpt>
      <trkpt lat="43.07182" lon="5.92736">
        <ele>5.6</ele>
        <time>2025-05-25T11:53:28.000Z</time>
      </trkpt>
      <trkpt lat="43.07182" lon="5.92736">
        <ele>5.6</ele>
        <time>2025-05-25T11:53:29.000Z</time>
      </trkpt>
      <trkpt lat="43.07182" lon="5.92736">
        <ele>5.6</ele>
        <time>2025-05-25T11:53:30.000Z</time>
      </trkpt>
      <trkpt lat="43.07182" lon="5.92736">
        <ele>5.6</ele>
        <time>2025-05-25T11:53:31.000Z</time>
      </trkpt>
      <trkpt lat="43.07182" lon="5.92736">
        <ele>5.6</ele>
        <time>2025-05-25T11:53:32.000Z</time>
      </trkpt>
      <trkpt lat="43.07182" lon="5.92736">
        <ele>5.6</ele>
        <time>2025-05-25T11:53:36.000Z</time>
      </trkpt>
      <trkpt lat="43.07182" lon="5.92736">
        <ele>5.6</ele>
        <time>2025-05-25T11:53:37.000Z</time>
      </trkpt>
      <trkpt lat="43.07183" lon="5.92737">
        <ele>5.6</ele>
        <time>2025-05-25T11:54:01.000Z</time>
      </trkpt>
      <trkpt lat="43.07184" lon="5.92737">
        <ele>5.6</ele>
        <time>2025-05-25T11:54:02.000Z</time>
      </trkpt>
      <trkpt lat="43.07184" lon="5.92737">
        <ele>5.6</ele>
        <time>2025-05-25T11:54:03.000Z</time>
      </trkpt>
      <trkpt lat="43.07184" lon="5.92737">
        <ele>5.6</ele>
        <time>2025-05-25T11:54:04.000Z</time>
      </trkpt>
      <trkpt lat="43.07185" lon="5.92738">
        <ele>5.6</ele>
        <time>2025-05-25T11:54:07.000Z</time>
      </trkpt>
      <trkpt lat="43.07185" lon="5.92738">
        <ele>5.6</ele>
        <time>2025-05-25T11:54:08.000Z</time>
      </trkpt>
      <trkpt lat="43.07184" lon="5.92738">
        <ele>5.6</ele>
        <time>2025-05-25T11:54:09.000Z</time>
      </trkpt>
      <trkpt lat="43.07184" lon="5.92738">
        <ele>5.6</ele>
        <time>2025-05-25T11:54:15.000Z</time>
      </trkpt>
      <trkpt lat="43.07184" lon="5.92738">
        <ele>5.6</ele>
        <time>2025-05-25T11:54:16.000Z</time>
      </trkpt>
      <trkpt lat="43.07186" lon="5.92736">
        <ele>5.5</ele>
        <time>2025-05-25T11:54:40.000Z</time>
      </trkpt>
      <trkpt lat="43.07186" lon="5.92736">
        <ele>5.5</ele>
        <time>2025-05-25T11:54:41.000Z</time>
      </trkpt>
      <trkpt lat="43.07183" lon="5.92736">
        <ele>5.5</ele>
        <time>2025-05-25T11:54:53.000Z</time>
      </trkpt>
      <trkpt lat="43.07183" lon="5.92736">
        <ele>5.5</ele>
        <time>2025-05-25T11:54:54.000Z</time>
      </trkpt>
      <trkpt lat="43.07183" lon="5.92736">
        <ele>5.5</ele>
        <time>2025-05-25T11:54:58.000Z</time>
      </trkpt>
      <trkpt lat="43.07183" lon="5.92736">
        <ele>5.5</ele>
        <time>2025-05-25T11:54:59.000Z</time>
      </trkpt>
      <trkpt lat="43.07183" lon="5.92736">
        <ele>5.5</ele>
        <time>2025-05-25T11:55:00.000Z</time>
      </trkpt>
      <trkpt lat="43.07183" lon="5.92736">
        <ele>5.5</ele>
        <time>2025-05-25T11:55:01.000Z</time>
      </trkpt>
      <trkpt lat="43.07183" lon="5.92736">
        <ele>5.5</ele>
        <time>2025-05-25T11:55:02.000Z</time>
      </trkpt>
      <trkpt lat="43.07183" lon="5.92736">
        <ele>5.5</ele>
        <time>2025-05-25T11:55:05.000Z</time>
      </trkpt>
      <trkpt lat="43.07183" lon="5.92736">
        <ele>5.5</ele>
        <time>2025-05-25T11:55:06.000Z</time>
      </trkpt>
      <trkpt lat="43.07183" lon="5.92736">
        <ele>5.5</ele>
        <time>2025-05-25T11:55:07.000Z</time>
      </trkpt>
      <trkpt lat="43.07183" lon="5.92736">
        <ele>5.5</ele>
        <time>2025-05-25T11:55:08.000Z</time>
      </trkpt>
      <trkpt lat="43.07183" lon="5.92736">
        <ele>5.5</ele>
        <time>2025-05-25T11:55:09.000Z</time>
      </trkpt>
      <trkpt lat="43.07183" lon="5.92736">
        <ele>5.5</ele>
        <time>2025-05-25T11:55:10.000Z</time>
      </trkpt>
      <trkpt lat="43.07183" lon="5.92736">
        <ele>5.4</ele>
        <time>2025-05-25T11:55:13.000Z</time>
      </trkpt>
      <trkpt lat="43.07183" lon="5.92736">
        <ele>5.4</ele>
        <time>2025-05-25T11:55:14.000Z</time>
      </trkpt>
      <trkpt lat="43.0718" lon="5.9274">
        <ele>5.4</ele>
        <time>2025-05-25T11:55:28.000Z</time>
      </trkpt>
      <trkpt lat="43.0718" lon="5.9274">
        <ele>5.4</ele>
        <time>2025-05-25T11:55:29.000Z</time>
      </trkpt>
      <trkpt lat="43.0718" lon="5.9274">
        <ele>5.3</ele>
        <time>2025-05-25T11:55:42.000Z</time>
      </trkpt>
      <trkpt lat="43.0718" lon="5.9274">
        <ele>5.3</ele>
        <time>2025-05-25T11:55:43.000Z</time>
      </trkpt>
      <trkpt lat="43.0718" lon="5.9274">
        <ele>5.3</ele>
        <time>2025-05-25T11:55:44.000Z</time>
      </trkpt>
      <trkpt lat="43.0718" lon="5.9274">
        <ele>5.3</ele>
        <time>2025-05-25T11:55:45.000Z</time>
      </trkpt>
      <trkpt lat="43.0718" lon="5.9274">
        <ele>5.3</ele>
        <time>2025-05-25T11:55:46.000Z</time>
      </trkpt>
      <trkpt lat="43.0718" lon="5.9274">
        <ele>5.3</ele>
        <time>2025-05-25T11:55:47.000Z</time>
      </trkpt>
      <trkpt lat="43.0718" lon="5.9274">
        <ele>5.3</ele>
        <time>2025-05-25T11:55:48.000Z</time>
      </trkpt>
      <trkpt lat="43.0718" lon="5.9274">
        <ele>5.3</ele>
        <time>2025-05-25T11:55:49.000Z</time>
      </trkpt>
      <trkpt lat="43.0718" lon="5.9274">
        <ele>5.3</ele>
        <time>2025-05-25T11:55:50.000Z</time>
      </trkpt>
      <trkpt lat="43.07179" lon="5.9274">
        <ele>5.3</ele>
        <time>2025-05-25T11:55:51.000Z</time>
      </trkpt>
      <trkpt lat="43.07178" lon="5.92741">
        <ele>5.3</ele>
        <time>2025-05-25T11:55:52.000Z</time>
      </trkpt>
      <trkpt lat="43.07177" lon="5.92742">
        <ele>5.3</ele>
        <time>2025-05-25T11:55:53.000Z</time>
      </trkpt>
      <trkpt lat="43.07176" lon="5.92742">
        <ele>5.3</ele>
        <time>2025-05-25T11:55:54.000Z</time>
      </trkpt>
      <trkpt lat="43.07173" lon="5.92745">
        <ele>5.3</ele>
        <time>2025-05-25T11:56:01.000Z</time>
      </trkpt>
      <trkpt lat="43.07173" lon="5.92746">
        <ele>5.3</ele>
        <time>2025-05-25T11:56:02.000Z</time>
      </trkpt>
      <trkpt lat="43.07174" lon="5.92747">
        <ele>5.3</ele>
        <time>2025-05-25T11:56:05.000Z</time>
      </trkpt>
      <trkpt lat="43.07174" lon="5.92747">
        <ele>5.3</ele>
        <time>2025-05-25T11:56:06.000Z</time>
      </trkpt>
      <trkpt lat="43.07173" lon="5.92747">
        <ele>5.3</ele>
        <time>2025-05-25T11:56:07.000Z</time>
      </trkpt>
      <trkpt lat="43.07173" lon="5.92747">
        <ele>5.3</ele>
        <time>2025-05-25T11:56:08.000Z</time>
      </trkpt>
      <trkpt lat="43.07173" lon="5.92747">
        <ele>5.3</ele>
        <time>2025-05-25T11:56:09.000Z</time>
      </trkpt>
      <trkpt lat="43.07173" lon="5.92746">
        <ele>5.3</ele>
        <time>2025-05-25T11:56:15.000Z</time>
      </trkpt>
      <trkpt lat="43.07173" lon="5.92746">
        <ele>5.3</ele>
        <time>2025-05-25T11:56:16.000Z</time>
      </trkpt>
      <trkpt lat="43.07173" lon="5.92745">
        <ele>5.3</ele>
        <time>2025-05-25T11:56:17.000Z</time>
      </trkpt>
      <trkpt lat="43.07175" lon="5.92732">
        <ele>5.5</ele>
        <time>2025-05-25T11:56:32.000Z</time>
      </trkpt>
      <trkpt lat="43.07177" lon="5.9272">
        <ele>6</ele>
        <time>2025-05-25T11:56:46.000Z</time>
      </trkpt>
      <trkpt lat="43.07174" lon="5.92707">
        <ele>6.2</ele>
        <time>2025-05-25T11:57:05.000Z</time>
      </trkpt>
      <trkpt lat="43.07173" lon="5.92699">
        <ele>6</ele>
        <time>2025-05-25T11:57:17.000Z</time>
      </trkpt>
      <trkpt lat="43.07173" lon="5.927">
        <ele>6</ele>
        <time>2025-05-25T11:57:18.000Z</time>
      </trkpt>
      <trkpt lat="43.07173" lon="5.927">
        <ele>6</ele>
        <time>2025-05-25T11:57:19.000Z</time>
      </trkpt>
      <trkpt lat="43.07173" lon="5.927">
        <ele>6</ele>
        <time>2025-05-25T11:57:20.000Z</time>
      </trkpt>
      <trkpt lat="43.07173" lon="5.927">
        <ele>6</ele>
        <time>2025-05-25T11:57:21.000Z</time>
      </trkpt>
      <trkpt lat="43.07173" lon="5.927">
        <ele>6</ele>
        <time>2025-05-25T11:57:22.000Z</time>
      </trkpt>
      <trkpt lat="43.07173" lon="5.927">
        <ele>6</ele>
        <time>2025-05-25T11:57:23.000Z</time>
      </trkpt>
      <trkpt lat="43.07173" lon="5.927">
        <ele>6</ele>
        <time>2025-05-25T11:57:24.000Z</time>
      </trkpt>
      <trkpt lat="43.07173" lon="5.927">
        <ele>6</ele>
        <time>2025-05-25T11:57:25.000Z</time>
      </trkpt>
      <trkpt lat="43.07173" lon="5.92699">
        <ele>5.9</ele>
        <time>2025-05-25T11:57:28.000Z</time>
      </trkpt>
      <trkpt lat="43.07173" lon="5.92699">
        <ele>5.9</ele>
        <time>2025-05-25T11:57:29.000Z</time>
      </trkpt>
      <trkpt lat="43.07173" lon="5.92699">
        <ele>5.9</ele>
        <time>2025-05-25T11:57:30.000Z</time>
      </trkpt>
      <trkpt lat="43.07173" lon="5.92699">
        <ele>5.9</ele>
        <time>2025-05-25T11:57:31.000Z</time>
      </trkpt>
      <trkpt lat="43.07172" lon="5.92699">
        <ele>5.8</ele>
        <time>2025-05-25T11:57:40.000Z</time>
      </trkpt>
      <trkpt lat="43.07172" lon="5.92699">
        <ele>5.8</ele>
        <time>2025-05-25T11:57:41.000Z</time>
      </trkpt>
      <trkpt lat="43.07171" lon="5.927">
        <ele>5.8</ele>
        <time>2025-05-25T11:57:42.000Z</time>
      </trkpt>
      <trkpt lat="43.07172" lon="5.927">
        <ele>5.8</ele>
        <time>2025-05-25T11:57:45.000Z</time>
      </trkpt>
      <trkpt lat="43.07172" lon="5.927">
        <ele>5.8</ele>
        <time>2025-05-25T11:57:46.000Z</time>
      </trkpt>
      <trkpt lat="43.07171" lon="5.927">
        <ele>5.8</ele>
        <time>2025-05-25T11:57:50.000Z</time>
      </trkpt>
      <trkpt lat="43.07171" lon="5.927">
        <ele>5.8</ele>
        <time>2025-05-25T11:57:51.000Z</time>
      </trkpt>
      <trkpt lat="43.07171" lon="5.92699">
        <ele>5.8</ele>
        <time>2025-05-25T11:57:55.000Z</time>
      </trkpt>
      <trkpt lat="43.07171" lon="5.92699">
        <ele>5.8</ele>
        <time>2025-05-25T11:57:56.000Z</time>
      </trkpt>
      <trkpt lat="43.0717" lon="5.92699">
        <ele>5.8</ele>
        <time>2025-05-25T11:58:02.000Z</time>
      </trkpt>
      <trkpt lat="43.07169" lon="5.927">
        <ele>5.8</ele>
        <time>2025-05-25T11:58:03.000Z</time>
      </trkpt>
      <trkpt lat="43.07169" lon="5.92701">
        <ele>5.8</ele>
        <time>2025-05-25T11:58:04.000Z</time>
      </trkpt>
      <trkpt lat="43.07161" lon="5.92709">
        <ele>5.8</ele>
        <time>2025-05-25T11:58:13.000Z</time>
      </trkpt>
      <trkpt lat="43.07152" lon="5.92708">
        <ele>6.1</ele>
        <time>2025-05-25T11:58:29.000Z</time>
      </trkpt>
      <trkpt lat="43.07147" lon="5.92719">
        <ele>7.6</ele>
        <time>2025-05-25T11:58:47.000Z</time>
      </trkpt>
      <trkpt lat="43.07148" lon="5.9272">
        <ele>7.7</ele>
        <time>2025-05-25T11:58:52.000Z</time>
      </trkpt>
      <trkpt lat="43.07148" lon="5.9272">
        <ele>7.7</ele>
        <time>2025-05-25T11:58:53.000Z</time>
      </trkpt>
      <trkpt lat="43.07148" lon="5.9272">
        <ele>7.7</ele>
        <time>2025-05-25T11:58:54.000Z</time>
      </trkpt>
      <trkpt lat="43.07148" lon="5.9272">
        <ele>7.8</ele>
        <time>2025-05-25T11:58:55.000Z</time>
      </trkpt>
      <trkpt lat="43.07148" lon="5.9272">
        <ele>7.8</ele>
        <time>2025-05-25T11:58:56.000Z</time>
      </trkpt>
      <trkpt lat="43.07148" lon="5.9272">
        <ele>7.8</ele>
        <time>2025-05-25T11:58:57.000Z</time>
      </trkpt>
      <trkpt lat="43.07148" lon="5.9272">
        <ele>7.9</ele>
        <time>2025-05-25T11:59:01.000Z</time>
      </trkpt>
      <trkpt lat="43.07148" lon="5.9272">
        <ele>7.8</ele>
        <time>2025-05-25T11:59:02.000Z</time>
      </trkpt>
      <trkpt lat="43.07148" lon="5.9272">
        <ele>7.9</ele>
        <time>2025-05-25T11:59:06.000Z</time>
      </trkpt>
      <trkpt lat="43.07149" lon="5.9272">
        <ele>7.9</ele>
        <time>2025-05-25T11:59:07.000Z</time>
      </trkpt>
      <trkpt lat="43.07149" lon="5.9272">
        <ele>8</ele>
        <time>2025-05-25T11:59:13.000Z</time>
      </trkpt>
      <trkpt lat="43.07149" lon="5.9272">
        <ele>8</ele>
        <time>2025-05-25T11:59:14.000Z</time>
      </trkpt>
      <trkpt lat="43.07149" lon="5.92719">
        <ele>8</ele>
        <time>2025-05-25T11:59:23.000Z</time>
      </trkpt>
      <trkpt lat="43.07149" lon="5.92719">
        <ele>8</ele>
        <time>2025-05-25T11:59:24.000Z</time>
      </trkpt>
      <trkpt lat="43.07148" lon="5.92719">
        <ele>8</ele>
        <time>2025-05-25T11:59:25.000Z</time>
      </trkpt>
      <trkpt lat="43.07139" lon="5.92717">
        <ele>7.7</ele>
        <time>2025-05-25T11:59:37.000Z</time>
      </trkpt>
      <trkpt lat="43.07133" lon="5.92712">
        <ele>6</ele>
        <time>2025-05-25T12:00:07.000Z</time>
      </trkpt>
      <trkpt lat="43.07133" lon="5.92712">
        <ele>6</ele>
        <time>2025-05-25T12:00:08.000Z</time>
      </trkpt>
      <trkpt lat="43.07132" lon="5.92712">
        <ele>5.9</ele>
        <time>2025-05-25T12:00:09.000Z</time>
      </trkpt>
      <trkpt lat="43.07132" lon="5.92712">
        <ele>5.8</ele>
        <time>2025-05-25T12:00:26.000Z</time>
      </trkpt>
      <trkpt lat="43.07132" lon="5.92712">
        <ele>5.7</ele>
        <time>2025-05-25T12:00:27.000Z</time>
      </trkpt>
      <trkpt lat="43.07132" lon="5.92712">
        <ele>5.7</ele>
        <time>2025-05-25T12:00:28.000Z</time>
      </trkpt>
      <trkpt lat="43.07132" lon="5.92712">
        <ele>5.7</ele>
        <time>2025-05-25T12:00:29.000Z</time>
      </trkpt>
      <trkpt lat="43.07132" lon="5.92712">
        <ele>5.7</ele>
        <time>2025-05-25T12:00:30.000Z</time>
      </trkpt>
      <trkpt lat="43.07132" lon="5.92712">
        <ele>5.7</ele>
        <time>2025-05-25T12:00:31.000Z</time>
      </trkpt>
      <trkpt lat="43.07132" lon="5.92712">
        <ele>5.7</ele>
        <time>2025-05-25T12:00:35.000Z</time>
      </trkpt>
      <trkpt lat="43.07132" lon="5.92712">
        <ele>5.7</ele>
        <time>2025-05-25T12:00:36.000Z</time>
      </trkpt>
      <trkpt lat="43.07132" lon="5.92712">
        <ele>5.7</ele>
        <time>2025-05-25T12:00:37.000Z</time>
      </trkpt>
      <trkpt lat="43.07132" lon="5.92713">
        <ele>5.7</ele>
        <time>2025-05-25T12:00:45.000Z</time>
      </trkpt>
      <trkpt lat="43.07132" lon="5.92714">
        <ele>5.7</ele>
        <time>2025-05-25T12:00:46.000Z</time>
      </trkpt>
      <trkpt lat="43.07132" lon="5.92714">
        <ele>5.7</ele>
        <time>2025-05-25T12:00:47.000Z</time>
      </trkpt>
      <trkpt lat="43.07132" lon="5.92714">
        <ele>5.7</ele>
        <time>2025-05-25T12:00:50.000Z</time>
      </trkpt>
      <trkpt lat="43.07132" lon="5.92714">
        <ele>5.7</ele>
        <time>2025-05-25T12:00:51.000Z</time>
      </trkpt>
      <trkpt lat="43.07132" lon="5.92714">
        <ele>5.7</ele>
        <time>2025-05-25T12:00:52.000Z</time>
      </trkpt>
      <trkpt lat="43.07131" lon="5.92715">
        <ele>5.7</ele>
        <time>2025-05-25T12:00:55.000Z</time>
      </trkpt>
      <trkpt lat="43.07131" lon="5.92715">
        <ele>5.7</ele>
        <time>2025-05-25T12:00:56.000Z</time>
      </trkpt>
      <trkpt lat="43.07131" lon="5.92715">
        <ele>5.7</ele>
        <time>2025-05-25T12:00:57.000Z</time>
      </trkpt>
      <trkpt lat="43.07131" lon="5.92715">
        <ele>5.7</ele>
        <time>2025-05-25T12:00:58.000Z</time>
      </trkpt>
      <trkpt lat="43.07131" lon="5.92715">
        <ele>5.7</ele>
        <time>2025-05-25T12:00:59.000Z</time>
      </trkpt>
      <trkpt lat="43.07132" lon="5.92716">
        <ele>5.6</ele>
        <time>2025-05-25T12:01:28.000Z</time>
      </trkpt>
      <trkpt lat="43.07133" lon="5.92716">
        <ele>5.6</ele>
        <time>2025-05-25T12:01:29.000Z</time>
      </trkpt>
      <trkpt lat="43.07134" lon="5.92716">
        <ele>5.6</ele>
        <time>2025-05-25T12:01:35.000Z</time>
      </trkpt>
      <trkpt lat="43.07134" lon="5.92716">
        <ele>5.6</ele>
        <time>2025-05-25T12:01:36.000Z</time>
      </trkpt>
      <trkpt lat="43.07134" lon="5.92716">
        <ele>5.6</ele>
        <time>2025-05-25T12:01:37.000Z</time>
      </trkpt>
      <trkpt lat="43.07134" lon="5.92716">
        <ele>5.6</ele>
        <time>2025-05-25T12:02:00.000Z</time>
      </trkpt>
      <trkpt lat="43.07133" lon="5.92716">
        <ele>5.6</ele>
        <time>2025-05-25T12:02:01.000Z</time>
      </trkpt>
      <trkpt lat="43.07132" lon="5.92716">
        <ele>5.6</ele>
        <time>2025-05-25T12:02:07.000Z</time>
      </trkpt>
      <trkpt lat="43.07132" lon="5.92716">
        <ele>5.6</ele>
        <time>2025-05-25T12:02:08.000Z</time>
      </trkpt>
      <trkpt lat="43.07132" lon="5.92716">
        <ele>5.6</ele>
        <time>2025-05-25T12:02:09.000Z</time>
      </trkpt>
      <trkpt lat="43.07132" lon="5.92716">
        <ele>5.6</ele>
        <time>2025-05-25T12:02:12.000Z</time>
      </trkpt>
      <trkpt lat="43.07132" lon="5.92716">
        <ele>5.6</ele>
        <time>2025-05-25T12:02:13.000Z</time>
      </trkpt>
      <trkpt lat="43.07132" lon="5.92715">
        <ele>5.6</ele>
        <time>2025-05-25T12:02:14.000Z</time>
      </trkpt>
      <trkpt lat="43.07134" lon="5.92711">
        <ele>5.6</ele>
        <time>2025-05-25T12:02:28.000Z</time>
      </trkpt>
      <trkpt lat="43.07134" lon="5.92711">
        <ele>5.6</ele>
        <time>2025-05-25T12:02:29.000Z</time>
      </trkpt>
      <trkpt lat="43.07134" lon="5.92711">
        <ele>5.6</ele>
        <time>2025-05-25T12:02:35.000Z</time>
      </trkpt>
      <trkpt lat="43.07134" lon="5.92711">
        <ele>5.6</ele>
        <time>2025-05-25T12:02:36.000Z</time>
      </trkpt>
      <trkpt lat="43.07134" lon="5.92711">
        <ele>5.6</ele>
        <time>2025-05-25T12:02:37.000Z</time>
      </trkpt>
      <trkpt lat="43.07134" lon="5.92711">
        <ele>5.6</ele>
        <time>2025-05-25T12:02:40.000Z</time>
      </trkpt>
      <trkpt lat="43.07134" lon="5.92711">
        <ele>5.6</ele>
        <time>2025-05-25T12:02:41.000Z</time>
      </trkpt>
      <trkpt lat="43.07134" lon="5.92711">
        <ele>5.6</ele>
        <time>2025-05-25T12:02:42.000Z</time>
      </trkpt>
      <trkpt lat="43.07133" lon="5.9271">
        <ele>5.6</ele>
        <time>2025-05-25T12:02:47.000Z</time>
      </trkpt>
      <trkpt lat="43.07133" lon="5.9271">
        <ele>5.6</ele>
        <time>2025-05-25T12:02:48.000Z</time>
      </trkpt>
      <trkpt lat="43.07133" lon="5.92709">
        <ele>5.6</ele>
        <time>2025-05-25T12:02:49.000Z</time>
      </trkpt>
      <trkpt lat="43.07136" lon="5.92697">
        <ele>6</ele>
        <time>2025-05-25T12:03:05.000Z</time>
      </trkpt>
      <trkpt lat="43.07136" lon="5.92696">
        <ele>6.4</ele>
        <time>2025-05-25T12:03:10.000Z</time>
      </trkpt>
      <trkpt lat="43.07136" lon="5.92696">
        <ele>6.4</ele>
        <time>2025-05-25T12:03:11.000Z</time>
      </trkpt>
      <trkpt lat="43.07136" lon="5.92696">
        <ele>6.8</ele>
        <time>2025-05-25T12:03:17.000Z</time>
      </trkpt>
      <trkpt lat="43.07136" lon="5.92695">
        <ele>6.9</ele>
        <time>2025-05-25T12:03:18.000Z</time>
      </trkpt>
      <trkpt lat="43.07136" lon="5.92694">
        <ele>6.9</ele>
        <time>2025-05-25T12:03:19.000Z</time>
      </trkpt>
      <trkpt lat="43.07135" lon="5.92682">
        <ele>8.7</ele>
        <time>2025-05-25T12:03:40.000Z</time>
      </trkpt>
      <trkpt lat="43.07135" lon="5.92681">
        <ele>9.3</ele>
        <time>2025-05-25T12:03:45.000Z</time>
      </trkpt>
      <trkpt lat="43.07135" lon="5.92681">
        <ele>9.3</ele>
        <time>2025-05-25T12:03:46.000Z</time>
      </trkpt>
      <trkpt lat="43.07135" lon="5.92681">
        <ele>9.3</ele>
        <time>2025-05-25T12:03:47.000Z</time>
      </trkpt>
      <trkpt lat="43.07133" lon="5.92679">
        <ele>9.4</ele>
        <time>2025-05-25T12:03:50.000Z</time>
      </trkpt>
      <trkpt lat="43.07133" lon="5.92679">
        <ele>9.5</ele>
        <time>2025-05-25T12:03:51.000Z</time>
      </trkpt>
      <trkpt lat="43.07124" lon="5.92674">
        <ele>10.1</ele>
        <time>2025-05-25T12:04:10.000Z</time>
      </trkpt>
      <trkpt lat="43.07115" lon="5.92678">
        <ele>10.9</ele>
        <time>2025-05-25T12:04:21.000Z</time>
      </trkpt>
      <trkpt lat="43.07107" lon="5.92672">
        <ele>11.9</ele>
        <time>2025-05-25T12:04:53.000Z</time>
      </trkpt>
      <trkpt lat="43.07101" lon="5.92663">
        <ele>15.4</ele>
        <time>2025-05-25T12:05:20.000Z</time>
      </trkpt>
      <trkpt lat="43.07092" lon="5.92659">
        <ele>18.7</ele>
        <time>2025-05-25T12:05:49.000Z</time>
      </trkpt>
      <trkpt lat="43.07085" lon="5.92651">
        <ele>21.7</ele>
        <time>2025-05-25T12:06:19.000Z</time>
      </trkpt>
      <trkpt lat="43.0708" lon="5.9264">
        <ele>23.7</ele>
        <time>2025-05-25T12:06:37.000Z</time>
      </trkpt>
      <trkpt lat="43.0708" lon="5.92635">
        <ele>25.2</ele>
        <time>2025-05-25T12:06:55.000Z</time>
      </trkpt>
      <trkpt lat="43.0708" lon="5.92635">
        <ele>25.2</ele>
        <time>2025-05-25T12:06:56.000Z</time>
      </trkpt>
      <trkpt lat="43.0708" lon="5.92635">
        <ele>25.2</ele>
        <time>2025-05-25T12:07:00.000Z</time>
      </trkpt>
      <trkpt lat="43.0708" lon="5.92634">
        <ele>25.3</ele>
        <time>2025-05-25T12:07:01.000Z</time>
      </trkpt>
      <trkpt lat="43.07077" lon="5.92622">
        <ele>27.5</ele>
        <time>2025-05-25T12:07:25.000Z</time>
      </trkpt>
      <trkpt lat="43.07075" lon="5.92615">
        <ele>29.4</ele>
        <time>2025-05-25T12:07:53.000Z</time>
      </trkpt>
      <trkpt lat="43.07075" lon="5.92615">
        <ele>29.5</ele>
        <time>2025-05-25T12:07:54.000Z</time>
      </trkpt>
      <trkpt lat="43.07075" lon="5.92615">
        <ele>29.5</ele>
        <time>2025-05-25T12:07:55.000Z</time>
      </trkpt>
      <trkpt lat="43.07075" lon="5.92615">
        <ele>29.6</ele>
        <time>2025-05-25T12:07:58.000Z</time>
      </trkpt>
      <trkpt lat="43.07075" lon="5.92614">
        <ele>29.7</ele>
        <time>2025-05-25T12:07:59.000Z</time>
      </trkpt>
      <trkpt lat="43.07075" lon="5.92614">
        <ele>29.7</ele>
        <time>2025-05-25T12:08:00.000Z</time>
      </trkpt>
      <trkpt lat="43.07073" lon="5.92602">
        <ele>31.9</ele>
        <time>2025-05-25T12:08:28.000Z</time>
      </trkpt>
      <trkpt lat="43.07065" lon="5.92597">
        <ele>35.5</ele>
        <time>2025-05-25T12:09:00.000Z</time>
      </trkpt>
      <trkpt lat="43.07064" lon="5.92597">
        <ele>35.9</ele>
        <time>2025-05-25T12:09:05.000Z</time>
      </trkpt>
      <trkpt lat="43.07064" lon="5.92597">
        <ele>36</ele>
        <time>2025-05-25T12:09:06.000Z</time>
      </trkpt>
      <trkpt lat="43.07064" lon="5.92597">
        <ele>36.2</ele>
        <time>2025-05-25T12:09:07.000Z</time>
      </trkpt>
      <trkpt lat="43.07064" lon="5.92597">
        <ele>36.3</ele>
        <time>2025-05-25T12:09:08.000Z</time>
      </trkpt>
      <trkpt lat="43.07064" lon="5.92597">
        <ele>36.3</ele>
        <time>2025-05-25T12:09:09.000Z</time>
      </trkpt>
      <trkpt lat="43.07063" lon="5.92596">
        <ele>36.3</ele>
        <time>2025-05-25T12:09:13.000Z</time>
      </trkpt>
      <trkpt lat="43.07063" lon="5.92596">
        <ele>36.4</ele>
        <time>2025-05-25T12:09:14.000Z</time>
      </trkpt>
      <trkpt lat="43.07063" lon="5.92596">
        <ele>36.6</ele>
        <time>2025-05-25T12:09:20.000Z</time>
      </trkpt>
      <trkpt lat="43.07063" lon="5.92596">
        <ele>36.7</ele>
        <time>2025-05-25T12:09:21.000Z</time>
      </trkpt>
      <trkpt lat="43.07063" lon="5.92592">
        <ele>37</ele>
        <time>2025-05-25T12:09:30.000Z</time>
      </trkpt>
      <trkpt lat="43.07063" lon="5.92593">
        <ele>37</ele>
        <time>2025-05-25T12:09:31.000Z</time>
      </trkpt>
      <trkpt lat="43.07061" lon="5.92592">
        <ele>37</ele>
        <time>2025-05-25T12:09:35.000Z</time>
      </trkpt>
      <trkpt lat="43.07061" lon="5.92591">
        <ele>37.1</ele>
        <time>2025-05-25T12:09:36.000Z</time>
      </trkpt>
      <trkpt lat="43.07061" lon="5.92591">
        <ele>37.1</ele>
        <time>2025-05-25T12:09:37.000Z</time>
      </trkpt>
      <trkpt lat="43.07054" lon="5.92583">
        <ele>39.3</ele>
        <time>2025-05-25T12:09:58.000Z</time>
      </trkpt>
      <trkpt lat="43.07055" lon="5.9257">
        <ele>42.2</ele>
        <time>2025-05-25T12:10:26.000Z</time>
      </trkpt>
      <trkpt lat="43.07056" lon="5.92564">
        <ele>42.7</ele>
        <time>2025-05-25T12:10:36.000Z</time>
      </trkpt>
      <trkpt lat="43.07056" lon="5.92564">
        <ele>42.7</ele>
        <time>2025-05-25T12:10:37.000Z</time>
      </trkpt>
      <trkpt lat="43.07056" lon="5.92564">
        <ele>42.8</ele>
        <time>2025-05-25T12:10:38.000Z</time>
      </trkpt>
      <trkpt lat="43.07056" lon="5.92564">
        <ele>42.8</ele>
        <time>2025-05-25T12:10:39.000Z</time>
      </trkpt>
      <trkpt lat="43.07056" lon="5.92551">
        <ele>43.9</ele>
        <time>2025-05-25T12:10:56.000Z</time>
      </trkpt>
      <trkpt lat="43.07059" lon="5.9254">
        <ele>45.5</ele>
        <time>2025-05-25T12:11:19.000Z</time>
      </trkpt>
      <trkpt lat="43.07061" lon="5.92528">
        <ele>47</ele>
        <time>2025-05-25T12:11:42.000Z</time>
      </trkpt>
      <trkpt lat="43.07061" lon="5.92528">
        <ele>47.1</ele>
        <time>2025-05-25T12:11:45.000Z</time>
      </trkpt>
      <trkpt lat="43.07061" lon="5.92528">
        <ele>47.1</ele>
        <time>2025-05-25T12:11:46.000Z</time>
      </trkpt>
      <trkpt lat="43.07061" lon="5.92528">
        <ele>47.1</ele>
        <time>2025-05-25T12:11:47.000Z</time>
      </trkpt>
      <trkpt lat="43.07062" lon="5.92527">
        <ele>47.1</ele>
        <time>2025-05-25T12:11:57.000Z</time>
      </trkpt>
      <trkpt lat="43.07062" lon="5.92527">
        <ele>46.9</ele>
        <time>2025-05-25T12:11:58.000Z</time>
      </trkpt>
      <trkpt lat="43.07062" lon="5.92527">
        <ele>46.8</ele>
        <time>2025-05-25T12:11:59.000Z</time>
      </trkpt>
      <trkpt lat="43.07062" lon="5.92514">
        <ele>49</ele>
        <time>2025-05-25T12:12:19.000Z</time>
      </trkpt>
      <trkpt lat="43.0706" lon="5.92505">
        <ele>52.4</ele>
        <time>2025-05-25T12:12:42.000Z</time>
      </trkpt>
      <trkpt lat="43.0706" lon="5.92505">
        <ele>52.5</ele>
        <time>2025-05-25T12:12:43.000Z</time>
      </trkpt>
      <trkpt lat="43.0706" lon="5.92505">
        <ele>52.6</ele>
        <time>2025-05-25T12:12:44.000Z</time>
      </trkpt>
      <trkpt lat="43.0706" lon="5.92506">
        <ele>52.9</ele>
        <time>2025-05-25T12:13:05.000Z</time>
      </trkpt>
      <trkpt lat="43.0706" lon="5.92506">
        <ele>53</ele>
        <time>2025-05-25T12:13:06.000Z</time>
      </trkpt>
      <trkpt lat="43.07062" lon="5.92494">
        <ele>53.7</ele>
        <time>2025-05-25T12:13:18.000Z</time>
      </trkpt>
      <trkpt lat="43.0706" lon="5.92481">
        <ele>57.9</ele>
        <time>2025-05-25T12:13:55.000Z</time>
      </trkpt>
      <trkpt lat="43.07055" lon="5.92474">
        <ele>60.5</ele>
        <time>2025-05-25T12:14:21.000Z</time>
      </trkpt>
      <trkpt lat="43.07055" lon="5.92474">
        <ele>60.5</ele>
        <time>2025-05-25T12:14:22.000Z</time>
      </trkpt>
      <trkpt lat="43.07054" lon="5.92474">
        <ele>60.6</ele>
        <time>2025-05-25T12:14:26.000Z</time>
      </trkpt>
      <trkpt lat="43.07054" lon="5.92473">
        <ele>60.5</ele>
        <time>2025-05-25T12:14:27.000Z</time>
      </trkpt>
      <trkpt lat="43.07051" lon="5.92461">
        <ele>63.2</ele>
        <time>2025-05-25T12:14:51.000Z</time>
      </trkpt>
      <trkpt lat="43.07048" lon="5.9245">
        <ele>64.9</ele>
        <time>2025-05-25T12:15:16.000Z</time>
      </trkpt>
      <trkpt lat="43.07048" lon="5.92445">
        <ele>65.8</ele>
        <time>2025-05-25T12:15:25.000Z</time>
      </trkpt>
      <trkpt lat="43.07048" lon="5.92446">
        <ele>65.8</ele>
        <time>2025-05-25T12:15:26.000Z</time>
      </trkpt>
      <trkpt lat="43.07047" lon="5.92445">
        <ele>65.8</ele>
        <time>2025-05-25T12:15:27.000Z</time>
      </trkpt>
      <trkpt lat="43.07047" lon="5.92445">
        <ele>65.8</ele>
        <time>2025-05-25T12:15:28.000Z</time>
      </trkpt>
      <trkpt lat="43.07048" lon="5.92444">
        <ele>66</ele>
        <time>2025-05-25T12:15:29.000Z</time>
      </trkpt>
      <trkpt lat="43.0705" lon="5.9244">
        <ele>68.1</ele>
        <time>2025-05-25T12:15:53.000Z</time>
      </trkpt>
      <trkpt lat="43.0705" lon="5.9244">
        <ele>68.1</ele>
        <time>2025-05-25T12:15:54.000Z</time>
      </trkpt>
      <trkpt lat="43.0705" lon="5.9244">
        <ele>68.2</ele>
        <time>2025-05-25T12:15:55.000Z</time>
      </trkpt>
      <trkpt lat="43.0705" lon="5.9244">
        <ele>68.2</ele>
        <time>2025-05-25T12:15:58.000Z</time>
      </trkpt>
      <trkpt lat="43.0705" lon="5.9244">
        <ele>68.2</ele>
        <time>2025-05-25T12:15:59.000Z</time>
      </trkpt>
      <trkpt lat="43.07057" lon="5.9243">
        <ele>68.4</ele>
        <time>2025-05-25T12:16:14.000Z</time>
      </trkpt>
      <trkpt lat="43.07064" lon="5.92422">
        <ele>68.7</ele>
        <time>2025-05-25T12:16:26.000Z</time>
      </trkpt>
      <trkpt lat="43.07071" lon="5.92414">
        <ele>68.7</ele>
        <time>2025-05-25T12:16:38.000Z</time>
      </trkpt>
      <trkpt lat="43.07072" lon="5.92414">
        <ele>68.6</ele>
        <time>2025-05-25T12:16:43.000Z</time>
      </trkpt>
      <trkpt lat="43.07072" lon="5.92413">
        <ele>68.6</ele>
        <time>2025-05-25T12:16:44.000Z</time>
      </trkpt>
      <trkpt lat="43.07073" lon="5.92413">
        <ele>68.6</ele>
        <time>2025-05-25T12:16:45.000Z</time>
      </trkpt>
      <trkpt lat="43.07073" lon="5.92412">
        <ele>68.6</ele>
        <time>2025-05-25T12:16:46.000Z</time>
      </trkpt>
      <trkpt lat="43.07073" lon="5.92412">
        <ele>68.6</ele>
        <time>2025-05-25T12:16:47.000Z</time>
      </trkpt>
      <trkpt lat="43.0708" lon="5.92404">
        <ele>68.3</ele>
        <time>2025-05-25T12:17:00.000Z</time>
      </trkpt>
      <trkpt lat="43.07087" lon="5.92395">
        <ele>67.8</ele>
        <time>2025-05-25T12:17:11.000Z</time>
      </trkpt>
      <trkpt lat="43.07094" lon="5.92386">
        <ele>67.5</ele>
        <time>2025-05-25T12:17:21.000Z</time>
      </trkpt>
      <trkpt lat="43.07101" lon="5.92379">
        <ele>67.2</ele>
        <time>2025-05-25T12:17:31.000Z</time>
      </trkpt>
      <trkpt lat="43.07109" lon="5.92372">
        <ele>67.1</ele>
        <time>2025-05-25T12:17:45.000Z</time>
      </trkpt>
      <trkpt lat="43.07116" lon="5.92363">
        <ele>67.2</ele>
        <time>2025-05-25T12:17:56.000Z</time>
      </trkpt>
      <trkpt lat="43.07121" lon="5.92357">
        <ele>67.4</ele>
        <time>2025-05-25T12:18:07.000Z</time>
      </trkpt>
      <trkpt lat="43.07121" lon="5.92357">
        <ele>67.5</ele>
        <time>2025-05-25T12:18:08.000Z</time>
      </trkpt>
      <trkpt lat="43.07121" lon="5.92357">
        <ele>67.5</ele>
        <time>2025-05-25T12:18:09.000Z</time>
      </trkpt>
      <trkpt lat="43.07121" lon="5.92357">
        <ele>67.5</ele>
        <time>2025-05-25T12:18:10.000Z</time>
      </trkpt>
      <trkpt lat="43.07121" lon="5.92357">
        <ele>67.5</ele>
        <time>2025-05-25T12:18:11.000Z</time>
      </trkpt>
      <trkpt lat="43.07121" lon="5.92357">
        <ele>67.5</ele>
        <time>2025-05-25T12:18:12.000Z</time>
      </trkpt>
      <trkpt lat="43.07121" lon="5.92357">
        <ele>67.5</ele>
        <time>2025-05-25T12:18:13.000Z</time>
      </trkpt>
      <trkpt lat="43.07121" lon="5.92357">
        <ele>67.5</ele>
        <time>2025-05-25T12:18:14.000Z</time>
      </trkpt>
      <trkpt lat="43.07121" lon="5.92357">
        <ele>67.6</ele>
        <time>2025-05-25T12:18:15.000Z</time>
      </trkpt>
      <trkpt lat="43.07121" lon="5.92357">
        <ele>67.6</ele>
        <time>2025-05-25T12:18:16.000Z</time>
      </trkpt>
      <trkpt lat="43.07121" lon="5.92357">
        <ele>67.6</ele>
        <time>2025-05-25T12:18:17.000Z</time>
      </trkpt>
      <trkpt lat="43.07121" lon="5.92358">
        <ele>67.6</ele>
        <time>2025-05-25T12:18:18.000Z</time>
      </trkpt>
      <trkpt lat="43.07121" lon="5.92358">
        <ele>67.7</ele>
        <time>2025-05-25T12:18:19.000Z</time>
      </trkpt>
      <trkpt lat="43.07121" lon="5.92358">
        <ele>67.7</ele>
        <time>2025-05-25T12:18:22.000Z</time>
      </trkpt>
      <trkpt lat="43.07121" lon="5.92358">
        <ele>67.6</ele>
        <time>2025-05-25T12:18:23.000Z</time>
      </trkpt>
      <trkpt lat="43.07122" lon="5.92357">
        <ele>67.6</ele>
        <time>2025-05-25T12:18:24.000Z</time>
      </trkpt>
      <trkpt lat="43.07129" lon="5.92349">
        <ele>68.7</ele>
        <time>2025-05-25T12:18:39.000Z</time>
      </trkpt>
      <trkpt lat="43.07136" lon="5.92341">
        <ele>71</ele>
        <time>2025-05-25T12:18:54.000Z</time>
      </trkpt>
      <trkpt lat="43.07144" lon="5.92334">
        <ele>72.8</ele>
        <time>2025-05-25T12:19:10.000Z</time>
      </trkpt>
      <trkpt lat="43.0715" lon="5.92324">
        <ele>75.4</ele>
        <time>2025-05-25T12:19:30.000Z</time>
      </trkpt>
      <trkpt lat="43.07157" lon="5.92314">
        <ele>77.9</ele>
        <time>2025-05-25T12:19:48.000Z</time>
      </trkpt>
      <trkpt lat="43.07164" lon="5.92307">
        <ele>80.4</ele>
        <time>2025-05-25T12:20:10.000Z</time>
      </trkpt>
      <trkpt lat="43.07171" lon="5.92299">
        <ele>82.4</ele>
        <time>2025-05-25T12:20:27.000Z</time>
      </trkpt>
      <trkpt lat="43.07174" lon="5.92296">
        <ele>83.5</ele>
        <time>2025-05-25T12:20:40.000Z</time>
      </trkpt>
      <trkpt lat="43.07174" lon="5.92296">
        <ele>83.5</ele>
        <time>2025-05-25T12:20:41.000Z</time>
      </trkpt>
      <trkpt lat="43.07175" lon="5.92296">
        <ele>83.6</ele>
        <time>2025-05-25T12:20:45.000Z</time>
      </trkpt>
      <trkpt lat="43.07176" lon="5.92295">
        <ele>83.7</ele>
        <time>2025-05-25T12:20:46.000Z</time>
      </trkpt>
      <trkpt lat="43.07176" lon="5.92294">
        <ele>83</ele>
        <time>2025-05-25T12:20:52.000Z</time>
      </trkpt>
      <trkpt lat="43.07176" lon="5.92294">
        <ele>83</ele>
        <time>2025-05-25T12:20:53.000Z</time>
      </trkpt>
      <trkpt lat="43.07176" lon="5.92294">
        <ele>82.8</ele>
        <time>2025-05-25T12:20:54.000Z</time>
      </trkpt>
      <trkpt lat="43.07176" lon="5.92294">
        <ele>85.9</ele>
        <time>2025-05-25T12:21:01.000Z</time>
      </trkpt>
      <trkpt lat="43.07176" lon="5.92294">
        <ele>85.9</ele>
        <time>2025-05-25T12:21:02.000Z</time>
      </trkpt>
      <trkpt lat="43.07176" lon="5.92294">
        <ele>85.3</ele>
        <time>2025-05-25T12:21:05.000Z</time>
      </trkpt>
      <trkpt lat="43.07176" lon="5.92294">
        <ele>85.1</ele>
        <time>2025-05-25T12:21:06.000Z</time>
      </trkpt>
      <trkpt lat="43.07176" lon="5.92293">
        <ele>84.9</ele>
        <time>2025-05-25T12:21:07.000Z</time>
      </trkpt>
      <trkpt lat="43.07176" lon="5.92294">
        <ele>84.8</ele>
        <time>2025-05-25T12:21:08.000Z</time>
      </trkpt>
      <trkpt lat="43.07176" lon="5.92294">
        <ele>84.7</ele>
        <time>2025-05-25T12:21:09.000Z</time>
      </trkpt>
      <trkpt lat="43.07176" lon="5.92294">
        <ele>84.7</ele>
        <time>2025-05-25T12:21:10.000Z</time>
      </trkpt>
      <trkpt lat="43.07176" lon="5.92294">
        <ele>84.6</ele>
        <time>2025-05-25T12:21:11.000Z</time>
      </trkpt>
      <trkpt lat="43.07176" lon="5.92294">
        <ele>84.5</ele>
        <time>2025-05-25T12:21:12.000Z</time>
      </trkpt>
      <trkpt lat="43.07176" lon="5.92293">
        <ele>84.4</ele>
        <time>2025-05-25T12:21:17.000Z</time>
      </trkpt>
      <trkpt lat="43.07176" lon="5.92293">
        <ele>84.3</ele>
        <time>2025-05-25T12:21:18.000Z</time>
      </trkpt>
      <trkpt lat="43.07176" lon="5.92293">
        <ele>84.3</ele>
        <time>2025-05-25T12:21:19.000Z</time>
      </trkpt>
      <trkpt lat="43.07176" lon="5.92293">
        <ele>84.3</ele>
        <time>2025-05-25T12:21:22.000Z</time>
      </trkpt>
      <trkpt lat="43.07176" lon="5.92293">
        <ele>84.3</ele>
        <time>2025-05-25T12:21:23.000Z</time>
      </trkpt>
      <trkpt lat="43.07176" lon="5.92293">
        <ele>84.3</ele>
        <time>2025-05-25T12:21:24.000Z</time>
      </trkpt>
      <trkpt lat="43.07176" lon="5.92293">
        <ele>84.2</ele>
        <time>2025-05-25T12:21:38.000Z</time>
      </trkpt>
      <trkpt lat="43.07177" lon="5.92293">
        <ele>84.2</ele>
        <time>2025-05-25T12:21:39.000Z</time>
      </trkpt>
      <trkpt lat="43.07183" lon="5.92283">
        <ele>84.4</ele>
        <time>2025-05-25T12:21:50.000Z</time>
      </trkpt>
      <trkpt lat="43.0719" lon="5.92274">
        <ele>84.7</ele>
        <time>2025-05-25T12:22:01.000Z</time>
      </trkpt>
      <trkpt lat="43.07196" lon="5.92265">
        <ele>85</ele>
        <time>2025-05-25T12:22:11.000Z</time>
      </trkpt>
      <trkpt lat="43.07202" lon="5.92255">
        <ele>84.8</ele>
        <time>2025-05-25T12:22:26.000Z</time>
      </trkpt>
      <trkpt lat="43.07209" lon="5.92246">
        <ele>84.3</ele>
        <time>2025-05-25T12:22:37.000Z</time>
      </trkpt>
      <trkpt lat="43.07216" lon="5.92237">
        <ele>83.9</ele>
        <time>2025-05-25T12:22:47.000Z</time>
      </trkpt>
      <trkpt lat="43.07221" lon="5.92226">
        <ele>83.5</ele>
        <time>2025-05-25T12:22:57.000Z</time>
      </trkpt>
      <trkpt lat="43.07228" lon="5.92217">
        <ele>83.3</ele>
        <time>2025-05-25T12:23:06.000Z</time>
      </trkpt>
      <trkpt lat="43.07234" lon="5.92207">
        <ele>83</ele>
        <time>2025-05-25T12:23:15.000Z</time>
      </trkpt>
      <trkpt lat="43.0724" lon="5.92197">
        <ele>82.8</ele>
        <time>2025-05-25T12:23:24.000Z</time>
      </trkpt>
      <trkpt lat="43.07247" lon="5.92189">
        <ele>82.7</ele>
        <time>2025-05-25T12:23:33.000Z</time>
      </trkpt>
      <trkpt lat="43.07254" lon="5.9218">
        <ele>82.8</ele>
        <time>2025-05-25T12:23:46.000Z</time>
      </trkpt>
      <trkpt lat="43.0725" lon="5.92168">
        <ele>83.8</ele>
        <time>2025-05-25T12:24:05.000Z</time>
      </trkpt>
      <trkpt lat="43.07247" lon="5.92156">
        <ele>84</ele>
        <time>2025-05-25T12:24:18.000Z</time>
      </trkpt>
      <trkpt lat="43.0725" lon="5.92143">
        <ele>84.2</ele>
        <time>2025-05-25T12:24:30.000Z</time>
      </trkpt>
      <trkpt lat="43.07254" lon="5.92132">
        <ele>84.3</ele>
        <time>2025-05-25T12:24:39.000Z</time>
      </trkpt>
      <trkpt lat="43.07259" lon="5.92124">
        <ele>84.5</ele>
        <time>2025-05-25T12:24:50.000Z</time>
      </trkpt>
      <trkpt lat="43.07259" lon="5.92124">
        <ele>84.5</ele>
        <time>2025-05-25T12:24:51.000Z</time>
      </trkpt>
      <trkpt lat="43.0726" lon="5.92123">
        <ele>84.6</ele>
        <time>2025-05-25T12:24:55.000Z</time>
      </trkpt>
      <trkpt lat="43.0726" lon="5.92122">
        <ele>84.6</ele>
        <time>2025-05-25T12:24:56.000Z</time>
      </trkpt>
      <trkpt lat="43.0726" lon="5.92122">
        <ele>84.6</ele>
        <time>2025-05-25T12:24:57.000Z</time>
      </trkpt>
      <trkpt lat="43.0726" lon="5.92122">
        <ele>84.7</ele>
        <time>2025-05-25T12:25:01.000Z</time>
      </trkpt>
      <trkpt lat="43.0726" lon="5.92122">
        <ele>84.7</ele>
        <time>2025-05-25T12:25:02.000Z</time>
      </trkpt>
      <trkpt lat="43.07261" lon="5.92121">
        <ele>84.7</ele>
        <time>2025-05-25T12:25:05.000Z</time>
      </trkpt>
      <trkpt lat="43.07261" lon="5.92121">
        <ele>84.7</ele>
        <time>2025-05-25T12:25:06.000Z</time>
      </trkpt>
      <trkpt lat="43.0727" lon="5.92116">
        <ele>85.6</ele>
        <time>2025-05-25T12:25:20.000Z</time>
      </trkpt>
      <trkpt lat="43.07277" lon="5.92108">
        <ele>87.4</ele>
        <time>2025-05-25T12:25:32.000Z</time>
      </trkpt>
      <trkpt lat="43.07285" lon="5.92101">
        <ele>88.6</ele>
        <time>2025-05-25T12:25:43.000Z</time>
      </trkpt>
      <trkpt lat="43.07294" lon="5.92096">
        <ele>88.8</ele>
        <time>2025-05-25T12:25:53.000Z</time>
      </trkpt>
      <trkpt lat="43.07301" lon="5.92089">
        <ele>89.2</ele>
        <time>2025-05-25T12:26:03.000Z</time>
      </trkpt>
      <trkpt lat="43.0731" lon="5.92084">
        <ele>89.7</ele>
        <time>2025-05-25T12:26:16.000Z</time>
      </trkpt>
      <trkpt lat="43.07319" lon="5.92083">
        <ele>89.8</ele>
        <time>2025-05-25T12:26:24.000Z</time>
      </trkpt>
      <trkpt lat="43.07327" lon="5.92076">
        <ele>89.8</ele>
        <time>2025-05-25T12:26:34.000Z</time>
      </trkpt>
      <trkpt lat="43.07336" lon="5.92073">
        <ele>90.3</ele>
        <time>2025-05-25T12:26:47.000Z</time>
      </trkpt>
      <trkpt lat="43.07345" lon="5.92073">
        <ele>91.7</ele>
        <time>2025-05-25T12:27:00.000Z</time>
      </trkpt>
      <trkpt lat="43.07349" lon="5.92077">
        <ele>92.4</ele>
        <time>2025-05-25T12:27:13.000Z</time>
      </trkpt>
      <trkpt lat="43.07349" lon="5.92077">
        <ele>92.4</ele>
        <time>2025-05-25T12:27:14.000Z</time>
      </trkpt>
      <trkpt lat="43.0735" lon="5.92079">
        <ele>92.6</ele>
        <time>2025-05-25T12:27:31.000Z</time>
      </trkpt>
      <trkpt lat="43.07351" lon="5.92079">
        <ele>92.6</ele>
        <time>2025-05-25T12:27:32.000Z</time>
      </trkpt>
      <trkpt lat="43.07359" lon="5.92084">
        <ele>93.1</ele>
        <time>2025-05-25T12:27:50.000Z</time>
      </trkpt>
      <trkpt lat="43.07359" lon="5.92084">
        <ele>93.2</ele>
        <time>2025-05-25T12:27:51.000Z</time>
      </trkpt>
      <trkpt lat="43.07359" lon="5.92084">
        <ele>93.2</ele>
        <time>2025-05-25T12:27:52.000Z</time>
      </trkpt>
      <trkpt lat="43.0736" lon="5.92083">
        <ele>93.3</ele>
        <time>2025-05-25T12:27:53.000Z</time>
      </trkpt>
      <trkpt lat="43.0736" lon="5.92083">
        <ele>93.3</ele>
        <time>2025-05-25T12:27:54.000Z</time>
      </trkpt>
      <trkpt lat="43.07364" lon="5.9208">
        <ele>93.5</ele>
        <time>2025-05-25T12:28:10.000Z</time>
      </trkpt>
      <trkpt lat="43.07364" lon="5.9208">
        <ele>93.5</ele>
        <time>2025-05-25T12:28:11.000Z</time>
      </trkpt>
      <trkpt lat="43.07364" lon="5.9208">
        <ele>93.5</ele>
        <time>2025-05-25T12:28:12.000Z</time>
      </trkpt>
      <trkpt lat="43.07365" lon="5.9208">
        <ele>93.5</ele>
        <time>2025-05-25T12:28:13.000Z</time>
      </trkpt>
      <trkpt lat="43.07365" lon="5.9208">
        <ele>93.5</ele>
        <time>2025-05-25T12:28:14.000Z</time>
      </trkpt>
      <trkpt lat="43.07365" lon="5.9208">
        <ele>93.5</ele>
        <time>2025-05-25T12:28:18.000Z</time>
      </trkpt>
      <trkpt lat="43.07365" lon="5.9208">
        <ele>93.5</ele>
        <time>2025-05-25T12:28:19.000Z</time>
      </trkpt>
      <trkpt lat="43.07365" lon="5.9208">
        <ele>93.5</ele>
        <time>2025-05-25T12:28:20.000Z</time>
      </trkpt>
      <trkpt lat="43.07366" lon="5.92081">
        <ele>93.4</ele>
        <time>2025-05-25T12:28:52.000Z</time>
      </trkpt>
      <trkpt lat="43.07367" lon="5.92081">
        <ele>93.4</ele>
        <time>2025-05-25T12:28:53.000Z</time>
      </trkpt>
      <trkpt lat="43.07367" lon="5.9208">
        <ele>93.4</ele>
        <time>2025-05-25T12:28:54.000Z</time>
      </trkpt>
      <trkpt lat="43.07367" lon="5.9208">
        <ele>93.4</ele>
        <time>2025-05-25T12:28:55.000Z</time>
      </trkpt>
      <trkpt lat="43.07367" lon="5.9208">
        <ele>93.4</ele>
        <time>2025-05-25T12:28:56.000Z</time>
      </trkpt>
      <trkpt lat="43.07367" lon="5.9208">
        <ele>93.4</ele>
        <time>2025-05-25T12:28:57.000Z</time>
      </trkpt>
      <trkpt lat="43.07367" lon="5.92079">
        <ele>93.3</ele>
        <time>2025-05-25T12:29:30.000Z</time>
      </trkpt>
      <trkpt lat="43.07368" lon="5.92079">
        <ele>93.3</ele>
        <time>2025-05-25T12:29:31.000Z</time>
      </trkpt>
      <trkpt lat="43.07367" lon="5.92075">
        <ele>93.3</ele>
        <time>2025-05-25T12:29:43.000Z</time>
      </trkpt>
      <trkpt lat="43.07367" lon="5.92075">
        <ele>93.3</ele>
        <time>2025-05-25T12:29:44.000Z</time>
      </trkpt>
      <trkpt lat="43.07367" lon="5.92076">
        <ele>93.2</ele>
        <time>2025-05-25T12:30:11.000Z</time>
      </trkpt>
      <trkpt lat="43.07366" lon="5.92076">
        <ele>93.2</ele>
        <time>2025-05-25T12:30:12.000Z</time>
      </trkpt>
      <trkpt lat="43.07366" lon="5.92077">
        <ele>93.2</ele>
        <time>2025-05-25T12:30:15.000Z</time>
      </trkpt>
      <trkpt lat="43.07366" lon="5.92077">
        <ele>93.2</ele>
        <time>2025-05-25T12:30:16.000Z</time>
      </trkpt>
      <trkpt lat="43.07366" lon="5.92077">
        <ele>93.2</ele>
        <time>2025-05-25T12:30:17.000Z</time>
      </trkpt>
      <trkpt lat="43.07366" lon="5.92077">
        <ele>93.2</ele>
        <time>2025-05-25T12:30:18.000Z</time>
      </trkpt>
      <trkpt lat="43.07366" lon="5.92078">
        <ele>93.2</ele>
        <time>2025-05-25T12:30:19.000Z</time>
      </trkpt>
      <trkpt lat="43.07366" lon="5.92077">
        <ele>93.2</ele>
        <time>2025-05-25T12:30:20.000Z</time>
      </trkpt>
      <trkpt lat="43.07366" lon="5.92076">
        <ele>93.2</ele>
        <time>2025-05-25T12:30:27.000Z</time>
      </trkpt>
      <trkpt lat="43.07366" lon="5.92076">
        <ele>93.2</ele>
        <time>2025-05-25T12:30:28.000Z</time>
      </trkpt>
      <trkpt lat="43.07366" lon="5.92076">
        <ele>93.2</ele>
        <time>2025-05-25T12:30:29.000Z</time>
      </trkpt>
      <trkpt lat="43.07366" lon="5.92075">
        <ele>93.2</ele>
        <time>2025-05-25T12:30:35.000Z</time>
      </trkpt>
      <trkpt lat="43.07367" lon="5.92075">
        <ele>93.2</ele>
        <time>2025-05-25T12:30:36.000Z</time>
      </trkpt>
      <trkpt lat="43.07367" lon="5.92076">
        <ele>93.2</ele>
        <time>2025-05-25T12:30:40.000Z</time>
      </trkpt>
      <trkpt lat="43.07367" lon="5.92076">
        <ele>93.2</ele>
        <time>2025-05-25T12:30:41.000Z</time>
      </trkpt>
      <trkpt lat="43.07368" lon="5.92076">
        <ele>93.2</ele>
        <time>2025-05-25T12:30:50.000Z</time>
      </trkpt>
      <trkpt lat="43.07368" lon="5.92076">
        <ele>93.2</ele>
        <time>2025-05-25T12:30:51.000Z</time>
      </trkpt>
      <trkpt lat="43.07368" lon="5.92076">
        <ele>93.2</ele>
        <time>2025-05-25T12:30:52.000Z</time>
      </trkpt>
      <trkpt lat="43.07368" lon="5.92076">
        <ele>93.2</ele>
        <time>2025-05-25T12:30:53.000Z</time>
      </trkpt>
      <trkpt lat="43.07368" lon="5.92076">
        <ele>93.2</ele>
        <time>2025-05-25T12:30:54.000Z</time>
      </trkpt>
      <trkpt lat="43.07368" lon="5.92076">
        <ele>93.2</ele>
        <time>2025-05-25T12:30:55.000Z</time>
      </trkpt>
      <trkpt lat="43.07368" lon="5.92074">
        <ele>93.2</ele>
        <time>2025-05-25T12:31:00.000Z</time>
      </trkpt>
      <trkpt lat="43.07368" lon="5.92073">
        <ele>93.2</ele>
        <time>2025-05-25T12:31:01.000Z</time>
      </trkpt>
      <trkpt lat="43.07372" lon="5.92064">
        <ele>93.1</ele>
        <time>2025-05-25T12:31:13.000Z</time>
      </trkpt>
      <trkpt lat="43.07371" lon="5.92064">
        <ele>93</ele>
        <time>2025-05-25T12:31:14.000Z</time>
      </trkpt>
      <trkpt lat="43.07371" lon="5.92063">
        <ele>93</ele>
        <time>2025-05-25T12:31:15.000Z</time>
      </trkpt>
      <trkpt lat="43.0737" lon="5.92062">
        <ele>93</ele>
        <time>2025-05-25T12:31:16.000Z</time>
      </trkpt>
      <trkpt lat="43.0737" lon="5.92049">
        <ele>91.6</ele>
        <time>2025-05-25T12:31:32.000Z</time>
      </trkpt>
      <trkpt lat="43.07373" lon="5.92037">
        <ele>89.8</ele>
        <time>2025-05-25T12:31:45.000Z</time>
      </trkpt>
      <trkpt lat="43.07372" lon="5.92024">
        <ele>87.9</ele>
        <time>2025-05-25T12:32:01.000Z</time>
      </trkpt>
      <trkpt lat="43.07372" lon="5.92011">
        <ele>86.6</ele>
        <time>2025-05-25T12:32:16.000Z</time>
      </trkpt>
      <trkpt lat="43.07369" lon="5.92">
        <ele>84.6</ele>
        <time>2025-05-25T12:32:33.000Z</time>
      </trkpt>
      <trkpt lat="43.07359" lon="5.91996">
        <ele>83.6</ele>
        <time>2025-05-25T12:32:41.000Z</time>
      </trkpt>
      <trkpt lat="43.0735" lon="5.91995">
        <ele>83.6</ele>
        <time>2025-05-25T12:32:51.000Z</time>
      </trkpt>
      <trkpt lat="43.07341" lon="5.91994">
        <ele>83.3</ele>
        <time>2025-05-25T12:33:02.000Z</time>
      </trkpt>
      <trkpt lat="43.07331" lon="5.91991">
        <ele>82.9</ele>
        <time>2025-05-25T12:33:12.000Z</time>
      </trkpt>
      <trkpt lat="43.07322" lon="5.91991">
        <ele>81.8</ele>
        <time>2025-05-25T12:33:23.000Z</time>
      </trkpt>
      <trkpt lat="43.07313" lon="5.91996">
        <ele>81</ele>
        <time>2025-05-25T12:33:35.000Z</time>
      </trkpt>
      <trkpt lat="43.07305" lon="5.91988">
        <ele>78</ele>
        <time>2025-05-25T12:34:15.000Z</time>
      </trkpt>
      <trkpt lat="43.07296" lon="5.91995">
        <ele>77.3</ele>
        <time>2025-05-25T12:34:23.000Z</time>
      </trkpt>
      <trkpt lat="43.07291" lon="5.92006">
        <ele>76.6</ele>
        <time>2025-05-25T12:34:32.000Z</time>
      </trkpt>
      <trkpt lat="43.07284" lon="5.92016">
        <ele>76.3</ele>
        <time>2025-05-25T12:34:42.000Z</time>
      </trkpt>
      <trkpt lat="43.07276" lon="5.92024">
        <ele>76</ele>
        <time>2025-05-25T12:34:52.000Z</time>
      </trkpt>
      <trkpt lat="43.0727" lon="5.92033">
        <ele>75.7</ele>
        <time>2025-05-25T12:35:01.000Z</time>
      </trkpt>
      <trkpt lat="43.07264" lon="5.92043">
        <ele>75.8</ele>
        <time>2025-05-25T12:35:13.000Z</time>
      </trkpt>
      <trkpt lat="43.07254" lon="5.92047">
        <ele>75.2</ele>
        <time>2025-05-25T12:35:27.000Z</time>
      </trkpt>
      <trkpt lat="43.07249" lon="5.92057">
        <ele>73.8</ele>
        <time>2025-05-25T12:35:47.000Z</time>
      </trkpt>
      <trkpt lat="43.0725" lon="5.92054">
        <ele>73</ele>
        <time>2025-05-25T12:36:00.000Z</time>
      </trkpt>
      <trkpt lat="43.0725" lon="5.92054">
        <ele>72.9</ele>
        <time>2025-05-25T12:36:01.000Z</time>
      </trkpt>
      <trkpt lat="43.0725" lon="5.92052">
        <ele>72.8</ele>
        <time>2025-05-25T12:36:05.000Z</time>
      </trkpt>
      <trkpt lat="43.0725" lon="5.92052">
        <ele>72.7</ele>
        <time>2025-05-25T12:36:06.000Z</time>
      </trkpt>
      <trkpt lat="43.07251" lon="5.92051">
        <ele>72.7</ele>
        <time>2025-05-25T12:36:07.000Z</time>
      </trkpt>
      <trkpt lat="43.07254" lon="5.92039">
        <ele>71.5</ele>
        <time>2025-05-25T12:36:25.000Z</time>
      </trkpt>
      <trkpt lat="43.07255" lon="5.92027">
        <ele>70</ele>
        <time>2025-05-25T12:36:48.000Z</time>
      </trkpt>
      <trkpt lat="43.07258" lon="5.92014">
        <ele>69</ele>
        <time>2025-05-25T12:36:58.000Z</time>
      </trkpt>
      <trkpt lat="43.07262" lon="5.92002">
        <ele>67.8</ele>
        <time>2025-05-25T12:37:10.000Z</time>
      </trkpt>
      <trkpt lat="43.07264" lon="5.91989">
        <ele>66.5</ele>
        <time>2025-05-25T12:37:23.000Z</time>
      </trkpt>
      <trkpt lat="43.07267" lon="5.91978">
        <ele>65.8</ele>
        <time>2025-05-25T12:37:35.000Z</time>
      </trkpt>
      <trkpt lat="43.07272" lon="5.91967">
        <ele>65</ele>
        <time>2025-05-25T12:37:45.000Z</time>
      </trkpt>
      <trkpt lat="43.07274" lon="5.91954">
        <ele>64.3</ele>
        <time>2025-05-25T12:37:54.000Z</time>
      </trkpt>
      <trkpt lat="43.07278" lon="5.91942">
        <ele>63.9</ele>
        <time>2025-05-25T12:38:06.000Z</time>
      </trkpt>
      <trkpt lat="43.07281" lon="5.9193">
        <ele>63.4</ele>
        <time>2025-05-25T12:38:16.000Z</time>
      </trkpt>
      <trkpt lat="43.07284" lon="5.91918">
        <ele>62.8</ele>
        <time>2025-05-25T12:38:27.000Z</time>
      </trkpt>
      <trkpt lat="43.07282" lon="5.91906">
        <ele>62.3</ele>
        <time>2025-05-25T12:38:36.000Z</time>
      </trkpt>
      <trkpt lat="43.07286" lon="5.91894">
        <ele>61.2</ele>
        <time>2025-05-25T12:38:50.000Z</time>
      </trkpt>
      <trkpt lat="43.07286" lon="5.91881">
        <ele>60.1</ele>
        <time>2025-05-25T12:38:59.000Z</time>
      </trkpt>
      <trkpt lat="43.07286" lon="5.91868">
        <ele>59.5</ele>
        <time>2025-05-25T12:39:11.000Z</time>
      </trkpt>
      <trkpt lat="43.07281" lon="5.91857">
        <ele>58.8</ele>
        <time>2025-05-25T12:39:23.000Z</time>
      </trkpt>
      <trkpt lat="43.07278" lon="5.91845">
        <ele>57.9</ele>
        <time>2025-05-25T12:39:36.000Z</time>
      </trkpt>
      <trkpt lat="43.07276" lon="5.91832">
        <ele>57</ele>
        <time>2025-05-25T12:39:49.000Z</time>
      </trkpt>
      <trkpt lat="43.07277" lon="5.91819">
        <ele>56.4</ele>
        <time>2025-05-25T12:40:00.000Z</time>
      </trkpt>
      <trkpt lat="43.07276" lon="5.91806">
        <ele>55.8</ele>
        <time>2025-05-25T12:40:13.000Z</time>
      </trkpt>
      <trkpt lat="43.07268" lon="5.91806">
        <ele>54.8</ele>
        <time>2025-05-25T12:40:25.000Z</time>
      </trkpt>
      <trkpt lat="43.07268" lon="5.91806">
        <ele>54.7</ele>
        <time>2025-05-25T12:40:26.000Z</time>
      </trkpt>
      <trkpt lat="43.07268" lon="5.91806">
        <ele>54.6</ele>
        <time>2025-05-25T12:40:27.000Z</time>
      </trkpt>
      <trkpt lat="43.07268" lon="5.91806">
        <ele>54.5</ele>
        <time>2025-05-25T12:40:28.000Z</time>
      </trkpt>
      <trkpt lat="43.07268" lon="5.91806">
        <ele>54.5</ele>
        <time>2025-05-25T12:40:29.000Z</time>
      </trkpt>
      <trkpt lat="43.07268" lon="5.91806">
        <ele>54.4</ele>
        <time>2025-05-25T12:40:30.000Z</time>
      </trkpt>
      <trkpt lat="43.07268" lon="5.91807">
        <ele>54.3</ele>
        <time>2025-05-25T12:40:33.000Z</time>
      </trkpt>
      <trkpt lat="43.07267" lon="5.91806">
        <ele>54.3</ele>
        <time>2025-05-25T12:40:34.000Z</time>
      </trkpt>
      <trkpt lat="43.07267" lon="5.91806">
        <ele>54.3</ele>
        <time>2025-05-25T12:40:35.000Z</time>
      </trkpt>
      <trkpt lat="43.07267" lon="5.91807">
        <ele>54.1</ele>
        <time>2025-05-25T12:40:50.000Z</time>
      </trkpt>
      <trkpt lat="43.07267" lon="5.91807">
        <ele>54.1</ele>
        <time>2025-05-25T12:40:51.000Z</time>
      </trkpt>
      <trkpt lat="43.07267" lon="5.91807">
        <ele>54.1</ele>
        <time>2025-05-25T12:40:52.000Z</time>
      </trkpt>
      <trkpt lat="43.07267" lon="5.91807">
        <ele>54.1</ele>
        <time>2025-05-25T12:40:53.000Z</time>
      </trkpt>
      <trkpt lat="43.07267" lon="5.91807">
        <ele>54.2</ele>
        <time>2025-05-25T12:40:54.000Z</time>
      </trkpt>
      <trkpt lat="43.07267" lon="5.91807">
        <ele>54.1</ele>
        <time>2025-05-25T12:40:58.000Z</time>
      </trkpt>
      <trkpt lat="43.07267" lon="5.91807">
        <ele>54.1</ele>
        <time>2025-05-25T12:40:59.000Z</time>
      </trkpt>
      <trkpt lat="43.07267" lon="5.91807">
        <ele>54.1</ele>
        <time>2025-05-25T12:41:00.000Z</time>
      </trkpt>
      <trkpt lat="43.07267" lon="5.91807">
        <ele>54.2</ele>
        <time>2025-05-25T12:41:01.000Z</time>
      </trkpt>
      <trkpt lat="43.07267" lon="5.91807">
        <ele>54.2</ele>
        <time>2025-05-25T12:41:02.000Z</time>
      </trkpt>
      <trkpt lat="43.07267" lon="5.91807">
        <ele>54.2</ele>
        <time>2025-05-25T12:41:05.000Z</time>
      </trkpt>
      <trkpt lat="43.07267" lon="5.91807">
        <ele>54.2</ele>
        <time>2025-05-25T12:41:06.000Z</time>
      </trkpt>
      <trkpt lat="43.07267" lon="5.91807">
        <ele>54.1</ele>
        <time>2025-05-25T12:41:07.000Z</time>
      </trkpt>
      <trkpt lat="43.07267" lon="5.91807">
        <ele>54.1</ele>
        <time>2025-05-25T12:41:08.000Z</time>
      </trkpt>
      <trkpt lat="43.07267" lon="5.91807">
        <ele>54.1</ele>
        <time>2025-05-25T12:41:09.000Z</time>
      </trkpt>
      <trkpt lat="43.07266" lon="5.91808">
        <ele>54.1</ele>
        <time>2025-05-25T12:41:20.000Z</time>
      </trkpt>
      <trkpt lat="43.07266" lon="5.91808">
        <ele>54.1</ele>
        <time>2025-05-25T12:41:21.000Z</time>
      </trkpt>
      <trkpt lat="43.07257" lon="5.91802">
        <ele>52.4</ele>
        <time>2025-05-25T12:41:49.000Z</time>
      </trkpt>
      <trkpt lat="43.07254" lon="5.91799">
        <ele>51.3</ele>
        <time>2025-05-25T12:41:58.000Z</time>
      </trkpt>
      <trkpt lat="43.07254" lon="5.91799">
        <ele>51.3</ele>
        <time>2025-05-25T12:41:59.000Z</time>
      </trkpt>
      <trkpt lat="43.07254" lon="5.91799">
        <ele>50.9</ele>
        <time>2025-05-25T12:42:05.000Z</time>
      </trkpt>
      <trkpt lat="43.07254" lon="5.91799">
        <ele>50.9</ele>
        <time>2025-05-25T12:42:06.000Z</time>
      </trkpt>
      <trkpt lat="43.07245" lon="5.91794">
        <ele>49.1</ele>
        <time>2025-05-25T12:42:27.000Z</time>
      </trkpt>
      <trkpt lat="43.07243" lon="5.91782">
        <ele>47.7</ele>
        <time>2025-05-25T12:42:45.000Z</time>
      </trkpt>
      <trkpt lat="43.07242" lon="5.91782">
        <ele>47.7</ele>
        <time>2025-05-25T12:42:46.000Z</time>
      </trkpt>
      <trkpt lat="43.07242" lon="5.91781">
        <ele>47.6</ele>
        <time>2025-05-25T12:42:47.000Z</time>
      </trkpt>
      <trkpt lat="43.07242" lon="5.91781">
        <ele>47.6</ele>
        <time>2025-05-25T12:42:48.000Z</time>
      </trkpt>
      <trkpt lat="43.07242" lon="5.91781">
        <ele>47.5</ele>
        <time>2025-05-25T12:42:49.000Z</time>
      </trkpt>
      <trkpt lat="43.07242" lon="5.91781">
        <ele>47.4</ele>
        <time>2025-05-25T12:42:50.000Z</time>
      </trkpt>
      <trkpt lat="43.07242" lon="5.91781">
        <ele>47.4</ele>
        <time>2025-05-25T12:42:51.000Z</time>
      </trkpt>
      <trkpt lat="43.07242" lon="5.91781">
        <ele>47.3</ele>
        <time>2025-05-25T12:42:52.000Z</time>
      </trkpt>
      <trkpt lat="43.07242" lon="5.9178">
        <ele>47.3</ele>
        <time>2025-05-25T12:42:53.000Z</time>
      </trkpt>
      <trkpt lat="43.07242" lon="5.9178">
        <ele>47.2</ele>
        <time>2025-05-25T12:42:54.000Z</time>
      </trkpt>
      <trkpt lat="43.07233" lon="5.91776">
        <ele>46.4</ele>
        <time>2025-05-25T12:43:07.000Z</time>
      </trkpt>
      <trkpt lat="43.07224" lon="5.91782">
        <ele>44.2</ele>
        <time>2025-05-25T12:43:25.000Z</time>
      </trkpt>
      <trkpt lat="43.0722" lon="5.91793">
        <ele>43.3</ele>
        <time>2025-05-25T12:43:33.000Z</time>
      </trkpt>
      <trkpt lat="43.07217" lon="5.91805">
        <ele>42.7</ele>
        <time>2025-05-25T12:43:42.000Z</time>
      </trkpt>
      <trkpt lat="43.07208" lon="5.91806">
        <ele>40.8</ele>
        <time>2025-05-25T12:44:04.000Z</time>
      </trkpt>
      <trkpt lat="43.07199" lon="5.91808">
        <ele>38</ele>
        <time>2025-05-25T12:44:25.000Z</time>
      </trkpt>
      <trkpt lat="43.07189" lon="5.91808">
        <ele>35.8</ele>
        <time>2025-05-25T12:44:51.000Z</time>
      </trkpt>
      <trkpt lat="43.07184" lon="5.91817">
        <ele>34</ele>
        <time>2025-05-25T12:45:05.000Z</time>
      </trkpt>
      <trkpt lat="43.07175" lon="5.91821">
        <ele>32.3</ele>
        <time>2025-05-25T12:45:20.000Z</time>
      </trkpt>
      <trkpt lat="43.07168" lon="5.91829">
        <ele>31.4</ele>
        <time>2025-05-25T12:45:34.000Z</time>
      </trkpt>
      <trkpt lat="43.07161" lon="5.91837">
        <ele>32.1</ele>
        <time>2025-05-25T12:45:48.000Z</time>
      </trkpt>
      <trkpt lat="43.07153" lon="5.91843">
        <ele>32.5</ele>
        <time>2025-05-25T12:46:01.000Z</time>
      </trkpt>
      <trkpt lat="43.07144" lon="5.91847">
        <ele>32.8</ele>
        <time>2025-05-25T12:46:15.000Z</time>
      </trkpt>
      <trkpt lat="43.07143" lon="5.91859">
        <ele>33.3</ele>
        <time>2025-05-25T12:46:29.000Z</time>
      </trkpt>
      <trkpt lat="43.07141" lon="5.91871">
        <ele>33.7</ele>
        <time>2025-05-25T12:46:36.000Z</time>
      </trkpt>
      <trkpt lat="43.07132" lon="5.91878">
        <ele>34.4</ele>
        <time>2025-05-25T12:46:49.000Z</time>
      </trkpt>
      <trkpt lat="43.07124" lon="5.91884">
        <ele>35.9</ele>
        <time>2025-05-25T12:47:03.000Z</time>
      </trkpt>
      <trkpt lat="43.07116" lon="5.91891">
        <ele>37</ele>
        <time>2025-05-25T12:47:14.000Z</time>
      </trkpt>
      <trkpt lat="43.07107" lon="5.91895">
        <ele>38.6</ele>
        <time>2025-05-25T12:47:31.000Z</time>
      </trkpt>
      <trkpt lat="43.07098" lon="5.91895">
        <ele>38.7</ele>
        <time>2025-05-25T12:47:39.000Z</time>
      </trkpt>
      <trkpt lat="43.07088" lon="5.91896">
        <ele>38.6</ele>
        <time>2025-05-25T12:47:50.000Z</time>
      </trkpt>
      <trkpt lat="43.07078" lon="5.91896">
        <ele>38.8</ele>
        <time>2025-05-25T12:48:00.000Z</time>
      </trkpt>
      <trkpt lat="43.07069" lon="5.91897">
        <ele>39.2</ele>
        <time>2025-05-25T12:48:09.000Z</time>
      </trkpt>
      <trkpt lat="43.0706" lon="5.91895">
        <ele>39.8</ele>
        <time>2025-05-25T12:48:19.000Z</time>
      </trkpt>
      <trkpt lat="43.07053" lon="5.91888">
        <ele>40.7</ele>
        <time>2025-05-25T12:48:36.000Z</time>
      </trkpt>
      <trkpt lat="43.07049" lon="5.91876">
        <ele>42.7</ele>
        <time>2025-05-25T12:48:55.000Z</time>
      </trkpt>
      <trkpt lat="43.07045" lon="5.91865">
        <ele>44.5</ele>
        <time>2025-05-25T12:49:11.000Z</time>
      </trkpt>
      <trkpt lat="43.07047" lon="5.91851">
        <ele>45.3</ele>
        <time>2025-05-25T12:49:21.000Z</time>
      </trkpt>
      <trkpt lat="43.07041" lon="5.91842">
        <ele>45.6</ele>
        <time>2025-05-25T12:49:33.000Z</time>
      </trkpt>
      <trkpt lat="43.07034" lon="5.91834">
        <ele>46.4</ele>
        <time>2025-05-25T12:49:45.000Z</time>
      </trkpt>
      <trkpt lat="43.07036" lon="5.91821">
        <ele>46.6</ele>
        <time>2025-05-25T12:49:57.000Z</time>
      </trkpt>
      <trkpt lat="43.07037" lon="5.91813">
        <ele>46.6</ele>
        <time>2025-05-25T12:50:06.000Z</time>
      </trkpt>
      <trkpt lat="43.07037" lon="5.91813">
        <ele>46.6</ele>
        <time>2025-05-25T12:50:07.000Z</time>
      </trkpt>
      <trkpt lat="43.07036" lon="5.91812">
        <ele>46.4</ele>
        <time>2025-05-25T12:51:13.000Z</time>
      </trkpt>
      <trkpt lat="43.07036" lon="5.91812">
        <ele>46.4</ele>
        <time>2025-05-25T12:51:14.000Z</time>
      </trkpt>
      <trkpt lat="43.07035" lon="5.91811">
        <ele>46.5</ele>
        <time>2025-05-25T12:51:17.000Z</time>
      </trkpt>
      <trkpt lat="43.07035" lon="5.91811">
        <ele>46.5</ele>
        <time>2025-05-25T12:51:18.000Z</time>
      </trkpt>
      <trkpt lat="43.07035" lon="5.91811">
        <ele>46.5</ele>
        <time>2025-05-25T12:51:19.000Z</time>
      </trkpt>
      <trkpt lat="43.07036" lon="5.91811">
        <ele>46.4</ele>
        <time>2025-05-25T12:51:53.000Z</time>
      </trkpt>
      <trkpt lat="43.07036" lon="5.91811">
        <ele>46.4</ele>
        <time>2025-05-25T12:51:54.000Z</time>
      </trkpt>
      <trkpt lat="43.07036" lon="5.91811">
        <ele>46.4</ele>
        <time>2025-05-25T12:51:55.000Z</time>
      </trkpt>
      <trkpt lat="43.07036" lon="5.91811">
        <ele>46.4</ele>
        <time>2025-05-25T12:51:56.000Z</time>
      </trkpt>
      <trkpt lat="43.07036" lon="5.91811">
        <ele>46.4</ele>
        <time>2025-05-25T12:51:57.000Z</time>
      </trkpt>
      <trkpt lat="43.07036" lon="5.91811">
        <ele>46.4</ele>
        <time>2025-05-25T12:52:43.000Z</time>
      </trkpt>
      <trkpt lat="43.07036" lon="5.91811">
        <ele>46.4</ele>
        <time>2025-05-25T12:52:44.000Z</time>
      </trkpt>
      <trkpt lat="43.07036" lon="5.91811">
        <ele>46.4</ele>
        <time>2025-05-25T12:52:45.000Z</time>
      </trkpt>
      <trkpt lat="43.07036" lon="5.91811">
        <ele>46.4</ele>
        <time>2025-05-25T12:52:46.000Z</time>
      </trkpt>
      <trkpt lat="43.07035" lon="5.9181">
        <ele>46.4</ele>
        <time>2025-05-25T12:52:47.000Z</time>
      </trkpt>
      <trkpt lat="43.07034" lon="5.9181">
        <ele>46.4</ele>
        <time>2025-05-25T12:52:48.000Z</time>
      </trkpt>
      <trkpt lat="43.07034" lon="5.9181">
        <ele>46.4</ele>
        <time>2025-05-25T12:52:49.000Z</time>
      </trkpt>
      <trkpt lat="43.07024" lon="5.91806">
        <ele>46.3</ele>
        <time>2025-05-25T12:53:00.000Z</time>
      </trkpt>
      <trkpt lat="43.07014" lon="5.91806">
        <ele>45.5</ele>
        <time>2025-05-25T12:53:15.000Z</time>
      </trkpt>
      <trkpt lat="43.07005" lon="5.91805">
        <ele>44.7</ele>
        <time>2025-05-25T12:53:27.000Z</time>
      </trkpt>
      <trkpt lat="43.06996" lon="5.91805">
        <ele>44</ele>
        <time>2025-05-25T12:53:37.000Z</time>
      </trkpt>
      <trkpt lat="43.06987" lon="5.91803">
        <ele>43.7</ele>
        <time>2025-05-25T12:53:45.000Z</time>
      </trkpt>
      <trkpt lat="43.06977" lon="5.91803">
        <ele>43.5</ele>
        <time>2025-05-25T12:53:55.000Z</time>
      </trkpt>
      <trkpt lat="43.06968" lon="5.91799">
        <ele>43.5</ele>
        <time>2025-05-25T12:54:05.000Z</time>
      </trkpt>
      <trkpt lat="43.06967" lon="5.91798">
        <ele>43.7</ele>
        <time>2025-05-25T12:54:10.000Z</time>
      </trkpt>
      <trkpt lat="43.06967" lon="5.91798">
        <ele>43.7</ele>
        <time>2025-05-25T12:54:11.000Z</time>
      </trkpt>
      <trkpt lat="43.06966" lon="5.91798">
        <ele>43.8</ele>
        <time>2025-05-25T12:54:15.000Z</time>
      </trkpt>
      <trkpt lat="43.06966" lon="5.91798">
        <ele>43.8</ele>
        <time>2025-05-25T12:54:16.000Z</time>
      </trkpt>
      <trkpt lat="43.06964" lon="5.91796">
        <ele>43.9</ele>
        <time>2025-05-25T12:54:20.000Z</time>
      </trkpt>
      <trkpt lat="43.06964" lon="5.91796">
        <ele>43.9</ele>
        <time>2025-05-25T12:54:21.000Z</time>
      </trkpt>
      <trkpt lat="43.06962" lon="5.91797">
        <ele>44</ele>
        <time>2025-05-25T12:54:35.000Z</time>
      </trkpt>
      <trkpt lat="43.06962" lon="5.91798">
        <ele>44</ele>
        <time>2025-05-25T12:54:36.000Z</time>
      </trkpt>
      <trkpt lat="43.06962" lon="5.91811">
        <ele>44</ele>
        <time>2025-05-25T12:54:45.000Z</time>
      </trkpt>
      <trkpt lat="43.06961" lon="5.91824">
        <ele>44.8</ele>
        <time>2025-05-25T12:55:01.000Z</time>
      </trkpt>
      <trkpt lat="43.06959" lon="5.91836">
        <ele>47.8</ele>
        <time>2025-05-25T12:55:24.000Z</time>
      </trkpt>
      <trkpt lat="43.06954" lon="5.91846">
        <ele>49.8</ele>
        <time>2025-05-25T12:55:49.000Z</time>
      </trkpt>
      <trkpt lat="43.06956" lon="5.91859">
        <ele>50.7</ele>
        <time>2025-05-25T12:56:00.000Z</time>
      </trkpt>
      <trkpt lat="43.06957" lon="5.9186">
        <ele>50.8</ele>
        <time>2025-05-25T12:56:02.000Z</time>
      </trkpt>
      <trkpt lat="43.06957" lon="5.9186">
        <ele>50.9</ele>
        <time>2025-05-25T12:56:03.000Z</time>
      </trkpt>
      <trkpt lat="43.06957" lon="5.9186">
        <ele>51</ele>
        <time>2025-05-25T12:56:04.000Z</time>
      </trkpt>
      <trkpt lat="43.06957" lon="5.9186">
        <ele>51</ele>
        <time>2025-05-25T12:56:05.000Z</time>
      </trkpt>
      <trkpt lat="43.06958" lon="5.91861">
        <ele>51.1</ele>
        <time>2025-05-25T12:56:06.000Z</time>
      </trkpt>
      <trkpt lat="43.06964" lon="5.9187">
        <ele>51.9</ele>
        <time>2025-05-25T12:56:20.000Z</time>
      </trkpt>
      <trkpt lat="43.06972" lon="5.91876">
        <ele>53.1</ele>
        <time>2025-05-25T12:56:33.000Z</time>
      </trkpt>
      <trkpt lat="43.06981" lon="5.9188">
        <ele>54.2</ele>
        <time>2025-05-25T12:56:44.000Z</time>
      </trkpt>
      <trkpt lat="43.06978" lon="5.91892">
        <ele>55.7</ele>
        <time>2025-05-25T12:57:02.000Z</time>
      </trkpt>
      <trkpt lat="43.06972" lon="5.91901">
        <ele>57.5</ele>
        <time>2025-05-25T12:57:18.000Z</time>
      </trkpt>
      <trkpt lat="43.06965" lon="5.91909">
        <ele>60.2</ele>
        <time>2025-05-25T12:57:38.000Z</time>
      </trkpt>
      <trkpt lat="43.06957" lon="5.91915">
        <ele>62.1</ele>
        <time>2025-05-25T12:57:56.000Z</time>
      </trkpt>
      <trkpt lat="43.06949" lon="5.91921">
        <ele>63.7</ele>
        <time>2025-05-25T12:58:13.000Z</time>
      </trkpt>
      <trkpt lat="43.0694" lon="5.91917">
        <ele>64.6</ele>
        <time>2025-05-25T12:58:40.000Z</time>
      </trkpt>
      <trkpt lat="43.06939" lon="5.91917">
        <ele>64.4</ele>
        <time>2025-05-25T12:58:53.000Z</time>
      </trkpt>
      <trkpt lat="43.06939" lon="5.91917">
        <ele>64.4</ele>
        <time>2025-05-25T12:58:54.000Z</time>
      </trkpt>
      <trkpt lat="43.06939" lon="5.91917">
        <ele>64.4</ele>
        <time>2025-05-25T12:58:57.000Z</time>
      </trkpt>
      <trkpt lat="43.06939" lon="5.91917">
        <ele>64.4</ele>
        <time>2025-05-25T12:58:58.000Z</time>
      </trkpt>
      <trkpt lat="43.06939" lon="5.91917">
        <ele>64.4</ele>
        <time>2025-05-25T12:58:59.000Z</time>
      </trkpt>
      <trkpt lat="43.06939" lon="5.91917">
        <ele>64.4</ele>
        <time>2025-05-25T12:59:00.000Z</time>
      </trkpt>
      <trkpt lat="43.06939" lon="5.91917">
        <ele>64.4</ele>
        <time>2025-05-25T12:59:01.000Z</time>
      </trkpt>
      <trkpt lat="43.06939" lon="5.91917">
        <ele>64.4</ele>
        <time>2025-05-25T12:59:15.000Z</time>
      </trkpt>
      <trkpt lat="43.06939" lon="5.91917">
        <ele>64.4</ele>
        <time>2025-05-25T12:59:16.000Z</time>
      </trkpt>
      <trkpt lat="43.0694" lon="5.91917">
        <ele>64.3</ele>
        <time>2025-05-25T12:59:17.000Z</time>
      </trkpt>
      <trkpt lat="43.0694" lon="5.91916">
        <ele>64.3</ele>
        <time>2025-05-25T12:59:23.000Z</time>
      </trkpt>
      <trkpt lat="43.0694" lon="5.91916">
        <ele>64.3</ele>
        <time>2025-05-25T12:59:24.000Z</time>
      </trkpt>
      <trkpt lat="43.0694" lon="5.91916">
        <ele>64.3</ele>
        <time>2025-05-25T12:59:25.000Z</time>
      </trkpt>
      <trkpt lat="43.0694" lon="5.91916">
        <ele>64.2</ele>
        <time>2025-05-25T12:59:43.000Z</time>
      </trkpt>
      <trkpt lat="43.06939" lon="5.91916">
        <ele>64.1</ele>
        <time>2025-05-25T12:59:44.000Z</time>
      </trkpt>
      <trkpt lat="43.06939" lon="5.91917">
        <ele>64.1</ele>
        <time>2025-05-25T12:59:45.000Z</time>
      </trkpt>
      <trkpt lat="43.06946" lon="5.91927">
        <ele>64.2</ele>
        <time>2025-05-25T12:59:55.000Z</time>
      </trkpt>
      <trkpt lat="43.0695" lon="5.91928">
        <ele>65</ele>
        <time>2025-05-25T13:00:18.000Z</time>
      </trkpt>
      <trkpt lat="43.0695" lon="5.91928">
        <ele>65</ele>
        <time>2025-05-25T13:00:19.000Z</time>
      </trkpt>
      <trkpt lat="43.0695" lon="5.91928">
        <ele>65</ele>
        <time>2025-05-25T13:00:30.000Z</time>
      </trkpt>
      <trkpt lat="43.06949" lon="5.91928">
        <ele>65</ele>
        <time>2025-05-25T13:00:31.000Z</time>
      </trkpt>
      <trkpt lat="43.06947" lon="5.91926">
        <ele>65.3</ele>
        <time>2025-05-25T13:00:43.000Z</time>
      </trkpt>
      <trkpt lat="43.06947" lon="5.91926">
        <ele>65.3</ele>
        <time>2025-05-25T13:00:44.000Z</time>
      </trkpt>
      <trkpt lat="43.06947" lon="5.91926">
        <ele>65.3</ele>
        <time>2025-05-25T13:00:45.000Z</time>
      </trkpt>
      <trkpt lat="43.06947" lon="5.91925">
        <ele>65.4</ele>
        <time>2025-05-25T13:00:55.000Z</time>
      </trkpt>
      <trkpt lat="43.06946" lon="5.91925">
        <ele>65.4</ele>
        <time>2025-05-25T13:00:56.000Z</time>
      </trkpt>
      <trkpt lat="43.06942" lon="5.9192">
        <ele>65</ele>
        <time>2025-05-25T13:01:08.000Z</time>
      </trkpt>
      <trkpt lat="43.06942" lon="5.9192">
        <ele>65</ele>
        <time>2025-05-25T13:01:09.000Z</time>
      </trkpt>
      <trkpt lat="43.06943" lon="5.91919">
        <ele>64.6</ele>
        <time>2025-05-25T13:01:23.000Z</time>
      </trkpt>
      <trkpt lat="43.06943" lon="5.91918">
        <ele>64.5</ele>
        <time>2025-05-25T13:01:24.000Z</time>
      </trkpt>
      <trkpt lat="43.06944" lon="5.91917">
        <ele>64.4</ele>
        <time>2025-05-25T13:01:30.000Z</time>
      </trkpt>
      <trkpt lat="43.06944" lon="5.91917">
        <ele>64.3</ele>
        <time>2025-05-25T13:01:31.000Z</time>
      </trkpt>
      <trkpt lat="43.06944" lon="5.91917">
        <ele>64.3</ele>
        <time>2025-05-25T13:01:32.000Z</time>
      </trkpt>
      <trkpt lat="43.06943" lon="5.91918">
        <ele>64.2</ele>
        <time>2025-05-25T13:01:48.000Z</time>
      </trkpt>
      <trkpt lat="43.06943" lon="5.91918">
        <ele>64.2</ele>
        <time>2025-05-25T13:01:49.000Z</time>
      </trkpt>
      <trkpt lat="43.06943" lon="5.91918">
        <ele>64.2</ele>
        <time>2025-05-25T13:01:50.000Z</time>
      </trkpt>
      <trkpt lat="43.06943" lon="5.91918">
        <ele>64.2</ele>
        <time>2025-05-25T13:01:51.000Z</time>
      </trkpt>
      <trkpt lat="43.06943" lon="5.91918">
        <ele>64.2</ele>
        <time>2025-05-25T13:01:52.000Z</time>
      </trkpt>
      <trkpt lat="43.06943" lon="5.91918">
        <ele>64.2</ele>
        <time>2025-05-25T13:02:02.000Z</time>
      </trkpt>
      <trkpt lat="43.06943" lon="5.91918">
        <ele>64.2</ele>
        <time>2025-05-25T13:02:03.000Z</time>
      </trkpt>
      <trkpt lat="43.06943" lon="5.91918">
        <ele>64.1</ele>
        <time>2025-05-25T13:02:04.000Z</time>
      </trkpt>
      <trkpt lat="43.06943" lon="5.91918">
        <ele>64.1</ele>
        <time>2025-05-25T13:02:05.000Z</time>
      </trkpt>
      <trkpt lat="43.06943" lon="5.91918">
        <ele>64.1</ele>
        <time>2025-05-25T13:02:06.000Z</time>
      </trkpt>
      <trkpt lat="43.06943" lon="5.91918">
        <ele>64.1</ele>
        <time>2025-05-25T13:02:07.000Z</time>
      </trkpt>
      <trkpt lat="43.06943" lon="5.91918">
        <ele>64.1</ele>
        <time>2025-05-25T13:02:08.000Z</time>
      </trkpt>
      <trkpt lat="43.06943" lon="5.91918">
        <ele>64.1</ele>
        <time>2025-05-25T13:02:09.000Z</time>
      </trkpt>
      <trkpt lat="43.06943" lon="5.91918">
        <ele>64.1</ele>
        <time>2025-05-25T13:02:10.000Z</time>
      </trkpt>
      <trkpt lat="43.06947" lon="5.91917">
        <ele>64.1</ele>
        <time>2025-05-25T13:02:20.000Z</time>
      </trkpt>
      <trkpt lat="43.06947" lon="5.91917">
        <ele>64.1</ele>
        <time>2025-05-25T13:02:21.000Z</time>
      </trkpt>
      <trkpt lat="43.06946" lon="5.91917">
        <ele>64.1</ele>
        <time>2025-05-25T13:02:25.000Z</time>
      </trkpt>
      <trkpt lat="43.06946" lon="5.91917">
        <ele>64.1</ele>
        <time>2025-05-25T13:02:26.000Z</time>
      </trkpt>
      <trkpt lat="43.06946" lon="5.91917">
        <ele>64.1</ele>
        <time>2025-05-25T13:02:27.000Z</time>
      </trkpt>
      <trkpt lat="43.06945" lon="5.91917">
        <ele>64.1</ele>
        <time>2025-05-25T13:02:30.000Z</time>
      </trkpt>
      <trkpt lat="43.06945" lon="5.91917">
        <ele>64.1</ele>
        <time>2025-05-25T13:02:31.000Z</time>
      </trkpt>
      <trkpt lat="43.06945" lon="5.91917">
        <ele>64.1</ele>
        <time>2025-05-25T13:02:32.000Z</time>
      </trkpt>
      <trkpt lat="43.06945" lon="5.91917">
        <ele>64.1</ele>
        <time>2025-05-25T13:02:33.000Z</time>
      </trkpt>
      <trkpt lat="43.06945" lon="5.91917">
        <ele>64.1</ele>
        <time>2025-05-25T13:02:34.000Z</time>
      </trkpt>
      <trkpt lat="43.06946" lon="5.91918">
        <ele>64</ele>
        <time>2025-05-25T13:02:37.000Z</time>
      </trkpt>
      <trkpt lat="43.06947" lon="5.91918">
        <ele>64</ele>
        <time>2025-05-25T13:02:38.000Z</time>
      </trkpt>
      <trkpt lat="43.06947" lon="5.91917">
        <ele>64</ele>
        <time>2025-05-25T13:02:39.000Z</time>
      </trkpt>
      <trkpt lat="43.06944" lon="5.91913">
        <ele>64.2</ele>
        <time>2025-05-25T13:03:02.000Z</time>
      </trkpt>
      <trkpt lat="43.06945" lon="5.91914">
        <ele>64.2</ele>
        <time>2025-05-25T13:03:03.000Z</time>
      </trkpt>
      <trkpt lat="43.06945" lon="5.91914">
        <ele>64.2</ele>
        <time>2025-05-25T13:03:04.000Z</time>
      </trkpt>
      <trkpt lat="43.06945" lon="5.91914">
        <ele>64.2</ele>
        <time>2025-05-25T13:03:05.000Z</time>
      </trkpt>
      <trkpt lat="43.06944" lon="5.91913">
        <ele>64.1</ele>
        <time>2025-05-25T13:03:06.000Z</time>
      </trkpt>
      <trkpt lat="43.06944" lon="5.91913">
        <ele>64.1</ele>
        <time>2025-05-25T13:03:07.000Z</time>
      </trkpt>
      <trkpt lat="43.06943" lon="5.91914">
        <ele>64.1</ele>
        <time>2025-05-25T13:03:08.000Z</time>
      </trkpt>
      <trkpt lat="43.06943" lon="5.91914">
        <ele>64.1</ele>
        <time>2025-05-25T13:03:09.000Z</time>
      </trkpt>
      <trkpt lat="43.06943" lon="5.91914">
        <ele>64.2</ele>
        <time>2025-05-25T13:03:10.000Z</time>
      </trkpt>
      <trkpt lat="43.06942" lon="5.91915">
        <ele>64.2</ele>
        <time>2025-05-25T13:03:11.000Z</time>
      </trkpt>
      <trkpt lat="43.06942" lon="5.91915">
        <ele>64.2</ele>
        <time>2025-05-25T13:03:12.000Z</time>
      </trkpt>
      <trkpt lat="43.0694" lon="5.9192">
        <ele>64.2</ele>
        <time>2025-05-25T13:03:27.000Z</time>
      </trkpt>
      <trkpt lat="43.06941" lon="5.9192">
        <ele>64.2</ele>
        <time>2025-05-25T13:03:28.000Z</time>
      </trkpt>
      <trkpt lat="43.06942" lon="5.91919">
        <ele>64.2</ele>
        <time>2025-05-25T13:03:29.000Z</time>
      </trkpt>
      <trkpt lat="43.06942" lon="5.91918">
        <ele>64.1</ele>
        <time>2025-05-25T13:03:40.000Z</time>
      </trkpt>
      <trkpt lat="43.06942" lon="5.91918">
        <ele>64.1</ele>
        <time>2025-05-25T13:03:41.000Z</time>
      </trkpt>
      <trkpt lat="43.06941" lon="5.91917">
        <ele>64.1</ele>
        <time>2025-05-25T13:03:45.000Z</time>
      </trkpt>
      <trkpt lat="43.06941" lon="5.91917">
        <ele>64.1</ele>
        <time>2025-05-25T13:03:46.000Z</time>
      </trkpt>
      <trkpt lat="43.06941" lon="5.91917">
        <ele>64.1</ele>
        <time>2025-05-25T13:03:47.000Z</time>
      </trkpt>
      <trkpt lat="43.06941" lon="5.91917">
        <ele>64.1</ele>
        <time>2025-05-25T13:03:51.000Z</time>
      </trkpt>
      <trkpt lat="43.06941" lon="5.91917">
        <ele>64.1</ele>
        <time>2025-05-25T13:03:52.000Z</time>
      </trkpt>
      <trkpt lat="43.06941" lon="5.91917">
        <ele>64</ele>
        <time>2025-05-25T13:03:58.000Z</time>
      </trkpt>
      <trkpt lat="43.06941" lon="5.91917">
        <ele>64</ele>
        <time>2025-05-25T13:03:59.000Z</time>
      </trkpt>
      <trkpt lat="43.06941" lon="5.91916">
        <ele>64</ele>
        <time>2025-05-25T13:04:00.000Z</time>
      </trkpt>
      <trkpt lat="43.06939" lon="5.91904">
        <ele>63.6</ele>
        <time>2025-05-25T13:04:24.000Z</time>
      </trkpt>
      <trkpt lat="43.06936" lon="5.91892">
        <ele>61.9</ele>
        <time>2025-05-25T13:04:41.000Z</time>
      </trkpt>
      <trkpt lat="43.06931" lon="5.91882">
        <ele>60.8</ele>
        <time>2025-05-25T13:04:54.000Z</time>
      </trkpt>
      <trkpt lat="43.06932" lon="5.91895">
        <ele>60.4</ele>
        <time>2025-05-25T13:05:20.000Z</time>
      </trkpt>
      <trkpt lat="43.06936" lon="5.91906">
        <ele>60.9</ele>
        <time>2025-05-25T13:05:30.000Z</time>
      </trkpt>
      <trkpt lat="43.0694" lon="5.91917">
        <ele>63.7</ele>
        <time>2025-05-25T13:05:41.000Z</time>
      </trkpt>
      <trkpt lat="43.06941" lon="5.91918">
        <ele>63.9</ele>
        <time>2025-05-25T13:05:45.000Z</time>
      </trkpt>
      <trkpt lat="43.06941" lon="5.91918">
        <ele>63.9</ele>
        <time>2025-05-25T13:05:46.000Z</time>
      </trkpt>
      <trkpt lat="43.06942" lon="5.91915">
        <ele>64</ele>
        <time>2025-05-25T13:05:52.000Z</time>
      </trkpt>
      <trkpt lat="43.06941" lon="5.91914">
        <ele>64</ele>
        <time>2025-05-25T13:05:53.000Z</time>
      </trkpt>
      <trkpt lat="43.06941" lon="5.91913">
        <ele>64</ele>
        <time>2025-05-25T13:05:54.000Z</time>
      </trkpt>
      <trkpt lat="43.06937" lon="5.91901">
        <ele>63.1</ele>
        <time>2025-05-25T13:06:09.000Z</time>
      </trkpt>
      <trkpt lat="43.06933" lon="5.91889">
        <ele>61.7</ele>
        <time>2025-05-25T13:06:20.000Z</time>
      </trkpt>
      <trkpt lat="43.0693" lon="5.91877">
        <ele>61.2</ele>
        <time>2025-05-25T13:06:29.000Z</time>
      </trkpt>
      <trkpt lat="43.06924" lon="5.91868">
        <ele>60.6</ele>
        <time>2025-05-25T13:06:43.000Z</time>
      </trkpt>
      <trkpt lat="43.06919" lon="5.91857">
        <ele>58.7</ele>
        <time>2025-05-25T13:07:05.000Z</time>
      </trkpt>
      <trkpt lat="43.06917" lon="5.91852">
        <ele>57.9</ele>
        <time>2025-05-25T13:07:15.000Z</time>
      </trkpt>
      <trkpt lat="43.06917" lon="5.91852">
        <ele>57.8</ele>
        <time>2025-05-25T13:07:16.000Z</time>
      </trkpt>
      <trkpt lat="43.06917" lon="5.91852">
        <ele>57.7</ele>
        <time>2025-05-25T13:07:20.000Z</time>
      </trkpt>
      <trkpt lat="43.06917" lon="5.91851">
        <ele>57.6</ele>
        <time>2025-05-25T13:07:21.000Z</time>
      </trkpt>
      <trkpt lat="43.06917" lon="5.91849">
        <ele>57.2</ele>
        <time>2025-05-25T13:07:32.000Z</time>
      </trkpt>
      <trkpt lat="43.06917" lon="5.91849">
        <ele>57.1</ele>
        <time>2025-05-25T13:07:33.000Z</time>
      </trkpt>
      <trkpt lat="43.06917" lon="5.91849">
        <ele>57.1</ele>
        <time>2025-05-25T13:07:34.000Z</time>
      </trkpt>
      <trkpt lat="43.06917" lon="5.91848">
        <ele>57</ele>
        <time>2025-05-25T13:07:35.000Z</time>
      </trkpt>
      <trkpt lat="43.06917" lon="5.91847">
        <ele>57</ele>
        <time>2025-05-25T13:07:36.000Z</time>
      </trkpt>
      <trkpt lat="43.06918" lon="5.91847">
        <ele>56.9</ele>
        <time>2025-05-25T13:07:37.000Z</time>
      </trkpt>
      <trkpt lat="43.06914" lon="5.91835">
        <ele>55.6</ele>
        <time>2025-05-25T13:07:54.000Z</time>
      </trkpt>
      <trkpt lat="43.06912" lon="5.91823">
        <ele>54.5</ele>
        <time>2025-05-25T13:08:12.000Z</time>
      </trkpt>
      <trkpt lat="43.06906" lon="5.91813">
        <ele>53.9</ele>
        <time>2025-05-25T13:08:23.000Z</time>
      </trkpt>
      <trkpt lat="43.06903" lon="5.91801">
        <ele>53.5</ele>
        <time>2025-05-25T13:08:34.000Z</time>
      </trkpt>
      <trkpt lat="43.06904" lon="5.91799">
        <ele>53.4</ele>
        <time>2025-05-25T13:08:38.000Z</time>
      </trkpt>
      <trkpt lat="43.06904" lon="5.91799">
        <ele>53.4</ele>
        <time>2025-05-25T13:08:39.000Z</time>
      </trkpt>
      <trkpt lat="43.06904" lon="5.91798">
        <ele>53.4</ele>
        <time>2025-05-25T13:08:40.000Z</time>
      </trkpt>
      <trkpt lat="43.06904" lon="5.91797">
        <ele>53.3</ele>
        <time>2025-05-25T13:08:41.000Z</time>
      </trkpt>
      <trkpt lat="43.06904" lon="5.91796">
        <ele>53.3</ele>
        <time>2025-05-25T13:08:45.000Z</time>
      </trkpt>
      <trkpt lat="43.06903" lon="5.91795">
        <ele>53.2</ele>
        <time>2025-05-25T13:08:46.000Z</time>
      </trkpt>
      <trkpt lat="43.06903" lon="5.91794">
        <ele>53.2</ele>
        <time>2025-05-25T13:08:47.000Z</time>
      </trkpt>
      <trkpt lat="43.06903" lon="5.91794">
        <ele>53.2</ele>
        <time>2025-05-25T13:08:48.000Z</time>
      </trkpt>
      <trkpt lat="43.06903" lon="5.91794">
        <ele>53.2</ele>
        <time>2025-05-25T13:08:49.000Z</time>
      </trkpt>
      <trkpt lat="43.069" lon="5.91781">
        <ele>52.4</ele>
        <time>2025-05-25T13:09:06.000Z</time>
      </trkpt>
      <trkpt lat="43.06903" lon="5.91768">
        <ele>51.7</ele>
        <time>2025-05-25T13:09:19.000Z</time>
      </trkpt>
      <trkpt lat="43.06903" lon="5.91756">
        <ele>51.7</ele>
        <time>2025-05-25T13:09:33.000Z</time>
      </trkpt>
      <trkpt lat="43.06905" lon="5.91743">
        <ele>53.7</ele>
        <time>2025-05-25T13:09:57.000Z</time>
      </trkpt>
      <trkpt lat="43.06899" lon="5.91732">
        <ele>55.3</ele>
        <time>2025-05-25T13:10:11.000Z</time>
      </trkpt>
      <trkpt lat="43.06899" lon="5.9172">
        <ele>57.6</ele>
        <time>2025-05-25T13:10:36.000Z</time>
      </trkpt>
      <trkpt lat="43.06892" lon="5.9171">
        <ele>59.9</ele>
        <time>2025-05-25T13:11:00.000Z</time>
      </trkpt>
      <trkpt lat="43.06888" lon="5.91699">
        <ele>62.1</ele>
        <time>2025-05-25T13:11:21.000Z</time>
      </trkpt>
      <trkpt lat="43.06893" lon="5.91688">
        <ele>63.5</ele>
        <time>2025-05-25T13:11:40.000Z</time>
      </trkpt>
      <trkpt lat="43.06901" lon="5.91683">
        <ele>63.3</ele>
        <time>2025-05-25T13:11:53.000Z</time>
      </trkpt>
      <trkpt lat="43.06908" lon="5.91674">
        <ele>63.1</ele>
        <time>2025-05-25T13:12:06.000Z</time>
      </trkpt>
      <trkpt lat="43.06917" lon="5.91669">
        <ele>62.4</ele>
        <time>2025-05-25T13:12:25.000Z</time>
      </trkpt>
      <trkpt lat="43.06917" lon="5.91656">
        <ele>61.6</ele>
        <time>2025-05-25T13:12:35.000Z</time>
      </trkpt>
      <trkpt lat="43.06914" lon="5.91645">
        <ele>61.8</ele>
        <time>2025-05-25T13:12:48.000Z</time>
      </trkpt>
      <trkpt lat="43.06913" lon="5.91632">
        <ele>63</ele>
        <time>2025-05-25T13:13:05.000Z</time>
      </trkpt>
      <trkpt lat="43.06908" lon="5.91621">
        <ele>65.4</ele>
        <time>2025-05-25T13:13:25.000Z</time>
      </trkpt>
      <trkpt lat="43.06906" lon="5.91609">
        <ele>67.9</ele>
        <time>2025-05-25T13:13:45.000Z</time>
      </trkpt>
      <trkpt lat="43.06905" lon="5.91596">
        <ele>68.6</ele>
        <time>2025-05-25T13:13:56.000Z</time>
      </trkpt>
      <trkpt lat="43.06904" lon="5.91583">
        <ele>68.9</ele>
        <time>2025-05-25T13:14:06.000Z</time>
      </trkpt>
      <trkpt lat="43.06904" lon="5.91571">
        <ele>69.5</ele>
        <time>2025-05-25T13:14:20.000Z</time>
      </trkpt>
      <trkpt lat="43.06911" lon="5.91563">
        <ele>69.4</ele>
        <time>2025-05-25T13:14:33.000Z</time>
      </trkpt>
      <trkpt lat="43.06918" lon="5.91553">
        <ele>67.9</ele>
        <time>2025-05-25T13:14:48.000Z</time>
      </trkpt>
      <trkpt lat="43.06924" lon="5.91543">
        <ele>65.9</ele>
        <time>2025-05-25T13:15:10.000Z</time>
      </trkpt>
      <trkpt lat="43.06923" lon="5.9153">
        <ele>65.1</ele>
        <time>2025-05-25T13:15:20.000Z</time>
      </trkpt>
      <trkpt lat="43.06921" lon="5.91517">
        <ele>64.5</ele>
        <time>2025-05-25T13:15:29.000Z</time>
      </trkpt>
      <trkpt lat="43.0692" lon="5.91516">
        <ele>64.1</ele>
        <time>2025-05-25T13:15:35.000Z</time>
      </trkpt>
      <trkpt lat="43.0692" lon="5.91516">
        <ele>64.1</ele>
        <time>2025-05-25T13:15:36.000Z</time>
      </trkpt>
      <trkpt lat="43.0692" lon="5.91516">
        <ele>64.1</ele>
        <time>2025-05-25T13:15:37.000Z</time>
      </trkpt>
      <trkpt lat="43.06919" lon="5.91512">
        <ele>63.7</ele>
        <time>2025-05-25T13:15:57.000Z</time>
      </trkpt>
      <trkpt lat="43.06918" lon="5.91511">
        <ele>63.7</ele>
        <time>2025-05-25T13:15:58.000Z</time>
      </trkpt>
      <trkpt lat="43.06917" lon="5.91511">
        <ele>63.7</ele>
        <time>2025-05-25T13:15:59.000Z</time>
      </trkpt>
      <trkpt lat="43.06908" lon="5.91506">
        <ele>63.5</ele>
        <time>2025-05-25T13:16:09.000Z</time>
      </trkpt>
      <trkpt lat="43.06899" lon="5.91501">
        <ele>63.2</ele>
        <time>2025-05-25T13:16:24.000Z</time>
      </trkpt>
      <trkpt lat="43.06891" lon="5.91496">
        <ele>62.5</ele>
        <time>2025-05-25T13:16:40.000Z</time>
      </trkpt>
      <trkpt lat="43.06883" lon="5.91489">
        <ele>62.2</ele>
        <time>2025-05-25T13:16:53.000Z</time>
      </trkpt>
      <trkpt lat="43.06874" lon="5.91484">
        <ele>62.4</ele>
        <time>2025-05-25T13:17:08.000Z</time>
      </trkpt>
      <trkpt lat="43.06866" lon="5.91477">
        <ele>62.4</ele>
        <time>2025-05-25T13:17:19.000Z</time>
      </trkpt>
      <trkpt lat="43.06856" lon="5.91481">
        <ele>62.4</ele>
        <time>2025-05-25T13:17:29.000Z</time>
      </trkpt>
      <trkpt lat="43.06848" lon="5.91487">
        <ele>62.5</ele>
        <time>2025-05-25T13:17:39.000Z</time>
      </trkpt>
      <trkpt lat="43.06841" lon="5.91496">
        <ele>62.6</ele>
        <time>2025-05-25T13:17:50.000Z</time>
      </trkpt>
      <trkpt lat="43.06834" lon="5.91505">
        <ele>63</ele>
        <time>2025-05-25T13:18:01.000Z</time>
      </trkpt>
      <trkpt lat="43.06833" lon="5.91507">
        <ele>63.2</ele>
        <time>2025-05-25T13:18:10.000Z</time>
      </trkpt>
      <trkpt lat="43.06833" lon="5.91507">
        <ele>63.2</ele>
        <time>2025-05-25T13:18:11.000Z</time>
      </trkpt>
      <trkpt lat="43.06832" lon="5.91507">
        <ele>63.2</ele>
        <time>2025-05-25T13:18:12.000Z</time>
      </trkpt>
      <trkpt lat="43.06831" lon="5.91508">
        <ele>63.3</ele>
        <time>2025-05-25T13:18:13.000Z</time>
      </trkpt>
      <trkpt lat="43.06831" lon="5.91508">
        <ele>63.3</ele>
        <time>2025-05-25T13:18:14.000Z</time>
      </trkpt>
      <trkpt lat="43.0683" lon="5.91507">
        <ele>63.3</ele>
        <time>2025-05-25T13:18:15.000Z</time>
      </trkpt>
      <trkpt lat="43.0683" lon="5.91507">
        <ele>63.4</ele>
        <time>2025-05-25T13:18:18.000Z</time>
      </trkpt>
      <trkpt lat="43.0683" lon="5.91507">
        <ele>63.4</ele>
        <time>2025-05-25T13:18:19.000Z</time>
      </trkpt>
      <trkpt lat="43.06828" lon="5.91508">
        <ele>63.5</ele>
        <time>2025-05-25T13:18:25.000Z</time>
      </trkpt>
      <trkpt lat="43.06828" lon="5.91509">
        <ele>63.5</ele>
        <time>2025-05-25T13:18:26.000Z</time>
      </trkpt>
      <trkpt lat="43.06826" lon="5.91508">
        <ele>63.4</ele>
        <time>2025-05-25T13:18:42.000Z</time>
      </trkpt>
      <trkpt lat="43.06826" lon="5.91509">
        <ele>63.3</ele>
        <time>2025-05-25T13:18:43.000Z</time>
      </trkpt>
      <trkpt lat="43.06825" lon="5.91509">
        <ele>63.3</ele>
        <time>2025-05-25T13:18:44.000Z</time>
      </trkpt>
      <trkpt lat="43.06825" lon="5.9151">
        <ele>63.3</ele>
        <time>2025-05-25T13:18:45.000Z</time>
      </trkpt>
      <trkpt lat="43.06824" lon="5.91511">
        <ele>63.3</ele>
        <time>2025-05-25T13:18:46.000Z</time>
      </trkpt>
      <trkpt lat="43.06823" lon="5.91512">
        <ele>63.3</ele>
        <time>2025-05-25T13:18:47.000Z</time>
      </trkpt>
      <trkpt lat="43.06817" lon="5.91519">
        <ele>63.3</ele>
        <time>2025-05-25T13:19:00.000Z</time>
      </trkpt>
      <trkpt lat="43.06817" lon="5.91519">
        <ele>63.3</ele>
        <time>2025-05-25T13:19:01.000Z</time>
      </trkpt>
      <trkpt lat="43.06817" lon="5.91519">
        <ele>63.3</ele>
        <time>2025-05-25T13:19:10.000Z</time>
      </trkpt>
      <trkpt lat="43.06817" lon="5.91519">
        <ele>63.3</ele>
        <time>2025-05-25T13:19:11.000Z</time>
      </trkpt>
      <trkpt lat="43.06817" lon="5.91519">
        <ele>63.3</ele>
        <time>2025-05-25T13:19:12.000Z</time>
      </trkpt>
      <trkpt lat="43.06817" lon="5.91519">
        <ele>63.3</ele>
        <time>2025-05-25T13:19:13.000Z</time>
      </trkpt>
      <trkpt lat="43.06817" lon="5.91519">
        <ele>63.3</ele>
        <time>2025-05-25T13:19:14.000Z</time>
      </trkpt>
      <trkpt lat="43.06818" lon="5.91519">
        <ele>63.3</ele>
        <time>2025-05-25T13:19:18.000Z</time>
      </trkpt>
      <trkpt lat="43.06818" lon="5.91519">
        <ele>63.3</ele>
        <time>2025-05-25T13:19:19.000Z</time>
      </trkpt>
      <trkpt lat="43.06818" lon="5.91519">
        <ele>63.3</ele>
        <time>2025-05-25T13:19:20.000Z</time>
      </trkpt>
      <trkpt lat="43.06818" lon="5.91519">
        <ele>63.3</ele>
        <time>2025-05-25T13:19:21.000Z</time>
      </trkpt>
      <trkpt lat="43.06819" lon="5.9152">
        <ele>63.4</ele>
        <time>2025-05-25T13:19:27.000Z</time>
      </trkpt>
      <trkpt lat="43.06819" lon="5.91521">
        <ele>63.4</ele>
        <time>2025-05-25T13:19:28.000Z</time>
      </trkpt>
      <trkpt lat="43.06819" lon="5.91521">
        <ele>63.4</ele>
        <time>2025-05-25T13:19:29.000Z</time>
      </trkpt>
      <trkpt lat="43.06819" lon="5.91521">
        <ele>63.4</ele>
        <time>2025-05-25T13:19:32.000Z</time>
      </trkpt>
      <trkpt lat="43.06819" lon="5.91521">
        <ele>63.4</ele>
        <time>2025-05-25T13:19:33.000Z</time>
      </trkpt>
      <trkpt lat="43.06819" lon="5.91521">
        <ele>63.4</ele>
        <time>2025-05-25T13:19:34.000Z</time>
      </trkpt>
      <trkpt lat="43.06819" lon="5.91521">
        <ele>63.4</ele>
        <time>2025-05-25T13:19:37.000Z</time>
      </trkpt>
      <trkpt lat="43.06819" lon="5.91521">
        <ele>63.4</ele>
        <time>2025-05-25T13:19:38.000Z</time>
      </trkpt>
      <trkpt lat="43.06819" lon="5.91521">
        <ele>63.4</ele>
        <time>2025-05-25T13:19:39.000Z</time>
      </trkpt>
      <trkpt lat="43.06819" lon="5.91521">
        <ele>63.4</ele>
        <time>2025-05-25T13:19:40.000Z</time>
      </trkpt>
      <trkpt lat="43.06819" lon="5.91521">
        <ele>63.4</ele>
        <time>2025-05-25T13:19:41.000Z</time>
      </trkpt>
      <trkpt lat="43.06819" lon="5.91521">
        <ele>63.4</ele>
        <time>2025-05-25T13:19:42.000Z</time>
      </trkpt>
      <trkpt lat="43.06819" lon="5.91521">
        <ele>63.4</ele>
        <time>2025-05-25T13:19:43.000Z</time>
      </trkpt>
      <trkpt lat="43.06819" lon="5.91521">
        <ele>63.4</ele>
        <time>2025-05-25T13:19:44.000Z</time>
      </trkpt>
      <trkpt lat="43.06819" lon="5.91521">
        <ele>63.4</ele>
        <time>2025-05-25T13:19:45.000Z</time>
      </trkpt>
      <trkpt lat="43.06819" lon="5.91521">
        <ele>63.4</ele>
        <time>2025-05-25T13:19:46.000Z</time>
      </trkpt>
      <trkpt lat="43.06819" lon="5.91521">
        <ele>63.4</ele>
        <time>2025-05-25T13:19:47.000Z</time>
      </trkpt>
      <trkpt lat="43.06819" lon="5.91522">
        <ele>63.4</ele>
        <time>2025-05-25T13:19:53.000Z</time>
      </trkpt>
      <trkpt lat="43.0682" lon="5.91522">
        <ele>63.4</ele>
        <time>2025-05-25T13:19:54.000Z</time>
      </trkpt>
      <trkpt lat="43.06827" lon="5.91513">
        <ele>63.4</ele>
        <time>2025-05-25T13:20:05.000Z</time>
      </trkpt>
      <trkpt lat="43.06819" lon="5.91506">
        <ele>62.2</ele>
        <time>2025-05-25T13:20:20.000Z</time>
      </trkpt>
      <trkpt lat="43.06818" lon="5.91505">
        <ele>60.2</ele>
        <time>2025-05-25T13:20:32.000Z</time>
      </trkpt>
      <trkpt lat="43.06818" lon="5.91505">
        <ele>60.1</ele>
        <time>2025-05-25T13:20:33.000Z</time>
      </trkpt>
      <trkpt lat="43.06818" lon="5.91505">
        <ele>60</ele>
        <time>2025-05-25T13:20:34.000Z</time>
      </trkpt>
      <trkpt lat="43.06818" lon="5.91505">
        <ele>59.9</ele>
        <time>2025-05-25T13:20:35.000Z</time>
      </trkpt>
      <trkpt lat="43.06818" lon="5.91505">
        <ele>59.8</ele>
        <time>2025-05-25T13:20:36.000Z</time>
      </trkpt>
      <trkpt lat="43.06818" lon="5.91504">
        <ele>59.5</ele>
        <time>2025-05-25T13:20:40.000Z</time>
      </trkpt>
      <trkpt lat="43.06818" lon="5.91504">
        <ele>59.5</ele>
        <time>2025-05-25T13:20:41.000Z</time>
      </trkpt>
      <trkpt lat="43.06818" lon="5.91504">
        <ele>59.4</ele>
        <time>2025-05-25T13:20:42.000Z</time>
      </trkpt>
      <trkpt lat="43.06818" lon="5.91503">
        <ele>59</ele>
        <time>2025-05-25T13:20:51.000Z</time>
      </trkpt>
      <trkpt lat="43.06818" lon="5.91503">
        <ele>59</ele>
        <time>2025-05-25T13:20:52.000Z</time>
      </trkpt>
      <trkpt lat="43.06812" lon="5.91493">
        <ele>56.9</ele>
        <time>2025-05-25T13:21:15.000Z</time>
      </trkpt>
      <trkpt lat="43.06806" lon="5.91483">
        <ele>54</ele>
        <time>2025-05-25T13:21:35.000Z</time>
      </trkpt>
      <trkpt lat="43.06804" lon="5.9147">
        <ele>51.6</ele>
        <time>2025-05-25T13:21:52.000Z</time>
      </trkpt>
      <trkpt lat="43.06799" lon="5.91459">
        <ele>49.2</ele>
        <time>2025-05-25T13:22:11.000Z</time>
      </trkpt>
      <trkpt lat="43.06798" lon="5.91447">
        <ele>46.8</ele>
        <time>2025-05-25T13:22:29.000Z</time>
      </trkpt>
      <trkpt lat="43.06795" lon="5.91436">
        <ele>43.8</ele>
        <time>2025-05-25T13:22:54.000Z</time>
      </trkpt>
      <trkpt lat="43.06791" lon="5.91424">
        <ele>41.9</ele>
        <time>2025-05-25T13:23:07.000Z</time>
      </trkpt>
      <trkpt lat="43.06791" lon="5.9141">
        <ele>40.3</ele>
        <time>2025-05-25T13:23:18.000Z</time>
      </trkpt>
      <trkpt lat="43.0679" lon="5.91397">
        <ele>39.8</ele>
        <time>2025-05-25T13:23:27.000Z</time>
      </trkpt>
      <trkpt lat="43.06781" lon="5.91393">
        <ele>39.5</ele>
        <time>2025-05-25T13:23:38.000Z</time>
      </trkpt>
      <trkpt lat="43.06774" lon="5.91385">
        <ele>38</ele>
        <time>2025-05-25T13:23:56.000Z</time>
      </trkpt>
      <trkpt lat="43.06773" lon="5.91372">
        <ele>35.1</ele>
        <time>2025-05-25T13:24:12.000Z</time>
      </trkpt>
      <trkpt lat="43.06773" lon="5.9136">
        <ele>33.7</ele>
        <time>2025-05-25T13:24:23.000Z</time>
      </trkpt>
      <trkpt lat="43.06782" lon="5.91354">
        <ele>33.8</ele>
        <time>2025-05-25T13:24:43.000Z</time>
      </trkpt>
      <trkpt lat="43.06791" lon="5.91349">
        <ele>35</ele>
        <time>2025-05-25T13:24:58.000Z</time>
      </trkpt>
      <trkpt lat="43.06792" lon="5.91337">
        <ele>35.1</ele>
        <time>2025-05-25T13:25:10.000Z</time>
      </trkpt>
      <trkpt lat="43.06786" lon="5.91327">
        <ele>33.9</ele>
        <time>2025-05-25T13:25:22.000Z</time>
      </trkpt>
      <trkpt lat="43.06781" lon="5.91316">
        <ele>32.1</ele>
        <time>2025-05-25T13:25:38.000Z</time>
      </trkpt>
      <trkpt lat="43.06775" lon="5.91307">
        <ele>30.3</ele>
        <time>2025-05-25T13:25:54.000Z</time>
      </trkpt>
      <trkpt lat="43.06769" lon="5.91297">
        <ele>29.4</ele>
        <time>2025-05-25T13:26:03.000Z</time>
      </trkpt>
      <trkpt lat="43.06767" lon="5.91284">
        <ele>28.6</ele>
        <time>2025-05-25T13:26:14.000Z</time>
      </trkpt>
      <trkpt lat="43.06762" lon="5.91272">
        <ele>28.2</ele>
        <time>2025-05-25T13:26:24.000Z</time>
      </trkpt>
      <trkpt lat="43.06759" lon="5.9126">
        <ele>27.7</ele>
        <time>2025-05-25T13:26:34.000Z</time>
      </trkpt>
      <trkpt lat="43.0676" lon="5.91247">
        <ele>27.3</ele>
        <time>2025-05-25T13:26:42.000Z</time>
      </trkpt>
      <trkpt lat="43.06764" lon="5.91236">
        <ele>26.6</ele>
        <time>2025-05-25T13:26:50.000Z</time>
      </trkpt>
      <trkpt lat="43.06767" lon="5.91223">
        <ele>25.8</ele>
        <time>2025-05-25T13:26:58.000Z</time>
      </trkpt>
      <trkpt lat="43.06763" lon="5.91212">
        <ele>25.2</ele>
        <time>2025-05-25T13:27:05.000Z</time>
      </trkpt>
      <trkpt lat="43.06757" lon="5.91201">
        <ele>25.1</ele>
        <time>2025-05-25T13:27:12.000Z</time>
      </trkpt>
      <trkpt lat="43.06753" lon="5.9119">
        <ele>25.2</ele>
        <time>2025-05-25T13:27:20.000Z</time>
      </trkpt>
      <trkpt lat="43.06749" lon="5.91179">
        <ele>25.4</ele>
        <time>2025-05-25T13:27:30.000Z</time>
      </trkpt>
      <trkpt lat="43.0674" lon="5.91173">
        <ele>25.7</ele>
        <time>2025-05-25T13:27:37.000Z</time>
      </trkpt>
      <trkpt lat="43.06739" lon="5.9116">
        <ele>25.9</ele>
        <time>2025-05-25T13:27:45.000Z</time>
      </trkpt>
      <trkpt lat="43.06737" lon="5.91147">
        <ele>25.9</ele>
        <time>2025-05-25T13:27:54.000Z</time>
      </trkpt>
      <trkpt lat="43.06737" lon="5.91134">
        <ele>25.9</ele>
        <time>2025-05-25T13:28:03.000Z</time>
      </trkpt>
      <trkpt lat="43.06745" lon="5.91126">
        <ele>25.5</ele>
        <time>2025-05-25T13:28:13.000Z</time>
      </trkpt>
      <trkpt lat="43.06754" lon="5.91121">
        <ele>24.1</ele>
        <time>2025-05-25T13:28:26.000Z</time>
      </trkpt>
      <trkpt lat="43.06763" lon="5.91114">
        <ele>22.9</ele>
        <time>2025-05-25T13:28:34.000Z</time>
      </trkpt>
      <trkpt lat="43.0677" lon="5.91106">
        <ele>22</ele>
        <time>2025-05-25T13:28:41.000Z</time>
      </trkpt>
      <trkpt lat="43.06765" lon="5.91095">
        <ele>21.4</ele>
        <time>2025-05-25T13:28:53.000Z</time>
      </trkpt>
      <trkpt lat="43.06757" lon="5.91087">
        <ele>21.6</ele>
        <time>2025-05-25T13:29:01.000Z</time>
      </trkpt>
      <trkpt lat="43.0675" lon="5.91079">
        <ele>21.7</ele>
        <time>2025-05-25T13:29:13.000Z</time>
      </trkpt>
      <trkpt lat="43.06751" lon="5.91073">
        <ele>21.6</ele>
        <time>2025-05-25T13:29:23.000Z</time>
      </trkpt>
      <trkpt lat="43.06751" lon="5.91073">
        <ele>21.6</ele>
        <time>2025-05-25T13:29:24.000Z</time>
      </trkpt>
      <trkpt lat="43.06751" lon="5.91071">
        <ele>21</ele>
        <time>2025-05-25T13:29:36.000Z</time>
      </trkpt>
      <trkpt lat="43.06751" lon="5.91071">
        <ele>21</ele>
        <time>2025-05-25T13:29:37.000Z</time>
      </trkpt>
      <trkpt lat="43.06749" lon="5.91058">
        <ele>19.7</ele>
        <time>2025-05-25T13:29:58.000Z</time>
      </trkpt>
      <trkpt lat="43.06753" lon="5.91046">
        <ele>18.5</ele>
        <time>2025-05-25T13:30:12.000Z</time>
      </trkpt>
      <trkpt lat="43.06755" lon="5.91042">
        <ele>18</ele>
        <time>2025-05-25T13:30:22.000Z</time>
      </trkpt>
      <trkpt lat="43.06755" lon="5.91042">
        <ele>18</ele>
        <time>2025-05-25T13:30:23.000Z</time>
      </trkpt>
      <trkpt lat="43.06755" lon="5.91042">
        <ele>17.9</ele>
        <time>2025-05-25T13:30:24.000Z</time>
      </trkpt>
      <trkpt lat="43.06755" lon="5.91042">
        <ele>17.8</ele>
        <time>2025-05-25T13:30:27.000Z</time>
      </trkpt>
      <trkpt lat="43.06756" lon="5.91042">
        <ele>17.7</ele>
        <time>2025-05-25T13:30:28.000Z</time>
      </trkpt>
      <trkpt lat="43.06756" lon="5.91041">
        <ele>17.7</ele>
        <time>2025-05-25T13:30:29.000Z</time>
      </trkpt>
      <trkpt lat="43.06765" lon="5.91036">
        <ele>17.4</ele>
        <time>2025-05-25T13:30:44.000Z</time>
      </trkpt>
      <trkpt lat="43.06772" lon="5.91027">
        <ele>17.2</ele>
        <time>2025-05-25T13:30:53.000Z</time>
      </trkpt>
      <trkpt lat="43.06776" lon="5.91019">
        <ele>16.5</ele>
        <time>2025-05-25T13:31:08.000Z</time>
      </trkpt>
      <trkpt lat="43.06776" lon="5.91019">
        <ele>16.5</ele>
        <time>2025-05-25T13:31:09.000Z</time>
      </trkpt>
      <trkpt lat="43.06777" lon="5.91018">
        <ele>16.1</ele>
        <time>2025-05-25T13:31:27.000Z</time>
      </trkpt>
      <trkpt lat="43.06778" lon="5.91018">
        <ele>16.1</ele>
        <time>2025-05-25T13:31:28.000Z</time>
      </trkpt>
      <trkpt lat="43.06778" lon="5.91017">
        <ele>16.1</ele>
        <time>2025-05-25T13:31:29.000Z</time>
      </trkpt>
      <trkpt lat="43.06781" lon="5.91005">
        <ele>15.8</ele>
        <time>2025-05-25T13:31:42.000Z</time>
      </trkpt>
      <trkpt lat="43.06785" lon="5.90993">
        <ele>15.4</ele>
        <time>2025-05-25T13:31:54.000Z</time>
      </trkpt>
      <trkpt lat="43.06788" lon="5.90981">
        <ele>14</ele>
        <time>2025-05-25T13:32:13.000Z</time>
      </trkpt>
      <trkpt lat="43.06794" lon="5.90972">
        <ele>12.8</ele>
        <time>2025-05-25T13:32:29.000Z</time>
      </trkpt>
      <trkpt lat="43.06796" lon="5.9097">
        <ele>11.6</ele>
        <time>2025-05-25T13:32:45.000Z</time>
      </trkpt>
      <trkpt lat="43.06795" lon="5.9097">
        <ele>11.5</ele>
        <time>2025-05-25T13:32:46.000Z</time>
      </trkpt>
      <trkpt lat="43.06795" lon="5.90969">
        <ele>11.4</ele>
        <time>2025-05-25T13:32:47.000Z</time>
      </trkpt>
      <trkpt lat="43.06795" lon="5.90968">
        <ele>11.4</ele>
        <time>2025-05-25T13:32:48.000Z</time>
      </trkpt>
      <trkpt lat="43.06796" lon="5.90967">
        <ele>11.3</ele>
        <time>2025-05-25T13:32:49.000Z</time>
      </trkpt>
      <trkpt lat="43.068" lon="5.90956">
        <ele>9.4</ele>
        <time>2025-05-25T13:33:06.000Z</time>
      </trkpt>
      <trkpt lat="43.06808" lon="5.90949">
        <ele>9.1</ele>
        <time>2025-05-25T13:33:20.000Z</time>
      </trkpt>
      <trkpt lat="43.06802" lon="5.90938">
        <ele>8</ele>
        <time>2025-05-25T13:33:39.000Z</time>
      </trkpt>
      <trkpt lat="43.06809" lon="5.9093">
        <ele>6.3</ele>
        <time>2025-05-25T13:34:02.000Z</time>
      </trkpt>
      <trkpt lat="43.06817" lon="5.90923">
        <ele>7</ele>
        <time>2025-05-25T13:34:13.000Z</time>
      </trkpt>
      <trkpt lat="43.06826" lon="5.90919">
        <ele>7.5</ele>
        <time>2025-05-25T13:34:26.000Z</time>
      </trkpt>
      <trkpt lat="43.06834" lon="5.90911">
        <ele>7.6</ele>
        <time>2025-05-25T13:34:39.000Z</time>
      </trkpt>
      <trkpt lat="43.06842" lon="5.90906">
        <ele>7.8</ele>
        <time>2025-05-25T13:34:50.000Z</time>
      </trkpt>
      <trkpt lat="43.0685" lon="5.90902">
        <ele>8.5</ele>
        <time>2025-05-25T13:35:06.000Z</time>
      </trkpt>
      <trkpt lat="43.0685" lon="5.90902">
        <ele>8.5</ele>
        <time>2025-05-25T13:35:07.000Z</time>
      </trkpt>
      <trkpt lat="43.0685" lon="5.90901">
        <ele>8.6</ele>
        <time>2025-05-25T13:35:10.000Z</time>
      </trkpt>
      <trkpt lat="43.0685" lon="5.90901">
        <ele>8.6</ele>
        <time>2025-05-25T13:35:11.000Z</time>
      </trkpt>
      <trkpt lat="43.06848" lon="5.90888">
        <ele>4.3</ele>
        <time>2025-05-25T13:35:48.000Z</time>
      </trkpt>
      <trkpt lat="43.06855" lon="5.90881">
        <ele>3.2</ele>
        <time>2025-05-25T13:36:23.000Z</time>
      </trkpt>
      <trkpt lat="43.06864" lon="5.9088">
        <ele>7</ele>
        <time>2025-05-25T13:36:56.000Z</time>
      </trkpt>
      <trkpt lat="43.06874" lon="5.90879">
        <ele>6.4</ele>
        <time>2025-05-25T13:37:06.000Z</time>
      </trkpt>
      <trkpt lat="43.06881" lon="5.90871">
        <ele>6.1</ele>
        <time>2025-05-25T13:37:15.000Z</time>
      </trkpt>
      <trkpt lat="43.06889" lon="5.9087">
        <ele>5.4</ele>
        <time>2025-05-25T13:37:25.000Z</time>
      </trkpt>
      <trkpt lat="43.06889" lon="5.90871">
        <ele>5.4</ele>
        <time>2025-05-25T13:37:26.000Z</time>
      </trkpt>
      <trkpt lat="43.0689" lon="5.90871">
        <ele>5.3</ele>
        <time>2025-05-25T13:37:27.000Z</time>
      </trkpt>
      <trkpt lat="43.06891" lon="5.90872">
        <ele>5.3</ele>
        <time>2025-05-25T13:37:28.000Z</time>
      </trkpt>
      <trkpt lat="43.06891" lon="5.90872">
        <ele>5.2</ele>
        <time>2025-05-25T13:37:29.000Z</time>
      </trkpt>
      <trkpt lat="43.06889" lon="5.90872">
        <ele>5</ele>
        <time>2025-05-25T13:37:36.000Z</time>
      </trkpt>
      <trkpt lat="43.06888" lon="5.90873">
        <ele>4.9</ele>
        <time>2025-05-25T13:37:37.000Z</time>
      </trkpt>
      <trkpt lat="43.06881" lon="5.9087">
        <ele>4.8</ele>
        <time>2025-05-25T13:37:55.000Z</time>
      </trkpt>
      <trkpt lat="43.0688" lon="5.9087">
        <ele>4.8</ele>
        <time>2025-05-25T13:37:56.000Z</time>
      </trkpt>
      <trkpt lat="43.06881" lon="5.90872">
        <ele>4.8</ele>
        <time>2025-05-25T13:37:57.000Z</time>
      </trkpt>
      <trkpt lat="43.06881" lon="5.90872">
        <ele>4.8</ele>
        <time>2025-05-25T13:37:58.000Z</time>
      </trkpt>
      <trkpt lat="43.0688" lon="5.90872">
        <ele>4.8</ele>
        <time>2025-05-25T13:37:59.000Z</time>
      </trkpt>
      <trkpt lat="43.0688" lon="5.9087">
        <ele>4.8</ele>
        <time>2025-05-25T13:38:00.000Z</time>
      </trkpt>
      <trkpt lat="43.06881" lon="5.90869">
        <ele>4.8</ele>
        <time>2025-05-25T13:38:11.000Z</time>
      </trkpt>
      <trkpt lat="43.06881" lon="5.90868">
        <ele>4.8</ele>
        <time>2025-05-25T13:38:12.000Z</time>
      </trkpt>
      <trkpt lat="43.06882" lon="5.90868">
        <ele>4.8</ele>
        <time>2025-05-25T13:38:13.000Z</time>
      </trkpt>
      <trkpt lat="43.06882" lon="5.90868">
        <ele>4.8</ele>
        <time>2025-05-25T13:38:14.000Z</time>
      </trkpt>
      <trkpt lat="43.06882" lon="5.90869">
        <ele>4.8</ele>
        <time>2025-05-25T13:38:15.000Z</time>
      </trkpt>
      <trkpt lat="43.06882" lon="5.9087">
        <ele>4.8</ele>
        <time>2025-05-25T13:38:16.000Z</time>
      </trkpt>
      <trkpt lat="43.06882" lon="5.9087">
        <ele>4.8</ele>
        <time>2025-05-25T13:38:17.000Z</time>
      </trkpt>
      <trkpt lat="43.06882" lon="5.90872">
        <ele>4.8</ele>
        <time>2025-05-25T13:38:21.000Z</time>
      </trkpt>
      <trkpt lat="43.06882" lon="5.90872">
        <ele>4.8</ele>
        <time>2025-05-25T13:38:22.000Z</time>
      </trkpt>
      <trkpt lat="43.06878" lon="5.90867">
        <ele>4.8</ele>
        <time>2025-05-25T13:39:00.000Z</time>
      </trkpt>
      <trkpt lat="43.06877" lon="5.90866">
        <ele>4.8</ele>
        <time>2025-05-25T13:39:01.000Z</time>
      </trkpt>
      <trkpt lat="43.06877" lon="5.90864">
        <ele>4.8</ele>
        <time>2025-05-25T13:39:02.000Z</time>
      </trkpt>
      <trkpt lat="43.06884" lon="5.90855">
        <ele>4.8</ele>
        <time>2025-05-25T13:39:15.000Z</time>
      </trkpt>
      <trkpt lat="43.0689" lon="5.90845">
        <ele>4.9</ele>
        <time>2025-05-25T13:39:27.000Z</time>
      </trkpt>
      <trkpt lat="43.06898" lon="5.90839">
        <ele>5</ele>
        <time>2025-05-25T13:39:37.000Z</time>
      </trkpt>
      <trkpt lat="43.06905" lon="5.9083">
        <ele>5</ele>
        <time>2025-05-25T13:39:48.000Z</time>
      </trkpt>
      <trkpt lat="43.06912" lon="5.90822">
        <ele>5.2</ele>
        <time>2025-05-25T13:39:59.000Z</time>
      </trkpt>
      <trkpt lat="43.0692" lon="5.90816">
        <ele>5.4</ele>
        <time>2025-05-25T13:40:13.000Z</time>
      </trkpt>
      <trkpt lat="43.06925" lon="5.90811">
        <ele>4.8</ele>
        <time>2025-05-25T13:40:25.000Z</time>
      </trkpt>
      <trkpt lat="43.06925" lon="5.90811">
        <ele>4.7</ele>
        <time>2025-05-25T13:40:26.000Z</time>
      </trkpt>
      <trkpt lat="43.06926" lon="5.90812">
        <ele>4.1</ele>
        <time>2025-05-25T13:40:37.000Z</time>
      </trkpt>
      <trkpt lat="43.06926" lon="5.90812">
        <ele>4</ele>
        <time>2025-05-25T13:40:38.000Z</time>
      </trkpt>
      <trkpt lat="43.06926" lon="5.90812">
        <ele>4</ele>
        <time>2025-05-25T13:40:39.000Z</time>
      </trkpt>
      <trkpt lat="43.06935" lon="5.90808">
        <ele>3.1</ele>
        <time>2025-05-25T13:40:58.000Z</time>
      </trkpt>
      <trkpt lat="43.06938" lon="5.90806">
        <ele>3.1</ele>
        <time>2025-05-25T13:41:07.000Z</time>
      </trkpt>
      <trkpt lat="43.06938" lon="5.90806">
        <ele>3.1</ele>
        <time>2025-05-25T13:41:08.000Z</time>
      </trkpt>
      <trkpt lat="43.06938" lon="5.90806">
        <ele>3.1</ele>
        <time>2025-05-25T13:41:09.000Z</time>
      </trkpt>
      <trkpt lat="43.06939" lon="5.90806">
        <ele>3</ele>
        <time>2025-05-25T13:41:13.000Z</time>
      </trkpt>
      <trkpt lat="43.0694" lon="5.90806">
        <ele>3</ele>
        <time>2025-05-25T13:41:14.000Z</time>
      </trkpt>
      <trkpt lat="43.06941" lon="5.90805">
        <ele>3</ele>
        <time>2025-05-25T13:41:15.000Z</time>
      </trkpt>
      <trkpt lat="43.06948" lon="5.90797">
        <ele>2.9</ele>
        <time>2025-05-25T13:41:27.000Z</time>
      </trkpt>
      <trkpt lat="43.06949" lon="5.90795">
        <ele>2.9</ele>
        <time>2025-05-25T13:41:35.000Z</time>
      </trkpt>
      <trkpt lat="43.06949" lon="5.90795">
        <ele>2.9</ele>
        <time>2025-05-25T13:41:36.000Z</time>
      </trkpt>
      <trkpt lat="43.0695" lon="5.90796">
        <ele>2.9</ele>
        <time>2025-05-25T13:41:37.000Z</time>
      </trkpt>
      <trkpt lat="43.06951" lon="5.90795">
        <ele>2.8</ele>
        <time>2025-05-25T13:41:38.000Z</time>
      </trkpt>
      <trkpt lat="43.06953" lon="5.90796">
        <ele>2.9</ele>
        <time>2025-05-25T13:41:39.000Z</time>
      </trkpt>
      <trkpt lat="43.06961" lon="5.9079">
        <ele>2.9</ele>
        <time>2025-05-25T13:41:53.000Z</time>
      </trkpt>
      <trkpt lat="43.0697" lon="5.90785">
        <ele>3.3</ele>
        <time>2025-05-25T13:42:10.000Z</time>
      </trkpt>
      <trkpt lat="43.06976" lon="5.90776">
        <ele>3.3</ele>
        <time>2025-05-25T13:42:23.000Z</time>
      </trkpt>
      <trkpt lat="43.06982" lon="5.90765">
        <ele>3.2</ele>
        <time>2025-05-25T13:42:33.000Z</time>
      </trkpt>
      <trkpt lat="43.06989" lon="5.90756">
        <ele>3.2</ele>
        <time>2025-05-25T13:42:44.000Z</time>
      </trkpt>
      <trkpt lat="43.06998" lon="5.90756">
        <ele>3.5</ele>
        <time>2025-05-25T13:42:54.000Z</time>
      </trkpt>
      <trkpt lat="43.07007" lon="5.9076">
        <ele>4.4</ele>
        <time>2025-05-25T13:43:11.000Z</time>
      </trkpt>
      <trkpt lat="43.07015" lon="5.90756">
        <ele>4.5</ele>
        <time>2025-05-25T13:43:19.000Z</time>
      </trkpt>
      <trkpt lat="43.07024" lon="5.9075">
        <ele>4.4</ele>
        <time>2025-05-25T13:43:31.000Z</time>
      </trkpt>
      <trkpt lat="43.07034" lon="5.9075">
        <ele>4.5</ele>
        <time>2025-05-25T13:43:40.000Z</time>
      </trkpt>
      <trkpt lat="43.07043" lon="5.9075">
        <ele>4.6</ele>
        <time>2025-05-25T13:43:48.000Z</time>
      </trkpt>
      <trkpt lat="43.07052" lon="5.9075">
        <ele>4.6</ele>
        <time>2025-05-25T13:44:01.000Z</time>
      </trkpt>
      <trkpt lat="43.07059" lon="5.90759">
        <ele>4.6</ele>
        <time>2025-05-25T13:44:10.000Z</time>
      </trkpt>
      <trkpt lat="43.07066" lon="5.90769">
        <ele>4.7</ele>
        <time>2025-05-25T13:44:20.000Z</time>
      </trkpt>
      <trkpt lat="43.07075" lon="5.90776">
        <ele>4.7</ele>
        <time>2025-05-25T13:44:29.000Z</time>
      </trkpt>
      <trkpt lat="43.07086" lon="5.90776">
        <ele>4.8</ele>
        <time>2025-05-25T13:44:38.000Z</time>
      </trkpt>
      <trkpt lat="43.07095" lon="5.90775">
        <ele>4.7</ele>
        <time>2025-05-25T13:44:47.000Z</time>
      </trkpt>
      <trkpt lat="43.07104" lon="5.90769">
        <ele>4.6</ele>
        <time>2025-05-25T13:44:56.000Z</time>
      </trkpt>
      <trkpt lat="43.07111" lon="5.9076">
        <ele>4.6</ele>
        <time>2025-05-25T13:45:04.000Z</time>
      </trkpt>
      <trkpt lat="43.07118" lon="5.90752">
        <ele>4.5</ele>
        <time>2025-05-25T13:45:12.000Z</time>
      </trkpt>
      <trkpt lat="43.07122" lon="5.90741">
        <ele>4.4</ele>
        <time>2025-05-25T13:45:21.000Z</time>
      </trkpt>
      <trkpt lat="43.07128" lon="5.90731">
        <ele>4.2</ele>
        <time>2025-05-25T13:45:37.000Z</time>
      </trkpt>
      <trkpt lat="43.07128" lon="5.9073">
        <ele>4.2</ele>
        <time>2025-05-25T13:45:43.000Z</time>
      </trkpt>
      <trkpt lat="43.07128" lon="5.9073">
        <ele>4.2</ele>
        <time>2025-05-25T13:45:44.000Z</time>
      </trkpt>
      <trkpt lat="43.07129" lon="5.90729">
        <ele>4.1</ele>
        <time>2025-05-25T13:45:47.000Z</time>
      </trkpt>
      <trkpt lat="43.07129" lon="5.90728">
        <ele>4.1</ele>
        <time>2025-05-25T13:45:48.000Z</time>
      </trkpt>
      <trkpt lat="43.0713" lon="5.90728">
        <ele>4.1</ele>
        <time>2025-05-25T13:45:49.000Z</time>
      </trkpt>
      <trkpt lat="43.07137" lon="5.9072">
        <ele>4.1</ele>
        <time>2025-05-25T13:46:01.000Z</time>
      </trkpt>
      <trkpt lat="43.07147" lon="5.90717">
        <ele>4.2</ele>
        <time>2025-05-25T13:46:13.000Z</time>
      </trkpt>
      <trkpt lat="43.07157" lon="5.9072">
        <ele>4.3</ele>
        <time>2025-05-25T13:46:22.000Z</time>
      </trkpt>
      <trkpt lat="43.07165" lon="5.90724">
        <ele>4.4</ele>
        <time>2025-05-25T13:46:30.000Z</time>
      </trkpt>
      <trkpt lat="43.07174" lon="5.90726">
        <ele>4.4</ele>
        <time>2025-05-25T13:46:40.000Z</time>
      </trkpt>
      <trkpt lat="43.07184" lon="5.90728">
        <ele>4.4</ele>
        <time>2025-05-25T13:46:49.000Z</time>
      </trkpt>
      <trkpt lat="43.07193" lon="5.9073">
        <ele>4.4</ele>
        <time>2025-05-25T13:46:59.000Z</time>
      </trkpt>
      <trkpt lat="43.07202" lon="5.90733">
        <ele>4.4</ele>
        <time>2025-05-25T13:47:10.000Z</time>
      </trkpt>
      <trkpt lat="43.07211" lon="5.90733">
        <ele>4.3</ele>
        <time>2025-05-25T13:47:20.000Z</time>
      </trkpt>
      <trkpt lat="43.0722" lon="5.90737">
        <ele>4.3</ele>
        <time>2025-05-25T13:47:30.000Z</time>
      </trkpt>
      <trkpt lat="43.07229" lon="5.90741">
        <ele>4.3</ele>
        <time>2025-05-25T13:47:42.000Z</time>
      </trkpt>
      <trkpt lat="43.07237" lon="5.90747">
        <ele>4.3</ele>
        <time>2025-05-25T13:47:52.000Z</time>
      </trkpt>
      <trkpt lat="43.07241" lon="5.90745">
        <ele>4.4</ele>
        <time>2025-05-25T13:47:57.000Z</time>
      </trkpt>
      <trkpt lat="43.07241" lon="5.90745">
        <ele>4.4</ele>
        <time>2025-05-25T13:47:58.000Z</time>
      </trkpt>
      <trkpt lat="43.07242" lon="5.90745">
        <ele>4.4</ele>
        <time>2025-05-25T13:47:59.000Z</time>
      </trkpt>
      <trkpt lat="43.07242" lon="5.90745">
        <ele>4.4</ele>
        <time>2025-05-25T13:48:00.000Z</time>
      </trkpt>
      <trkpt lat="43.07243" lon="5.90745">
        <ele>4.4</ele>
        <time>2025-05-25T13:48:01.000Z</time>
      </trkpt>
      <trkpt lat="43.0725" lon="5.90754">
        <ele>4.5</ele>
        <time>2025-05-25T13:48:11.000Z</time>
      </trkpt>
      <trkpt lat="43.07257" lon="5.90763">
        <ele>4.5</ele>
        <time>2025-05-25T13:48:19.000Z</time>
      </trkpt>
      <trkpt lat="43.07264" lon="5.90771">
        <ele>4.5</ele>
        <time>2025-05-25T13:48:26.000Z</time>
      </trkpt>
      <trkpt lat="43.07269" lon="5.90784">
        <ele>4.5</ele>
        <time>2025-05-25T13:48:32.000Z</time>
      </trkpt>
      <trkpt lat="43.07278" lon="5.90785">
        <ele>4.6</ele>
        <time>2025-05-25T13:48:40.000Z</time>
      </trkpt>
      <trkpt lat="43.07287" lon="5.90785">
        <ele>4.8</ele>
        <time>2025-05-25T13:48:48.000Z</time>
      </trkpt>
      <trkpt lat="43.07297" lon="5.90786">
        <ele>4.9</ele>
        <time>2025-05-25T13:48:56.000Z</time>
      </trkpt>
      <trkpt lat="43.07304" lon="5.90796">
        <ele>5.1</ele>
        <time>2025-05-25T13:49:08.000Z</time>
      </trkpt>
      <trkpt lat="43.07312" lon="5.908">
        <ele>5.4</ele>
        <time>2025-05-25T13:49:17.000Z</time>
      </trkpt>
      <trkpt lat="43.07322" lon="5.90801">
        <ele>5.8</ele>
        <time>2025-05-25T13:49:28.000Z</time>
      </trkpt>
      <trkpt lat="43.07331" lon="5.90802">
        <ele>5.9</ele>
        <time>2025-05-25T13:49:38.000Z</time>
      </trkpt>
      <trkpt lat="43.07339" lon="5.90809">
        <ele>6</ele>
        <time>2025-05-25T13:49:47.000Z</time>
      </trkpt>
      <trkpt lat="43.0734" lon="5.90811">
        <ele>6</ele>
        <time>2025-05-25T13:49:50.000Z</time>
      </trkpt>
      <trkpt lat="43.0734" lon="5.90811">
        <ele>6</ele>
        <time>2025-05-25T13:49:51.000Z</time>
      </trkpt>
      <trkpt lat="43.0734" lon="5.90812">
        <ele>6</ele>
        <time>2025-05-25T13:49:52.000Z</time>
      </trkpt>
      <trkpt lat="43.07341" lon="5.90812">
        <ele>6</ele>
        <time>2025-05-25T13:49:53.000Z</time>
      </trkpt>
      <trkpt lat="43.07341" lon="5.90811">
        <ele>6</ele>
        <time>2025-05-25T13:49:54.000Z</time>
      </trkpt>
      <trkpt lat="43.07351" lon="5.90815">
        <ele>6</ele>
        <time>2025-05-25T13:50:06.000Z</time>
      </trkpt>
      <trkpt lat="43.07361" lon="5.90812">
        <ele>6.1</ele>
        <time>2025-05-25T13:50:16.000Z</time>
      </trkpt>
      <trkpt lat="43.0737" lon="5.90812">
        <ele>6.2</ele>
        <time>2025-05-25T13:50:23.000Z</time>
      </trkpt>
      <trkpt lat="43.07379" lon="5.90817">
        <ele>6.3</ele>
        <time>2025-05-25T13:50:33.000Z</time>
      </trkpt>
      <trkpt lat="43.07388" lon="5.90822">
        <ele>6.3</ele>
        <time>2025-05-25T13:50:41.000Z</time>
      </trkpt>
      <trkpt lat="43.07397" lon="5.90824">
        <ele>6.3</ele>
        <time>2025-05-25T13:50:49.000Z</time>
      </trkpt>
      <trkpt lat="43.07405" lon="5.90829">
        <ele>6.3</ele>
        <time>2025-05-25T13:50:56.000Z</time>
      </trkpt>
      <trkpt lat="43.07415" lon="5.9083">
        <ele>6.3</ele>
        <time>2025-05-25T13:51:04.000Z</time>
      </trkpt>
      <trkpt lat="43.07423" lon="5.90837">
        <ele>6.4</ele>
        <time>2025-05-25T13:51:13.000Z</time>
      </trkpt>
      <trkpt lat="43.07429" lon="5.90846">
        <ele>6.4</ele>
        <time>2025-05-25T13:51:22.000Z</time>
      </trkpt>
      <trkpt lat="43.07432" lon="5.90858">
        <ele>6.5</ele>
        <time>2025-05-25T13:51:30.000Z</time>
      </trkpt>
      <trkpt lat="43.07435" lon="5.9087">
        <ele>6.6</ele>
        <time>2025-05-25T13:51:41.000Z</time>
      </trkpt>
      <trkpt lat="43.07436" lon="5.90884">
        <ele>6.8</ele>
        <time>2025-05-25T13:51:52.000Z</time>
      </trkpt>
      <trkpt lat="43.07433" lon="5.90897">
        <ele>6.9</ele>
        <time>2025-05-25T13:52:00.000Z</time>
      </trkpt>
      <trkpt lat="43.07428" lon="5.90908">
        <ele>7</ele>
        <time>2025-05-25T13:52:09.000Z</time>
      </trkpt>
      <trkpt lat="43.07423" lon="5.90919">
        <ele>7.2</ele>
        <time>2025-05-25T13:52:19.000Z</time>
      </trkpt>
      <trkpt lat="43.07422" lon="5.90932">
        <ele>7.3</ele>
        <time>2025-05-25T13:52:29.000Z</time>
      </trkpt>
      <trkpt lat="43.07423" lon="5.90944">
        <ele>7.4</ele>
        <time>2025-05-25T13:52:37.000Z</time>
      </trkpt>
      <trkpt lat="43.07422" lon="5.90957">
        <ele>7.4</ele>
        <time>2025-05-25T13:52:46.000Z</time>
      </trkpt>
      <trkpt lat="43.07415" lon="5.90966">
        <ele>7.6</ele>
        <time>2025-05-25T13:52:53.000Z</time>
      </trkpt>
      <trkpt lat="43.07409" lon="5.90975">
        <ele>7.7</ele>
        <time>2025-05-25T13:53:03.000Z</time>
      </trkpt>
      <trkpt lat="43.07406" lon="5.90986">
        <ele>8</ele>
        <time>2025-05-25T13:53:13.000Z</time>
      </trkpt>
      <trkpt lat="43.07403" lon="5.90999">
        <ele>8.3</ele>
        <time>2025-05-25T13:53:24.000Z</time>
      </trkpt>
      <trkpt lat="43.07394" lon="5.91006">
        <ele>8.4</ele>
        <time>2025-05-25T13:53:30.000Z</time>
      </trkpt>
      <trkpt lat="43.07389" lon="5.91018">
        <ele>8.7</ele>
        <time>2025-05-25T13:53:42.000Z</time>
      </trkpt>
      <trkpt lat="43.07383" lon="5.91027">
        <ele>9</ele>
        <time>2025-05-25T13:53:49.000Z</time>
      </trkpt>
      <trkpt lat="43.07374" lon="5.91034">
        <ele>9.3</ele>
        <time>2025-05-25T13:53:58.000Z</time>
      </trkpt>
      <trkpt lat="43.07367" lon="5.91042">
        <ele>9.5</ele>
        <time>2025-05-25T13:54:08.000Z</time>
      </trkpt>
      <trkpt lat="43.07362" lon="5.91053">
        <ele>9.7</ele>
        <time>2025-05-25T13:54:17.000Z</time>
      </trkpt>
      <trkpt lat="43.07359" lon="5.91065">
        <ele>9.8</ele>
        <time>2025-05-25T13:54:27.000Z</time>
      </trkpt>
      <trkpt lat="43.0736" lon="5.91077">
        <ele>10</ele>
        <time>2025-05-25T13:54:33.000Z</time>
      </trkpt>
      <trkpt lat="43.07358" lon="5.9109">
        <ele>10.1</ele>
        <time>2025-05-25T13:54:41.000Z</time>
      </trkpt>
      <trkpt lat="43.07353" lon="5.91101">
        <ele>10.3</ele>
        <time>2025-05-25T13:54:49.000Z</time>
      </trkpt>
      <trkpt lat="43.07349" lon="5.91112">
        <ele>10.5</ele>
        <time>2025-05-25T13:54:57.000Z</time>
      </trkpt>
      <trkpt lat="43.07339" lon="5.91118">
        <ele>10.7</ele>
        <time>2025-05-25T13:55:07.000Z</time>
      </trkpt>
      <trkpt lat="43.07336" lon="5.9113">
        <ele>11.2</ele>
        <time>2025-05-25T13:55:21.000Z</time>
      </trkpt>
      <trkpt lat="43.07331" lon="5.9114">
        <ele>11.6</ele>
        <time>2025-05-25T13:55:30.000Z</time>
      </trkpt>
      <trkpt lat="43.07329" lon="5.91151">
        <ele>11.7</ele>
        <time>2025-05-25T13:55:40.000Z</time>
      </trkpt>
      <trkpt lat="43.07329" lon="5.91151">
        <ele>11.7</ele>
        <time>2025-05-25T13:55:41.000Z</time>
      </trkpt>
      <trkpt lat="43.07329" lon="5.91151">
        <ele>11.7</ele>
        <time>2025-05-25T13:55:45.000Z</time>
      </trkpt>
      <trkpt lat="43.07329" lon="5.91151">
        <ele>11.8</ele>
        <time>2025-05-25T13:55:46.000Z</time>
      </trkpt>
      <trkpt lat="43.07329" lon="5.91151">
        <ele>11.8</ele>
        <time>2025-05-25T13:55:47.000Z</time>
      </trkpt>
      <trkpt lat="43.07329" lon="5.91151">
        <ele>11.8</ele>
        <time>2025-05-25T13:55:48.000Z</time>
      </trkpt>
      <trkpt lat="43.07329" lon="5.91151">
        <ele>11.8</ele>
        <time>2025-05-25T13:55:49.000Z</time>
      </trkpt>
      <trkpt lat="43.07329" lon="5.91151">
        <ele>11.9</ele>
        <time>2025-05-25T13:56:03.000Z</time>
      </trkpt>
      <trkpt lat="43.07329" lon="5.91151">
        <ele>11.9</ele>
        <time>2025-05-25T13:56:04.000Z</time>
      </trkpt>
      <trkpt lat="43.07327" lon="5.91164">
        <ele>11.9</ele>
        <time>2025-05-25T13:56:15.000Z</time>
      </trkpt>
      <trkpt lat="43.07318" lon="5.91169">
        <ele>12</ele>
        <time>2025-05-25T13:56:21.000Z</time>
      </trkpt>
      <trkpt lat="43.07314" lon="5.91181">
        <ele>12.1</ele>
        <time>2025-05-25T13:56:31.000Z</time>
      </trkpt>
      <trkpt lat="43.07308" lon="5.9119">
        <ele>12.2</ele>
        <time>2025-05-25T13:56:39.000Z</time>
      </trkpt>
      <trkpt lat="43.07311" lon="5.91203">
        <ele>12.3</ele>
        <time>2025-05-25T13:56:48.000Z</time>
      </trkpt>
      <trkpt lat="43.07317" lon="5.91213">
        <ele>12.4</ele>
        <time>2025-05-25T13:56:57.000Z</time>
      </trkpt>
      <trkpt lat="43.07324" lon="5.91221">
        <ele>12.9</ele>
        <time>2025-05-25T13:57:08.000Z</time>
      </trkpt>
      <trkpt lat="43.0733" lon="5.91231">
        <ele>13.4</ele>
        <time>2025-05-25T13:57:16.000Z</time>
      </trkpt>
      <trkpt lat="43.07337" lon="5.9124">
        <ele>13.9</ele>
        <time>2025-05-25T13:57:25.000Z</time>
      </trkpt>
      <trkpt lat="43.07339" lon="5.91239">
        <ele>14.3</ele>
        <time>2025-05-25T13:57:33.000Z</time>
      </trkpt>
      <trkpt lat="43.07339" lon="5.91239">
        <ele>14.4</ele>
        <time>2025-05-25T13:57:34.000Z</time>
      </trkpt>
      <trkpt lat="43.0734" lon="5.91238">
        <ele>14.4</ele>
        <time>2025-05-25T13:57:35.000Z</time>
      </trkpt>
      <trkpt lat="43.07341" lon="5.91238">
        <ele>14.4</ele>
        <time>2025-05-25T13:57:36.000Z</time>
      </trkpt>
      <trkpt lat="43.07342" lon="5.91238">
        <ele>14.4</ele>
        <time>2025-05-25T13:57:37.000Z</time>
      </trkpt>
      <trkpt lat="43.0735" lon="5.91229">
        <ele>14.5</ele>
        <time>2025-05-25T13:57:45.000Z</time>
      </trkpt>
      <trkpt lat="43.07354" lon="5.91217">
        <ele>14.6</ele>
        <time>2025-05-25T13:57:54.000Z</time>
      </trkpt>
      <trkpt lat="43.0736" lon="5.91206">
        <ele>14.5</ele>
        <time>2025-05-25T13:58:04.000Z</time>
      </trkpt>
      <trkpt lat="43.07365" lon="5.91199">
        <ele>14.5</ele>
        <time>2025-05-25T13:58:18.000Z</time>
      </trkpt>
      <trkpt lat="43.07365" lon="5.91199">
        <ele>14.5</ele>
        <time>2025-05-25T13:58:19.000Z</time>
      </trkpt>
      <trkpt lat="43.07365" lon="5.91198">
        <ele>14.5</ele>
        <time>2025-05-25T13:58:20.000Z</time>
      </trkpt>
      <trkpt lat="43.07365" lon="5.91197">
        <ele>14.5</ele>
        <time>2025-05-25T13:58:21.000Z</time>
      </trkpt>
      <trkpt lat="43.0737" lon="5.91185">
        <ele>14.5</ele>
        <time>2025-05-25T13:58:31.000Z</time>
      </trkpt>
      <trkpt lat="43.07373" lon="5.91172">
        <ele>14.5</ele>
        <time>2025-05-25T13:58:40.000Z</time>
      </trkpt>
      <trkpt lat="43.07381" lon="5.91165">
        <ele>14.5</ele>
        <time>2025-05-25T13:58:48.000Z</time>
      </trkpt>
      <trkpt lat="43.07388" lon="5.91157">
        <ele>14.5</ele>
        <time>2025-05-25T13:58:58.000Z</time>
      </trkpt>
      <trkpt lat="43.07393" lon="5.91145">
        <ele>14.6</ele>
        <time>2025-05-25T13:59:08.000Z</time>
      </trkpt>
      <trkpt lat="43.07397" lon="5.91133">
        <ele>14.6</ele>
        <time>2025-05-25T13:59:17.000Z</time>
      </trkpt>
      <trkpt lat="43.07404" lon="5.91125">
        <ele>14.6</ele>
        <time>2025-05-25T13:59:24.000Z</time>
      </trkpt>
      <trkpt lat="43.07409" lon="5.91114">
        <ele>14.6</ele>
        <time>2025-05-25T13:59:34.000Z</time>
      </trkpt>
      <trkpt lat="43.07417" lon="5.91106">
        <ele>14.7</ele>
        <time>2025-05-25T13:59:45.000Z</time>
      </trkpt>
      <trkpt lat="43.07425" lon="5.911">
        <ele>15.1</ele>
        <time>2025-05-25T13:59:57.000Z</time>
      </trkpt>
      <trkpt lat="43.07431" lon="5.91108">
        <ele>15.6</ele>
        <time>2025-05-25T14:00:06.000Z</time>
      </trkpt>
      <trkpt lat="43.07437" lon="5.91118">
        <ele>16.3</ele>
        <time>2025-05-25T14:00:15.000Z</time>
      </trkpt>
      <trkpt lat="43.07446" lon="5.91123">
        <ele>17.2</ele>
        <time>2025-05-25T14:00:26.000Z</time>
      </trkpt>
      <trkpt lat="43.07451" lon="5.91134">
        <ele>17.6</ele>
        <time>2025-05-25T14:00:36.000Z</time>
      </trkpt>
      <trkpt lat="43.07452" lon="5.91147">
        <ele>18.1</ele>
        <time>2025-05-25T14:00:45.000Z</time>
      </trkpt>
      <trkpt lat="43.07458" lon="5.91157">
        <ele>18</ele>
        <time>2025-05-25T14:00:53.000Z</time>
      </trkpt>
      <trkpt lat="43.07466" lon="5.91161">
        <ele>19.3</ele>
        <time>2025-05-25T14:01:01.000Z</time>
      </trkpt>
      <trkpt lat="43.07475" lon="5.91166">
        <ele>20.2</ele>
        <time>2025-05-25T14:01:11.000Z</time>
      </trkpt>
      <trkpt lat="43.07481" lon="5.91172">
        <ele>21</ele>
        <time>2025-05-25T14:01:23.000Z</time>
      </trkpt>
      <trkpt lat="43.07481" lon="5.91173">
        <ele>21.1</ele>
        <time>2025-05-25T14:01:24.000Z</time>
      </trkpt>
      <trkpt lat="43.07482" lon="5.91174">
        <ele>21.1</ele>
        <time>2025-05-25T14:01:25.000Z</time>
      </trkpt>
      <trkpt lat="43.07482" lon="5.91174">
        <ele>21.1</ele>
        <time>2025-05-25T14:01:26.000Z</time>
      </trkpt>
      <trkpt lat="43.07483" lon="5.91174">
        <ele>21.2</ele>
        <time>2025-05-25T14:01:27.000Z</time>
      </trkpt>
      <trkpt lat="43.07482" lon="5.91175">
        <ele>21.2</ele>
        <time>2025-05-25T14:01:30.000Z</time>
      </trkpt>
      <trkpt lat="43.07483" lon="5.91176">
        <ele>21.2</ele>
        <time>2025-05-25T14:01:31.000Z</time>
      </trkpt>
      <trkpt lat="43.07483" lon="5.91176">
        <ele>21.3</ele>
        <time>2025-05-25T14:01:32.000Z</time>
      </trkpt>
      <trkpt lat="43.07483" lon="5.91177">
        <ele>21.3</ele>
        <time>2025-05-25T14:01:33.000Z</time>
      </trkpt>
      <trkpt lat="43.07483" lon="5.91178">
        <ele>21.4</ele>
        <time>2025-05-25T14:01:34.000Z</time>
      </trkpt>
      <trkpt lat="43.07493" lon="5.9118">
        <ele>21.6</ele>
        <time>2025-05-25T14:01:49.000Z</time>
      </trkpt>
      <trkpt lat="43.07502" lon="5.91182">
        <ele>22</ele>
        <time>2025-05-25T14:01:57.000Z</time>
      </trkpt>
      <trkpt lat="43.07506" lon="5.91184">
        <ele>22</ele>
        <time>2025-05-25T14:02:02.000Z</time>
      </trkpt>
      <trkpt lat="43.07506" lon="5.91184">
        <ele>22</ele>
        <time>2025-05-25T14:02:03.000Z</time>
      </trkpt>
      <trkpt lat="43.07506" lon="5.91184">
        <ele>22</ele>
        <time>2025-05-25T14:02:04.000Z</time>
      </trkpt>
      <trkpt lat="43.07507" lon="5.91185">
        <ele>22</ele>
        <time>2025-05-25T14:02:05.000Z</time>
      </trkpt>
      <trkpt lat="43.07508" lon="5.91185">
        <ele>21.9</ele>
        <time>2025-05-25T14:02:06.000Z</time>
      </trkpt>
      <trkpt lat="43.07508" lon="5.91186">
        <ele>21.9</ele>
        <time>2025-05-25T14:02:07.000Z</time>
      </trkpt>
      <trkpt lat="43.07514" lon="5.91196">
        <ele>21.8</ele>
        <time>2025-05-25T14:02:18.000Z</time>
      </trkpt>
      <trkpt lat="43.07517" lon="5.91209">
        <ele>22.2</ele>
        <time>2025-05-25T14:02:32.000Z</time>
      </trkpt>
      <trkpt lat="43.07525" lon="5.91214">
        <ele>23.1</ele>
        <time>2025-05-25T14:02:49.000Z</time>
      </trkpt>
      <trkpt lat="43.07535" lon="5.91216">
        <ele>23.5</ele>
        <time>2025-05-25T14:02:59.000Z</time>
      </trkpt>
      <trkpt lat="43.07544" lon="5.91215">
        <ele>23.7</ele>
        <time>2025-05-25T14:03:07.000Z</time>
      </trkpt>
      <trkpt lat="43.07551" lon="5.91216">
        <ele>23.9</ele>
        <time>2025-05-25T14:03:18.000Z</time>
      </trkpt>
      <trkpt lat="43.07551" lon="5.91216">
        <ele>23.9</ele>
        <time>2025-05-25T14:03:19.000Z</time>
      </trkpt>
      <trkpt lat="43.07551" lon="5.91216">
        <ele>24</ele>
        <time>2025-05-25T14:03:23.000Z</time>
      </trkpt>
      <trkpt lat="43.07552" lon="5.91217">
        <ele>24</ele>
        <time>2025-05-25T14:03:24.000Z</time>
      </trkpt>
      <trkpt lat="43.07548" lon="5.91229">
        <ele>24.2</ele>
        <time>2025-05-25T14:03:40.000Z</time>
      </trkpt>
      <trkpt lat="43.07544" lon="5.9124">
        <ele>24.7</ele>
        <time>2025-05-25T14:03:52.000Z</time>
      </trkpt>
      <trkpt lat="43.07535" lon="5.91242">
        <ele>26.4</ele>
        <time>2025-05-25T14:04:13.000Z</time>
      </trkpt>
      <trkpt lat="43.07535" lon="5.91241">
        <ele>26.4</ele>
        <time>2025-05-25T14:04:20.000Z</time>
      </trkpt>
      <trkpt lat="43.07535" lon="5.91241">
        <ele>26.4</ele>
        <time>2025-05-25T14:04:21.000Z</time>
      </trkpt>
      <trkpt lat="43.07535" lon="5.91241">
        <ele>26.4</ele>
        <time>2025-05-25T14:04:22.000Z</time>
      </trkpt>
      <trkpt lat="43.07536" lon="5.9124">
        <ele>26.4</ele>
        <time>2025-05-25T14:04:23.000Z</time>
      </trkpt>
      <trkpt lat="43.07536" lon="5.9124">
        <ele>26.4</ele>
        <time>2025-05-25T14:04:24.000Z</time>
      </trkpt>
      <trkpt lat="43.07533" lon="5.91241">
        <ele>26.7</ele>
        <time>2025-05-25T14:04:50.000Z</time>
      </trkpt>
      <trkpt lat="43.07532" lon="5.91241">
        <ele>26.8</ele>
        <time>2025-05-25T14:04:51.000Z</time>
      </trkpt>
      <trkpt lat="43.07525" lon="5.91234">
        <ele>26.8</ele>
        <time>2025-05-25T14:04:59.000Z</time>
      </trkpt>
      <trkpt lat="43.07523" lon="5.91229">
        <ele>26.8</ele>
        <time>2025-05-25T14:05:00.000Z</time>
      </trkpt>
      <trkpt lat="43.07519" lon="5.91228">
        <ele>26.9</ele>
        <time>2025-05-25T14:05:05.000Z</time>
      </trkpt>
      <trkpt lat="43.07521" lon="5.91231">
        <ele>26.9</ele>
        <time>2025-05-25T14:05:06.000Z</time>
      </trkpt>
      <trkpt lat="43.07525" lon="5.91241">
        <ele>26.8</ele>
        <time>2025-05-25T14:05:14.000Z</time>
      </trkpt>
      <trkpt lat="43.07524" lon="5.91244">
        <ele>26.8</ele>
        <time>2025-05-25T14:05:18.000Z</time>
      </trkpt>
      <trkpt lat="43.07524" lon="5.91245">
        <ele>26.8</ele>
        <time>2025-05-25T14:05:19.000Z</time>
      </trkpt>
      <trkpt lat="43.07526" lon="5.91239">
        <ele>26.8</ele>
        <time>2025-05-25T14:05:30.000Z</time>
      </trkpt>
      <trkpt lat="43.07526" lon="5.91238">
        <ele>26.8</ele>
        <time>2025-05-25T14:05:31.000Z</time>
      </trkpt>
      <trkpt lat="43.07525" lon="5.91236">
        <ele>26.8</ele>
        <time>2025-05-25T14:05:32.000Z</time>
      </trkpt>
      <trkpt lat="43.07525" lon="5.91234">
        <ele>26.8</ele>
        <time>2025-05-25T14:05:33.000Z</time>
      </trkpt>
      <trkpt lat="43.07525" lon="5.91232">
        <ele>26.8</ele>
        <time>2025-05-25T14:05:34.000Z</time>
      </trkpt>
      <trkpt lat="43.07522" lon="5.9123">
        <ele>26.7</ele>
        <time>2025-05-25T14:05:46.000Z</time>
      </trkpt>
      <trkpt lat="43.07522" lon="5.9123">
        <ele>26.7</ele>
        <time>2025-05-25T14:05:47.000Z</time>
      </trkpt>
      <trkpt lat="43.07522" lon="5.9123">
        <ele>26.7</ele>
        <time>2025-05-25T14:05:50.000Z</time>
      </trkpt>
      <trkpt lat="43.07521" lon="5.9123">
        <ele>26.7</ele>
        <time>2025-05-25T14:05:51.000Z</time>
      </trkpt>
      <trkpt lat="43.07521" lon="5.9123">
        <ele>26.7</ele>
        <time>2025-05-25T14:05:52.000Z</time>
      </trkpt>
      <trkpt lat="43.07521" lon="5.9123">
        <ele>26.7</ele>
        <time>2025-05-25T14:05:53.000Z</time>
      </trkpt>
      <trkpt lat="43.07521" lon="5.9123">
        <ele>26.7</ele>
        <time>2025-05-25T14:05:54.000Z</time>
      </trkpt>
      <trkpt lat="43.07521" lon="5.91232">
        <ele>26.6</ele>
        <time>2025-05-25T14:06:07.000Z</time>
      </trkpt>
      <trkpt lat="43.07521" lon="5.91232">
        <ele>26.6</ele>
        <time>2025-05-25T14:06:08.000Z</time>
      </trkpt>
      <trkpt lat="43.07521" lon="5.91232">
        <ele>26.5</ele>
        <time>2025-05-25T14:06:09.000Z</time>
      </trkpt>
      <trkpt lat="43.07521" lon="5.91232">
        <ele>26.5</ele>
        <time>2025-05-25T14:06:12.000Z</time>
      </trkpt>
      <trkpt lat="43.07521" lon="5.91232">
        <ele>26.5</ele>
        <time>2025-05-25T14:06:13.000Z</time>
      </trkpt>
      <trkpt lat="43.07521" lon="5.91232">
        <ele>26.5</ele>
        <time>2025-05-25T14:06:14.000Z</time>
      </trkpt>
      <trkpt lat="43.07521" lon="5.91232">
        <ele>26.5</ele>
        <time>2025-05-25T14:06:15.000Z</time>
      </trkpt>
      <trkpt lat="43.07521" lon="5.91232">
        <ele>26.5</ele>
        <time>2025-05-25T14:06:16.000Z</time>
      </trkpt>
      <trkpt lat="43.07521" lon="5.91232">
        <ele>26.5</ele>
        <time>2025-05-25T14:06:17.000Z</time>
      </trkpt>
      <trkpt lat="43.07521" lon="5.91232">
        <ele>26.4</ele>
        <time>2025-05-25T14:06:18.000Z</time>
      </trkpt>
      <trkpt lat="43.0752" lon="5.91232">
        <ele>26.4</ele>
        <time>2025-05-25T14:06:19.000Z</time>
      </trkpt>
      <trkpt lat="43.0752" lon="5.91232">
        <ele>26.4</ele>
        <time>2025-05-25T14:06:20.000Z</time>
      </trkpt>
      <trkpt lat="43.0752" lon="5.91232">
        <ele>26.4</ele>
        <time>2025-05-25T14:06:21.000Z</time>
      </trkpt>
      <trkpt lat="43.0752" lon="5.91232">
        <ele>26.4</ele>
        <time>2025-05-25T14:06:27.000Z</time>
      </trkpt>
      <trkpt lat="43.0752" lon="5.91232">
        <ele>26.4</ele>
        <time>2025-05-25T14:06:28.000Z</time>
      </trkpt>
      <trkpt lat="43.0752" lon="5.91231">
        <ele>26.4</ele>
        <time>2025-05-25T14:06:29.000Z</time>
      </trkpt>
      <trkpt lat="43.0752" lon="5.91231">
        <ele>26.4</ele>
        <time>2025-05-25T14:06:30.000Z</time>
      </trkpt>
      <trkpt lat="43.0752" lon="5.91231">
        <ele>26.4</ele>
        <time>2025-05-25T14:06:31.000Z</time>
      </trkpt>
      <trkpt lat="43.0752" lon="5.91232">
        <ele>26.4</ele>
        <time>2025-05-25T14:06:35.000Z</time>
      </trkpt>
      <trkpt lat="43.0752" lon="5.91232">
        <ele>26.4</ele>
        <time>2025-05-25T14:06:36.000Z</time>
      </trkpt>
      <trkpt lat="43.07521" lon="5.91232">
        <ele>26.4</ele>
        <time>2025-05-25T14:06:40.000Z</time>
      </trkpt>
      <trkpt lat="43.07521" lon="5.91232">
        <ele>26.4</ele>
        <time>2025-05-25T14:06:41.000Z</time>
      </trkpt>
      <trkpt lat="43.07521" lon="5.91232">
        <ele>26.4</ele>
        <time>2025-05-25T14:06:42.000Z</time>
      </trkpt>
      <trkpt lat="43.07521" lon="5.91232">
        <ele>26.4</ele>
        <time>2025-05-25T14:06:43.000Z</time>
      </trkpt>
      <trkpt lat="43.07521" lon="5.91232">
        <ele>26.4</ele>
        <time>2025-05-25T14:06:44.000Z</time>
      </trkpt>
      <trkpt lat="43.07521" lon="5.91232">
        <ele>26.4</ele>
        <time>2025-05-25T14:06:45.000Z</time>
      </trkpt>
      <trkpt lat="43.07521" lon="5.91232">
        <ele>26.3</ele>
        <time>2025-05-25T14:06:46.000Z</time>
      </trkpt>
      <trkpt lat="43.0752" lon="5.91233">
        <ele>26.3</ele>
        <time>2025-05-25T14:06:47.000Z</time>
      </trkpt>
      <trkpt lat="43.0752" lon="5.91233">
        <ele>26.3</ele>
        <time>2025-05-25T14:06:52.000Z</time>
      </trkpt>
      <trkpt lat="43.07521" lon="5.91233">
        <ele>26.3</ele>
        <time>2025-05-25T14:06:53.000Z</time>
      </trkpt>
      <trkpt lat="43.07521" lon="5.91233">
        <ele>26.3</ele>
        <time>2025-05-25T14:06:54.000Z</time>
      </trkpt>
      <trkpt lat="43.07521" lon="5.91233">
        <ele>26.3</ele>
        <time>2025-05-25T14:07:02.000Z</time>
      </trkpt>
      <trkpt lat="43.07522" lon="5.91234">
        <ele>26.3</ele>
        <time>2025-05-25T14:07:03.000Z</time>
      </trkpt>
      <trkpt lat="43.07522" lon="5.91233">
        <ele>26.3</ele>
        <time>2025-05-25T14:07:04.000Z</time>
      </trkpt>
      <trkpt lat="43.0752" lon="5.91231">
        <ele>26.3</ele>
        <time>2025-05-25T14:07:07.000Z</time>
      </trkpt>
      <trkpt lat="43.0752" lon="5.91231">
        <ele>26.3</ele>
        <time>2025-05-25T14:07:08.000Z</time>
      </trkpt>
      <trkpt lat="43.0752" lon="5.91231">
        <ele>26.3</ele>
        <time>2025-05-25T14:07:09.000Z</time>
      </trkpt>
      <trkpt lat="43.0752" lon="5.9123">
        <ele>26.3</ele>
        <time>2025-05-25T14:07:10.000Z</time>
      </trkpt>
      <trkpt lat="43.0752" lon="5.9123">
        <ele>26.3</ele>
        <time>2025-05-25T14:07:11.000Z</time>
      </trkpt>
      <trkpt lat="43.0752" lon="5.9123">
        <ele>26.3</ele>
        <time>2025-05-25T14:07:12.000Z</time>
      </trkpt>
      <trkpt lat="43.07523" lon="5.91232">
        <ele>26.5</ele>
        <time>2025-05-25T14:07:37.000Z</time>
      </trkpt>
      <trkpt lat="43.07523" lon="5.91232">
        <ele>26.5</ele>
        <time>2025-05-25T14:07:38.000Z</time>
      </trkpt>
      <trkpt lat="43.07523" lon="5.91232">
        <ele>26.5</ele>
        <time>2025-05-25T14:07:39.000Z</time>
      </trkpt>
      <trkpt lat="43.07524" lon="5.9123">
        <ele>26.5</ele>
        <time>2025-05-25T14:07:45.000Z</time>
      </trkpt>
      <trkpt lat="43.07524" lon="5.9123">
        <ele>26.5</ele>
        <time>2025-05-25T14:07:46.000Z</time>
      </trkpt>
      <trkpt lat="43.07525" lon="5.91231">
        <ele>26.5</ele>
        <time>2025-05-25T14:07:47.000Z</time>
      </trkpt>
      <trkpt lat="43.07528" lon="5.91228">
        <ele>26.4</ele>
        <time>2025-05-25T14:07:55.000Z</time>
      </trkpt>
      <trkpt lat="43.07528" lon="5.91228">
        <ele>26.4</ele>
        <time>2025-05-25T14:07:56.000Z</time>
      </trkpt>
      <trkpt lat="43.07527" lon="5.91228">
        <ele>26.4</ele>
        <time>2025-05-25T14:08:00.000Z</time>
      </trkpt>
      <trkpt lat="43.07527" lon="5.91229">
        <ele>26.4</ele>
        <time>2025-05-25T14:08:01.000Z</time>
      </trkpt>
      <trkpt lat="43.07526" lon="5.91229">
        <ele>26.3</ele>
        <time>2025-05-25T14:08:07.000Z</time>
      </trkpt>
      <trkpt lat="43.07526" lon="5.91229">
        <ele>26.3</ele>
        <time>2025-05-25T14:08:08.000Z</time>
      </trkpt>
      <trkpt lat="43.07526" lon="5.91229">
        <ele>26.3</ele>
        <time>2025-05-25T14:08:09.000Z</time>
      </trkpt>
      <trkpt lat="43.07525" lon="5.91229">
        <ele>26.3</ele>
        <time>2025-05-25T14:08:13.000Z</time>
      </trkpt>
      <trkpt lat="43.07525" lon="5.91229">
        <ele>26.3</ele>
        <time>2025-05-25T14:08:14.000Z</time>
      </trkpt>
      <trkpt lat="43.07524" lon="5.91233">
        <ele>25.9</ele>
        <time>2025-05-25T14:08:26.000Z</time>
      </trkpt>
      <trkpt lat="43.07524" lon="5.91233">
        <ele>25.9</ele>
        <time>2025-05-25T14:08:27.000Z</time>
      </trkpt>
      <trkpt lat="43.07522" lon="5.91231">
        <ele>26</ele>
        <time>2025-05-25T14:08:42.000Z</time>
      </trkpt>
      <trkpt lat="43.07523" lon="5.9123">
        <ele>25.7</ele>
        <time>2025-05-25T14:08:43.000Z</time>
      </trkpt>
      <trkpt lat="43.07523" lon="5.9123">
        <ele>25.4</ele>
        <time>2025-05-25T14:08:44.000Z</time>
      </trkpt>
      <trkpt lat="43.07522" lon="5.9123">
        <ele>25.3</ele>
        <time>2025-05-25T14:08:45.000Z</time>
      </trkpt>
      <trkpt lat="43.07522" lon="5.9123">
        <ele>25.3</ele>
        <time>2025-05-25T14:08:46.000Z</time>
      </trkpt>
      <trkpt lat="43.07527" lon="5.9122">
        <ele>26.4</ele>
        <time>2025-05-25T14:09:28.000Z</time>
      </trkpt>
      <trkpt lat="43.07528" lon="5.91219">
        <ele>26.3</ele>
        <time>2025-05-25T14:09:30.000Z</time>
      </trkpt>
      <trkpt lat="43.07529" lon="5.91218">
        <ele>26.4</ele>
        <time>2025-05-25T14:09:31.000Z</time>
      </trkpt>
      <trkpt lat="43.0753" lon="5.91216">
        <ele>26.6</ele>
        <time>2025-05-25T14:09:32.000Z</time>
      </trkpt>
      <trkpt lat="43.07523" lon="5.91237">
        <ele>26.2</ele>
        <time>2025-05-25T14:10:48.000Z</time>
      </trkpt>
      <trkpt lat="43.07513" lon="5.91238">
        <ele>26.1</ele>
        <time>2025-05-25T14:11:06.000Z</time>
      </trkpt>
      <trkpt lat="43.07522" lon="5.91242">
        <ele>25.9</ele>
        <time>2025-05-25T14:11:20.000Z</time>
      </trkpt>
      <trkpt lat="43.07529" lon="5.91233">
        <ele>26.2</ele>
        <time>2025-05-25T14:11:44.000Z</time>
      </trkpt>
      <trkpt lat="43.07526" lon="5.91225">
        <ele>26.6</ele>
        <time>2025-05-25T14:12:45.000Z</time>
      </trkpt>
      <trkpt lat="43.07526" lon="5.91224">
        <ele>26.6</ele>
        <time>2025-05-25T14:12:46.000Z</time>
      </trkpt>
      <trkpt lat="43.07526" lon="5.91225">
        <ele>26.6</ele>
        <time>2025-05-25T14:12:47.000Z</time>
      </trkpt>
      <trkpt lat="43.07526" lon="5.91225">
        <ele>26.6</ele>
        <time>2025-05-25T14:12:48.000Z</time>
      </trkpt>
      <trkpt lat="43.07525" lon="5.91226">
        <ele>26.6</ele>
        <time>2025-05-25T14:12:49.000Z</time>
      </trkpt>
      <trkpt lat="43.0753" lon="5.91238">
        <ele>26.6</ele>
        <time>2025-05-25T14:14:37.000Z</time>
      </trkpt>
      <trkpt lat="43.07523" lon="5.91227">
        <ele>26.6</ele>
        <time>2025-05-25T14:16:43.000Z</time>
      </trkpt>
      <trkpt lat="43.07523" lon="5.9124">
        <ele>26.6</ele>
        <time>2025-05-25T14:16:54.000Z</time>
      </trkpt>
      <trkpt lat="43.07525" lon="5.91239">
        <ele>26.7</ele>
        <time>2025-05-25T14:17:10.000Z</time>
      </trkpt>
      <trkpt lat="43.07525" lon="5.91239">
        <ele>26.5</ele>
        <time>2025-05-25T14:17:11.000Z</time>
      </trkpt>
      <trkpt lat="43.07525" lon="5.91239">
        <ele>26.5</ele>
        <time>2025-05-25T14:17:12.000Z</time>
      </trkpt>
      <trkpt lat="43.07525" lon="5.91239">
        <ele>26.4</ele>
        <time>2025-05-25T14:17:13.000Z</time>
      </trkpt>
      <trkpt lat="43.07526" lon="5.9124">
        <ele>26.5</ele>
        <time>2025-05-25T14:17:14.000Z</time>
      </trkpt>
      <trkpt lat="43.07526" lon="5.91239">
        <ele>26.5</ele>
        <time>2025-05-25T14:17:15.000Z</time>
      </trkpt>
      <trkpt lat="43.07527" lon="5.91236">
        <ele>27.5</ele>
        <time>2025-05-25T14:17:33.000Z</time>
      </trkpt>
      <trkpt lat="43.07527" lon="5.91236">
        <ele>27.2</ele>
        <time>2025-05-25T14:17:34.000Z</time>
      </trkpt>
      <trkpt lat="43.07527" lon="5.91236">
        <ele>27</ele>
        <time>2025-05-25T14:17:35.000Z</time>
      </trkpt>
      <trkpt lat="43.07526" lon="5.91236">
        <ele>26.9</ele>
        <time>2025-05-25T14:17:36.000Z</time>
      </trkpt>
      <trkpt lat="43.07526" lon="5.91236">
        <ele>26.8</ele>
        <time>2025-05-25T14:17:37.000Z</time>
      </trkpt>
      <trkpt lat="43.07516" lon="5.91231">
        <ele>26.8</ele>
        <time>2025-05-25T14:18:11.000Z</time>
      </trkpt>
      <trkpt lat="43.07506" lon="5.9124">
        <ele>27.2</ele>
        <time>2025-05-25T14:19:17.000Z</time>
      </trkpt>
      <trkpt lat="43.07497" lon="5.91243">
        <ele>27.2</ele>
        <time>2025-05-25T14:19:22.000Z</time>
      </trkpt>
      <trkpt lat="43.07489" lon="5.91236">
        <ele>27.2</ele>
        <time>2025-05-25T14:19:28.000Z</time>
      </trkpt>
      <trkpt lat="43.07496" lon="5.91228">
        <ele>27.4</ele>
        <time>2025-05-25T14:19:51.000Z</time>
      </trkpt>
      <trkpt lat="43.07503" lon="5.91219">
        <ele>27.5</ele>
        <time>2025-05-25T14:19:58.000Z</time>
      </trkpt>
      <trkpt lat="43.07513" lon="5.9122">
        <ele>27.6</ele>
        <time>2025-05-25T14:20:05.000Z</time>
      </trkpt>
      <trkpt lat="43.07522" lon="5.91224">
        <ele>27.6</ele>
        <time>2025-05-25T14:20:35.000Z</time>
      </trkpt>
      <trkpt lat="43.07531" lon="5.91229">
        <ele>27.6</ele>
        <time>2025-05-25T14:21:59.000Z</time>
      </trkpt>
      <trkpt lat="43.07523" lon="5.91221">
        <ele>27.9</ele>
        <time>2025-05-25T14:25:13.000Z</time>
      </trkpt>
      <trkpt lat="43.07523" lon="5.91234">
        <ele>28</ele>
        <time>2025-05-25T14:25:59.000Z</time>
      </trkpt>
      <trkpt lat="43.0752" lon="5.91222">
        <ele>28.5</ele>
        <time>2025-05-25T14:27:38.000Z</time>
      </trkpt>
      <trkpt lat="43.07516" lon="5.9123">
        <ele>28.8</ele>
        <time>2025-05-25T14:27:58.000Z</time>
      </trkpt>
      <trkpt lat="43.07517" lon="5.91233">
        <ele>28.9</ele>
        <time>2025-05-25T14:27:59.000Z</time>
      </trkpt>
      <trkpt lat="43.0752" lon="5.91238">
        <ele>28.6</ele>
        <time>2025-05-25T14:28:07.000Z</time>
      </trkpt>
      <trkpt lat="43.07521" lon="5.91238">
        <ele>28.6</ele>
        <time>2025-05-25T14:28:08.000Z</time>
      </trkpt>
      <trkpt lat="43.07522" lon="5.91238">
        <ele>28.6</ele>
        <time>2025-05-25T14:28:09.000Z</time>
      </trkpt>
      <trkpt lat="43.07525" lon="5.9124">
        <ele>28.7</ele>
        <time>2025-05-25T14:28:25.000Z</time>
      </trkpt>
      <trkpt lat="43.07525" lon="5.9124">
        <ele>28.5</ele>
        <time>2025-05-25T14:28:26.000Z</time>
      </trkpt>
      <trkpt lat="43.07523" lon="5.91239">
        <ele>28.4</ele>
        <time>2025-05-25T14:28:27.000Z</time>
      </trkpt>
      <trkpt lat="43.07523" lon="5.91239">
        <ele>28.4</ele>
        <time>2025-05-25T14:28:28.000Z</time>
      </trkpt>
      <trkpt lat="43.0752" lon="5.91238">
        <ele>28.3</ele>
        <time>2025-05-25T14:28:29.000Z</time>
      </trkpt>
      <trkpt lat="43.07521" lon="5.91238">
        <ele>28.3</ele>
        <time>2025-05-25T14:28:30.000Z</time>
      </trkpt>
      <trkpt lat="43.07529" lon="5.91242">
        <ele>28.6</ele>
        <time>2025-05-25T14:29:37.000Z</time>
      </trkpt>
      <trkpt lat="43.07528" lon="5.91229">
        <ele>29</ele>
        <time>2025-05-25T14:30:43.000Z</time>
      </trkpt>
      <trkpt lat="43.07535" lon="5.91236">
        <ele>28.9</ele>
        <time>2025-05-25T14:31:13.000Z</time>
      </trkpt>
      <trkpt lat="43.07526" lon="5.91238">
        <ele>28.6</ele>
        <time>2025-05-25T14:31:50.000Z</time>
      </trkpt>
      <trkpt lat="43.07516" lon="5.9123">
        <ele>28.6</ele>
        <time>2025-05-25T14:32:50.000Z</time>
      </trkpt>
      <trkpt lat="43.07525" lon="5.91228">
        <ele>28.6</ele>
        <time>2025-05-25T14:32:58.000Z</time>
      </trkpt>
      <trkpt lat="43.07527" lon="5.91227">
        <ele>26.9</ele>
        <time>2025-05-25T14:36:02.000Z</time>
      </trkpt>
      <trkpt lat="43.07527" lon="5.91227">
        <ele>30.9</ele>
        <time>2025-05-25T14:36:03.000Z</time>
      </trkpt>
      <trkpt lat="43.07526" lon="5.91227">
        <ele>34.8</ele>
        <time>2025-05-25T14:36:04.000Z</time>
      </trkpt>
      <trkpt lat="43.07529" lon="5.91227">
        <ele>36.4</ele>
        <time>2025-05-25T14:36:07.000Z</time>
      </trkpt>
      <trkpt lat="43.07527" lon="5.91227">
        <ele>34.5</ele>
        <time>2025-05-25T14:36:08.000Z</time>
      </trkpt>
      <trkpt lat="43.07527" lon="5.91227">
        <ele>32.9</ele>
        <time>2025-05-25T14:36:09.000Z</time>
      </trkpt>
      <trkpt lat="43.07527" lon="5.91227">
        <ele>29.5</ele>
        <time>2025-05-25T14:36:20.000Z</time>
      </trkpt>
      <trkpt lat="43.07527" lon="5.91227">
        <ele>29.5</ele>
        <time>2025-05-25T14:36:21.000Z</time>
      </trkpt>
      <trkpt lat="43.07522" lon="5.91223">
        <ele>29.4</ele>
        <time>2025-05-25T14:36:32.000Z</time>
      </trkpt>
      <trkpt lat="43.07522" lon="5.91223">
        <ele>29.3</ele>
        <time>2025-05-25T14:36:33.000Z</time>
      </trkpt>
      <trkpt lat="43.07522" lon="5.91223">
        <ele>29.3</ele>
        <time>2025-05-25T14:36:34.000Z</time>
      </trkpt>
      <trkpt lat="43.07522" lon="5.91223">
        <ele>29.3</ele>
        <time>2025-05-25T14:36:35.000Z</time>
      </trkpt>
      <trkpt lat="43.07522" lon="5.91224">
        <ele>29.3</ele>
        <time>2025-05-25T14:36:36.000Z</time>
      </trkpt>
      <trkpt lat="43.07522" lon="5.91224">
        <ele>29.3</ele>
        <time>2025-05-25T14:36:37.000Z</time>
      </trkpt>
      <trkpt lat="43.07521" lon="5.91233">
        <ele>29.3</ele>
        <time>2025-05-25T14:37:02.000Z</time>
      </trkpt>
      <trkpt lat="43.07521" lon="5.91233">
        <ele>29.2</ele>
        <time>2025-05-25T14:37:03.000Z</time>
      </trkpt>
      <trkpt lat="43.07521" lon="5.91233">
        <ele>29.2</ele>
        <time>2025-05-25T14:37:04.000Z</time>
      </trkpt>
      <trkpt lat="43.07521" lon="5.91233">
        <ele>29.2</ele>
        <time>2025-05-25T14:37:05.000Z</time>
      </trkpt>
      <trkpt lat="43.07521" lon="5.91233">
        <ele>29.2</ele>
        <time>2025-05-25T14:37:06.000Z</time>
      </trkpt>
      <trkpt lat="43.07528" lon="5.91235">
        <ele>29.5</ele>
        <time>2025-05-25T14:37:22.000Z</time>
      </trkpt>
      <trkpt lat="43.07528" lon="5.91234">
        <ele>29.5</ele>
        <time>2025-05-25T14:37:23.000Z</time>
      </trkpt>
      <trkpt lat="43.07527" lon="5.91234">
        <ele>29.5</ele>
        <time>2025-05-25T14:37:24.000Z</time>
      </trkpt>
      <trkpt lat="43.07525" lon="5.91233">
        <ele>29.6</ele>
        <time>2025-05-25T14:37:31.000Z</time>
      </trkpt>
      <trkpt lat="43.07524" lon="5.91233">
        <ele>29.6</ele>
        <time>2025-05-25T14:37:32.000Z</time>
      </trkpt>
      <trkpt lat="43.07524" lon="5.91234">
        <ele>29.6</ele>
        <time>2025-05-25T14:37:33.000Z</time>
      </trkpt>
      <trkpt lat="43.07524" lon="5.91234">
        <ele>29.6</ele>
        <time>2025-05-25T14:37:34.000Z</time>
      </trkpt>
      <trkpt lat="43.07521" lon="5.91235">
        <ele>29.7</ele>
        <time>2025-05-25T14:37:48.000Z</time>
      </trkpt>
      <trkpt lat="43.07522" lon="5.91235">
        <ele>29.7</ele>
        <time>2025-05-25T14:37:49.000Z</time>
      </trkpt>
      <trkpt lat="43.0753" lon="5.91242">
        <ele>29.8</ele>
        <time>2025-05-25T14:37:57.000Z</time>
      </trkpt>
      <trkpt lat="43.07535" lon="5.91253">
        <ele>29.8</ele>
        <time>2025-05-25T14:38:05.000Z</time>
      </trkpt>
      <trkpt lat="43.07543" lon="5.9126">
        <ele>29.9</ele>
        <time>2025-05-25T14:38:09.000Z</time>
      </trkpt>
      <trkpt lat="43.07533" lon="5.91252">
        <ele>29.9</ele>
        <time>2025-05-25T14:38:15.000Z</time>
      </trkpt>
      <trkpt lat="43.07527" lon="5.9124">
        <ele>29.9</ele>
        <time>2025-05-25T14:38:18.000Z</time>
      </trkpt>
      <trkpt lat="43.07524" lon="5.91229">
        <ele>29.8</ele>
        <time>2025-05-25T14:38:30.000Z</time>
      </trkpt>
      <trkpt lat="43.07521" lon="5.91226">
        <ele>29.7</ele>
        <time>2025-05-25T14:38:41.000Z</time>
      </trkpt>
      <trkpt lat="43.07521" lon="5.91226">
        <ele>29.7</ele>
        <time>2025-05-25T14:38:42.000Z</time>
      </trkpt>
      <trkpt lat="43.07521" lon="5.91226">
        <ele>29.7</ele>
        <time>2025-05-25T14:38:43.000Z</time>
      </trkpt>
      <trkpt lat="43.0752" lon="5.91226">
        <ele>29.6</ele>
        <time>2025-05-25T14:38:44.000Z</time>
      </trkpt>
      <trkpt lat="43.07527" lon="5.91234">
        <ele>30.1</ele>
        <time>2025-05-25T14:39:05.000Z</time>
      </trkpt>
      <trkpt lat="43.07534" lon="5.91244">
        <ele>30.1</ele>
        <time>2025-05-25T14:39:17.000Z</time>
      </trkpt>
      <trkpt lat="43.07543" lon="5.91245">
        <ele>30.2</ele>
        <time>2025-05-25T14:39:23.000Z</time>
      </trkpt>
      <trkpt lat="43.07549" lon="5.91234">
        <ele>30.1</ele>
        <time>2025-05-25T14:39:32.000Z</time>
      </trkpt>
      <trkpt lat="43.07551" lon="5.91221">
        <ele>29</ele>
        <time>2025-05-25T14:39:43.000Z</time>
      </trkpt>
      <trkpt lat="43.07558" lon="5.91213">
        <ele>28</ele>
        <time>2025-05-25T14:39:52.000Z</time>
      </trkpt>
      <trkpt lat="43.0756" lon="5.91201">
        <ele>27.5</ele>
        <time>2025-05-25T14:40:01.000Z</time>
      </trkpt>
      <trkpt lat="43.07568" lon="5.91192">
        <ele>27</ele>
        <time>2025-05-25T14:40:11.000Z</time>
      </trkpt>
      <trkpt lat="43.07576" lon="5.91185">
        <ele>25.7</ele>
        <time>2025-05-25T14:40:23.000Z</time>
      </trkpt>
      <trkpt lat="43.07575" lon="5.91173">
        <ele>24</ele>
        <time>2025-05-25T14:40:33.000Z</time>
      </trkpt>
      <trkpt lat="43.07575" lon="5.91159">
        <ele>22.4</ele>
        <time>2025-05-25T14:40:44.000Z</time>
      </trkpt>
      <trkpt lat="43.07576" lon="5.91146">
        <ele>21.5</ele>
        <time>2025-05-25T14:40:55.000Z</time>
      </trkpt>
      <trkpt lat="43.07579" lon="5.91134">
        <ele>20.8</ele>
        <time>2025-05-25T14:41:06.000Z</time>
      </trkpt>
      <trkpt lat="43.07582" lon="5.91122">
        <ele>20.1</ele>
        <time>2025-05-25T14:41:15.000Z</time>
      </trkpt>
      <trkpt lat="43.07581" lon="5.91109">
        <ele>19.4</ele>
        <time>2025-05-25T14:41:23.000Z</time>
      </trkpt>
      <trkpt lat="43.07589" lon="5.91104">
        <ele>18.6</ele>
        <time>2025-05-25T14:41:40.000Z</time>
      </trkpt>
      <trkpt lat="43.07598" lon="5.91098">
        <ele>18.5</ele>
        <time>2025-05-25T14:41:49.000Z</time>
      </trkpt>
      <trkpt lat="43.07607" lon="5.91095">
        <ele>18.5</ele>
        <time>2025-05-25T14:41:57.000Z</time>
      </trkpt>
      <trkpt lat="43.07608" lon="5.91081">
        <ele>18.2</ele>
        <time>2025-05-25T14:42:09.000Z</time>
      </trkpt>
      <trkpt lat="43.07608" lon="5.9108">
        <ele>17.9</ele>
        <time>2025-05-25T14:42:15.000Z</time>
      </trkpt>
      <trkpt lat="43.07608" lon="5.9108">
        <ele>17.8</ele>
        <time>2025-05-25T14:42:16.000Z</time>
      </trkpt>
      <trkpt lat="43.07608" lon="5.9108">
        <ele>17.8</ele>
        <time>2025-05-25T14:42:17.000Z</time>
      </trkpt>
      <trkpt lat="43.07607" lon="5.91079">
        <ele>17.7</ele>
        <time>2025-05-25T14:42:18.000Z</time>
      </trkpt>
      <trkpt lat="43.07607" lon="5.91078">
        <ele>17.7</ele>
        <time>2025-05-25T14:42:19.000Z</time>
      </trkpt>
      <trkpt lat="43.076" lon="5.9107">
        <ele>17.3</ele>
        <time>2025-05-25T14:42:26.000Z</time>
      </trkpt>
      <trkpt lat="43.07591" lon="5.91064">
        <ele>16.9</ele>
        <time>2025-05-25T14:42:35.000Z</time>
      </trkpt>
      <trkpt lat="43.07582" lon="5.9106">
        <ele>16.6</ele>
        <time>2025-05-25T14:42:42.000Z</time>
      </trkpt>
      <trkpt lat="43.07574" lon="5.91053">
        <ele>16.3</ele>
        <time>2025-05-25T14:42:50.000Z</time>
      </trkpt>
      <trkpt lat="43.07574" lon="5.9104">
        <ele>16.1</ele>
        <time>2025-05-25T14:43:04.000Z</time>
      </trkpt>
      <trkpt lat="43.07575" lon="5.91027">
        <ele>15.9</ele>
        <time>2025-05-25T14:43:14.000Z</time>
      </trkpt>
      <trkpt lat="43.07579" lon="5.91016">
        <ele>15.7</ele>
        <time>2025-05-25T14:43:24.000Z</time>
      </trkpt>
      <trkpt lat="43.07585" lon="5.91005">
        <ele>15.5</ele>
        <time>2025-05-25T14:43:34.000Z</time>
      </trkpt>
      <trkpt lat="43.07581" lon="5.90992">
        <ele>15.2</ele>
        <time>2025-05-25T14:43:42.000Z</time>
      </trkpt>
      <trkpt lat="43.07575" lon="5.90983">
        <ele>14.8</ele>
        <time>2025-05-25T14:43:51.000Z</time>
      </trkpt>
      <trkpt lat="43.07569" lon="5.90972">
        <ele>14.4</ele>
        <time>2025-05-25T14:44:02.000Z</time>
      </trkpt>
      <trkpt lat="43.07564" lon="5.90962">
        <ele>14</ele>
        <time>2025-05-25T14:44:11.000Z</time>
      </trkpt>
      <trkpt lat="43.07558" lon="5.90951">
        <ele>13.6</ele>
        <time>2025-05-25T14:44:21.000Z</time>
      </trkpt>
      <trkpt lat="43.07551" lon="5.90943">
        <ele>13.1</ele>
        <time>2025-05-25T14:44:28.000Z</time>
      </trkpt>
      <trkpt lat="43.07544" lon="5.90933">
        <ele>12.7</ele>
        <time>2025-05-25T14:44:36.000Z</time>
      </trkpt>
      <trkpt lat="43.07536" lon="5.90926">
        <ele>12.2</ele>
        <time>2025-05-25T14:44:46.000Z</time>
      </trkpt>
      <trkpt lat="43.07529" lon="5.90917">
        <ele>11.9</ele>
        <time>2025-05-25T14:44:52.000Z</time>
      </trkpt>
      <trkpt lat="43.0752" lon="5.9091">
        <ele>11.7</ele>
        <time>2025-05-25T14:45:01.000Z</time>
      </trkpt>
      <trkpt lat="43.07513" lon="5.90903">
        <ele>11.5</ele>
        <time>2025-05-25T14:45:10.000Z</time>
      </trkpt>
      <trkpt lat="43.07511" lon="5.90891">
        <ele>11.2</ele>
        <time>2025-05-25T14:45:23.000Z</time>
      </trkpt>
      <trkpt lat="43.07505" lon="5.90881">
        <ele>10.9</ele>
        <time>2025-05-25T14:45:35.000Z</time>
      </trkpt>
      <trkpt lat="43.07497" lon="5.90874">
        <ele>10.7</ele>
        <time>2025-05-25T14:45:43.000Z</time>
      </trkpt>
      <trkpt lat="43.07491" lon="5.90865">
        <ele>10.4</ele>
        <time>2025-05-25T14:45:54.000Z</time>
      </trkpt>
      <trkpt lat="43.07493" lon="5.90852">
        <ele>10.3</ele>
        <time>2025-05-25T14:46:03.000Z</time>
      </trkpt>
      <trkpt lat="43.07494" lon="5.90839">
        <ele>10.1</ele>
        <time>2025-05-25T14:46:12.000Z</time>
      </trkpt>
      <trkpt lat="43.07495" lon="5.90825">
        <ele>9.9</ele>
        <time>2025-05-25T14:46:21.000Z</time>
      </trkpt>
      <trkpt lat="43.07493" lon="5.90812">
        <ele>9.8</ele>
        <time>2025-05-25T14:46:29.000Z</time>
      </trkpt>
      <trkpt lat="43.07498" lon="5.90802">
        <ele>9.7</ele>
        <time>2025-05-25T14:46:38.000Z</time>
      </trkpt>
      <trkpt lat="43.07503" lon="5.9079">
        <ele>9.6</ele>
        <time>2025-05-25T14:46:48.000Z</time>
      </trkpt>
      <trkpt lat="43.07505" lon="5.90778">
        <ele>9.5</ele>
        <time>2025-05-25T14:46:56.000Z</time>
      </trkpt>
      <trkpt lat="43.07507" lon="5.90764">
        <ele>9.3</ele>
        <time>2025-05-25T14:47:06.000Z</time>
      </trkpt>
      <trkpt lat="43.07511" lon="5.90752">
        <ele>9.2</ele>
        <time>2025-05-25T14:47:15.000Z</time>
      </trkpt>
      <trkpt lat="43.07515" lon="5.9074">
        <ele>9.2</ele>
        <time>2025-05-25T14:47:24.000Z</time>
      </trkpt>
      <trkpt lat="43.0752" lon="5.9073">
        <ele>9.2</ele>
        <time>2025-05-25T14:47:33.000Z</time>
      </trkpt>
      <trkpt lat="43.07523" lon="5.90718">
        <ele>9.2</ele>
        <time>2025-05-25T14:47:40.000Z</time>
      </trkpt>
      <trkpt lat="43.07523" lon="5.90704">
        <ele>9.2</ele>
        <time>2025-05-25T14:47:49.000Z</time>
      </trkpt>
      <trkpt lat="43.07524" lon="5.90693">
        <ele>9.1</ele>
        <time>2025-05-25T14:48:03.000Z</time>
      </trkpt>
      <trkpt lat="43.07524" lon="5.90693">
        <ele>9.1</ele>
        <time>2025-05-25T14:48:04.000Z</time>
      </trkpt>
      <trkpt lat="43.07523" lon="5.90692">
        <ele>9.1</ele>
        <time>2025-05-25T14:48:11.000Z</time>
      </trkpt>
      <trkpt lat="43.07524" lon="5.90691">
        <ele>9.1</ele>
        <time>2025-05-25T14:48:12.000Z</time>
      </trkpt>
      <trkpt lat="43.07531" lon="5.90682">
        <ele>9.1</ele>
        <time>2025-05-25T14:48:26.000Z</time>
      </trkpt>
      <trkpt lat="43.07537" lon="5.90674">
        <ele>9</ele>
        <time>2025-05-25T14:48:37.000Z</time>
      </trkpt>
      <trkpt lat="43.07541" lon="5.90661">
        <ele>9</ele>
        <time>2025-05-25T14:48:47.000Z</time>
      </trkpt>
      <trkpt lat="43.0755" lon="5.90658">
        <ele>8.9</ele>
        <time>2025-05-25T14:48:55.000Z</time>
      </trkpt>
      <trkpt lat="43.07559" lon="5.90658">
        <ele>9</ele>
        <time>2025-05-25T14:49:04.000Z</time>
      </trkpt>
      <trkpt lat="43.07568" lon="5.90655">
        <ele>9</ele>
        <time>2025-05-25T14:49:11.000Z</time>
      </trkpt>
      <trkpt lat="43.07576" lon="5.90648">
        <ele>9</ele>
        <time>2025-05-25T14:49:20.000Z</time>
      </trkpt>
      <trkpt lat="43.07583" lon="5.9064">
        <ele>9</ele>
        <time>2025-05-25T14:49:27.000Z</time>
      </trkpt>
      <trkpt lat="43.0759" lon="5.90633">
        <ele>9</ele>
        <time>2025-05-25T14:49:35.000Z</time>
      </trkpt>
      <trkpt lat="43.07599" lon="5.90627">
        <ele>8.9</ele>
        <time>2025-05-25T14:49:43.000Z</time>
      </trkpt>
      <trkpt lat="43.07607" lon="5.90623">
        <ele>8.9</ele>
        <time>2025-05-25T14:49:52.000Z</time>
      </trkpt>
      <trkpt lat="43.07615" lon="5.90618">
        <ele>8.9</ele>
        <time>2025-05-25T14:50:05.000Z</time>
      </trkpt>
      <trkpt lat="43.07625" lon="5.90615">
        <ele>8.9</ele>
        <time>2025-05-25T14:50:15.000Z</time>
      </trkpt>
      <trkpt lat="43.07635" lon="5.90612">
        <ele>8.8</ele>
        <time>2025-05-25T14:50:23.000Z</time>
      </trkpt>
      <trkpt lat="43.07644" lon="5.90611">
        <ele>8.7</ele>
        <time>2025-05-25T14:50:30.000Z</time>
      </trkpt>
      <trkpt lat="43.07653" lon="5.90607">
        <ele>8.6</ele>
        <time>2025-05-25T14:50:38.000Z</time>
      </trkpt>
      <trkpt lat="43.07662" lon="5.90605">
        <ele>8.6</ele>
        <time>2025-05-25T14:50:44.000Z</time>
      </trkpt>
      <trkpt lat="43.07671" lon="5.90598">
        <ele>8.5</ele>
        <time>2025-05-25T14:50:50.000Z</time>
      </trkpt>
      <trkpt lat="43.0768" lon="5.90595">
        <ele>8.4</ele>
        <time>2025-05-25T14:51:04.000Z</time>
      </trkpt>
      <trkpt lat="43.07689" lon="5.90594">
        <ele>8.3</ele>
        <time>2025-05-25T14:51:12.000Z</time>
      </trkpt>
      <trkpt lat="43.07698" lon="5.90589">
        <ele>8.2</ele>
        <time>2025-05-25T14:51:21.000Z</time>
      </trkpt>
      <trkpt lat="43.07707" lon="5.90586">
        <ele>8.1</ele>
        <time>2025-05-25T14:51:29.000Z</time>
      </trkpt>
      <trkpt lat="43.07717" lon="5.90585">
        <ele>8.1</ele>
        <time>2025-05-25T14:51:39.000Z</time>
      </trkpt>
      <trkpt lat="43.07721" lon="5.90573">
        <ele>8</ele>
        <time>2025-05-25T14:51:47.000Z</time>
      </trkpt>
      <trkpt lat="43.07721" lon="5.90559">
        <ele>8</ele>
        <time>2025-05-25T14:51:57.000Z</time>
      </trkpt>
      <trkpt lat="43.07731" lon="5.90558">
        <ele>7.9</ele>
        <time>2025-05-25T14:52:06.000Z</time>
      </trkpt>
      <trkpt lat="43.07741" lon="5.90559">
        <ele>7.9</ele>
        <time>2025-05-25T14:52:13.000Z</time>
      </trkpt>
      <trkpt lat="43.0775" lon="5.90552">
        <ele>7.9</ele>
        <time>2025-05-25T14:52:22.000Z</time>
      </trkpt>
      <trkpt lat="43.07754" lon="5.90539">
        <ele>7.8</ele>
        <time>2025-05-25T14:52:28.000Z</time>
      </trkpt>
      <trkpt lat="43.07759" lon="5.90527">
        <ele>7.9</ele>
        <time>2025-05-25T14:52:38.000Z</time>
      </trkpt>
      <trkpt lat="43.07762" lon="5.90514">
        <ele>7.9</ele>
        <time>2025-05-25T14:52:46.000Z</time>
      </trkpt>
      <trkpt lat="43.07767" lon="5.90501">
        <ele>7.8</ele>
        <time>2025-05-25T14:52:54.000Z</time>
      </trkpt>
      <trkpt lat="43.07771" lon="5.9049">
        <ele>7.8</ele>
        <time>2025-05-25T14:53:03.000Z</time>
      </trkpt>
      <trkpt lat="43.07771" lon="5.90477">
        <ele>7.8</ele>
        <time>2025-05-25T14:53:11.000Z</time>
      </trkpt>
      <trkpt lat="43.07776" lon="5.90465">
        <ele>7.8</ele>
        <time>2025-05-25T14:53:20.000Z</time>
      </trkpt>
      <trkpt lat="43.07782" lon="5.90455">
        <ele>7.8</ele>
        <time>2025-05-25T14:53:32.000Z</time>
      </trkpt>
      <trkpt lat="43.0779" lon="5.90449">
        <ele>7.8</ele>
        <time>2025-05-25T14:53:41.000Z</time>
      </trkpt>
      <trkpt lat="43.07798" lon="5.90441">
        <ele>7.7</ele>
        <time>2025-05-25T14:53:49.000Z</time>
      </trkpt>
      <trkpt lat="43.07805" lon="5.9043">
        <ele>7.7</ele>
        <time>2025-05-25T14:53:57.000Z</time>
      </trkpt>
      <trkpt lat="43.07811" lon="5.90421">
        <ele>7.6</ele>
        <time>2025-05-25T14:54:08.000Z</time>
      </trkpt>
      <trkpt lat="43.07819" lon="5.90414">
        <ele>7.5</ele>
        <time>2025-05-25T14:54:15.000Z</time>
      </trkpt>
      <trkpt lat="43.07827" lon="5.90407">
        <ele>7.5</ele>
        <time>2025-05-25T14:54:23.000Z</time>
      </trkpt>
      <trkpt lat="43.07836" lon="5.90403">
        <ele>7.4</ele>
        <time>2025-05-25T14:54:32.000Z</time>
      </trkpt>
      <trkpt lat="43.07846" lon="5.90404">
        <ele>7.4</ele>
        <time>2025-05-25T14:54:40.000Z</time>
      </trkpt>
      <trkpt lat="43.07854" lon="5.90409">
        <ele>7.3</ele>
        <time>2025-05-25T14:54:49.000Z</time>
      </trkpt>
      <trkpt lat="43.07862" lon="5.90416">
        <ele>7.3</ele>
        <time>2025-05-25T14:54:56.000Z</time>
      </trkpt>
      <trkpt lat="43.0787" lon="5.90422">
        <ele>7.3</ele>
        <time>2025-05-25T14:55:03.000Z</time>
      </trkpt>
      <trkpt lat="43.07879" lon="5.90426">
        <ele>7.4</ele>
        <time>2025-05-25T14:55:13.000Z</time>
      </trkpt>
      <trkpt lat="43.07886" lon="5.90417">
        <ele>7.4</ele>
        <time>2025-05-25T14:55:23.000Z</time>
      </trkpt>
      <trkpt lat="43.07892" lon="5.90407">
        <ele>7.3</ele>
        <time>2025-05-25T14:55:35.000Z</time>
      </trkpt>
      <trkpt lat="43.07897" lon="5.90395">
        <ele>7.2</ele>
        <time>2025-05-25T14:55:43.000Z</time>
      </trkpt>
      <trkpt lat="43.07901" lon="5.90384">
        <ele>7.2</ele>
        <time>2025-05-25T14:55:51.000Z</time>
      </trkpt>
      <trkpt lat="43.07905" lon="5.90372">
        <ele>7.2</ele>
        <time>2025-05-25T14:55:59.000Z</time>
      </trkpt>
      <trkpt lat="43.07908" lon="5.9036">
        <ele>7.2</ele>
        <time>2025-05-25T14:56:08.000Z</time>
      </trkpt>
      <trkpt lat="43.07908" lon="5.90346">
        <ele>7.2</ele>
        <time>2025-05-25T14:56:17.000Z</time>
      </trkpt>
      <trkpt lat="43.07912" lon="5.90334">
        <ele>7.3</ele>
        <time>2025-05-25T14:56:26.000Z</time>
      </trkpt>
      <trkpt lat="43.07916" lon="5.90322">
        <ele>7.3</ele>
        <time>2025-05-25T14:56:35.000Z</time>
      </trkpt>
      <trkpt lat="43.07917" lon="5.90309">
        <ele>7.4</ele>
        <time>2025-05-25T14:56:43.000Z</time>
      </trkpt>
      <trkpt lat="43.07919" lon="5.90297">
        <ele>7.4</ele>
        <time>2025-05-25T14:56:51.000Z</time>
      </trkpt>
      <trkpt lat="43.07921" lon="5.90284">
        <ele>7.5</ele>
        <time>2025-05-25T14:57:00.000Z</time>
      </trkpt>
      <trkpt lat="43.07926" lon="5.90273">
        <ele>7.6</ele>
        <time>2025-05-25T14:57:07.000Z</time>
      </trkpt>
      <trkpt lat="43.07932" lon="5.90262">
        <ele>7.8</ele>
        <time>2025-05-25T14:57:16.000Z</time>
      </trkpt>
      <trkpt lat="43.07941" lon="5.90259">
        <ele>7.9</ele>
        <time>2025-05-25T14:57:26.000Z</time>
      </trkpt>
      <trkpt lat="43.07942" lon="5.90246">
        <ele>7.9</ele>
        <time>2025-05-25T14:57:34.000Z</time>
      </trkpt>
      <trkpt lat="43.07941" lon="5.90233">
        <ele>7.9</ele>
        <time>2025-05-25T14:57:42.000Z</time>
      </trkpt>
      <trkpt lat="43.07941" lon="5.9022">
        <ele>7.9</ele>
        <time>2025-05-25T14:57:49.000Z</time>
      </trkpt>
      <trkpt lat="43.0794" lon="5.90208">
        <ele>8</ele>
        <time>2025-05-25T14:57:57.000Z</time>
      </trkpt>
      <trkpt lat="43.0794" lon="5.90195">
        <ele>8</ele>
        <time>2025-05-25T14:58:05.000Z</time>
      </trkpt>
      <trkpt lat="43.07938" lon="5.90183">
        <ele>8.1</ele>
        <time>2025-05-25T14:58:12.000Z</time>
      </trkpt>
      <trkpt lat="43.07936" lon="5.9017">
        <ele>8.1</ele>
        <time>2025-05-25T14:58:21.000Z</time>
      </trkpt>
      <trkpt lat="43.07934" lon="5.90157">
        <ele>8.2</ele>
        <time>2025-05-25T14:58:30.000Z</time>
      </trkpt>
      <trkpt lat="43.07935" lon="5.90144">
        <ele>8.2</ele>
        <time>2025-05-25T14:58:38.000Z</time>
      </trkpt>
      <trkpt lat="43.07932" lon="5.90131">
        <ele>8.3</ele>
        <time>2025-05-25T14:58:47.000Z</time>
      </trkpt>
      <trkpt lat="43.07929" lon="5.9012">
        <ele>8.3</ele>
        <time>2025-05-25T14:58:54.000Z</time>
      </trkpt>
      <trkpt lat="43.07928" lon="5.90107">
        <ele>8.3</ele>
        <time>2025-05-25T14:59:02.000Z</time>
      </trkpt>
      <trkpt lat="43.07926" lon="5.90094">
        <ele>8.3</ele>
        <time>2025-05-25T14:59:10.000Z</time>
      </trkpt>
      <trkpt lat="43.07926" lon="5.90081">
        <ele>8.3</ele>
        <time>2025-05-25T14:59:19.000Z</time>
      </trkpt>
      <trkpt lat="43.07926" lon="5.90069">
        <ele>8.3</ele>
        <time>2025-05-25T14:59:27.000Z</time>
      </trkpt>
      <trkpt lat="43.07926" lon="5.90055">
        <ele>8.3</ele>
        <time>2025-05-25T14:59:35.000Z</time>
      </trkpt>
      <trkpt lat="43.07926" lon="5.90041">
        <ele>8.3</ele>
        <time>2025-05-25T14:59:45.000Z</time>
      </trkpt>
      <trkpt lat="43.07926" lon="5.90028">
        <ele>8.3</ele>
        <time>2025-05-25T14:59:53.000Z</time>
      </trkpt>
      <trkpt lat="43.07928" lon="5.90014">
        <ele>8.3</ele>
        <time>2025-05-25T15:00:01.000Z</time>
      </trkpt>
      <trkpt lat="43.07932" lon="5.90002">
        <ele>8.3</ele>
        <time>2025-05-25T15:00:10.000Z</time>
      </trkpt>
      <trkpt lat="43.07934" lon="5.8999">
        <ele>8.4</ele>
        <time>2025-05-25T15:00:19.000Z</time>
      </trkpt>
      <trkpt lat="43.07937" lon="5.89977">
        <ele>8.4</ele>
        <time>2025-05-25T15:00:28.000Z</time>
      </trkpt>
      <trkpt lat="43.07939" lon="5.89965">
        <ele>8.4</ele>
        <time>2025-05-25T15:00:38.000Z</time>
      </trkpt>
      <trkpt lat="43.07946" lon="5.89956">
        <ele>8.3</ele>
        <time>2025-05-25T15:00:45.000Z</time>
      </trkpt>
      <trkpt lat="43.07952" lon="5.89946">
        <ele>8.3</ele>
        <time>2025-05-25T15:00:53.000Z</time>
      </trkpt>
      <trkpt lat="43.07955" lon="5.89934">
        <ele>8.4</ele>
        <time>2025-05-25T15:01:03.000Z</time>
      </trkpt>
      <trkpt lat="43.07965" lon="5.89929">
        <ele>8.5</ele>
        <time>2025-05-25T15:01:12.000Z</time>
      </trkpt>
      <trkpt lat="43.07972" lon="5.89923">
        <ele>8.5</ele>
        <time>2025-05-25T15:01:22.000Z</time>
      </trkpt>
      <trkpt lat="43.07976" lon="5.89911">
        <ele>8.5</ele>
        <time>2025-05-25T15:01:28.000Z</time>
      </trkpt>
      <trkpt lat="43.07981" lon="5.89899">
        <ele>8.4</ele>
        <time>2025-05-25T15:01:36.000Z</time>
      </trkpt>
      <trkpt lat="43.07981" lon="5.89886">
        <ele>8.3</ele>
        <time>2025-05-25T15:01:44.000Z</time>
      </trkpt>
      <trkpt lat="43.07978" lon="5.89874">
        <ele>8.3</ele>
        <time>2025-05-25T15:01:52.000Z</time>
      </trkpt>
      <trkpt lat="43.07974" lon="5.89861">
        <ele>8.4</ele>
        <time>2025-05-25T15:02:00.000Z</time>
      </trkpt>
      <trkpt lat="43.07975" lon="5.89849">
        <ele>8.4</ele>
        <time>2025-05-25T15:02:07.000Z</time>
      </trkpt>
      <trkpt lat="43.07979" lon="5.89838">
        <ele>8.4</ele>
        <time>2025-05-25T15:02:15.000Z</time>
      </trkpt>
      <trkpt lat="43.07983" lon="5.89826">
        <ele>8.5</ele>
        <time>2025-05-25T15:02:23.000Z</time>
      </trkpt>
      <trkpt lat="43.07988" lon="5.89815">
        <ele>8.5</ele>
        <time>2025-05-25T15:02:31.000Z</time>
      </trkpt>
      <trkpt lat="43.07993" lon="5.89803">
        <ele>8.6</ele>
        <time>2025-05-25T15:02:39.000Z</time>
      </trkpt>
      <trkpt lat="43.07997" lon="5.89791">
        <ele>8.5</ele>
        <time>2025-05-25T15:02:48.000Z</time>
      </trkpt>
      <trkpt lat="43.08" lon="5.89779">
        <ele>8.5</ele>
        <time>2025-05-25T15:02:56.000Z</time>
      </trkpt>
      <trkpt lat="43.08005" lon="5.89768">
        <ele>8.5</ele>
        <time>2025-05-25T15:03:05.000Z</time>
      </trkpt>
      <trkpt lat="43.08013" lon="5.89761">
        <ele>8.4</ele>
        <time>2025-05-25T15:03:15.000Z</time>
      </trkpt>
      <trkpt lat="43.08017" lon="5.89747">
        <ele>8.4</ele>
        <time>2025-05-25T15:03:23.000Z</time>
      </trkpt>
      <trkpt lat="43.08023" lon="5.89737">
        <ele>8.3</ele>
        <time>2025-05-25T15:03:31.000Z</time>
      </trkpt>
      <trkpt lat="43.08027" lon="5.89726">
        <ele>8.2</ele>
        <time>2025-05-25T15:03:39.000Z</time>
      </trkpt>
      <trkpt lat="43.08031" lon="5.89715">
        <ele>8.2</ele>
        <time>2025-05-25T15:03:46.000Z</time>
      </trkpt>
      <trkpt lat="43.08034" lon="5.89703">
        <ele>8.1</ele>
        <time>2025-05-25T15:03:54.000Z</time>
      </trkpt>
      <trkpt lat="43.08038" lon="5.89691">
        <ele>8.1</ele>
        <time>2025-05-25T15:04:02.000Z</time>
      </trkpt>
      <trkpt lat="43.08042" lon="5.8968">
        <ele>8</ele>
        <time>2025-05-25T15:04:09.000Z</time>
      </trkpt>
      <trkpt lat="43.08046" lon="5.89668">
        <ele>8</ele>
        <time>2025-05-25T15:04:19.000Z</time>
      </trkpt>
      <trkpt lat="43.0805" lon="5.89656">
        <ele>8</ele>
        <time>2025-05-25T15:04:29.000Z</time>
      </trkpt>
      <trkpt lat="43.08051" lon="5.89656">
        <ele>8</ele>
        <time>2025-05-25T15:04:35.000Z</time>
      </trkpt>
      <trkpt lat="43.08051" lon="5.89656">
        <ele>8</ele>
        <time>2025-05-25T15:04:36.000Z</time>
      </trkpt>
      <trkpt lat="43.08051" lon="5.89656">
        <ele>8</ele>
        <time>2025-05-25T15:04:37.000Z</time>
      </trkpt>
      <trkpt lat="43.08051" lon="5.89656">
        <ele>7.9</ele>
        <time>2025-05-25T15:04:41.000Z</time>
      </trkpt>
      <trkpt lat="43.08051" lon="5.89656">
        <ele>7.9</ele>
        <time>2025-05-25T15:04:42.000Z</time>
      </trkpt>
      <trkpt lat="43.08051" lon="5.89656">
        <ele>8</ele>
        <time>2025-05-25T15:04:45.000Z</time>
      </trkpt>
      <trkpt lat="43.08051" lon="5.89656">
        <ele>8</ele>
        <time>2025-05-25T15:04:46.000Z</time>
      </trkpt>
      <trkpt lat="43.08051" lon="5.89656">
        <ele>8</ele>
        <time>2025-05-25T15:04:47.000Z</time>
      </trkpt>
      <trkpt lat="43.08051" lon="5.89656">
        <ele>8</ele>
        <time>2025-05-25T15:04:48.000Z</time>
      </trkpt>
      <trkpt lat="43.08051" lon="5.89655">
        <ele>8</ele>
        <time>2025-05-25T15:04:49.000Z</time>
      </trkpt>
      <trkpt lat="43.08051" lon="5.89656">
        <ele>8</ele>
        <time>2025-05-25T15:04:55.000Z</time>
      </trkpt>
      <trkpt lat="43.08051" lon="5.89656">
        <ele>8</ele>
        <time>2025-05-25T15:04:56.000Z</time>
      </trkpt>
      <trkpt lat="43.08051" lon="5.89656">
        <ele>8</ele>
        <time>2025-05-25T15:05:08.000Z</time>
      </trkpt>
      <trkpt lat="43.08051" lon="5.89656">
        <ele>7.9</ele>
        <time>2025-05-25T15:05:09.000Z</time>
      </trkpt>
      <trkpt lat="43.08051" lon="5.89656">
        <ele>7.9</ele>
        <time>2025-05-25T15:05:10.000Z</time>
      </trkpt>
      <trkpt lat="43.08051" lon="5.89656">
        <ele>7.9</ele>
        <time>2025-05-25T15:05:11.000Z</time>
      </trkpt>
      <trkpt lat="43.08051" lon="5.89656">
        <ele>7.9</ele>
        <time>2025-05-25T15:05:12.000Z</time>
      </trkpt>
      <trkpt lat="43.08051" lon="5.89656">
        <ele>7.9</ele>
        <time>2025-05-25T15:05:25.000Z</time>
      </trkpt>
      <trkpt lat="43.08051" lon="5.89656">
        <ele>8</ele>
        <time>2025-05-25T15:05:26.000Z</time>
      </trkpt>
      <trkpt lat="43.08051" lon="5.89656">
        <ele>8</ele>
        <time>2025-05-25T15:05:27.000Z</time>
      </trkpt>
      <trkpt lat="43.08051" lon="5.89656">
        <ele>8</ele>
        <time>2025-05-25T15:05:28.000Z</time>
      </trkpt>
      <trkpt lat="43.08051" lon="5.89656">
        <ele>8</ele>
        <time>2025-05-25T15:05:29.000Z</time>
      </trkpt>
      <trkpt lat="43.08051" lon="5.89656">
        <ele>8</ele>
        <time>2025-05-25T15:05:30.000Z</time>
      </trkpt>
      <trkpt lat="43.08051" lon="5.89656">
        <ele>8</ele>
        <time>2025-05-25T15:05:31.000Z</time>
      </trkpt>
      <trkpt lat="43.08051" lon="5.89656">
        <ele>8</ele>
        <time>2025-05-25T15:05:32.000Z</time>
      </trkpt>
      <trkpt lat="43.08051" lon="5.89656">
        <ele>8</ele>
        <time>2025-05-25T15:05:33.000Z</time>
      </trkpt>
      <trkpt lat="43.08051" lon="5.89656">
        <ele>8</ele>
        <time>2025-05-25T15:05:34.000Z</time>
      </trkpt>
      <trkpt lat="43.08051" lon="5.89655">
        <ele>8</ele>
        <time>2025-05-25T15:05:45.000Z</time>
      </trkpt>
      <trkpt lat="43.08051" lon="5.89655">
        <ele>8</ele>
        <time>2025-05-25T15:05:46.000Z</time>
      </trkpt>
      <trkpt lat="43.08051" lon="5.89655">
        <ele>8</ele>
        <time>2025-05-25T15:05:47.000Z</time>
      </trkpt>
      <trkpt lat="43.08051" lon="5.89655">
        <ele>8</ele>
        <time>2025-05-25T15:05:48.000Z</time>
      </trkpt>
      <trkpt lat="43.08051" lon="5.89655">
        <ele>8</ele>
        <time>2025-05-25T15:05:49.000Z</time>
      </trkpt>
      <trkpt lat="43.08051" lon="5.89655">
        <ele>8.1</ele>
        <time>2025-05-25T15:06:08.000Z</time>
      </trkpt>
      <trkpt lat="43.08051" lon="5.89655">
        <ele>8.1</ele>
        <time>2025-05-25T15:06:09.000Z</time>
      </trkpt>
      <trkpt lat="43.08051" lon="5.89655">
        <ele>8.1</ele>
        <time>2025-05-25T15:06:10.000Z</time>
      </trkpt>
      <trkpt lat="43.08051" lon="5.89655">
        <ele>8.1</ele>
        <time>2025-05-25T15:06:11.000Z</time>
      </trkpt>
      <trkpt lat="43.08051" lon="5.89655">
        <ele>8.2</ele>
        <time>2025-05-25T15:06:37.000Z</time>
      </trkpt>
      <trkpt lat="43.08051" lon="5.89655">
        <ele>8.2</ele>
        <time>2025-05-25T15:06:38.000Z</time>
      </trkpt>
      <trkpt lat="43.08051" lon="5.89655">
        <ele>8.2</ele>
        <time>2025-05-25T15:06:39.000Z</time>
      </trkpt>
      <trkpt lat="43.08051" lon="5.89655">
        <ele>8.2</ele>
        <time>2025-05-25T15:06:42.000Z</time>
      </trkpt>
      <trkpt lat="43.08051" lon="5.89655">
        <ele>8.2</ele>
        <time>2025-05-25T15:06:43.000Z</time>
      </trkpt>
      <trkpt lat="43.08051" lon="5.89655">
        <ele>8.2</ele>
        <time>2025-05-25T15:06:44.000Z</time>
      </trkpt>
      <trkpt lat="43.08051" lon="5.89654">
        <ele>8.3</ele>
        <time>2025-05-25T15:07:08.000Z</time>
      </trkpt>
      <trkpt lat="43.08051" lon="5.89654">
        <ele>8.3</ele>
        <time>2025-05-25T15:07:09.000Z</time>
      </trkpt>
      <trkpt lat="43.08051" lon="5.89654">
        <ele>8.3</ele>
        <time>2025-05-25T15:07:10.000Z</time>
      </trkpt>
      <trkpt lat="43.08051" lon="5.89654">
        <ele>8.3</ele>
        <time>2025-05-25T15:07:11.000Z</time>
      </trkpt>
      <trkpt lat="43.08051" lon="5.89654">
        <ele>8.3</ele>
        <time>2025-05-25T15:07:12.000Z</time>
      </trkpt>
      <trkpt lat="43.08051" lon="5.89654">
        <ele>8.3</ele>
        <time>2025-05-25T15:07:33.000Z</time>
      </trkpt>
      <trkpt lat="43.08051" lon="5.89654">
        <ele>8.3</ele>
        <time>2025-05-25T15:07:34.000Z</time>
      </trkpt>
      <trkpt lat="43.08051" lon="5.89654">
        <ele>8.3</ele>
        <time>2025-05-25T15:07:35.000Z</time>
      </trkpt>
      <trkpt lat="43.08051" lon="5.89654">
        <ele>8.3</ele>
        <time>2025-05-25T15:07:36.000Z</time>
      </trkpt>
      <trkpt lat="43.08051" lon="5.89654">
        <ele>8.3</ele>
        <time>2025-05-25T15:07:37.000Z</time>
      </trkpt>
      <trkpt lat="43.08051" lon="5.89654">
        <ele>8.3</ele>
        <time>2025-05-25T15:08:08.000Z</time>
      </trkpt>
      <trkpt lat="43.08051" lon="5.89654">
        <ele>8.3</ele>
        <time>2025-05-25T15:08:09.000Z</time>
      </trkpt>
      <trkpt lat="43.08051" lon="5.89654">
        <ele>8.3</ele>
        <time>2025-05-25T15:08:10.000Z</time>
      </trkpt>
      <trkpt lat="43.08051" lon="5.89654">
        <ele>8.3</ele>
        <time>2025-05-25T15:08:11.000Z</time>
      </trkpt>
      <trkpt lat="43.08051" lon="5.89654">
        <ele>8.5</ele>
        <time>2025-05-25T15:10:07.000Z</time>
      </trkpt>
      <trkpt lat="43.08051" lon="5.89654">
        <ele>8.5</ele>
        <time>2025-05-25T15:10:08.000Z</time>
      </trkpt>
      <trkpt lat="43.08051" lon="5.89654">
        <ele>8.5</ele>
        <time>2025-05-25T15:10:09.000Z</time>
      </trkpt>
      <trkpt lat="43.08051" lon="5.89654">
        <ele>8.5</ele>
        <time>2025-05-25T15:10:10.000Z</time>
      </trkpt>
      <trkpt lat="43.08051" lon="5.89654">
        <ele>8.5</ele>
        <time>2025-05-25T15:10:11.000Z</time>
      </trkpt>
      <trkpt lat="43.08052" lon="5.89654">
        <ele>8.4</ele>
        <time>2025-05-25T15:12:17.000Z</time>
      </trkpt>
      <trkpt lat="43.08052" lon="5.89654">
        <ele>8.4</ele>
        <time>2025-05-25T15:12:18.000Z</time>
      </trkpt>
      <trkpt lat="43.08052" lon="5.89654">
        <ele>8.4</ele>
        <time>2025-05-25T15:12:19.000Z</time>
      </trkpt>
      <trkpt lat="43.08052" lon="5.89654">
        <ele>8.4</ele>
        <time>2025-05-25T15:12:20.000Z</time>
      </trkpt>
      <trkpt lat="43.08052" lon="5.89655">
        <ele>8.4</ele>
        <time>2025-05-25T15:12:21.000Z</time>
      </trkpt>
      <trkpt lat="43.08052" lon="5.89655">
        <ele>8.4</ele>
        <time>2025-05-25T15:12:22.000Z</time>
      </trkpt>
      <trkpt lat="43.08052" lon="5.89655">
        <ele>8.4</ele>
        <time>2025-05-25T15:12:23.000Z</time>
      </trkpt>
      <trkpt lat="43.08052" lon="5.89655">
        <ele>8.4</ele>
        <time>2025-05-25T15:12:24.000Z</time>
      </trkpt>
      <trkpt lat="43.08052" lon="5.89655">
        <ele>8.4</ele>
        <time>2025-05-25T15:12:25.000Z</time>
      </trkpt>
      <trkpt lat="43.08052" lon="5.89655">
        <ele>8.4</ele>
        <time>2025-05-25T15:12:26.000Z</time>
      </trkpt>
      <trkpt lat="43.08052" lon="5.89655">
        <ele>8.2</ele>
        <time>2025-05-25T15:13:00.000Z</time>
      </trkpt>
      <trkpt lat="43.08052" lon="5.89655">
        <ele>8.2</ele>
        <time>2025-05-25T15:13:01.000Z</time>
      </trkpt>
      <trkpt lat="43.08052" lon="5.89655">
        <ele>8.2</ele>
        <time>2025-05-25T15:13:02.000Z</time>
      </trkpt>
      <trkpt lat="43.08052" lon="5.89655">
        <ele>8.2</ele>
        <time>2025-05-25T15:13:03.000Z</time>
      </trkpt>
      <trkpt lat="43.08052" lon="5.89655">
        <ele>8.2</ele>
        <time>2025-05-25T15:13:04.000Z</time>
      </trkpt>
      <trkpt lat="43.08052" lon="5.89655">
        <ele>8.2</ele>
        <time>2025-05-25T15:13:20.000Z</time>
      </trkpt>
      <trkpt lat="43.08052" lon="5.89655">
        <ele>8.2</ele>
        <time>2025-05-25T15:13:21.000Z</time>
      </trkpt>
      <trkpt lat="43.08052" lon="5.89655">
        <ele>8.2</ele>
        <time>2025-05-25T15:13:22.000Z</time>
      </trkpt>
      <trkpt lat="43.08052" lon="5.89655">
        <ele>8.2</ele>
        <time>2025-05-25T15:13:23.000Z</time>
      </trkpt>
      <trkpt lat="43.08052" lon="5.89655">
        <ele>8.1</ele>
        <time>2025-05-25T15:13:24.000Z</time>
      </trkpt>
      <trkpt lat="43.08052" lon="5.89654">
        <ele>8.1</ele>
        <time>2025-05-25T15:13:28.000Z</time>
      </trkpt>
      <trkpt lat="43.08052" lon="5.89654">
        <ele>8.1</ele>
        <time>2025-05-25T15:13:29.000Z</time>
      </trkpt>
      <trkpt lat="43.08052" lon="5.89654">
        <ele>8.1</ele>
        <time>2025-05-25T15:13:30.000Z</time>
      </trkpt>
      <trkpt lat="43.08052" lon="5.89654">
        <ele>8.1</ele>
        <time>2025-05-25T15:13:31.000Z</time>
      </trkpt>
      <trkpt lat="43.08052" lon="5.89654">
        <ele>8.1</ele>
        <time>2025-05-25T15:13:32.000Z</time>
      </trkpt>
      <trkpt lat="43.08052" lon="5.89654">
        <ele>8.1</ele>
        <time>2025-05-25T15:13:33.000Z</time>
      </trkpt>
      <trkpt lat="43.08052" lon="5.89654">
        <ele>8.1</ele>
        <time>2025-05-25T15:13:34.000Z</time>
      </trkpt>
      <trkpt lat="43.08052" lon="5.89653">
        <ele>8.1</ele>
        <time>2025-05-25T15:13:35.000Z</time>
      </trkpt>
      <trkpt lat="43.08051" lon="5.89652">
        <ele>8.1</ele>
        <time>2025-05-25T15:13:41.000Z</time>
      </trkpt>
      <trkpt lat="43.08051" lon="5.89652">
        <ele>8.1</ele>
        <time>2025-05-25T15:13:42.000Z</time>
      </trkpt>
      <trkpt lat="43.08052" lon="5.89653">
        <ele>8</ele>
        <time>2025-05-25T15:14:33.000Z</time>
      </trkpt>
      <trkpt lat="43.08052" lon="5.89653">
        <ele>8</ele>
        <time>2025-05-25T15:14:34.000Z</time>
      </trkpt>
      <trkpt lat="43.0805" lon="5.89661">
        <ele>7.9</ele>
        <time>2025-05-25T15:15:10.000Z</time>
      </trkpt>
      <trkpt lat="43.08051" lon="5.89661">
        <ele>7.8</ele>
        <time>2025-05-25T15:15:11.000Z</time>
      </trkpt>
      <trkpt lat="43.08051" lon="5.89661">
        <ele>7.8</ele>
        <time>2025-05-25T15:15:12.000Z</time>
      </trkpt>
      <trkpt lat="43.08051" lon="5.89662">
        <ele>7.8</ele>
        <time>2025-05-25T15:15:13.000Z</time>
      </trkpt>
      <trkpt lat="43.08051" lon="5.89662">
        <ele>7.8</ele>
        <time>2025-05-25T15:15:14.000Z</time>
      </trkpt>
      <trkpt lat="43.08057" lon="5.89672">
        <ele>7.9</ele>
        <time>2025-05-25T15:15:28.000Z</time>
      </trkpt>
      <trkpt lat="43.08063" lon="5.89681">
        <ele>7.8</ele>
        <time>2025-05-25T15:15:43.000Z</time>
      </trkpt>
      <trkpt lat="43.08063" lon="5.89681">
        <ele>7.8</ele>
        <time>2025-05-25T15:15:44.000Z</time>
      </trkpt>
      <trkpt lat="43.08063" lon="5.89681">
        <ele>7.8</ele>
        <time>2025-05-25T15:15:45.000Z</time>
      </trkpt>
      <trkpt lat="43.08063" lon="5.89682">
        <ele>7.8</ele>
        <time>2025-05-25T15:15:46.000Z</time>
      </trkpt>
      <trkpt lat="43.08063" lon="5.89682">
        <ele>7.8</ele>
        <time>2025-05-25T15:15:47.000Z</time>
      </trkpt>
      <trkpt lat="43.08064" lon="5.89683">
        <ele>7.8</ele>
        <time>2025-05-25T15:15:51.000Z</time>
      </trkpt>
      <trkpt lat="43.08064" lon="5.89683">
        <ele>7.8</ele>
        <time>2025-05-25T15:15:52.000Z</time>
      </trkpt>
      <trkpt lat="43.08064" lon="5.89683">
        <ele>7.8</ele>
        <time>2025-05-25T15:16:01.000Z</time>
      </trkpt>
      <trkpt lat="43.08064" lon="5.89683">
        <ele>7.8</ele>
        <time>2025-05-25T15:16:02.000Z</time>
      </trkpt>
      <trkpt lat="43.08064" lon="5.89683">
        <ele>7.8</ele>
        <time>2025-05-25T15:16:03.000Z</time>
      </trkpt>
      <trkpt lat="43.08064" lon="5.89683">
        <ele>7.8</ele>
        <time>2025-05-25T15:16:04.000Z</time>
      </trkpt>
      <trkpt lat="43.08064" lon="5.89683">
        <ele>7.8</ele>
        <time>2025-05-25T15:16:05.000Z</time>
      </trkpt>
      <trkpt lat="43.08064" lon="5.89683">
        <ele>7.8</ele>
        <time>2025-05-25T15:16:08.000Z</time>
      </trkpt>
      <trkpt lat="43.08065" lon="5.89684">
        <ele>7.8</ele>
        <time>2025-05-25T15:16:09.000Z</time>
      </trkpt>
      <trkpt lat="43.08065" lon="5.89685">
        <ele>7.8</ele>
        <time>2025-05-25T15:16:16.000Z</time>
      </trkpt>
      <trkpt lat="43.08065" lon="5.89685">
        <ele>7.8</ele>
        <time>2025-05-25T15:16:17.000Z</time>
      </trkpt>
      <trkpt lat="43.08066" lon="5.89686">
        <ele>7.8</ele>
        <time>2025-05-25T15:16:23.000Z</time>
      </trkpt>
      <trkpt lat="43.08066" lon="5.89686">
        <ele>7.8</ele>
        <time>2025-05-25T15:16:24.000Z</time>
      </trkpt>
      <trkpt lat="43.08067" lon="5.89686">
        <ele>7.8</ele>
        <time>2025-05-25T15:16:25.000Z</time>
      </trkpt>
      <trkpt lat="43.08067" lon="5.89686">
        <ele>7.8</ele>
        <time>2025-05-25T15:16:26.000Z</time>
      </trkpt>
      <trkpt lat="43.08067" lon="5.89686">
        <ele>7.8</ele>
        <time>2025-05-25T15:16:27.000Z</time>
      </trkpt>
      <trkpt lat="43.08067" lon="5.89686">
        <ele>7.8</ele>
        <time>2025-05-25T15:16:35.000Z</time>
      </trkpt>
      <trkpt lat="43.08067" lon="5.89686">
        <ele>7.8</ele>
        <time>2025-05-25T15:16:36.000Z</time>
      </trkpt>
      <trkpt lat="43.08067" lon="5.89686">
        <ele>7.8</ele>
        <time>2025-05-25T15:16:37.000Z</time>
      </trkpt>
      <trkpt lat="43.08067" lon="5.89686">
        <ele>7.8</ele>
        <time>2025-05-25T15:16:38.000Z</time>
      </trkpt>
      <trkpt lat="43.08067" lon="5.89686">
        <ele>7.8</ele>
        <time>2025-05-25T15:16:39.000Z</time>
      </trkpt>
      <trkpt lat="43.08066" lon="5.89686">
        <ele>7.9</ele>
        <time>2025-05-25T15:16:50.000Z</time>
      </trkpt>
      <trkpt lat="43.08067" lon="5.89687">
        <ele>7.9</ele>
        <time>2025-05-25T15:16:51.000Z</time>
      </trkpt>
      <trkpt lat="43.08067" lon="5.89687">
        <ele>7.9</ele>
        <time>2025-05-25T15:16:55.000Z</time>
      </trkpt>
      <trkpt lat="43.08067" lon="5.89687">
        <ele>7.9</ele>
        <time>2025-05-25T15:16:56.000Z</time>
      </trkpt>
      <trkpt lat="43.08067" lon="5.89687">
        <ele>7.9</ele>
        <time>2025-05-25T15:16:57.000Z</time>
      </trkpt>
      <trkpt lat="43.08068" lon="5.89688">
        <ele>7.9</ele>
        <time>2025-05-25T15:17:00.000Z</time>
      </trkpt>
      <trkpt lat="43.08068" lon="5.89688">
        <ele>7.9</ele>
        <time>2025-05-25T15:17:01.000Z</time>
      </trkpt>
      <trkpt lat="43.08068" lon="5.89689">
        <ele>7.9</ele>
        <time>2025-05-25T15:17:08.000Z</time>
      </trkpt>
      <trkpt lat="43.08068" lon="5.89689">
        <ele>7.9</ele>
        <time>2025-05-25T15:17:09.000Z</time>
      </trkpt>
      <trkpt lat="43.08068" lon="5.89689">
        <ele>7.9</ele>
        <time>2025-05-25T15:17:13.000Z</time>
      </trkpt>
      <trkpt lat="43.08068" lon="5.89689">
        <ele>7.9</ele>
        <time>2025-05-25T15:17:14.000Z</time>
      </trkpt>
      <trkpt lat="43.08068" lon="5.89689">
        <ele>7.9</ele>
        <time>2025-05-25T15:17:15.000Z</time>
      </trkpt>
      <trkpt lat="43.08068" lon="5.89689">
        <ele>7.9</ele>
        <time>2025-05-25T15:17:16.000Z</time>
      </trkpt>
      <trkpt lat="43.08068" lon="5.89689">
        <ele>7.9</ele>
        <time>2025-05-25T15:17:22.000Z</time>
      </trkpt>
      <trkpt lat="43.08068" lon="5.89689">
        <ele>7.9</ele>
        <time>2025-05-25T15:17:23.000Z</time>
      </trkpt>
      <trkpt lat="43.08068" lon="5.89689">
        <ele>8</ele>
        <time>2025-05-25T15:17:24.000Z</time>
      </trkpt>
      <trkpt lat="43.08071" lon="5.89691">
        <ele>8</ele>
        <time>2025-05-25T15:17:38.000Z</time>
      </trkpt>
      <trkpt lat="43.08071" lon="5.89691">
        <ele>8</ele>
        <time>2025-05-25T15:17:39.000Z</time>
      </trkpt>
      <trkpt lat="43.08071" lon="5.89691">
        <ele>8</ele>
        <time>2025-05-25T15:17:40.000Z</time>
      </trkpt>
      <trkpt lat="43.08071" lon="5.8969">
        <ele>8</ele>
        <time>2025-05-25T15:17:50.000Z</time>
      </trkpt>
      <trkpt lat="43.08071" lon="5.8969">
        <ele>8</ele>
        <time>2025-05-25T15:17:51.000Z</time>
      </trkpt>
      <trkpt lat="43.08071" lon="5.8969">
        <ele>8</ele>
        <time>2025-05-25T15:17:52.000Z</time>
      </trkpt>
      <trkpt lat="43.08071" lon="5.8969">
        <ele>8</ele>
        <time>2025-05-25T15:17:53.000Z</time>
      </trkpt>
      <trkpt lat="43.08071" lon="5.8969">
        <ele>8</ele>
        <time>2025-05-25T15:17:54.000Z</time>
      </trkpt>
      <trkpt lat="43.0807" lon="5.8969">
        <ele>8</ele>
        <time>2025-05-25T15:17:57.000Z</time>
      </trkpt>
      <trkpt lat="43.0807" lon="5.8969">
        <ele>8</ele>
        <time>2025-05-25T15:17:58.000Z</time>
      </trkpt>
      <trkpt lat="43.0807" lon="5.89689">
        <ele>8</ele>
        <time>2025-05-25T15:17:59.000Z</time>
      </trkpt>
      <trkpt lat="43.08068" lon="5.8969">
        <ele>8.3</ele>
        <time>2025-05-25T15:18:15.000Z</time>
      </trkpt>
      <trkpt lat="43.08068" lon="5.8969">
        <ele>8.3</ele>
        <time>2025-05-25T15:18:16.000Z</time>
      </trkpt>
      <trkpt lat="43.08068" lon="5.8969">
        <ele>8.3</ele>
        <time>2025-05-25T15:18:17.000Z</time>
      </trkpt>
      <trkpt lat="43.08068" lon="5.8969">
        <ele>8.5</ele>
        <time>2025-05-25T15:18:28.000Z</time>
      </trkpt>
      <trkpt lat="43.08068" lon="5.89691">
        <ele>8.5</ele>
        <time>2025-05-25T15:18:29.000Z</time>
      </trkpt>
      <trkpt lat="43.08068" lon="5.89691">
        <ele>8.5</ele>
        <time>2025-05-25T15:18:30.000Z</time>
      </trkpt>
      <trkpt lat="43.08068" lon="5.89691">
        <ele>8.5</ele>
        <time>2025-05-25T15:18:33.000Z</time>
      </trkpt>
      <trkpt lat="43.08068" lon="5.89691">
        <ele>8.5</ele>
        <time>2025-05-25T15:18:34.000Z</time>
      </trkpt>
      <trkpt lat="43.08069" lon="5.8969">
        <ele>8.5</ele>
        <time>2025-05-25T15:18:37.000Z</time>
      </trkpt>
      <trkpt lat="43.08069" lon="5.89691">
        <ele>8.5</ele>
        <time>2025-05-25T15:18:38.000Z</time>
      </trkpt>
      <trkpt lat="43.08069" lon="5.89691">
        <ele>8.5</ele>
        <time>2025-05-25T15:18:39.000Z</time>
      </trkpt>
      <trkpt lat="43.08071" lon="5.89691">
        <ele>8.6</ele>
        <time>2025-05-25T15:18:50.000Z</time>
      </trkpt>
      <trkpt lat="43.08071" lon="5.89691">
        <ele>8.6</ele>
        <time>2025-05-25T15:18:51.000Z</time>
      </trkpt>
      <trkpt lat="43.08071" lon="5.89691">
        <ele>8.6</ele>
        <time>2025-05-25T15:18:52.000Z</time>
      </trkpt>
      <trkpt lat="43.08071" lon="5.89692">
        <ele>8.6</ele>
        <time>2025-05-25T15:18:56.000Z</time>
      </trkpt>
      <trkpt lat="43.08071" lon="5.89692">
        <ele>8.6</ele>
        <time>2025-05-25T15:18:57.000Z</time>
      </trkpt>
      <trkpt lat="43.08071" lon="5.89692">
        <ele>8.6</ele>
        <time>2025-05-25T15:19:00.000Z</time>
      </trkpt>
      <trkpt lat="43.08071" lon="5.89692">
        <ele>8.6</ele>
        <time>2025-05-25T15:19:01.000Z</time>
      </trkpt>
      <trkpt lat="43.08072" lon="5.89692">
        <ele>8.6</ele>
        <time>2025-05-25T15:19:02.000Z</time>
      </trkpt>
      <trkpt lat="43.08071" lon="5.89692">
        <ele>8.6</ele>
        <time>2025-05-25T15:19:03.000Z</time>
      </trkpt>
      <trkpt lat="43.08071" lon="5.89692">
        <ele>8.6</ele>
        <time>2025-05-25T15:19:04.000Z</time>
      </trkpt>
      <trkpt lat="43.0807" lon="5.89695">
        <ele>8.6</ele>
        <time>2025-05-25T15:19:13.000Z</time>
      </trkpt>
      <trkpt lat="43.0807" lon="5.89696">
        <ele>8.7</ele>
        <time>2025-05-25T15:19:14.000Z</time>
      </trkpt>
      <trkpt lat="43.0807" lon="5.89697">
        <ele>8.7</ele>
        <time>2025-05-25T15:19:15.000Z</time>
      </trkpt>
      <trkpt lat="43.08071" lon="5.89698">
        <ele>8.7</ele>
        <time>2025-05-25T15:19:16.000Z</time>
      </trkpt>
      <trkpt lat="43.08072" lon="5.89699">
        <ele>8.7</ele>
        <time>2025-05-25T15:19:17.000Z</time>
      </trkpt>
      <trkpt lat="43.08076" lon="5.89711">
        <ele>9</ele>
        <time>2025-05-25T15:19:28.000Z</time>
      </trkpt>
      <trkpt lat="43.08084" lon="5.89714">
        <ele>9</ele>
        <time>2025-05-25T15:19:32.000Z</time>
      </trkpt>
      <trkpt lat="43.08087" lon="5.89714">
        <ele>9</ele>
        <time>2025-05-25T15:19:33.000Z</time>
      </trkpt>
      <trkpt lat="43.08091" lon="5.89714">
        <ele>9</ele>
        <time>2025-05-25T15:19:34.000Z</time>
      </trkpt>
      <trkpt lat="43.08096" lon="5.89714">
        <ele>9.1</ele>
        <time>2025-05-25T15:19:37.000Z</time>
      </trkpt>
      <trkpt lat="43.08097" lon="5.89713">
        <ele>9.1</ele>
        <time>2025-05-25T15:19:38.000Z</time>
      </trkpt>
      <trkpt lat="43.08098" lon="5.89713">
        <ele>9.2</ele>
        <time>2025-05-25T15:19:39.000Z</time>
      </trkpt>
      <trkpt lat="43.081" lon="5.89711">
        <ele>9.1</ele>
        <time>2025-05-25T15:19:45.000Z</time>
      </trkpt>
      <trkpt lat="43.08099" lon="5.89711">
        <ele>9.1</ele>
        <time>2025-05-25T15:19:46.000Z</time>
      </trkpt>
      <trkpt lat="43.08099" lon="5.89711">
        <ele>9</ele>
        <time>2025-05-25T15:19:47.000Z</time>
      </trkpt>
      <trkpt lat="43.08099" lon="5.89711">
        <ele>9</ele>
        <time>2025-05-25T15:19:48.000Z</time>
      </trkpt>
      <trkpt lat="43.08099" lon="5.8971">
        <ele>9</ele>
        <time>2025-05-25T15:19:49.000Z</time>
      </trkpt>
      <trkpt lat="43.08093" lon="5.89718">
        <ele>8.7</ele>
        <time>2025-05-25T15:20:01.000Z</time>
      </trkpt>
      <trkpt lat="43.08092" lon="5.89718">
        <ele>8.7</ele>
        <time>2025-05-25T15:20:02.000Z</time>
      </trkpt>
      <trkpt lat="43.08097" lon="5.8973">
        <ele>8.7</ele>
        <time>2025-05-25T15:20:09.000Z</time>
      </trkpt>
      <trkpt lat="43.08104" lon="5.89741">
        <ele>8.7</ele>
        <time>2025-05-25T15:20:13.000Z</time>
      </trkpt>
      <trkpt lat="43.08109" lon="5.89752">
        <ele>8.8</ele>
        <time>2025-05-25T15:20:18.000Z</time>
      </trkpt>
      <trkpt lat="43.08117" lon="5.89762">
        <ele>8.8</ele>
        <time>2025-05-25T15:20:22.000Z</time>
      </trkpt>
      <trkpt lat="43.08125" lon="5.89771">
        <ele>8.8</ele>
        <time>2025-05-25T15:20:25.000Z</time>
      </trkpt>
      <trkpt lat="43.08131" lon="5.89779">
        <ele>8.8</ele>
        <time>2025-05-25T15:20:28.000Z</time>
      </trkpt>
      <trkpt lat="43.08139" lon="5.89792">
        <ele>8.8</ele>
        <time>2025-05-25T15:20:32.000Z</time>
      </trkpt>
      <trkpt lat="43.08147" lon="5.89803">
        <ele>8.8</ele>
        <time>2025-05-25T15:20:36.000Z</time>
      </trkpt>
      <trkpt lat="43.08153" lon="5.89813">
        <ele>8.8</ele>
        <time>2025-05-25T15:20:39.000Z</time>
      </trkpt>
      <trkpt lat="43.0816" lon="5.89823">
        <ele>8.8</ele>
        <time>2025-05-25T15:20:42.000Z</time>
      </trkpt>
      <trkpt lat="43.08169" lon="5.89833">
        <ele>8.9</ele>
        <time>2025-05-25T15:20:45.000Z</time>
      </trkpt>
      <trkpt lat="43.08179" lon="5.89843">
        <ele>8.9</ele>
        <time>2025-05-25T15:20:48.000Z</time>
      </trkpt>
      <trkpt lat="43.08186" lon="5.89854">
        <ele>8.8</ele>
        <time>2025-05-25T15:20:51.000Z</time>
      </trkpt>
      <trkpt lat="43.08192" lon="5.89864">
        <ele>8.8</ele>
        <time>2025-05-25T15:20:54.000Z</time>
      </trkpt>
      <trkpt lat="43.082" lon="5.89874">
        <ele>8.8</ele>
        <time>2025-05-25T15:20:57.000Z</time>
      </trkpt>
      <trkpt lat="43.08205" lon="5.89885">
        <ele>8.9</ele>
        <time>2025-05-25T15:21:00.000Z</time>
      </trkpt>
      <trkpt lat="43.08211" lon="5.89898">
        <ele>8.9</ele>
        <time>2025-05-25T15:21:04.000Z</time>
      </trkpt>
      <trkpt lat="43.08217" lon="5.89908">
        <ele>8.9</ele>
        <time>2025-05-25T15:21:07.000Z</time>
      </trkpt>
      <trkpt lat="43.08223" lon="5.89918">
        <ele>8.9</ele>
        <time>2025-05-25T15:21:10.000Z</time>
      </trkpt>
      <trkpt lat="43.08228" lon="5.89928">
        <ele>8.9</ele>
        <time>2025-05-25T15:21:13.000Z</time>
      </trkpt>
      <trkpt lat="43.08234" lon="5.89942">
        <ele>8.9</ele>
        <time>2025-05-25T15:21:16.000Z</time>
      </trkpt>
      <trkpt lat="43.0824" lon="5.89954">
        <ele>8.9</ele>
        <time>2025-05-25T15:21:19.000Z</time>
      </trkpt>
      <trkpt lat="43.0825" lon="5.89965">
        <ele>8.9</ele>
        <time>2025-05-25T15:21:22.000Z</time>
      </trkpt>
      <trkpt lat="43.0826" lon="5.89976">
        <ele>8.9</ele>
        <time>2025-05-25T15:21:25.000Z</time>
      </trkpt>
      <trkpt lat="43.0827" lon="5.89988">
        <ele>8.8</ele>
        <time>2025-05-25T15:21:28.000Z</time>
      </trkpt>
      <trkpt lat="43.08279" lon="5.89997">
        <ele>8.8</ele>
        <time>2025-05-25T15:21:30.000Z</time>
      </trkpt>
      <trkpt lat="43.08287" lon="5.90005">
        <ele>8.8</ele>
        <time>2025-05-25T15:21:32.000Z</time>
      </trkpt>
      <trkpt lat="43.08295" lon="5.90015">
        <ele>8.8</ele>
        <time>2025-05-25T15:21:34.000Z</time>
      </trkpt>
      <trkpt lat="43.08303" lon="5.90029">
        <ele>8.8</ele>
        <time>2025-05-25T15:21:37.000Z</time>
      </trkpt>
      <trkpt lat="43.0831" lon="5.90042">
        <ele>8.8</ele>
        <time>2025-05-25T15:21:40.000Z</time>
      </trkpt>
      <trkpt lat="43.08315" lon="5.90055">
        <ele>8.8</ele>
        <time>2025-05-25T15:21:43.000Z</time>
      </trkpt>
      <trkpt lat="43.08322" lon="5.90068">
        <ele>8.8</ele>
        <time>2025-05-25T15:21:46.000Z</time>
      </trkpt>
      <trkpt lat="43.08331" lon="5.9008">
        <ele>8.8</ele>
        <time>2025-05-25T15:21:49.000Z</time>
      </trkpt>
      <trkpt lat="43.08341" lon="5.90092">
        <ele>8.8</ele>
        <time>2025-05-25T15:21:52.000Z</time>
      </trkpt>
      <trkpt lat="43.08348" lon="5.90101">
        <ele>8.7</ele>
        <time>2025-05-25T15:21:54.000Z</time>
      </trkpt>
      <trkpt lat="43.08356" lon="5.90114">
        <ele>8.7</ele>
        <time>2025-05-25T15:21:57.000Z</time>
      </trkpt>
      <trkpt lat="43.08361" lon="5.90126">
        <ele>8.7</ele>
        <time>2025-05-25T15:22:00.000Z</time>
      </trkpt>
      <trkpt lat="43.08368" lon="5.90143">
        <ele>8.7</ele>
        <time>2025-05-25T15:22:03.000Z</time>
      </trkpt>
      <trkpt lat="43.08374" lon="5.90156">
        <ele>8.7</ele>
        <time>2025-05-25T15:22:06.000Z</time>
      </trkpt>
      <trkpt lat="43.08382" lon="5.90168">
        <ele>8.7</ele>
        <time>2025-05-25T15:22:09.000Z</time>
      </trkpt>
      <trkpt lat="43.0839" lon="5.90179">
        <ele>8.7</ele>
        <time>2025-05-25T15:22:12.000Z</time>
      </trkpt>
      <trkpt lat="43.08398" lon="5.90192">
        <ele>8.7</ele>
        <time>2025-05-25T15:22:15.000Z</time>
      </trkpt>
      <trkpt lat="43.08406" lon="5.90205">
        <ele>8.7</ele>
        <time>2025-05-25T15:22:18.000Z</time>
      </trkpt>
      <trkpt lat="43.08412" lon="5.90215">
        <ele>8.7</ele>
        <time>2025-05-25T15:22:20.000Z</time>
      </trkpt>
      <trkpt lat="43.08419" lon="5.90225">
        <ele>8.7</ele>
        <time>2025-05-25T15:22:22.000Z</time>
      </trkpt>
      <trkpt lat="43.08426" lon="5.90236">
        <ele>8.7</ele>
        <time>2025-05-25T15:22:24.000Z</time>
      </trkpt>
      <trkpt lat="43.08432" lon="5.90247">
        <ele>8.7</ele>
        <time>2025-05-25T15:22:26.000Z</time>
      </trkpt>
      <trkpt lat="43.08438" lon="5.90258">
        <ele>8.7</ele>
        <time>2025-05-25T15:22:28.000Z</time>
      </trkpt>
      <trkpt lat="43.08446" lon="5.90271">
        <ele>8.7</ele>
        <time>2025-05-25T15:22:30.000Z</time>
      </trkpt>
      <trkpt lat="43.08454" lon="5.90284">
        <ele>8.7</ele>
        <time>2025-05-25T15:22:32.000Z</time>
      </trkpt>
      <trkpt lat="43.08461" lon="5.90296">
        <ele>8.7</ele>
        <time>2025-05-25T15:22:34.000Z</time>
      </trkpt>
      <trkpt lat="43.08467" lon="5.90308">
        <ele>8.7</ele>
        <time>2025-05-25T15:22:36.000Z</time>
      </trkpt>
      <trkpt lat="43.08474" lon="5.9032">
        <ele>8.7</ele>
        <time>2025-05-25T15:22:38.000Z</time>
      </trkpt>
      <trkpt lat="43.08481" lon="5.90331">
        <ele>8.7</ele>
        <time>2025-05-25T15:22:40.000Z</time>
      </trkpt>
      <trkpt lat="43.08488" lon="5.9034">
        <ele>8.7</ele>
        <time>2025-05-25T15:22:42.000Z</time>
      </trkpt>
      <trkpt lat="43.08496" lon="5.90353">
        <ele>8.8</ele>
        <time>2025-05-25T15:22:45.000Z</time>
      </trkpt>
      <trkpt lat="43.08501" lon="5.90365">
        <ele>8.8</ele>
        <time>2025-05-25T15:22:48.000Z</time>
      </trkpt>
      <trkpt lat="43.08506" lon="5.90377">
        <ele>8.8</ele>
        <time>2025-05-25T15:22:51.000Z</time>
      </trkpt>
      <trkpt lat="43.08512" lon="5.90391">
        <ele>8.8</ele>
        <time>2025-05-25T15:22:54.000Z</time>
      </trkpt>
      <trkpt lat="43.08519" lon="5.90404">
        <ele>8.8</ele>
        <time>2025-05-25T15:22:57.000Z</time>
      </trkpt>
      <trkpt lat="43.08527" lon="5.90416">
        <ele>8.8</ele>
        <time>2025-05-25T15:23:00.000Z</time>
      </trkpt>
      <trkpt lat="43.08534" lon="5.90429">
        <ele>8.8</ele>
        <time>2025-05-25T15:23:03.000Z</time>
      </trkpt>
      <trkpt lat="43.08541" lon="5.9044">
        <ele>8.9</ele>
        <time>2025-05-25T15:23:06.000Z</time>
      </trkpt>
      <trkpt lat="43.0855" lon="5.90453">
        <ele>8.9</ele>
        <time>2025-05-25T15:23:09.000Z</time>
      </trkpt>
      <trkpt lat="43.08558" lon="5.90464">
        <ele>8.9</ele>
        <time>2025-05-25T15:23:12.000Z</time>
      </trkpt>
      <trkpt lat="43.08566" lon="5.90476">
        <ele>8.9</ele>
        <time>2025-05-25T15:23:15.000Z</time>
      </trkpt>
      <trkpt lat="43.08574" lon="5.90488">
        <ele>8.9</ele>
        <time>2025-05-25T15:23:18.000Z</time>
      </trkpt>
      <trkpt lat="43.08583" lon="5.905">
        <ele>8.9</ele>
        <time>2025-05-25T15:23:21.000Z</time>
      </trkpt>
      <trkpt lat="43.08592" lon="5.90512">
        <ele>8.9</ele>
        <time>2025-05-25T15:23:24.000Z</time>
      </trkpt>
      <trkpt lat="43.086" lon="5.90524">
        <ele>8.9</ele>
        <time>2025-05-25T15:23:27.000Z</time>
      </trkpt>
      <trkpt lat="43.08607" lon="5.90534">
        <ele>8.9</ele>
        <time>2025-05-25T15:23:29.000Z</time>
      </trkpt>
      <trkpt lat="43.08613" lon="5.90544">
        <ele>8.9</ele>
        <time>2025-05-25T15:23:31.000Z</time>
      </trkpt>
      <trkpt lat="43.08621" lon="5.90557">
        <ele>8.9</ele>
        <time>2025-05-25T15:23:34.000Z</time>
      </trkpt>
      <trkpt lat="43.08629" lon="5.9057">
        <ele>8.9</ele>
        <time>2025-05-25T15:23:37.000Z</time>
      </trkpt>
      <trkpt lat="43.08635" lon="5.90584">
        <ele>8.9</ele>
        <time>2025-05-25T15:23:40.000Z</time>
      </trkpt>
      <trkpt lat="43.08641" lon="5.90597">
        <ele>8.9</ele>
        <time>2025-05-25T15:23:43.000Z</time>
      </trkpt>
      <trkpt lat="43.08647" lon="5.90606">
        <ele>8.9</ele>
        <time>2025-05-25T15:23:45.000Z</time>
      </trkpt>
      <trkpt lat="43.08657" lon="5.9062">
        <ele>8.8</ele>
        <time>2025-05-25T15:23:48.000Z</time>
      </trkpt>
      <trkpt lat="43.08664" lon="5.90631">
        <ele>8.8</ele>
        <time>2025-05-25T15:23:51.000Z</time>
      </trkpt>
      <trkpt lat="43.08672" lon="5.90642">
        <ele>8.8</ele>
        <time>2025-05-25T15:23:54.000Z</time>
      </trkpt>
      <trkpt lat="43.0868" lon="5.90655">
        <ele>8.8</ele>
        <time>2025-05-25T15:23:57.000Z</time>
      </trkpt>
      <trkpt lat="43.08688" lon="5.90665">
        <ele>8.8</ele>
        <time>2025-05-25T15:23:59.000Z</time>
      </trkpt>
      <trkpt lat="43.08696" lon="5.90679">
        <ele>8.8</ele>
        <time>2025-05-25T15:24:02.000Z</time>
      </trkpt>
      <trkpt lat="43.08705" lon="5.90694">
        <ele>8.8</ele>
        <time>2025-05-25T15:24:05.000Z</time>
      </trkpt>
      <trkpt lat="43.08712" lon="5.90704">
        <ele>8.8</ele>
        <time>2025-05-25T15:24:07.000Z</time>
      </trkpt>
      <trkpt lat="43.08718" lon="5.90716">
        <ele>8.8</ele>
        <time>2025-05-25T15:24:09.000Z</time>
      </trkpt>
      <trkpt lat="43.08724" lon="5.90726">
        <ele>8.8</ele>
        <time>2025-05-25T15:24:11.000Z</time>
      </trkpt>
      <trkpt lat="43.08732" lon="5.90737">
        <ele>8.8</ele>
        <time>2025-05-25T15:24:13.000Z</time>
      </trkpt>
      <trkpt lat="43.08741" lon="5.90751">
        <ele>8.8</ele>
        <time>2025-05-25T15:24:15.000Z</time>
      </trkpt>
      <trkpt lat="43.08751" lon="5.90765">
        <ele>8.8</ele>
        <time>2025-05-25T15:24:17.000Z</time>
      </trkpt>
      <trkpt lat="43.08762" lon="5.90778">
        <ele>8.8</ele>
        <time>2025-05-25T15:24:19.000Z</time>
      </trkpt>
      <trkpt lat="43.08769" lon="5.9079">
        <ele>8.8</ele>
        <time>2025-05-25T15:24:21.000Z</time>
      </trkpt>
      <trkpt lat="43.0878" lon="5.90803">
        <ele>8.8</ele>
        <time>2025-05-25T15:24:23.000Z</time>
      </trkpt>
      <trkpt lat="43.08789" lon="5.90817">
        <ele>8.8</ele>
        <time>2025-05-25T15:24:25.000Z</time>
      </trkpt>
      <trkpt lat="43.08801" lon="5.90829">
        <ele>8.8</ele>
        <time>2025-05-25T15:24:27.000Z</time>
      </trkpt>
      <trkpt lat="43.08813" lon="5.9084">
        <ele>8.8</ele>
        <time>2025-05-25T15:24:29.000Z</time>
      </trkpt>
      <trkpt lat="43.08824" lon="5.9085">
        <ele>8.8</ele>
        <time>2025-05-25T15:24:31.000Z</time>
      </trkpt>
      <trkpt lat="43.08836" lon="5.9086">
        <ele>8.8</ele>
        <time>2025-05-25T15:24:33.000Z</time>
      </trkpt>
      <trkpt lat="43.08846" lon="5.90869">
        <ele>8.7</ele>
        <time>2025-05-25T15:24:35.000Z</time>
      </trkpt>
      <trkpt lat="43.08855" lon="5.90877">
        <ele>8.7</ele>
        <time>2025-05-25T15:24:37.000Z</time>
      </trkpt>
      <trkpt lat="43.08864" lon="5.90884">
        <ele>8.7</ele>
        <time>2025-05-25T15:24:39.000Z</time>
      </trkpt>
      <trkpt lat="43.08874" lon="5.90892">
        <ele>8.7</ele>
        <time>2025-05-25T15:24:41.000Z</time>
      </trkpt>
      <trkpt lat="43.08883" lon="5.90899">
        <ele>8.7</ele>
        <time>2025-05-25T15:24:43.000Z</time>
      </trkpt>
      <trkpt lat="43.08893" lon="5.90907">
        <ele>8.7</ele>
        <time>2025-05-25T15:24:45.000Z</time>
      </trkpt>
      <trkpt lat="43.08903" lon="5.90915">
        <ele>8.7</ele>
        <time>2025-05-25T15:24:47.000Z</time>
      </trkpt>
      <trkpt lat="43.08914" lon="5.90924">
        <ele>8.7</ele>
        <time>2025-05-25T15:24:49.000Z</time>
      </trkpt>
      <trkpt lat="43.08925" lon="5.90934">
        <ele>8.7</ele>
        <time>2025-05-25T15:24:51.000Z</time>
      </trkpt>
      <trkpt lat="43.08936" lon="5.90944">
        <ele>8.7</ele>
        <time>2025-05-25T15:24:53.000Z</time>
      </trkpt>
      <trkpt lat="43.08946" lon="5.90954">
        <ele>8.7</ele>
        <time>2025-05-25T15:24:55.000Z</time>
      </trkpt>
      <trkpt lat="43.08957" lon="5.90964">
        <ele>8.7</ele>
        <time>2025-05-25T15:24:57.000Z</time>
      </trkpt>
      <trkpt lat="43.08968" lon="5.90973">
        <ele>8.7</ele>
        <time>2025-05-25T15:24:59.000Z</time>
      </trkpt>
      <trkpt lat="43.08979" lon="5.90983">
        <ele>8.7</ele>
        <time>2025-05-25T15:25:01.000Z</time>
      </trkpt>
      <trkpt lat="43.0899" lon="5.90992">
        <ele>8.7</ele>
        <time>2025-05-25T15:25:03.000Z</time>
      </trkpt>
      <trkpt lat="43.09001" lon="5.91002">
        <ele>8.7</ele>
        <time>2025-05-25T15:25:05.000Z</time>
      </trkpt>
      <trkpt lat="43.09012" lon="5.91011">
        <ele>8.7</ele>
        <time>2025-05-25T15:25:07.000Z</time>
      </trkpt>
      <trkpt lat="43.09023" lon="5.91022">
        <ele>8.7</ele>
        <time>2025-05-25T15:25:09.000Z</time>
      </trkpt>
      <trkpt lat="43.09034" lon="5.91032">
        <ele>8.7</ele>
        <time>2025-05-25T15:25:11.000Z</time>
      </trkpt>
      <trkpt lat="43.09044" lon="5.91042">
        <ele>8.7</ele>
        <time>2025-05-25T15:25:13.000Z</time>
      </trkpt>
      <trkpt lat="43.09055" lon="5.91053">
        <ele>8.7</ele>
        <time>2025-05-25T15:25:15.000Z</time>
      </trkpt>
      <trkpt lat="43.09065" lon="5.91064">
        <ele>8.7</ele>
        <time>2025-05-25T15:25:17.000Z</time>
      </trkpt>
      <trkpt lat="43.09075" lon="5.91076">
        <ele>8.7</ele>
        <time>2025-05-25T15:25:19.000Z</time>
      </trkpt>
      <trkpt lat="43.09085" lon="5.91088">
        <ele>8.7</ele>
        <time>2025-05-25T15:25:21.000Z</time>
      </trkpt>
      <trkpt lat="43.09096" lon="5.91101">
        <ele>8.7</ele>
        <time>2025-05-25T15:25:23.000Z</time>
      </trkpt>
      <trkpt lat="43.09107" lon="5.91112">
        <ele>8.7</ele>
        <time>2025-05-25T15:25:25.000Z</time>
      </trkpt>
      <trkpt lat="43.09116" lon="5.91124">
        <ele>8.7</ele>
        <time>2025-05-25T15:25:27.000Z</time>
      </trkpt>
      <trkpt lat="43.09125" lon="5.91136">
        <ele>8.7</ele>
        <time>2025-05-25T15:25:29.000Z</time>
      </trkpt>
      <trkpt lat="43.09134" lon="5.91147">
        <ele>8.7</ele>
        <time>2025-05-25T15:25:31.000Z</time>
      </trkpt>
      <trkpt lat="43.09143" lon="5.91158">
        <ele>8.7</ele>
        <time>2025-05-25T15:25:33.000Z</time>
      </trkpt>
      <trkpt lat="43.09153" lon="5.91169">
        <ele>8.7</ele>
        <time>2025-05-25T15:25:35.000Z</time>
      </trkpt>
      <trkpt lat="43.09163" lon="5.91181">
        <ele>8.7</ele>
        <time>2025-05-25T15:25:37.000Z</time>
      </trkpt>
      <trkpt lat="43.09172" lon="5.91191">
        <ele>8.7</ele>
        <time>2025-05-25T15:25:39.000Z</time>
      </trkpt>
      <trkpt lat="43.09182" lon="5.912">
        <ele>8.7</ele>
        <time>2025-05-25T15:25:41.000Z</time>
      </trkpt>
      <trkpt lat="43.0919" lon="5.91209">
        <ele>8.7</ele>
        <time>2025-05-25T15:25:43.000Z</time>
      </trkpt>
      <trkpt lat="43.09199" lon="5.9122">
        <ele>8.7</ele>
        <time>2025-05-25T15:25:45.000Z</time>
      </trkpt>
      <trkpt lat="43.09209" lon="5.91231">
        <ele>8.7</ele>
        <time>2025-05-25T15:25:47.000Z</time>
      </trkpt>
      <trkpt lat="43.09219" lon="5.91243">
        <ele>8.7</ele>
        <time>2025-05-25T15:25:49.000Z</time>
      </trkpt>
      <trkpt lat="43.0923" lon="5.91254">
        <ele>8.7</ele>
        <time>2025-05-25T15:25:51.000Z</time>
      </trkpt>
      <trkpt lat="43.0924" lon="5.91263">
        <ele>8.7</ele>
        <time>2025-05-25T15:25:53.000Z</time>
      </trkpt>
      <trkpt lat="43.09251" lon="5.91274">
        <ele>8.7</ele>
        <time>2025-05-25T15:25:55.000Z</time>
      </trkpt>
      <trkpt lat="43.09262" lon="5.91285">
        <ele>8.7</ele>
        <time>2025-05-25T15:25:57.000Z</time>
      </trkpt>
      <trkpt lat="43.09273" lon="5.91296">
        <ele>8.7</ele>
        <time>2025-05-25T15:25:59.000Z</time>
      </trkpt>
      <trkpt lat="43.09284" lon="5.91308">
        <ele>8.7</ele>
        <time>2025-05-25T15:26:01.000Z</time>
      </trkpt>
      <trkpt lat="43.09294" lon="5.9132">
        <ele>8.7</ele>
        <time>2025-05-25T15:26:03.000Z</time>
      </trkpt>
      <trkpt lat="43.09304" lon="5.9133">
        <ele>8.7</ele>
        <time>2025-05-25T15:26:05.000Z</time>
      </trkpt>
      <trkpt lat="43.09314" lon="5.91338">
        <ele>8.7</ele>
        <time>2025-05-25T15:26:07.000Z</time>
      </trkpt>
      <trkpt lat="43.09325" lon="5.91348">
        <ele>8.7</ele>
        <time>2025-05-25T15:26:09.000Z</time>
      </trkpt>
      <trkpt lat="43.09335" lon="5.91357">
        <ele>8.7</ele>
        <time>2025-05-25T15:26:11.000Z</time>
      </trkpt>
      <trkpt lat="43.09345" lon="5.91365">
        <ele>8.7</ele>
        <time>2025-05-25T15:26:13.000Z</time>
      </trkpt>
      <trkpt lat="43.09356" lon="5.91375">
        <ele>8.7</ele>
        <time>2025-05-25T15:26:15.000Z</time>
      </trkpt>
      <trkpt lat="43.09368" lon="5.91386">
        <ele>8.7</ele>
        <time>2025-05-25T15:26:17.000Z</time>
      </trkpt>
      <trkpt lat="43.09378" lon="5.91398">
        <ele>8.7</ele>
        <time>2025-05-25T15:26:19.000Z</time>
      </trkpt>
      <trkpt lat="43.09387" lon="5.91411">
        <ele>8.7</ele>
        <time>2025-05-25T15:26:21.000Z</time>
      </trkpt>
      <trkpt lat="43.09395" lon="5.91423">
        <ele>8.7</ele>
        <time>2025-05-25T15:26:23.000Z</time>
      </trkpt>
      <trkpt lat="43.09403" lon="5.91436">
        <ele>8.7</ele>
        <time>2025-05-25T15:26:25.000Z</time>
      </trkpt>
      <trkpt lat="43.09412" lon="5.91449">
        <ele>8.7</ele>
        <time>2025-05-25T15:26:27.000Z</time>
      </trkpt>
      <trkpt lat="43.09422" lon="5.91462">
        <ele>8.7</ele>
        <time>2025-05-25T15:26:29.000Z</time>
      </trkpt>
      <trkpt lat="43.0943" lon="5.91475">
        <ele>8.7</ele>
        <time>2025-05-25T15:26:31.000Z</time>
      </trkpt>
      <trkpt lat="43.09439" lon="5.91487">
        <ele>8.7</ele>
        <time>2025-05-25T15:26:33.000Z</time>
      </trkpt>
      <trkpt lat="43.09448" lon="5.91499">
        <ele>8.7</ele>
        <time>2025-05-25T15:26:35.000Z</time>
      </trkpt>
      <trkpt lat="43.09456" lon="5.9151">
        <ele>8.7</ele>
        <time>2025-05-25T15:26:37.000Z</time>
      </trkpt>
      <trkpt lat="43.09466" lon="5.91521">
        <ele>8.7</ele>
        <time>2025-05-25T15:26:39.000Z</time>
      </trkpt>
      <trkpt lat="43.09475" lon="5.91532">
        <ele>8.7</ele>
        <time>2025-05-25T15:26:41.000Z</time>
      </trkpt>
      <trkpt lat="43.09484" lon="5.91543">
        <ele>8.7</ele>
        <time>2025-05-25T15:26:43.000Z</time>
      </trkpt>
      <trkpt lat="43.09494" lon="5.91554">
        <ele>8.7</ele>
        <time>2025-05-25T15:26:45.000Z</time>
      </trkpt>
      <trkpt lat="43.09506" lon="5.91565">
        <ele>8.8</ele>
        <time>2025-05-25T15:26:47.000Z</time>
      </trkpt>
      <trkpt lat="43.09517" lon="5.91576">
        <ele>8.8</ele>
        <time>2025-05-25T15:26:49.000Z</time>
      </trkpt>
      <trkpt lat="43.09528" lon="5.91586">
        <ele>8.8</ele>
        <time>2025-05-25T15:26:51.000Z</time>
      </trkpt>
      <trkpt lat="43.09538" lon="5.91596">
        <ele>8.8</ele>
        <time>2025-05-25T15:26:53.000Z</time>
      </trkpt>
      <trkpt lat="43.09549" lon="5.91606">
        <ele>8.8</ele>
        <time>2025-05-25T15:26:55.000Z</time>
      </trkpt>
      <trkpt lat="43.0956" lon="5.91615">
        <ele>8.8</ele>
        <time>2025-05-25T15:26:57.000Z</time>
      </trkpt>
      <trkpt lat="43.09572" lon="5.91624">
        <ele>8.8</ele>
        <time>2025-05-25T15:26:59.000Z</time>
      </trkpt>
      <trkpt lat="43.09582" lon="5.91632">
        <ele>8.8</ele>
        <time>2025-05-25T15:27:01.000Z</time>
      </trkpt>
      <trkpt lat="43.09593" lon="5.9164">
        <ele>8.8</ele>
        <time>2025-05-25T15:27:03.000Z</time>
      </trkpt>
      <trkpt lat="43.09606" lon="5.91648">
        <ele>8.8</ele>
        <time>2025-05-25T15:27:05.000Z</time>
      </trkpt>
      <trkpt lat="43.09617" lon="5.91656">
        <ele>8.8</ele>
        <time>2025-05-25T15:27:07.000Z</time>
      </trkpt>
      <trkpt lat="43.09629" lon="5.91664">
        <ele>8.8</ele>
        <time>2025-05-25T15:27:09.000Z</time>
      </trkpt>
      <trkpt lat="43.09642" lon="5.91672">
        <ele>8.8</ele>
        <time>2025-05-25T15:27:11.000Z</time>
      </trkpt>
      <trkpt lat="43.09654" lon="5.9168">
        <ele>8.8</ele>
        <time>2025-05-25T15:27:13.000Z</time>
      </trkpt>
      <trkpt lat="43.09666" lon="5.91686">
        <ele>8.8</ele>
        <time>2025-05-25T15:27:15.000Z</time>
      </trkpt>
      <trkpt lat="43.09678" lon="5.91693">
        <ele>8.8</ele>
        <time>2025-05-25T15:27:17.000Z</time>
      </trkpt>
      <trkpt lat="43.09691" lon="5.91701">
        <ele>8.8</ele>
        <time>2025-05-25T15:27:19.000Z</time>
      </trkpt>
      <trkpt lat="43.09704" lon="5.91706">
        <ele>8.9</ele>
        <time>2025-05-25T15:27:21.000Z</time>
      </trkpt>
      <trkpt lat="43.09717" lon="5.91712">
        <ele>8.9</ele>
        <time>2025-05-25T15:27:23.000Z</time>
      </trkpt>
      <trkpt lat="43.0973" lon="5.91717">
        <ele>8.9</ele>
        <time>2025-05-25T15:27:25.000Z</time>
      </trkpt>
      <trkpt lat="43.09742" lon="5.91724">
        <ele>8.9</ele>
        <time>2025-05-25T15:27:27.000Z</time>
      </trkpt>
      <trkpt lat="43.09756" lon="5.9173">
        <ele>8.9</ele>
        <time>2025-05-25T15:27:29.000Z</time>
      </trkpt>
      <trkpt lat="43.09768" lon="5.91736">
        <ele>9</ele>
        <time>2025-05-25T15:27:31.000Z</time>
      </trkpt>
      <trkpt lat="43.09779" lon="5.91741">
        <ele>9</ele>
        <time>2025-05-25T15:27:33.000Z</time>
      </trkpt>
      <trkpt lat="43.0979" lon="5.91747">
        <ele>9</ele>
        <time>2025-05-25T15:27:35.000Z</time>
      </trkpt>
      <trkpt lat="43.09803" lon="5.91753">
        <ele>9</ele>
        <time>2025-05-25T15:27:37.000Z</time>
      </trkpt>
      <trkpt lat="43.09817" lon="5.91759">
        <ele>9</ele>
        <time>2025-05-25T15:27:39.000Z</time>
      </trkpt>
      <trkpt lat="43.09829" lon="5.91765">
        <ele>9</ele>
        <time>2025-05-25T15:27:41.000Z</time>
      </trkpt>
      <trkpt lat="43.09842" lon="5.91771">
        <ele>9</ele>
        <time>2025-05-25T15:27:43.000Z</time>
      </trkpt>
      <trkpt lat="43.09854" lon="5.91777">
        <ele>9.1</ele>
        <time>2025-05-25T15:27:45.000Z</time>
      </trkpt>
      <trkpt lat="43.09866" lon="5.91782">
        <ele>9.1</ele>
        <time>2025-05-25T15:27:47.000Z</time>
      </trkpt>
      <trkpt lat="43.09877" lon="5.91787">
        <ele>9.1</ele>
        <time>2025-05-25T15:27:49.000Z</time>
      </trkpt>
      <trkpt lat="43.0989" lon="5.91791">
        <ele>9.1</ele>
        <time>2025-05-25T15:27:51.000Z</time>
      </trkpt>
      <trkpt lat="43.09903" lon="5.91798">
        <ele>9.1</ele>
        <time>2025-05-25T15:27:53.000Z</time>
      </trkpt>
      <trkpt lat="43.09915" lon="5.91806">
        <ele>9.1</ele>
        <time>2025-05-25T15:27:55.000Z</time>
      </trkpt>
      <trkpt lat="43.09927" lon="5.91812">
        <ele>9.1</ele>
        <time>2025-05-25T15:27:57.000Z</time>
      </trkpt>
      <trkpt lat="43.09939" lon="5.91819">
        <ele>9.1</ele>
        <time>2025-05-25T15:27:59.000Z</time>
      </trkpt>
      <trkpt lat="43.09949" lon="5.91826">
        <ele>9.1</ele>
        <time>2025-05-25T15:28:01.000Z</time>
      </trkpt>
      <trkpt lat="43.09961" lon="5.91834">
        <ele>9.1</ele>
        <time>2025-05-25T15:28:03.000Z</time>
      </trkpt>
      <trkpt lat="43.09974" lon="5.91842">
        <ele>9.1</ele>
        <time>2025-05-25T15:28:05.000Z</time>
      </trkpt>
      <trkpt lat="43.09987" lon="5.9185">
        <ele>9.1</ele>
        <time>2025-05-25T15:28:07.000Z</time>
      </trkpt>
      <trkpt lat="43.1" lon="5.91856">
        <ele>9.1</ele>
        <time>2025-05-25T15:28:09.000Z</time>
      </trkpt>
      <trkpt lat="43.10013" lon="5.91865">
        <ele>9.1</ele>
        <time>2025-05-25T15:28:11.000Z</time>
      </trkpt>
      <trkpt lat="43.10026" lon="5.91873">
        <ele>9.1</ele>
        <time>2025-05-25T15:28:13.000Z</time>
      </trkpt>
      <trkpt lat="43.1004" lon="5.91881">
        <ele>9.1</ele>
        <time>2025-05-25T15:28:15.000Z</time>
      </trkpt>
      <trkpt lat="43.10053" lon="5.91888">
        <ele>9.1</ele>
        <time>2025-05-25T15:28:17.000Z</time>
      </trkpt>
      <trkpt lat="43.10066" lon="5.91894">
        <ele>9.1</ele>
        <time>2025-05-25T15:28:19.000Z</time>
      </trkpt>
      <trkpt lat="43.10078" lon="5.919">
        <ele>9.1</ele>
        <time>2025-05-25T15:28:21.000Z</time>
      </trkpt>
      <trkpt lat="43.1009" lon="5.91904">
        <ele>9.2</ele>
        <time>2025-05-25T15:28:23.000Z</time>
      </trkpt>
      <trkpt lat="43.10102" lon="5.91912">
        <ele>9.2</ele>
        <time>2025-05-25T15:28:25.000Z</time>
      </trkpt>
      <trkpt lat="43.10115" lon="5.91918">
        <ele>9.2</ele>
        <time>2025-05-25T15:28:27.000Z</time>
      </trkpt>
      <trkpt lat="43.10126" lon="5.91925">
        <ele>9.2</ele>
        <time>2025-05-25T15:28:29.000Z</time>
      </trkpt>
      <trkpt lat="43.10136" lon="5.91933">
        <ele>9.2</ele>
        <time>2025-05-25T15:28:31.000Z</time>
      </trkpt>
      <trkpt lat="43.10147" lon="5.91942">
        <ele>9.3</ele>
        <time>2025-05-25T15:28:33.000Z</time>
      </trkpt>
      <trkpt lat="43.10157" lon="5.91952">
        <ele>9.3</ele>
        <time>2025-05-25T15:28:35.000Z</time>
      </trkpt>
      <trkpt lat="43.10166" lon="5.91963">
        <ele>9.3</ele>
        <time>2025-05-25T15:28:37.000Z</time>
      </trkpt>
      <trkpt lat="43.10175" lon="5.91974">
        <ele>9.3</ele>
        <time>2025-05-25T15:28:39.000Z</time>
      </trkpt>
      <trkpt lat="43.10185" lon="5.91986">
        <ele>9.3</ele>
        <time>2025-05-25T15:28:41.000Z</time>
      </trkpt>
      <trkpt lat="43.10196" lon="5.91996">
        <ele>9.3</ele>
        <time>2025-05-25T15:28:43.000Z</time>
      </trkpt>
      <trkpt lat="43.10207" lon="5.92006">
        <ele>9.3</ele>
        <time>2025-05-25T15:28:45.000Z</time>
      </trkpt>
      <trkpt lat="43.10217" lon="5.92016">
        <ele>9.3</ele>
        <time>2025-05-25T15:28:47.000Z</time>
      </trkpt>
      <trkpt lat="43.10226" lon="5.92027">
        <ele>9.3</ele>
        <time>2025-05-25T15:28:49.000Z</time>
      </trkpt>
      <trkpt lat="43.10234" lon="5.92037">
        <ele>9.3</ele>
        <time>2025-05-25T15:28:51.000Z</time>
      </trkpt>
      <trkpt lat="43.10244" lon="5.92046">
        <ele>9.3</ele>
        <time>2025-05-25T15:28:53.000Z</time>
      </trkpt>
      <trkpt lat="43.10254" lon="5.92055">
        <ele>9.3</ele>
        <time>2025-05-25T15:28:55.000Z</time>
      </trkpt>
      <trkpt lat="43.10265" lon="5.92065">
        <ele>9.3</ele>
        <time>2025-05-25T15:28:57.000Z</time>
      </trkpt>
      <trkpt lat="43.10275" lon="5.92074">
        <ele>9.3</ele>
        <time>2025-05-25T15:28:59.000Z</time>
      </trkpt>
      <trkpt lat="43.10287" lon="5.92082">
        <ele>9.3</ele>
        <time>2025-05-25T15:29:01.000Z</time>
      </trkpt>
      <trkpt lat="43.103" lon="5.92091">
        <ele>9.3</ele>
        <time>2025-05-25T15:29:03.000Z</time>
      </trkpt>
      <trkpt lat="43.10312" lon="5.92098">
        <ele>9.3</ele>
        <time>2025-05-25T15:29:05.000Z</time>
      </trkpt>
      <trkpt lat="43.10323" lon="5.92105">
        <ele>9.3</ele>
        <time>2025-05-25T15:29:07.000Z</time>
      </trkpt>
      <trkpt lat="43.10336" lon="5.92112">
        <ele>9.3</ele>
        <time>2025-05-25T15:29:09.000Z</time>
      </trkpt>
      <trkpt lat="43.10349" lon="5.92119">
        <ele>9.3</ele>
        <time>2025-05-25T15:29:11.000Z</time>
      </trkpt>
      <trkpt lat="43.1036" lon="5.92126">
        <ele>9.4</ele>
        <time>2025-05-25T15:29:13.000Z</time>
      </trkpt>
      <trkpt lat="43.10372" lon="5.92135">
        <ele>9.4</ele>
        <time>2025-05-25T15:29:15.000Z</time>
      </trkpt>
      <trkpt lat="43.10384" lon="5.92144">
        <ele>9.4</ele>
        <time>2025-05-25T15:29:17.000Z</time>
      </trkpt>
      <trkpt lat="43.10396" lon="5.92153">
        <ele>9.3</ele>
        <time>2025-05-25T15:29:19.000Z</time>
      </trkpt>
      <trkpt lat="43.10407" lon="5.92163">
        <ele>9.3</ele>
        <time>2025-05-25T15:29:21.000Z</time>
      </trkpt>
      <trkpt lat="43.10418" lon="5.92173">
        <ele>9.3</ele>
        <time>2025-05-25T15:29:23.000Z</time>
      </trkpt>
      <trkpt lat="43.10428" lon="5.92182">
        <ele>9.3</ele>
        <time>2025-05-25T15:29:25.000Z</time>
      </trkpt>
      <trkpt lat="43.10439" lon="5.92191">
        <ele>9.3</ele>
        <time>2025-05-25T15:29:27.000Z</time>
      </trkpt>
      <trkpt lat="43.1045" lon="5.92201">
        <ele>9.3</ele>
        <time>2025-05-25T15:29:29.000Z</time>
      </trkpt>
      <trkpt lat="43.1046" lon="5.92208">
        <ele>9.3</ele>
        <time>2025-05-25T15:29:31.000Z</time>
      </trkpt>
      <trkpt lat="43.10472" lon="5.92215">
        <ele>9.3</ele>
        <time>2025-05-25T15:29:33.000Z</time>
      </trkpt>
      <trkpt lat="43.10482" lon="5.92223">
        <ele>9.3</ele>
        <time>2025-05-25T15:29:35.000Z</time>
      </trkpt>
      <trkpt lat="43.10492" lon="5.9223">
        <ele>9.3</ele>
        <time>2025-05-25T15:29:37.000Z</time>
      </trkpt>
      <trkpt lat="43.10501" lon="5.92239">
        <ele>9.3</ele>
        <time>2025-05-25T15:29:39.000Z</time>
      </trkpt>
      <trkpt lat="43.10511" lon="5.92245">
        <ele>9.3</ele>
        <time>2025-05-25T15:29:41.000Z</time>
      </trkpt>
      <trkpt lat="43.10523" lon="5.9225">
        <ele>9.3</ele>
        <time>2025-05-25T15:29:43.000Z</time>
      </trkpt>
      <trkpt lat="43.10535" lon="5.92256">
        <ele>9.3</ele>
        <time>2025-05-25T15:29:45.000Z</time>
      </trkpt>
      <trkpt lat="43.10549" lon="5.92262">
        <ele>9.3</ele>
        <time>2025-05-25T15:29:47.000Z</time>
      </trkpt>
      <trkpt lat="43.10563" lon="5.92268">
        <ele>9.3</ele>
        <time>2025-05-25T15:29:49.000Z</time>
      </trkpt>
      <trkpt lat="43.10576" lon="5.92276">
        <ele>9.3</ele>
        <time>2025-05-25T15:29:51.000Z</time>
      </trkpt>
      <trkpt lat="43.10588" lon="5.92284">
        <ele>9.3</ele>
        <time>2025-05-25T15:29:53.000Z</time>
      </trkpt>
      <trkpt lat="43.10601" lon="5.92291">
        <ele>9.3</ele>
        <time>2025-05-25T15:29:55.000Z</time>
      </trkpt>
      <trkpt lat="43.10614" lon="5.92298">
        <ele>9.3</ele>
        <time>2025-05-25T15:29:57.000Z</time>
      </trkpt>
      <trkpt lat="43.10625" lon="5.92305">
        <ele>9.3</ele>
        <time>2025-05-25T15:29:59.000Z</time>
      </trkpt>
      <trkpt lat="43.10638" lon="5.92311">
        <ele>9.3</ele>
        <time>2025-05-25T15:30:01.000Z</time>
      </trkpt>
      <trkpt lat="43.1065" lon="5.92318">
        <ele>9.3</ele>
        <time>2025-05-25T15:30:03.000Z</time>
      </trkpt>
      <trkpt lat="43.10663" lon="5.92325">
        <ele>9.3</ele>
        <time>2025-05-25T15:30:05.000Z</time>
      </trkpt>
      <trkpt lat="43.10677" lon="5.92333">
        <ele>9.3</ele>
        <time>2025-05-25T15:30:07.000Z</time>
      </trkpt>
      <trkpt lat="43.1069" lon="5.92341">
        <ele>9.3</ele>
        <time>2025-05-25T15:30:09.000Z</time>
      </trkpt>
      <trkpt lat="43.10703" lon="5.92348">
        <ele>9.3</ele>
        <time>2025-05-25T15:30:11.000Z</time>
      </trkpt>
      <trkpt lat="43.10715" lon="5.92355">
        <ele>9.3</ele>
        <time>2025-05-25T15:30:13.000Z</time>
      </trkpt>
      <trkpt lat="43.10727" lon="5.92362">
        <ele>9.3</ele>
        <time>2025-05-25T15:30:15.000Z</time>
      </trkpt>
      <trkpt lat="43.10737" lon="5.92368">
        <ele>9.3</ele>
        <time>2025-05-25T15:30:17.000Z</time>
      </trkpt>
      <trkpt lat="43.10747" lon="5.92375">
        <ele>9.3</ele>
        <time>2025-05-25T15:30:19.000Z</time>
      </trkpt>
      <trkpt lat="43.10757" lon="5.92381">
        <ele>9.3</ele>
        <time>2025-05-25T15:30:21.000Z</time>
      </trkpt>
      <trkpt lat="43.10768" lon="5.92388">
        <ele>9.3</ele>
        <time>2025-05-25T15:30:23.000Z</time>
      </trkpt>
      <trkpt lat="43.1078" lon="5.92394">
        <ele>9.3</ele>
        <time>2025-05-25T15:30:25.000Z</time>
      </trkpt>
      <trkpt lat="43.10792" lon="5.92401">
        <ele>9.3</ele>
        <time>2025-05-25T15:30:27.000Z</time>
      </trkpt>
      <trkpt lat="43.10804" lon="5.92407">
        <ele>9.3</ele>
        <time>2025-05-25T15:30:29.000Z</time>
      </trkpt>
      <trkpt lat="43.10816" lon="5.92413">
        <ele>9.3</ele>
        <time>2025-05-25T15:30:31.000Z</time>
      </trkpt>
      <trkpt lat="43.10829" lon="5.92418">
        <ele>9.3</ele>
        <time>2025-05-25T15:30:33.000Z</time>
      </trkpt>
      <trkpt lat="43.10841" lon="5.92424">
        <ele>9.3</ele>
        <time>2025-05-25T15:30:35.000Z</time>
      </trkpt>
      <trkpt lat="43.10853" lon="5.9243">
        <ele>9.3</ele>
        <time>2025-05-25T15:30:37.000Z</time>
      </trkpt>
      <trkpt lat="43.10865" lon="5.92435">
        <ele>9.3</ele>
        <time>2025-05-25T15:30:39.000Z</time>
      </trkpt>
      <trkpt lat="43.10877" lon="5.9244">
        <ele>9.3</ele>
        <time>2025-05-25T15:30:41.000Z</time>
      </trkpt>
      <trkpt lat="43.10888" lon="5.92447">
        <ele>9.4</ele>
        <time>2025-05-25T15:30:43.000Z</time>
      </trkpt>
      <trkpt lat="43.10899" lon="5.92453">
        <ele>9.4</ele>
        <time>2025-05-25T15:30:45.000Z</time>
      </trkpt>
      <trkpt lat="43.10909" lon="5.92458">
        <ele>9.4</ele>
        <time>2025-05-25T15:30:47.000Z</time>
      </trkpt>
      <trkpt lat="43.10921" lon="5.92462">
        <ele>9.4</ele>
        <time>2025-05-25T15:30:49.000Z</time>
      </trkpt>
      <trkpt lat="43.10931" lon="5.92466">
        <ele>9.4</ele>
        <time>2025-05-25T15:30:51.000Z</time>
      </trkpt>
      <trkpt lat="43.10943" lon="5.92471">
        <ele>9.4</ele>
        <time>2025-05-25T15:30:53.000Z</time>
      </trkpt>
      <trkpt lat="43.10955" lon="5.92475">
        <ele>9.4</ele>
        <time>2025-05-25T15:30:55.000Z</time>
      </trkpt>
      <trkpt lat="43.10966" lon="5.92482">
        <ele>9.4</ele>
        <time>2025-05-25T15:30:57.000Z</time>
      </trkpt>
      <trkpt lat="43.10978" lon="5.92489">
        <ele>9.4</ele>
        <time>2025-05-25T15:30:59.000Z</time>
      </trkpt>
      <trkpt lat="43.1099" lon="5.92495">
        <ele>9.4</ele>
        <time>2025-05-25T15:31:01.000Z</time>
      </trkpt>
      <trkpt lat="43.11" lon="5.92501">
        <ele>9.4</ele>
        <time>2025-05-25T15:31:03.000Z</time>
      </trkpt>
      <trkpt lat="43.11011" lon="5.92508">
        <ele>9.4</ele>
        <time>2025-05-25T15:31:05.000Z</time>
      </trkpt>
      <trkpt lat="43.11021" lon="5.92514">
        <ele>9.4</ele>
        <time>2025-05-25T15:31:07.000Z</time>
      </trkpt>
      <trkpt lat="43.1103" lon="5.9252">
        <ele>9.4</ele>
        <time>2025-05-25T15:31:09.000Z</time>
      </trkpt>
      <trkpt lat="43.1104" lon="5.92526">
        <ele>9.4</ele>
        <time>2025-05-25T15:31:11.000Z</time>
      </trkpt>
      <trkpt lat="43.1105" lon="5.92533">
        <ele>9.4</ele>
        <time>2025-05-25T15:31:13.000Z</time>
      </trkpt>
      <trkpt lat="43.11061" lon="5.9254">
        <ele>9.4</ele>
        <time>2025-05-25T15:31:15.000Z</time>
      </trkpt>
      <trkpt lat="43.11071" lon="5.92548">
        <ele>9.4</ele>
        <time>2025-05-25T15:31:17.000Z</time>
      </trkpt>
      <trkpt lat="43.11082" lon="5.92557">
        <ele>9.4</ele>
        <time>2025-05-25T15:31:19.000Z</time>
      </trkpt>
      <trkpt lat="43.11094" lon="5.92562">
        <ele>9.4</ele>
        <time>2025-05-25T15:31:21.000Z</time>
      </trkpt>
      <trkpt lat="43.11105" lon="5.92567">
        <ele>9.4</ele>
        <time>2025-05-25T15:31:23.000Z</time>
      </trkpt>
      <trkpt lat="43.11117" lon="5.92571">
        <ele>9.5</ele>
        <time>2025-05-25T15:31:25.000Z</time>
      </trkpt>
      <trkpt lat="43.11129" lon="5.92577">
        <ele>9.5</ele>
        <time>2025-05-25T15:31:27.000Z</time>
      </trkpt>
      <trkpt lat="43.1114" lon="5.92584">
        <ele>9.5</ele>
        <time>2025-05-25T15:31:29.000Z</time>
      </trkpt>
      <trkpt lat="43.11151" lon="5.92593">
        <ele>9.5</ele>
        <time>2025-05-25T15:31:31.000Z</time>
      </trkpt>
      <trkpt lat="43.11163" lon="5.926">
        <ele>9.5</ele>
        <time>2025-05-25T15:31:33.000Z</time>
      </trkpt>
      <trkpt lat="43.11174" lon="5.92607">
        <ele>9.5</ele>
        <time>2025-05-25T15:31:35.000Z</time>
      </trkpt>
      <trkpt lat="43.11186" lon="5.92613">
        <ele>9.5</ele>
        <time>2025-05-25T15:31:37.000Z</time>
      </trkpt>
      <trkpt lat="43.11198" lon="5.92619">
        <ele>9.5</ele>
        <time>2025-05-25T15:31:39.000Z</time>
      </trkpt>
      <trkpt lat="43.11209" lon="5.92626">
        <ele>9.5</ele>
        <time>2025-05-25T15:31:41.000Z</time>
      </trkpt>
      <trkpt lat="43.1122" lon="5.92633">
        <ele>9.5</ele>
        <time>2025-05-25T15:31:43.000Z</time>
      </trkpt>
      <trkpt lat="43.11231" lon="5.92637">
        <ele>9.5</ele>
        <time>2025-05-25T15:31:45.000Z</time>
      </trkpt>
      <trkpt lat="43.11241" lon="5.92643">
        <ele>9.5</ele>
        <time>2025-05-25T15:31:47.000Z</time>
      </trkpt>
      <trkpt lat="43.11252" lon="5.9265">
        <ele>9.5</ele>
        <time>2025-05-25T15:31:49.000Z</time>
      </trkpt>
      <trkpt lat="43.11262" lon="5.92656">
        <ele>9.5</ele>
        <time>2025-05-25T15:31:51.000Z</time>
      </trkpt>
      <trkpt lat="43.11274" lon="5.92662">
        <ele>9.5</ele>
        <time>2025-05-25T15:31:53.000Z</time>
      </trkpt>
      <trkpt lat="43.11285" lon="5.92668">
        <ele>9.5</ele>
        <time>2025-05-25T15:31:55.000Z</time>
      </trkpt>
      <trkpt lat="43.11296" lon="5.92673">
        <ele>9.5</ele>
        <time>2025-05-25T15:31:57.000Z</time>
      </trkpt>
      <trkpt lat="43.11308" lon="5.92679">
        <ele>9.5</ele>
        <time>2025-05-25T15:31:59.000Z</time>
      </trkpt>
      <trkpt lat="43.11319" lon="5.92686">
        <ele>9.5</ele>
        <time>2025-05-25T15:32:01.000Z</time>
      </trkpt>
      <trkpt lat="43.1133" lon="5.92693">
        <ele>9.5</ele>
        <time>2025-05-25T15:32:03.000Z</time>
      </trkpt>
      <trkpt lat="43.11342" lon="5.92697">
        <ele>9.5</ele>
        <time>2025-05-25T15:32:05.000Z</time>
      </trkpt>
      <trkpt lat="43.11354" lon="5.92701">
        <ele>9.5</ele>
        <time>2025-05-25T15:32:07.000Z</time>
      </trkpt>
      <trkpt lat="43.11365" lon="5.92705">
        <ele>9.5</ele>
        <time>2025-05-25T15:32:09.000Z</time>
      </trkpt>
      <trkpt lat="43.11375" lon="5.92708">
        <ele>9.5</ele>
        <time>2025-05-25T15:32:11.000Z</time>
      </trkpt>
      <trkpt lat="43.11386" lon="5.92713">
        <ele>9.5</ele>
        <time>2025-05-25T15:32:13.000Z</time>
      </trkpt>
      <trkpt lat="43.11395" lon="5.92718">
        <ele>9.5</ele>
        <time>2025-05-25T15:32:15.000Z</time>
      </trkpt>
      <trkpt lat="43.11404" lon="5.92723">
        <ele>9.5</ele>
        <time>2025-05-25T15:32:17.000Z</time>
      </trkpt>
      <trkpt lat="43.11413" lon="5.92728">
        <ele>9.6</ele>
        <time>2025-05-25T15:32:19.000Z</time>
      </trkpt>
      <trkpt lat="43.11423" lon="5.92733">
        <ele>9.6</ele>
        <time>2025-05-25T15:32:21.000Z</time>
      </trkpt>
      <trkpt lat="43.11433" lon="5.92737">
        <ele>9.6</ele>
        <time>2025-05-25T15:32:23.000Z</time>
      </trkpt>
      <trkpt lat="43.11443" lon="5.9274">
        <ele>9.6</ele>
        <time>2025-05-25T15:32:25.000Z</time>
      </trkpt>
      <trkpt lat="43.11451" lon="5.92744">
        <ele>9.6</ele>
        <time>2025-05-25T15:32:27.000Z</time>
      </trkpt>
      <trkpt lat="43.1146" lon="5.92747">
        <ele>9.6</ele>
        <time>2025-05-25T15:32:29.000Z</time>
      </trkpt>
      <trkpt lat="43.11469" lon="5.92752">
        <ele>9.6</ele>
        <time>2025-05-25T15:32:31.000Z</time>
      </trkpt>
      <trkpt lat="43.11478" lon="5.92757">
        <ele>9.6</ele>
        <time>2025-05-25T15:32:33.000Z</time>
      </trkpt>
      <trkpt lat="43.11489" lon="5.92764">
        <ele>9.7</ele>
        <time>2025-05-25T15:32:36.000Z</time>
      </trkpt>
      <trkpt lat="43.11499" lon="5.92768">
        <ele>9.7</ele>
        <time>2025-05-25T15:32:39.000Z</time>
      </trkpt>
      <trkpt lat="43.1151" lon="5.9277">
        <ele>9.7</ele>
        <time>2025-05-25T15:32:42.000Z</time>
      </trkpt>
      <trkpt lat="43.11522" lon="5.92774">
        <ele>9.7</ele>
        <time>2025-05-25T15:32:45.000Z</time>
      </trkpt>
      <trkpt lat="43.11533" lon="5.9278">
        <ele>9.7</ele>
        <time>2025-05-25T15:32:48.000Z</time>
      </trkpt>
      <trkpt lat="43.11543" lon="5.92787">
        <ele>9.7</ele>
        <time>2025-05-25T15:32:51.000Z</time>
      </trkpt>
      <trkpt lat="43.11553" lon="5.92791">
        <ele>9.7</ele>
        <time>2025-05-25T15:32:54.000Z</time>
      </trkpt>
      <trkpt lat="43.11562" lon="5.92795">
        <ele>9.7</ele>
        <time>2025-05-25T15:32:57.000Z</time>
      </trkpt>
      <trkpt lat="43.11571" lon="5.928">
        <ele>9.7</ele>
        <time>2025-05-25T15:33:00.000Z</time>
      </trkpt>
      <trkpt lat="43.1158" lon="5.92806">
        <ele>9.7</ele>
        <time>2025-05-25T15:33:03.000Z</time>
      </trkpt>
      <trkpt lat="43.1159" lon="5.92813">
        <ele>9.7</ele>
        <time>2025-05-25T15:33:06.000Z</time>
      </trkpt>
      <trkpt lat="43.116" lon="5.92819">
        <ele>9.7</ele>
        <time>2025-05-25T15:33:09.000Z</time>
      </trkpt>
      <trkpt lat="43.11609" lon="5.92822">
        <ele>9.7</ele>
        <time>2025-05-25T15:33:12.000Z</time>
      </trkpt>
      <trkpt lat="43.11619" lon="5.92827">
        <ele>9.7</ele>
        <time>2025-05-25T15:33:15.000Z</time>
      </trkpt>
      <trkpt lat="43.11629" lon="5.92832">
        <ele>9.7</ele>
        <time>2025-05-25T15:33:18.000Z</time>
      </trkpt>
      <trkpt lat="43.11638" lon="5.92836">
        <ele>9.7</ele>
        <time>2025-05-25T15:33:21.000Z</time>
      </trkpt>
      <trkpt lat="43.11648" lon="5.92841">
        <ele>9.7</ele>
        <time>2025-05-25T15:33:24.000Z</time>
      </trkpt>
      <trkpt lat="43.11659" lon="5.92845">
        <ele>9.7</ele>
        <time>2025-05-25T15:33:27.000Z</time>
      </trkpt>
      <trkpt lat="43.11668" lon="5.9285">
        <ele>9.6</ele>
        <time>2025-05-25T15:33:30.000Z</time>
      </trkpt>
      <trkpt lat="43.11678" lon="5.92855">
        <ele>9.6</ele>
        <time>2025-05-25T15:33:33.000Z</time>
      </trkpt>
      <trkpt lat="43.1169" lon="5.92861">
        <ele>9.6</ele>
        <time>2025-05-25T15:33:36.000Z</time>
      </trkpt>
      <trkpt lat="43.11702" lon="5.92868">
        <ele>9.6</ele>
        <time>2025-05-25T15:33:39.000Z</time>
      </trkpt>
      <trkpt lat="43.11711" lon="5.92875">
        <ele>9.6</ele>
        <time>2025-05-25T15:33:42.000Z</time>
      </trkpt>
      <trkpt lat="43.1172" lon="5.92879">
        <ele>9.6</ele>
        <time>2025-05-25T15:33:45.000Z</time>
      </trkpt>
      <trkpt lat="43.11729" lon="5.92886">
        <ele>9.6</ele>
        <time>2025-05-25T15:33:48.000Z</time>
      </trkpt>
      <trkpt lat="43.11738" lon="5.92892">
        <ele>9.7</ele>
        <time>2025-05-25T15:33:51.000Z</time>
      </trkpt>
      <trkpt lat="43.11748" lon="5.92898">
        <ele>9.6</ele>
        <time>2025-05-25T15:33:54.000Z</time>
      </trkpt>
      <trkpt lat="43.11756" lon="5.92905">
        <ele>9.7</ele>
        <time>2025-05-25T15:33:57.000Z</time>
      </trkpt>
      <trkpt lat="43.11764" lon="5.92912">
        <ele>9.7</ele>
        <time>2025-05-25T15:34:00.000Z</time>
      </trkpt>
      <trkpt lat="43.11774" lon="5.92919">
        <ele>9.7</ele>
        <time>2025-05-25T15:34:03.000Z</time>
      </trkpt>
      <trkpt lat="43.11783" lon="5.92924">
        <ele>9.7</ele>
        <time>2025-05-25T15:34:06.000Z</time>
      </trkpt>
      <trkpt lat="43.11792" lon="5.92931">
        <ele>9.7</ele>
        <time>2025-05-25T15:34:10.000Z</time>
      </trkpt>
      <trkpt lat="43.11799" lon="5.92939">
        <ele>9.7</ele>
        <time>2025-05-25T15:34:14.000Z</time>
      </trkpt>
      <trkpt lat="43.11806" lon="5.92948">
        <ele>9.7</ele>
        <time>2025-05-25T15:34:18.000Z</time>
      </trkpt>
      <trkpt lat="43.11813" lon="5.92956">
        <ele>9.7</ele>
        <time>2025-05-25T15:34:21.000Z</time>
      </trkpt>
      <trkpt lat="43.11821" lon="5.92965">
        <ele>9.7</ele>
        <time>2025-05-25T15:34:24.000Z</time>
      </trkpt>
      <trkpt lat="43.11827" lon="5.92974">
        <ele>9.7</ele>
        <time>2025-05-25T15:34:27.000Z</time>
      </trkpt>
      <trkpt lat="43.11837" lon="5.92982">
        <ele>9.7</ele>
        <time>2025-05-25T15:34:30.000Z</time>
      </trkpt>
      <trkpt lat="43.11846" lon="5.92991">
        <ele>9.7</ele>
        <time>2025-05-25T15:34:33.000Z</time>
      </trkpt>
      <trkpt lat="43.11854" lon="5.93">
        <ele>9.7</ele>
        <time>2025-05-25T15:34:36.000Z</time>
      </trkpt>
      <trkpt lat="43.11862" lon="5.93005">
        <ele>9.7</ele>
        <time>2025-05-25T15:34:39.000Z</time>
      </trkpt>
      <trkpt lat="43.11872" lon="5.9301">
        <ele>9.7</ele>
        <time>2025-05-25T15:34:43.000Z</time>
      </trkpt>
      <trkpt lat="43.11882" lon="5.93013">
        <ele>9.7</ele>
        <time>2025-05-25T15:34:46.000Z</time>
      </trkpt>
      <trkpt lat="43.11891" lon="5.93017">
        <ele>9.7</ele>
        <time>2025-05-25T15:34:49.000Z</time>
      </trkpt>
      <trkpt lat="43.11901" lon="5.9302">
        <ele>9.8</ele>
        <time>2025-05-25T15:34:52.000Z</time>
      </trkpt>
      <trkpt lat="43.11911" lon="5.93021">
        <ele>9.8</ele>
        <time>2025-05-25T15:34:56.000Z</time>
      </trkpt>
      <trkpt lat="43.1192" lon="5.93022">
        <ele>9.8</ele>
        <time>2025-05-25T15:34:59.000Z</time>
      </trkpt>
      <trkpt lat="43.11931" lon="5.93022">
        <ele>9.8</ele>
        <time>2025-05-25T15:35:03.000Z</time>
      </trkpt>
      <trkpt lat="43.11941" lon="5.93021">
        <ele>9.8</ele>
        <time>2025-05-25T15:35:07.000Z</time>
      </trkpt>
      <trkpt lat="43.1195" lon="5.93023">
        <ele>9.8</ele>
        <time>2025-05-25T15:35:10.000Z</time>
      </trkpt>
      <trkpt lat="43.1196" lon="5.93025">
        <ele>9.8</ele>
        <time>2025-05-25T15:35:14.000Z</time>
      </trkpt>
      <trkpt lat="43.1197" lon="5.9303">
        <ele>9.8</ele>
        <time>2025-05-25T15:35:18.000Z</time>
      </trkpt>
      <trkpt lat="43.11979" lon="5.93037">
        <ele>9.8</ele>
        <time>2025-05-25T15:35:22.000Z</time>
      </trkpt>
      <trkpt lat="43.1199" lon="5.93043">
        <ele>9.8</ele>
        <time>2025-05-25T15:35:27.000Z</time>
      </trkpt>
      <trkpt lat="43.11998" lon="5.93051">
        <ele>9.8</ele>
        <time>2025-05-25T15:35:32.000Z</time>
      </trkpt>
      <trkpt lat="43.12006" lon="5.93059">
        <ele>9.7</ele>
        <time>2025-05-25T15:35:37.000Z</time>
      </trkpt>
      <trkpt lat="43.12009" lon="5.93067">
        <ele>9.7</ele>
        <time>2025-05-25T15:35:50.000Z</time>
      </trkpt>
      <trkpt lat="43.12009" lon="5.93066">
        <ele>9.8</ele>
        <time>2025-05-25T15:35:51.000Z</time>
      </trkpt>
      <trkpt lat="43.1201" lon="5.93068">
        <ele>9.7</ele>
        <time>2025-05-25T15:35:57.000Z</time>
      </trkpt>
      <trkpt lat="43.1201" lon="5.93068">
        <ele>9.7</ele>
        <time>2025-05-25T15:35:58.000Z</time>
      </trkpt>
      <trkpt lat="43.1201" lon="5.93068">
        <ele>9.7</ele>
        <time>2025-05-25T15:35:59.000Z</time>
      </trkpt>
      <trkpt lat="43.12009" lon="5.9307">
        <ele>9.7</ele>
        <time>2025-05-25T15:36:07.000Z</time>
      </trkpt>
      <trkpt lat="43.12009" lon="5.93071">
        <ele>9.6</ele>
        <time>2025-05-25T15:36:08.000Z</time>
      </trkpt>
      <trkpt lat="43.12009" lon="5.93072">
        <ele>9.6</ele>
        <time>2025-05-25T15:36:09.000Z</time>
      </trkpt>
      <trkpt lat="43.12006" lon="5.93077">
        <ele>9.6</ele>
        <time>2025-05-25T15:36:23.000Z</time>
      </trkpt>
      <trkpt lat="43.12006" lon="5.93077">
        <ele>9.6</ele>
        <time>2025-05-25T15:36:24.000Z</time>
      </trkpt>
      <trkpt lat="43.12006" lon="5.93078">
        <ele>9.6</ele>
        <time>2025-05-25T15:36:25.000Z</time>
      </trkpt>
      <trkpt lat="43.12006" lon="5.93078">
        <ele>9.6</ele>
        <time>2025-05-25T15:36:30.000Z</time>
      </trkpt>
      <trkpt lat="43.12006" lon="5.93078">
        <ele>9.6</ele>
        <time>2025-05-25T15:36:31.000Z</time>
      </trkpt>
      <trkpt lat="43.12006" lon="5.93078">
        <ele>9.6</ele>
        <time>2025-05-25T15:36:32.000Z</time>
      </trkpt>
      <trkpt lat="43.12006" lon="5.93078">
        <ele>9.6</ele>
        <time>2025-05-25T15:36:33.000Z</time>
      </trkpt>
      <trkpt lat="43.12006" lon="5.93078">
        <ele>9.6</ele>
        <time>2025-05-25T15:36:34.000Z</time>
      </trkpt>
      <trkpt lat="43.12006" lon="5.93078">
        <ele>9.7</ele>
        <time>2025-05-25T15:37:33.000Z</time>
      </trkpt>
      <trkpt lat="43.12006" lon="5.93078">
        <ele>9.7</ele>
        <time>2025-05-25T15:37:34.000Z</time>
      </trkpt>
      <trkpt lat="43.12006" lon="5.93078">
        <ele>9.7</ele>
        <time>2025-05-25T15:37:35.000Z</time>
      </trkpt>
      <trkpt lat="43.12006" lon="5.93078">
        <ele>9.7</ele>
        <time>2025-05-25T15:37:36.000Z</time>
      </trkpt>
      <trkpt lat="43.12006" lon="5.93079">
        <ele>9.5</ele>
        <time>2025-05-25T15:38:18.000Z</time>
      </trkpt>
      <trkpt lat="43.12006" lon="5.93079">
        <ele>9.5</ele>
        <time>2025-05-25T15:38:19.000Z</time>
      </trkpt>
      <trkpt lat="43.12006" lon="5.9308">
        <ele>9.5</ele>
        <time>2025-05-25T15:38:20.000Z</time>
      </trkpt>
      <trkpt lat="43.12012" lon="5.9309">
        <ele>9.5</ele>
        <time>2025-05-25T15:38:36.000Z</time>
      </trkpt>
      <trkpt lat="43.12019" lon="5.93099">
        <ele>9.5</ele>
        <time>2025-05-25T15:38:48.000Z</time>
      </trkpt>
      <trkpt lat="43.12027" lon="5.93106">
        <ele>9.5</ele>
        <time>2025-05-25T15:39:01.000Z</time>
      </trkpt>
      <trkpt lat="43.12036" lon="5.93112">
        <ele>9.4</ele>
        <time>2025-05-25T15:39:18.000Z</time>
      </trkpt>
      <trkpt lat="43.12045" lon="5.93117">
        <ele>9.3</ele>
        <time>2025-05-25T15:39:32.000Z</time>
      </trkpt>
      <trkpt lat="43.12053" lon="5.93121">
        <ele>9.3</ele>
        <time>2025-05-25T15:39:41.000Z</time>
      </trkpt>
      <trkpt lat="43.12059" lon="5.93131">
        <ele>9.2</ele>
        <time>2025-05-25T15:39:54.000Z</time>
      </trkpt>
      <trkpt lat="43.12059" lon="5.93141">
        <ele>9.3</ele>
        <time>2025-05-25T15:40:10.000Z</time>
      </trkpt>
      <trkpt lat="43.12059" lon="5.93141">
        <ele>9.3</ele>
        <time>2025-05-25T15:40:11.000Z</time>
      </trkpt>
      <trkpt lat="43.12059" lon="5.93141">
        <ele>9.3</ele>
        <time>2025-05-25T15:40:12.000Z</time>
      </trkpt>
      <trkpt lat="43.12059" lon="5.93141">
        <ele>9.3</ele>
        <time>2025-05-25T15:40:13.000Z</time>
      </trkpt>
      <trkpt lat="43.12059" lon="5.93141">
        <ele>9.3</ele>
        <time>2025-05-25T15:40:14.000Z</time>
      </trkpt>
      <trkpt lat="43.12059" lon="5.93141">
        <ele>9.3</ele>
        <time>2025-05-25T15:40:15.000Z</time>
      </trkpt>
      <trkpt lat="43.12059" lon="5.93141">
        <ele>9.3</ele>
        <time>2025-05-25T15:40:16.000Z</time>
      </trkpt>
      <trkpt lat="43.12059" lon="5.93141">
        <ele>9.3</ele>
        <time>2025-05-25T15:40:17.000Z</time>
      </trkpt>
      <trkpt lat="43.12059" lon="5.9314">
        <ele>9.4</ele>
        <time>2025-05-25T15:40:26.000Z</time>
      </trkpt>
      <trkpt lat="43.12059" lon="5.9314">
        <ele>9.4</ele>
        <time>2025-05-25T15:40:27.000Z</time>
      </trkpt>
      <trkpt lat="43.12059" lon="5.9314">
        <ele>9.5</ele>
        <time>2025-05-25T15:40:28.000Z</time>
      </trkpt>
      <trkpt lat="43.12059" lon="5.9314">
        <ele>9.5</ele>
        <time>2025-05-25T15:40:29.000Z</time>
      </trkpt>
      <trkpt lat="43.12059" lon="5.9314">
        <ele>9.5</ele>
        <time>2025-05-25T15:40:30.000Z</time>
      </trkpt>
      <trkpt lat="43.12059" lon="5.9314">
        <ele>9.5</ele>
        <time>2025-05-25T15:40:50.000Z</time>
      </trkpt>
      <trkpt lat="43.12059" lon="5.9314">
        <ele>9.5</ele>
        <time>2025-05-25T15:40:51.000Z</time>
      </trkpt>
      <trkpt lat="43.12059" lon="5.9314">
        <ele>9.5</ele>
        <time>2025-05-25T15:40:52.000Z</time>
      </trkpt>
      <trkpt lat="43.12059" lon="5.9314">
        <ele>9.5</ele>
        <time>2025-05-25T15:40:53.000Z</time>
      </trkpt>
      <trkpt lat="43.12059" lon="5.9314">
        <ele>9.5</ele>
        <time>2025-05-25T15:40:54.000Z</time>
      </trkpt>
      <trkpt lat="43.12059" lon="5.9314">
        <ele>9.5</ele>
        <time>2025-05-25T15:40:55.000Z</time>
      </trkpt>
      <trkpt lat="43.12059" lon="5.9314">
        <ele>9.5</ele>
        <time>2025-05-25T15:40:56.000Z</time>
      </trkpt>
      <trkpt lat="43.12059" lon="5.9314">
        <ele>9.5</ele>
        <time>2025-05-25T15:40:57.000Z</time>
      </trkpt>
      <trkpt lat="43.12059" lon="5.9314">
        <ele>9.5</ele>
        <time>2025-05-25T15:40:58.000Z</time>
      </trkpt>
      <trkpt lat="43.12059" lon="5.9314">
        <ele>9.5</ele>
        <time>2025-05-25T15:40:59.000Z</time>
      </trkpt>
      <trkpt lat="43.12059" lon="5.93142">
        <ele>9.4</ele>
        <time>2025-05-25T15:41:05.000Z</time>
      </trkpt>
      <trkpt lat="43.12059" lon="5.93143">
        <ele>9.4</ele>
        <time>2025-05-25T15:41:06.000Z</time>
      </trkpt>
      <trkpt lat="43.12067" lon="5.9315">
        <ele>9.4</ele>
        <time>2025-05-25T15:41:15.000Z</time>
      </trkpt>
      <trkpt lat="43.12075" lon="5.93155">
        <ele>9.4</ele>
        <time>2025-05-25T15:41:27.000Z</time>
      </trkpt>
      <trkpt lat="43.12085" lon="5.9316">
        <ele>9.4</ele>
        <time>2025-05-25T15:41:39.000Z</time>
      </trkpt>
      <trkpt lat="43.12095" lon="5.93162">
        <ele>9.4</ele>
        <time>2025-05-25T15:41:47.000Z</time>
      </trkpt>
      <trkpt lat="43.12101" lon="5.93173">
        <ele>9.4</ele>
        <time>2025-05-25T15:41:53.000Z</time>
      </trkpt>
      <trkpt lat="43.1211" lon="5.93178">
        <ele>9.4</ele>
        <time>2025-05-25T15:42:03.000Z</time>
      </trkpt>
      <trkpt lat="43.12117" lon="5.93187">
        <ele>9.4</ele>
        <time>2025-05-25T15:42:15.000Z</time>
      </trkpt>
      <trkpt lat="43.12128" lon="5.93189">
        <ele>9.5</ele>
        <time>2025-05-25T15:42:23.000Z</time>
      </trkpt>
      <trkpt lat="43.12135" lon="5.93198">
        <ele>9.6</ele>
        <time>2025-05-25T15:42:32.000Z</time>
      </trkpt>
      <trkpt lat="43.12143" lon="5.93206">
        <ele>9.7</ele>
        <time>2025-05-25T15:42:40.000Z</time>
      </trkpt>
      <trkpt lat="43.1215" lon="5.93215">
        <ele>9.7</ele>
        <time>2025-05-25T15:42:48.000Z</time>
      </trkpt>
      <trkpt lat="43.12159" lon="5.93217">
        <ele>9.8</ele>
        <time>2025-05-25T15:42:57.000Z</time>
      </trkpt>
      <trkpt lat="43.12168" lon="5.93224">
        <ele>9.7</ele>
        <time>2025-05-25T15:43:06.000Z</time>
      </trkpt>
      <trkpt lat="43.12174" lon="5.93235">
        <ele>9.8</ele>
        <time>2025-05-25T15:43:15.000Z</time>
      </trkpt>
      <trkpt lat="43.12179" lon="5.93246">
        <ele>9.9</ele>
        <time>2025-05-25T15:43:23.000Z</time>
      </trkpt>
      <trkpt lat="43.12189" lon="5.9325">
        <ele>10.2</ele>
        <time>2025-05-25T15:43:33.000Z</time>
      </trkpt>
      <trkpt lat="43.12198" lon="5.93248">
        <ele>10.4</ele>
        <time>2025-05-25T15:43:41.000Z</time>
      </trkpt>
      <trkpt lat="43.12208" lon="5.93247">
        <ele>10.5</ele>
        <time>2025-05-25T15:43:49.000Z</time>
      </trkpt>
      <trkpt lat="43.12217" lon="5.93252">
        <ele>10.7</ele>
        <time>2025-05-25T15:43:56.000Z</time>
      </trkpt>
      <trkpt lat="43.12226" lon="5.9326">
        <ele>10.8</ele>
        <time>2025-05-25T15:44:03.000Z</time>
      </trkpt>
      <trkpt lat="43.12236" lon="5.9326">
        <ele>11</ele>
        <time>2025-05-25T15:44:16.000Z</time>
      </trkpt>
      <trkpt lat="43.12247" lon="5.9326">
        <ele>11.3</ele>
        <time>2025-05-25T15:44:26.000Z</time>
      </trkpt>
      <trkpt lat="43.12255" lon="5.93253">
        <ele>11.8</ele>
        <time>2025-05-25T15:44:36.000Z</time>
      </trkpt>
      <trkpt lat="43.12264" lon="5.93254">
        <ele>12.2</ele>
        <time>2025-05-25T15:44:45.000Z</time>
      </trkpt>
      <trkpt lat="43.12274" lon="5.93253">
        <ele>12.5</ele>
        <time>2025-05-25T15:44:52.000Z</time>
      </trkpt>
      <trkpt lat="43.12284" lon="5.93259">
        <ele>12.9</ele>
        <time>2025-05-25T15:45:04.000Z</time>
      </trkpt>
      <trkpt lat="43.12293" lon="5.9326">
        <ele>13.1</ele>
        <time>2025-05-25T15:45:12.000Z</time>
      </trkpt>
      <trkpt lat="43.12302" lon="5.93265">
        <ele>13.4</ele>
        <time>2025-05-25T15:45:20.000Z</time>
      </trkpt>
      <trkpt lat="43.1231" lon="5.9327">
        <ele>13.6</ele>
        <time>2025-05-25T15:45:27.000Z</time>
      </trkpt>
      <trkpt lat="43.12314" lon="5.93282">
        <ele>14</ele>
        <time>2025-05-25T15:45:36.000Z</time>
      </trkpt>
      <trkpt lat="43.12323" lon="5.93287">
        <ele>14.1</ele>
        <time>2025-05-25T15:45:44.000Z</time>
      </trkpt>
      <trkpt lat="43.12331" lon="5.93295">
        <ele>14.2</ele>
        <time>2025-05-25T15:45:53.000Z</time>
      </trkpt>
      <trkpt lat="43.12339" lon="5.93301">
        <ele>14.4</ele>
        <time>2025-05-25T15:46:03.000Z</time>
      </trkpt>
      <trkpt lat="43.12342" lon="5.93303">
        <ele>14.5</ele>
        <time>2025-05-25T15:46:07.000Z</time>
      </trkpt>
      <trkpt lat="43.12342" lon="5.93303">
        <ele>14.5</ele>
        <time>2025-05-25T15:46:08.000Z</time>
      </trkpt>
      <trkpt lat="43.12342" lon="5.93303">
        <ele>14.6</ele>
        <time>2025-05-25T15:46:09.000Z</time>
      </trkpt>
      <trkpt lat="43.12343" lon="5.93307">
        <ele>14.6</ele>
        <time>2025-05-25T15:46:13.000Z</time>
      </trkpt>
      <trkpt lat="43.12343" lon="5.93309">
        <ele>14.6</ele>
        <time>2025-05-25T15:46:14.000Z</time>
      </trkpt>
      <trkpt lat="43.12352" lon="5.93306">
        <ele>14.9</ele>
        <time>2025-05-25T15:46:24.000Z</time>
      </trkpt>
      <trkpt lat="43.12361" lon="5.93306">
        <ele>15.1</ele>
        <time>2025-05-25T15:46:39.000Z</time>
      </trkpt>
      <trkpt lat="43.12368" lon="5.93315">
        <ele>15.2</ele>
        <time>2025-05-25T15:46:48.000Z</time>
      </trkpt>
      <trkpt lat="43.12373" lon="5.93327">
        <ele>15.6</ele>
        <time>2025-05-25T15:46:59.000Z</time>
      </trkpt>
      <trkpt lat="43.12382" lon="5.93334">
        <ele>15.9</ele>
        <time>2025-05-25T15:47:09.000Z</time>
      </trkpt>
      <trkpt lat="43.12389" lon="5.93343">
        <ele>16.6</ele>
        <time>2025-05-25T15:47:23.000Z</time>
      </trkpt>
      <trkpt lat="43.12399" lon="5.93348">
        <ele>16.9</ele>
        <time>2025-05-25T15:47:31.000Z</time>
      </trkpt>
      <trkpt lat="43.12408" lon="5.93349">
        <ele>17.3</ele>
        <time>2025-05-25T15:47:39.000Z</time>
      </trkpt>
      <trkpt lat="43.12418" lon="5.93347">
        <ele>17.7</ele>
        <time>2025-05-25T15:47:49.000Z</time>
      </trkpt>
      <trkpt lat="43.12428" lon="5.93348">
        <ele>18</ele>
        <time>2025-05-25T15:47:57.000Z</time>
      </trkpt>
      <trkpt lat="43.12438" lon="5.9335">
        <ele>18.4</ele>
        <time>2025-05-25T15:48:05.000Z</time>
      </trkpt>
      <trkpt lat="43.12447" lon="5.93353">
        <ele>19</ele>
        <time>2025-05-25T15:48:14.000Z</time>
      </trkpt>
      <trkpt lat="43.12457" lon="5.93356">
        <ele>19.5</ele>
        <time>2025-05-25T15:48:23.000Z</time>
      </trkpt>
      <trkpt lat="43.12458" lon="5.93365">
        <ele>20.2</ele>
        <time>2025-05-25T15:48:38.000Z</time>
      </trkpt>
      <trkpt lat="43.12459" lon="5.93366">
        <ele>20.2</ele>
        <time>2025-05-25T15:48:39.000Z</time>
      </trkpt>
      <trkpt lat="43.12459" lon="5.93366">
        <ele>20.2</ele>
        <time>2025-05-25T15:48:43.000Z</time>
      </trkpt>
      <trkpt lat="43.1246" lon="5.93366">
        <ele>20.2</ele>
        <time>2025-05-25T15:48:44.000Z</time>
      </trkpt>
      <trkpt lat="43.1246" lon="5.93366">
        <ele>20.3</ele>
        <time>2025-05-25T15:48:45.000Z</time>
      </trkpt>
      <trkpt lat="43.1246" lon="5.93366">
        <ele>20.3</ele>
        <time>2025-05-25T15:48:46.000Z</time>
      </trkpt>
      <trkpt lat="43.1246" lon="5.93366">
        <ele>20.3</ele>
        <time>2025-05-25T15:48:47.000Z</time>
      </trkpt>
      <trkpt lat="43.12463" lon="5.93365">
        <ele>20.4</ele>
        <time>2025-05-25T15:48:57.000Z</time>
      </trkpt>
      <trkpt lat="43.12463" lon="5.93366">
        <ele>20.4</ele>
        <time>2025-05-25T15:48:58.000Z</time>
      </trkpt>
      <trkpt lat="43.12462" lon="5.93367">
        <ele>20.4</ele>
        <time>2025-05-25T15:48:59.000Z</time>
      </trkpt>
      <trkpt lat="43.12462" lon="5.93366">
        <ele>20.5</ele>
        <time>2025-05-25T15:49:07.000Z</time>
      </trkpt>
      <trkpt lat="43.12462" lon="5.93366">
        <ele>20.5</ele>
        <time>2025-05-25T15:49:08.000Z</time>
      </trkpt>
      <trkpt lat="43.12463" lon="5.93366">
        <ele>20.5</ele>
        <time>2025-05-25T15:49:09.000Z</time>
      </trkpt>
      <trkpt lat="43.12466" lon="5.93365">
        <ele>20.7</ele>
        <time>2025-05-25T15:49:25.000Z</time>
      </trkpt>
      <trkpt lat="43.12466" lon="5.93366">
        <ele>20.7</ele>
        <time>2025-05-25T15:49:26.000Z</time>
      </trkpt>
      <trkpt lat="43.12474" lon="5.93371">
        <ele>20.8</ele>
        <time>2025-05-25T15:49:45.000Z</time>
      </trkpt>
      <trkpt lat="43.12483" lon="5.93376">
        <ele>21</ele>
        <time>2025-05-25T15:49:59.000Z</time>
      </trkpt>
      <trkpt lat="43.12492" lon="5.93372">
        <ele>21.2</ele>
        <time>2025-05-25T15:50:06.000Z</time>
      </trkpt>
      <trkpt lat="43.12501" lon="5.93369">
        <ele>21.6</ele>
        <time>2025-05-25T15:50:15.000Z</time>
      </trkpt>
      <trkpt lat="43.12511" lon="5.93367">
        <ele>22</ele>
        <time>2025-05-25T15:50:21.000Z</time>
      </trkpt>
      <trkpt lat="43.12514" lon="5.93379">
        <ele>22.8</ele>
        <time>2025-05-25T15:50:33.000Z</time>
      </trkpt>
      <trkpt lat="43.12517" lon="5.93393">
        <ele>23</ele>
        <time>2025-05-25T15:50:38.000Z</time>
      </trkpt>
      <trkpt lat="43.12521" lon="5.93406">
        <ele>23.2</ele>
        <time>2025-05-25T15:50:44.000Z</time>
      </trkpt>
      <trkpt lat="43.1252" lon="5.93419">
        <ele>23.5</ele>
        <time>2025-05-25T15:50:50.000Z</time>
      </trkpt>
      <trkpt lat="43.12521" lon="5.93432">
        <ele>23.8</ele>
        <time>2025-05-25T15:50:57.000Z</time>
      </trkpt>
      <trkpt lat="43.12518" lon="5.93443">
        <ele>23.9</ele>
        <time>2025-05-25T15:51:06.000Z</time>
      </trkpt>
      <trkpt lat="43.12519" lon="5.93457">
        <ele>24</ele>
        <time>2025-05-25T15:51:16.000Z</time>
      </trkpt>
      <trkpt lat="43.1252" lon="5.9347">
        <ele>24.1</ele>
        <time>2025-05-25T15:51:28.000Z</time>
      </trkpt>
      <trkpt lat="43.12511" lon="5.93475">
        <ele>24.2</ele>
        <time>2025-05-25T15:51:31.000Z</time>
      </trkpt>
      <trkpt lat="43.12516" lon="5.93486">
        <ele>24.3</ele>
        <time>2025-05-25T15:51:40.000Z</time>
      </trkpt>
      <trkpt lat="43.12524" lon="5.93493">
        <ele>24.7</ele>
        <time>2025-05-25T15:51:51.000Z</time>
      </trkpt>
      <trkpt lat="43.12532" lon="5.93499">
        <ele>25.2</ele>
        <time>2025-05-25T15:52:02.000Z</time>
      </trkpt>
      <trkpt lat="43.1254" lon="5.93507">
        <ele>25.5</ele>
        <time>2025-05-25T15:52:11.000Z</time>
      </trkpt>
      <trkpt lat="43.12549" lon="5.93512">
        <ele>25.9</ele>
        <time>2025-05-25T15:52:19.000Z</time>
      </trkpt>
      <trkpt lat="43.12557" lon="5.93519">
        <ele>26.6</ele>
        <time>2025-05-25T15:52:25.000Z</time>
      </trkpt>
      <trkpt lat="43.12566" lon="5.93521">
        <ele>27.4</ele>
        <time>2025-05-25T15:52:35.000Z</time>
      </trkpt>
      <trkpt lat="43.12574" lon="5.93525">
        <ele>27.9</ele>
        <time>2025-05-25T15:52:41.000Z</time>
      </trkpt>
      <trkpt lat="43.12583" lon="5.9353">
        <ele>28.6</ele>
        <time>2025-05-25T15:52:51.000Z</time>
      </trkpt>
      <trkpt lat="43.12578" lon="5.93542">
        <ele>29.6</ele>
        <time>2025-05-25T15:53:11.000Z</time>
      </trkpt>
      <trkpt lat="43.12573" lon="5.93553">
        <ele>29.8</ele>
        <time>2025-05-25T15:53:19.000Z</time>
      </trkpt>
      <trkpt lat="43.12572" lon="5.9356">
        <ele>30.2</ele>
        <time>2025-05-25T15:53:30.000Z</time>
      </trkpt>
      <trkpt lat="43.12572" lon="5.9356">
        <ele>30.2</ele>
        <time>2025-05-25T15:53:31.000Z</time>
      </trkpt>
      <trkpt lat="43.12571" lon="5.93561">
        <ele>30.4</ele>
        <time>2025-05-25T15:53:43.000Z</time>
      </trkpt>
      <trkpt lat="43.1257" lon="5.93562">
        <ele>30.4</ele>
        <time>2025-05-25T15:53:44.000Z</time>
      </trkpt>
      <trkpt lat="43.12574" lon="5.93573">
        <ele>30.4</ele>
        <time>2025-05-25T15:53:51.000Z</time>
      </trkpt>
      <trkpt lat="43.12582" lon="5.93581">
        <ele>30.5</ele>
        <time>2025-05-25T15:53:59.000Z</time>
      </trkpt>
      <trkpt lat="43.1259" lon="5.93587">
        <ele>31</ele>
        <time>2025-05-25T15:54:07.000Z</time>
      </trkpt>
      <trkpt lat="43.12599" lon="5.93592">
        <ele>32.1</ele>
        <time>2025-05-25T15:54:16.000Z</time>
      </trkpt>
      <trkpt lat="43.12608" lon="5.93597">
        <ele>33.2</ele>
        <time>2025-05-25T15:54:24.000Z</time>
      </trkpt>
      <trkpt lat="43.12617" lon="5.93602">
        <ele>33.7</ele>
        <time>2025-05-25T15:54:32.000Z</time>
      </trkpt>
      <trkpt lat="43.12625" lon="5.93609">
        <ele>34</ele>
        <time>2025-05-25T15:54:43.000Z</time>
      </trkpt>
      <trkpt lat="43.12629" lon="5.9362">
        <ele>34</ele>
        <time>2025-05-25T15:54:50.000Z</time>
      </trkpt>
      <trkpt lat="43.12635" lon="5.9363">
        <ele>34.1</ele>
        <time>2025-05-25T15:54:59.000Z</time>
      </trkpt>
      <trkpt lat="43.12644" lon="5.93633">
        <ele>34.2</ele>
        <time>2025-05-25T15:55:08.000Z</time>
      </trkpt>
      <trkpt lat="43.12653" lon="5.93641">
        <ele>34.1</ele>
        <time>2025-05-25T15:55:18.000Z</time>
      </trkpt>
      <trkpt lat="43.12657" lon="5.93646">
        <ele>34</ele>
        <time>2025-05-25T15:55:32.000Z</time>
      </trkpt>
      <trkpt lat="43.12657" lon="5.93646">
        <ele>34</ele>
        <time>2025-05-25T15:55:33.000Z</time>
      </trkpt>
      <trkpt lat="43.12657" lon="5.93646">
        <ele>34</ele>
        <time>2025-05-25T15:55:34.000Z</time>
      </trkpt>
      <trkpt lat="43.12657" lon="5.93645">
        <ele>34</ele>
        <time>2025-05-25T15:55:35.000Z</time>
      </trkpt>
      <trkpt lat="43.12657" lon="5.93644">
        <ele>34</ele>
        <time>2025-05-25T15:55:36.000Z</time>
      </trkpt>
      <trkpt lat="43.12657" lon="5.93644">
        <ele>34</ele>
        <time>2025-05-25T15:55:37.000Z</time>
      </trkpt>
      <trkpt lat="43.12657" lon="5.93644">
        <ele>34</ele>
        <time>2025-05-25T15:55:38.000Z</time>
      </trkpt>
      <trkpt lat="43.12657" lon="5.93644">
        <ele>34</ele>
        <time>2025-05-25T15:55:39.000Z</time>
      </trkpt>
      <trkpt lat="43.12658" lon="5.93644">
        <ele>33.9</ele>
        <time>2025-05-25T15:56:10.000Z</time>
      </trkpt>
      <trkpt lat="43.12659" lon="5.93645">
        <ele>33.9</ele>
        <time>2025-05-25T15:56:11.000Z</time>
      </trkpt>
      <trkpt lat="43.12669" lon="5.93649">
        <ele>33.9</ele>
        <time>2025-05-25T15:56:21.000Z</time>
      </trkpt>
      <trkpt lat="43.12678" lon="5.93649">
        <ele>34</ele>
        <time>2025-05-25T15:56:29.000Z</time>
      </trkpt>
      <trkpt lat="43.12687" lon="5.9365">
        <ele>34.1</ele>
        <time>2025-05-25T15:56:37.000Z</time>
      </trkpt>
      <trkpt lat="43.12696" lon="5.93647">
        <ele>34.2</ele>
        <time>2025-05-25T15:56:45.000Z</time>
      </trkpt>
      <trkpt lat="43.12705" lon="5.93649">
        <ele>34.5</ele>
        <time>2025-05-25T15:56:54.000Z</time>
      </trkpt>
      <trkpt lat="43.12714" lon="5.9365">
        <ele>35</ele>
        <time>2025-05-25T15:57:02.000Z</time>
      </trkpt>
      <trkpt lat="43.12723" lon="5.93651">
        <ele>35.7</ele>
        <time>2025-05-25T15:57:11.000Z</time>
      </trkpt>
      <trkpt lat="43.12732" lon="5.93649">
        <ele>36.9</ele>
        <time>2025-05-25T15:57:22.000Z</time>
      </trkpt>
      <trkpt lat="43.12741" lon="5.93645">
        <ele>37.5</ele>
        <time>2025-05-25T15:57:32.000Z</time>
      </trkpt>
      <trkpt lat="43.12751" lon="5.93644">
        <ele>38</ele>
        <time>2025-05-25T15:57:41.000Z</time>
      </trkpt>
      <trkpt lat="43.1276" lon="5.93643">
        <ele>38.8</ele>
        <time>2025-05-25T15:57:50.000Z</time>
      </trkpt>
      <trkpt lat="43.12769" lon="5.93642">
        <ele>39.4</ele>
        <time>2025-05-25T15:57:59.000Z</time>
      </trkpt>
      <trkpt lat="43.12778" lon="5.93638">
        <ele>40.1</ele>
        <time>2025-05-25T15:58:14.000Z</time>
      </trkpt>
      <trkpt lat="43.12786" lon="5.93632">
        <ele>40.3</ele>
        <time>2025-05-25T15:58:24.000Z</time>
      </trkpt>
      <trkpt lat="43.12788" lon="5.93627">
        <ele>40.8</ele>
        <time>2025-05-25T15:58:55.000Z</time>
      </trkpt>
      <trkpt lat="43.12788" lon="5.93627">
        <ele>40.8</ele>
        <time>2025-05-25T15:58:55.000Z</time>
      </trkpt>
    </trkseg>
  </trk>
</gpx>